<?xml version="1.0" encoding="UTF-8" standalone="no" ?>
<gpx xmlns="http://www.topografix.com/GPX/1/1" xmlns:xsi="http://www.w3.org/2001/XMLSchema-instance" xsi:schemaLocation="http://www.topografix.com/GPX/1/1 http://www.topografix.com/GPX/1/1/gpx.xsd" version="1.1" creator="VisuGPX - https://www.visugpx.com">
  <metadata>
    <name>pyrennées 2000 les estanyol  plat des avellans</name>
  </metadata>
  <trk>
    <name><![CDATA[pyrennées 2000 les estanyol  plat des avellans_1]]></name>
    <trkseg>
      <trkpt lat="42.51564" lon="2.07641">
        <ele>1780.6929398635</ele>
        <time>2000-05-11T11:43:07</time>
      </trkpt>
      <trkpt lat="42.51564" lon="2.07642">
        <ele>1780.652085104</ele>
        <time>2000-05-11T11:43:08</time>
      </trkpt>
      <trkpt lat="42.51565" lon="2.07643">
        <ele>1781.3897998566</ele>
        <time>2000-05-11T11:43:09</time>
      </trkpt>
      <trkpt lat="42.51566" lon="2.07644">
        <ele>1782.1727763312</ele>
        <time>2000-05-11T11:43:10</time>
      </trkpt>
      <trkpt lat="42.51567" lon="2.07645">
        <ele>1781.4128124136</ele>
        <time>2000-05-11T11:43:11</time>
      </trkpt>
      <trkpt lat="42.51568" lon="2.07647">
        <ele>1781.8455458188</ele>
        <time>2000-05-11T11:43:12</time>
      </trkpt>
      <trkpt lat="42.51569" lon="2.07647">
        <ele>1782.6410537418</ele>
        <time>2000-05-11T11:43:13</time>
      </trkpt>
      <trkpt lat="42.5157" lon="2.07648">
        <ele>1783.3837904368</ele>
        <time>2000-05-11T11:43:14</time>
      </trkpt>
      <trkpt lat="42.5157" lon="2.07649">
        <ele>1784.0817587176</ele>
        <time>2000-05-11T11:43:15</time>
      </trkpt>
      <trkpt lat="42.51571" lon="2.07651">
        <ele>1784.6785727264</ele>
        <time>2000-05-11T11:43:16</time>
      </trkpt>
      <trkpt lat="42.51572" lon="2.07652">
        <ele>1784.8457153399</ele>
        <time>2000-05-11T11:43:17</time>
      </trkpt>
      <trkpt lat="42.51573" lon="2.07653">
        <ele>1784.7118482064</ele>
        <time>2000-05-11T11:43:18</time>
      </trkpt>
      <trkpt lat="42.51575" lon="2.07653">
        <ele>1784.5420217499</ele>
        <time>2000-05-11T11:43:19</time>
      </trkpt>
      <trkpt lat="42.51576" lon="2.07653">
        <ele>1784.4415541977</ele>
        <time>2000-05-11T11:43:20</time>
      </trkpt>
      <trkpt lat="42.51577" lon="2.07654">
        <ele>1784.5560367024</ele>
        <time>2000-05-11T11:43:21</time>
      </trkpt>
      <trkpt lat="42.51577" lon="2.07654">
        <ele>1785.0766714603</ele>
        <time>2000-05-11T11:43:22</time>
      </trkpt>
      <trkpt lat="42.51578" lon="2.07654">
        <ele>1785.1365814324</ele>
        <time>2000-05-11T11:43:23</time>
      </trkpt>
      <trkpt lat="42.51578" lon="2.07654">
        <ele>1784.8805263648</ele>
        <time>2000-05-11T11:43:24</time>
      </trkpt>
      <trkpt lat="42.5158" lon="2.07654">
        <ele>1784.3595849035</ele>
        <time>2000-05-11T11:43:25</time>
      </trkpt>
      <trkpt lat="42.51582" lon="2.07655">
        <ele>1783.9616858358</ele>
        <time>2000-05-11T11:43:26</time>
      </trkpt>
      <trkpt lat="42.51583" lon="2.07656">
        <ele>1783.3226431964</ele>
        <time>2000-05-11T11:43:27</time>
      </trkpt>
      <trkpt lat="42.51583" lon="2.07656">
        <ele>1782.9858613979</ele>
        <time>2000-05-11T11:43:28</time>
      </trkpt>
      <trkpt lat="42.51583" lon="2.07658">
        <ele>1783.1712651646</ele>
        <time>2000-05-11T11:43:29</time>
      </trkpt>
      <trkpt lat="42.51583" lon="2.07659">
        <ele>1783.5348212253</ele>
        <time>2000-05-11T11:43:30</time>
      </trkpt>
      <trkpt lat="42.51583" lon="2.0766">
        <ele>1783.9052313607</ele>
        <time>2000-05-11T11:43:31</time>
      </trkpt>
      <trkpt lat="42.51585" lon="2.07661">
        <ele>1784.1510991288</ele>
        <time>2000-05-11T11:43:31.998</time>
      </trkpt>
      <trkpt lat="42.51585" lon="2.07662">
        <ele>1784.6249908345</ele>
        <time>2000-05-11T11:43:32.998</time>
      </trkpt>
      <trkpt lat="42.51585" lon="2.07663">
        <ele>1784.8791683218</ele>
        <time>2000-05-11T11:43:33.998</time>
      </trkpt>
      <trkpt lat="42.51586" lon="2.07665">
        <ele>1785.1837853545</ele>
        <time>2000-05-11T11:43:34.998</time>
      </trkpt>
      <trkpt lat="42.51586" lon="2.07667">
        <ele>1785.3195511796</ele>
        <time>2000-05-11T11:43:35.998</time>
      </trkpt>
      <trkpt lat="42.51587" lon="2.07668">
        <ele>1785.6733478388</ele>
        <time>2000-05-11T11:43:36.998</time>
      </trkpt>
      <trkpt lat="42.51587" lon="2.07669">
        <ele>1785.9302256037</ele>
        <time>2000-05-11T11:43:37.998</time>
      </trkpt>
      <trkpt lat="42.51588" lon="2.07669">
        <ele>1786.5241674546</ele>
        <time>2000-05-11T11:43:38.998</time>
      </trkpt>
      <trkpt lat="42.5159" lon="2.07669">
        <ele>1786.6273520315</ele>
        <time>2000-05-11T11:43:39.998</time>
      </trkpt>
      <trkpt lat="42.51592" lon="2.07671">
        <ele>1786.2248293573</ele>
        <time>2000-05-11T11:43:40.998</time>
      </trkpt>
      <trkpt lat="42.51593" lon="2.07672">
        <ele>1785.7029479679</ele>
        <time>2000-05-11T11:43:41.998</time>
      </trkpt>
      <trkpt lat="42.51594" lon="2.07672">
        <ele>1784.8804582311</ele>
        <time>2000-05-11T11:43:42.998</time>
      </trkpt>
      <trkpt lat="42.51595" lon="2.07673">
        <ele>1783.56472263</ele>
        <time>2000-05-11T11:43:43.998</time>
      </trkpt>
      <trkpt lat="42.51595" lon="2.07674">
        <ele>1782.4318461888</ele>
        <time>2000-05-11T11:43:44.998</time>
      </trkpt>
      <trkpt lat="42.51595" lon="2.07675">
        <ele>1781.7096611168</ele>
        <time>2000-05-11T11:43:45.998</time>
      </trkpt>
      <trkpt lat="42.51595" lon="2.07675">
        <ele>1781.1153297856</ele>
        <time>2000-05-11T11:43:46.998</time>
      </trkpt>
      <trkpt lat="42.51596" lon="2.07676">
        <ele>1780.6758281298</ele>
        <time>2000-05-11T11:43:47.998</time>
      </trkpt>
      <trkpt lat="42.51597" lon="2.07678">
        <ele>1780.0701564094</ele>
        <time>2000-05-11T11:43:48.999</time>
      </trkpt>
      <trkpt lat="42.51597" lon="2.07679">
        <ele>1779.4266898736</ele>
        <time>2000-05-11T11:43:49.999</time>
      </trkpt>
      <trkpt lat="42.51598" lon="2.0768">
        <ele>1778.7485296311</ele>
        <time>2000-05-11T11:43:50.999</time>
      </trkpt>
      <trkpt lat="42.51599" lon="2.07681">
        <ele>1778.3445341978</ele>
        <time>2000-05-11T11:43:51.999</time>
      </trkpt>
      <trkpt lat="42.516" lon="2.07682">
        <ele>1778.1484530389</ele>
        <time>2000-05-11T11:43:52.999</time>
      </trkpt>
      <trkpt lat="42.51601" lon="2.07683">
        <ele>1778.1676776059</ele>
        <time>2000-05-11T11:43:53.999</time>
      </trkpt>
      <trkpt lat="42.51604" lon="2.07682">
        <ele>1778.1853649462</ele>
        <time>2000-05-11T11:43:54.999</time>
      </trkpt>
      <trkpt lat="42.51606" lon="2.07681">
        <ele>1778.0057409476</ele>
        <time>2000-05-11T11:43:55.999</time>
      </trkpt>
      <trkpt lat="42.51606" lon="2.07683">
        <ele>1777.431618336</ele>
        <time>2000-05-11T11:43:56.999</time>
      </trkpt>
      <trkpt lat="42.51607" lon="2.07684">
        <ele>1776.5997309867</ele>
        <time>2000-05-11T11:43:57.999</time>
      </trkpt>
      <trkpt lat="42.51608" lon="2.07684">
        <ele>1776.1339845113</ele>
        <time>2000-05-11T11:43:58.999</time>
      </trkpt>
      <trkpt lat="42.51609" lon="2.07685">
        <ele>1775.835731435</ele>
        <time>2000-05-11T11:43:59.999</time>
      </trkpt>
      <trkpt lat="42.51609" lon="2.07686">
        <ele>1775.7926107462</ele>
        <time>2000-05-11T11:44:00.999</time>
      </trkpt>
      <trkpt lat="42.5161" lon="2.07687">
        <ele>1776.02144213</ele>
        <time>2000-05-11T11:44:01.999</time>
      </trkpt>
      <trkpt lat="42.51611" lon="2.07689">
        <ele>1776.7374851007</ele>
        <time>2000-05-11T11:44:02.999</time>
      </trkpt>
      <trkpt lat="42.51612" lon="2.0769">
        <ele>1777.3584950289</ele>
        <time>2000-05-11T11:44:03.999</time>
      </trkpt>
      <trkpt lat="42.51613" lon="2.07691">
        <ele>1778.109927802</ele>
        <time>2000-05-11T11:44:04.999</time>
      </trkpt>
      <trkpt lat="42.51613" lon="2.07693">
        <ele>1779.0993804699</ele>
        <time>2000-05-11T11:44:05.999</time>
      </trkpt>
      <trkpt lat="42.51614" lon="2.07695">
        <ele>1780.2076772692</ele>
        <time>2000-05-11T11:44:06.999</time>
      </trkpt>
      <trkpt lat="42.51615" lon="2.07695">
        <ele>1781.1062935911</ele>
        <time>2000-05-11T11:44:07.999</time>
      </trkpt>
      <trkpt lat="42.51616" lon="2.07696">
        <ele>1782.043734218</ele>
        <time>2000-05-11T11:44:08.999</time>
      </trkpt>
      <trkpt lat="42.51617" lon="2.07697">
        <ele>1782.9142341971</ele>
        <time>2000-05-11T11:44:09.999</time>
      </trkpt>
      <trkpt lat="42.51618" lon="2.07698">
        <ele>1783.3970788484</ele>
        <time>2000-05-11T11:44:10.999</time>
      </trkpt>
      <trkpt lat="42.51619" lon="2.07698">
        <ele>1783.4830322178</ele>
        <time>2000-05-11T11:44:11.999</time>
      </trkpt>
      <trkpt lat="42.51621" lon="2.07697">
        <ele>1783.0143584374</ele>
        <time>2000-05-11T11:44:12.999</time>
      </trkpt>
      <trkpt lat="42.51621" lon="2.07697">
        <ele>1782.2974799313</ele>
        <time>2000-05-11T11:44:13.999</time>
      </trkpt>
      <trkpt lat="42.51621" lon="2.07697">
        <ele>1781.5519647541</ele>
        <time>2000-05-11T11:44:14.999</time>
      </trkpt>
      <trkpt lat="42.51622" lon="2.07698">
        <ele>1780.4799840702</ele>
        <time>2000-05-11T11:44:15.999</time>
      </trkpt>
      <trkpt lat="42.51623" lon="2.077">
        <ele>1779.2365963073</ele>
        <time>2000-05-11T11:44:16.999</time>
      </trkpt>
      <trkpt lat="42.51625" lon="2.07701">
        <ele>1777.7743717982</ele>
        <time>2000-05-11T11:44:17.999</time>
      </trkpt>
      <trkpt lat="42.51626" lon="2.07703">
        <ele>1775.9517019674</ele>
        <time>2000-05-11T11:44:18.999</time>
      </trkpt>
      <trkpt lat="42.51627" lon="2.07704">
        <ele>1773.8832974508</ele>
        <time>2000-05-11T11:44:19.999</time>
      </trkpt>
      <trkpt lat="42.51628" lon="2.07705">
        <ele>1772.4296128517</ele>
        <time>2000-05-11T11:44:20.999</time>
      </trkpt>
      <trkpt lat="42.51628" lon="2.07706">
        <ele>1771.2146596804</ele>
        <time>2000-05-11T11:44:21.999</time>
      </trkpt>
      <trkpt lat="42.51628" lon="2.07706">
        <ele>1770.6650335137</ele>
        <time>2000-05-11T11:44:22.999</time>
      </trkpt>
      <trkpt lat="42.51629" lon="2.07706">
        <ele>1770.8910594938</ele>
        <time>2000-05-11T11:44:23.999</time>
      </trkpt>
      <trkpt lat="42.51629" lon="2.07708">
        <ele>1771.4696263026</ele>
        <time>2000-05-11T11:44:25.3</time>
      </trkpt>
      <trkpt lat="42.51631" lon="2.07708">
        <ele>1771.5722963741</ele>
        <time>2000-05-11T11:44:26.3</time>
      </trkpt>
      <trkpt lat="42.51632" lon="2.07708">
        <ele>1771.9536280746</ele>
        <time>2000-05-11T11:44:27.3</time>
      </trkpt>
      <trkpt lat="42.51633" lon="2.07708">
        <ele>1772.4776842466</ele>
        <time>2000-05-11T11:44:28.3</time>
      </trkpt>
      <trkpt lat="42.51634" lon="2.07708">
        <ele>1772.3584214071</ele>
        <time>2000-05-11T11:44:29.3</time>
      </trkpt>
      <trkpt lat="42.51635" lon="2.07708">
        <ele>1772.1583617857</ele>
        <time>2000-05-11T11:44:30.3</time>
      </trkpt>
      <trkpt lat="42.51635" lon="2.07708">
        <ele>1772.3198870761</ele>
        <time>2000-05-11T11:44:31.3</time>
      </trkpt>
      <trkpt lat="42.51637" lon="2.07708">
        <ele>1772.0597092902</ele>
        <time>2000-05-11T11:44:32.3</time>
      </trkpt>
      <trkpt lat="42.51638" lon="2.07709">
        <ele>1771.1902524291</ele>
        <time>2000-05-11T11:44:33.3</time>
      </trkpt>
      <trkpt lat="42.51639" lon="2.0771">
        <ele>1770.5984696172</ele>
        <time>2000-05-11T11:44:34.3</time>
      </trkpt>
      <trkpt lat="42.51641" lon="2.0771">
        <ele>1770.014390536</ele>
        <time>2000-05-11T11:44:35.3</time>
      </trkpt>
      <trkpt lat="42.51644" lon="2.07709">
        <ele>1768.802339893</ele>
        <time>2000-05-11T11:44:36.3</time>
      </trkpt>
      <trkpt lat="42.51646" lon="2.0771">
        <ele>1768.1587958235</ele>
        <time>2000-05-11T11:44:37.3</time>
      </trkpt>
      <trkpt lat="42.51648" lon="2.07712">
        <ele>1768.9875929367</ele>
        <time>2000-05-11T11:44:38.3</time>
      </trkpt>
      <trkpt lat="42.51649" lon="2.07713">
        <ele>1770.1414450785</ele>
        <time>2000-05-11T11:44:39.3</time>
      </trkpt>
      <trkpt lat="42.51651" lon="2.07714">
        <ele>1771.3252926923</ele>
        <time>2000-05-11T11:44:40.3</time>
      </trkpt>
      <trkpt lat="42.51652" lon="2.07715">
        <ele>1773.4667172348</ele>
        <time>2000-05-11T11:44:41.3</time>
      </trkpt>
      <trkpt lat="42.51654" lon="2.07715">
        <ele>1775.4123457296</ele>
        <time>2000-05-11T11:44:42.3</time>
      </trkpt>
      <trkpt lat="42.51655" lon="2.07716">
        <ele>1776.0977106519</ele>
        <time>2000-05-11T11:44:43.3</time>
      </trkpt>
      <trkpt lat="42.51657" lon="2.07715">
        <ele>1776.8938119033</ele>
        <time>2000-05-11T11:44:44.3</time>
      </trkpt>
      <trkpt lat="42.51658" lon="2.07715">
        <ele>1778.2830408132</ele>
        <time>2000-05-11T11:44:45.3</time>
      </trkpt>
      <trkpt lat="42.5166" lon="2.07714">
        <ele>1779.7768339492</ele>
        <time>2000-05-11T11:44:46.3</time>
      </trkpt>
      <trkpt lat="42.5166" lon="2.07715">
        <ele>1781.0199642984</ele>
        <time>2000-05-11T11:44:47.3</time>
      </trkpt>
      <trkpt lat="42.51661" lon="2.07716">
        <ele>1782.4662996825</ele>
        <time>2000-05-11T11:44:48.3</time>
      </trkpt>
      <trkpt lat="42.51662" lon="2.07718">
        <ele>1783.2484364953</ele>
        <time>2000-05-11T11:44:49.3</time>
      </trkpt>
      <trkpt lat="42.51663" lon="2.07719">
        <ele>1783.2967845391</ele>
        <time>2000-05-11T11:44:50.3</time>
      </trkpt>
      <trkpt lat="42.51663" lon="2.07719">
        <ele>1782.7664789991</ele>
        <time>2000-05-11T11:44:51.3</time>
      </trkpt>
      <trkpt lat="42.51664" lon="2.0772">
        <ele>1782.2457255788</ele>
        <time>2000-05-11T11:44:52.3</time>
      </trkpt>
      <trkpt lat="42.51664" lon="2.0772">
        <ele>1781.7865772357</ele>
        <time>2000-05-11T11:44:53.3</time>
      </trkpt>
      <trkpt lat="42.51664" lon="2.07721">
        <ele>1781.5766157635</ele>
        <time>2000-05-11T11:44:54.6</time>
      </trkpt>
      <trkpt lat="42.51665" lon="2.07722">
        <ele>1781.4780957993</ele>
        <time>2000-05-11T11:44:55.6</time>
      </trkpt>
      <trkpt lat="42.51666" lon="2.07721">
        <ele>1781.0442849364</ele>
        <time>2000-05-11T11:44:56.6</time>
      </trkpt>
      <trkpt lat="42.51667" lon="2.07722">
        <ele>1780.9389368244</ele>
        <time>2000-05-11T11:44:57.6</time>
      </trkpt>
      <trkpt lat="42.51667" lon="2.07722">
        <ele>1780.6162753014</ele>
        <time>2000-05-11T11:44:58.6</time>
      </trkpt>
      <trkpt lat="42.51668" lon="2.07724">
        <ele>1779.9579950035</ele>
        <time>2000-05-11T11:44:59.6</time>
      </trkpt>
      <trkpt lat="42.51668" lon="2.07726">
        <ele>1779.4384538973</ele>
        <time>2000-05-11T11:45:00.6</time>
      </trkpt>
      <trkpt lat="42.51669" lon="2.07727">
        <ele>1779.5616125878</ele>
        <time>2000-05-11T11:45:01.6</time>
      </trkpt>
      <trkpt lat="42.5167" lon="2.07728">
        <ele>1779.4442164928</ele>
        <time>2000-05-11T11:45:02.6</time>
      </trkpt>
      <trkpt lat="42.51671" lon="2.07729">
        <ele>1779.4202545898</ele>
        <time>2000-05-11T11:45:03.6</time>
      </trkpt>
      <trkpt lat="42.51672" lon="2.0773">
        <ele>1779.6361106062</ele>
        <time>2000-05-11T11:45:04.6</time>
      </trkpt>
      <trkpt lat="42.51675" lon="2.0773">
        <ele>1779.6457045613</ele>
        <time>2000-05-11T11:45:05.6</time>
      </trkpt>
      <trkpt lat="42.51675" lon="2.0773">
        <ele>1779.6684736827</ele>
        <time>2000-05-11T11:45:06.6</time>
      </trkpt>
      <trkpt lat="42.51676" lon="2.07731">
        <ele>1779.6863000596</ele>
        <time>2000-05-11T11:45:07.6</time>
      </trkpt>
      <trkpt lat="42.51677" lon="2.07731">
        <ele>1779.3329733962</ele>
        <time>2000-05-11T11:45:08.6</time>
      </trkpt>
      <trkpt lat="42.51677" lon="2.07731">
        <ele>1778.7846141186</ele>
        <time>2000-05-11T11:45:09.6</time>
      </trkpt>
      <trkpt lat="42.51679" lon="2.07732">
        <ele>1778.1351933073</ele>
        <time>2000-05-11T11:45:10.6</time>
      </trkpt>
      <trkpt lat="42.5168" lon="2.07732">
        <ele>1777.1504370779</ele>
        <time>2000-05-11T11:45:11.6</time>
      </trkpt>
      <trkpt lat="42.5168" lon="2.07733">
        <ele>1775.8841674188</ele>
        <time>2000-05-11T11:45:12.6</time>
      </trkpt>
      <trkpt lat="42.51682" lon="2.07734">
        <ele>1774.6432250224</ele>
        <time>2000-05-11T11:45:13.6</time>
      </trkpt>
      <trkpt lat="42.51683" lon="2.07734">
        <ele>1773.5490945643</ele>
        <time>2000-05-11T11:45:14.6</time>
      </trkpt>
      <trkpt lat="42.51685" lon="2.07735">
        <ele>1772.7421008887</ele>
        <time>2000-05-11T11:45:15.6</time>
      </trkpt>
      <trkpt lat="42.51687" lon="2.07736">
        <ele>1772.0307000892</ele>
        <time>2000-05-11T11:45:16.6</time>
      </trkpt>
      <trkpt lat="42.51689" lon="2.07736">
        <ele>1771.7094310848</ele>
        <time>2000-05-11T11:45:17.6</time>
      </trkpt>
      <trkpt lat="42.5169" lon="2.07738">
        <ele>1771.7881332146</ele>
        <time>2000-05-11T11:45:18.6</time>
      </trkpt>
      <trkpt lat="42.51691" lon="2.07739">
        <ele>1771.8644719098</ele>
        <time>2000-05-11T11:45:19.6</time>
      </trkpt>
      <trkpt lat="42.51692" lon="2.07739">
        <ele>1771.8464783102</ele>
        <time>2000-05-11T11:45:20.6</time>
      </trkpt>
      <trkpt lat="42.51693" lon="2.0774">
        <ele>1772.5904455965</ele>
        <time>2000-05-11T11:45:21.6</time>
      </trkpt>
      <trkpt lat="42.51693" lon="2.07742">
        <ele>1773.4945209688</ele>
        <time>2000-05-11T11:45:22.6</time>
      </trkpt>
      <trkpt lat="42.51693" lon="2.07742">
        <ele>1774.7691506939</ele>
        <time>2000-05-11T11:45:23.6</time>
      </trkpt>
      <trkpt lat="42.51693" lon="2.07742">
        <ele>1776.1198238647</ele>
        <time>2000-05-11T11:45:24.6</time>
      </trkpt>
      <trkpt lat="42.51694" lon="2.07743">
        <ele>1777.7683036229</ele>
        <time>2000-05-11T11:45:25.6</time>
      </trkpt>
      <trkpt lat="42.51694" lon="2.07745">
        <ele>1779.4432388227</ele>
        <time>2000-05-11T11:45:26.6</time>
      </trkpt>
      <trkpt lat="42.51695" lon="2.07747">
        <ele>1780.9936870066</ele>
        <time>2000-05-11T11:45:27.6</time>
      </trkpt>
      <trkpt lat="42.51695" lon="2.07748">
        <ele>1782.1927136512</ele>
        <time>2000-05-11T11:45:28.6</time>
      </trkpt>
      <trkpt lat="42.51696" lon="2.07748">
        <ele>1783.2928216301</ele>
        <time>2000-05-11T11:45:29.6</time>
      </trkpt>
      <trkpt lat="42.51697" lon="2.07749">
        <ele>1783.7260919508</ele>
        <time>2000-05-11T11:45:30.6</time>
      </trkpt>
      <trkpt lat="42.51699" lon="2.0775">
        <ele>1783.0027106991</ele>
        <time>2000-05-11T11:45:31.6</time>
      </trkpt>
      <trkpt lat="42.517" lon="2.0775">
        <ele>1782.0984471673</ele>
        <time>2000-05-11T11:45:32.6</time>
      </trkpt>
      <trkpt lat="42.517" lon="2.07752">
        <ele>1781.1478461867</ele>
        <time>2000-05-11T11:45:33.6</time>
      </trkpt>
      <trkpt lat="42.51701" lon="2.07753">
        <ele>1780.0988219323</ele>
        <time>2000-05-11T11:45:34.6</time>
      </trkpt>
      <trkpt lat="42.51702" lon="2.07754">
        <ele>1779.2791477036</ele>
        <time>2000-05-11T11:45:35.6</time>
      </trkpt>
      <trkpt lat="42.51701" lon="2.07756">
        <ele>1779.0362051882</ele>
        <time>2000-05-11T11:45:36.6</time>
      </trkpt>
      <trkpt lat="42.51701" lon="2.07759">
        <ele>1778.8411166921</ele>
        <time>2000-05-11T11:45:37.6</time>
      </trkpt>
      <trkpt lat="42.51702" lon="2.07761">
        <ele>1778.432836853</ele>
        <time>2000-05-11T11:45:38.6</time>
      </trkpt>
      <trkpt lat="42.51703" lon="2.07762">
        <ele>1777.6929363968</ele>
        <time>2000-05-11T11:45:39.6</time>
      </trkpt>
      <trkpt lat="42.51704" lon="2.07764">
        <ele>1777.0891838478</ele>
        <time>2000-05-11T11:45:40.6</time>
      </trkpt>
      <trkpt lat="42.51706" lon="2.07765">
        <ele>1776.8464695193</ele>
        <time>2000-05-11T11:45:41.6</time>
      </trkpt>
      <trkpt lat="42.51706" lon="2.07765">
        <ele>1776.6027749432</ele>
        <time>2000-05-11T11:45:42.6</time>
      </trkpt>
      <trkpt lat="42.51706" lon="2.07765">
        <ele>1776.4962049488</ele>
        <time>2000-05-11T11:45:43.6</time>
      </trkpt>
      <trkpt lat="42.51707" lon="2.07766">
        <ele>1776.6858178193</ele>
        <time>2000-05-11T11:45:44.6</time>
      </trkpt>
      <trkpt lat="42.51709" lon="2.07766">
        <ele>1776.4724902382</ele>
        <time>2000-05-11T11:45:45.6</time>
      </trkpt>
      <trkpt lat="42.5171" lon="2.07766">
        <ele>1775.4275346013</ele>
        <time>2000-05-11T11:45:46.6</time>
      </trkpt>
      <trkpt lat="42.51712" lon="2.07766">
        <ele>1773.779598837</ele>
        <time>2000-05-11T11:45:47.6</time>
      </trkpt>
      <trkpt lat="42.51712" lon="2.07766">
        <ele>1772.1033345547</ele>
        <time>2000-05-11T11:45:48.6</time>
      </trkpt>
      <trkpt lat="42.51715" lon="2.07766">
        <ele>1770.5820834424</ele>
        <time>2000-05-11T11:45:49.6</time>
      </trkpt>
      <trkpt lat="42.51715" lon="2.07768">
        <ele>1769.5103682134</ele>
        <time>2000-05-11T11:45:50.6</time>
      </trkpt>
      <trkpt lat="42.51715" lon="2.07769">
        <ele>1768.8942561978</ele>
        <time>2000-05-11T11:45:51.6</time>
      </trkpt>
      <trkpt lat="42.51715" lon="2.0777">
        <ele>1769.0114733001</ele>
        <time>2000-05-11T11:45:52.6</time>
      </trkpt>
      <trkpt lat="42.51716" lon="2.07771">
        <ele>1769.4056579273</ele>
        <time>2000-05-11T11:45:53.6</time>
      </trkpt>
      <trkpt lat="42.51716" lon="2.07774">
        <ele>1770.4997658735</ele>
        <time>2000-05-11T11:45:54.6</time>
      </trkpt>
      <trkpt lat="42.51717" lon="2.07776">
        <ele>1771.4551497785</ele>
        <time>2000-05-11T11:45:55.6</time>
      </trkpt>
      <trkpt lat="42.51717" lon="2.07777">
        <ele>1772.0336222133</ele>
        <time>2000-05-11T11:45:56.6</time>
      </trkpt>
      <trkpt lat="42.51718" lon="2.07777">
        <ele>1772.1997854074</ele>
        <time>2000-05-11T11:45:57.6</time>
      </trkpt>
      <trkpt lat="42.51719" lon="2.07778">
        <ele>1771.8678512163</ele>
        <time>2000-05-11T11:45:58.6</time>
      </trkpt>
      <trkpt lat="42.51719" lon="2.07779">
        <ele>1771.1106347272</ele>
        <time>2000-05-11T11:45:59.6</time>
      </trkpt>
      <trkpt lat="42.51719" lon="2.0778">
        <ele>1770.2880653735</ele>
        <time>2000-05-11T11:46:00.6</time>
      </trkpt>
      <trkpt lat="42.51721" lon="2.07779">
        <ele>1769.1682367923</ele>
        <time>2000-05-11T11:46:01.6</time>
      </trkpt>
      <trkpt lat="42.51722" lon="2.0778">
        <ele>1768.0216067443</ele>
        <time>2000-05-11T11:46:02.6</time>
      </trkpt>
      <trkpt lat="42.51723" lon="2.0778">
        <ele>1766.8956621692</ele>
        <time>2000-05-11T11:46:03.6</time>
      </trkpt>
      <trkpt lat="42.51723" lon="2.0778">
        <ele>1765.5728430947</ele>
        <time>2000-05-11T11:46:04.6</time>
      </trkpt>
      <trkpt lat="42.51723" lon="2.07782">
        <ele>1764.3930958997</ele>
        <time>2000-05-11T11:46:05.6</time>
      </trkpt>
      <trkpt lat="42.51724" lon="2.07784">
        <ele>1763.9435011787</ele>
        <time>2000-05-11T11:46:06.6</time>
      </trkpt>
      <trkpt lat="42.51724" lon="2.07786">
        <ele>1763.7920643484</ele>
        <time>2000-05-11T11:46:07.6</time>
      </trkpt>
      <trkpt lat="42.51725" lon="2.07787">
        <ele>1763.8164794547</ele>
        <time>2000-05-11T11:46:08.6</time>
      </trkpt>
      <trkpt lat="42.51725" lon="2.0779">
        <ele>1764.0865825482</ele>
        <time>2000-05-11T11:46:09.6</time>
      </trkpt>
      <trkpt lat="42.51725" lon="2.07793">
        <ele>1764.3257128133</ele>
        <time>2000-05-11T11:46:10.6</time>
      </trkpt>
      <trkpt lat="42.51726" lon="2.07795">
        <ele>1764.7207239076</ele>
        <time>2000-05-11T11:46:11.6</time>
      </trkpt>
      <trkpt lat="42.51726" lon="2.07799">
        <ele>1765.8199560663</ele>
        <time>2000-05-11T11:46:12.6</time>
      </trkpt>
      <trkpt lat="42.51726" lon="2.078">
        <ele>1767.0535745349</ele>
        <time>2000-05-11T11:46:13.6</time>
      </trkpt>
      <trkpt lat="42.51726" lon="2.07804">
        <ele>1768.246363073</ele>
        <time>2000-05-11T11:46:14.6</time>
      </trkpt>
      <trkpt lat="42.51726" lon="2.07807">
        <ele>1769.7776729263</ele>
        <time>2000-05-11T11:46:15.6</time>
      </trkpt>
      <trkpt lat="42.51726" lon="2.07809">
        <ele>1771.0200106841</ele>
        <time>2000-05-11T11:46:16.6</time>
      </trkpt>
      <trkpt lat="42.51728" lon="2.07811">
        <ele>1771.6354119722</ele>
        <time>2000-05-11T11:46:17.6</time>
      </trkpt>
      <trkpt lat="42.51729" lon="2.07813">
        <ele>1772.3465069378</ele>
        <time>2000-05-11T11:46:18.6</time>
      </trkpt>
      <trkpt lat="42.51729" lon="2.07814">
        <ele>1772.696794256</ele>
        <time>2000-05-11T11:46:19.6</time>
      </trkpt>
      <trkpt lat="42.51729" lon="2.07814">
        <ele>1772.6987667741</ele>
        <time>2000-05-11T11:46:20.6</time>
      </trkpt>
      <trkpt lat="42.51729" lon="2.07814">
        <ele>1772.6239848303</ele>
        <time>2000-05-11T11:46:21.6</time>
      </trkpt>
      <trkpt lat="42.51728" lon="2.07816">
        <ele>1772.7861601494</ele>
        <time>2000-05-11T11:46:22.4</time>
      </trkpt>
      <trkpt lat="42.51728" lon="2.07816">
        <ele>1772.9338485902</ele>
        <time>2000-05-11T11:46:23.4</time>
      </trkpt>
      <trkpt lat="42.51728" lon="2.07815">
        <ele>1772.5633057041</ele>
        <time>2000-05-11T11:46:24.6</time>
      </trkpt>
      <trkpt lat="42.51728" lon="2.07815">
        <ele>1772.192762818</ele>
        <time>2000-05-11T11:46:25.6</time>
      </trkpt>
      <trkpt lat="42.51729" lon="2.07814">
        <ele>1771.0201838117</ele>
        <time>2000-05-11T11:46:26.8</time>
      </trkpt>
      <trkpt lat="42.51729" lon="2.07816">
        <ele>1769.358110374</ele>
        <time>2000-05-11T11:46:27.8</time>
      </trkpt>
      <trkpt lat="42.51728" lon="2.07818">
        <ele>1767.8729719834</ele>
        <time>2000-05-11T11:46:28.8</time>
      </trkpt>
      <trkpt lat="42.51729" lon="2.07819">
        <ele>1766.6292954633</ele>
        <time>2000-05-11T11:46:29.8</time>
      </trkpt>
      <trkpt lat="42.5173" lon="2.0782">
        <ele>1765.386344642</ele>
        <time>2000-05-11T11:46:30.8</time>
      </trkpt>
      <trkpt lat="42.5173" lon="2.07823">
        <ele>1765.0377587933</ele>
        <time>2000-05-11T11:46:31.8</time>
      </trkpt>
      <trkpt lat="42.5173" lon="2.07825">
        <ele>1765.0928102216</ele>
        <time>2000-05-11T11:46:32.8</time>
      </trkpt>
      <trkpt lat="42.51731" lon="2.07825">
        <ele>1764.8204619739</ele>
        <time>2000-05-11T11:46:33.8</time>
      </trkpt>
      <trkpt lat="42.51731" lon="2.07826">
        <ele>1764.8339415686</ele>
        <time>2000-05-11T11:46:34.8</time>
      </trkpt>
      <trkpt lat="42.51731" lon="2.07828">
        <ele>1765.0897036683</ele>
        <time>2000-05-11T11:46:35.8</time>
      </trkpt>
      <trkpt lat="42.51731" lon="2.07831">
        <ele>1765.3724702828</ele>
        <time>2000-05-11T11:46:36.8</time>
      </trkpt>
      <trkpt lat="42.51731" lon="2.07834">
        <ele>1765.6653803453</ele>
        <time>2000-05-11T11:46:37.8</time>
      </trkpt>
      <trkpt lat="42.5173" lon="2.07837">
        <ele>1766.5196077481</ele>
        <time>2000-05-11T11:46:38.8</time>
      </trkpt>
      <trkpt lat="42.5173" lon="2.07839">
        <ele>1767.62002436</ele>
        <time>2000-05-11T11:46:39.8</time>
      </trkpt>
      <trkpt lat="42.5173" lon="2.07841">
        <ele>1768.3399761472</ele>
        <time>2000-05-11T11:46:40.8</time>
      </trkpt>
      <trkpt lat="42.51731" lon="2.07844">
        <ele>1769.0860682841</ele>
        <time>2000-05-11T11:46:41.8</time>
      </trkpt>
      <trkpt lat="42.51731" lon="2.07844">
        <ele>1769.604236096</ele>
        <time>2000-05-11T11:46:42.8</time>
      </trkpt>
      <trkpt lat="42.51731" lon="2.07844">
        <ele>1769.5981915448</ele>
        <time>2000-05-11T11:46:43.8</time>
      </trkpt>
      <trkpt lat="42.51732" lon="2.07845">
        <ele>1769.4358145526</ele>
        <time>2000-05-11T11:46:44.8</time>
      </trkpt>
      <trkpt lat="42.51733" lon="2.07846">
        <ele>1769.0268124187</ele>
        <time>2000-05-11T11:46:45.8</time>
      </trkpt>
      <trkpt lat="42.51734" lon="2.07848">
        <ele>1768.4324214451</ele>
        <time>2000-05-11T11:46:46.8</time>
      </trkpt>
      <trkpt lat="42.51734" lon="2.07849">
        <ele>1768.0672089126</ele>
        <time>2000-05-11T11:46:47.8</time>
      </trkpt>
      <trkpt lat="42.51735" lon="2.07849">
        <ele>1768.2324888639</ele>
        <time>2000-05-11T11:46:48.8</time>
      </trkpt>
      <trkpt lat="42.51736" lon="2.07851">
        <ele>1768.5521339171</ele>
        <time>2000-05-11T11:46:49.8</time>
      </trkpt>
      <trkpt lat="42.51736" lon="2.07854">
        <ele>1769.3578561177</ele>
        <time>2000-05-11T11:46:50.8</time>
      </trkpt>
      <trkpt lat="42.51737" lon="2.07857">
        <ele>1769.941667163</ele>
        <time>2000-05-11T11:46:51.8</time>
      </trkpt>
      <trkpt lat="42.51738" lon="2.07857">
        <ele>1769.7120161159</ele>
        <time>2000-05-11T11:46:52.8</time>
      </trkpt>
      <trkpt lat="42.51738" lon="2.07859">
        <ele>1769.0023764562</ele>
        <time>2000-05-11T11:46:53.8</time>
      </trkpt>
      <trkpt lat="42.51738" lon="2.07861">
        <ele>1768.4458868496</ele>
        <time>2000-05-11T11:46:54.8</time>
      </trkpt>
      <trkpt lat="42.51737" lon="2.07865">
        <ele>1768.2512368411</ele>
        <time>2000-05-11T11:46:55.8</time>
      </trkpt>
      <trkpt lat="42.51737" lon="2.07866">
        <ele>1768.2113444969</ele>
        <time>2000-05-11T11:46:56.8</time>
      </trkpt>
      <trkpt lat="42.51737" lon="2.07868">
        <ele>1768.6510018673</ele>
        <time>2000-05-11T11:46:57.8</time>
      </trkpt>
      <trkpt lat="42.51737" lon="2.0787">
        <ele>1768.9877791328</ele>
        <time>2000-05-11T11:46:58.8</time>
      </trkpt>
      <trkpt lat="42.51737" lon="2.07871">
        <ele>1769.0652080817</ele>
        <time>2000-05-11T11:46:59.8</time>
      </trkpt>
      <trkpt lat="42.51736" lon="2.07873">
        <ele>1769.018185099</ele>
        <time>2000-05-11T11:47:00.8</time>
      </trkpt>
      <trkpt lat="42.51736" lon="2.07875">
        <ele>1769.2509499731</ele>
        <time>2000-05-11T11:47:01.8</time>
      </trkpt>
      <trkpt lat="42.51736" lon="2.07876">
        <ele>1769.6567270411</ele>
        <time>2000-05-11T11:47:02.8</time>
      </trkpt>
      <trkpt lat="42.51737" lon="2.07877">
        <ele>1770.3016053719</ele>
        <time>2000-05-11T11:47:03.8</time>
      </trkpt>
      <trkpt lat="42.51738" lon="2.07878">
        <ele>1770.9963857235</ele>
        <time>2000-05-11T11:47:04.8</time>
      </trkpt>
      <trkpt lat="42.51738" lon="2.07879">
        <ele>1771.2336875083</ele>
        <time>2000-05-11T11:47:05.8</time>
      </trkpt>
      <trkpt lat="42.51739" lon="2.0788">
        <ele>1771.1527299976</ele>
        <time>2000-05-11T11:47:06.8</time>
      </trkpt>
      <trkpt lat="42.51739" lon="2.07882">
        <ele>1771.0130447453</ele>
        <time>2000-05-11T11:47:07.8</time>
      </trkpt>
      <trkpt lat="42.5174" lon="2.07883">
        <ele>1770.6552912621</ele>
        <time>2000-05-11T11:47:08.8</time>
      </trkpt>
      <trkpt lat="42.51741" lon="2.07883">
        <ele>1770.112211035</ele>
        <time>2000-05-11T11:47:09.8</time>
      </trkpt>
      <trkpt lat="42.51741" lon="2.07884">
        <ele>1769.5110067077</ele>
        <time>2000-05-11T11:47:10.8</time>
      </trkpt>
      <trkpt lat="42.51743" lon="2.07884">
        <ele>1768.3697097531</ele>
        <time>2000-05-11T11:47:11.8</time>
      </trkpt>
      <trkpt lat="42.51743" lon="2.07886">
        <ele>1766.9889404749</ele>
        <time>2000-05-11T11:47:12.8</time>
      </trkpt>
      <trkpt lat="42.51743" lon="2.07888">
        <ele>1765.710778749</ele>
        <time>2000-05-11T11:47:13.8</time>
      </trkpt>
      <trkpt lat="42.51744" lon="2.07889">
        <ele>1764.6211935598</ele>
        <time>2000-05-11T11:47:14.8</time>
      </trkpt>
      <trkpt lat="42.51744" lon="2.07891">
        <ele>1763.987395969</ele>
        <time>2000-05-11T11:47:15.8</time>
      </trkpt>
      <trkpt lat="42.51745" lon="2.07892">
        <ele>1764.1219165271</ele>
        <time>2000-05-11T11:47:16.8</time>
      </trkpt>
      <trkpt lat="42.51745" lon="2.07895">
        <ele>1764.6184315667</ele>
        <time>2000-05-11T11:47:17.8</time>
      </trkpt>
      <trkpt lat="42.51744" lon="2.07897">
        <ele>1765.1008694343</ele>
        <time>2000-05-11T11:47:18.8</time>
      </trkpt>
      <trkpt lat="42.51744" lon="2.07899">
        <ele>1765.3345805978</ele>
        <time>2000-05-11T11:47:19.8</time>
      </trkpt>
      <trkpt lat="42.51744" lon="2.07899">
        <ele>1765.2133996947</ele>
        <time>2000-05-11T11:47:20.8</time>
      </trkpt>
      <trkpt lat="42.51745" lon="2.07901">
        <ele>1765.0226685116</ele>
        <time>2000-05-11T11:47:21.8</time>
      </trkpt>
      <trkpt lat="42.51746" lon="2.07902">
        <ele>1764.6217577023</ele>
        <time>2000-05-11T11:47:22.8</time>
      </trkpt>
      <trkpt lat="42.51746" lon="2.07903">
        <ele>1764.1952618325</ele>
        <time>2000-05-11T11:47:23.8</time>
      </trkpt>
      <trkpt lat="42.51746" lon="2.07904">
        <ele>1763.7158080071</ele>
        <time>2000-05-11T11:47:24.8</time>
      </trkpt>
      <trkpt lat="42.51747" lon="2.07906">
        <ele>1763.4099020218</ele>
        <time>2000-05-11T11:47:25.8</time>
      </trkpt>
      <trkpt lat="42.51747" lon="2.07907">
        <ele>1763.020483475</ele>
        <time>2000-05-11T11:47:26.8</time>
      </trkpt>
      <trkpt lat="42.51747" lon="2.07907">
        <ele>1762.7091718806</ele>
        <time>2000-05-11T11:47:27.8</time>
      </trkpt>
      <trkpt lat="42.51748" lon="2.07909">
        <ele>1762.5399304301</ele>
        <time>2000-05-11T11:47:28.10</time>
      </trkpt>
      <trkpt lat="42.51748" lon="2.07911">
        <ele>1762.5860580029</ele>
        <time>2000-05-11T11:47:29.10</time>
      </trkpt>
      <trkpt lat="42.51749" lon="2.07912">
        <ele>1762.506123193</ele>
        <time>2000-05-11T11:47:30.10</time>
      </trkpt>
      <trkpt lat="42.5175" lon="2.07914">
        <ele>1762.6349170227</ele>
        <time>2000-05-11T11:47:31.10</time>
      </trkpt>
      <trkpt lat="42.5175" lon="2.07915">
        <ele>1762.8652039103</ele>
        <time>2000-05-11T11:47:32.10</time>
      </trkpt>
      <trkpt lat="42.51751" lon="2.07916">
        <ele>1763.0673340579</ele>
        <time>2000-05-11T11:47:33.10</time>
      </trkpt>
      <trkpt lat="42.51751" lon="2.07918">
        <ele>1763.2794214956</ele>
        <time>2000-05-11T11:47:34.10</time>
      </trkpt>
      <trkpt lat="42.51751" lon="2.07919">
        <ele>1763.3153106632</ele>
        <time>2000-05-11T11:47:35.10</time>
      </trkpt>
      <trkpt lat="42.51751" lon="2.07921">
        <ele>1762.9830475567</ele>
        <time>2000-05-11T11:47:36.10</time>
      </trkpt>
      <trkpt lat="42.51752" lon="2.07922">
        <ele>1762.2700679541</ele>
        <time>2000-05-11T11:47:37.10</time>
      </trkpt>
      <trkpt lat="42.51753" lon="2.07924">
        <ele>1761.5728065845</ele>
        <time>2000-05-11T11:47:38.10</time>
      </trkpt>
      <trkpt lat="42.51753" lon="2.07925">
        <ele>1760.9359690171</ele>
        <time>2000-05-11T11:47:39.10</time>
      </trkpt>
      <trkpt lat="42.51752" lon="2.07928">
        <ele>1760.6855808429</ele>
        <time>2000-05-11T11:47:40.10</time>
      </trkpt>
      <trkpt lat="42.51753" lon="2.0793">
        <ele>1761.2457778353</ele>
        <time>2000-05-11T11:47:41.10</time>
      </trkpt>
      <trkpt lat="42.51752" lon="2.07933">
        <ele>1762.5906770928</ele>
        <time>2000-05-11T11:47:42.10</time>
      </trkpt>
      <trkpt lat="42.51752" lon="2.07935">
        <ele>1763.8057916773</ele>
        <time>2000-05-11T11:47:43.10</time>
      </trkpt>
      <trkpt lat="42.51752" lon="2.07936">
        <ele>1764.7174679374</ele>
        <time>2000-05-11T11:47:44.10</time>
      </trkpt>
      <trkpt lat="42.51752" lon="2.07936">
        <ele>1765.4467317009</ele>
        <time>2000-05-11T11:47:45.10</time>
      </trkpt>
      <trkpt lat="42.51753" lon="2.07937">
        <ele>1765.5959301995</ele>
        <time>2000-05-11T11:47:46.10</time>
      </trkpt>
      <trkpt lat="42.51754" lon="2.07938">
        <ele>1765.0919256676</ele>
        <time>2000-05-11T11:47:47.10</time>
      </trkpt>
      <trkpt lat="42.51754" lon="2.0794">
        <ele>1764.5090353612</ele>
        <time>2000-05-11T11:47:48.10</time>
      </trkpt>
      <trkpt lat="42.51756" lon="2.07942">
        <ele>1764.4393395996</ele>
        <time>2000-05-11T11:47:49.10</time>
      </trkpt>
      <trkpt lat="42.51757" lon="2.07944">
        <ele>1764.5529497104</ele>
        <time>2000-05-11T11:47:50.10</time>
      </trkpt>
      <trkpt lat="42.51757" lon="2.07944">
        <ele>1764.2801217275</ele>
        <time>2000-05-11T11:47:51.10</time>
      </trkpt>
      <trkpt lat="42.51757" lon="2.07946">
        <ele>1764.0475485012</ele>
        <time>2000-05-11T11:47:52.10</time>
      </trkpt>
      <trkpt lat="42.51757" lon="2.07946">
        <ele>1764.1537088268</ele>
        <time>2000-05-11T11:47:53.10</time>
      </trkpt>
      <trkpt lat="42.51757" lon="2.07948">
        <ele>1764.0036191417</ele>
        <time>2000-05-11T11:47:54.10</time>
      </trkpt>
      <trkpt lat="42.51757" lon="2.0795">
        <ele>1763.5170195874</ele>
        <time>2000-05-11T11:47:55.10</time>
      </trkpt>
      <trkpt lat="42.51757" lon="2.07952">
        <ele>1763.2395832932</ele>
        <time>2000-05-11T11:47:56.10</time>
      </trkpt>
      <trkpt lat="42.51757" lon="2.07953">
        <ele>1763.1837073602</ele>
        <time>2000-05-11T11:47:57.10</time>
      </trkpt>
      <trkpt lat="42.51758" lon="2.07956">
        <ele>1763.0050450999</ele>
        <time>2000-05-11T11:47:58.10</time>
      </trkpt>
      <trkpt lat="42.51758" lon="2.07957">
        <ele>1762.7391612442</ele>
        <time>2000-05-11T11:47:59.10</time>
      </trkpt>
      <trkpt lat="42.51758" lon="2.07957">
        <ele>1762.6264813853</ele>
        <time>2000-05-11T11:48:00.10</time>
      </trkpt>
      <trkpt lat="42.51759" lon="2.07958">
        <ele>1762.4882687271</ele>
        <time>2000-05-11T11:48:01.10</time>
      </trkpt>
      <trkpt lat="42.51759" lon="2.0796">
        <ele>1762.1663405621</ele>
        <time>2000-05-11T11:48:02.10</time>
      </trkpt>
      <trkpt lat="42.5176" lon="2.0796">
        <ele>1761.8530349528</ele>
        <time>2000-05-11T11:48:03.10</time>
      </trkpt>
      <trkpt lat="42.51761" lon="2.07962">
        <ele>1761.8265067428</ele>
        <time>2000-05-11T11:48:04.10</time>
      </trkpt>
      <trkpt lat="42.51761" lon="2.07962">
        <ele>1761.6821450029</ele>
        <time>2000-05-11T11:48:05.10</time>
      </trkpt>
      <trkpt lat="42.51761" lon="2.07964">
        <ele>1761.6251839131</ele>
        <time>2000-05-11T11:48:06.10</time>
      </trkpt>
      <trkpt lat="42.51762" lon="2.07965">
        <ele>1761.7171825089</ele>
        <time>2000-05-11T11:48:07.10</time>
      </trkpt>
      <trkpt lat="42.51761" lon="2.07967">
        <ele>1761.9506252594</ele>
        <time>2000-05-11T11:48:08.10</time>
      </trkpt>
      <trkpt lat="42.51762" lon="2.07969">
        <ele>1762.1098074272</ele>
        <time>2000-05-11T11:48:09.10</time>
      </trkpt>
      <trkpt lat="42.51762" lon="2.07971">
        <ele>1762.2549603866</ele>
        <time>2000-05-11T11:48:10.10</time>
      </trkpt>
      <trkpt lat="42.51762" lon="2.07973">
        <ele>1762.30921463</ele>
        <time>2000-05-11T11:48:11.10</time>
      </trkpt>
      <trkpt lat="42.51764" lon="2.07973">
        <ele>1762.116581298</ele>
        <time>2000-05-11T11:48:12.10</time>
      </trkpt>
      <trkpt lat="42.51765" lon="2.07974">
        <ele>1761.5695839083</ele>
        <time>2000-05-11T11:48:13.10</time>
      </trkpt>
      <trkpt lat="42.51765" lon="2.07974">
        <ele>1760.9154354166</ele>
        <time>2000-05-11T11:48:14.10</time>
      </trkpt>
      <trkpt lat="42.51765" lon="2.07975">
        <ele>1760.6853371419</ele>
        <time>2000-05-11T11:48:15.10</time>
      </trkpt>
      <trkpt lat="42.51765" lon="2.07977">
        <ele>1760.7590348754</ele>
        <time>2000-05-11T11:48:16.10</time>
      </trkpt>
      <trkpt lat="42.51765" lon="2.07979">
        <ele>1760.6075629385</ele>
        <time>2000-05-11T11:48:17.8</time>
      </trkpt>
      <trkpt lat="42.51767" lon="2.07979">
        <ele>1759.8837588722</ele>
        <time>2000-05-11T11:48:18.8</time>
      </trkpt>
      <trkpt lat="42.51768" lon="2.07981">
        <ele>1759.7329402165</ele>
        <time>2000-05-11T11:48:19.8</time>
      </trkpt>
      <trkpt lat="42.51768" lon="2.07983">
        <ele>1759.4735168371</ele>
        <time>2000-05-11T11:48:20.8</time>
      </trkpt>
      <trkpt lat="42.51769" lon="2.07985">
        <ele>1758.9649062164</ele>
        <time>2000-05-11T11:48:21.8</time>
      </trkpt>
      <trkpt lat="42.5177" lon="2.07986">
        <ele>1758.8733624099</ele>
        <time>2000-05-11T11:48:22.8</time>
      </trkpt>
      <trkpt lat="42.5177" lon="2.07987">
        <ele>1759.3914796347</ele>
        <time>2000-05-11T11:48:23.8</time>
      </trkpt>
      <trkpt lat="42.51772" lon="2.07987">
        <ele>1759.1804684984</ele>
        <time>2000-05-11T11:48:24.8</time>
      </trkpt>
      <trkpt lat="42.51774" lon="2.07986">
        <ele>1758.600530947</ele>
        <time>2000-05-11T11:48:25.8</time>
      </trkpt>
      <trkpt lat="42.51775" lon="2.07987">
        <ele>1758.5488998111</ele>
        <time>2000-05-11T11:48:26.8</time>
      </trkpt>
      <trkpt lat="42.51776" lon="2.07988">
        <ele>1758.7647316918</ele>
        <time>2000-05-11T11:48:27.8</time>
      </trkpt>
      <trkpt lat="42.51776" lon="2.07988">
        <ele>1759.0923811374</ele>
        <time>2000-05-11T11:48:28.8</time>
      </trkpt>
      <trkpt lat="42.51777" lon="2.0799">
        <ele>1759.2939625826</ele>
        <time>2000-05-11T11:48:29.8</time>
      </trkpt>
      <trkpt lat="42.51777" lon="2.07991">
        <ele>1759.3422288625</ele>
        <time>2000-05-11T11:48:30.8</time>
      </trkpt>
      <trkpt lat="42.51778" lon="2.07993">
        <ele>1758.6828822132</ele>
        <time>2000-05-11T11:48:31.8</time>
      </trkpt>
      <trkpt lat="42.51779" lon="2.07994">
        <ele>1757.8563218219</ele>
        <time>2000-05-11T11:48:32.8</time>
      </trkpt>
      <trkpt lat="42.5178" lon="2.07995">
        <ele>1756.5549464647</ele>
        <time>2000-05-11T11:48:33.8</time>
      </trkpt>
      <trkpt lat="42.51781" lon="2.07996">
        <ele>1755.5733030904</ele>
        <time>2000-05-11T11:48:34.8</time>
      </trkpt>
      <trkpt lat="42.51782" lon="2.07997">
        <ele>1754.9305980345</ele>
        <time>2000-05-11T11:48:35.8</time>
      </trkpt>
      <trkpt lat="42.51782" lon="2.07997">
        <ele>1754.6181775296</ele>
        <time>2000-05-11T11:48:36.8</time>
      </trkpt>
      <trkpt lat="42.51783" lon="2.07999">
        <ele>1754.1042914281</ele>
        <time>2000-05-11T11:48:37.8</time>
      </trkpt>
      <trkpt lat="42.51783" lon="2.08">
        <ele>1754.1511229038</ele>
        <time>2000-05-11T11:48:38.8</time>
      </trkpt>
      <trkpt lat="42.51784" lon="2.08002">
        <ele>1754.2568575451</ele>
        <time>2000-05-11T11:48:39.8</time>
      </trkpt>
      <trkpt lat="42.51785" lon="2.08004">
        <ele>1754.3085330579</ele>
        <time>2000-05-11T11:48:40.8</time>
      </trkpt>
      <trkpt lat="42.51785" lon="2.08005">
        <ele>1754.7433309147</ele>
        <time>2000-05-11T11:48:41.8</time>
      </trkpt>
      <trkpt lat="42.51786" lon="2.08006">
        <ele>1755.5610114863</ele>
        <time>2000-05-11T11:48:42.8</time>
      </trkpt>
      <trkpt lat="42.51786" lon="2.08008">
        <ele>1756.4902630294</ele>
        <time>2000-05-11T11:48:43.8</time>
      </trkpt>
      <trkpt lat="42.51786" lon="2.08009">
        <ele>1757.1869929867</ele>
        <time>2000-05-11T11:48:44.8</time>
      </trkpt>
      <trkpt lat="42.51787" lon="2.0801">
        <ele>1757.8625181619</ele>
        <time>2000-05-11T11:48:45.8</time>
      </trkpt>
      <trkpt lat="42.51787" lon="2.08014">
        <ele>1758.7952901226</ele>
        <time>2000-05-11T11:48:46.8</time>
      </trkpt>
      <trkpt lat="42.51788" lon="2.08015">
        <ele>1759.2411572052</ele>
        <time>2000-05-11T11:48:47.8</time>
      </trkpt>
      <trkpt lat="42.51789" lon="2.08016">
        <ele>1759.4518178288</ele>
        <time>2000-05-11T11:48:48.8</time>
      </trkpt>
      <trkpt lat="42.5179" lon="2.08016">
        <ele>1759.6337021055</ele>
        <time>2000-05-11T11:48:49.8</time>
      </trkpt>
      <trkpt lat="42.51791" lon="2.08017">
        <ele>1760.0044059008</ele>
        <time>2000-05-11T11:48:50.8</time>
      </trkpt>
      <trkpt lat="42.51792" lon="2.08018">
        <ele>1759.7030835554</ele>
        <time>2000-05-11T11:48:51.8</time>
      </trkpt>
      <trkpt lat="42.51793" lon="2.08018">
        <ele>1759.212251045</ele>
        <time>2000-05-11T11:48:52.8</time>
      </trkpt>
      <trkpt lat="42.51794" lon="2.08018">
        <ele>1758.5170577882</ele>
        <time>2000-05-11T11:48:53.8</time>
      </trkpt>
      <trkpt lat="42.51795" lon="2.08018">
        <ele>1757.8670616183</ele>
        <time>2000-05-11T11:48:54.8</time>
      </trkpt>
      <trkpt lat="42.51796" lon="2.08019">
        <ele>1756.9241939444</ele>
        <time>2000-05-11T11:48:55.8</time>
      </trkpt>
      <trkpt lat="42.51797" lon="2.08019">
        <ele>1755.7295914356</ele>
        <time>2000-05-11T11:48:56.8</time>
      </trkpt>
      <trkpt lat="42.51798" lon="2.08022">
        <ele>1755.3339596389</ele>
        <time>2000-05-11T11:48:57.8</time>
      </trkpt>
      <trkpt lat="42.51799" lon="2.08023">
        <ele>1755.3684983285</ele>
        <time>2000-05-11T11:48:58.8</time>
      </trkpt>
      <trkpt lat="42.518" lon="2.08024">
        <ele>1755.7094283635</ele>
        <time>2000-05-11T11:48:59.8</time>
      </trkpt>
      <trkpt lat="42.51802" lon="2.08024">
        <ele>1756.1307192996</ele>
        <time>2000-05-11T11:49:00.8</time>
      </trkpt>
      <trkpt lat="42.51803" lon="2.08025">
        <ele>1756.9972633455</ele>
        <time>2000-05-11T11:49:01.8</time>
      </trkpt>
      <trkpt lat="42.51805" lon="2.08027">
        <ele>1757.4691260571</ele>
        <time>2000-05-11T11:49:02.8</time>
      </trkpt>
      <trkpt lat="42.51806" lon="2.0803">
        <ele>1758.1661439871</ele>
        <time>2000-05-11T11:49:03.8</time>
      </trkpt>
      <trkpt lat="42.51807" lon="2.08032">
        <ele>1758.9551928209</ele>
        <time>2000-05-11T11:49:04.8</time>
      </trkpt>
      <trkpt lat="42.51808" lon="2.08032">
        <ele>1759.8252571665</ele>
        <time>2000-05-11T11:49:05.8</time>
      </trkpt>
      <trkpt lat="42.51809" lon="2.08033">
        <ele>1760.4627505003</ele>
        <time>2000-05-11T11:49:06.8</time>
      </trkpt>
      <trkpt lat="42.51808" lon="2.08034">
        <ele>1761.3317323685</ele>
        <time>2000-05-11T11:49:07.8</time>
      </trkpt>
      <trkpt lat="42.51808" lon="2.08034">
        <ele>1761.7874821546</ele>
        <time>2000-05-11T11:49:08.8</time>
      </trkpt>
      <trkpt lat="42.5181" lon="2.08034">
        <ele>1762.27739993</ele>
        <time>2000-05-11T11:49:09.8</time>
      </trkpt>
      <trkpt lat="42.51811" lon="2.08035">
        <ele>1762.712442157</ele>
        <time>2000-05-11T11:49:10.8</time>
      </trkpt>
      <trkpt lat="42.51811" lon="2.08035">
        <ele>1763.1154776456</ele>
        <time>2000-05-11T11:49:11.8</time>
      </trkpt>
      <trkpt lat="42.51812" lon="2.08036">
        <ele>1763.4606158676</ele>
        <time>2000-05-11T11:49:12.8</time>
      </trkpt>
      <trkpt lat="42.51813" lon="2.08037">
        <ele>1764.0083694138</ele>
        <time>2000-05-11T11:49:13.8</time>
      </trkpt>
      <trkpt lat="42.51814" lon="2.08037">
        <ele>1764.3127831927</ele>
        <time>2000-05-11T11:49:14.8</time>
      </trkpt>
      <trkpt lat="42.51816" lon="2.08037">
        <ele>1764.5085945006</ele>
        <time>2000-05-11T11:49:15.8</time>
      </trkpt>
      <trkpt lat="42.51817" lon="2.08038">
        <ele>1764.638774785</ele>
        <time>2000-05-11T11:49:16.8</time>
      </trkpt>
      <trkpt lat="42.51816" lon="2.08041">
        <ele>1764.9703461532</ele>
        <time>2000-05-11T11:49:17.8</time>
      </trkpt>
      <trkpt lat="42.51816" lon="2.08041">
        <ele>1765.0993021971</ele>
        <time>2000-05-11T11:49:18.8</time>
      </trkpt>
      <trkpt lat="42.51816" lon="2.08041">
        <ele>1765.158684418</ele>
        <time>2000-05-11T11:49:19.8</time>
      </trkpt>
      <trkpt lat="42.51818" lon="2.08042">
        <ele>1765.6131762467</ele>
        <time>2000-05-11T11:49:20.8</time>
      </trkpt>
      <trkpt lat="42.51819" lon="2.08043">
        <ele>1766.400036861</ele>
        <time>2000-05-11T11:49:21.8</time>
      </trkpt>
      <trkpt lat="42.5182" lon="2.08044">
        <ele>1766.8360521939</ele>
        <time>2000-05-11T11:49:22.8</time>
      </trkpt>
      <trkpt lat="42.51821" lon="2.08045">
        <ele>1766.9117344854</ele>
        <time>2000-05-11T11:49:23.8</time>
      </trkpt>
      <trkpt lat="42.51822" lon="2.08046">
        <ele>1766.7792775758</ele>
        <time>2000-05-11T11:49:24.8</time>
      </trkpt>
      <trkpt lat="42.51823" lon="2.08046">
        <ele>1766.3055168251</ele>
        <time>2000-05-11T11:49:25.8</time>
      </trkpt>
      <trkpt lat="42.51825" lon="2.08046">
        <ele>1765.3811337898</ele>
        <time>2000-05-11T11:49:26.8</time>
      </trkpt>
      <trkpt lat="42.51825" lon="2.08046">
        <ele>1764.398728295</ele>
        <time>2000-05-11T11:49:27.8</time>
      </trkpt>
      <trkpt lat="42.51826" lon="2.08047">
        <ele>1763.6376013113</ele>
        <time>2000-05-11T11:49:28.8</time>
      </trkpt>
      <trkpt lat="42.51828" lon="2.08047">
        <ele>1763.1156155499</ele>
        <time>2000-05-11T11:49:29.8</time>
      </trkpt>
      <trkpt lat="42.51828" lon="2.08048">
        <ele>1762.8221924488</ele>
        <time>2000-05-11T11:49:30.8</time>
      </trkpt>
      <trkpt lat="42.51829" lon="2.08049">
        <ele>1763.3178513013</ele>
        <time>2000-05-11T11:49:31.8</time>
      </trkpt>
      <trkpt lat="42.5183" lon="2.08051">
        <ele>1763.7111391997</ele>
        <time>2000-05-11T11:49:32.8</time>
      </trkpt>
      <trkpt lat="42.51831" lon="2.08051">
        <ele>1764.0319008742</ele>
        <time>2000-05-11T11:49:33.8</time>
      </trkpt>
      <trkpt lat="42.51831" lon="2.08051">
        <ele>1764.3113617359</ele>
        <time>2000-05-11T11:49:34.8</time>
      </trkpt>
      <trkpt lat="42.51832" lon="2.08053">
        <ele>1764.5811998632</ele>
        <time>2000-05-11T11:49:35.8</time>
      </trkpt>
      <trkpt lat="42.51833" lon="2.08055">
        <ele>1764.693072864</ele>
        <time>2000-05-11T11:49:36.8</time>
      </trkpt>
      <trkpt lat="42.51833" lon="2.08057">
        <ele>1764.9211016418</ele>
        <time>2000-05-11T11:49:37.8</time>
      </trkpt>
      <trkpt lat="42.51834" lon="2.08057">
        <ele>1765.3791802386</ele>
        <time>2000-05-11T11:49:38.8</time>
      </trkpt>
      <trkpt lat="42.51835" lon="2.08057">
        <ele>1765.5392270947</ele>
        <time>2000-05-11T11:49:39.8</time>
      </trkpt>
      <trkpt lat="42.51837" lon="2.08057">
        <ele>1765.681710274</ele>
        <time>2000-05-11T11:49:40.8</time>
      </trkpt>
      <trkpt lat="42.51838" lon="2.08057">
        <ele>1765.7896779865</ele>
        <time>2000-05-11T11:49:41.8</time>
      </trkpt>
      <trkpt lat="42.51839" lon="2.08058">
        <ele>1766.1149037687</ele>
        <time>2000-05-11T11:49:42.8</time>
      </trkpt>
      <trkpt lat="42.5184" lon="2.08058">
        <ele>1766.3146910051</ele>
        <time>2000-05-11T11:49:43.8</time>
      </trkpt>
      <trkpt lat="42.51841" lon="2.08057">
        <ele>1766.9099775581</ele>
        <time>2000-05-11T11:49:44.8</time>
      </trkpt>
      <trkpt lat="42.51842" lon="2.08057">
        <ele>1767.147948526</ele>
        <time>2000-05-11T11:49:45.8</time>
      </trkpt>
      <trkpt lat="42.51844" lon="2.08057">
        <ele>1766.7772126269</ele>
        <time>2000-05-11T11:49:46.8</time>
      </trkpt>
      <trkpt lat="42.51846" lon="2.08057">
        <ele>1765.9170169532</ele>
        <time>2000-05-11T11:49:47.8</time>
      </trkpt>
      <trkpt lat="42.51846" lon="2.08058">
        <ele>1765.2966576027</ele>
        <time>2000-05-11T11:49:48.8</time>
      </trkpt>
      <trkpt lat="42.51848" lon="2.08059">
        <ele>1764.557880877</ele>
        <time>2000-05-11T11:49:49.8</time>
      </trkpt>
      <trkpt lat="42.51849" lon="2.08058">
        <ele>1764.0236650387</ele>
        <time>2000-05-11T11:49:50.8</time>
      </trkpt>
      <trkpt lat="42.5185" lon="2.08058">
        <ele>1763.8492854085</ele>
        <time>2000-05-11T11:49:51.8</time>
      </trkpt>
      <trkpt lat="42.51852" lon="2.08058">
        <ele>1764.0865557764</ele>
        <time>2000-05-11T11:49:52.8</time>
      </trkpt>
      <trkpt lat="42.51853" lon="2.08059">
        <ele>1763.9661921816</ele>
        <time>2000-05-11T11:49:53.8</time>
      </trkpt>
      <trkpt lat="42.51854" lon="2.08059">
        <ele>1763.757363119</ele>
        <time>2000-05-11T11:49:54.8</time>
      </trkpt>
      <trkpt lat="42.51855" lon="2.0806">
        <ele>1763.3840621548</ele>
        <time>2000-05-11T11:49:55.8</time>
      </trkpt>
      <trkpt lat="42.51856" lon="2.08059">
        <ele>1762.6513712896</ele>
        <time>2000-05-11T11:49:56.8</time>
      </trkpt>
      <trkpt lat="42.51857" lon="2.0806">
        <ele>1761.3374624157</ele>
        <time>2000-05-11T11:49:57.8</time>
      </trkpt>
      <trkpt lat="42.51858" lon="2.0806">
        <ele>1760.1503009859</ele>
        <time>2000-05-11T11:49:58.8</time>
      </trkpt>
      <trkpt lat="42.51859" lon="2.08059">
        <ele>1758.8821525972</ele>
        <time>2000-05-11T11:49:59.8</time>
      </trkpt>
      <trkpt lat="42.51861" lon="2.08059">
        <ele>1758.0588946173</ele>
        <time>2000-05-11T11:50:00.8</time>
      </trkpt>
      <trkpt lat="42.51861" lon="2.08059">
        <ele>1757.5967227597</ele>
        <time>2000-05-11T11:50:01.8</time>
      </trkpt>
      <trkpt lat="42.51862" lon="2.0806">
        <ele>1757.9296782548</ele>
        <time>2000-05-11T11:50:02.8</time>
      </trkpt>
      <trkpt lat="42.51862" lon="2.08059">
        <ele>1757.9153730046</ele>
        <time>2000-05-11T11:50:03.8</time>
      </trkpt>
      <trkpt lat="42.51863" lon="2.0806">
        <ele>1758.725216433</ele>
        <time>2000-05-11T11:50:04.4</time>
      </trkpt>
      <trkpt lat="42.51863" lon="2.0806">
        <ele>1759.3333520453</ele>
        <time>2000-05-11T11:50:05.4</time>
      </trkpt>
      <trkpt lat="42.51864" lon="2.08059">
        <ele>1760.3058066117</ele>
        <time>2000-05-11T11:50:06.4</time>
      </trkpt>
      <trkpt lat="42.51865" lon="2.08059">
        <ele>1761.0263594359</ele>
        <time>2000-05-11T11:50:07.4</time>
      </trkpt>
      <trkpt lat="42.51866" lon="2.08058">
        <ele>1762.3873598516</ele>
        <time>2000-05-11T11:50:08.4</time>
      </trkpt>
      <trkpt lat="42.51867" lon="2.08058">
        <ele>1763.0046594882</ele>
        <time>2000-05-11T11:50:09.4</time>
      </trkpt>
      <trkpt lat="42.51868" lon="2.08058">
        <ele>1763.6173052432</ele>
        <time>2000-05-11T11:50:10.4</time>
      </trkpt>
      <trkpt lat="42.51869" lon="2.08056">
        <ele>1764.1266815308</ele>
        <time>2000-05-11T11:50:11.4</time>
      </trkpt>
      <trkpt lat="42.51871" lon="2.08056">
        <ele>1764.4312099863</ele>
        <time>2000-05-11T11:50:12.4</time>
      </trkpt>
      <trkpt lat="42.51872" lon="2.08055">
        <ele>1764.3218263727</ele>
        <time>2000-05-11T11:50:13.4</time>
      </trkpt>
      <trkpt lat="42.51873" lon="2.08055">
        <ele>1764.1442174459</ele>
        <time>2000-05-11T11:50:14.4</time>
      </trkpt>
      <trkpt lat="42.51874" lon="2.08054">
        <ele>1763.7147656515</ele>
        <time>2000-05-11T11:50:15.4</time>
      </trkpt>
      <trkpt lat="42.51875" lon="2.08054">
        <ele>1762.8916415626</ele>
        <time>2000-05-11T11:50:16.4</time>
      </trkpt>
      <trkpt lat="42.51876" lon="2.08054">
        <ele>1762.1481335748</ele>
        <time>2000-05-11T11:50:17.4</time>
      </trkpt>
      <trkpt lat="42.51877" lon="2.08054">
        <ele>1761.7644206012</ele>
        <time>2000-05-11T11:50:18.4</time>
      </trkpt>
      <trkpt lat="42.51878" lon="2.08053">
        <ele>1761.786414391</ele>
        <time>2000-05-11T11:50:19.4</time>
      </trkpt>
      <trkpt lat="42.51878" lon="2.08053">
        <ele>1761.8467622686</ele>
        <time>2000-05-11T11:50:20.4</time>
      </trkpt>
      <trkpt lat="42.51879" lon="2.08052">
        <ele>1761.8658989782</ele>
        <time>2000-05-11T11:50:21.4</time>
      </trkpt>
      <trkpt lat="42.5188" lon="2.08052">
        <ele>1761.7944770113</ele>
        <time>2000-05-11T11:50:22.4</time>
      </trkpt>
      <trkpt lat="42.51881" lon="2.08051">
        <ele>1761.6238489265</ele>
        <time>2000-05-11T11:50:23.4</time>
      </trkpt>
      <trkpt lat="42.51882" lon="2.0805">
        <ele>1761.9117375895</ele>
        <time>2000-05-11T11:50:24.4</time>
      </trkpt>
      <trkpt lat="42.51883" lon="2.08048">
        <ele>1763.0854020253</ele>
        <time>2000-05-11T11:50:25.4</time>
      </trkpt>
      <trkpt lat="42.51883" lon="2.08047">
        <ele>1764.3468778232</ele>
        <time>2000-05-11T11:50:26.4</time>
      </trkpt>
      <trkpt lat="42.51883" lon="2.08046">
        <ele>1765.4106211523</ele>
        <time>2000-05-11T11:50:27.4</time>
      </trkpt>
      <trkpt lat="42.51884" lon="2.08045">
        <ele>1766.0976112435</ele>
        <time>2000-05-11T11:50:28.4</time>
      </trkpt>
      <trkpt lat="42.51885" lon="2.08045">
        <ele>1765.9411192678</ele>
        <time>2000-05-11T11:50:29.4</time>
      </trkpt>
      <trkpt lat="42.51886" lon="2.08044">
        <ele>1764.6432219883</ele>
        <time>2000-05-11T11:50:30.4</time>
      </trkpt>
      <trkpt lat="42.51887" lon="2.08043">
        <ele>1763.1194605263</ele>
        <time>2000-05-11T11:50:31.4</time>
      </trkpt>
      <trkpt lat="42.51888" lon="2.08041">
        <ele>1761.7416041899</ele>
        <time>2000-05-11T11:50:32.4</time>
      </trkpt>
      <trkpt lat="42.51889" lon="2.08039">
        <ele>1760.8308733655</ele>
        <time>2000-05-11T11:50:33.4</time>
      </trkpt>
      <trkpt lat="42.5189" lon="2.08038">
        <ele>1759.9139375318</ele>
        <time>2000-05-11T11:50:34.4</time>
      </trkpt>
      <trkpt lat="42.51891" lon="2.08037">
        <ele>1759.4468435226</ele>
        <time>2000-05-11T11:50:35.4</time>
      </trkpt>
      <trkpt lat="42.51893" lon="2.08036">
        <ele>1759.6088800959</ele>
        <time>2000-05-11T11:50:36.4</time>
      </trkpt>
      <trkpt lat="42.51893" lon="2.08036">
        <ele>1759.6884291077</ele>
        <time>2000-05-11T11:50:37.4</time>
      </trkpt>
      <trkpt lat="42.51894" lon="2.08035">
        <ele>1759.1372205416</ele>
        <time>2000-05-11T11:50:38.4</time>
      </trkpt>
      <trkpt lat="42.51895" lon="2.08034">
        <ele>1758.5570341736</ele>
        <time>2000-05-11T11:50:39.4</time>
      </trkpt>
      <trkpt lat="42.51897" lon="2.08032">
        <ele>1757.6424397575</ele>
        <time>2000-05-11T11:50:40.4</time>
      </trkpt>
      <trkpt lat="42.51897" lon="2.08031">
        <ele>1756.1915873339</ele>
        <time>2000-05-11T11:50:41.4</time>
      </trkpt>
      <trkpt lat="42.51898" lon="2.0803">
        <ele>1754.7210623877</ele>
        <time>2000-05-11T11:50:42.4</time>
      </trkpt>
      <trkpt lat="42.51899" lon="2.08029">
        <ele>1753.6301689127</ele>
        <time>2000-05-11T11:50:43.4</time>
      </trkpt>
      <trkpt lat="42.51899" lon="2.08028">
        <ele>1752.576901157</ele>
        <time>2000-05-11T11:50:44.4</time>
      </trkpt>
      <trkpt lat="42.519" lon="2.08028">
        <ele>1751.9018394155</ele>
        <time>2000-05-11T11:50:45.4</time>
      </trkpt>
      <trkpt lat="42.51902" lon="2.08028">
        <ele>1751.3289374875</ele>
        <time>2000-05-11T11:50:46.4</time>
      </trkpt>
      <trkpt lat="42.51902" lon="2.08028">
        <ele>1751.0105726764</ele>
        <time>2000-05-11T11:50:47.4</time>
      </trkpt>
      <trkpt lat="42.51903" lon="2.08026">
        <ele>1750.8763322648</ele>
        <time>2000-05-11T11:50:48.4</time>
      </trkpt>
      <trkpt lat="42.51904" lon="2.08026">
        <ele>1750.9601227064</ele>
        <time>2000-05-11T11:50:49.4</time>
      </trkpt>
      <trkpt lat="42.51905" lon="2.08025">
        <ele>1751.0752210222</ele>
        <time>2000-05-11T11:50:50.4</time>
      </trkpt>
      <trkpt lat="42.51906" lon="2.08024">
        <ele>1751.6301182717</ele>
        <time>2000-05-11T11:50:51.4</time>
      </trkpt>
      <trkpt lat="42.51907" lon="2.08024">
        <ele>1752.3037701154</ele>
        <time>2000-05-11T11:50:52.4</time>
      </trkpt>
      <trkpt lat="42.51907" lon="2.08024">
        <ele>1752.9107259911</ele>
        <time>2000-05-11T11:50:53.4</time>
      </trkpt>
      <trkpt lat="42.51907" lon="2.08022">
        <ele>1753.6829746637</ele>
        <time>2000-05-11T11:50:54.4</time>
      </trkpt>
      <trkpt lat="42.51909" lon="2.0802">
        <ele>1754.2016825831</ele>
        <time>2000-05-11T11:50:55.4</time>
      </trkpt>
      <trkpt lat="42.51909" lon="2.08018">
        <ele>1753.8496880621</ele>
        <time>2000-05-11T11:50:56.4</time>
      </trkpt>
      <trkpt lat="42.5191" lon="2.08016">
        <ele>1753.0223460585</ele>
        <time>2000-05-11T11:50:57.4</time>
      </trkpt>
      <trkpt lat="42.51911" lon="2.08015">
        <ele>1752.3940113893</ele>
        <time>2000-05-11T11:50:58.4</time>
      </trkpt>
      <trkpt lat="42.51912" lon="2.08013">
        <ele>1751.4067778053</ele>
        <time>2000-05-11T11:50:59.4</time>
      </trkpt>
      <trkpt lat="42.51913" lon="2.08011">
        <ele>1750.6168191712</ele>
        <time>2000-05-11T11:51:00.4</time>
      </trkpt>
      <trkpt lat="42.51914" lon="2.08011">
        <ele>1750.1903581673</ele>
        <time>2000-05-11T11:51:01.4</time>
      </trkpt>
      <trkpt lat="42.51915" lon="2.0801">
        <ele>1750.0830541575</ele>
        <time>2000-05-11T11:51:02.4</time>
      </trkpt>
      <trkpt lat="42.51916" lon="2.08009">
        <ele>1749.9217397114</ele>
        <time>2000-05-11T11:51:03.4</time>
      </trkpt>
      <trkpt lat="42.51917" lon="2.08009">
        <ele>1750.0742967246</ele>
        <time>2000-05-11T11:51:04.4</time>
      </trkpt>
      <trkpt lat="42.51917" lon="2.08008">
        <ele>1750.2057034042</ele>
        <time>2000-05-11T11:51:05.4</time>
      </trkpt>
      <trkpt lat="42.51918" lon="2.08008">
        <ele>1750.3193548545</ele>
        <time>2000-05-11T11:51:06.4</time>
      </trkpt>
      <trkpt lat="42.51918" lon="2.08007">
        <ele>1750.8219523624</ele>
        <time>2000-05-11T11:51:07.8</time>
      </trkpt>
      <trkpt lat="42.51919" lon="2.08006">
        <ele>1751.2804612847</ele>
        <time>2000-05-11T11:51:08.8</time>
      </trkpt>
      <trkpt lat="42.5192" lon="2.08005">
        <ele>1751.7799075903</ele>
        <time>2000-05-11T11:51:09.8</time>
      </trkpt>
      <trkpt lat="42.51921" lon="2.08005">
        <ele>1752.503181624</ele>
        <time>2000-05-11T11:51:10.8</time>
      </trkpt>
      <trkpt lat="42.51923" lon="2.08004">
        <ele>1753.7496024638</ele>
        <time>2000-05-11T11:51:11.8</time>
      </trkpt>
      <trkpt lat="42.51924" lon="2.08004">
        <ele>1755.4821350902</ele>
        <time>2000-05-11T11:51:12.8</time>
      </trkpt>
      <trkpt lat="42.51925" lon="2.08002">
        <ele>1757.4875952134</ele>
        <time>2000-05-11T11:51:13.8</time>
      </trkpt>
      <trkpt lat="42.51924" lon="2.08001">
        <ele>1759.4108821852</ele>
        <time>2000-05-11T11:51:14.8</time>
      </trkpt>
      <trkpt lat="42.51926" lon="2.08001">
        <ele>1761.2854238531</ele>
        <time>2000-05-11T11:51:15.8</time>
      </trkpt>
      <trkpt lat="42.51927" lon="2.08">
        <ele>1763.6808135062</ele>
        <time>2000-05-11T11:51:16.8</time>
      </trkpt>
      <trkpt lat="42.51927" lon="2.08">
        <ele>1765.1664609365</ele>
        <time>2000-05-11T11:51:17.8</time>
      </trkpt>
      <trkpt lat="42.51928" lon="2.07999">
        <ele>1765.9774639323</ele>
        <time>2000-05-11T11:51:18.8</time>
      </trkpt>
      <trkpt lat="42.51929" lon="2.07998">
        <ele>1766.4851512952</ele>
        <time>2000-05-11T11:51:19.8</time>
      </trkpt>
      <trkpt lat="42.51929" lon="2.07998">
        <ele>1766.8439968986</ele>
        <time>2000-05-11T11:51:20.8</time>
      </trkpt>
      <trkpt lat="42.51931" lon="2.07998">
        <ele>1765.8121029988</ele>
        <time>2000-05-11T11:51:21.8</time>
      </trkpt>
      <trkpt lat="42.51932" lon="2.07997">
        <ele>1764.4473796327</ele>
        <time>2000-05-11T11:51:22.8</time>
      </trkpt>
      <trkpt lat="42.51932" lon="2.07996">
        <ele>1763.0127720777</ele>
        <time>2000-05-11T11:51:23.8</time>
      </trkpt>
      <trkpt lat="42.51932" lon="2.07993">
        <ele>1761.6591496184</ele>
        <time>2000-05-11T11:51:24.8</time>
      </trkpt>
      <trkpt lat="42.51933" lon="2.07991">
        <ele>1760.5213460099</ele>
        <time>2000-05-11T11:51:25.8</time>
      </trkpt>
      <trkpt lat="42.51934" lon="2.0799">
        <ele>1759.7741795236</ele>
        <time>2000-05-11T11:51:26.8</time>
      </trkpt>
      <trkpt lat="42.51934" lon="2.07988">
        <ele>1759.3062938245</ele>
        <time>2000-05-11T11:51:27.8</time>
      </trkpt>
      <trkpt lat="42.51934" lon="2.07988">
        <ele>1759.2105823437</ele>
        <time>2000-05-11T11:51:28.8</time>
      </trkpt>
      <trkpt lat="42.51934" lon="2.07988">
        <ele>1759.2054350521</ele>
        <time>2000-05-11T11:51:29.8</time>
      </trkpt>
      <trkpt lat="42.51936" lon="2.07987">
        <ele>1758.9056339573</ele>
        <time>2000-05-11T11:51:30.8</time>
      </trkpt>
      <trkpt lat="42.51937" lon="2.07987">
        <ele>1758.4802475011</ele>
        <time>2000-05-11T11:51:31.8</time>
      </trkpt>
      <trkpt lat="42.51938" lon="2.07985">
        <ele>1758.0800042456</ele>
        <time>2000-05-11T11:51:32.8</time>
      </trkpt>
      <trkpt lat="42.51941" lon="2.07982">
        <ele>1757.7766286777</ele>
        <time>2000-05-11T11:51:33.8</time>
      </trkpt>
      <trkpt lat="42.51941" lon="2.07981">
        <ele>1757.0464853732</ele>
        <time>2000-05-11T11:51:34.8</time>
      </trkpt>
      <trkpt lat="42.51941" lon="2.0798">
        <ele>1756.246222355</ele>
        <time>2000-05-11T11:51:35.8</time>
      </trkpt>
      <trkpt lat="42.51941" lon="2.0798">
        <ele>1755.6668418882</ele>
        <time>2000-05-11T11:51:36.8</time>
      </trkpt>
      <trkpt lat="42.51941" lon="2.0798">
        <ele>1755.187987173</ele>
        <time>2000-05-11T11:51:37.8</time>
      </trkpt>
      <trkpt lat="42.51942" lon="2.07979">
        <ele>1754.8809306448</ele>
        <time>2000-05-11T11:51:38.8</time>
      </trkpt>
      <trkpt lat="42.51942" lon="2.07979">
        <ele>1755.0006418534</ele>
        <time>2000-05-11T11:51:39.8</time>
      </trkpt>
      <trkpt lat="42.51943" lon="2.07978">
        <ele>1755.2796470404</ele>
        <time>2000-05-11T11:51:40.9</time>
      </trkpt>
      <trkpt lat="42.51944" lon="2.07977">
        <ele>1755.4910753964</ele>
        <time>2000-05-11T11:51:41.9</time>
      </trkpt>
      <trkpt lat="42.51945" lon="2.07976">
        <ele>1755.5261315467</ele>
        <time>2000-05-11T11:51:42.9</time>
      </trkpt>
      <trkpt lat="42.51947" lon="2.07976">
        <ele>1755.2310895389</ele>
        <time>2000-05-11T11:51:43.9</time>
      </trkpt>
      <trkpt lat="42.51948" lon="2.07975">
        <ele>1755.0923406038</ele>
        <time>2000-05-11T11:51:44.9</time>
      </trkpt>
      <trkpt lat="42.51949" lon="2.07976">
        <ele>1755.1085411726</ele>
        <time>2000-05-11T11:51:45.9</time>
      </trkpt>
      <trkpt lat="42.51949" lon="2.07976">
        <ele>1755.1923185723</ele>
        <time>2000-05-11T11:51:46.9</time>
      </trkpt>
      <trkpt lat="42.51949" lon="2.07977">
        <ele>1755.6449219855</ele>
        <time>2000-05-11T11:51:47.7</time>
      </trkpt>
      <trkpt lat="42.51949" lon="2.07977">
        <ele>1756.158957682</ele>
        <time>2000-05-11T11:51:48.7</time>
      </trkpt>
      <trkpt lat="42.51951" lon="2.07976">
        <ele>1756.4193731749</ele>
        <time>2000-05-11T11:51:49.8</time>
      </trkpt>
      <trkpt lat="42.51951" lon="2.07976">
        <ele>1756.5144998519</ele>
        <time>2000-05-11T11:51:50.8</time>
      </trkpt>
      <trkpt lat="42.51953" lon="2.07974">
        <ele>1756.634842436</ele>
        <time>2000-05-11T11:51:51.14</time>
      </trkpt>
      <trkpt lat="42.51954" lon="2.07973">
        <ele>1756.404304187</ele>
        <time>2000-05-11T11:51:52.14</time>
      </trkpt>
      <trkpt lat="42.51954" lon="2.07971">
        <ele>1756.1003791742</ele>
        <time>2000-05-11T11:51:53.14</time>
      </trkpt>
      <trkpt lat="42.51954" lon="2.0797">
        <ele>1755.6266658707</ele>
        <time>2000-05-11T11:51:54.14</time>
      </trkpt>
      <trkpt lat="42.51954" lon="2.07969">
        <ele>1754.9566235028</ele>
        <time>2000-05-11T11:51:55.14</time>
      </trkpt>
      <trkpt lat="42.51955" lon="2.07968">
        <ele>1754.4739574049</ele>
        <time>2000-05-11T11:51:56.14</time>
      </trkpt>
      <trkpt lat="42.51956" lon="2.07966">
        <ele>1754.0714953162</ele>
        <time>2000-05-11T11:51:57.14</time>
      </trkpt>
      <trkpt lat="42.51958" lon="2.07964">
        <ele>1753.5439530203</ele>
        <time>2000-05-11T11:51:58.14</time>
      </trkpt>
      <trkpt lat="42.51958" lon="2.07961">
        <ele>1753.43846865</ele>
        <time>2000-05-11T11:51:59.14</time>
      </trkpt>
      <trkpt lat="42.5196" lon="2.07961">
        <ele>1754.0124400061</ele>
        <time>2000-05-11T11:52:00.14</time>
      </trkpt>
      <trkpt lat="42.51961" lon="2.0796">
        <ele>1754.3247152729</ele>
        <time>2000-05-11T11:52:01.14</time>
      </trkpt>
      <trkpt lat="42.51961" lon="2.0796">
        <ele>1754.7152135558</ele>
        <time>2000-05-11T11:52:02.14</time>
      </trkpt>
      <trkpt lat="42.51961" lon="2.0796">
        <ele>1755.3041788097</ele>
        <time>2000-05-11T11:52:03.14</time>
      </trkpt>
      <trkpt lat="42.51962" lon="2.0796">
        <ele>1755.6201710977</ele>
        <time>2000-05-11T11:52:04.15</time>
      </trkpt>
      <trkpt lat="42.51963" lon="2.07959">
        <ele>1755.4526293077</ele>
        <time>2000-05-11T11:52:05.15</time>
      </trkpt>
      <trkpt lat="42.51964" lon="2.07956">
        <ele>1755.6675924506</ele>
        <time>2000-05-11T11:52:06.15</time>
      </trkpt>
      <trkpt lat="42.51964" lon="2.07954">
        <ele>1755.1136131259</ele>
        <time>2000-05-11T11:52:07.15</time>
      </trkpt>
      <trkpt lat="42.51965" lon="2.07952">
        <ele>1754.3803206377</ele>
        <time>2000-05-11T11:52:08.15</time>
      </trkpt>
      <trkpt lat="42.51965" lon="2.0795">
        <ele>1753.5853264786</ele>
        <time>2000-05-11T11:52:09.15</time>
      </trkpt>
      <trkpt lat="42.51965" lon="2.07949">
        <ele>1752.521568154</ele>
        <time>2000-05-11T11:52:10.15</time>
      </trkpt>
      <trkpt lat="42.51965" lon="2.07947">
        <ele>1751.1549829615</ele>
        <time>2000-05-11T11:52:11.15</time>
      </trkpt>
      <trkpt lat="42.51965" lon="2.07946">
        <ele>1750.7088352125</ele>
        <time>2000-05-11T11:52:12.15</time>
      </trkpt>
      <trkpt lat="42.51966" lon="2.07945">
        <ele>1750.5918644167</ele>
        <time>2000-05-11T11:52:13.15</time>
      </trkpt>
      <trkpt lat="42.51966" lon="2.07945">
        <ele>1750.6546257539</ele>
        <time>2000-05-11T11:52:14.15</time>
      </trkpt>
      <trkpt lat="42.51967" lon="2.07943">
        <ele>1751.3416763373</ele>
        <time>2000-05-11T11:52:15.15</time>
      </trkpt>
      <trkpt lat="42.51968" lon="2.07941">
        <ele>1751.7678410161</ele>
        <time>2000-05-11T11:52:16.15</time>
      </trkpt>
      <trkpt lat="42.51969" lon="2.07941">
        <ele>1752.0233185796</ele>
        <time>2000-05-11T11:52:17.15</time>
      </trkpt>
      <trkpt lat="42.51971" lon="2.07941">
        <ele>1752.1355343157</ele>
        <time>2000-05-11T11:52:18.15</time>
      </trkpt>
      <trkpt lat="42.51972" lon="2.0794">
        <ele>1752.5014446195</ele>
        <time>2000-05-11T11:52:19.15</time>
      </trkpt>
      <trkpt lat="42.51973" lon="2.0794">
        <ele>1752.6947750494</ele>
        <time>2000-05-11T11:52:20.15</time>
      </trkpt>
      <trkpt lat="42.51973" lon="2.0794">
        <ele>1753.1184172308</ele>
        <time>2000-05-11T11:52:21.15</time>
      </trkpt>
      <trkpt lat="42.51973" lon="2.07938">
        <ele>1753.2645800512</ele>
        <time>2000-05-11T11:52:22.15</time>
      </trkpt>
      <trkpt lat="42.51975" lon="2.07936">
        <ele>1753.7780631065</ele>
        <time>2000-05-11T11:52:23.15</time>
      </trkpt>
      <trkpt lat="42.51975" lon="2.07936">
        <ele>1753.9809537224</ele>
        <time>2000-05-11T11:52:24.15</time>
      </trkpt>
      <trkpt lat="42.51977" lon="2.07935">
        <ele>1754.0292888653</ele>
        <time>2000-05-11T11:52:25.15</time>
      </trkpt>
      <trkpt lat="42.51978" lon="2.07935">
        <ele>1754.3208889501</ele>
        <time>2000-05-11T11:52:26.15</time>
      </trkpt>
      <trkpt lat="42.51979" lon="2.07934">
        <ele>1755.0823626373</ele>
        <time>2000-05-11T11:52:27.15</time>
      </trkpt>
      <trkpt lat="42.5198" lon="2.07932">
        <ele>1755.8896677548</ele>
        <time>2000-05-11T11:52:28.15</time>
      </trkpt>
      <trkpt lat="42.5198" lon="2.07931">
        <ele>1756.974913848</ele>
        <time>2000-05-11T11:52:29.15</time>
      </trkpt>
      <trkpt lat="42.51981" lon="2.0793">
        <ele>1758.5457916601</ele>
        <time>2000-05-11T11:52:30.15</time>
      </trkpt>
      <trkpt lat="42.51983" lon="2.07929">
        <ele>1760.4077149546</ele>
        <time>2000-05-11T11:52:31.15</time>
      </trkpt>
      <trkpt lat="42.51983" lon="2.07929">
        <ele>1762.0964361474</ele>
        <time>2000-05-11T11:52:32.15</time>
      </trkpt>
      <trkpt lat="42.51983" lon="2.07928">
        <ele>1763.3311742226</ele>
        <time>2000-05-11T11:52:33.15</time>
      </trkpt>
      <trkpt lat="42.51984" lon="2.07928">
        <ele>1764.1240863008</ele>
        <time>2000-05-11T11:52:34.15</time>
      </trkpt>
      <trkpt lat="42.51986" lon="2.07927">
        <ele>1764.2715101393</ele>
        <time>2000-05-11T11:52:35.14</time>
      </trkpt>
      <trkpt lat="42.51986" lon="2.07927">
        <ele>1763.8846235532</ele>
        <time>2000-05-11T11:52:36.14</time>
      </trkpt>
      <trkpt lat="42.51987" lon="2.07927">
        <ele>1763.56426349</ele>
        <time>2000-05-11T11:52:37.16</time>
      </trkpt>
      <trkpt lat="42.51987" lon="2.07927">
        <ele>1763.2781329168</ele>
        <time>2000-05-11T11:52:38.16</time>
      </trkpt>
      <trkpt lat="42.51987" lon="2.07926">
        <ele>1763.2644117795</ele>
        <time>2000-05-11T11:52:39.17</time>
      </trkpt>
      <trkpt lat="42.51988" lon="2.07925">
        <ele>1763.5132292302</ele>
        <time>2000-05-11T11:52:40.17</time>
      </trkpt>
      <trkpt lat="42.51989" lon="2.07925">
        <ele>1763.6849186029</ele>
        <time>2000-05-11T11:52:41.17</time>
      </trkpt>
      <trkpt lat="42.51989" lon="2.07926">
        <ele>1763.5195168348</ele>
        <time>2000-05-11T11:52:42.17</time>
      </trkpt>
      <trkpt lat="42.5199" lon="2.07925">
        <ele>1763.5371672843</ele>
        <time>2000-05-11T11:52:43.20</time>
      </trkpt>
      <trkpt lat="42.5199" lon="2.07925">
        <ele>1763.5031911908</ele>
        <time>2000-05-11T11:52:44.20</time>
      </trkpt>
      <trkpt lat="42.51992" lon="2.07925">
        <ele>1763.3281636789</ele>
        <time>2000-05-11T11:52:45.20</time>
      </trkpt>
      <trkpt lat="42.51993" lon="2.07924">
        <ele>1763.1581366701</ele>
        <time>2000-05-11T11:52:46.20</time>
      </trkpt>
      <trkpt lat="42.51995" lon="2.07923">
        <ele>1763.5373307116</ele>
        <time>2000-05-11T11:52:47.20</time>
      </trkpt>
      <trkpt lat="42.51997" lon="2.07922">
        <ele>1763.7916183429</ele>
        <time>2000-05-11T11:52:48.20</time>
      </trkpt>
      <trkpt lat="42.51998" lon="2.07921">
        <ele>1764.3156841749</ele>
        <time>2000-05-11T11:52:49.20</time>
      </trkpt>
      <trkpt lat="42.51999" lon="2.07919">
        <ele>1764.8909261875</ele>
        <time>2000-05-11T11:52:50.20</time>
      </trkpt>
      <trkpt lat="42.52001" lon="2.07917">
        <ele>1765.2837245824</ele>
        <time>2000-05-11T11:52:51.20</time>
      </trkpt>
      <trkpt lat="42.52001" lon="2.07917">
        <ele>1765.3978665449</ele>
        <time>2000-05-11T11:52:52.20</time>
      </trkpt>
      <trkpt lat="42.52002" lon="2.07916">
        <ele>1765.3187291775</ele>
        <time>2000-05-11T11:52:53.20</time>
      </trkpt>
      <trkpt lat="42.52003" lon="2.07915">
        <ele>1765.3033421203</ele>
        <time>2000-05-11T11:52:54.20</time>
      </trkpt>
      <trkpt lat="42.52006" lon="2.07914">
        <ele>1765.807585685</ele>
        <time>2000-05-11T11:52:55.20</time>
      </trkpt>
      <trkpt lat="42.52007" lon="2.07914">
        <ele>1766.4016033392</ele>
        <time>2000-05-11T11:52:56.20</time>
      </trkpt>
      <trkpt lat="42.52007" lon="2.07912">
        <ele>1766.6604549984</ele>
        <time>2000-05-11T11:52:57.20</time>
      </trkpt>
      <trkpt lat="42.52006" lon="2.07911">
        <ele>1766.8707898246</ele>
        <time>2000-05-11T11:52:58.20</time>
      </trkpt>
      <trkpt lat="42.52006" lon="2.07911">
        <ele>1766.7475961398</ele>
        <time>2000-05-11T11:52:59.20</time>
      </trkpt>
      <trkpt lat="42.52007" lon="2.07911">
        <ele>1766.1005687516</ele>
        <time>2000-05-11T11:53:00.20</time>
      </trkpt>
      <trkpt lat="42.52008" lon="2.0791">
        <ele>1765.4557855414</ele>
        <time>2000-05-11T11:53:01.20</time>
      </trkpt>
      <trkpt lat="42.52009" lon="2.07909">
        <ele>1764.6260208696</ele>
        <time>2000-05-11T11:53:02.20</time>
      </trkpt>
      <trkpt lat="42.5201" lon="2.07907">
        <ele>1763.9626595439</ele>
        <time>2000-05-11T11:53:03.20</time>
      </trkpt>
      <trkpt lat="42.52011" lon="2.07907">
        <ele>1763.2104983089</ele>
        <time>2000-05-11T11:53:04.20</time>
      </trkpt>
      <trkpt lat="42.52011" lon="2.07907">
        <ele>1762.4217510086</ele>
        <time>2000-05-11T11:53:05.20</time>
      </trkpt>
      <trkpt lat="42.52012" lon="2.07906">
        <ele>1761.7239424815</ele>
        <time>2000-05-11T11:53:06.20</time>
      </trkpt>
      <trkpt lat="42.52013" lon="2.07905">
        <ele>1761.7098152624</ele>
        <time>2000-05-11T11:53:07.20</time>
      </trkpt>
      <trkpt lat="42.52015" lon="2.07903">
        <ele>1762.1755919039</ele>
        <time>2000-05-11T11:53:08.20</time>
      </trkpt>
      <trkpt lat="42.52015" lon="2.07903">
        <ele>1762.7301684547</ele>
        <time>2000-05-11T11:53:09.20</time>
      </trkpt>
      <trkpt lat="42.52015" lon="2.07902">
        <ele>1762.947819335</ele>
        <time>2000-05-11T11:53:10.20</time>
      </trkpt>
      <trkpt lat="42.52015" lon="2.07901">
        <ele>1762.8311851535</ele>
        <time>2000-05-11T11:53:11.20</time>
      </trkpt>
      <trkpt lat="42.52015" lon="2.079">
        <ele>1762.2188292701</ele>
        <time>2000-05-11T11:53:12.20</time>
      </trkpt>
      <trkpt lat="42.52017" lon="2.07898">
        <ele>1760.8563965598</ele>
        <time>2000-05-11T11:53:13.23</time>
      </trkpt>
      <trkpt lat="42.52018" lon="2.07898">
        <ele>1759.1437587677</ele>
        <time>2000-05-11T11:53:14.23</time>
      </trkpt>
      <trkpt lat="42.52018" lon="2.07897">
        <ele>1757.4516570313</ele>
        <time>2000-05-11T11:53:15.23</time>
      </trkpt>
      <trkpt lat="42.5202" lon="2.07896">
        <ele>1756.1297358515</ele>
        <time>2000-05-11T11:53:16.23</time>
      </trkpt>
      <trkpt lat="42.52021" lon="2.07895">
        <ele>1755.0606197957</ele>
        <time>2000-05-11T11:53:17.23</time>
      </trkpt>
      <trkpt lat="42.52023" lon="2.07894">
        <ele>1754.3245038908</ele>
        <time>2000-05-11T11:53:18.23</time>
      </trkpt>
      <trkpt lat="42.52024" lon="2.07893">
        <ele>1753.8866068309</ele>
        <time>2000-05-11T11:53:19.23</time>
      </trkpt>
      <trkpt lat="42.52025" lon="2.07891">
        <ele>1753.4897508966</ele>
        <time>2000-05-11T11:53:20.23</time>
      </trkpt>
      <trkpt lat="42.52025" lon="2.0789">
        <ele>1753.1673841789</ele>
        <time>2000-05-11T11:53:21.23</time>
      </trkpt>
      <trkpt lat="42.52026" lon="2.07888">
        <ele>1753.3798583493</ele>
        <time>2000-05-11T11:53:22.23</time>
      </trkpt>
      <trkpt lat="42.52028" lon="2.07887">
        <ele>1753.79419601</ele>
        <time>2000-05-11T11:53:23.23</time>
      </trkpt>
      <trkpt lat="42.52029" lon="2.07886">
        <ele>1754.4198689124</ele>
        <time>2000-05-11T11:53:24.23</time>
      </trkpt>
      <trkpt lat="42.52029" lon="2.07884">
        <ele>1755.8519144215</ele>
        <time>2000-05-11T11:53:25.23</time>
      </trkpt>
      <trkpt lat="42.5203" lon="2.07883">
        <ele>1757.8465197595</ele>
        <time>2000-05-11T11:53:26.23</time>
      </trkpt>
      <trkpt lat="42.52031" lon="2.07883">
        <ele>1759.240815731</ele>
        <time>2000-05-11T11:53:27.23</time>
      </trkpt>
      <trkpt lat="42.52032" lon="2.07882">
        <ele>1760.4271266345</ele>
        <time>2000-05-11T11:53:28.23</time>
      </trkpt>
      <trkpt lat="42.52033" lon="2.07882">
        <ele>1761.6704945235</ele>
        <time>2000-05-11T11:53:29.23</time>
      </trkpt>
      <trkpt lat="42.52034" lon="2.07881">
        <ele>1762.7754034987</ele>
        <time>2000-05-11T11:53:30.23</time>
      </trkpt>
      <trkpt lat="42.52036" lon="2.07879">
        <ele>1763.3834390467</ele>
        <time>2000-05-11T11:53:31.23</time>
      </trkpt>
      <trkpt lat="42.52038" lon="2.07879">
        <ele>1764.4581342904</ele>
        <time>2000-05-11T11:53:32.23</time>
      </trkpt>
      <trkpt lat="42.52038" lon="2.07879">
        <ele>1765.4321606986</ele>
        <time>2000-05-11T11:53:33.23</time>
      </trkpt>
      <trkpt lat="42.52039" lon="2.07878">
        <ele>1766.2934599288</ele>
        <time>2000-05-11T11:53:34.23</time>
      </trkpt>
      <trkpt lat="42.52041" lon="2.07877">
        <ele>1766.5629557002</ele>
        <time>2000-05-11T11:53:35.23</time>
      </trkpt>
      <trkpt lat="42.52041" lon="2.07876">
        <ele>1766.4405638827</ele>
        <time>2000-05-11T11:53:36.23</time>
      </trkpt>
      <trkpt lat="42.52043" lon="2.07875">
        <ele>1765.6559803782</ele>
        <time>2000-05-11T11:53:37.23</time>
      </trkpt>
      <trkpt lat="42.52044" lon="2.07874">
        <ele>1765.0097775752</ele>
        <time>2000-05-11T11:53:38.23</time>
      </trkpt>
      <trkpt lat="42.52045" lon="2.07871">
        <ele>1764.29697969</ele>
        <time>2000-05-11T11:53:39.23</time>
      </trkpt>
      <trkpt lat="42.52046" lon="2.07868">
        <ele>1763.8159658933</ele>
        <time>2000-05-11T11:53:40.23</time>
      </trkpt>
      <trkpt lat="42.52046" lon="2.07867">
        <ele>1763.384851495</ele>
        <time>2000-05-11T11:53:41.23</time>
      </trkpt>
      <trkpt lat="42.52046" lon="2.07866">
        <ele>1763.1788712379</ele>
        <time>2000-05-11T11:53:42.23</time>
      </trkpt>
      <trkpt lat="42.52048" lon="2.07866">
        <ele>1763.3873089083</ele>
        <time>2000-05-11T11:53:43.23</time>
      </trkpt>
      <trkpt lat="42.52049" lon="2.07865">
        <ele>1763.6605917493</ele>
        <time>2000-05-11T11:53:44.23</time>
      </trkpt>
      <trkpt lat="42.52049" lon="2.07865">
        <ele>1763.9013287567</ele>
        <time>2000-05-11T11:53:45.23</time>
      </trkpt>
      <trkpt lat="42.52049" lon="2.07864">
        <ele>1764.1524706541</ele>
        <time>2000-05-11T11:53:46.23</time>
      </trkpt>
      <trkpt lat="42.52049" lon="2.07863">
        <ele>1764.6620719722</ele>
        <time>2000-05-11T11:53:47.23</time>
      </trkpt>
      <trkpt lat="42.52051" lon="2.07861">
        <ele>1764.5017063951</ele>
        <time>2000-05-11T11:53:48.23</time>
      </trkpt>
      <trkpt lat="42.52052" lon="2.07861">
        <ele>1763.9718059182</ele>
        <time>2000-05-11T11:53:49.23</time>
      </trkpt>
      <trkpt lat="42.52052" lon="2.07861">
        <ele>1763.4419054413</ele>
        <time>2000-05-11T11:53:50.23</time>
      </trkpt>
      <trkpt lat="42.52052" lon="2.07861">
        <ele>1763.1391313035</ele>
        <time>2000-05-11T11:53:51.23</time>
      </trkpt>
      <trkpt lat="42.52053" lon="2.0786">
        <ele>1762.6100350408</ele>
        <time>2000-05-11T11:53:52.23</time>
      </trkpt>
      <trkpt lat="42.52055" lon="2.0786">
        <ele>1762.3160678852</ele>
        <time>2000-05-11T11:53:53.23</time>
      </trkpt>
      <trkpt lat="42.52056" lon="2.07859">
        <ele>1762.33936814</ele>
        <time>2000-05-11T11:53:54.23</time>
      </trkpt>
      <trkpt lat="42.52056" lon="2.07858">
        <ele>1762.3928880889</ele>
        <time>2000-05-11T11:53:55.23</time>
      </trkpt>
      <trkpt lat="42.52056" lon="2.07859">
        <ele>1762.2830769068</ele>
        <time>2000-05-11T11:53:56.23</time>
      </trkpt>
      <trkpt lat="42.52056" lon="2.07857">
        <ele>1761.4788450314</ele>
        <time>2000-05-11T11:53:57.23</time>
      </trkpt>
      <trkpt lat="42.52057" lon="2.07856">
        <ele>1760.3121730229</ele>
        <time>2000-05-11T11:53:58.23</time>
      </trkpt>
      <trkpt lat="42.52058" lon="2.07855">
        <ele>1759.0061430696</ele>
        <time>2000-05-11T11:53:59.23</time>
      </trkpt>
      <trkpt lat="42.52059" lon="2.07854">
        <ele>1757.5722079009</ele>
        <time>2000-05-11T11:54:00.23</time>
      </trkpt>
      <trkpt lat="42.52061" lon="2.07853">
        <ele>1756.0549914464</ele>
        <time>2000-05-11T11:54:01.23</time>
      </trkpt>
      <trkpt lat="42.52062" lon="2.07852">
        <ele>1755.1422304383</ele>
        <time>2000-05-11T11:54:02.23</time>
      </trkpt>
      <trkpt lat="42.52063" lon="2.07851">
        <ele>1754.3466951316</ele>
        <time>2000-05-11T11:54:03.23</time>
      </trkpt>
      <trkpt lat="42.52066" lon="2.0785">
        <ele>1753.4640215542</ele>
        <time>2000-05-11T11:54:04.23</time>
      </trkpt>
      <trkpt lat="42.52066" lon="2.07849">
        <ele>1752.8182091214</ele>
        <time>2000-05-11T11:54:05.23</time>
      </trkpt>
      <trkpt lat="42.52068" lon="2.07849">
        <ele>1752.1531858088</ele>
        <time>2000-05-11T11:54:06.23</time>
      </trkpt>
      <trkpt lat="42.52069" lon="2.07848">
        <ele>1751.6236605501</ele>
        <time>2000-05-11T11:54:07.23</time>
      </trkpt>
      <trkpt lat="42.5207" lon="2.07848">
        <ele>1751.4775873551</ele>
        <time>2000-05-11T11:54:08.23</time>
      </trkpt>
      <trkpt lat="42.5207" lon="2.07848">
        <ele>1751.0434966994</ele>
        <time>2000-05-11T11:54:09.23</time>
      </trkpt>
      <trkpt lat="42.52071" lon="2.07847">
        <ele>1749.9851122558</ele>
        <time>2000-05-11T11:54:10.23</time>
      </trkpt>
      <trkpt lat="42.52071" lon="2.07847">
        <ele>1749.1925511086</ele>
        <time>2000-05-11T11:54:11.23</time>
      </trkpt>
      <trkpt lat="42.52072" lon="2.07847">
        <ele>1748.5348045813</ele>
        <time>2000-05-11T11:54:12.23</time>
      </trkpt>
      <trkpt lat="42.52072" lon="2.07847">
        <ele>1747.6820698183</ele>
        <time>2000-05-11T11:54:13.23</time>
      </trkpt>
      <trkpt lat="42.52074" lon="2.07847">
        <ele>1747.0614870876</ele>
        <time>2000-05-11T11:54:14.24</time>
      </trkpt>
      <trkpt lat="42.52073" lon="2.07845">
        <ele>1747.100167972</ele>
        <time>2000-05-11T11:54:15.24</time>
      </trkpt>
      <trkpt lat="42.52074" lon="2.07845">
        <ele>1747.6192977387</ele>
        <time>2000-05-11T11:54:16.24</time>
      </trkpt>
      <trkpt lat="42.52075" lon="2.07843">
        <ele>1748.0606338123</ele>
        <time>2000-05-11T11:54:17.24</time>
      </trkpt>
      <trkpt lat="42.52076" lon="2.07842">
        <ele>1748.5184503883</ele>
        <time>2000-05-11T11:54:18.24</time>
      </trkpt>
      <trkpt lat="42.52078" lon="2.07841">
        <ele>1749.1224889081</ele>
        <time>2000-05-11T11:54:19.24</time>
      </trkpt>
      <trkpt lat="42.52079" lon="2.0784">
        <ele>1749.6863783313</ele>
        <time>2000-05-11T11:54:20.24</time>
      </trkpt>
      <trkpt lat="42.52081" lon="2.07838">
        <ele>1749.6410345268</ele>
        <time>2000-05-11T11:54:21.24</time>
      </trkpt>
      <trkpt lat="42.52082" lon="2.07837">
        <ele>1749.3518194996</ele>
        <time>2000-05-11T11:54:22.24</time>
      </trkpt>
      <trkpt lat="42.52083" lon="2.07837">
        <ele>1748.8715168267</ele>
        <time>2000-05-11T11:54:23.24</time>
      </trkpt>
      <trkpt lat="42.52084" lon="2.07837">
        <ele>1748.2649872374</ele>
        <time>2000-05-11T11:54:24.24</time>
      </trkpt>
      <trkpt lat="42.52086" lon="2.07837">
        <ele>1747.7121612493</ele>
        <time>2000-05-11T11:54:25.24</time>
      </trkpt>
      <trkpt lat="42.52088" lon="2.07837">
        <ele>1747.7674916388</ele>
        <time>2000-05-11T11:54:26.24</time>
      </trkpt>
      <trkpt lat="42.5209" lon="2.07837">
        <ele>1748.0631903538</ele>
        <time>2000-05-11T11:54:27.24</time>
      </trkpt>
      <trkpt lat="42.5209" lon="2.07836">
        <ele>1748.4487077601</ele>
        <time>2000-05-11T11:54:28.24</time>
      </trkpt>
      <trkpt lat="42.52092" lon="2.07835">
        <ele>1749.7552595323</ele>
        <time>2000-05-11T11:54:29.24</time>
      </trkpt>
      <trkpt lat="42.52092" lon="2.07835">
        <ele>1750.8741113493</ele>
        <time>2000-05-11T11:54:30.24</time>
      </trkpt>
      <trkpt lat="42.52093" lon="2.07835">
        <ele>1751.6453733908</ele>
        <time>2000-05-11T11:54:31.24</time>
      </trkpt>
      <trkpt lat="42.52094" lon="2.07834">
        <ele>1752.2322041092</ele>
        <time>2000-05-11T11:54:32.24</time>
      </trkpt>
      <trkpt lat="42.52095" lon="2.07833">
        <ele>1752.5842251372</ele>
        <time>2000-05-11T11:54:33.24</time>
      </trkpt>
      <trkpt lat="42.52096" lon="2.07832">
        <ele>1752.3477303468</ele>
        <time>2000-05-11T11:54:34.24</time>
      </trkpt>
      <trkpt lat="42.52097" lon="2.07832">
        <ele>1751.9313269848</ele>
        <time>2000-05-11T11:54:35.24</time>
      </trkpt>
      <trkpt lat="42.52098" lon="2.07832">
        <ele>1750.9444762256</ele>
        <time>2000-05-11T11:54:36.24</time>
      </trkpt>
      <trkpt lat="42.521" lon="2.0783">
        <ele>1750.5415667536</ele>
        <time>2000-05-11T11:54:37.24</time>
      </trkpt>
      <trkpt lat="42.52103" lon="2.07829">
        <ele>1751.1449047497</ele>
        <time>2000-05-11T11:54:38.24</time>
      </trkpt>
      <trkpt lat="42.52103" lon="2.07828">
        <ele>1751.3474688256</ele>
        <time>2000-05-11T11:54:39.24</time>
      </trkpt>
      <trkpt lat="42.52105" lon="2.07827">
        <ele>1751.7881139079</ele>
        <time>2000-05-11T11:54:40.24</time>
      </trkpt>
      <trkpt lat="42.52106" lon="2.07825">
        <ele>1751.8993476488</ele>
        <time>2000-05-11T11:54:41.24</time>
      </trkpt>
      <trkpt lat="42.52106" lon="2.07824">
        <ele>1750.6673922472</ele>
        <time>2000-05-11T11:54:42.24</time>
      </trkpt>
      <trkpt lat="42.52107" lon="2.07822">
        <ele>1748.1482390292</ele>
        <time>2000-05-11T11:54:43.24</time>
      </trkpt>
      <trkpt lat="42.52107" lon="2.07821">
        <ele>1745.6521674236</ele>
        <time>2000-05-11T11:54:44.24</time>
      </trkpt>
      <trkpt lat="42.52109" lon="2.0782">
        <ele>1743.1147260573</ele>
        <time>2000-05-11T11:54:45.24</time>
      </trkpt>
      <trkpt lat="42.5211" lon="2.07819">
        <ele>1741.267744467</ele>
        <time>2000-05-11T11:54:46.24</time>
      </trkpt>
      <trkpt lat="42.52111" lon="2.07818">
        <ele>1740.3474994736</ele>
        <time>2000-05-11T11:54:47.24</time>
      </trkpt>
      <trkpt lat="42.52112" lon="2.07817">
        <ele>1739.61226236</ele>
        <time>2000-05-11T11:54:48.24</time>
      </trkpt>
      <trkpt lat="42.52113" lon="2.07817">
        <ele>1739.2011287883</ele>
        <time>2000-05-11T11:54:49.24</time>
      </trkpt>
      <trkpt lat="42.52114" lon="2.07816">
        <ele>1738.4715362573</ele>
        <time>2000-05-11T11:54:50.24</time>
      </trkpt>
      <trkpt lat="42.52115" lon="2.07813">
        <ele>1737.5285566889</ele>
        <time>2000-05-11T11:54:51.24</time>
      </trkpt>
      <trkpt lat="42.52116" lon="2.07813">
        <ele>1737.162611245</ele>
        <time>2000-05-11T11:54:52.24</time>
      </trkpt>
      <trkpt lat="42.52116" lon="2.07813">
        <ele>1737.2122064119</ele>
        <time>2000-05-11T11:54:53.24</time>
      </trkpt>
      <trkpt lat="42.52117" lon="2.07813">
        <ele>1736.9348532071</ele>
        <time>2000-05-11T11:54:54.24</time>
      </trkpt>
      <trkpt lat="42.52118" lon="2.07812">
        <ele>1737.4519716149</ele>
        <time>2000-05-11T11:54:55.24</time>
      </trkpt>
      <trkpt lat="42.5212" lon="2.07812">
        <ele>1738.2245920362</ele>
        <time>2000-05-11T11:54:56.24</time>
      </trkpt>
      <trkpt lat="42.52121" lon="2.0781">
        <ele>1738.3943615174</ele>
        <time>2000-05-11T11:54:57.24</time>
      </trkpt>
      <trkpt lat="42.52122" lon="2.0781">
        <ele>1738.3301126486</ele>
        <time>2000-05-11T11:54:58.24</time>
      </trkpt>
      <trkpt lat="42.52123" lon="2.07809">
        <ele>1738.5868681736</ele>
        <time>2000-05-11T11:54:59.24</time>
      </trkpt>
      <trkpt lat="42.52125" lon="2.07809">
        <ele>1738.7270666044</ele>
        <time>2000-05-11T11:55:00.24</time>
      </trkpt>
      <trkpt lat="42.52127" lon="2.07808">
        <ele>1739.5546648635</ele>
        <time>2000-05-11T11:55:01.24</time>
      </trkpt>
      <trkpt lat="42.52129" lon="2.07807">
        <ele>1740.5000493318</ele>
        <time>2000-05-11T11:55:02.24</time>
      </trkpt>
      <trkpt lat="42.52129" lon="2.07807">
        <ele>1741.4900942888</ele>
        <time>2000-05-11T11:55:03.24</time>
      </trkpt>
      <trkpt lat="42.52129" lon="2.07806">
        <ele>1742.6551455243</ele>
        <time>2000-05-11T11:55:04.24</time>
      </trkpt>
      <trkpt lat="42.52129" lon="2.07805">
        <ele>1743.4535332892</ele>
        <time>2000-05-11T11:55:05.24</time>
      </trkpt>
      <trkpt lat="42.5213" lon="2.07804">
        <ele>1743.5571744641</ele>
        <time>2000-05-11T11:55:06.24</time>
      </trkpt>
      <trkpt lat="42.52132" lon="2.07803">
        <ele>1743.6416150864</ele>
        <time>2000-05-11T11:55:07.24</time>
      </trkpt>
      <trkpt lat="42.52134" lon="2.07802">
        <ele>1743.9876926523</ele>
        <time>2000-05-11T11:55:08.24</time>
      </trkpt>
      <trkpt lat="42.52136" lon="2.07801">
        <ele>1744.659528761</ele>
        <time>2000-05-11T11:55:09.24</time>
      </trkpt>
      <trkpt lat="42.52137" lon="2.078">
        <ele>1745.8139809256</ele>
        <time>2000-05-11T11:55:10.24</time>
      </trkpt>
      <trkpt lat="42.52138" lon="2.07799">
        <ele>1747.0088613175</ele>
        <time>2000-05-11T11:55:11.24</time>
      </trkpt>
      <trkpt lat="42.5214" lon="2.07799">
        <ele>1747.8487861605</ele>
        <time>2000-05-11T11:55:12.24</time>
      </trkpt>
      <trkpt lat="42.5214" lon="2.07799">
        <ele>1748.3175696595</ele>
        <time>2000-05-11T11:55:13.24</time>
      </trkpt>
      <trkpt lat="42.5214" lon="2.07798">
        <ele>1747.6041515836</ele>
        <time>2000-05-11T11:55:14.24</time>
      </trkpt>
      <trkpt lat="42.52141" lon="2.07797">
        <ele>1746.3168107124</ele>
        <time>2000-05-11T11:55:15.24</time>
      </trkpt>
      <trkpt lat="42.52142" lon="2.07796">
        <ele>1745.0526384545</ele>
        <time>2000-05-11T11:55:16.24</time>
      </trkpt>
      <trkpt lat="42.52143" lon="2.07796">
        <ele>1744.1370237051</ele>
        <time>2000-05-11T11:55:17.24</time>
      </trkpt>
      <trkpt lat="42.52145" lon="2.07795">
        <ele>1743.5725361181</ele>
        <time>2000-05-11T11:55:18.24</time>
      </trkpt>
      <trkpt lat="42.52145" lon="2.07795">
        <ele>1743.7113600869</ele>
        <time>2000-05-11T11:55:19.24</time>
      </trkpt>
      <trkpt lat="42.52147" lon="2.07794">
        <ele>1744.2290638236</ele>
        <time>2000-05-11T11:55:20.24</time>
      </trkpt>
      <trkpt lat="42.52148" lon="2.07793">
        <ele>1744.7235295311</ele>
        <time>2000-05-11T11:55:21.24</time>
      </trkpt>
      <trkpt lat="42.5215" lon="2.07792">
        <ele>1745.7020696733</ele>
        <time>2000-05-11T11:55:22.24</time>
      </trkpt>
      <trkpt lat="42.52151" lon="2.07791">
        <ele>1746.764649527</ele>
        <time>2000-05-11T11:55:23.24</time>
      </trkpt>
      <trkpt lat="42.52152" lon="2.0779">
        <ele>1747.8205068367</ele>
        <time>2000-05-11T11:55:24.24</time>
      </trkpt>
      <trkpt lat="42.52153" lon="2.0779">
        <ele>1748.8200031722</ele>
        <time>2000-05-11T11:55:25.24</time>
      </trkpt>
      <trkpt lat="42.52153" lon="2.07789">
        <ele>1749.4844799556</ele>
        <time>2000-05-11T11:55:26.24</time>
      </trkpt>
      <trkpt lat="42.52154" lon="2.07789">
        <ele>1749.5603744244</ele>
        <time>2000-05-11T11:55:27.24</time>
      </trkpt>
      <trkpt lat="42.52154" lon="2.07788">
        <ele>1749.4462329155</ele>
        <time>2000-05-11T11:55:28.24</time>
      </trkpt>
      <trkpt lat="42.52156" lon="2.07786">
        <ele>1749.3976723131</ele>
        <time>2000-05-11T11:55:29.24</time>
      </trkpt>
      <trkpt lat="42.52156" lon="2.07784">
        <ele>1748.1072160155</ele>
        <time>2000-05-11T11:55:30.24</time>
      </trkpt>
      <trkpt lat="42.52157" lon="2.07783">
        <ele>1746.6677486813</ele>
        <time>2000-05-11T11:55:31.24</time>
      </trkpt>
      <trkpt lat="42.52158" lon="2.07781">
        <ele>1744.7081415232</ele>
        <time>2000-05-11T11:55:32.24</time>
      </trkpt>
      <trkpt lat="42.52158" lon="2.0778">
        <ele>1742.672655536</ele>
        <time>2000-05-11T11:55:33.24</time>
      </trkpt>
      <trkpt lat="42.52159" lon="2.0778">
        <ele>1740.3052415054</ele>
        <time>2000-05-11T11:55:34.24</time>
      </trkpt>
      <trkpt lat="42.5216" lon="2.07779">
        <ele>1738.8727278683</ele>
        <time>2000-05-11T11:55:35.24</time>
      </trkpt>
      <trkpt lat="42.5216" lon="2.07777">
        <ele>1737.9204451863</ele>
        <time>2000-05-11T11:55:36.24</time>
      </trkpt>
      <trkpt lat="42.5216" lon="2.07776">
        <ele>1737.6356845053</ele>
        <time>2000-05-11T11:55:37.24</time>
      </trkpt>
      <trkpt lat="42.52161" lon="2.07776">
        <ele>1737.593898676</ele>
        <time>2000-05-11T11:55:38.24</time>
      </trkpt>
      <trkpt lat="42.52163" lon="2.07775">
        <ele>1737.9763221422</ele>
        <time>2000-05-11T11:55:39.24</time>
      </trkpt>
      <trkpt lat="42.52164" lon="2.07775">
        <ele>1738.6261586519</ele>
        <time>2000-05-11T11:55:40.24</time>
      </trkpt>
      <trkpt lat="42.52164" lon="2.07774">
        <ele>1738.8425771454</ele>
        <time>2000-05-11T11:55:41.24</time>
      </trkpt>
      <trkpt lat="42.52165" lon="2.07774">
        <ele>1738.6860473042</ele>
        <time>2000-05-11T11:55:42.24</time>
      </trkpt>
      <trkpt lat="42.52166" lon="2.07774">
        <ele>1738.1752545943</ele>
        <time>2000-05-11T11:55:43.24</time>
      </trkpt>
      <trkpt lat="42.52166" lon="2.07772">
        <ele>1737.4984985145</ele>
        <time>2000-05-11T11:55:44.24</time>
      </trkpt>
      <trkpt lat="42.52167" lon="2.07771">
        <ele>1736.5751593102</ele>
        <time>2000-05-11T11:55:45.24</time>
      </trkpt>
      <trkpt lat="42.52169" lon="2.0777">
        <ele>1736.2139255587</ele>
        <time>2000-05-11T11:55:46.24</time>
      </trkpt>
      <trkpt lat="42.52171" lon="2.07769">
        <ele>1736.3259510715</ele>
        <time>2000-05-11T11:55:47.24</time>
      </trkpt>
      <trkpt lat="42.52173" lon="2.07769">
        <ele>1736.3701831048</ele>
        <time>2000-05-11T11:55:48.24</time>
      </trkpt>
      <trkpt lat="42.52173" lon="2.07769">
        <ele>1736.1419799322</ele>
        <time>2000-05-11T11:55:49.24</time>
      </trkpt>
      <trkpt lat="42.52175" lon="2.07768">
        <ele>1735.9023715805</ele>
        <time>2000-05-11T11:55:50.24</time>
      </trkpt>
      <trkpt lat="42.52176" lon="2.07767">
        <ele>1735.4340423591</ele>
        <time>2000-05-11T11:55:51.24</time>
      </trkpt>
      <trkpt lat="42.52177" lon="2.07765">
        <ele>1735.3908917962</ele>
        <time>2000-05-11T11:55:52.24</time>
      </trkpt>
      <trkpt lat="42.52178" lon="2.07765">
        <ele>1735.8078953598</ele>
        <time>2000-05-11T11:55:53.24</time>
      </trkpt>
      <trkpt lat="42.52179" lon="2.07764">
        <ele>1736.4004360523</ele>
        <time>2000-05-11T11:55:54.24</time>
      </trkpt>
      <trkpt lat="42.52179" lon="2.07763">
        <ele>1736.8650534283</ele>
        <time>2000-05-11T11:55:55.24</time>
      </trkpt>
      <trkpt lat="42.52181" lon="2.07762">
        <ele>1737.3489935221</ele>
        <time>2000-05-11T11:55:56.24</time>
      </trkpt>
      <trkpt lat="42.52182" lon="2.07761">
        <ele>1737.6521369392</ele>
        <time>2000-05-11T11:55:57.24</time>
      </trkpt>
      <trkpt lat="42.52182" lon="2.0776">
        <ele>1738.1040422227</ele>
        <time>2000-05-11T11:55:58.24</time>
      </trkpt>
      <trkpt lat="42.52184" lon="2.07759">
        <ele>1738.8687388277</ele>
        <time>2000-05-11T11:55:59.24</time>
      </trkpt>
      <trkpt lat="42.52185" lon="2.07759">
        <ele>1740.210198555</ele>
        <time>2000-05-11T11:56:00.24</time>
      </trkpt>
      <trkpt lat="42.52187" lon="2.07758">
        <ele>1741.6916216811</ele>
        <time>2000-05-11T11:56:01.24</time>
      </trkpt>
      <trkpt lat="42.52188" lon="2.07757">
        <ele>1742.5983028229</ele>
        <time>2000-05-11T11:56:02.24</time>
      </trkpt>
      <trkpt lat="42.52189" lon="2.07757">
        <ele>1742.9538910309</ele>
        <time>2000-05-11T11:56:03.24</time>
      </trkpt>
      <trkpt lat="42.52189" lon="2.07757">
        <ele>1743.0262543494</ele>
        <time>2000-05-11T11:56:04.24</time>
      </trkpt>
      <trkpt lat="42.52189" lon="2.07756">
        <ele>1742.4926437318</ele>
        <time>2000-05-11T11:56:05.24</time>
      </trkpt>
      <trkpt lat="42.5219" lon="2.07754">
        <ele>1741.7211428564</ele>
        <time>2000-05-11T11:56:06.24</time>
      </trkpt>
      <trkpt lat="42.52192" lon="2.07753">
        <ele>1741.445235843</ele>
        <time>2000-05-11T11:56:07.24</time>
      </trkpt>
      <trkpt lat="42.52196" lon="2.07753">
        <ele>1741.9709609028</ele>
        <time>2000-05-11T11:56:08.24</time>
      </trkpt>
      <trkpt lat="42.52197" lon="2.07751">
        <ele>1742.4675088285</ele>
        <time>2000-05-11T11:56:09.24</time>
      </trkpt>
      <trkpt lat="42.52199" lon="2.0775">
        <ele>1743.380525565</ele>
        <time>2000-05-11T11:56:10.24</time>
      </trkpt>
      <trkpt lat="42.52199" lon="2.07747">
        <ele>1744.6054809391</ele>
        <time>2000-05-11T11:56:11.24</time>
      </trkpt>
      <trkpt lat="42.52198" lon="2.07744">
        <ele>1745.8873808334</ele>
        <time>2000-05-11T11:56:12.24</time>
      </trkpt>
      <trkpt lat="42.52199" lon="2.07743">
        <ele>1746.6587289834</ele>
        <time>2000-05-11T11:56:13.24</time>
      </trkpt>
      <trkpt lat="42.522" lon="2.07742">
        <ele>1747.023707273</ele>
        <time>2000-05-11T11:56:14.24</time>
      </trkpt>
      <trkpt lat="42.52201" lon="2.07741">
        <ele>1746.7703011021</ele>
        <time>2000-05-11T11:56:15.24</time>
      </trkpt>
      <trkpt lat="42.52203" lon="2.0774">
        <ele>1746.1516769331</ele>
        <time>2000-05-11T11:56:16.24</time>
      </trkpt>
      <trkpt lat="42.52204" lon="2.07739">
        <ele>1744.9124565046</ele>
        <time>2000-05-11T11:56:17.24</time>
      </trkpt>
      <trkpt lat="42.52204" lon="2.07739">
        <ele>1743.4790830424</ele>
        <time>2000-05-11T11:56:18.24</time>
      </trkpt>
      <trkpt lat="42.52205" lon="2.07738">
        <ele>1742.3940970019</ele>
        <time>2000-05-11T11:56:19.24</time>
      </trkpt>
      <trkpt lat="42.52206" lon="2.07737">
        <ele>1741.5061566023</ele>
        <time>2000-05-11T11:56:20.24</time>
      </trkpt>
      <trkpt lat="42.52206" lon="2.07735">
        <ele>1741.0807280362</ele>
        <time>2000-05-11T11:56:21.24</time>
      </trkpt>
      <trkpt lat="42.52207" lon="2.07735">
        <ele>1741.0796678938</ele>
        <time>2000-05-11T11:56:22.24</time>
      </trkpt>
      <trkpt lat="42.52207" lon="2.07734">
        <ele>1741.1482555231</ele>
        <time>2000-05-11T11:56:23.24</time>
      </trkpt>
      <trkpt lat="42.52208" lon="2.07733">
        <ele>1741.5087939341</ele>
        <time>2000-05-11T11:56:24.24</time>
      </trkpt>
      <trkpt lat="42.52208" lon="2.07732">
        <ele>1741.887821174</ele>
        <time>2000-05-11T11:56:25.24</time>
      </trkpt>
      <trkpt lat="42.52209" lon="2.07731">
        <ele>1741.8365750374</ele>
        <time>2000-05-11T11:56:26.24</time>
      </trkpt>
      <trkpt lat="42.52211" lon="2.07729">
        <ele>1741.5384638602</ele>
        <time>2000-05-11T11:56:27.24</time>
      </trkpt>
      <trkpt lat="42.52211" lon="2.07728">
        <ele>1740.8408743542</ele>
        <time>2000-05-11T11:56:28.24</time>
      </trkpt>
      <trkpt lat="42.52213" lon="2.07727">
        <ele>1740.5882000744</ele>
        <time>2000-05-11T11:56:29.24</time>
      </trkpt>
      <trkpt lat="42.52213" lon="2.07726">
        <ele>1740.3261950161</ele>
        <time>2000-05-11T11:56:30.24</time>
      </trkpt>
      <trkpt lat="42.52213" lon="2.07726">
        <ele>1740.1270096553</ele>
        <time>2000-05-11T11:56:31.24</time>
      </trkpt>
      <trkpt lat="42.52214" lon="2.07725">
        <ele>1739.2146136217</ele>
        <time>2000-05-11T11:56:32.24</time>
      </trkpt>
      <trkpt lat="42.52214" lon="2.07724">
        <ele>1738.3957258981</ele>
        <time>2000-05-11T11:56:33.24</time>
      </trkpt>
      <trkpt lat="42.52215" lon="2.07722">
        <ele>1736.7125739237</ele>
        <time>2000-05-11T11:56:34.24</time>
      </trkpt>
      <trkpt lat="42.52216" lon="2.07721">
        <ele>1735.1104461502</ele>
        <time>2000-05-11T11:56:35.24</time>
      </trkpt>
      <trkpt lat="42.52218" lon="2.0772">
        <ele>1733.4574432136</ele>
        <time>2000-05-11T11:56:36.24</time>
      </trkpt>
      <trkpt lat="42.52219" lon="2.07719">
        <ele>1732.5265572162</ele>
        <time>2000-05-11T11:56:37.24</time>
      </trkpt>
      <trkpt lat="42.5222" lon="2.07719">
        <ele>1731.8408644145</ele>
        <time>2000-05-11T11:56:38.24</time>
      </trkpt>
      <trkpt lat="42.5222" lon="2.07718">
        <ele>1731.2662242204</ele>
        <time>2000-05-11T11:56:39.24</time>
      </trkpt>
      <trkpt lat="42.5222" lon="2.07718">
        <ele>1730.6876614453</ele>
        <time>2000-05-11T11:56:40.24</time>
      </trkpt>
      <trkpt lat="42.52221" lon="2.07717">
        <ele>1730.1689849352</ele>
        <time>2000-05-11T11:56:41.24</time>
      </trkpt>
      <trkpt lat="42.52223" lon="2.07715">
        <ele>1730.0925891256</ele>
        <time>2000-05-11T11:56:42.27</time>
      </trkpt>
      <trkpt lat="42.52223" lon="2.07713">
        <ele>1730.1491083169</ele>
        <time>2000-05-11T11:56:43.27</time>
      </trkpt>
      <trkpt lat="42.52225" lon="2.07712">
        <ele>1730.3016706847</ele>
        <time>2000-05-11T11:56:44.27</time>
      </trkpt>
      <trkpt lat="42.52226" lon="2.07712">
        <ele>1730.7033186674</ele>
        <time>2000-05-11T11:56:45.27</time>
      </trkpt>
      <trkpt lat="42.52229" lon="2.07713">
        <ele>1731.2731438009</ele>
        <time>2000-05-11T11:56:46.27</time>
      </trkpt>
      <trkpt lat="42.5223" lon="2.07713">
        <ele>1731.1891405107</ele>
        <time>2000-05-11T11:56:47.27</time>
      </trkpt>
      <trkpt lat="42.52231" lon="2.07713">
        <ele>1731.2488287862</ele>
        <time>2000-05-11T11:56:48.27</time>
      </trkpt>
      <trkpt lat="42.52233" lon="2.07712">
        <ele>1731.7447952518</ele>
        <time>2000-05-11T11:56:49.27</time>
      </trkpt>
      <trkpt lat="42.52234" lon="2.07711">
        <ele>1732.4486620452</ele>
        <time>2000-05-11T11:56:50.27</time>
      </trkpt>
      <trkpt lat="42.52235" lon="2.0771">
        <ele>1732.970477218</ele>
        <time>2000-05-11T11:56:51.27</time>
      </trkpt>
      <trkpt lat="42.52235" lon="2.07709">
        <ele>1733.5313884933</ele>
        <time>2000-05-11T11:56:52.27</time>
      </trkpt>
      <trkpt lat="42.52237" lon="2.07708">
        <ele>1733.8939390948</ele>
        <time>2000-05-11T11:56:53.27</time>
      </trkpt>
      <trkpt lat="42.52238" lon="2.07707">
        <ele>1733.8265763093</ele>
        <time>2000-05-11T11:56:54.27</time>
      </trkpt>
      <trkpt lat="42.5224" lon="2.07706">
        <ele>1733.5482391439</ele>
        <time>2000-05-11T11:56:55.27</time>
      </trkpt>
      <trkpt lat="42.52241" lon="2.07705">
        <ele>1733.6527168592</ele>
        <time>2000-05-11T11:56:56.27</time>
      </trkpt>
      <trkpt lat="42.52242" lon="2.07703">
        <ele>1734.1144669272</ele>
        <time>2000-05-11T11:56:57.27</time>
      </trkpt>
      <trkpt lat="42.52243" lon="2.07701">
        <ele>1734.7570694797</ele>
        <time>2000-05-11T11:56:58.27</time>
      </trkpt>
      <trkpt lat="42.52244" lon="2.077">
        <ele>1735.3786262149</ele>
        <time>2000-05-11T11:56:59.27</time>
      </trkpt>
      <trkpt lat="42.52246" lon="2.07699">
        <ele>1735.897311046</ele>
        <time>2000-05-11T11:57:00.27</time>
      </trkpt>
      <trkpt lat="42.52246" lon="2.07698">
        <ele>1736.1860382365</ele>
        <time>2000-05-11T11:57:01.27</time>
      </trkpt>
      <trkpt lat="42.52248" lon="2.07697">
        <ele>1736.6629782392</ele>
        <time>2000-05-11T11:57:02.27</time>
      </trkpt>
      <trkpt lat="42.52248" lon="2.07696">
        <ele>1736.9880184179</ele>
        <time>2000-05-11T11:57:03.27</time>
      </trkpt>
      <trkpt lat="42.52248" lon="2.07696">
        <ele>1737.0638291018</ele>
        <time>2000-05-11T11:57:04.27</time>
      </trkpt>
      <trkpt lat="42.52248" lon="2.07693">
        <ele>1736.5776593106</ele>
        <time>2000-05-11T11:57:05.27</time>
      </trkpt>
      <trkpt lat="42.52248" lon="2.07693">
        <ele>1736.0866437417</ele>
        <time>2000-05-11T11:57:06.27</time>
      </trkpt>
      <trkpt lat="42.52248" lon="2.07692">
        <ele>1734.917177688</ele>
        <time>2000-05-11T11:57:07.27</time>
      </trkpt>
      <trkpt lat="42.52249" lon="2.07691">
        <ele>1733.4776923183</ele>
        <time>2000-05-11T11:57:08.30</time>
      </trkpt>
      <trkpt lat="42.52251" lon="2.07691">
        <ele>1732.1690631993</ele>
        <time>2000-05-11T11:57:09.30</time>
      </trkpt>
      <trkpt lat="42.52252" lon="2.07691">
        <ele>1731.447988637</ele>
        <time>2000-05-11T11:57:10.30</time>
      </trkpt>
      <trkpt lat="42.52254" lon="2.07691">
        <ele>1730.8415779822</ele>
        <time>2000-05-11T11:57:11.30</time>
      </trkpt>
      <trkpt lat="42.52255" lon="2.0769">
        <ele>1730.8635814551</ele>
        <time>2000-05-11T11:57:12.30</time>
      </trkpt>
      <trkpt lat="42.52256" lon="2.0769">
        <ele>1731.3222192632</ele>
        <time>2000-05-11T11:57:13.30</time>
      </trkpt>
      <trkpt lat="42.52257" lon="2.0769">
        <ele>1732.3252858909</ele>
        <time>2000-05-11T11:57:14.30</time>
      </trkpt>
      <trkpt lat="42.52258" lon="2.07689">
        <ele>1733.5065505262</ele>
        <time>2000-05-11T11:57:15.30</time>
      </trkpt>
      <trkpt lat="42.5226" lon="2.07688">
        <ele>1735.2857187962</ele>
        <time>2000-05-11T11:57:16.30</time>
      </trkpt>
      <trkpt lat="42.52262" lon="2.07687">
        <ele>1736.8036513215</ele>
        <time>2000-05-11T11:57:17.30</time>
      </trkpt>
      <trkpt lat="42.52263" lon="2.07688">
        <ele>1737.7240296826</ele>
        <time>2000-05-11T11:57:18.30</time>
      </trkpt>
      <trkpt lat="42.52264" lon="2.07688">
        <ele>1738.3495037206</ele>
        <time>2000-05-11T11:57:19.30</time>
      </trkpt>
      <trkpt lat="42.52267" lon="2.07688">
        <ele>1739.1052106053</ele>
        <time>2000-05-11T11:57:20.30</time>
      </trkpt>
      <trkpt lat="42.52268" lon="2.07688">
        <ele>1739.3180714944</ele>
        <time>2000-05-11T11:57:21.30</time>
      </trkpt>
      <trkpt lat="42.5227" lon="2.07688">
        <ele>1739.5792314954</ele>
        <time>2000-05-11T11:57:22.30</time>
      </trkpt>
      <trkpt lat="42.52271" lon="2.07688">
        <ele>1740.0965984749</ele>
        <time>2000-05-11T11:57:23.30</time>
      </trkpt>
      <trkpt lat="42.52272" lon="2.07688">
        <ele>1740.6725555466</ele>
        <time>2000-05-11T11:57:24.30</time>
      </trkpt>
      <trkpt lat="42.52273" lon="2.07689">
        <ele>1741.1831328124</ele>
        <time>2000-05-11T11:57:25.30</time>
      </trkpt>
      <trkpt lat="42.52274" lon="2.07689">
        <ele>1741.6117592849</ele>
        <time>2000-05-11T11:57:26.30</time>
      </trkpt>
      <trkpt lat="42.52276" lon="2.0769">
        <ele>1741.8829038145</ele>
        <time>2000-05-11T11:57:27.30</time>
      </trkpt>
      <trkpt lat="42.52276" lon="2.07691">
        <ele>1742.4124194128</ele>
        <time>2000-05-11T11:57:28.30</time>
      </trkpt>
      <trkpt lat="42.52278" lon="2.07691">
        <ele>1743.0257816577</ele>
        <time>2000-05-11T11:57:29.30</time>
      </trkpt>
      <trkpt lat="42.52279" lon="2.07691">
        <ele>1743.6866783807</ele>
        <time>2000-05-11T11:57:30.30</time>
      </trkpt>
      <trkpt lat="42.5228" lon="2.0769">
        <ele>1744.408180427</ele>
        <time>2000-05-11T11:57:31.30</time>
      </trkpt>
      <trkpt lat="42.52281" lon="2.07691">
        <ele>1744.9778153645</ele>
        <time>2000-05-11T11:57:32.30</time>
      </trkpt>
      <trkpt lat="42.52282" lon="2.07691">
        <ele>1745.7833938755</ele>
        <time>2000-05-11T11:57:33.30</time>
      </trkpt>
      <trkpt lat="42.52283" lon="2.07691">
        <ele>1746.4847007809</ele>
        <time>2000-05-11T11:57:34.30</time>
      </trkpt>
      <trkpt lat="42.52285" lon="2.07691">
        <ele>1746.5822286269</ele>
        <time>2000-05-11T11:57:35.30</time>
      </trkpt>
      <trkpt lat="42.52286" lon="2.07691">
        <ele>1746.105845499</ele>
        <time>2000-05-11T11:57:36.30</time>
      </trkpt>
      <trkpt lat="42.52288" lon="2.07691">
        <ele>1746.0992518157</ele>
        <time>2000-05-11T11:57:37.30</time>
      </trkpt>
      <trkpt lat="42.5229" lon="2.0769">
        <ele>1746.1050179476</ele>
        <time>2000-05-11T11:57:38.30</time>
      </trkpt>
      <trkpt lat="42.52291" lon="2.07691">
        <ele>1745.5938619535</ele>
        <time>2000-05-11T11:57:39.30</time>
      </trkpt>
      <trkpt lat="42.52293" lon="2.07692">
        <ele>1745.1875719499</ele>
        <time>2000-05-11T11:57:40.30</time>
      </trkpt>
      <trkpt lat="42.52294" lon="2.07692">
        <ele>1745.1115144668</ele>
        <time>2000-05-11T11:57:41.30</time>
      </trkpt>
      <trkpt lat="42.52294" lon="2.07693">
        <ele>1744.63469522</ele>
        <time>2000-05-11T11:57:42.30</time>
      </trkpt>
      <trkpt lat="42.52296" lon="2.07694">
        <ele>1743.8907722803</ele>
        <time>2000-05-11T11:57:43.30</time>
      </trkpt>
      <trkpt lat="42.52296" lon="2.07694">
        <ele>1744.0500779871</ele>
        <time>2000-05-11T11:57:44.30</time>
      </trkpt>
      <trkpt lat="42.52297" lon="2.07695">
        <ele>1744.4897228228</ele>
        <time>2000-05-11T11:57:45.30</time>
      </trkpt>
      <trkpt lat="42.52298" lon="2.07696">
        <ele>1745.0992943654</ele>
        <time>2000-05-11T11:57:46.30</time>
      </trkpt>
      <trkpt lat="42.52299" lon="2.07697">
        <ele>1745.6325858915</ele>
        <time>2000-05-11T11:57:47.30</time>
      </trkpt>
      <trkpt lat="42.52301" lon="2.07697">
        <ele>1745.9922901321</ele>
        <time>2000-05-11T11:57:48.30</time>
      </trkpt>
      <trkpt lat="42.52303" lon="2.07697">
        <ele>1745.9224294895</ele>
        <time>2000-05-11T11:57:49.30</time>
      </trkpt>
      <trkpt lat="42.52305" lon="2.07698">
        <ele>1745.3857075755</ele>
        <time>2000-05-11T11:57:50.30</time>
      </trkpt>
      <trkpt lat="42.52306" lon="2.07699">
        <ele>1745.2765327137</ele>
        <time>2000-05-11T11:57:51.30</time>
      </trkpt>
      <trkpt lat="42.52307" lon="2.07701">
        <ele>1746.0625226688</ele>
        <time>2000-05-11T11:57:52.30</time>
      </trkpt>
      <trkpt lat="42.52308" lon="2.07702">
        <ele>1747.1811296349</ele>
        <time>2000-05-11T11:57:53.30</time>
      </trkpt>
      <trkpt lat="42.52309" lon="2.07704">
        <ele>1748.2779649189</ele>
        <time>2000-05-11T11:57:54.30</time>
      </trkpt>
      <trkpt lat="42.5231" lon="2.07705">
        <ele>1749.9629924767</ele>
        <time>2000-05-11T11:57:55.30</time>
      </trkpt>
      <trkpt lat="42.52311" lon="2.07706">
        <ele>1750.9768076513</ele>
        <time>2000-05-11T11:57:56.30</time>
      </trkpt>
      <trkpt lat="42.52312" lon="2.07707">
        <ele>1750.8010832272</ele>
        <time>2000-05-11T11:57:57.30</time>
      </trkpt>
      <trkpt lat="42.52314" lon="2.07707">
        <ele>1749.895755126</ele>
        <time>2000-05-11T11:57:58.30</time>
      </trkpt>
      <trkpt lat="42.52314" lon="2.07707">
        <ele>1748.90828373</ele>
        <time>2000-05-11T11:57:59.30</time>
      </trkpt>
      <trkpt lat="42.52314" lon="2.07707">
        <ele>1747.6912642185</ele>
        <time>2000-05-11T11:58:00.30</time>
      </trkpt>
      <trkpt lat="42.52315" lon="2.07708">
        <ele>1746.3398018669</ele>
        <time>2000-05-11T11:58:01.30</time>
      </trkpt>
      <trkpt lat="42.52315" lon="2.07709">
        <ele>1745.2185233422</ele>
        <time>2000-05-11T11:58:02.30</time>
      </trkpt>
      <trkpt lat="42.52319" lon="2.0771">
        <ele>1744.3707643822</ele>
        <time>2000-05-11T11:58:03.27</time>
      </trkpt>
      <trkpt lat="42.52319" lon="2.0771">
        <ele>1743.8652560551</ele>
        <time>2000-05-11T11:58:04.27</time>
      </trkpt>
      <trkpt lat="42.52319" lon="2.07711">
        <ele>1743.5341915824</ele>
        <time>2000-05-11T11:58:05.27</time>
      </trkpt>
      <trkpt lat="42.52319" lon="2.07712">
        <ele>1743.1239366461</ele>
        <time>2000-05-11T11:58:06.27</time>
      </trkpt>
      <trkpt lat="42.5232" lon="2.07713">
        <ele>1742.9560458608</ele>
        <time>2000-05-11T11:58:07.27</time>
      </trkpt>
      <trkpt lat="42.52321" lon="2.07715">
        <ele>1743.1925475279</ele>
        <time>2000-05-11T11:58:08.27</time>
      </trkpt>
      <trkpt lat="42.52322" lon="2.07716">
        <ele>1742.677391951</ele>
        <time>2000-05-11T11:58:09.27</time>
      </trkpt>
      <trkpt lat="42.52323" lon="2.07718">
        <ele>1741.9536469426</ele>
        <time>2000-05-11T11:58:10.27</time>
      </trkpt>
      <trkpt lat="42.52324" lon="2.0772">
        <ele>1741.4030584922</ele>
        <time>2000-05-11T11:58:11.27</time>
      </trkpt>
      <trkpt lat="42.52324" lon="2.07721">
        <ele>1741.1835363794</ele>
        <time>2000-05-11T11:58:12.27</time>
      </trkpt>
      <trkpt lat="42.52325" lon="2.07722">
        <ele>1740.552258216</ele>
        <time>2000-05-11T11:58:13.27</time>
      </trkpt>
      <trkpt lat="42.52325" lon="2.07724">
        <ele>1739.9671460168</ele>
        <time>2000-05-11T11:58:14.27</time>
      </trkpt>
      <trkpt lat="42.52325" lon="2.07727">
        <ele>1739.0469620863</ele>
        <time>2000-05-11T11:58:15.27</time>
      </trkpt>
      <trkpt lat="42.52325" lon="2.07728">
        <ele>1738.2502882842</ele>
        <time>2000-05-11T11:58:16.27</time>
      </trkpt>
      <trkpt lat="42.52326" lon="2.0773">
        <ele>1737.1701408297</ele>
        <time>2000-05-11T11:58:17.27</time>
      </trkpt>
      <trkpt lat="42.52326" lon="2.07731">
        <ele>1736.4145801144</ele>
        <time>2000-05-11T11:58:18.27</time>
      </trkpt>
      <trkpt lat="42.52326" lon="2.07733">
        <ele>1736.0340004165</ele>
        <time>2000-05-11T11:58:19.27</time>
      </trkpt>
      <trkpt lat="42.52327" lon="2.07734">
        <ele>1735.5010255221</ele>
        <time>2000-05-11T11:58:20.27</time>
      </trkpt>
      <trkpt lat="42.52327" lon="2.07736">
        <ele>1734.7656328462</ele>
        <time>2000-05-11T11:58:21.27</time>
      </trkpt>
      <trkpt lat="42.52328" lon="2.07737">
        <ele>1734.0521405831</ele>
        <time>2000-05-11T11:58:22.27</time>
      </trkpt>
      <trkpt lat="42.52329" lon="2.07738">
        <ele>1733.6702918543</ele>
        <time>2000-05-11T11:58:23.27</time>
      </trkpt>
      <trkpt lat="42.52329" lon="2.07739">
        <ele>1733.4097878059</ele>
        <time>2000-05-11T11:58:24.27</time>
      </trkpt>
      <trkpt lat="42.52328" lon="2.0774">
        <ele>1733.8448630411</ele>
        <time>2000-05-11T11:58:25.27</time>
      </trkpt>
      <trkpt lat="42.52329" lon="2.07741">
        <ele>1734.0543460587</ele>
        <time>2000-05-11T11:58:26.27</time>
      </trkpt>
      <trkpt lat="42.52329" lon="2.07742">
        <ele>1733.9486837095</ele>
        <time>2000-05-11T11:58:27.27</time>
      </trkpt>
      <trkpt lat="42.52329" lon="2.07744">
        <ele>1733.4220356941</ele>
        <time>2000-05-11T11:58:28.27</time>
      </trkpt>
      <trkpt lat="42.52328" lon="2.07744">
        <ele>1732.7700827152</ele>
        <time>2000-05-11T11:58:29.27</time>
      </trkpt>
      <trkpt lat="42.52329" lon="2.07745">
        <ele>1731.8036348315</ele>
        <time>2000-05-11T11:58:30.27</time>
      </trkpt>
      <trkpt lat="42.52329" lon="2.07747">
        <ele>1731.4216327036</ele>
        <time>2000-05-11T11:58:31.27</time>
      </trkpt>
      <trkpt lat="42.52329" lon="2.07748">
        <ele>1731.2065454682</ele>
        <time>2000-05-11T11:58:32.27</time>
      </trkpt>
      <trkpt lat="42.5233" lon="2.07751">
        <ele>1730.934260853</ele>
        <time>2000-05-11T11:58:33.27</time>
      </trkpt>
      <trkpt lat="42.5233" lon="2.07753">
        <ele>1730.3727211975</ele>
        <time>2000-05-11T11:58:34.27</time>
      </trkpt>
      <trkpt lat="42.52329" lon="2.07755">
        <ele>1729.9358708417</ele>
        <time>2000-05-11T11:58:35.27</time>
      </trkpt>
      <trkpt lat="42.52327" lon="2.07758">
        <ele>1729.841919481</ele>
        <time>2000-05-11T11:58:36.27</time>
      </trkpt>
      <trkpt lat="42.52326" lon="2.07761">
        <ele>1730.4403268714</ele>
        <time>2000-05-11T11:58:37.27</time>
      </trkpt>
      <trkpt lat="42.52324" lon="2.07764">
        <ele>1732.2046177084</ele>
        <time>2000-05-11T11:58:38.27</time>
      </trkpt>
      <trkpt lat="42.52324" lon="2.07764">
        <ele>1734.2503834983</ele>
        <time>2000-05-11T11:58:39.27</time>
      </trkpt>
      <trkpt lat="42.52324" lon="2.07764">
        <ele>1736.3119881146</ele>
        <time>2000-05-11T11:58:40.27</time>
      </trkpt>
      <trkpt lat="42.52325" lon="2.07765">
        <ele>1737.9631309075</ele>
        <time>2000-05-11T11:58:41.27</time>
      </trkpt>
      <trkpt lat="42.52324" lon="2.07767">
        <ele>1739.134015847</ele>
        <time>2000-05-11T11:58:42.27</time>
      </trkpt>
      <trkpt lat="42.52324" lon="2.0777">
        <ele>1739.4258753348</ele>
        <time>2000-05-11T11:58:43.27</time>
      </trkpt>
      <trkpt lat="42.52323" lon="2.07772">
        <ele>1739.6782975215</ele>
        <time>2000-05-11T11:58:44.27</time>
      </trkpt>
      <trkpt lat="42.52324" lon="2.07774">
        <ele>1739.6084476033</ele>
        <time>2000-05-11T11:58:45.27</time>
      </trkpt>
      <trkpt lat="42.52325" lon="2.07776">
        <ele>1739.6289936801</ele>
        <time>2000-05-11T11:58:46.27</time>
      </trkpt>
      <trkpt lat="42.52326" lon="2.07778">
        <ele>1739.58398341</ele>
        <time>2000-05-11T11:58:47.27</time>
      </trkpt>
      <trkpt lat="42.52326" lon="2.07779">
        <ele>1738.9985387376</ele>
        <time>2000-05-11T11:58:48.27</time>
      </trkpt>
      <trkpt lat="42.52327" lon="2.07779">
        <ele>1738.4042449404</ele>
        <time>2000-05-11T11:58:49.27</time>
      </trkpt>
      <trkpt lat="42.52327" lon="2.07781">
        <ele>1737.9545570392</ele>
        <time>2000-05-11T11:58:50.27</time>
      </trkpt>
      <trkpt lat="42.52328" lon="2.07782">
        <ele>1737.5090585586</ele>
        <time>2000-05-11T11:58:51.27</time>
      </trkpt>
      <trkpt lat="42.52328" lon="2.07784">
        <ele>1737.0168253666</ele>
        <time>2000-05-11T11:58:52.27</time>
      </trkpt>
      <trkpt lat="42.52328" lon="2.07786">
        <ele>1736.9527498353</ele>
        <time>2000-05-11T11:58:53.27</time>
      </trkpt>
      <trkpt lat="42.52328" lon="2.07787">
        <ele>1737.0839669632</ele>
        <time>2000-05-11T11:58:54.27</time>
      </trkpt>
      <trkpt lat="42.52328" lon="2.07789">
        <ele>1737.500320089</ele>
        <time>2000-05-11T11:58:55.27</time>
      </trkpt>
      <trkpt lat="42.52328" lon="2.0779">
        <ele>1738.0408851644</ele>
        <time>2000-05-11T11:58:56.27</time>
      </trkpt>
      <trkpt lat="42.52329" lon="2.0779">
        <ele>1738.7181772862</ele>
        <time>2000-05-11T11:58:57.27</time>
      </trkpt>
      <trkpt lat="42.5233" lon="2.0779">
        <ele>1739.367625271</ele>
        <time>2000-05-11T11:58:58.27</time>
      </trkpt>
      <trkpt lat="42.52332" lon="2.07791">
        <ele>1739.88807173</ele>
        <time>2000-05-11T11:58:59.27</time>
      </trkpt>
      <trkpt lat="42.52335" lon="2.07789">
        <ele>1740.2644776512</ele>
        <time>2000-05-11T11:59:00.27</time>
      </trkpt>
      <trkpt lat="42.52336" lon="2.07788">
        <ele>1740.5620367013</ele>
        <time>2000-05-11T11:59:01.27</time>
      </trkpt>
      <trkpt lat="42.52337" lon="2.07787">
        <ele>1740.4728999196</ele>
        <time>2000-05-11T11:59:02.27</time>
      </trkpt>
      <trkpt lat="42.52338" lon="2.07786">
        <ele>1740.2540653406</ele>
        <time>2000-05-11T11:59:03.27</time>
      </trkpt>
      <trkpt lat="42.52339" lon="2.07786">
        <ele>1739.8578108603</ele>
        <time>2000-05-11T11:59:04.27</time>
      </trkpt>
      <trkpt lat="42.5234" lon="2.07785">
        <ele>1739.4673988095</ele>
        <time>2000-05-11T11:59:05.27</time>
      </trkpt>
      <trkpt lat="42.52341" lon="2.07783">
        <ele>1738.9965984073</ele>
        <time>2000-05-11T11:59:06.27</time>
      </trkpt>
      <trkpt lat="42.52342" lon="2.07782">
        <ele>1738.4187988792</ele>
        <time>2000-05-11T11:59:07.27</time>
      </trkpt>
      <trkpt lat="42.52343" lon="2.07781">
        <ele>1737.7141314387</ele>
        <time>2000-05-11T11:59:08.27</time>
      </trkpt>
      <trkpt lat="42.52343" lon="2.0778">
        <ele>1736.8210095495</ele>
        <time>2000-05-11T11:59:09.27</time>
      </trkpt>
      <trkpt lat="42.52344" lon="2.07779">
        <ele>1735.3295432117</ele>
        <time>2000-05-11T11:59:10.27</time>
      </trkpt>
      <trkpt lat="42.52344" lon="2.07779">
        <ele>1733.4578547452</ele>
        <time>2000-05-11T11:59:11.27</time>
      </trkpt>
      <trkpt lat="42.52344" lon="2.07777">
        <ele>1731.949308968</ele>
        <time>2000-05-11T11:59:12.27</time>
      </trkpt>
      <trkpt lat="42.52345" lon="2.07775">
        <ele>1730.8026031528</ele>
        <time>2000-05-11T11:59:13.27</time>
      </trkpt>
      <trkpt lat="42.52346" lon="2.07775">
        <ele>1729.8071621293</ele>
        <time>2000-05-11T11:59:14.27</time>
      </trkpt>
      <trkpt lat="42.52347" lon="2.07774">
        <ele>1729.3579657564</ele>
        <time>2000-05-11T11:59:15.27</time>
      </trkpt>
      <trkpt lat="42.52349" lon="2.07773">
        <ele>1729.4353754088</ele>
        <time>2000-05-11T11:59:16.27</time>
      </trkpt>
      <trkpt lat="42.52351" lon="2.07772">
        <ele>1729.4829064257</ele>
        <time>2000-05-11T11:59:17.27</time>
      </trkpt>
      <trkpt lat="42.52352" lon="2.0777">
        <ele>1729.2008204909</ele>
        <time>2000-05-11T11:59:18.27</time>
      </trkpt>
      <trkpt lat="42.52353" lon="2.07769">
        <ele>1729.1480664302</ele>
        <time>2000-05-11T11:59:19.27</time>
      </trkpt>
      <trkpt lat="42.52353" lon="2.07767">
        <ele>1729.1502491841</ele>
        <time>2000-05-11T11:59:20.27</time>
      </trkpt>
      <trkpt lat="42.52354" lon="2.07765">
        <ele>1728.8205389289</ele>
        <time>2000-05-11T11:59:21.27</time>
      </trkpt>
      <trkpt lat="42.52354" lon="2.07763">
        <ele>1728.4689732183</ele>
        <time>2000-05-11T11:59:22.27</time>
      </trkpt>
      <trkpt lat="42.52355" lon="2.07763">
        <ele>1728.2908124227</ele>
        <time>2000-05-11T11:59:23.27</time>
      </trkpt>
      <trkpt lat="42.52356" lon="2.07762">
        <ele>1728.1471611761</ele>
        <time>2000-05-11T11:59:24.27</time>
      </trkpt>
      <trkpt lat="42.52357" lon="2.07761">
        <ele>1727.9839021552</ele>
        <time>2000-05-11T11:59:25.27</time>
      </trkpt>
      <trkpt lat="42.52358" lon="2.07761">
        <ele>1727.7774787094</ele>
        <time>2000-05-11T11:59:26.27</time>
      </trkpt>
      <trkpt lat="42.52358" lon="2.07759">
        <ele>1727.730975417</ele>
        <time>2000-05-11T11:59:27.27</time>
      </trkpt>
      <trkpt lat="42.52359" lon="2.07758">
        <ele>1727.5205920741</ele>
        <time>2000-05-11T11:59:28.27</time>
      </trkpt>
      <trkpt lat="42.5236" lon="2.07755">
        <ele>1727.4507041859</ele>
        <time>2000-05-11T11:59:29.27</time>
      </trkpt>
      <trkpt lat="42.52361" lon="2.07754">
        <ele>1727.3724245679</ele>
        <time>2000-05-11T11:59:30.27</time>
      </trkpt>
      <trkpt lat="42.52363" lon="2.07754">
        <ele>1727.4761737514</ele>
        <time>2000-05-11T11:59:31.27</time>
      </trkpt>
      <trkpt lat="42.52363" lon="2.07753">
        <ele>1727.2487506466</ele>
        <time>2000-05-11T11:59:32.27</time>
      </trkpt>
      <trkpt lat="42.52363" lon="2.07752">
        <ele>1726.7885504277</ele>
        <time>2000-05-11T11:59:33.27</time>
      </trkpt>
      <trkpt lat="42.52363" lon="2.07751">
        <ele>1725.7472413624</ele>
        <time>2000-05-11T11:59:34.27</time>
      </trkpt>
      <trkpt lat="42.52363" lon="2.07751">
        <ele>1724.7031622536</ele>
        <time>2000-05-11T11:59:35.27</time>
      </trkpt>
      <trkpt lat="42.52364" lon="2.07749">
        <ele>1723.6427676365</ele>
        <time>2000-05-11T11:59:36.27</time>
      </trkpt>
      <trkpt lat="42.52365" lon="2.07747">
        <ele>1722.3614082927</ele>
        <time>2000-05-11T11:59:37.26</time>
      </trkpt>
      <trkpt lat="42.52365" lon="2.07746">
        <ele>1721.3926686911</ele>
        <time>2000-05-11T11:59:38.26</time>
      </trkpt>
      <trkpt lat="42.52366" lon="2.07746">
        <ele>1720.7593542449</ele>
        <time>2000-05-11T11:59:39.26</time>
      </trkpt>
      <trkpt lat="42.52367" lon="2.07746">
        <ele>1720.3176934084</ele>
        <time>2000-05-11T11:59:40.26</time>
      </trkpt>
      <trkpt lat="42.52369" lon="2.07745">
        <ele>1720.1333708623</ele>
        <time>2000-05-11T11:59:41.26</time>
      </trkpt>
      <trkpt lat="42.5237" lon="2.07745">
        <ele>1720.4667263817</ele>
        <time>2000-05-11T11:59:42.26</time>
      </trkpt>
      <trkpt lat="42.52372" lon="2.07743">
        <ele>1720.9421041794</ele>
        <time>2000-05-11T11:59:43.26</time>
      </trkpt>
      <trkpt lat="42.52372" lon="2.07742">
        <ele>1722.0492726978</ele>
        <time>2000-05-11T11:59:44.26</time>
      </trkpt>
      <trkpt lat="42.52373" lon="2.07741">
        <ele>1723.2421637323</ele>
        <time>2000-05-11T11:59:45.26</time>
      </trkpt>
      <trkpt lat="42.52374" lon="2.07741">
        <ele>1724.3873943334</ele>
        <time>2000-05-11T11:59:46.26</time>
      </trkpt>
      <trkpt lat="42.52375" lon="2.0774">
        <ele>1725.6107730556</ele>
        <time>2000-05-11T11:59:47.26</time>
      </trkpt>
      <trkpt lat="42.52377" lon="2.0774">
        <ele>1727.1127833297</ele>
        <time>2000-05-11T11:59:48.26</time>
      </trkpt>
      <trkpt lat="42.52379" lon="2.07739">
        <ele>1728.0353707815</ele>
        <time>2000-05-11T11:59:49.26</time>
      </trkpt>
      <trkpt lat="42.5238" lon="2.07738">
        <ele>1728.8622087091</ele>
        <time>2000-05-11T11:59:50.26</time>
      </trkpt>
      <trkpt lat="42.52381" lon="2.07739">
        <ele>1729.3846326929</ele>
        <time>2000-05-11T11:59:51.26</time>
      </trkpt>
      <trkpt lat="42.52382" lon="2.0774">
        <ele>1729.5344960157</ele>
        <time>2000-05-11T11:59:52.26</time>
      </trkpt>
      <trkpt lat="42.52383" lon="2.0774">
        <ele>1729.479944963</ele>
        <time>2000-05-11T11:59:53.26</time>
      </trkpt>
      <trkpt lat="42.52384" lon="2.0774">
        <ele>1729.864207319</ele>
        <time>2000-05-11T11:59:54.26</time>
      </trkpt>
      <trkpt lat="42.52385" lon="2.07739">
        <ele>1730.2784100275</ele>
        <time>2000-05-11T11:59:55.26</time>
      </trkpt>
      <trkpt lat="42.52386" lon="2.07739">
        <ele>1730.6086502247</ele>
        <time>2000-05-11T11:59:56.26</time>
      </trkpt>
      <trkpt lat="42.52387" lon="2.07739">
        <ele>1731.3367030781</ele>
        <time>2000-05-11T11:59:57.26</time>
      </trkpt>
      <trkpt lat="42.52387" lon="2.07739">
        <ele>1731.936158561</ele>
        <time>2000-05-11T11:59:58.26</time>
      </trkpt>
      <trkpt lat="42.52389" lon="2.07738">
        <ele>1732.1775395935</ele>
        <time>2000-05-11T11:59:59.25</time>
      </trkpt>
      <trkpt lat="42.52392" lon="2.07738">
        <ele>1732.3590453276</ele>
        <time>2000-05-11T12:00:00.25</time>
      </trkpt>
      <trkpt lat="42.52394" lon="2.07738">
        <ele>1732.708960584</ele>
        <time>2000-05-11T12:00:01.25</time>
      </trkpt>
      <trkpt lat="42.52396" lon="2.07738">
        <ele>1733.2494983537</ele>
        <time>2000-05-11T12:00:02.25</time>
      </trkpt>
      <trkpt lat="42.52398" lon="2.07739">
        <ele>1734.1656415287</ele>
        <time>2000-05-11T12:00:03.25</time>
      </trkpt>
      <trkpt lat="42.52399" lon="2.07739">
        <ele>1735.1382270265</ele>
        <time>2000-05-11T12:00:04.25</time>
      </trkpt>
      <trkpt lat="42.52402" lon="2.0774">
        <ele>1736.1661342217</ele>
        <time>2000-05-11T12:00:05.25</time>
      </trkpt>
      <trkpt lat="42.52404" lon="2.07742">
        <ele>1737.3827645879</ele>
        <time>2000-05-11T12:00:06.25</time>
      </trkpt>
      <trkpt lat="42.52406" lon="2.07744">
        <ele>1737.350421123</ele>
        <time>2000-05-11T12:00:07.25</time>
      </trkpt>
      <trkpt lat="42.52406" lon="2.07746">
        <ele>1736.67923746</ele>
        <time>2000-05-11T12:00:08.25</time>
      </trkpt>
      <trkpt lat="42.52408" lon="2.07746">
        <ele>1736.2802068898</ele>
        <time>2000-05-11T12:00:09.25</time>
      </trkpt>
      <trkpt lat="42.52408" lon="2.07747">
        <ele>1735.4188871315</ele>
        <time>2000-05-11T12:00:10.25</time>
      </trkpt>
      <trkpt lat="42.52409" lon="2.07748">
        <ele>1734.2424947988</ele>
        <time>2000-05-11T12:00:11.25</time>
      </trkpt>
      <trkpt lat="42.52409" lon="2.0775">
        <ele>1733.9260314638</ele>
        <time>2000-05-11T12:00:12.25</time>
      </trkpt>
      <trkpt lat="42.5241" lon="2.07751">
        <ele>1733.933091422</ele>
        <time>2000-05-11T12:00:13.25</time>
      </trkpt>
      <trkpt lat="42.52411" lon="2.07751">
        <ele>1733.5037604718</ele>
        <time>2000-05-11T12:00:14.25</time>
      </trkpt>
      <trkpt lat="42.52412" lon="2.07752">
        <ele>1733.5445554417</ele>
        <time>2000-05-11T12:00:15.25</time>
      </trkpt>
      <trkpt lat="42.52413" lon="2.07753">
        <ele>1733.9518339572</ele>
        <time>2000-05-11T12:00:16.25</time>
      </trkpt>
      <trkpt lat="42.52415" lon="2.07753">
        <ele>1734.568240766</ele>
        <time>2000-05-11T12:00:17.25</time>
      </trkpt>
      <trkpt lat="42.52415" lon="2.07754">
        <ele>1734.9362969233</ele>
        <time>2000-05-11T12:00:18.25</time>
      </trkpt>
      <trkpt lat="42.52415" lon="2.07754">
        <ele>1735.3169933809</ele>
        <time>2000-05-11T12:00:19.25</time>
      </trkpt>
      <trkpt lat="42.52415" lon="2.07754">
        <ele>1735.5415006034</ele>
        <time>2000-05-11T12:00:20.25</time>
      </trkpt>
      <trkpt lat="42.52417" lon="2.07753">
        <ele>1735.5234280095</ele>
        <time>2000-05-11T12:00:21.25</time>
      </trkpt>
      <trkpt lat="42.52419" lon="2.07753">
        <ele>1735.0937952811</ele>
        <time>2000-05-11T12:00:22.25</time>
      </trkpt>
      <trkpt lat="42.5242" lon="2.07754">
        <ele>1734.8338863216</ele>
        <time>2000-05-11T12:00:23.25</time>
      </trkpt>
      <trkpt lat="42.52421" lon="2.07755">
        <ele>1734.9837134605</ele>
        <time>2000-05-11T12:00:24.25</time>
      </trkpt>
      <trkpt lat="42.52422" lon="2.07755">
        <ele>1735.145765784</ele>
        <time>2000-05-11T12:00:25.25</time>
      </trkpt>
      <trkpt lat="42.52424" lon="2.07756">
        <ele>1735.5454321193</ele>
        <time>2000-05-11T12:00:26.25</time>
      </trkpt>
      <trkpt lat="42.52425" lon="2.07756">
        <ele>1736.7082741078</ele>
        <time>2000-05-11T12:00:27.25</time>
      </trkpt>
      <trkpt lat="42.52426" lon="2.07757">
        <ele>1738.095887002</ele>
        <time>2000-05-11T12:00:28.25</time>
      </trkpt>
      <trkpt lat="42.52427" lon="2.07758">
        <ele>1738.9477760892</ele>
        <time>2000-05-11T12:00:29.25</time>
      </trkpt>
      <trkpt lat="42.52429" lon="2.07758">
        <ele>1739.5205659829</ele>
        <time>2000-05-11T12:00:30.25</time>
      </trkpt>
      <trkpt lat="42.5243" lon="2.07757">
        <ele>1739.771473648</ele>
        <time>2000-05-11T12:00:31.25</time>
      </trkpt>
      <trkpt lat="42.52431" lon="2.07757">
        <ele>1738.977334016</ele>
        <time>2000-05-11T12:00:32.25</time>
      </trkpt>
      <trkpt lat="42.52431" lon="2.07757">
        <ele>1737.9481905982</ele>
        <time>2000-05-11T12:00:33.25</time>
      </trkpt>
      <trkpt lat="42.52431" lon="2.07758">
        <ele>1737.2120473729</ele>
        <time>2000-05-11T12:00:34.25</time>
      </trkpt>
      <trkpt lat="42.5243" lon="2.0776">
        <ele>1736.3794523252</ele>
        <time>2000-05-11T12:00:35.25</time>
      </trkpt>
      <trkpt lat="42.5243" lon="2.0776">
        <ele>1735.6443930352</ele>
        <time>2000-05-11T12:00:36.25</time>
      </trkpt>
      <trkpt lat="42.52429" lon="2.07761">
        <ele>1735.3915066384</ele>
        <time>2000-05-11T12:00:37.25</time>
      </trkpt>
      <trkpt lat="42.52429" lon="2.07761">
        <ele>1735.1671915039</ele>
        <time>2000-05-11T12:00:38.25</time>
      </trkpt>
      <trkpt lat="42.52429" lon="2.07761">
        <ele>1735.1690726845</ele>
        <time>2000-05-11T12:00:39.25</time>
      </trkpt>
      <trkpt lat="42.52431" lon="2.0776">
        <ele>1735.8153220991</ele>
        <time>2000-05-11T12:00:40.25</time>
      </trkpt>
      <trkpt lat="42.52432" lon="2.0776">
        <ele>1736.2003401129</ele>
        <time>2000-05-11T12:00:41.25</time>
      </trkpt>
      <trkpt lat="42.52432" lon="2.0776">
        <ele>1736.5122647295</ele>
        <time>2000-05-11T12:00:42.25</time>
      </trkpt>
      <trkpt lat="42.52433" lon="2.07761">
        <ele>1736.8280125422</ele>
        <time>2000-05-11T12:00:43.25</time>
      </trkpt>
      <trkpt lat="42.52433" lon="2.07762">
        <ele>1736.6666570351</ele>
        <time>2000-05-11T12:00:44.25</time>
      </trkpt>
      <trkpt lat="42.52433" lon="2.07763">
        <ele>1736.1686655169</ele>
        <time>2000-05-11T12:00:45.25</time>
      </trkpt>
      <trkpt lat="42.52433" lon="2.07765">
        <ele>1735.9463642534</ele>
        <time>2000-05-11T12:00:46.26</time>
      </trkpt>
      <trkpt lat="42.52433" lon="2.07765">
        <ele>1735.825158174</ele>
        <time>2000-05-11T12:00:47.26</time>
      </trkpt>
      <trkpt lat="42.52435" lon="2.07763">
        <ele>1735.5343968751</ele>
        <time>2000-05-11T12:00:48.25</time>
      </trkpt>
      <trkpt lat="42.52436" lon="2.07763">
        <ele>1735.3291450242</ele>
        <time>2000-05-11T12:00:49.25</time>
      </trkpt>
      <trkpt lat="42.52436" lon="2.07764">
        <ele>1735.5107244331</ele>
        <time>2000-05-11T12:00:50.25</time>
      </trkpt>
      <trkpt lat="42.52437" lon="2.07764">
        <ele>1735.7785354048</ele>
        <time>2000-05-11T12:00:51.25</time>
      </trkpt>
      <trkpt lat="42.52438" lon="2.07763">
        <ele>1735.865770494</ele>
        <time>2000-05-11T12:00:52.25</time>
      </trkpt>
      <trkpt lat="42.52438" lon="2.07763">
        <ele>1736.1187376065</ele>
        <time>2000-05-11T12:00:53.25</time>
      </trkpt>
      <trkpt lat="42.52439" lon="2.07764">
        <ele>1736.3087969147</ele>
        <time>2000-05-11T12:00:54.25</time>
      </trkpt>
      <trkpt lat="42.5244" lon="2.07764">
        <ele>1735.6978452934</ele>
        <time>2000-05-11T12:00:55.25</time>
      </trkpt>
      <trkpt lat="42.5244" lon="2.07764">
        <ele>1734.7624097263</ele>
        <time>2000-05-11T12:00:56.25</time>
      </trkpt>
      <trkpt lat="42.52441" lon="2.07764">
        <ele>1734.1864535891</ele>
        <time>2000-05-11T12:00:57.26</time>
      </trkpt>
      <trkpt lat="42.52441" lon="2.07764">
        <ele>1733.6104974518</ele>
        <time>2000-05-11T12:00:58.26</time>
      </trkpt>
      <trkpt lat="42.52442" lon="2.07764">
        <ele>1733.1891966771</ele>
        <time>2000-05-11T12:00:59.26</time>
      </trkpt>
      <trkpt lat="42.52442" lon="2.07764">
        <ele>1733.2376691803</ele>
        <time>2000-05-11T12:01:00.26</time>
      </trkpt>
      <trkpt lat="42.52443" lon="2.07766">
        <ele>1734.2848562039</ele>
        <time>2000-05-11T12:01:01.25</time>
      </trkpt>
      <trkpt lat="42.52443" lon="2.07766">
        <ele>1735.1531396803</ele>
        <time>2000-05-11T12:01:02.25</time>
      </trkpt>
      <trkpt lat="42.52442" lon="2.07767">
        <ele>1736.0093713213</ele>
        <time>2000-05-11T12:01:03.28</time>
      </trkpt>
      <trkpt lat="42.52442" lon="2.07767">
        <ele>1736.7722404771</ele>
        <time>2000-05-11T12:01:04.28</time>
      </trkpt>
      <trkpt lat="42.52442" lon="2.07765">
        <ele>1737.7882767452</ele>
        <time>2000-05-11T12:01:05.26</time>
      </trkpt>
      <trkpt lat="42.52442" lon="2.07764">
        <ele>1738.2976712566</ele>
        <time>2000-05-11T12:01:06.26</time>
      </trkpt>
      <trkpt lat="42.52442" lon="2.07763">
        <ele>1738.5051158439</ele>
        <time>2000-05-11T12:01:07.28</time>
      </trkpt>
      <trkpt lat="42.52442" lon="2.07762">
        <ele>1739.0167438395</ele>
        <time>2000-05-11T12:01:08.28</time>
      </trkpt>
      <trkpt lat="42.5244" lon="2.0776">
        <ele>1740.0510808213</ele>
        <time>2000-05-11T12:01:09.31</time>
      </trkpt>
      <trkpt lat="42.5244" lon="2.07759">
        <ele>1740.8721941335</ele>
        <time>2000-05-11T12:01:10.31</time>
      </trkpt>
      <trkpt lat="42.52439" lon="2.07758">
        <ele>1741.5948748529</ele>
        <time>2000-05-11T12:01:11.31</time>
      </trkpt>
      <trkpt lat="42.52439" lon="2.07758">
        <ele>1742.6195054963</ele>
        <time>2000-05-11T12:01:12.31</time>
      </trkpt>
      <trkpt lat="42.52438" lon="2.07757">
        <ele>1743.5187856799</ele>
        <time>2000-05-11T12:01:13.34</time>
      </trkpt>
      <trkpt lat="42.52438" lon="2.07757">
        <ele>1743.8953568773</ele>
        <time>2000-05-11T12:01:14.34</time>
      </trkpt>
      <trkpt lat="42.5244" lon="2.07755">
        <ele>1744.1357747555</ele>
        <time>2000-05-11T12:01:15.30</time>
      </trkpt>
      <trkpt lat="42.52441" lon="2.07755">
        <ele>1744.0762496848</ele>
        <time>2000-05-11T12:01:16.30</time>
      </trkpt>
      <trkpt lat="42.52441" lon="2.07754">
        <ele>1743.9146910667</ele>
        <time>2000-05-11T12:01:17.32</time>
      </trkpt>
      <trkpt lat="42.52442" lon="2.07754">
        <ele>1743.5450938035</ele>
        <time>2000-05-11T12:01:18.32</time>
      </trkpt>
      <trkpt lat="42.52444" lon="2.07753">
        <ele>1743.357366089</ele>
        <time>2000-05-11T12:01:19.32</time>
      </trkpt>
      <trkpt lat="42.52445" lon="2.07753">
        <ele>1743.5889457012</ele>
        <time>2000-05-11T12:01:20.32</time>
      </trkpt>
      <trkpt lat="42.52446" lon="2.07753">
        <ele>1743.9225885358</ele>
        <time>2000-05-11T12:01:21.32</time>
      </trkpt>
      <trkpt lat="42.52447" lon="2.07752">
        <ele>1744.0397995489</ele>
        <time>2000-05-11T12:01:22.32</time>
      </trkpt>
      <trkpt lat="42.52448" lon="2.0775">
        <ele>1743.9040647354</ele>
        <time>2000-05-11T12:01:23.32</time>
      </trkpt>
      <trkpt lat="42.52448" lon="2.0775">
        <ele>1743.2612299062</ele>
        <time>2000-05-11T12:01:24.32</time>
      </trkpt>
      <trkpt lat="42.52449" lon="2.07749">
        <ele>1742.1442426758</ele>
        <time>2000-05-11T12:01:25.32</time>
      </trkpt>
      <trkpt lat="42.5245" lon="2.07748">
        <ele>1740.970854087</ele>
        <time>2000-05-11T12:01:26.32</time>
      </trkpt>
      <trkpt lat="42.52451" lon="2.07746">
        <ele>1740.2218508692</ele>
        <time>2000-05-11T12:01:27.32</time>
      </trkpt>
      <trkpt lat="42.52451" lon="2.07746">
        <ele>1739.7670510102</ele>
        <time>2000-05-11T12:01:28.32</time>
      </trkpt>
      <trkpt lat="42.52451" lon="2.07745">
        <ele>1739.4383928649</ele>
        <time>2000-05-11T12:01:29.32</time>
      </trkpt>
      <trkpt lat="42.52452" lon="2.07744">
        <ele>1738.9470693134</ele>
        <time>2000-05-11T12:01:30.32</time>
      </trkpt>
      <trkpt lat="42.52453" lon="2.07744">
        <ele>1738.3295754224</ele>
        <time>2000-05-11T12:01:31.32</time>
      </trkpt>
      <trkpt lat="42.52454" lon="2.07743">
        <ele>1737.5847314086</ele>
        <time>2000-05-11T12:01:32.32</time>
      </trkpt>
      <trkpt lat="42.52456" lon="2.07743">
        <ele>1737.5154948616</ele>
        <time>2000-05-11T12:01:33.32</time>
      </trkpt>
      <trkpt lat="42.52456" lon="2.07742">
        <ele>1737.6663757717</ele>
        <time>2000-05-11T12:01:34.32</time>
      </trkpt>
      <trkpt lat="42.52457" lon="2.07742">
        <ele>1737.9228980031</ele>
        <time>2000-05-11T12:01:35.32</time>
      </trkpt>
      <trkpt lat="42.52458" lon="2.07741">
        <ele>1738.1601067593</ele>
        <time>2000-05-11T12:01:36.32</time>
      </trkpt>
      <trkpt lat="42.52459" lon="2.0774">
        <ele>1737.9399852391</ele>
        <time>2000-05-11T12:01:37.32</time>
      </trkpt>
      <trkpt lat="42.5246" lon="2.07738">
        <ele>1736.93477489</ele>
        <time>2000-05-11T12:01:38.32</time>
      </trkpt>
      <trkpt lat="42.52461" lon="2.07737">
        <ele>1735.8329333575</ele>
        <time>2000-05-11T12:01:39.32</time>
      </trkpt>
      <trkpt lat="42.52462" lon="2.07737">
        <ele>1734.7226915717</ele>
        <time>2000-05-11T12:01:40.32</time>
      </trkpt>
      <trkpt lat="42.52463" lon="2.07737">
        <ele>1733.602367715</ele>
        <time>2000-05-11T12:01:41.32</time>
      </trkpt>
      <trkpt lat="42.52463" lon="2.07736">
        <ele>1732.8934023334</ele>
        <time>2000-05-11T12:01:42.32</time>
      </trkpt>
      <trkpt lat="42.52463" lon="2.07736">
        <ele>1732.2939183138</ele>
        <time>2000-05-11T12:01:43.32</time>
      </trkpt>
      <trkpt lat="42.52464" lon="2.07734">
        <ele>1731.1091527894</ele>
        <time>2000-05-11T12:01:44.34</time>
      </trkpt>
      <trkpt lat="42.52465" lon="2.07733">
        <ele>1729.7473386953</ele>
        <time>2000-05-11T12:01:45.34</time>
      </trkpt>
      <trkpt lat="42.52466" lon="2.07732">
        <ele>1728.3977648828</ele>
        <time>2000-05-11T12:01:46.34</time>
      </trkpt>
      <trkpt lat="42.52466" lon="2.07732">
        <ele>1726.714695234</ele>
        <time>2000-05-11T12:01:47.34</time>
      </trkpt>
      <trkpt lat="42.52465" lon="2.07731">
        <ele>1724.7985392792</ele>
        <time>2000-05-11T12:01:48.34</time>
      </trkpt>
      <trkpt lat="42.52464" lon="2.0773">
        <ele>1722.9720656903</ele>
        <time>2000-05-11T12:01:49.34</time>
      </trkpt>
      <trkpt lat="42.52465" lon="2.07727">
        <ele>1722.1397898495</ele>
        <time>2000-05-11T12:01:50.34</time>
      </trkpt>
      <trkpt lat="42.52465" lon="2.07724">
        <ele>1721.782435796</ele>
        <time>2000-05-11T12:01:51.34</time>
      </trkpt>
      <trkpt lat="42.52466" lon="2.07724">
        <ele>1721.4031253779</ele>
        <time>2000-05-11T12:01:52.34</time>
      </trkpt>
      <trkpt lat="42.52466" lon="2.07723">
        <ele>1721.1033014352</ele>
        <time>2000-05-11T12:01:53.34</time>
      </trkpt>
      <trkpt lat="42.52467" lon="2.07722">
        <ele>1721.358971918</ele>
        <time>2000-05-11T12:01:54.34</time>
      </trkpt>
      <trkpt lat="42.5247" lon="2.07722">
        <ele>1721.3496820435</ele>
        <time>2000-05-11T12:01:55.34</time>
      </trkpt>
      <trkpt lat="42.5247" lon="2.07722">
        <ele>1721.0932304287</ele>
        <time>2000-05-11T12:01:56.34</time>
      </trkpt>
      <trkpt lat="42.5247" lon="2.07721">
        <ele>1721.2174639683</ele>
        <time>2000-05-11T12:01:57.34</time>
      </trkpt>
      <trkpt lat="42.5247" lon="2.07721">
        <ele>1721.4952973386</ele>
        <time>2000-05-11T12:01:58.34</time>
      </trkpt>
      <trkpt lat="42.52471" lon="2.07719">
        <ele>1722.2635640278</ele>
        <time>2000-05-11T12:01:59.38</time>
      </trkpt>
      <trkpt lat="42.52472" lon="2.07717">
        <ele>1723.2220552539</ele>
        <time>2000-05-11T12:02:00.38</time>
      </trkpt>
      <trkpt lat="42.52471" lon="2.07716">
        <ele>1723.9749259837</ele>
        <time>2000-05-11T12:02:01.38</time>
      </trkpt>
      <trkpt lat="42.52472" lon="2.07715">
        <ele>1724.8442943873</ele>
        <time>2000-05-11T12:02:02.38</time>
      </trkpt>
      <trkpt lat="42.52472" lon="2.07714">
        <ele>1725.340342138</ele>
        <time>2000-05-11T12:02:03.38</time>
      </trkpt>
      <trkpt lat="42.52472" lon="2.07711">
        <ele>1725.5398105662</ele>
        <time>2000-05-11T12:02:04.38</time>
      </trkpt>
      <trkpt lat="42.52473" lon="2.07709">
        <ele>1724.9446660582</ele>
        <time>2000-05-11T12:02:05.38</time>
      </trkpt>
      <trkpt lat="42.52474" lon="2.07708">
        <ele>1724.4095776189</ele>
        <time>2000-05-11T12:02:06.38</time>
      </trkpt>
      <trkpt lat="42.52475" lon="2.07708">
        <ele>1723.8024042809</ele>
        <time>2000-05-11T12:02:07.38</time>
      </trkpt>
      <trkpt lat="42.52476" lon="2.07707">
        <ele>1723.4567641454</ele>
        <time>2000-05-11T12:02:08.38</time>
      </trkpt>
      <trkpt lat="42.52476" lon="2.07705">
        <ele>1722.6563102741</ele>
        <time>2000-05-11T12:02:09.38</time>
      </trkpt>
      <trkpt lat="42.52476" lon="2.07704">
        <ele>1722.3499108652</ele>
        <time>2000-05-11T12:02:10.38</time>
      </trkpt>
      <trkpt lat="42.52477" lon="2.07703">
        <ele>1722.2014132412</ele>
        <time>2000-05-11T12:02:11.38</time>
      </trkpt>
      <trkpt lat="42.52477" lon="2.07703">
        <ele>1722.0506718107</ele>
        <time>2000-05-11T12:02:12.38</time>
      </trkpt>
      <trkpt lat="42.52478" lon="2.07703">
        <ele>1721.6980432976</ele>
        <time>2000-05-11T12:02:13.40</time>
      </trkpt>
      <trkpt lat="42.52479" lon="2.07702">
        <ele>1721.5425698388</ele>
        <time>2000-05-11T12:02:14.40</time>
      </trkpt>
      <trkpt lat="42.52479" lon="2.07699">
        <ele>1721.6264473669</ele>
        <time>2000-05-11T12:02:15.40</time>
      </trkpt>
      <trkpt lat="42.52479" lon="2.07698">
        <ele>1721.7571019176</ele>
        <time>2000-05-11T12:02:16.40</time>
      </trkpt>
      <trkpt lat="42.5248" lon="2.07696">
        <ele>1722.2931828741</ele>
        <time>2000-05-11T12:02:17.40</time>
      </trkpt>
      <trkpt lat="42.5248" lon="2.07694">
        <ele>1723.4666512938</ele>
        <time>2000-05-11T12:02:18.40</time>
      </trkpt>
      <trkpt lat="42.52481" lon="2.07693">
        <ele>1724.8313536547</ele>
        <time>2000-05-11T12:02:19.40</time>
      </trkpt>
      <trkpt lat="42.52481" lon="2.07693">
        <ele>1725.6113361945</ele>
        <time>2000-05-11T12:02:20.40</time>
      </trkpt>
      <trkpt lat="42.52482" lon="2.07692">
        <ele>1726.5131298982</ele>
        <time>2000-05-11T12:02:21.40</time>
      </trkpt>
      <trkpt lat="42.52482" lon="2.07691">
        <ele>1726.9491134888</ele>
        <time>2000-05-11T12:02:22.40</time>
      </trkpt>
      <trkpt lat="42.52482" lon="2.07689">
        <ele>1727.1720915778</ele>
        <time>2000-05-11T12:02:23.40</time>
      </trkpt>
      <trkpt lat="42.52482" lon="2.07688">
        <ele>1727.4794910504</ele>
        <time>2000-05-11T12:02:24.40</time>
      </trkpt>
      <trkpt lat="42.52483" lon="2.07687">
        <ele>1727.7045339713</ele>
        <time>2000-05-11T12:02:25.40</time>
      </trkpt>
      <trkpt lat="42.52483" lon="2.07685">
        <ele>1727.53809283</ele>
        <time>2000-05-11T12:02:26.40</time>
      </trkpt>
      <trkpt lat="42.52485" lon="2.07684">
        <ele>1727.8676072603</ele>
        <time>2000-05-11T12:02:27.40</time>
      </trkpt>
      <trkpt lat="42.52486" lon="2.07682">
        <ele>1728.6136979535</ele>
        <time>2000-05-11T12:02:28.40</time>
      </trkpt>
      <trkpt lat="42.52486" lon="2.07681">
        <ele>1729.3350340618</ele>
        <time>2000-05-11T12:02:29.40</time>
      </trkpt>
      <trkpt lat="42.52487" lon="2.0768">
        <ele>1730.0761194829</ele>
        <time>2000-05-11T12:02:30.40</time>
      </trkpt>
      <trkpt lat="42.52488" lon="2.0768">
        <ele>1730.9733193047</ele>
        <time>2000-05-11T12:02:31.40</time>
      </trkpt>
      <trkpt lat="42.52488" lon="2.07678">
        <ele>1731.2987331292</ele>
        <time>2000-05-11T12:02:32.40</time>
      </trkpt>
      <trkpt lat="42.52489" lon="2.07678">
        <ele>1731.0281393746</ele>
        <time>2000-05-11T12:02:33.40</time>
      </trkpt>
      <trkpt lat="42.52489" lon="2.07677">
        <ele>1730.5381342886</ele>
        <time>2000-05-11T12:02:34.40</time>
      </trkpt>
      <trkpt lat="42.52489" lon="2.07676">
        <ele>1730.0207996579</ele>
        <time>2000-05-11T12:02:35.40</time>
      </trkpt>
      <trkpt lat="42.5249" lon="2.07675">
        <ele>1729.6309642088</ele>
        <time>2000-05-11T12:02:36.40</time>
      </trkpt>
      <trkpt lat="42.5249" lon="2.07674">
        <ele>1729.4583811691</ele>
        <time>2000-05-11T12:02:37.40</time>
      </trkpt>
      <trkpt lat="42.52491" lon="2.07673">
        <ele>1729.4311539548</ele>
        <time>2000-05-11T12:02:38.40</time>
      </trkpt>
      <trkpt lat="42.52491" lon="2.07671">
        <ele>1729.5242845161</ele>
        <time>2000-05-11T12:02:39.40</time>
      </trkpt>
      <trkpt lat="42.52491" lon="2.0767">
        <ele>1729.818392059</ele>
        <time>2000-05-11T12:02:40.40</time>
      </trkpt>
      <trkpt lat="42.52492" lon="2.07668">
        <ele>1729.9226259254</ele>
        <time>2000-05-11T12:02:41.40</time>
      </trkpt>
      <trkpt lat="42.52492" lon="2.07667">
        <ele>1729.905902868</ele>
        <time>2000-05-11T12:02:42.40</time>
      </trkpt>
      <trkpt lat="42.52492" lon="2.07665">
        <ele>1729.7411297845</ele>
        <time>2000-05-11T12:02:43.40</time>
      </trkpt>
      <trkpt lat="42.52493" lon="2.07664">
        <ele>1729.1127044749</ele>
        <time>2000-05-11T12:02:44.40</time>
      </trkpt>
      <trkpt lat="42.52493" lon="2.07663">
        <ele>1728.024405775</ele>
        <time>2000-05-11T12:02:45.40</time>
      </trkpt>
      <trkpt lat="42.52494" lon="2.07662">
        <ele>1727.0873472368</ele>
        <time>2000-05-11T12:02:46.40</time>
      </trkpt>
      <trkpt lat="42.52493" lon="2.07661">
        <ele>1726.1007009048</ele>
        <time>2000-05-11T12:02:47.40</time>
      </trkpt>
      <trkpt lat="42.52493" lon="2.0766">
        <ele>1724.9767918428</ele>
        <time>2000-05-11T12:02:48.40</time>
      </trkpt>
      <trkpt lat="42.52494" lon="2.07659">
        <ele>1724.0348698407</ele>
        <time>2000-05-11T12:02:49.40</time>
      </trkpt>
      <trkpt lat="42.52494" lon="2.07657">
        <ele>1723.5005356243</ele>
        <time>2000-05-11T12:02:50.40</time>
      </trkpt>
      <trkpt lat="42.52494" lon="2.07656">
        <ele>1722.7590107057</ele>
        <time>2000-05-11T12:02:51.40</time>
      </trkpt>
      <trkpt lat="42.52494" lon="2.07654">
        <ele>1722.185697603</ele>
        <time>2000-05-11T12:02:52.40</time>
      </trkpt>
      <trkpt lat="42.52494" lon="2.07652">
        <ele>1722.054681474</ele>
        <time>2000-05-11T12:02:53.40</time>
      </trkpt>
      <trkpt lat="42.52494" lon="2.0765">
        <ele>1722.1463319173</ele>
        <time>2000-05-11T12:02:54.40</time>
      </trkpt>
      <trkpt lat="42.52494" lon="2.07649">
        <ele>1722.4194496833</ele>
        <time>2000-05-11T12:02:55.40</time>
      </trkpt>
      <trkpt lat="42.52494" lon="2.07649">
        <ele>1722.8653366024</ele>
        <time>2000-05-11T12:02:56.40</time>
      </trkpt>
      <trkpt lat="42.52495" lon="2.07648">
        <ele>1723.528958766</ele>
        <time>2000-05-11T12:02:57.40</time>
      </trkpt>
      <trkpt lat="42.52495" lon="2.07646">
        <ele>1723.6822016325</ele>
        <time>2000-05-11T12:02:58.40</time>
      </trkpt>
      <trkpt lat="42.52495" lon="2.07644">
        <ele>1723.7272791974</ele>
        <time>2000-05-11T12:02:59.40</time>
      </trkpt>
      <trkpt lat="42.52495" lon="2.07643">
        <ele>1723.4062974425</ele>
        <time>2000-05-11T12:03:00.40</time>
      </trkpt>
      <trkpt lat="42.52496" lon="2.07643">
        <ele>1722.9601371763</ele>
        <time>2000-05-11T12:03:01.40</time>
      </trkpt>
      <trkpt lat="42.52496" lon="2.07642">
        <ele>1722.2625207804</ele>
        <time>2000-05-11T12:03:02.40</time>
      </trkpt>
      <trkpt lat="42.52497" lon="2.0764">
        <ele>1722.15089359</ele>
        <time>2000-05-11T12:03:03.40</time>
      </trkpt>
      <trkpt lat="42.52498" lon="2.07638">
        <ele>1722.7339434106</ele>
        <time>2000-05-11T12:03:04.40</time>
      </trkpt>
      <trkpt lat="42.52499" lon="2.07637">
        <ele>1723.5333577804</ele>
        <time>2000-05-11T12:03:05.40</time>
      </trkpt>
      <trkpt lat="42.52499" lon="2.07637">
        <ele>1724.4579506615</ele>
        <time>2000-05-11T12:03:06.40</time>
      </trkpt>
      <trkpt lat="42.52498" lon="2.07634">
        <ele>1725.6422887191</ele>
        <time>2000-05-11T12:03:07.40</time>
      </trkpt>
      <trkpt lat="42.52498" lon="2.07632">
        <ele>1726.5174424881</ele>
        <time>2000-05-11T12:03:08.40</time>
      </trkpt>
      <trkpt lat="42.52498" lon="2.07631">
        <ele>1726.7160358515</ele>
        <time>2000-05-11T12:03:09.40</time>
      </trkpt>
      <trkpt lat="42.52497" lon="2.07629">
        <ele>1726.5791902509</ele>
        <time>2000-05-11T12:03:10.40</time>
      </trkpt>
      <trkpt lat="42.52497" lon="2.07627">
        <ele>1725.9837252978</ele>
        <time>2000-05-11T12:03:11.40</time>
      </trkpt>
      <trkpt lat="42.52497" lon="2.07624">
        <ele>1724.9992467018</ele>
        <time>2000-05-11T12:03:12.40</time>
      </trkpt>
      <trkpt lat="42.52498" lon="2.07623">
        <ele>1724.2441798415</ele>
        <time>2000-05-11T12:03:13.40</time>
      </trkpt>
      <trkpt lat="42.52499" lon="2.07622">
        <ele>1723.7419828696</ele>
        <time>2000-05-11T12:03:14.40</time>
      </trkpt>
      <trkpt lat="42.52499" lon="2.07621">
        <ele>1723.7533874195</ele>
        <time>2000-05-11T12:03:15.40</time>
      </trkpt>
      <trkpt lat="42.525" lon="2.07619">
        <ele>1724.7689592488</ele>
        <time>2000-05-11T12:03:16.40</time>
      </trkpt>
      <trkpt lat="42.525" lon="2.07619">
        <ele>1725.8688150553</ele>
        <time>2000-05-11T12:03:17.40</time>
      </trkpt>
      <trkpt lat="42.525" lon="2.07618">
        <ele>1726.8401134096</ele>
        <time>2000-05-11T12:03:18.40</time>
      </trkpt>
      <trkpt lat="42.52501" lon="2.07617">
        <ele>1727.6212073553</ele>
        <time>2000-05-11T12:03:19.40</time>
      </trkpt>
      <trkpt lat="42.52501" lon="2.07616">
        <ele>1728.2871040037</ele>
        <time>2000-05-11T12:03:20.40</time>
      </trkpt>
      <trkpt lat="42.52501" lon="2.07613">
        <ele>1727.8521104287</ele>
        <time>2000-05-11T12:03:21.36</time>
      </trkpt>
      <trkpt lat="42.52501" lon="2.07612">
        <ele>1727.300630991</ele>
        <time>2000-05-11T12:03:22.36</time>
      </trkpt>
      <trkpt lat="42.52502" lon="2.0761">
        <ele>1726.6305639621</ele>
        <time>2000-05-11T12:03:23.36</time>
      </trkpt>
      <trkpt lat="42.52502" lon="2.07609">
        <ele>1725.7493662171</ele>
        <time>2000-05-11T12:03:24.36</time>
      </trkpt>
      <trkpt lat="42.52503" lon="2.07606">
        <ele>1725.3627049949</ele>
        <time>2000-05-11T12:03:25.36</time>
      </trkpt>
      <trkpt lat="42.52504" lon="2.07605">
        <ele>1726.0521124134</ele>
        <time>2000-05-11T12:03:26.36</time>
      </trkpt>
      <trkpt lat="42.52505" lon="2.07604">
        <ele>1726.7989028705</ele>
        <time>2000-05-11T12:03:27.36</time>
      </trkpt>
      <trkpt lat="42.52506" lon="2.07603">
        <ele>1727.6918052986</ele>
        <time>2000-05-11T12:03:28.36</time>
      </trkpt>
      <trkpt lat="42.52506" lon="2.07603">
        <ele>1728.4272814736</ele>
        <time>2000-05-11T12:03:29.36</time>
      </trkpt>
      <trkpt lat="42.52507" lon="2.07601">
        <ele>1728.2372042589</ele>
        <time>2000-05-11T12:03:30.36</time>
      </trkpt>
      <trkpt lat="42.52507" lon="2.076">
        <ele>1727.411565835</ele>
        <time>2000-05-11T12:03:31.36</time>
      </trkpt>
      <trkpt lat="42.52507" lon="2.07599">
        <ele>1726.2222265465</ele>
        <time>2000-05-11T12:03:32.36</time>
      </trkpt>
      <trkpt lat="42.52508" lon="2.07598">
        <ele>1725.1944060188</ele>
        <time>2000-05-11T12:03:33.36</time>
      </trkpt>
      <trkpt lat="42.52509" lon="2.07597">
        <ele>1724.8812063374</ele>
        <time>2000-05-11T12:03:34.36</time>
      </trkpt>
      <trkpt lat="42.52509" lon="2.07594">
        <ele>1725.0778505202</ele>
        <time>2000-05-11T12:03:35.36</time>
      </trkpt>
      <trkpt lat="42.52509" lon="2.07592">
        <ele>1725.3729536498</ele>
        <time>2000-05-11T12:03:36.36</time>
      </trkpt>
      <trkpt lat="42.52509" lon="2.0759">
        <ele>1725.9314797912</ele>
        <time>2000-05-11T12:03:37.36</time>
      </trkpt>
      <trkpt lat="42.52509" lon="2.07588">
        <ele>1726.1642849091</ele>
        <time>2000-05-11T12:03:38.36</time>
      </trkpt>
      <trkpt lat="42.52508" lon="2.07586">
        <ele>1725.833147686</ele>
        <time>2000-05-11T12:03:39.36</time>
      </trkpt>
      <trkpt lat="42.52508" lon="2.07585">
        <ele>1725.1916687993</ele>
        <time>2000-05-11T12:03:40.36</time>
      </trkpt>
      <trkpt lat="42.52508" lon="2.07583">
        <ele>1724.3818922117</ele>
        <time>2000-05-11T12:03:41.36</time>
      </trkpt>
      <trkpt lat="42.52508" lon="2.07582">
        <ele>1723.7042273624</ele>
        <time>2000-05-11T12:03:42.36</time>
      </trkpt>
      <trkpt lat="42.52509" lon="2.07581">
        <ele>1723.1552403269</ele>
        <time>2000-05-11T12:03:43.36</time>
      </trkpt>
      <trkpt lat="42.52509" lon="2.0758">
        <ele>1722.7988291653</ele>
        <time>2000-05-11T12:03:44.36</time>
      </trkpt>
      <trkpt lat="42.52509" lon="2.07579">
        <ele>1722.4241399581</ele>
        <time>2000-05-11T12:03:45.36</time>
      </trkpt>
      <trkpt lat="42.52509" lon="2.07578">
        <ele>1722.0810642576</ele>
        <time>2000-05-11T12:03:46.36</time>
      </trkpt>
      <trkpt lat="42.52509" lon="2.07577">
        <ele>1721.608107869</ele>
        <time>2000-05-11T12:03:47.35</time>
      </trkpt>
      <trkpt lat="42.5251" lon="2.07576">
        <ele>1721.0427006427</ele>
        <time>2000-05-11T12:03:48.35</time>
      </trkpt>
      <trkpt lat="42.5251" lon="2.07575">
        <ele>1720.3179354718</ele>
        <time>2000-05-11T12:03:49.35</time>
      </trkpt>
      <trkpt lat="42.5251" lon="2.07573">
        <ele>1719.6692644557</ele>
        <time>2000-05-11T12:03:50.35</time>
      </trkpt>
      <trkpt lat="42.52511" lon="2.07572">
        <ele>1719.1397145387</ele>
        <time>2000-05-11T12:03:51.35</time>
      </trkpt>
      <trkpt lat="42.52511" lon="2.07571">
        <ele>1718.7070252035</ele>
        <time>2000-05-11T12:03:52.35</time>
      </trkpt>
      <trkpt lat="42.52512" lon="2.07568">
        <ele>1718.7155348474</ele>
        <time>2000-05-11T12:03:53.35</time>
      </trkpt>
      <trkpt lat="42.52513" lon="2.07567">
        <ele>1718.6966869479</ele>
        <time>2000-05-11T12:03:54.35</time>
      </trkpt>
      <trkpt lat="42.52514" lon="2.07566">
        <ele>1718.9720316002</ele>
        <time>2000-05-11T12:03:55.35</time>
      </trkpt>
      <trkpt lat="42.52514" lon="2.07565">
        <ele>1719.4513630791</ele>
        <time>2000-05-11T12:03:56.35</time>
      </trkpt>
      <trkpt lat="42.52514" lon="2.07564">
        <ele>1719.9423303043</ele>
        <time>2000-05-11T12:03:57.35</time>
      </trkpt>
      <trkpt lat="42.52515" lon="2.07562">
        <ele>1719.8761940919</ele>
        <time>2000-05-11T12:03:58.35</time>
      </trkpt>
      <trkpt lat="42.52516" lon="2.0756">
        <ele>1720.2786588</ele>
        <time>2000-05-11T12:03:59.35</time>
      </trkpt>
      <trkpt lat="42.52516" lon="2.07559">
        <ele>1720.320804899</ele>
        <time>2000-05-11T12:04:00.35</time>
      </trkpt>
      <trkpt lat="42.52516" lon="2.07557">
        <ele>1719.852519937</ele>
        <time>2000-05-11T12:04:01.35</time>
      </trkpt>
      <trkpt lat="42.52517" lon="2.07556">
        <ele>1719.2219850305</ele>
        <time>2000-05-11T12:04:02.35</time>
      </trkpt>
      <trkpt lat="42.52517" lon="2.07555">
        <ele>1718.3521705305</ele>
        <time>2000-05-11T12:04:03.35</time>
      </trkpt>
      <trkpt lat="42.52517" lon="2.07554">
        <ele>1717.1554736273</ele>
        <time>2000-05-11T12:04:04.35</time>
      </trkpt>
      <trkpt lat="42.52518" lon="2.07553">
        <ele>1716.379360019</ele>
        <time>2000-05-11T12:04:05.35</time>
      </trkpt>
      <trkpt lat="42.52519" lon="2.0755">
        <ele>1716.2880623503</ele>
        <time>2000-05-11T12:04:06.35</time>
      </trkpt>
      <trkpt lat="42.5252" lon="2.07549">
        <ele>1716.450463476</ele>
        <time>2000-05-11T12:04:07.35</time>
      </trkpt>
      <trkpt lat="42.5252" lon="2.07548">
        <ele>1716.8234105181</ele>
        <time>2000-05-11T12:04:08.35</time>
      </trkpt>
      <trkpt lat="42.5252" lon="2.07548">
        <ele>1717.2807036251</ele>
        <time>2000-05-11T12:04:09.35</time>
      </trkpt>
      <trkpt lat="42.5252" lon="2.07548">
        <ele>1717.5237388849</ele>
        <time>2000-05-11T12:04:10.35</time>
      </trkpt>
      <trkpt lat="42.52522" lon="2.07546">
        <ele>1717.29478088</ele>
        <time>2000-05-11T12:04:11.37</time>
      </trkpt>
      <trkpt lat="42.52522" lon="2.07545">
        <ele>1716.9553634185</ele>
        <time>2000-05-11T12:04:12.37</time>
      </trkpt>
      <trkpt lat="42.52524" lon="2.07544">
        <ele>1716.935269616</ele>
        <time>2000-05-11T12:04:13.37</time>
      </trkpt>
      <trkpt lat="42.52524" lon="2.07543">
        <ele>1716.772318398</ele>
        <time>2000-05-11T12:04:14.37</time>
      </trkpt>
      <trkpt lat="42.52526" lon="2.07542">
        <ele>1716.6673454324</ele>
        <time>2000-05-11T12:04:15.37</time>
      </trkpt>
      <trkpt lat="42.52527" lon="2.07541">
        <ele>1716.6810382005</ele>
        <time>2000-05-11T12:04:16.37</time>
      </trkpt>
      <trkpt lat="42.52527" lon="2.07539">
        <ele>1716.9518895991</ele>
        <time>2000-05-11T12:04:17.37</time>
      </trkpt>
      <trkpt lat="42.52529" lon="2.07539">
        <ele>1717.0072449842</ele>
        <time>2000-05-11T12:04:18.37</time>
      </trkpt>
      <trkpt lat="42.52531" lon="2.07539">
        <ele>1717.6918485019</ele>
        <time>2000-05-11T12:04:19.37</time>
      </trkpt>
      <trkpt lat="42.52532" lon="2.07538">
        <ele>1718.3019766733</ele>
        <time>2000-05-11T12:04:20.37</time>
      </trkpt>
      <trkpt lat="42.52532" lon="2.07536">
        <ele>1718.6937090743</ele>
        <time>2000-05-11T12:04:21.37</time>
      </trkpt>
      <trkpt lat="42.52533" lon="2.07536">
        <ele>1718.8204497613</ele>
        <time>2000-05-11T12:04:22.37</time>
      </trkpt>
      <trkpt lat="42.52534" lon="2.07536">
        <ele>1719.0951780016</ele>
        <time>2000-05-11T12:04:23.37</time>
      </trkpt>
      <trkpt lat="42.52535" lon="2.07534">
        <ele>1719.1548578167</ele>
        <time>2000-05-11T12:04:24.37</time>
      </trkpt>
      <trkpt lat="42.52536" lon="2.07533">
        <ele>1719.252819355</ele>
        <time>2000-05-11T12:04:25.37</time>
      </trkpt>
      <trkpt lat="42.52536" lon="2.07533">
        <ele>1719.5780715028</ele>
        <time>2000-05-11T12:04:26.37</time>
      </trkpt>
      <trkpt lat="42.52537" lon="2.07533">
        <ele>1719.9705429994</ele>
        <time>2000-05-11T12:04:27.32</time>
      </trkpt>
      <trkpt lat="42.52538" lon="2.07534">
        <ele>1720.367054861</ele>
        <time>2000-05-11T12:04:28.32</time>
      </trkpt>
      <trkpt lat="42.52539" lon="2.07535">
        <ele>1720.5148917224</ele>
        <time>2000-05-11T12:04:29.32</time>
      </trkpt>
      <trkpt lat="42.5254" lon="2.07535">
        <ele>1720.731304525</ele>
        <time>2000-05-11T12:04:30.32</time>
      </trkpt>
      <trkpt lat="42.52542" lon="2.07535">
        <ele>1721.206014155</ele>
        <time>2000-05-11T12:04:31.32</time>
      </trkpt>
      <trkpt lat="42.52543" lon="2.07535">
        <ele>1722.023252346</ele>
        <time>2000-05-11T12:04:32.32</time>
      </trkpt>
      <trkpt lat="42.52545" lon="2.07535">
        <ele>1722.7872059429</ele>
        <time>2000-05-11T12:04:33.32</time>
      </trkpt>
      <trkpt lat="42.52547" lon="2.07535">
        <ele>1723.4740284083</ele>
        <time>2000-05-11T12:04:34.32</time>
      </trkpt>
      <trkpt lat="42.52548" lon="2.07536">
        <ele>1724.0977184275</ele>
        <time>2000-05-11T12:04:35.32</time>
      </trkpt>
      <trkpt lat="42.52549" lon="2.07535">
        <ele>1724.8698022442</ele>
        <time>2000-05-11T12:04:36.32</time>
      </trkpt>
      <trkpt lat="42.52549" lon="2.07535">
        <ele>1725.3076351399</ele>
        <time>2000-05-11T12:04:37.32</time>
      </trkpt>
      <trkpt lat="42.52551" lon="2.07534">
        <ele>1725.732289055</ele>
        <time>2000-05-11T12:04:38.32</time>
      </trkpt>
      <trkpt lat="42.52551" lon="2.07534">
        <ele>1726.2323878124</ele>
        <time>2000-05-11T12:04:39.32</time>
      </trkpt>
      <trkpt lat="42.52552" lon="2.07533">
        <ele>1726.7153792331</ele>
        <time>2000-05-11T12:04:40.32</time>
      </trkpt>
      <trkpt lat="42.52553" lon="2.07532">
        <ele>1726.8918148763</ele>
        <time>2000-05-11T12:04:41.32</time>
      </trkpt>
      <trkpt lat="42.52553" lon="2.07531">
        <ele>1727.3695251456</ele>
        <time>2000-05-11T12:04:42.32</time>
      </trkpt>
      <trkpt lat="42.52553" lon="2.07531">
        <ele>1727.622296745</ele>
        <time>2000-05-11T12:04:43.32</time>
      </trkpt>
      <trkpt lat="42.52554" lon="2.07531">
        <ele>1728.005865285</ele>
        <time>2000-05-11T12:04:44.32</time>
      </trkpt>
      <trkpt lat="42.52555" lon="2.0753">
        <ele>1728.506190102</ele>
        <time>2000-05-11T12:04:45.32</time>
      </trkpt>
      <trkpt lat="42.52556" lon="2.0753">
        <ele>1729.2305340763</ele>
        <time>2000-05-11T12:04:46.32</time>
      </trkpt>
      <trkpt lat="42.52557" lon="2.07529">
        <ele>1729.8783477206</ele>
        <time>2000-05-11T12:04:47.33</time>
      </trkpt>
      <trkpt lat="42.52556" lon="2.07528">
        <ele>1730.6329061257</ele>
        <time>2000-05-11T12:04:48.33</time>
      </trkpt>
      <trkpt lat="42.52557" lon="2.07527">
        <ele>1731.2624651495</ele>
        <time>2000-05-11T12:04:49.33</time>
      </trkpt>
      <trkpt lat="42.52559" lon="2.07525">
        <ele>1732.3119068259</ele>
        <time>2000-05-11T12:04:50.33</time>
      </trkpt>
      <trkpt lat="42.52561" lon="2.07524">
        <ele>1733.5771409191</ele>
        <time>2000-05-11T12:04:51.33</time>
      </trkpt>
      <trkpt lat="42.52561" lon="2.07524">
        <ele>1734.3102178574</ele>
        <time>2000-05-11T12:04:52.33</time>
      </trkpt>
      <trkpt lat="42.52561" lon="2.07524">
        <ele>1735.1162896987</ele>
        <time>2000-05-11T12:04:53.33</time>
      </trkpt>
      <trkpt lat="42.52563" lon="2.07523">
        <ele>1736.1434712688</ele>
        <time>2000-05-11T12:04:54.33</time>
      </trkpt>
      <trkpt lat="42.52563" lon="2.07522">
        <ele>1736.4792471219</ele>
        <time>2000-05-11T12:04:55.33</time>
      </trkpt>
      <trkpt lat="42.52564" lon="2.07521">
        <ele>1735.7180228898</ele>
        <time>2000-05-11T12:04:56.33</time>
      </trkpt>
      <trkpt lat="42.52565" lon="2.07521">
        <ele>1734.4581194686</ele>
        <time>2000-05-11T12:04:57.33</time>
      </trkpt>
      <trkpt lat="42.52566" lon="2.07521">
        <ele>1732.7407174401</ele>
        <time>2000-05-11T12:04:58.33</time>
      </trkpt>
      <trkpt lat="42.52567" lon="2.0752">
        <ele>1730.7693616888</ele>
        <time>2000-05-11T12:04:59.33</time>
      </trkpt>
      <trkpt lat="42.52567" lon="2.07518">
        <ele>1728.6619531471</ele>
        <time>2000-05-11T12:05:00.33</time>
      </trkpt>
      <trkpt lat="42.52568" lon="2.07517">
        <ele>1727.0721001141</ele>
        <time>2000-05-11T12:05:01.33</time>
      </trkpt>
      <trkpt lat="42.52568" lon="2.07517">
        <ele>1726.2649878263</ele>
        <time>2000-05-11T12:05:02.33</time>
      </trkpt>
      <trkpt lat="42.52569" lon="2.07517">
        <ele>1725.7357507011</ele>
        <time>2000-05-11T12:05:03.33</time>
      </trkpt>
      <trkpt lat="42.5257" lon="2.07516">
        <ele>1724.7409557257</ele>
        <time>2000-05-11T12:05:04.33</time>
      </trkpt>
      <trkpt lat="42.52572" lon="2.07515">
        <ele>1723.9691687638</ele>
        <time>2000-05-11T12:05:05.33</time>
      </trkpt>
      <trkpt lat="42.52574" lon="2.07514">
        <ele>1723.5018583346</ele>
        <time>2000-05-11T12:05:06.33</time>
      </trkpt>
      <trkpt lat="42.52576" lon="2.07512">
        <ele>1723.0077862049</ele>
        <time>2000-05-11T12:05:07.33</time>
      </trkpt>
      <trkpt lat="42.52576" lon="2.0751">
        <ele>1722.8009822866</ele>
        <time>2000-05-11T12:05:08.33</time>
      </trkpt>
      <trkpt lat="42.52577" lon="2.07509">
        <ele>1722.8757478733</ele>
        <time>2000-05-11T12:05:09.33</time>
      </trkpt>
      <trkpt lat="42.52577" lon="2.07508">
        <ele>1722.7146994915</ele>
        <time>2000-05-11T12:05:10.33</time>
      </trkpt>
      <trkpt lat="42.52577" lon="2.07507">
        <ele>1721.9116381183</ele>
        <time>2000-05-11T12:05:11.33</time>
      </trkpt>
      <trkpt lat="42.52578" lon="2.07506">
        <ele>1721.2727230325</ele>
        <time>2000-05-11T12:05:12.33</time>
      </trkpt>
      <trkpt lat="42.5258" lon="2.07504">
        <ele>1720.8193509305</ele>
        <time>2000-05-11T12:05:13.33</time>
      </trkpt>
      <trkpt lat="42.52583" lon="2.07503">
        <ele>1720.9211311601</ele>
        <time>2000-05-11T12:05:14.33</time>
      </trkpt>
      <trkpt lat="42.52584" lon="2.07501">
        <ele>1721.3581181888</ele>
        <time>2000-05-11T12:05:15.33</time>
      </trkpt>
      <trkpt lat="42.52585" lon="2.075">
        <ele>1722.4513354028</ele>
        <time>2000-05-11T12:05:16.33</time>
      </trkpt>
      <trkpt lat="42.52585" lon="2.07499">
        <ele>1723.4105808431</ele>
        <time>2000-05-11T12:05:17.33</time>
      </trkpt>
      <trkpt lat="42.52585" lon="2.07498">
        <ele>1723.5757956414</ele>
        <time>2000-05-11T12:05:18.33</time>
      </trkpt>
      <trkpt lat="42.52585" lon="2.07498">
        <ele>1723.3759118853</ele>
        <time>2000-05-11T12:05:19.33</time>
      </trkpt>
      <trkpt lat="42.52586" lon="2.07496">
        <ele>1723.078112777</ele>
        <time>2000-05-11T12:05:20.34</time>
      </trkpt>
      <trkpt lat="42.52587" lon="2.07495">
        <ele>1722.5568263795</ele>
        <time>2000-05-11T12:05:21.34</time>
      </trkpt>
      <trkpt lat="42.52588" lon="2.07495">
        <ele>1721.8760987682</ele>
        <time>2000-05-11T12:05:22.34</time>
      </trkpt>
      <trkpt lat="42.5259" lon="2.07494">
        <ele>1721.6273140412</ele>
        <time>2000-05-11T12:05:23.34</time>
      </trkpt>
      <trkpt lat="42.52591" lon="2.07492">
        <ele>1721.9593994344</ele>
        <time>2000-05-11T12:05:24.34</time>
      </trkpt>
      <trkpt lat="42.52592" lon="2.07492">
        <ele>1722.2238245277</ele>
        <time>2000-05-11T12:05:25.34</time>
      </trkpt>
      <trkpt lat="42.52593" lon="2.07492">
        <ele>1722.3346859207</ele>
        <time>2000-05-11T12:05:26.34</time>
      </trkpt>
      <trkpt lat="42.52595" lon="2.07491">
        <ele>1722.8398672227</ele>
        <time>2000-05-11T12:05:27.34</time>
      </trkpt>
      <trkpt lat="42.52596" lon="2.07489">
        <ele>1723.4569342764</ele>
        <time>2000-05-11T12:05:28.34</time>
      </trkpt>
      <trkpt lat="42.52597" lon="2.07488">
        <ele>1723.4973333502</ele>
        <time>2000-05-11T12:05:29.34</time>
      </trkpt>
      <trkpt lat="42.52598" lon="2.07487">
        <ele>1723.6386324463</ele>
        <time>2000-05-11T12:05:30.34</time>
      </trkpt>
      <trkpt lat="42.52599" lon="2.07487">
        <ele>1723.6404259928</ele>
        <time>2000-05-11T12:05:31.34</time>
      </trkpt>
      <trkpt lat="42.526" lon="2.07487">
        <ele>1723.1760895323</ele>
        <time>2000-05-11T12:05:32.34</time>
      </trkpt>
      <trkpt lat="42.526" lon="2.07486">
        <ele>1722.1863207091</ele>
        <time>2000-05-11T12:05:33.34</time>
      </trkpt>
      <trkpt lat="42.526" lon="2.07485">
        <ele>1720.993842499</ele>
        <time>2000-05-11T12:05:34.34</time>
      </trkpt>
      <trkpt lat="42.52601" lon="2.07484">
        <ele>1719.8867762934</ele>
        <time>2000-05-11T12:05:35.34</time>
      </trkpt>
      <trkpt lat="42.52602" lon="2.07483">
        <ele>1719.3066054918</ele>
        <time>2000-05-11T12:05:36.34</time>
      </trkpt>
      <trkpt lat="42.52603" lon="2.07482">
        <ele>1718.5293821486</ele>
        <time>2000-05-11T12:05:37.34</time>
      </trkpt>
      <trkpt lat="42.52604" lon="2.07481">
        <ele>1718.1937205989</ele>
        <time>2000-05-11T12:05:38.34</time>
      </trkpt>
      <trkpt lat="42.52605" lon="2.0748">
        <ele>1717.8342268586</ele>
        <time>2000-05-11T12:05:39.34</time>
      </trkpt>
      <trkpt lat="42.52605" lon="2.07478">
        <ele>1717.7934287546</ele>
        <time>2000-05-11T12:05:40.34</time>
      </trkpt>
      <trkpt lat="42.52606" lon="2.07477">
        <ele>1717.7256050641</ele>
        <time>2000-05-11T12:05:41.34</time>
      </trkpt>
      <trkpt lat="42.52607" lon="2.07475">
        <ele>1718.0458796456</ele>
        <time>2000-05-11T12:05:42.34</time>
      </trkpt>
      <trkpt lat="42.52609" lon="2.07474">
        <ele>1718.5372206328</ele>
        <time>2000-05-11T12:05:43.34</time>
      </trkpt>
      <trkpt lat="42.52609" lon="2.07474">
        <ele>1719.2509010572</ele>
        <time>2000-05-11T12:05:44.34</time>
      </trkpt>
      <trkpt lat="42.5261" lon="2.07474">
        <ele>1719.2179006575</ele>
        <time>2000-05-11T12:05:45.34</time>
      </trkpt>
      <trkpt lat="42.5261" lon="2.07474">
        <ele>1718.9223914078</ele>
        <time>2000-05-11T12:05:46.34</time>
      </trkpt>
      <trkpt lat="42.52611" lon="2.07473">
        <ele>1718.5781048523</ele>
        <time>2000-05-11T12:05:47.34</time>
      </trkpt>
      <trkpt lat="42.52612" lon="2.07472">
        <ele>1718.2401666593</ele>
        <time>2000-05-11T12:05:48.34</time>
      </trkpt>
      <trkpt lat="42.52612" lon="2.07472">
        <ele>1717.9022284662</ele>
        <time>2000-05-11T12:05:49.34</time>
      </trkpt>
      <trkpt lat="42.52614" lon="2.07471">
        <ele>1717.8442710191</ele>
        <time>2000-05-11T12:05:50.34</time>
      </trkpt>
      <trkpt lat="42.52615" lon="2.0747">
        <ele>1717.5271195894</ele>
        <time>2000-05-11T12:05:51.34</time>
      </trkpt>
      <trkpt lat="42.52616" lon="2.07469">
        <ele>1717.057322894</ele>
        <time>2000-05-11T12:05:52.34</time>
      </trkpt>
      <trkpt lat="42.52617" lon="2.07468">
        <ele>1716.3024414416</ele>
        <time>2000-05-11T12:05:53.34</time>
      </trkpt>
      <trkpt lat="42.52619" lon="2.07466">
        <ele>1715.1130691553</ele>
        <time>2000-05-11T12:05:54.34</time>
      </trkpt>
      <trkpt lat="42.52619" lon="2.07466">
        <ele>1713.5285439974</ele>
        <time>2000-05-11T12:05:55.34</time>
      </trkpt>
      <trkpt lat="42.5262" lon="2.07465">
        <ele>1712.0535978455</ele>
        <time>2000-05-11T12:05:56.34</time>
      </trkpt>
      <trkpt lat="42.52622" lon="2.07465">
        <ele>1711.2114243327</ele>
        <time>2000-05-11T12:05:57.34</time>
      </trkpt>
      <trkpt lat="42.52623" lon="2.07464">
        <ele>1710.6260097558</ele>
        <time>2000-05-11T12:05:58.34</time>
      </trkpt>
      <trkpt lat="42.52624" lon="2.07463">
        <ele>1710.6244011478</ele>
        <time>2000-05-11T12:05:59.34</time>
      </trkpt>
      <trkpt lat="42.52625" lon="2.07462">
        <ele>1711.0832681166</ele>
        <time>2000-05-11T12:06:00.34</time>
      </trkpt>
      <trkpt lat="42.52627" lon="2.07462">
        <ele>1711.8456425125</ele>
        <time>2000-05-11T12:06:01.34</time>
      </trkpt>
      <trkpt lat="42.52628" lon="2.07461">
        <ele>1712.3522301052</ele>
        <time>2000-05-11T12:06:02.34</time>
      </trkpt>
      <trkpt lat="42.52628" lon="2.07462">
        <ele>1712.5943939775</ele>
        <time>2000-05-11T12:06:03.34</time>
      </trkpt>
      <trkpt lat="42.52629" lon="2.07461">
        <ele>1712.8557372048</ele>
        <time>2000-05-11T12:06:04.34</time>
      </trkpt>
      <trkpt lat="42.52631" lon="2.07461">
        <ele>1713.5253994521</ele>
        <time>2000-05-11T12:06:05.34</time>
      </trkpt>
      <trkpt lat="42.52632" lon="2.07462">
        <ele>1713.8447107859</ele>
        <time>2000-05-11T12:06:06.34</time>
      </trkpt>
      <trkpt lat="42.52632" lon="2.07462">
        <ele>1714.0486029264</ele>
        <time>2000-05-11T12:06:07.34</time>
      </trkpt>
      <trkpt lat="42.52632" lon="2.07462">
        <ele>1714.4087146651</ele>
        <time>2000-05-11T12:06:08.34</time>
      </trkpt>
      <trkpt lat="42.52633" lon="2.07462">
        <ele>1714.6056148384</ele>
        <time>2000-05-11T12:06:09.34</time>
      </trkpt>
      <trkpt lat="42.52635" lon="2.07461">
        <ele>1714.559071108</ele>
        <time>2000-05-11T12:06:10.35</time>
      </trkpt>
      <trkpt lat="42.52635" lon="2.0746">
        <ele>1714.4369525673</ele>
        <time>2000-05-11T12:06:11.35</time>
      </trkpt>
      <trkpt lat="42.52636" lon="2.07459">
        <ele>1714.3412221532</ele>
        <time>2000-05-11T12:06:12.35</time>
      </trkpt>
      <trkpt lat="42.52637" lon="2.07459">
        <ele>1714.038637542</ele>
        <time>2000-05-11T12:06:13.35</time>
      </trkpt>
      <trkpt lat="42.52638" lon="2.07457">
        <ele>1713.3879347334</ele>
        <time>2000-05-11T12:06:14.35</time>
      </trkpt>
      <trkpt lat="42.5264" lon="2.07456">
        <ele>1712.7704109311</ele>
        <time>2000-05-11T12:06:15.35</time>
      </trkpt>
      <trkpt lat="42.52641" lon="2.07456">
        <ele>1712.5186721602</ele>
        <time>2000-05-11T12:06:16.35</time>
      </trkpt>
      <trkpt lat="42.52642" lon="2.07456">
        <ele>1712.3065701846</ele>
        <time>2000-05-11T12:06:17.35</time>
      </trkpt>
      <trkpt lat="42.52644" lon="2.07456">
        <ele>1712.6511122722</ele>
        <time>2000-05-11T12:06:18.35</time>
      </trkpt>
      <trkpt lat="42.52645" lon="2.07455">
        <ele>1713.5257464692</ele>
        <time>2000-05-11T12:06:19.35</time>
      </trkpt>
      <trkpt lat="42.52646" lon="2.07455">
        <ele>1714.1887984032</ele>
        <time>2000-05-11T12:06:20.35</time>
      </trkpt>
      <trkpt lat="42.52648" lon="2.07455">
        <ele>1714.9281393319</ele>
        <time>2000-05-11T12:06:21.35</time>
      </trkpt>
      <trkpt lat="42.52648" lon="2.07455">
        <ele>1715.5204422887</ele>
        <time>2000-05-11T12:06:22.35</time>
      </trkpt>
      <trkpt lat="42.52648" lon="2.07455">
        <ele>1715.7629553795</ele>
        <time>2000-05-11T12:06:23.35</time>
      </trkpt>
      <trkpt lat="42.5265" lon="2.07455">
        <ele>1715.6229870575</ele>
        <time>2000-05-11T12:06:24.35</time>
      </trkpt>
      <trkpt lat="42.52652" lon="2.07451">
        <ele>1716.462053575</ele>
        <time>2000-05-11T12:06:25.34</time>
      </trkpt>
      <trkpt lat="42.52653" lon="2.07451">
        <ele>1717.4565711189</ele>
        <time>2000-05-11T12:06:26.34</time>
      </trkpt>
      <trkpt lat="42.52655" lon="2.07451">
        <ele>1718.561728812</ele>
        <time>2000-05-11T12:06:27.34</time>
      </trkpt>
      <trkpt lat="42.52656" lon="2.07451">
        <ele>1719.6850350795</ele>
        <time>2000-05-11T12:06:28.34</time>
      </trkpt>
      <trkpt lat="42.52657" lon="2.07452">
        <ele>1720.9337517958</ele>
        <time>2000-05-11T12:06:29.34</time>
      </trkpt>
      <trkpt lat="42.52657" lon="2.07451">
        <ele>1721.3797519997</ele>
        <time>2000-05-11T12:06:30.34</time>
      </trkpt>
      <trkpt lat="42.52658" lon="2.07452">
        <ele>1721.3029954521</ele>
        <time>2000-05-11T12:06:31.34</time>
      </trkpt>
      <trkpt lat="42.52659" lon="2.07451">
        <ele>1721.3151989235</ele>
        <time>2000-05-11T12:06:32.34</time>
      </trkpt>
      <trkpt lat="42.5266" lon="2.07451">
        <ele>1721.2400210237</ele>
        <time>2000-05-11T12:06:33.34</time>
      </trkpt>
      <trkpt lat="42.52662" lon="2.07451">
        <ele>1721.9465451231</ele>
        <time>2000-05-11T12:06:34.34</time>
      </trkpt>
      <trkpt lat="42.52663" lon="2.07451">
        <ele>1723.0328475358</ele>
        <time>2000-05-11T12:06:35.34</time>
      </trkpt>
      <trkpt lat="42.52663" lon="2.07451">
        <ele>1724.3164149204</ele>
        <time>2000-05-11T12:06:36.34</time>
      </trkpt>
      <trkpt lat="42.52664" lon="2.0745">
        <ele>1725.903394229</ele>
        <time>2000-05-11T12:06:37.34</time>
      </trkpt>
      <trkpt lat="42.52665" lon="2.07449">
        <ele>1727.5651151124</ele>
        <time>2000-05-11T12:06:38.34</time>
      </trkpt>
      <trkpt lat="42.52666" lon="2.07448">
        <ele>1728.8694419492</ele>
        <time>2000-05-11T12:06:39.34</time>
      </trkpt>
      <trkpt lat="42.52666" lon="2.07448">
        <ele>1729.6239040395</ele>
        <time>2000-05-11T12:06:40.34</time>
      </trkpt>
      <trkpt lat="42.52668" lon="2.07449">
        <ele>1730.0403088812</ele>
        <time>2000-05-11T12:06:41.34</time>
      </trkpt>
      <trkpt lat="42.5267" lon="2.07449">
        <ele>1729.7545694629</ele>
        <time>2000-05-11T12:06:42.34</time>
      </trkpt>
      <trkpt lat="42.52672" lon="2.07449">
        <ele>1729.403193613</ele>
        <time>2000-05-11T12:06:43.34</time>
      </trkpt>
      <trkpt lat="42.52672" lon="2.07449">
        <ele>1728.5955983</ele>
        <time>2000-05-11T12:06:44.34</time>
      </trkpt>
      <trkpt lat="42.52673" lon="2.07449">
        <ele>1727.7258873031</ele>
        <time>2000-05-11T12:06:45.34</time>
      </trkpt>
      <trkpt lat="42.52674" lon="2.07448">
        <ele>1727.1937212206</ele>
        <time>2000-05-11T12:06:46.34</time>
      </trkpt>
      <trkpt lat="42.52674" lon="2.07447">
        <ele>1727.2317909401</ele>
        <time>2000-05-11T12:06:47.34</time>
      </trkpt>
      <trkpt lat="42.52675" lon="2.07447">
        <ele>1727.4616933698</ele>
        <time>2000-05-11T12:06:48.34</time>
      </trkpt>
      <trkpt lat="42.52676" lon="2.07447">
        <ele>1727.6562968867</ele>
        <time>2000-05-11T12:06:49.34</time>
      </trkpt>
      <trkpt lat="42.52677" lon="2.07447">
        <ele>1727.8483814348</ele>
        <time>2000-05-11T12:06:50.34</time>
      </trkpt>
      <trkpt lat="42.52678" lon="2.07446">
        <ele>1728.1340584379</ele>
        <time>2000-05-11T12:06:51.34</time>
      </trkpt>
      <trkpt lat="42.5268" lon="2.07446">
        <ele>1728.1046633687</ele>
        <time>2000-05-11T12:06:52.34</time>
      </trkpt>
      <trkpt lat="42.52681" lon="2.07445">
        <ele>1728.1446004638</ele>
        <time>2000-05-11T12:06:53.34</time>
      </trkpt>
      <trkpt lat="42.52682" lon="2.07445">
        <ele>1728.1694591675</ele>
        <time>2000-05-11T12:06:54.34</time>
      </trkpt>
      <trkpt lat="42.52683" lon="2.07445">
        <ele>1728.1328042578</ele>
        <time>2000-05-11T12:06:55.34</time>
      </trkpt>
      <trkpt lat="42.52684" lon="2.07445">
        <ele>1727.7117172802</ele>
        <time>2000-05-11T12:06:56.34</time>
      </trkpt>
      <trkpt lat="42.52685" lon="2.07446">
        <ele>1727.389976253</ele>
        <time>2000-05-11T12:06:57.34</time>
      </trkpt>
      <trkpt lat="42.52687" lon="2.07446">
        <ele>1727.1947366811</ele>
        <time>2000-05-11T12:06:58.34</time>
      </trkpt>
      <trkpt lat="42.52688" lon="2.07446">
        <ele>1727.3162756931</ele>
        <time>2000-05-11T12:06:59.34</time>
      </trkpt>
      <trkpt lat="42.5269" lon="2.07445">
        <ele>1728.1164683037</ele>
        <time>2000-05-11T12:07:00.34</time>
      </trkpt>
      <trkpt lat="42.52692" lon="2.07444">
        <ele>1728.8359679027</ele>
        <time>2000-05-11T12:07:01.34</time>
      </trkpt>
      <trkpt lat="42.52692" lon="2.07444">
        <ele>1729.4811030397</ele>
        <time>2000-05-11T12:07:02.34</time>
      </trkpt>
      <trkpt lat="42.52693" lon="2.07445">
        <ele>1729.8648509208</ele>
        <time>2000-05-11T12:07:03.34</time>
      </trkpt>
      <trkpt lat="42.52694" lon="2.07445">
        <ele>1729.9349769125</ele>
        <time>2000-05-11T12:07:04.34</time>
      </trkpt>
      <trkpt lat="42.52695" lon="2.07444">
        <ele>1729.6291785441</ele>
        <time>2000-05-11T12:07:05.34</time>
      </trkpt>
      <trkpt lat="42.52695" lon="2.07444">
        <ele>1729.6954251343</ele>
        <time>2000-05-11T12:07:06.34</time>
      </trkpt>
      <trkpt lat="42.52697" lon="2.07444">
        <ele>1730.0419447675</ele>
        <time>2000-05-11T12:07:07.33</time>
      </trkpt>
      <trkpt lat="42.52698" lon="2.07444">
        <ele>1729.9650173079</ele>
        <time>2000-05-11T12:07:08.33</time>
      </trkpt>
      <trkpt lat="42.52698" lon="2.07444">
        <ele>1729.7376347747</ele>
        <time>2000-05-11T12:07:09.33</time>
      </trkpt>
      <trkpt lat="42.52699" lon="2.07444">
        <ele>1729.3101889396</ele>
        <time>2000-05-11T12:07:10.33</time>
      </trkpt>
      <trkpt lat="42.527" lon="2.07443">
        <ele>1729.0637827329</ele>
        <time>2000-05-11T12:07:11.33</time>
      </trkpt>
      <trkpt lat="42.52702" lon="2.07443">
        <ele>1728.4894685874</ele>
        <time>2000-05-11T12:07:12.33</time>
      </trkpt>
      <trkpt lat="42.52702" lon="2.07444">
        <ele>1727.9740537414</ele>
        <time>2000-05-11T12:07:13.33</time>
      </trkpt>
      <trkpt lat="42.52704" lon="2.07445">
        <ele>1727.7692778775</ele>
        <time>2000-05-11T12:07:14.33</time>
      </trkpt>
      <trkpt lat="42.52706" lon="2.07445">
        <ele>1727.757042297</ele>
        <time>2000-05-11T12:07:15.33</time>
      </trkpt>
      <trkpt lat="42.52707" lon="2.07445">
        <ele>1727.6675254935</ele>
        <time>2000-05-11T12:07:16.33</time>
      </trkpt>
      <trkpt lat="42.52709" lon="2.07445">
        <ele>1727.6958911436</ele>
        <time>2000-05-11T12:07:17.33</time>
      </trkpt>
      <trkpt lat="42.5271" lon="2.07446">
        <ele>1727.9587524997</ele>
        <time>2000-05-11T12:07:18.33</time>
      </trkpt>
      <trkpt lat="42.52712" lon="2.07446">
        <ele>1728.049243178</ele>
        <time>2000-05-11T12:07:19.33</time>
      </trkpt>
      <trkpt lat="42.52713" lon="2.07446">
        <ele>1727.6617642311</ele>
        <time>2000-05-11T12:07:20.33</time>
      </trkpt>
      <trkpt lat="42.52715" lon="2.07447">
        <ele>1727.5038986968</ele>
        <time>2000-05-11T12:07:21.33</time>
      </trkpt>
      <trkpt lat="42.52717" lon="2.07448">
        <ele>1727.3703727838</ele>
        <time>2000-05-11T12:07:22.33</time>
      </trkpt>
      <trkpt lat="42.52719" lon="2.07448">
        <ele>1727.0012497501</ele>
        <time>2000-05-11T12:07:23.33</time>
      </trkpt>
      <trkpt lat="42.52721" lon="2.07448">
        <ele>1726.7822216175</ele>
        <time>2000-05-11T12:07:24.33</time>
      </trkpt>
      <trkpt lat="42.52723" lon="2.07448">
        <ele>1727.7478987627</ele>
        <time>2000-05-11T12:07:25.33</time>
      </trkpt>
      <trkpt lat="42.52724" lon="2.07448">
        <ele>1728.5364522725</ele>
        <time>2000-05-11T12:07:26.33</time>
      </trkpt>
      <trkpt lat="42.52726" lon="2.07448">
        <ele>1729.000508919</ele>
        <time>2000-05-11T12:07:27.33</time>
      </trkpt>
      <trkpt lat="42.52727" lon="2.07448">
        <ele>1729.6339097062</ele>
        <time>2000-05-11T12:07:28.33</time>
      </trkpt>
      <trkpt lat="42.52728" lon="2.07448">
        <ele>1730.3731479164</ele>
        <time>2000-05-11T12:07:29.33</time>
      </trkpt>
      <trkpt lat="42.5273" lon="2.07448">
        <ele>1730.260513665</ele>
        <time>2000-05-11T12:07:30.33</time>
      </trkpt>
      <trkpt lat="42.5273" lon="2.07449">
        <ele>1729.8617997512</ele>
        <time>2000-05-11T12:07:31.33</time>
      </trkpt>
      <trkpt lat="42.52731" lon="2.07449">
        <ele>1729.6448508892</ele>
        <time>2000-05-11T12:07:32.33</time>
      </trkpt>
      <trkpt lat="42.52732" lon="2.0745">
        <ele>1729.4355629461</ele>
        <time>2000-05-11T12:07:33.33</time>
      </trkpt>
      <trkpt lat="42.52733" lon="2.0745">
        <ele>1729.1058580093</ele>
        <time>2000-05-11T12:07:34.33</time>
      </trkpt>
      <trkpt lat="42.52734" lon="2.0745">
        <ele>1729.0612949457</ele>
        <time>2000-05-11T12:07:35.33</time>
      </trkpt>
      <trkpt lat="42.52736" lon="2.0745">
        <ele>1729.9234704478</ele>
        <time>2000-05-11T12:07:36.33</time>
      </trkpt>
      <trkpt lat="42.52737" lon="2.0745">
        <ele>1730.6231375594</ele>
        <time>2000-05-11T12:07:37.33</time>
      </trkpt>
      <trkpt lat="42.52737" lon="2.0745">
        <ele>1731.4452973984</ele>
        <time>2000-05-11T12:07:38.33</time>
      </trkpt>
      <trkpt lat="42.52738" lon="2.0745">
        <ele>1732.4224063603</ele>
        <time>2000-05-11T12:07:39.33</time>
      </trkpt>
      <trkpt lat="42.52738" lon="2.07451">
        <ele>1733.3448268259</ele>
        <time>2000-05-11T12:07:40.33</time>
      </trkpt>
      <trkpt lat="42.52739" lon="2.07451">
        <ele>1733.6311662246</ele>
        <time>2000-05-11T12:07:41.33</time>
      </trkpt>
      <trkpt lat="42.52741" lon="2.07452">
        <ele>1734.3113453805</ele>
        <time>2000-05-11T12:07:42.33</time>
      </trkpt>
      <trkpt lat="42.52743" lon="2.07453">
        <ele>1734.6689167406</ele>
        <time>2000-05-11T12:07:43.33</time>
      </trkpt>
      <trkpt lat="42.52744" lon="2.07454">
        <ele>1734.8512703817</ele>
        <time>2000-05-11T12:07:44.33</time>
      </trkpt>
      <trkpt lat="42.52745" lon="2.07454">
        <ele>1734.9579442708</ele>
        <time>2000-05-11T12:07:45.33</time>
      </trkpt>
      <trkpt lat="42.52746" lon="2.07454">
        <ele>1734.9300239861</ele>
        <time>2000-05-11T12:07:46.33</time>
      </trkpt>
      <trkpt lat="42.52747" lon="2.07454">
        <ele>1734.6396872327</ele>
        <time>2000-05-11T12:07:47.33</time>
      </trkpt>
      <trkpt lat="42.52747" lon="2.07455">
        <ele>1734.570232998</ele>
        <time>2000-05-11T12:07:48.33</time>
      </trkpt>
      <trkpt lat="42.52747" lon="2.07456">
        <ele>1734.6754144531</ele>
        <time>2000-05-11T12:07:49.33</time>
      </trkpt>
      <trkpt lat="42.5275" lon="2.07456">
        <ele>1734.3676283224</ele>
        <time>2000-05-11T12:07:50.33</time>
      </trkpt>
      <trkpt lat="42.52751" lon="2.07456">
        <ele>1733.8306695288</ele>
        <time>2000-05-11T12:07:51.33</time>
      </trkpt>
      <trkpt lat="42.52752" lon="2.07457">
        <ele>1733.1089621058</ele>
        <time>2000-05-11T12:07:52.33</time>
      </trkpt>
      <trkpt lat="42.52753" lon="2.07457">
        <ele>1732.7844547097</ele>
        <time>2000-05-11T12:07:53.33</time>
      </trkpt>
      <trkpt lat="42.52754" lon="2.07456">
        <ele>1732.9691061085</ele>
        <time>2000-05-11T12:07:54.33</time>
      </trkpt>
      <trkpt lat="42.52754" lon="2.07456">
        <ele>1733.4065173931</ele>
        <time>2000-05-11T12:07:55.33</time>
      </trkpt>
      <trkpt lat="42.52756" lon="2.07456">
        <ele>1733.6969290756</ele>
        <time>2000-05-11T12:07:56.33</time>
      </trkpt>
      <trkpt lat="42.52757" lon="2.07456">
        <ele>1733.8430695789</ele>
        <time>2000-05-11T12:07:57.33</time>
      </trkpt>
      <trkpt lat="42.52759" lon="2.07457">
        <ele>1733.3750539223</ele>
        <time>2000-05-11T12:07:58.33</time>
      </trkpt>
      <trkpt lat="42.5276" lon="2.07458">
        <ele>1731.9759578351</ele>
        <time>2000-05-11T12:07:59.33</time>
      </trkpt>
      <trkpt lat="42.5276" lon="2.07458">
        <ele>1730.5859142331</ele>
        <time>2000-05-11T12:08:00.33</time>
      </trkpt>
      <trkpt lat="42.5276" lon="2.07458">
        <ele>1729.5658110507</ele>
        <time>2000-05-11T12:08:01.33</time>
      </trkpt>
      <trkpt lat="42.52762" lon="2.07458">
        <ele>1729.017204323</ele>
        <time>2000-05-11T12:08:02.35</time>
      </trkpt>
      <trkpt lat="42.52763" lon="2.07458">
        <ele>1729.260581224</ele>
        <time>2000-05-11T12:08:03.35</time>
      </trkpt>
      <trkpt lat="42.52764" lon="2.07459">
        <ele>1729.4702937728</ele>
        <time>2000-05-11T12:08:04.38</time>
      </trkpt>
      <trkpt lat="42.52765" lon="2.07459">
        <ele>1729.7411210561</ele>
        <time>2000-05-11T12:08:05.38</time>
      </trkpt>
      <trkpt lat="42.52767" lon="2.0746">
        <ele>1729.7350417649</ele>
        <time>2000-05-11T12:08:06.38</time>
      </trkpt>
      <trkpt lat="42.52767" lon="2.0746">
        <ele>1729.6657155622</ele>
        <time>2000-05-11T12:08:07.38</time>
      </trkpt>
      <trkpt lat="42.52767" lon="2.0746">
        <ele>1729.1230871409</ele>
        <time>2000-05-11T12:08:08.38</time>
      </trkpt>
      <trkpt lat="42.52767" lon="2.07461">
        <ele>1729.0506376952</ele>
        <time>2000-05-11T12:08:09.38</time>
      </trkpt>
      <trkpt lat="42.52769" lon="2.07462">
        <ele>1728.8482052037</ele>
        <time>2000-05-11T12:08:10.38</time>
      </trkpt>
      <trkpt lat="42.52771" lon="2.07461">
        <ele>1728.7528097168</ele>
        <time>2000-05-11T12:08:11.38</time>
      </trkpt>
      <trkpt lat="42.52772" lon="2.07461">
        <ele>1728.3956993738</ele>
        <time>2000-05-11T12:08:12.38</time>
      </trkpt>
      <trkpt lat="42.52773" lon="2.07462">
        <ele>1727.8887281997</ele>
        <time>2000-05-11T12:08:13.39</time>
      </trkpt>
      <trkpt lat="42.52773" lon="2.07462">
        <ele>1727.2384146314</ele>
        <time>2000-05-11T12:08:14.39</time>
      </trkpt>
      <trkpt lat="42.52776" lon="2.0746">
        <ele>1726.6465636587</ele>
        <time>2000-05-11T12:08:15.38</time>
      </trkpt>
      <trkpt lat="42.52776" lon="2.0746">
        <ele>1726.224582256</ele>
        <time>2000-05-11T12:08:16.38</time>
      </trkpt>
      <trkpt lat="42.52777" lon="2.0746">
        <ele>1725.9324525356</ele>
        <time>2000-05-11T12:08:17.37</time>
      </trkpt>
      <trkpt lat="42.52779" lon="2.0746">
        <ele>1725.2271008397</ele>
        <time>2000-05-11T12:08:18.37</time>
      </trkpt>
      <trkpt lat="42.52782" lon="2.07459">
        <ele>1724.0027888404</ele>
        <time>2000-05-11T12:08:19.37</time>
      </trkpt>
      <trkpt lat="42.52783" lon="2.07459">
        <ele>1722.5316134645</ele>
        <time>2000-05-11T12:08:20.37</time>
      </trkpt>
      <trkpt lat="42.52786" lon="2.07458">
        <ele>1721.0004677158</ele>
        <time>2000-05-11T12:08:21.37</time>
      </trkpt>
      <trkpt lat="42.52786" lon="2.07457">
        <ele>1719.67911279</ele>
        <time>2000-05-11T12:08:22.37</time>
      </trkpt>
      <trkpt lat="42.52786" lon="2.07457">
        <ele>1718.9208406709</ele>
        <time>2000-05-11T12:08:23.37</time>
      </trkpt>
      <trkpt lat="42.52787" lon="2.07456">
        <ele>1718.4306442348</ele>
        <time>2000-05-11T12:08:24.37</time>
      </trkpt>
      <trkpt lat="42.52788" lon="2.07456">
        <ele>1718.4849074841</ele>
        <time>2000-05-11T12:08:25.37</time>
      </trkpt>
      <trkpt lat="42.52789" lon="2.07455">
        <ele>1718.7200783385</ele>
        <time>2000-05-11T12:08:26.39</time>
      </trkpt>
      <trkpt lat="42.52791" lon="2.07455">
        <ele>1718.9655157786</ele>
        <time>2000-05-11T12:08:27.39</time>
      </trkpt>
      <trkpt lat="42.52791" lon="2.07455">
        <ele>1718.9329907916</ele>
        <time>2000-05-11T12:08:28.39</time>
      </trkpt>
      <trkpt lat="42.52792" lon="2.07455">
        <ele>1718.7585393187</ele>
        <time>2000-05-11T12:08:29.39</time>
      </trkpt>
      <trkpt lat="42.52792" lon="2.07454">
        <ele>1717.8923745096</ele>
        <time>2000-05-11T12:08:30.39</time>
      </trkpt>
      <trkpt lat="42.52794" lon="2.07454">
        <ele>1716.2493722113</ele>
        <time>2000-05-11T12:08:31.39</time>
      </trkpt>
      <trkpt lat="42.52796" lon="2.07454">
        <ele>1714.4085663365</ele>
        <time>2000-05-11T12:08:32.39</time>
      </trkpt>
      <trkpt lat="42.52797" lon="2.07454">
        <ele>1712.5648762727</ele>
        <time>2000-05-11T12:08:33.39</time>
      </trkpt>
      <trkpt lat="42.52801" lon="2.07454">
        <ele>1711.4899262154</ele>
        <time>2000-05-11T12:08:34.39</time>
      </trkpt>
      <trkpt lat="42.52803" lon="2.07453">
        <ele>1711.1682770029</ele>
        <time>2000-05-11T12:08:35.39</time>
      </trkpt>
      <trkpt lat="42.52805" lon="2.07453">
        <ele>1711.8680543277</ele>
        <time>2000-05-11T12:08:36.39</time>
      </trkpt>
      <trkpt lat="42.52807" lon="2.07452">
        <ele>1712.8005324991</ele>
        <time>2000-05-11T12:08:37.39</time>
      </trkpt>
      <trkpt lat="42.5281" lon="2.07452">
        <ele>1714.0147737594</ele>
        <time>2000-05-11T12:08:38.39</time>
      </trkpt>
      <trkpt lat="42.52812" lon="2.07452">
        <ele>1714.9490907725</ele>
        <time>2000-05-11T12:08:39.39</time>
      </trkpt>
      <trkpt lat="42.52813" lon="2.07451">
        <ele>1715.6315420924</ele>
        <time>2000-05-11T12:08:40.39</time>
      </trkpt>
      <trkpt lat="42.52814" lon="2.07451">
        <ele>1715.9574411267</ele>
        <time>2000-05-11T12:08:41.39</time>
      </trkpt>
      <trkpt lat="42.52816" lon="2.07451">
        <ele>1716.4770274624</ele>
        <time>2000-05-11T12:08:42.39</time>
      </trkpt>
      <trkpt lat="42.52817" lon="2.0745">
        <ele>1717.235226807</ele>
        <time>2000-05-11T12:08:43.39</time>
      </trkpt>
      <trkpt lat="42.52818" lon="2.0745">
        <ele>1718.0677637247</ele>
        <time>2000-05-11T12:08:44.39</time>
      </trkpt>
      <trkpt lat="42.52819" lon="2.0745">
        <ele>1718.7227424264</ele>
        <time>2000-05-11T12:08:45.39</time>
      </trkpt>
      <trkpt lat="42.5282" lon="2.0745">
        <ele>1719.280752812</ele>
        <time>2000-05-11T12:08:46.39</time>
      </trkpt>
      <trkpt lat="42.52822" lon="2.0745">
        <ele>1719.4616735967</ele>
        <time>2000-05-11T12:08:47.39</time>
      </trkpt>
      <trkpt lat="42.52823" lon="2.0745">
        <ele>1719.4195805127</ele>
        <time>2000-05-11T12:08:48.39</time>
      </trkpt>
      <trkpt lat="42.52825" lon="2.0745">
        <ele>1719.2044407723</ele>
        <time>2000-05-11T12:08:49.39</time>
      </trkpt>
      <trkpt lat="42.52826" lon="2.07449">
        <ele>1719.1935010361</ele>
        <time>2000-05-11T12:08:50.39</time>
      </trkpt>
      <trkpt lat="42.52827" lon="2.07449">
        <ele>1719.4525880069</ele>
        <time>2000-05-11T12:08:51.39</time>
      </trkpt>
      <trkpt lat="42.52828" lon="2.07449">
        <ele>1719.9898248866</ele>
        <time>2000-05-11T12:08:52.39</time>
      </trkpt>
      <trkpt lat="42.52829" lon="2.07449">
        <ele>1721.050752476</ele>
        <time>2000-05-11T12:08:53.39</time>
      </trkpt>
      <trkpt lat="42.5283" lon="2.07448">
        <ele>1721.9093388097</ele>
        <time>2000-05-11T12:08:54.39</time>
      </trkpt>
      <trkpt lat="42.52832" lon="2.07448">
        <ele>1722.4920178793</ele>
        <time>2000-05-11T12:08:55.39</time>
      </trkpt>
      <trkpt lat="42.52833" lon="2.07447">
        <ele>1722.7731874121</ele>
        <time>2000-05-11T12:08:56.39</time>
      </trkpt>
      <trkpt lat="42.52834" lon="2.07447">
        <ele>1722.5214267954</ele>
        <time>2000-05-11T12:08:57.39</time>
      </trkpt>
      <trkpt lat="42.52835" lon="2.07447">
        <ele>1721.5553196782</ele>
        <time>2000-05-11T12:08:58.39</time>
      </trkpt>
      <trkpt lat="42.52835" lon="2.07447">
        <ele>1720.3057609878</ele>
        <time>2000-05-11T12:08:59.39</time>
      </trkpt>
      <trkpt lat="42.52836" lon="2.07446">
        <ele>1719.0710883368</ele>
        <time>2000-05-11T12:09:00.39</time>
      </trkpt>
      <trkpt lat="42.52837" lon="2.07446">
        <ele>1717.7888515338</ele>
        <time>2000-05-11T12:09:01.39</time>
      </trkpt>
      <trkpt lat="42.52839" lon="2.07445">
        <ele>1716.7140885988</ele>
        <time>2000-05-11T12:09:02.39</time>
      </trkpt>
      <trkpt lat="42.5284" lon="2.07445">
        <ele>1715.7125260485</ele>
        <time>2000-05-11T12:09:03.39</time>
      </trkpt>
      <trkpt lat="42.52841" lon="2.07444">
        <ele>1715.0320623407</ele>
        <time>2000-05-11T12:09:04.39</time>
      </trkpt>
      <trkpt lat="42.52843" lon="2.07444">
        <ele>1714.922697694</ele>
        <time>2000-05-11T12:09:05.39</time>
      </trkpt>
      <trkpt lat="42.52844" lon="2.07444">
        <ele>1714.7123783628</ele>
        <time>2000-05-11T12:09:06.39</time>
      </trkpt>
      <trkpt lat="42.52844" lon="2.07444">
        <ele>1714.4145702975</ele>
        <time>2000-05-11T12:09:07.39</time>
      </trkpt>
      <trkpt lat="42.52844" lon="2.07444">
        <ele>1714.2912602542</ele>
        <time>2000-05-11T12:09:08.39</time>
      </trkpt>
      <trkpt lat="42.52844" lon="2.07444">
        <ele>1714.3353486275</ele>
        <time>2000-05-11T12:09:09.39</time>
      </trkpt>
      <trkpt lat="42.52845" lon="2.07444">
        <ele>1714.4447273778</ele>
        <time>2000-05-11T12:09:10.40</time>
      </trkpt>
      <trkpt lat="42.52846" lon="2.07444">
        <ele>1714.8162392046</ele>
        <time>2000-05-11T12:09:11.40</time>
      </trkpt>
      <trkpt lat="42.52848" lon="2.07443">
        <ele>1715.3255023345</ele>
        <time>2000-05-11T12:09:12.39</time>
      </trkpt>
      <trkpt lat="42.52848" lon="2.07443">
        <ele>1715.7612072356</ele>
        <time>2000-05-11T12:09:13.39</time>
      </trkpt>
      <trkpt lat="42.52851" lon="2.07442">
        <ele>1715.9206231229</ele>
        <time>2000-05-11T12:09:14.39</time>
      </trkpt>
      <trkpt lat="42.52852" lon="2.0744">
        <ele>1715.7900681088</ele>
        <time>2000-05-11T12:09:15.39</time>
      </trkpt>
      <trkpt lat="42.52853" lon="2.0744">
        <ele>1715.3657933535</ele>
        <time>2000-05-11T12:09:16.39</time>
      </trkpt>
      <trkpt lat="42.52854" lon="2.07439">
        <ele>1714.8850559946</ele>
        <time>2000-05-11T12:09:17.39</time>
      </trkpt>
      <trkpt lat="42.52856" lon="2.07439">
        <ele>1714.2747979943</ele>
        <time>2000-05-11T12:09:18.39</time>
      </trkpt>
      <trkpt lat="42.52857" lon="2.07438">
        <ele>1714.100488566</ele>
        <time>2000-05-11T12:09:19.39</time>
      </trkpt>
      <trkpt lat="42.52858" lon="2.07438">
        <ele>1713.5808457566</ele>
        <time>2000-05-11T12:09:20.39</time>
      </trkpt>
      <trkpt lat="42.52858" lon="2.07438">
        <ele>1713.2051882686</ele>
        <time>2000-05-11T12:09:21.39</time>
      </trkpt>
      <trkpt lat="42.52858" lon="2.07438">
        <ele>1713.0359090146</ele>
        <time>2000-05-11T12:09:22.39</time>
      </trkpt>
      <trkpt lat="42.5286" lon="2.07438">
        <ele>1712.9074725779</ele>
        <time>2000-05-11T12:09:23.39</time>
      </trkpt>
      <trkpt lat="42.52862" lon="2.07437">
        <ele>1712.389652455</ele>
        <time>2000-05-11T12:09:24.39</time>
      </trkpt>
      <trkpt lat="42.52863" lon="2.07437">
        <ele>1712.0328033617</ele>
        <time>2000-05-11T12:09:25.39</time>
      </trkpt>
      <trkpt lat="42.52864" lon="2.07437">
        <ele>1711.8103748875</ele>
        <time>2000-05-11T12:09:26.39</time>
      </trkpt>
      <trkpt lat="42.52865" lon="2.07437">
        <ele>1711.4772909924</ele>
        <time>2000-05-11T12:09:27.39</time>
      </trkpt>
      <trkpt lat="42.52866" lon="2.07437">
        <ele>1711.182259172</ele>
        <time>2000-05-11T12:09:28.39</time>
      </trkpt>
      <trkpt lat="42.52868" lon="2.07437">
        <ele>1711.4169168146</ele>
        <time>2000-05-11T12:09:29.39</time>
      </trkpt>
      <trkpt lat="42.5287" lon="2.07436">
        <ele>1712.006223264</ele>
        <time>2000-05-11T12:09:30.39</time>
      </trkpt>
      <trkpt lat="42.52872" lon="2.07436">
        <ele>1712.5135529891</ele>
        <time>2000-05-11T12:09:31.39</time>
      </trkpt>
      <trkpt lat="42.52874" lon="2.07435">
        <ele>1713.1095605176</ele>
        <time>2000-05-11T12:09:32.39</time>
      </trkpt>
      <trkpt lat="42.52876" lon="2.07435">
        <ele>1713.7477793295</ele>
        <time>2000-05-11T12:09:33.39</time>
      </trkpt>
      <trkpt lat="42.52877" lon="2.07435">
        <ele>1713.894267619</ele>
        <time>2000-05-11T12:09:34.39</time>
      </trkpt>
      <trkpt lat="42.52878" lon="2.07435">
        <ele>1713.6363579208</ele>
        <time>2000-05-11T12:09:35.39</time>
      </trkpt>
      <trkpt lat="42.52879" lon="2.07435">
        <ele>1713.3390155897</ele>
        <time>2000-05-11T12:09:36.39</time>
      </trkpt>
      <trkpt lat="42.5288" lon="2.07434">
        <ele>1713.2793839365</ele>
        <time>2000-05-11T12:09:37.39</time>
      </trkpt>
      <trkpt lat="42.52881" lon="2.07433">
        <ele>1713.5724068195</ele>
        <time>2000-05-11T12:09:38.39</time>
      </trkpt>
      <trkpt lat="42.52882" lon="2.07433">
        <ele>1713.8158661142</ele>
        <time>2000-05-11T12:09:39.39</time>
      </trkpt>
      <trkpt lat="42.52882" lon="2.07433">
        <ele>1713.5576538067</ele>
        <time>2000-05-11T12:09:40.39</time>
      </trkpt>
      <trkpt lat="42.52883" lon="2.07433">
        <ele>1713.3535559501</ele>
        <time>2000-05-11T12:09:41.39</time>
      </trkpt>
      <trkpt lat="42.52884" lon="2.07433">
        <ele>1712.829691557</ele>
        <time>2000-05-11T12:09:42.39</time>
      </trkpt>
      <trkpt lat="42.52886" lon="2.07433">
        <ele>1712.1657260939</ele>
        <time>2000-05-11T12:09:43.39</time>
      </trkpt>
      <trkpt lat="42.52887" lon="2.07433">
        <ele>1711.8086662311</ele>
        <time>2000-05-11T12:09:44.39</time>
      </trkpt>
      <trkpt lat="42.52888" lon="2.07432">
        <ele>1711.9704959171</ele>
        <time>2000-05-11T12:09:45.39</time>
      </trkpt>
      <trkpt lat="42.52889" lon="2.07432">
        <ele>1712.185506293</ele>
        <time>2000-05-11T12:09:46.39</time>
      </trkpt>
      <trkpt lat="42.5289" lon="2.07432">
        <ele>1712.1495116318</ele>
        <time>2000-05-11T12:09:47.39</time>
      </trkpt>
      <trkpt lat="42.52892" lon="2.07432">
        <ele>1711.8179606125</ele>
        <time>2000-05-11T12:09:48.39</time>
      </trkpt>
      <trkpt lat="42.52893" lon="2.07432">
        <ele>1711.2519423066</ele>
        <time>2000-05-11T12:09:49.39</time>
      </trkpt>
      <trkpt lat="42.52894" lon="2.07431">
        <ele>1710.597218794</ele>
        <time>2000-05-11T12:09:50.39</time>
      </trkpt>
      <trkpt lat="42.52895" lon="2.07431">
        <ele>1709.966245278</ele>
        <time>2000-05-11T12:09:51.39</time>
      </trkpt>
      <trkpt lat="42.52896" lon="2.07432">
        <ele>1709.4913609715</ele>
        <time>2000-05-11T12:09:52.39</time>
      </trkpt>
      <trkpt lat="42.52897" lon="2.07431">
        <ele>1709.1723364344</ele>
        <time>2000-05-11T12:09:53.39</time>
      </trkpt>
      <trkpt lat="42.52899" lon="2.07431">
        <ele>1709.0350957988</ele>
        <time>2000-05-11T12:09:54.39</time>
      </trkpt>
      <trkpt lat="42.529" lon="2.07431">
        <ele>1709.0418316754</ele>
        <time>2000-05-11T12:09:55.39</time>
      </trkpt>
      <trkpt lat="42.529" lon="2.07431">
        <ele>1708.9301999884</ele>
        <time>2000-05-11T12:09:56.39</time>
      </trkpt>
      <trkpt lat="42.52901" lon="2.07432">
        <ele>1708.977872288</ele>
        <time>2000-05-11T12:09:57.39</time>
      </trkpt>
      <trkpt lat="42.52903" lon="2.07433">
        <ele>1708.9463585563</ele>
        <time>2000-05-11T12:09:58.39</time>
      </trkpt>
      <trkpt lat="42.52904" lon="2.07433">
        <ele>1709.0705774264</ele>
        <time>2000-05-11T12:09:59.39</time>
      </trkpt>
      <trkpt lat="42.52905" lon="2.07433">
        <ele>1709.3359762637</ele>
        <time>2000-05-11T12:10:00.39</time>
      </trkpt>
      <trkpt lat="42.52907" lon="2.07433">
        <ele>1710.0336364772</ele>
        <time>2000-05-11T12:10:01.39</time>
      </trkpt>
      <trkpt lat="42.52908" lon="2.07433">
        <ele>1710.3111394649</ele>
        <time>2000-05-11T12:10:02.39</time>
      </trkpt>
      <trkpt lat="42.52909" lon="2.07434">
        <ele>1710.6424907178</ele>
        <time>2000-05-11T12:10:03.39</time>
      </trkpt>
      <trkpt lat="42.52909" lon="2.07435">
        <ele>1710.6831255825</ele>
        <time>2000-05-11T12:10:04.39</time>
      </trkpt>
      <trkpt lat="42.5291" lon="2.07435">
        <ele>1710.7014308173</ele>
        <time>2000-05-11T12:10:05.39</time>
      </trkpt>
      <trkpt lat="42.52912" lon="2.07436">
        <ele>1710.9324431378</ele>
        <time>2000-05-11T12:10:06.39</time>
      </trkpt>
      <trkpt lat="42.52914" lon="2.07436">
        <ele>1712.0100352891</ele>
        <time>2000-05-11T12:10:07.39</time>
      </trkpt>
      <trkpt lat="42.52915" lon="2.07437">
        <ele>1713.1528143927</ele>
        <time>2000-05-11T12:10:08.39</time>
      </trkpt>
      <trkpt lat="42.52915" lon="2.07438">
        <ele>1714.3045797199</ele>
        <time>2000-05-11T12:10:09.39</time>
      </trkpt>
      <trkpt lat="42.52916" lon="2.07438">
        <ele>1715.197848117</ele>
        <time>2000-05-11T12:10:10.39</time>
      </trkpt>
      <trkpt lat="42.52917" lon="2.07439">
        <ele>1715.8468684724</ele>
        <time>2000-05-11T12:10:11.39</time>
      </trkpt>
      <trkpt lat="42.52917" lon="2.0744">
        <ele>1715.7813195918</ele>
        <time>2000-05-11T12:10:12.39</time>
      </trkpt>
      <trkpt lat="42.5292" lon="2.0744">
        <ele>1716.0369084103</ele>
        <time>2000-05-11T12:10:13.38</time>
      </trkpt>
      <trkpt lat="42.5292" lon="2.0744">
        <ele>1716.4757949002</ele>
        <time>2000-05-11T12:10:14.38</time>
      </trkpt>
      <trkpt lat="42.52921" lon="2.07441">
        <ele>1716.9799181409</ele>
        <time>2000-05-11T12:10:15.38</time>
      </trkpt>
      <trkpt lat="42.52922" lon="2.07442">
        <ele>1717.1668054571</ele>
        <time>2000-05-11T12:10:16.38</time>
      </trkpt>
      <trkpt lat="42.52923" lon="2.07442">
        <ele>1717.5289575825</ele>
        <time>2000-05-11T12:10:17.38</time>
      </trkpt>
      <trkpt lat="42.52923" lon="2.07444">
        <ele>1717.4448498586</ele>
        <time>2000-05-11T12:10:18.38</time>
      </trkpt>
      <trkpt lat="42.52924" lon="2.07444">
        <ele>1717.4335453061</ele>
        <time>2000-05-11T12:10:19.38</time>
      </trkpt>
      <trkpt lat="42.52926" lon="2.07445">
        <ele>1717.6058336437</ele>
        <time>2000-05-11T12:10:20.38</time>
      </trkpt>
      <trkpt lat="42.52928" lon="2.07446">
        <ele>1717.990464321</ele>
        <time>2000-05-11T12:10:21.38</time>
      </trkpt>
      <trkpt lat="42.52928" lon="2.07447">
        <ele>1718.8147298455</ele>
        <time>2000-05-11T12:10:22.38</time>
      </trkpt>
      <trkpt lat="42.5293" lon="2.07448">
        <ele>1719.742289342</ele>
        <time>2000-05-11T12:10:23.38</time>
      </trkpt>
      <trkpt lat="42.52932" lon="2.07449">
        <ele>1720.1971448656</ele>
        <time>2000-05-11T12:10:24.38</time>
      </trkpt>
      <trkpt lat="42.52933" lon="2.0745">
        <ele>1719.969362871</ele>
        <time>2000-05-11T12:10:25.38</time>
      </trkpt>
      <trkpt lat="42.52934" lon="2.07451">
        <ele>1719.012714172</ele>
        <time>2000-05-11T12:10:26.38</time>
      </trkpt>
      <trkpt lat="42.52934" lon="2.07451">
        <ele>1717.6763967322</ele>
        <time>2000-05-11T12:10:27.38</time>
      </trkpt>
      <trkpt lat="42.52934" lon="2.07451">
        <ele>1716.2576158732</ele>
        <time>2000-05-11T12:10:28.38</time>
      </trkpt>
      <trkpt lat="42.52935" lon="2.07451">
        <ele>1715.5282218534</ele>
        <time>2000-05-11T12:10:29.39</time>
      </trkpt>
      <trkpt lat="42.52937" lon="2.07451">
        <ele>1715.0975304265</ele>
        <time>2000-05-11T12:10:30.39</time>
      </trkpt>
      <trkpt lat="42.52937" lon="2.07452">
        <ele>1715.1850596063</ele>
        <time>2000-05-11T12:10:31.39</time>
      </trkpt>
      <trkpt lat="42.52939" lon="2.07452">
        <ele>1715.6742860399</ele>
        <time>2000-05-11T12:10:32.39</time>
      </trkpt>
      <trkpt lat="42.5294" lon="2.07453">
        <ele>1716.3047335604</ele>
        <time>2000-05-11T12:10:33.39</time>
      </trkpt>
      <trkpt lat="42.52942" lon="2.07453">
        <ele>1716.5957209582</ele>
        <time>2000-05-11T12:10:34.39</time>
      </trkpt>
      <trkpt lat="42.52944" lon="2.07454">
        <ele>1717.1629490836</ele>
        <time>2000-05-11T12:10:35.39</time>
      </trkpt>
      <trkpt lat="42.52946" lon="2.07455">
        <ele>1717.9079441288</ele>
        <time>2000-05-11T12:10:36.39</time>
      </trkpt>
      <trkpt lat="42.52947" lon="2.07456">
        <ele>1718.2257487398</ele>
        <time>2000-05-11T12:10:37.39</time>
      </trkpt>
      <trkpt lat="42.52948" lon="2.07457">
        <ele>1718.556970866</ele>
        <time>2000-05-11T12:10:38.39</time>
      </trkpt>
      <trkpt lat="42.5295" lon="2.07457">
        <ele>1718.9786804093</ele>
        <time>2000-05-11T12:10:39.39</time>
      </trkpt>
      <trkpt lat="42.52951" lon="2.07458">
        <ele>1719.2747793563</ele>
        <time>2000-05-11T12:10:40.39</time>
      </trkpt>
      <trkpt lat="42.52953" lon="2.07459">
        <ele>1719.1282512575</ele>
        <time>2000-05-11T12:10:41.39</time>
      </trkpt>
      <trkpt lat="42.52953" lon="2.07459">
        <ele>1719.0003007371</ele>
        <time>2000-05-11T12:10:42.39</time>
      </trkpt>
      <trkpt lat="42.52953" lon="2.07459">
        <ele>1718.7177116144</ele>
        <time>2000-05-11T12:10:43.39</time>
      </trkpt>
      <trkpt lat="42.52953" lon="2.0746">
        <ele>1718.5034177925</ele>
        <time>2000-05-11T12:10:44.39</time>
      </trkpt>
      <trkpt lat="42.52955" lon="2.07461">
        <ele>1718.3626060326</ele>
        <time>2000-05-11T12:10:45.38</time>
      </trkpt>
      <trkpt lat="42.52956" lon="2.07462">
        <ele>1718.4902392237</ele>
        <time>2000-05-11T12:10:46.38</time>
      </trkpt>
      <trkpt lat="42.52957" lon="2.07462">
        <ele>1718.5998551015</ele>
        <time>2000-05-11T12:10:47.38</time>
      </trkpt>
      <trkpt lat="42.52958" lon="2.07463">
        <ele>1718.8452413106</ele>
        <time>2000-05-11T12:10:48.38</time>
      </trkpt>
      <trkpt lat="42.52959" lon="2.07464">
        <ele>1719.2641399961</ele>
        <time>2000-05-11T12:10:49.38</time>
      </trkpt>
      <trkpt lat="42.5296" lon="2.07464">
        <ele>1719.7903427221</ele>
        <time>2000-05-11T12:10:50.38</time>
      </trkpt>
      <trkpt lat="42.52962" lon="2.07465">
        <ele>1720.4254481429</ele>
        <time>2000-05-11T12:10:51.38</time>
      </trkpt>
      <trkpt lat="42.52962" lon="2.07466">
        <ele>1720.8130747549</ele>
        <time>2000-05-11T12:10:52.38</time>
      </trkpt>
      <trkpt lat="42.52963" lon="2.07466">
        <ele>1721.5567642812</ele>
        <time>2000-05-11T12:10:53.38</time>
      </trkpt>
      <trkpt lat="42.52963" lon="2.07466">
        <ele>1721.5836618874</ele>
        <time>2000-05-11T12:10:54.38</time>
      </trkpt>
      <trkpt lat="42.52964" lon="2.07467">
        <ele>1721.2754533496</ele>
        <time>2000-05-11T12:10:55.38</time>
      </trkpt>
      <trkpt lat="42.52964" lon="2.07468">
        <ele>1720.6240094321</ele>
        <time>2000-05-11T12:10:56.38</time>
      </trkpt>
      <trkpt lat="42.52965" lon="2.07469">
        <ele>1720.2117008923</ele>
        <time>2000-05-11T12:10:57.38</time>
      </trkpt>
      <trkpt lat="42.52966" lon="2.07469">
        <ele>1719.5311683908</ele>
        <time>2000-05-11T12:10:58.38</time>
      </trkpt>
      <trkpt lat="42.52968" lon="2.07469">
        <ele>1719.3046858141</ele>
        <time>2000-05-11T12:10:59.38</time>
      </trkpt>
      <trkpt lat="42.52969" lon="2.0747">
        <ele>1719.3894694956</ele>
        <time>2000-05-11T12:11:00.38</time>
      </trkpt>
      <trkpt lat="42.52971" lon="2.0747">
        <ele>1719.920912154</ele>
        <time>2000-05-11T12:11:01.38</time>
      </trkpt>
      <trkpt lat="42.52972" lon="2.0747">
        <ele>1720.3773951516</ele>
        <time>2000-05-11T12:11:02.38</time>
      </trkpt>
      <trkpt lat="42.52973" lon="2.07471">
        <ele>1720.5925788911</ele>
        <time>2000-05-11T12:11:03.38</time>
      </trkpt>
      <trkpt lat="42.52974" lon="2.07473">
        <ele>1720.4011454998</ele>
        <time>2000-05-11T12:11:04.38</time>
      </trkpt>
      <trkpt lat="42.52975" lon="2.07474">
        <ele>1719.9503410628</ele>
        <time>2000-05-11T12:11:05.38</time>
      </trkpt>
      <trkpt lat="42.52976" lon="2.07475">
        <ele>1719.1370752431</ele>
        <time>2000-05-11T12:11:06.38</time>
      </trkpt>
      <trkpt lat="42.52977" lon="2.07476">
        <ele>1718.2686441299</ele>
        <time>2000-05-11T12:11:07.38</time>
      </trkpt>
      <trkpt lat="42.52978" lon="2.07477">
        <ele>1717.1775147526</ele>
        <time>2000-05-11T12:11:08.38</time>
      </trkpt>
      <trkpt lat="42.52979" lon="2.07478">
        <ele>1716.3877823874</ele>
        <time>2000-05-11T12:11:09.38</time>
      </trkpt>
      <trkpt lat="42.5298" lon="2.07479">
        <ele>1715.8253449004</ele>
        <time>2000-05-11T12:11:10.38</time>
      </trkpt>
      <trkpt lat="42.52981" lon="2.07479">
        <ele>1715.4130274758</ele>
        <time>2000-05-11T12:11:11.38</time>
      </trkpt>
      <trkpt lat="42.52983" lon="2.0748">
        <ele>1715.3636439126</ele>
        <time>2000-05-11T12:11:12.38</time>
      </trkpt>
      <trkpt lat="42.52984" lon="2.07481">
        <ele>1715.6066716971</ele>
        <time>2000-05-11T12:11:13.38</time>
      </trkpt>
      <trkpt lat="42.52985" lon="2.07482">
        <ele>1715.8832994541</ele>
        <time>2000-05-11T12:11:14.38</time>
      </trkpt>
      <trkpt lat="42.52987" lon="2.07482">
        <ele>1716.4109609257</ele>
        <time>2000-05-11T12:11:15.38</time>
      </trkpt>
      <trkpt lat="42.52988" lon="2.07483">
        <ele>1717.2434977803</ele>
        <time>2000-05-11T12:11:16.38</time>
      </trkpt>
      <trkpt lat="42.5299" lon="2.07483">
        <ele>1718.3657779843</ele>
        <time>2000-05-11T12:11:17.38</time>
      </trkpt>
      <trkpt lat="42.52991" lon="2.07484">
        <ele>1719.6802937521</ele>
        <time>2000-05-11T12:11:18.38</time>
      </trkpt>
      <trkpt lat="42.52993" lon="2.07484">
        <ele>1720.9637083419</ele>
        <time>2000-05-11T12:11:19.38</time>
      </trkpt>
      <trkpt lat="42.52994" lon="2.07485">
        <ele>1721.8590178899</ele>
        <time>2000-05-11T12:11:20.38</time>
      </trkpt>
      <trkpt lat="42.52996" lon="2.07486">
        <ele>1722.4709394058</ele>
        <time>2000-05-11T12:11:21.38</time>
      </trkpt>
      <trkpt lat="42.52998" lon="2.07486">
        <ele>1722.8054697251</ele>
        <time>2000-05-11T12:11:22.38</time>
      </trkpt>
      <trkpt lat="42.52998" lon="2.07488">
        <ele>1722.1390666053</ele>
        <time>2000-05-11T12:11:23.38</time>
      </trkpt>
      <trkpt lat="42.52997" lon="2.0749">
        <ele>1721.3204093775</ele>
        <time>2000-05-11T12:11:24.38</time>
      </trkpt>
      <trkpt lat="42.52998" lon="2.0749">
        <ele>1720.510415867</ele>
        <time>2000-05-11T12:11:25.38</time>
      </trkpt>
      <trkpt lat="42.52998" lon="2.07491">
        <ele>1719.632561418</ele>
        <time>2000-05-11T12:11:26.38</time>
      </trkpt>
      <trkpt lat="42.52998" lon="2.07492">
        <ele>1718.9110705249</ele>
        <time>2000-05-11T12:11:27.38</time>
      </trkpt>
      <trkpt lat="42.52998" lon="2.07493">
        <ele>1718.8774193984</ele>
        <time>2000-05-11T12:11:28.38</time>
      </trkpt>
      <trkpt lat="42.52998" lon="2.07495">
        <ele>1718.6093960434</ele>
        <time>2000-05-11T12:11:29.38</time>
      </trkpt>
      <trkpt lat="42.52998" lon="2.07495">
        <ele>1718.4297086433</ele>
        <time>2000-05-11T12:11:30.38</time>
      </trkpt>
      <trkpt lat="42.53" lon="2.07496">
        <ele>1718.3364188582</ele>
        <time>2000-05-11T12:11:31.38</time>
      </trkpt>
      <trkpt lat="42.53001" lon="2.07498">
        <ele>1718.0346542817</ele>
        <time>2000-05-11T12:11:32.38</time>
      </trkpt>
      <trkpt lat="42.53002" lon="2.07499">
        <ele>1717.956693474</ele>
        <time>2000-05-11T12:11:33.38</time>
      </trkpt>
      <trkpt lat="42.53002" lon="2.075">
        <ele>1718.4138410669</ele>
        <time>2000-05-11T12:11:34.38</time>
      </trkpt>
      <trkpt lat="42.53003" lon="2.07501">
        <ele>1718.7464690199</ele>
        <time>2000-05-11T12:11:35.38</time>
      </trkpt>
      <trkpt lat="42.53003" lon="2.07503">
        <ele>1718.8757319529</ele>
        <time>2000-05-11T12:11:36.38</time>
      </trkpt>
      <trkpt lat="42.53004" lon="2.07504">
        <ele>1718.9104677713</ele>
        <time>2000-05-11T12:11:37.38</time>
      </trkpt>
      <trkpt lat="42.53005" lon="2.07505">
        <ele>1718.9175559783</ele>
        <time>2000-05-11T12:11:38.38</time>
      </trkpt>
      <trkpt lat="42.53005" lon="2.07506">
        <ele>1718.8400169581</ele>
        <time>2000-05-11T12:11:39.38</time>
      </trkpt>
      <trkpt lat="42.53006" lon="2.07507">
        <ele>1718.8036802942</ele>
        <time>2000-05-11T12:11:40.38</time>
      </trkpt>
      <trkpt lat="42.53007" lon="2.07507">
        <ele>1718.8615733469</ele>
        <time>2000-05-11T12:11:41.38</time>
      </trkpt>
      <trkpt lat="42.53007" lon="2.07508">
        <ele>1718.8864534674</ele>
        <time>2000-05-11T12:11:42.38</time>
      </trkpt>
      <trkpt lat="42.53008" lon="2.07509">
        <ele>1718.6362938954</ele>
        <time>2000-05-11T12:11:43.38</time>
      </trkpt>
      <trkpt lat="42.53008" lon="2.0751">
        <ele>1718.2596002769</ele>
        <time>2000-05-11T12:11:44.38</time>
      </trkpt>
      <trkpt lat="42.53008" lon="2.07512">
        <ele>1717.7593487764</ele>
        <time>2000-05-11T12:11:45.38</time>
      </trkpt>
      <trkpt lat="42.53008" lon="2.07513">
        <ele>1717.3493559524</ele>
        <time>2000-05-11T12:11:46.38</time>
      </trkpt>
      <trkpt lat="42.53008" lon="2.07514">
        <ele>1716.7942627288</ele>
        <time>2000-05-11T12:11:47.38</time>
      </trkpt>
      <trkpt lat="42.53009" lon="2.07514">
        <ele>1716.2956640203</ele>
        <time>2000-05-11T12:11:48.38</time>
      </trkpt>
      <trkpt lat="42.53009" lon="2.07515">
        <ele>1715.6750925859</ele>
        <time>2000-05-11T12:11:49.38</time>
      </trkpt>
      <trkpt lat="42.53009" lon="2.07516">
        <ele>1715.2715045972</ele>
        <time>2000-05-11T12:11:50.38</time>
      </trkpt>
      <trkpt lat="42.5301" lon="2.07516">
        <ele>1714.8566183241</ele>
        <time>2000-05-11T12:11:51.38</time>
      </trkpt>
      <trkpt lat="42.53011" lon="2.07517">
        <ele>1714.5250986168</ele>
        <time>2000-05-11T12:11:52.38</time>
      </trkpt>
      <trkpt lat="42.53012" lon="2.07519">
        <ele>1714.3310006786</ele>
        <time>2000-05-11T12:11:53.38</time>
      </trkpt>
      <trkpt lat="42.53012" lon="2.0752">
        <ele>1714.1031964015</ele>
        <time>2000-05-11T12:11:54.38</time>
      </trkpt>
      <trkpt lat="42.53012" lon="2.07521">
        <ele>1713.8126910046</ele>
        <time>2000-05-11T12:11:55.38</time>
      </trkpt>
      <trkpt lat="42.53013" lon="2.07522">
        <ele>1713.4873110423</ele>
        <time>2000-05-11T12:11:56.38</time>
      </trkpt>
      <trkpt lat="42.53013" lon="2.07523">
        <ele>1713.2974875087</ele>
        <time>2000-05-11T12:11:57.38</time>
      </trkpt>
      <trkpt lat="42.53013" lon="2.07524">
        <ele>1712.9135006111</ele>
        <time>2000-05-11T12:11:58.38</time>
      </trkpt>
      <trkpt lat="42.53013" lon="2.07526">
        <ele>1712.6819185175</ele>
        <time>2000-05-11T12:11:59.38</time>
      </trkpt>
      <trkpt lat="42.53013" lon="2.07526">
        <ele>1712.5254356109</ele>
        <time>2000-05-11T12:12:00.38</time>
      </trkpt>
      <trkpt lat="42.53014" lon="2.07527">
        <ele>1712.3376707552</ele>
        <time>2000-05-11T12:12:01.38</time>
      </trkpt>
      <trkpt lat="42.53014" lon="2.07527">
        <ele>1711.933797783</ele>
        <time>2000-05-11T12:12:02.39</time>
      </trkpt>
      <trkpt lat="42.53014" lon="2.07529">
        <ele>1711.487114921</ele>
        <time>2000-05-11T12:12:03.39</time>
      </trkpt>
      <trkpt lat="42.53015" lon="2.0753">
        <ele>1711.3024738178</ele>
        <time>2000-05-11T12:12:04.39</time>
      </trkpt>
      <trkpt lat="42.53015" lon="2.07531">
        <ele>1711.3631402206</ele>
        <time>2000-05-11T12:12:05.39</time>
      </trkpt>
      <trkpt lat="42.53016" lon="2.07532">
        <ele>1711.5152227618</ele>
        <time>2000-05-11T12:12:06.39</time>
      </trkpt>
      <trkpt lat="42.53015" lon="2.07533">
        <ele>1711.4472925255</ele>
        <time>2000-05-11T12:12:07.39</time>
      </trkpt>
      <trkpt lat="42.53015" lon="2.07534">
        <ele>1711.2937808385</ele>
        <time>2000-05-11T12:12:08.39</time>
      </trkpt>
      <trkpt lat="42.53015" lon="2.07536">
        <ele>1711.0374395991</ele>
        <time>2000-05-11T12:12:09.39</time>
      </trkpt>
      <trkpt lat="42.53015" lon="2.07538">
        <ele>1710.6134914218</ele>
        <time>2000-05-11T12:12:10.39</time>
      </trkpt>
      <trkpt lat="42.53016" lon="2.07539">
        <ele>1710.1720010642</ele>
        <time>2000-05-11T12:12:11.39</time>
      </trkpt>
      <trkpt lat="42.53016" lon="2.0754">
        <ele>1710.0735675734</ele>
        <time>2000-05-11T12:12:12.39</time>
      </trkpt>
      <trkpt lat="42.53015" lon="2.07541">
        <ele>1710.0823799044</ele>
        <time>2000-05-11T12:12:13.39</time>
      </trkpt>
      <trkpt lat="42.53015" lon="2.07542">
        <ele>1710.1051155852</ele>
        <time>2000-05-11T12:12:14.39</time>
      </trkpt>
      <trkpt lat="42.53015" lon="2.07542">
        <ele>1709.9071962491</ele>
        <time>2000-05-11T12:12:15.39</time>
      </trkpt>
      <trkpt lat="42.53015" lon="2.07543">
        <ele>1709.8785015931</ele>
        <time>2000-05-11T12:12:16.39</time>
      </trkpt>
      <trkpt lat="42.53015" lon="2.07544">
        <ele>1710.0003976068</ele>
        <time>2000-05-11T12:12:17.39</time>
      </trkpt>
      <trkpt lat="42.53014" lon="2.07545">
        <ele>1710.1893552577</ele>
        <time>2000-05-11T12:12:18.42</time>
      </trkpt>
      <trkpt lat="42.53014" lon="2.07546">
        <ele>1710.1081205841</ele>
        <time>2000-05-11T12:12:19.42</time>
      </trkpt>
      <trkpt lat="42.53013" lon="2.07547">
        <ele>1709.9580473587</ele>
        <time>2000-05-11T12:12:20.42</time>
      </trkpt>
      <trkpt lat="42.53013" lon="2.07548">
        <ele>1709.6820202429</ele>
        <time>2000-05-11T12:12:21.42</time>
      </trkpt>
      <trkpt lat="42.53015" lon="2.07548">
        <ele>1709.6723777877</ele>
        <time>2000-05-11T12:12:22.42</time>
      </trkpt>
      <trkpt lat="42.53017" lon="2.07549">
        <ele>1710.3400650358</ele>
        <time>2000-05-11T12:12:23.42</time>
      </trkpt>
      <trkpt lat="42.53017" lon="2.07549">
        <ele>1711.1837111844</ele>
        <time>2000-05-11T12:12:24.42</time>
      </trkpt>
      <trkpt lat="42.53019" lon="2.0755">
        <ele>1712.1263597958</ele>
        <time>2000-05-11T12:12:25.42</time>
      </trkpt>
      <trkpt lat="42.53019" lon="2.0755">
        <ele>1713.0493290167</ele>
        <time>2000-05-11T12:12:26.42</time>
      </trkpt>
      <trkpt lat="42.53019" lon="2.0755">
        <ele>1713.5423309093</ele>
        <time>2000-05-11T12:12:27.42</time>
      </trkpt>
      <trkpt lat="42.53018" lon="2.07551">
        <ele>1713.5737503568</ele>
        <time>2000-05-11T12:12:28.41</time>
      </trkpt>
      <trkpt lat="42.53018" lon="2.07551">
        <ele>1713.6051698042</ele>
        <time>2000-05-11T12:12:29.41</time>
      </trkpt>
      <trkpt lat="42.53018" lon="2.07552">
        <ele>1713.6964641495</ele>
        <time>2000-05-11T12:12:30.40</time>
      </trkpt>
      <trkpt lat="42.53018" lon="2.07552">
        <ele>1713.7877584947</ele>
        <time>2000-05-11T12:12:31.40</time>
      </trkpt>
      <trkpt lat="42.53017" lon="2.07553">
        <ele>1714.5468713708</ele>
        <time>2000-05-11T12:12:32.39</time>
      </trkpt>
      <trkpt lat="42.53017" lon="2.07553">
        <ele>1715.1922864841</ele>
        <time>2000-05-11T12:12:33.39</time>
      </trkpt>
      <trkpt lat="42.53018" lon="2.07554">
        <ele>1716.1837076232</ele>
        <time>2000-05-11T12:12:34.37</time>
      </trkpt>
      <trkpt lat="42.53018" lon="2.07554">
        <ele>1717.1975321798</ele>
        <time>2000-05-11T12:12:35.37</time>
      </trkpt>
      <trkpt lat="42.53019" lon="2.07553">
        <ele>1718.0434212606</ele>
        <time>2000-05-11T12:12:36.38</time>
      </trkpt>
      <trkpt lat="42.53019" lon="2.07553">
        <ele>1718.2214918107</ele>
        <time>2000-05-11T12:12:37.38</time>
      </trkpt>
      <trkpt lat="42.53017" lon="2.07555">
        <ele>1718.2455058293</ele>
        <time>2000-05-11T12:12:38.37</time>
      </trkpt>
      <trkpt lat="42.53017" lon="2.07556">
        <ele>1718.0589527478</ele>
        <time>2000-05-11T12:12:39.37</time>
      </trkpt>
      <trkpt lat="42.53016" lon="2.07556">
        <ele>1717.5153170634</ele>
        <time>2000-05-11T12:12:40.36</time>
      </trkpt>
      <trkpt lat="42.53016" lon="2.07556">
        <ele>1717.1396168547</ele>
        <time>2000-05-11T12:12:41.36</time>
      </trkpt>
      <trkpt lat="42.53015" lon="2.07557">
        <ele>1716.7447587654</ele>
        <time>2000-05-11T12:12:42.35</time>
      </trkpt>
      <trkpt lat="42.53015" lon="2.07557">
        <ele>1716.5039572075</ele>
        <time>2000-05-11T12:12:43.35</time>
      </trkpt>
      <trkpt lat="42.53013" lon="2.07557">
        <ele>1715.8805039849</ele>
        <time>2000-05-11T12:12:44.34</time>
      </trkpt>
      <trkpt lat="42.53012" lon="2.07557">
        <ele>1715.5397455825</ele>
        <time>2000-05-11T12:12:45.34</time>
      </trkpt>
      <trkpt lat="42.53011" lon="2.07556">
        <ele>1715.2565831861</ele>
        <time>2000-05-11T12:12:46.36</time>
      </trkpt>
      <trkpt lat="42.53011" lon="2.07554">
        <ele>1715.0257723767</ele>
        <time>2000-05-11T12:12:47.36</time>
      </trkpt>
      <trkpt lat="42.53011" lon="2.07553">
        <ele>1714.8939809021</ele>
        <time>2000-05-11T12:12:48.36</time>
      </trkpt>
      <trkpt lat="42.53011" lon="2.07551">
        <ele>1714.9727463832</ele>
        <time>2000-05-11T12:12:49.33</time>
      </trkpt>
      <trkpt lat="42.53012" lon="2.07551">
        <ele>1714.8156949395</ele>
        <time>2000-05-11T12:12:50.33</time>
      </trkpt>
      <trkpt lat="42.53012" lon="2.0755">
        <ele>1714.4989680052</ele>
        <time>2000-05-11T12:12:51.33</time>
      </trkpt>
      <trkpt lat="42.53012" lon="2.0755">
        <ele>1714.1490473643</ele>
        <time>2000-05-11T12:12:52.33</time>
      </trkpt>
      <trkpt lat="42.53013" lon="2.07547">
        <ele>1713.9843714399</ele>
        <time>2000-05-11T12:12:53.34</time>
      </trkpt>
      <trkpt lat="42.53013" lon="2.07547">
        <ele>1713.8563512988</ele>
        <time>2000-05-11T12:12:54.34</time>
      </trkpt>
      <trkpt lat="42.53014" lon="2.07547">
        <ele>1714.6527557917</ele>
        <time>2000-05-11T12:12:55.33</time>
      </trkpt>
      <trkpt lat="42.53014" lon="2.07547">
        <ele>1715.5512397692</ele>
        <time>2000-05-11T12:12:56.33</time>
      </trkpt>
      <trkpt lat="42.53012" lon="2.07545">
        <ele>1715.356953885</ele>
        <time>2000-05-11T12:12:57.33</time>
      </trkpt>
      <trkpt lat="42.53012" lon="2.07545">
        <ele>1714.8784039497</ele>
        <time>2000-05-11T12:12:58.33</time>
      </trkpt>
      <trkpt lat="42.53013" lon="2.07544">
        <ele>1714.6116544658</ele>
        <time>2000-05-11T12:12:59.33</time>
      </trkpt>
      <trkpt lat="42.53013" lon="2.07544">
        <ele>1713.7306850556</ele>
        <time>2000-05-11T12:13:00.33</time>
      </trkpt>
      <trkpt lat="42.53013" lon="2.07543">
        <ele>1712.5861110885</ele>
        <time>2000-05-11T12:13:01.39</time>
      </trkpt>
      <trkpt lat="42.53013" lon="2.07543">
        <ele>1712.5343069829</ele>
        <time>2000-05-11T12:13:02.39</time>
      </trkpt>
      <trkpt lat="42.53012" lon="2.0754">
        <ele>1711.6674664369</ele>
        <time>2000-05-11T12:13:03.42</time>
      </trkpt>
      <trkpt lat="42.53011" lon="2.07538">
        <ele>1710.0337894401</ele>
        <time>2000-05-11T12:13:04.42</time>
      </trkpt>
      <trkpt lat="42.5301" lon="2.07537">
        <ele>1707.8538007647</ele>
        <time>2000-05-11T12:13:05.42</time>
      </trkpt>
      <trkpt lat="42.5301" lon="2.07536">
        <ele>1705.6677165024</ele>
        <time>2000-05-11T12:13:06.42</time>
      </trkpt>
      <trkpt lat="42.53009" lon="2.07535">
        <ele>1703.2690903027</ele>
        <time>2000-05-11T12:13:07.42</time>
      </trkpt>
      <trkpt lat="42.53009" lon="2.07535">
        <ele>1701.6855005434</ele>
        <time>2000-05-11T12:13:08.42</time>
      </trkpt>
      <trkpt lat="42.53009" lon="2.07534">
        <ele>1700.210792567</ele>
        <time>2000-05-11T12:13:09.42</time>
      </trkpt>
      <trkpt lat="42.53009" lon="2.07534">
        <ele>1699.2823962692</ele>
        <time>2000-05-11T12:13:10.42</time>
      </trkpt>
      <trkpt lat="42.53009" lon="2.07535">
        <ele>1698.6148344059</ele>
        <time>2000-05-11T12:13:11.41</time>
      </trkpt>
      <trkpt lat="42.53009" lon="2.07535">
        <ele>1698.1598144799</ele>
        <time>2000-05-11T12:13:12.41</time>
      </trkpt>
      <trkpt lat="42.53008" lon="2.07532">
        <ele>1698.0070173381</ele>
        <time>2000-05-11T12:13:13.42</time>
      </trkpt>
      <trkpt lat="42.53008" lon="2.07531">
        <ele>1698.2671277599</ele>
        <time>2000-05-11T12:13:14.42</time>
      </trkpt>
      <trkpt lat="42.53008" lon="2.0753">
        <ele>1698.7167660233</ele>
        <time>2000-05-11T12:13:15.42</time>
      </trkpt>
      <trkpt lat="42.53008" lon="2.07528">
        <ele>1699.2127288789</ele>
        <time>2000-05-11T12:13:16.42</time>
      </trkpt>
      <trkpt lat="42.53008" lon="2.07526">
        <ele>1699.7224834144</ele>
        <time>2000-05-11T12:13:17.42</time>
      </trkpt>
      <trkpt lat="42.53009" lon="2.07525">
        <ele>1700.1852254404</ele>
        <time>2000-05-11T12:13:18.42</time>
      </trkpt>
      <trkpt lat="42.53008" lon="2.07524">
        <ele>1700.6884319223</ele>
        <time>2000-05-11T12:13:19.42</time>
      </trkpt>
      <trkpt lat="42.53008" lon="2.07524">
        <ele>1701.1272702273</ele>
        <time>2000-05-11T12:13:20.42</time>
      </trkpt>
      <trkpt lat="42.53008" lon="2.07522">
        <ele>1702.0262745585</ele>
        <time>2000-05-11T12:13:21.44</time>
      </trkpt>
      <trkpt lat="42.53008" lon="2.07521">
        <ele>1702.681781316</ele>
        <time>2000-05-11T12:13:22.44</time>
      </trkpt>
      <trkpt lat="42.53008" lon="2.07519">
        <ele>1703.2216785349</ele>
        <time>2000-05-11T12:13:23.44</time>
      </trkpt>
      <trkpt lat="42.53009" lon="2.07518">
        <ele>1703.8808817079</ele>
        <time>2000-05-11T12:13:24.44</time>
      </trkpt>
      <trkpt lat="42.53009" lon="2.07517">
        <ele>1704.4812334085</ele>
        <time>2000-05-11T12:13:25.44</time>
      </trkpt>
      <trkpt lat="42.53008" lon="2.07516">
        <ele>1704.9450637929</ele>
        <time>2000-05-11T12:13:26.44</time>
      </trkpt>
      <trkpt lat="42.53008" lon="2.07515">
        <ele>1706.118687666</ele>
        <time>2000-05-11T12:13:27.44</time>
      </trkpt>
      <trkpt lat="42.53007" lon="2.07514">
        <ele>1707.3396596102</ele>
        <time>2000-05-11T12:13:28.44</time>
      </trkpt>
      <trkpt lat="42.53007" lon="2.07513">
        <ele>1708.7082655435</ele>
        <time>2000-05-11T12:13:29.44</time>
      </trkpt>
      <trkpt lat="42.53006" lon="2.07512">
        <ele>1710.5753838573</ele>
        <time>2000-05-11T12:13:30.44</time>
      </trkpt>
      <trkpt lat="42.53006" lon="2.07511">
        <ele>1711.8952884473</ele>
        <time>2000-05-11T12:13:31.44</time>
      </trkpt>
      <trkpt lat="42.53006" lon="2.0751">
        <ele>1712.529420762</ele>
        <time>2000-05-11T12:13:32.44</time>
      </trkpt>
      <trkpt lat="42.53005" lon="2.0751">
        <ele>1713.0937710391</ele>
        <time>2000-05-11T12:13:33.40</time>
      </trkpt>
      <trkpt lat="42.53005" lon="2.07509">
        <ele>1713.2820489254</ele>
        <time>2000-05-11T12:13:34.40</time>
      </trkpt>
      <trkpt lat="42.53004" lon="2.07508">
        <ele>1712.9059874719</ele>
        <time>2000-05-11T12:13:35.40</time>
      </trkpt>
      <trkpt lat="42.53003" lon="2.07506">
        <ele>1712.4434495248</ele>
        <time>2000-05-11T12:13:36.40</time>
      </trkpt>
      <trkpt lat="42.53003" lon="2.07505">
        <ele>1711.8810609143</ele>
        <time>2000-05-11T12:13:37.40</time>
      </trkpt>
      <trkpt lat="42.53002" lon="2.07504">
        <ele>1710.9839746259</ele>
        <time>2000-05-11T12:13:38.40</time>
      </trkpt>
      <trkpt lat="42.53002" lon="2.07503">
        <ele>1710.1368848553</ele>
        <time>2000-05-11T12:13:39.40</time>
      </trkpt>
      <trkpt lat="42.53002" lon="2.07502">
        <ele>1709.4719423424</ele>
        <time>2000-05-11T12:13:40.40</time>
      </trkpt>
      <trkpt lat="42.53002" lon="2.07501">
        <ele>1709.2519020366</ele>
        <time>2000-05-11T12:13:41.40</time>
      </trkpt>
      <trkpt lat="42.53001" lon="2.07501">
        <ele>1709.3643188965</ele>
        <time>2000-05-11T12:13:42.40</time>
      </trkpt>
      <trkpt lat="42.53" lon="2.07501">
        <ele>1710.5192541964</ele>
        <time>2000-05-11T12:13:43.40</time>
      </trkpt>
      <trkpt lat="42.52998" lon="2.075">
        <ele>1710.5783534484</ele>
        <time>2000-05-11T12:13:44.43</time>
      </trkpt>
      <trkpt lat="42.52998" lon="2.075">
        <ele>1710.45482421</ele>
        <time>2000-05-11T12:13:45.43</time>
      </trkpt>
      <trkpt lat="42.52997" lon="2.07498">
        <ele>1710.1578612201</ele>
        <time>2000-05-11T12:13:46.44</time>
      </trkpt>
      <trkpt lat="42.52996" lon="2.07498">
        <ele>1709.8544259524</ele>
        <time>2000-05-11T12:13:47.44</time>
      </trkpt>
      <trkpt lat="42.52994" lon="2.07497">
        <ele>1708.438736889</ele>
        <time>2000-05-11T12:13:48.44</time>
      </trkpt>
      <trkpt lat="42.52993" lon="2.07495">
        <ele>1708.096072291</ele>
        <time>2000-05-11T12:13:49.44</time>
      </trkpt>
      <trkpt lat="42.52992" lon="2.07494">
        <ele>1708.0992519872</ele>
        <time>2000-05-11T12:13:50.44</time>
      </trkpt>
      <trkpt lat="42.52991" lon="2.07493">
        <ele>1708.4836471697</ele>
        <time>2000-05-11T12:13:51.44</time>
      </trkpt>
      <trkpt lat="42.52991" lon="2.07492">
        <ele>1708.9477166232</ele>
        <time>2000-05-11T12:13:52.44</time>
      </trkpt>
      <trkpt lat="42.5299" lon="2.07491">
        <ele>1709.8753986426</ele>
        <time>2000-05-11T12:13:53.44</time>
      </trkpt>
      <trkpt lat="42.5299" lon="2.0749">
        <ele>1711.3439562855</ele>
        <time>2000-05-11T12:13:54.44</time>
      </trkpt>
      <trkpt lat="42.52989" lon="2.0749">
        <ele>1712.5028588193</ele>
        <time>2000-05-11T12:13:55.44</time>
      </trkpt>
      <trkpt lat="42.52987" lon="2.07489">
        <ele>1713.141944143</ele>
        <time>2000-05-11T12:13:56.44</time>
      </trkpt>
      <trkpt lat="42.52986" lon="2.07489">
        <ele>1713.7186110234</ele>
        <time>2000-05-11T12:13:57.44</time>
      </trkpt>
      <trkpt lat="42.52985" lon="2.07489">
        <ele>1713.9548121294</ele>
        <time>2000-05-11T12:13:58.44</time>
      </trkpt>
      <trkpt lat="42.52984" lon="2.07489">
        <ele>1713.4486190015</ele>
        <time>2000-05-11T12:13:59.44</time>
      </trkpt>
      <trkpt lat="42.52983" lon="2.07488">
        <ele>1712.6203909868</ele>
        <time>2000-05-11T12:14:00.44</time>
      </trkpt>
      <trkpt lat="42.52981" lon="2.07487">
        <ele>1711.7782069774</ele>
        <time>2000-05-11T12:14:01.44</time>
      </trkpt>
      <trkpt lat="42.5298" lon="2.07486">
        <ele>1710.5658026146</ele>
        <time>2000-05-11T12:14:02.44</time>
      </trkpt>
      <trkpt lat="42.52979" lon="2.07485">
        <ele>1709.4290641923</ele>
        <time>2000-05-11T12:14:03.44</time>
      </trkpt>
      <trkpt lat="42.52978" lon="2.07485">
        <ele>1708.6424011482</ele>
        <time>2000-05-11T12:14:04.44</time>
      </trkpt>
      <trkpt lat="42.52977" lon="2.07484">
        <ele>1707.7737074127</ele>
        <time>2000-05-11T12:14:05.44</time>
      </trkpt>
      <trkpt lat="42.52975" lon="2.07483">
        <ele>1707.727119934</ele>
        <time>2000-05-11T12:14:06.44</time>
      </trkpt>
      <trkpt lat="42.52974" lon="2.07481">
        <ele>1708.2065253403</ele>
        <time>2000-05-11T12:14:07.44</time>
      </trkpt>
      <trkpt lat="42.52973" lon="2.0748">
        <ele>1708.8711603105</ele>
        <time>2000-05-11T12:14:08.44</time>
      </trkpt>
      <trkpt lat="42.52972" lon="2.07479">
        <ele>1709.5785846325</ele>
        <time>2000-05-11T12:14:09.44</time>
      </trkpt>
      <trkpt lat="42.52971" lon="2.07478">
        <ele>1710.8607627157</ele>
        <time>2000-05-11T12:14:10.44</time>
      </trkpt>
      <trkpt lat="42.5297" lon="2.07477">
        <ele>1711.3457184197</ele>
        <time>2000-05-11T12:14:11.44</time>
      </trkpt>
      <trkpt lat="42.52969" lon="2.07476">
        <ele>1711.5509126807</ele>
        <time>2000-05-11T12:14:12.44</time>
      </trkpt>
      <trkpt lat="42.52969" lon="2.07476">
        <ele>1711.3297854193</ele>
        <time>2000-05-11T12:14:13.44</time>
      </trkpt>
      <trkpt lat="42.52968" lon="2.07476">
        <ele>1710.8196953528</ele>
        <time>2000-05-11T12:14:14.44</time>
      </trkpt>
      <trkpt lat="42.52966" lon="2.07476">
        <ele>1710.5871756237</ele>
        <time>2000-05-11T12:14:15.44</time>
      </trkpt>
      <trkpt lat="42.52966" lon="2.07475">
        <ele>1710.3852343261</ele>
        <time>2000-05-11T12:14:16.44</time>
      </trkpt>
      <trkpt lat="42.52965" lon="2.07474">
        <ele>1710.7397540264</ele>
        <time>2000-05-11T12:14:17.44</time>
      </trkpt>
      <trkpt lat="42.52964" lon="2.07472">
        <ele>1711.3648138057</ele>
        <time>2000-05-11T12:14:18.44</time>
      </trkpt>
      <trkpt lat="42.52963" lon="2.07472">
        <ele>1711.8545476254</ele>
        <time>2000-05-11T12:14:19.44</time>
      </trkpt>
      <trkpt lat="42.52962" lon="2.07471">
        <ele>1711.7024447097</ele>
        <time>2000-05-11T12:14:20.44</time>
      </trkpt>
      <trkpt lat="42.5296" lon="2.07471">
        <ele>1711.3843560645</ele>
        <time>2000-05-11T12:14:21.44</time>
      </trkpt>
      <trkpt lat="42.52958" lon="2.07472">
        <ele>1710.0217152927</ele>
        <time>2000-05-11T12:14:22.44</time>
      </trkpt>
      <trkpt lat="42.52956" lon="2.07472">
        <ele>1708.8849645179</ele>
        <time>2000-05-11T12:14:23.44</time>
      </trkpt>
      <trkpt lat="42.52954" lon="2.07472">
        <ele>1708.6489476468</ele>
        <time>2000-05-11T12:14:24.44</time>
      </trkpt>
      <trkpt lat="42.52953" lon="2.07471">
        <ele>1708.960614269</ele>
        <time>2000-05-11T12:14:25.44</time>
      </trkpt>
      <trkpt lat="42.52952" lon="2.07471">
        <ele>1709.7537313668</ele>
        <time>2000-05-11T12:14:26.44</time>
      </trkpt>
      <trkpt lat="42.52951" lon="2.0747">
        <ele>1711.2279299185</ele>
        <time>2000-05-11T12:14:27.44</time>
      </trkpt>
      <trkpt lat="42.5295" lon="2.0747">
        <ele>1712.5473269191</ele>
        <time>2000-05-11T12:14:28.44</time>
      </trkpt>
      <trkpt lat="42.52949" lon="2.07469">
        <ele>1713.2415849512</ele>
        <time>2000-05-11T12:14:29.44</time>
      </trkpt>
      <trkpt lat="42.52949" lon="2.07469">
        <ele>1713.5455485202</ele>
        <time>2000-05-11T12:14:30.44</time>
      </trkpt>
      <trkpt lat="42.52947" lon="2.07468">
        <ele>1713.0574212659</ele>
        <time>2000-05-11T12:14:31.40</time>
      </trkpt>
      <trkpt lat="42.52945" lon="2.07466">
        <ele>1712.2439274957</ele>
        <time>2000-05-11T12:14:32.40</time>
      </trkpt>
      <trkpt lat="42.52944" lon="2.07465">
        <ele>1711.3014271442</ele>
        <time>2000-05-11T12:14:33.40</time>
      </trkpt>
      <trkpt lat="42.52943" lon="2.07464">
        <ele>1710.6366624229</ele>
        <time>2000-05-11T12:14:34.40</time>
      </trkpt>
      <trkpt lat="42.52941" lon="2.07464">
        <ele>1709.8719262587</ele>
        <time>2000-05-11T12:14:35.40</time>
      </trkpt>
      <trkpt lat="42.5294" lon="2.07464">
        <ele>1709.8197451176</ele>
        <time>2000-05-11T12:14:36.40</time>
      </trkpt>
      <trkpt lat="42.52939" lon="2.07463">
        <ele>1710.0545242637</ele>
        <time>2000-05-11T12:14:37.40</time>
      </trkpt>
      <trkpt lat="42.52938" lon="2.07463">
        <ele>1710.3924479933</ele>
        <time>2000-05-11T12:14:38.40</time>
      </trkpt>
      <trkpt lat="42.52937" lon="2.07462">
        <ele>1710.4386545513</ele>
        <time>2000-05-11T12:14:39.40</time>
      </trkpt>
      <trkpt lat="42.52936" lon="2.07461">
        <ele>1710.5217862919</ele>
        <time>2000-05-11T12:14:40.40</time>
      </trkpt>
      <trkpt lat="42.52935" lon="2.0746">
        <ele>1710.3865356971</ele>
        <time>2000-05-11T12:14:41.40</time>
      </trkpt>
      <trkpt lat="42.52934" lon="2.07459">
        <ele>1710.3484030077</ele>
        <time>2000-05-11T12:14:42.40</time>
      </trkpt>
      <trkpt lat="42.52932" lon="2.07459">
        <ele>1710.4816104477</ele>
        <time>2000-05-11T12:14:43.40</time>
      </trkpt>
      <trkpt lat="42.52931" lon="2.07459">
        <ele>1710.8640448023</ele>
        <time>2000-05-11T12:14:44.40</time>
      </trkpt>
      <trkpt lat="42.52929" lon="2.07459">
        <ele>1711.0930863112</ele>
        <time>2000-05-11T12:14:45.40</time>
      </trkpt>
      <trkpt lat="42.52928" lon="2.07459">
        <ele>1711.5748876106</ele>
        <time>2000-05-11T12:14:46.40</time>
      </trkpt>
      <trkpt lat="42.52927" lon="2.0746">
        <ele>1712.1236037221</ele>
        <time>2000-05-11T12:14:47.40</time>
      </trkpt>
      <trkpt lat="42.52926" lon="2.0746">
        <ele>1712.5410054537</ele>
        <time>2000-05-11T12:14:48.40</time>
      </trkpt>
      <trkpt lat="42.52925" lon="2.0746">
        <ele>1712.6751530016</ele>
        <time>2000-05-11T12:14:49.40</time>
      </trkpt>
      <trkpt lat="42.52925" lon="2.0746">
        <ele>1712.9697371943</ele>
        <time>2000-05-11T12:14:50.40</time>
      </trkpt>
      <trkpt lat="42.52924" lon="2.07459">
        <ele>1713.1346902767</ele>
        <time>2000-05-11T12:14:51.40</time>
      </trkpt>
      <trkpt lat="42.52923" lon="2.07458">
        <ele>1713.1934115481</ele>
        <time>2000-05-11T12:14:52.40</time>
      </trkpt>
      <trkpt lat="42.52922" lon="2.07457">
        <ele>1713.2746919485</ele>
        <time>2000-05-11T12:14:53.40</time>
      </trkpt>
      <trkpt lat="42.52921" lon="2.07456">
        <ele>1713.7908713637</ele>
        <time>2000-05-11T12:14:54.40</time>
      </trkpt>
      <trkpt lat="42.5292" lon="2.07455">
        <ele>1714.5356265463</ele>
        <time>2000-05-11T12:14:55.40</time>
      </trkpt>
      <trkpt lat="42.52919" lon="2.07453">
        <ele>1715.3465450712</ele>
        <time>2000-05-11T12:14:56.40</time>
      </trkpt>
      <trkpt lat="42.52918" lon="2.07452">
        <ele>1716.0599179061</ele>
        <time>2000-05-11T12:14:57.40</time>
      </trkpt>
      <trkpt lat="42.52917" lon="2.07452">
        <ele>1716.6792305643</ele>
        <time>2000-05-11T12:14:58.40</time>
      </trkpt>
      <trkpt lat="42.52915" lon="2.07451">
        <ele>1716.6416483622</ele>
        <time>2000-05-11T12:14:59.40</time>
      </trkpt>
      <trkpt lat="42.52915" lon="2.0745">
        <ele>1716.2488740055</ele>
        <time>2000-05-11T12:15:00.40</time>
      </trkpt>
      <trkpt lat="42.52914" lon="2.0745">
        <ele>1715.1826805489</ele>
        <time>2000-05-11T12:15:01.40</time>
      </trkpt>
      <trkpt lat="42.52912" lon="2.07449">
        <ele>1713.7759579903</ele>
        <time>2000-05-11T12:15:02.40</time>
      </trkpt>
      <trkpt lat="42.52911" lon="2.07448">
        <ele>1712.4463016191</ele>
        <time>2000-05-11T12:15:03.40</time>
      </trkpt>
      <trkpt lat="42.52911" lon="2.07446">
        <ele>1711.9246115487</ele>
        <time>2000-05-11T12:15:04.40</time>
      </trkpt>
      <trkpt lat="42.52911" lon="2.07444">
        <ele>1711.6451245051</ele>
        <time>2000-05-11T12:15:05.40</time>
      </trkpt>
      <trkpt lat="42.52911" lon="2.07441">
        <ele>1712.2698084045</ele>
        <time>2000-05-11T12:15:06.40</time>
      </trkpt>
      <trkpt lat="42.52911" lon="2.07439">
        <ele>1713.4147925416</ele>
        <time>2000-05-11T12:15:07.40</time>
      </trkpt>
      <trkpt lat="42.52911" lon="2.07437">
        <ele>1714.5496022938</ele>
        <time>2000-05-11T12:15:08.40</time>
      </trkpt>
      <trkpt lat="42.52911" lon="2.07435">
        <ele>1715.4344520209</ele>
        <time>2000-05-11T12:15:09.40</time>
      </trkpt>
      <trkpt lat="42.52912" lon="2.07433">
        <ele>1715.7218647409</ele>
        <time>2000-05-11T12:15:10.40</time>
      </trkpt>
      <trkpt lat="42.52912" lon="2.07432">
        <ele>1716.078328702</ele>
        <time>2000-05-11T12:15:11.40</time>
      </trkpt>
      <trkpt lat="42.52912" lon="2.07432">
        <ele>1715.6760841407</ele>
        <time>2000-05-11T12:15:12.40</time>
      </trkpt>
      <trkpt lat="42.52912" lon="2.07432">
        <ele>1715.2522020383</ele>
        <time>2000-05-11T12:15:13.40</time>
      </trkpt>
      <trkpt lat="42.52913" lon="2.0743">
        <ele>1714.9486856811</ele>
        <time>2000-05-11T12:15:14.41</time>
      </trkpt>
      <trkpt lat="42.52913" lon="2.07428">
        <ele>1715.6825421611</ele>
        <time>2000-05-11T12:15:15.41</time>
      </trkpt>
      <trkpt lat="42.52914" lon="2.07426">
        <ele>1716.2031240689</ele>
        <time>2000-05-11T12:15:16.41</time>
      </trkpt>
      <trkpt lat="42.52913" lon="2.07424">
        <ele>1717.616435381</ele>
        <time>2000-05-11T12:15:17.41</time>
      </trkpt>
      <trkpt lat="42.52913" lon="2.07421">
        <ele>1718.8988815468</ele>
        <time>2000-05-11T12:15:18.41</time>
      </trkpt>
      <trkpt lat="42.52912" lon="2.0742">
        <ele>1719.9829186058</ele>
        <time>2000-05-11T12:15:19.41</time>
      </trkpt>
      <trkpt lat="42.52913" lon="2.07418">
        <ele>1720.8280129353</ele>
        <time>2000-05-11T12:15:20.41</time>
      </trkpt>
      <trkpt lat="42.52913" lon="2.07416">
        <ele>1721.5413419448</ele>
        <time>2000-05-11T12:15:21.41</time>
      </trkpt>
      <trkpt lat="42.52913" lon="2.07415">
        <ele>1721.9068139287</ele>
        <time>2000-05-11T12:15:22.41</time>
      </trkpt>
      <trkpt lat="42.52913" lon="2.07415">
        <ele>1722.403151059</ele>
        <time>2000-05-11T12:15:23.41</time>
      </trkpt>
      <trkpt lat="42.52913" lon="2.07414">
        <ele>1722.8051689936</ele>
        <time>2000-05-11T12:15:24.41</time>
      </trkpt>
      <trkpt lat="42.52914" lon="2.07412">
        <ele>1723.1947096244</ele>
        <time>2000-05-11T12:15:25.41</time>
      </trkpt>
      <trkpt lat="42.52914" lon="2.07411">
        <ele>1723.32374555</ele>
        <time>2000-05-11T12:15:26.41</time>
      </trkpt>
      <trkpt lat="42.52915" lon="2.07409">
        <ele>1724.2457067877</ele>
        <time>2000-05-11T12:15:27.41</time>
      </trkpt>
      <trkpt lat="42.52916" lon="2.07406">
        <ele>1725.6955930315</ele>
        <time>2000-05-11T12:15:28.41</time>
      </trkpt>
      <trkpt lat="42.52916" lon="2.07404">
        <ele>1726.8864645481</ele>
        <time>2000-05-11T12:15:29.41</time>
      </trkpt>
      <trkpt lat="42.52917" lon="2.07403">
        <ele>1727.247786146</ele>
        <time>2000-05-11T12:15:30.41</time>
      </trkpt>
      <trkpt lat="42.52918" lon="2.07403">
        <ele>1727.0467212806</ele>
        <time>2000-05-11T12:15:31.41</time>
      </trkpt>
      <trkpt lat="42.52918" lon="2.07401">
        <ele>1725.68196478</ele>
        <time>2000-05-11T12:15:32.41</time>
      </trkpt>
      <trkpt lat="42.52919" lon="2.07401">
        <ele>1723.6326941986</ele>
        <time>2000-05-11T12:15:33.41</time>
      </trkpt>
      <trkpt lat="42.5292" lon="2.074">
        <ele>1721.9304685757</ele>
        <time>2000-05-11T12:15:34.41</time>
      </trkpt>
      <trkpt lat="42.5292" lon="2.07399">
        <ele>1720.8754070172</ele>
        <time>2000-05-11T12:15:35.41</time>
      </trkpt>
      <trkpt lat="42.5292" lon="2.07398">
        <ele>1720.4526107954</ele>
        <time>2000-05-11T12:15:36.41</time>
      </trkpt>
      <trkpt lat="42.52922" lon="2.07397">
        <ele>1719.6712603811</ele>
        <time>2000-05-11T12:15:37.41</time>
      </trkpt>
      <trkpt lat="42.52923" lon="2.07395">
        <ele>1719.0011490105</ele>
        <time>2000-05-11T12:15:38.41</time>
      </trkpt>
      <trkpt lat="42.52923" lon="2.07393">
        <ele>1718.1787489682</ele>
        <time>2000-05-11T12:15:39.41</time>
      </trkpt>
      <trkpt lat="42.52922" lon="2.07392">
        <ele>1716.3114016928</ele>
        <time>2000-05-11T12:15:40.41</time>
      </trkpt>
      <trkpt lat="42.52923" lon="2.07391">
        <ele>1714.4398861673</ele>
        <time>2000-05-11T12:15:41.41</time>
      </trkpt>
      <trkpt lat="42.52924" lon="2.0739">
        <ele>1712.5302891072</ele>
        <time>2000-05-11T12:15:42.41</time>
      </trkpt>
      <trkpt lat="42.52925" lon="2.07388">
        <ele>1710.5725633087</ele>
        <time>2000-05-11T12:15:43.41</time>
      </trkpt>
      <trkpt lat="42.52925" lon="2.07386">
        <ele>1708.5556453945</ele>
        <time>2000-05-11T12:15:44.41</time>
      </trkpt>
      <trkpt lat="42.52925" lon="2.07385">
        <ele>1707.3574116305</ele>
        <time>2000-05-11T12:15:45.41</time>
      </trkpt>
      <trkpt lat="42.52925" lon="2.07383">
        <ele>1706.1797667857</ele>
        <time>2000-05-11T12:15:46.41</time>
      </trkpt>
      <trkpt lat="42.52926" lon="2.07382">
        <ele>1705.6544421559</ele>
        <time>2000-05-11T12:15:47.41</time>
      </trkpt>
      <trkpt lat="42.52926" lon="2.07381">
        <ele>1705.4281355055</ele>
        <time>2000-05-11T12:15:48.41</time>
      </trkpt>
      <trkpt lat="42.52927" lon="2.0738">
        <ele>1705.3162284626</ele>
        <time>2000-05-11T12:15:49.41</time>
      </trkpt>
      <trkpt lat="42.52929" lon="2.07379">
        <ele>1705.6327789353</ele>
        <time>2000-05-11T12:15:50.41</time>
      </trkpt>
      <trkpt lat="42.5293" lon="2.07378">
        <ele>1706.5288500184</ele>
        <time>2000-05-11T12:15:51.41</time>
      </trkpt>
      <trkpt lat="42.5293" lon="2.07375">
        <ele>1707.6054477682</ele>
        <time>2000-05-11T12:15:52.41</time>
      </trkpt>
      <trkpt lat="42.52931" lon="2.07373">
        <ele>1708.7134356167</ele>
        <time>2000-05-11T12:15:53.41</time>
      </trkpt>
      <trkpt lat="42.52931" lon="2.07371">
        <ele>1710.0687655212</ele>
        <time>2000-05-11T12:15:54.41</time>
      </trkpt>
      <trkpt lat="42.52931" lon="2.0737">
        <ele>1711.0137283195</ele>
        <time>2000-05-11T12:15:55.41</time>
      </trkpt>
      <trkpt lat="42.52932" lon="2.07366">
        <ele>1712.0643186202</ele>
        <time>2000-05-11T12:15:56.41</time>
      </trkpt>
      <trkpt lat="42.52932" lon="2.07363">
        <ele>1713.3146352578</ele>
        <time>2000-05-11T12:15:57.41</time>
      </trkpt>
      <trkpt lat="42.52932" lon="2.07363">
        <ele>1714.3087288553</ele>
        <time>2000-05-11T12:15:58.41</time>
      </trkpt>
      <trkpt lat="42.52933" lon="2.07362">
        <ele>1714.9475571845</ele>
        <time>2000-05-11T12:15:59.41</time>
      </trkpt>
      <trkpt lat="42.52934" lon="2.07361">
        <ele>1715.752398148</ele>
        <time>2000-05-11T12:16:00.41</time>
      </trkpt>
      <trkpt lat="42.52935" lon="2.0736">
        <ele>1715.9565908082</ele>
        <time>2000-05-11T12:16:01.41</time>
      </trkpt>
      <trkpt lat="42.52935" lon="2.07358">
        <ele>1715.8956700167</ele>
        <time>2000-05-11T12:16:02.41</time>
      </trkpt>
      <trkpt lat="42.52936" lon="2.07358">
        <ele>1715.7415685322</ele>
        <time>2000-05-11T12:16:03.41</time>
      </trkpt>
      <trkpt lat="42.52937" lon="2.07357">
        <ele>1715.7367973624</ele>
        <time>2000-05-11T12:16:04.41</time>
      </trkpt>
      <trkpt lat="42.52938" lon="2.07356">
        <ele>1715.5693288777</ele>
        <time>2000-05-11T12:16:05.41</time>
      </trkpt>
      <trkpt lat="42.52939" lon="2.07355">
        <ele>1715.3049061241</ele>
        <time>2000-05-11T12:16:06.41</time>
      </trkpt>
      <trkpt lat="42.5294" lon="2.07354">
        <ele>1715.1583132708</ele>
        <time>2000-05-11T12:16:07.41</time>
      </trkpt>
      <trkpt lat="42.52941" lon="2.07353">
        <ele>1715.0966446983</ele>
        <time>2000-05-11T12:16:08.41</time>
      </trkpt>
      <trkpt lat="42.52941" lon="2.07352">
        <ele>1714.8311690157</ele>
        <time>2000-05-11T12:16:09.41</time>
      </trkpt>
      <trkpt lat="42.52942" lon="2.07352">
        <ele>1714.6621598719</ele>
        <time>2000-05-11T12:16:10.41</time>
      </trkpt>
      <trkpt lat="42.52942" lon="2.07351">
        <ele>1714.2850253837</ele>
        <time>2000-05-11T12:16:11.41</time>
      </trkpt>
      <trkpt lat="42.52943" lon="2.07351">
        <ele>1713.1835313259</ele>
        <time>2000-05-11T12:16:12.41</time>
      </trkpt>
      <trkpt lat="42.52944" lon="2.0735">
        <ele>1712.2585441962</ele>
        <time>2000-05-11T12:16:13.41</time>
      </trkpt>
      <trkpt lat="42.52945" lon="2.07349">
        <ele>1711.6307472693</ele>
        <time>2000-05-11T12:16:14.41</time>
      </trkpt>
      <trkpt lat="42.52946" lon="2.07348">
        <ele>1710.916081295</ele>
        <time>2000-05-11T12:16:15.41</time>
      </trkpt>
      <trkpt lat="42.52947" lon="2.07347">
        <ele>1710.531901988</ele>
        <time>2000-05-11T12:16:16.41</time>
      </trkpt>
      <trkpt lat="42.52948" lon="2.07346">
        <ele>1710.7380776603</ele>
        <time>2000-05-11T12:16:17.41</time>
      </trkpt>
      <trkpt lat="42.52949" lon="2.07345">
        <ele>1710.5680299006</ele>
        <time>2000-05-11T12:16:18.41</time>
      </trkpt>
      <trkpt lat="42.52949" lon="2.07344">
        <ele>1710.1015966857</ele>
        <time>2000-05-11T12:16:19.41</time>
      </trkpt>
      <trkpt lat="42.5295" lon="2.07341">
        <ele>1709.7741525324</ele>
        <time>2000-05-11T12:16:20.41</time>
      </trkpt>
      <trkpt lat="42.5295" lon="2.0734">
        <ele>1709.5296314312</ele>
        <time>2000-05-11T12:16:21.41</time>
      </trkpt>
      <trkpt lat="42.52951" lon="2.07339">
        <ele>1709.2049456196</ele>
        <time>2000-05-11T12:16:22.41</time>
      </trkpt>
      <trkpt lat="42.52952" lon="2.07337">
        <ele>1709.3256757053</ele>
        <time>2000-05-11T12:16:23.41</time>
      </trkpt>
      <trkpt lat="42.52953" lon="2.07336">
        <ele>1709.5571839184</ele>
        <time>2000-05-11T12:16:24.41</time>
      </trkpt>
      <trkpt lat="42.52953" lon="2.07336">
        <ele>1709.7288446255</ele>
        <time>2000-05-11T12:16:25.41</time>
      </trkpt>
      <trkpt lat="42.52954" lon="2.07335">
        <ele>1710.0077651531</ele>
        <time>2000-05-11T12:16:26.41</time>
      </trkpt>
      <trkpt lat="42.52956" lon="2.07334">
        <ele>1710.8522618191</ele>
        <time>2000-05-11T12:16:27.41</time>
      </trkpt>
      <trkpt lat="42.52957" lon="2.07333">
        <ele>1711.5091974681</ele>
        <time>2000-05-11T12:16:28.41</time>
      </trkpt>
      <trkpt lat="42.52957" lon="2.07331">
        <ele>1711.8633774357</ele>
        <time>2000-05-11T12:16:29.41</time>
      </trkpt>
      <trkpt lat="42.52958" lon="2.0733">
        <ele>1712.2336441703</ele>
        <time>2000-05-11T12:16:30.41</time>
      </trkpt>
      <trkpt lat="42.52959" lon="2.0733">
        <ele>1712.5131220588</ele>
        <time>2000-05-11T12:16:31.41</time>
      </trkpt>
      <trkpt lat="42.5296" lon="2.0733">
        <ele>1712.342116469</ele>
        <time>2000-05-11T12:16:32.41</time>
      </trkpt>
      <trkpt lat="42.52961" lon="2.07329">
        <ele>1712.3653997287</ele>
        <time>2000-05-11T12:16:33.41</time>
      </trkpt>
      <trkpt lat="42.52962" lon="2.07329">
        <ele>1712.7535516506</ele>
        <time>2000-05-11T12:16:34.41</time>
      </trkpt>
      <trkpt lat="42.52963" lon="2.07328">
        <ele>1713.1905054752</ele>
        <time>2000-05-11T12:16:35.41</time>
      </trkpt>
      <trkpt lat="42.52963" lon="2.07326">
        <ele>1713.5935745781</ele>
        <time>2000-05-11T12:16:36.41</time>
      </trkpt>
      <trkpt lat="42.52964" lon="2.07325">
        <ele>1713.95424935</ele>
        <time>2000-05-11T12:16:37.41</time>
      </trkpt>
      <trkpt lat="42.52965" lon="2.07324">
        <ele>1714.1347145963</ele>
        <time>2000-05-11T12:16:38.41</time>
      </trkpt>
      <trkpt lat="42.52965" lon="2.07323">
        <ele>1713.9991808794</ele>
        <time>2000-05-11T12:16:39.41</time>
      </trkpt>
      <trkpt lat="42.52965" lon="2.07322">
        <ele>1713.8033078808</ele>
        <time>2000-05-11T12:16:40.41</time>
      </trkpt>
      <trkpt lat="42.52966" lon="2.07321">
        <ele>1713.438258527</ele>
        <time>2000-05-11T12:16:41.41</time>
      </trkpt>
      <trkpt lat="42.52967" lon="2.07321">
        <ele>1712.917376502</ele>
        <time>2000-05-11T12:16:42.41</time>
      </trkpt>
      <trkpt lat="42.52967" lon="2.0732">
        <ele>1712.2985429661</ele>
        <time>2000-05-11T12:16:43.41</time>
      </trkpt>
      <trkpt lat="42.52969" lon="2.07319">
        <ele>1712.3352432478</ele>
        <time>2000-05-11T12:16:44.41</time>
      </trkpt>
      <trkpt lat="42.5297" lon="2.07318">
        <ele>1712.3355962267</ele>
        <time>2000-05-11T12:16:45.41</time>
      </trkpt>
      <trkpt lat="42.52971" lon="2.07317">
        <ele>1712.5002328914</ele>
        <time>2000-05-11T12:16:46.41</time>
      </trkpt>
      <trkpt lat="42.52972" lon="2.07316">
        <ele>1713.0104853224</ele>
        <time>2000-05-11T12:16:47.41</time>
      </trkpt>
      <trkpt lat="42.52972" lon="2.07316">
        <ele>1713.5740217077</ele>
        <time>2000-05-11T12:16:48.41</time>
      </trkpt>
      <trkpt lat="42.52972" lon="2.07314">
        <ele>1713.2494574653</ele>
        <time>2000-05-11T12:16:49.41</time>
      </trkpt>
      <trkpt lat="42.5297" lon="2.07313">
        <ele>1712.1902553193</ele>
        <time>2000-05-11T12:16:50.41</time>
      </trkpt>
      <trkpt lat="42.52971" lon="2.07312">
        <ele>1710.885504296</ele>
        <time>2000-05-11T12:16:51.41</time>
      </trkpt>
      <trkpt lat="42.52972" lon="2.07311">
        <ele>1709.1938171271</ele>
        <time>2000-05-11T12:16:52.41</time>
      </trkpt>
      <trkpt lat="42.52972" lon="2.07311">
        <ele>1707.5021299582</ele>
        <time>2000-05-11T12:16:53.41</time>
      </trkpt>
      <trkpt lat="42.52972" lon="2.07311">
        <ele>1706.2732020194</ele>
        <time>2000-05-11T12:16:54.41</time>
      </trkpt>
      <trkpt lat="42.52972" lon="2.07308">
        <ele>1705.9046235362</ele>
        <time>2000-05-11T12:16:55.43</time>
      </trkpt>
      <trkpt lat="42.52972" lon="2.07307">
        <ele>1705.2505746387</ele>
        <time>2000-05-11T12:16:56.43</time>
      </trkpt>
      <trkpt lat="42.52972" lon="2.07305">
        <ele>1704.6135967603</ele>
        <time>2000-05-11T12:16:57.43</time>
      </trkpt>
      <trkpt lat="42.52972" lon="2.07304">
        <ele>1703.7740809683</ele>
        <time>2000-05-11T12:16:58.43</time>
      </trkpt>
      <trkpt lat="42.52972" lon="2.07303">
        <ele>1702.8361044444</ele>
        <time>2000-05-11T12:16:59.43</time>
      </trkpt>
      <trkpt lat="42.52972" lon="2.07302">
        <ele>1701.8083482509</ele>
        <time>2000-05-11T12:17:00.43</time>
      </trkpt>
      <trkpt lat="42.52973" lon="2.07301">
        <ele>1701.3948370399</ele>
        <time>2000-05-11T12:17:01.43</time>
      </trkpt>
      <trkpt lat="42.52974" lon="2.073">
        <ele>1701.2598321659</ele>
        <time>2000-05-11T12:17:02.43</time>
      </trkpt>
      <trkpt lat="42.52974" lon="2.07298">
        <ele>1701.1878168968</ele>
        <time>2000-05-11T12:17:03.43</time>
      </trkpt>
      <trkpt lat="42.52974" lon="2.07296">
        <ele>1701.5247033985</ele>
        <time>2000-05-11T12:17:04.43</time>
      </trkpt>
      <trkpt lat="42.52974" lon="2.07295">
        <ele>1702.4706328588</ele>
        <time>2000-05-11T12:17:05.43</time>
      </trkpt>
      <trkpt lat="42.52974" lon="2.07293">
        <ele>1703.4588985609</ele>
        <time>2000-05-11T12:17:06.43</time>
      </trkpt>
      <trkpt lat="42.52975" lon="2.07292">
        <ele>1704.5792712919</ele>
        <time>2000-05-11T12:17:07.43</time>
      </trkpt>
      <trkpt lat="42.52976" lon="2.0729">
        <ele>1706.0253680026</ele>
        <time>2000-05-11T12:17:08.43</time>
      </trkpt>
      <trkpt lat="42.52976" lon="2.0729">
        <ele>1707.1610236743</ele>
        <time>2000-05-11T12:17:09.43</time>
      </trkpt>
      <trkpt lat="42.52976" lon="2.07289">
        <ele>1707.7908275435</ele>
        <time>2000-05-11T12:17:10.44</time>
      </trkpt>
      <trkpt lat="42.52976" lon="2.07288">
        <ele>1708.8717098694</ele>
        <time>2000-05-11T12:17:11.44</time>
      </trkpt>
      <trkpt lat="42.52977" lon="2.07286">
        <ele>1710.2147008549</ele>
        <time>2000-05-11T12:17:12.44</time>
      </trkpt>
      <trkpt lat="42.52978" lon="2.07284">
        <ele>1711.7801323457</ele>
        <time>2000-05-11T12:17:13.44</time>
      </trkpt>
      <trkpt lat="42.52978" lon="2.07283">
        <ele>1712.8536232876</ele>
        <time>2000-05-11T12:17:14.44</time>
      </trkpt>
      <trkpt lat="42.52978" lon="2.07282">
        <ele>1713.9090624157</ele>
        <time>2000-05-11T12:17:15.44</time>
      </trkpt>
      <trkpt lat="42.52978" lon="2.07279">
        <ele>1714.1744735274</ele>
        <time>2000-05-11T12:17:16.44</time>
      </trkpt>
      <trkpt lat="42.52979" lon="2.07276">
        <ele>1713.92851629</ele>
        <time>2000-05-11T12:17:17.44</time>
      </trkpt>
      <trkpt lat="42.52979" lon="2.07274">
        <ele>1712.598301357</ele>
        <time>2000-05-11T12:17:18.44</time>
      </trkpt>
      <trkpt lat="42.5298" lon="2.07273">
        <ele>1711.1365520988</ele>
        <time>2000-05-11T12:17:19.44</time>
      </trkpt>
      <trkpt lat="42.5298" lon="2.07272">
        <ele>1709.4667021487</ele>
        <time>2000-05-11T12:17:20.44</time>
      </trkpt>
      <trkpt lat="42.52981" lon="2.07269">
        <ele>1708.7654766036</ele>
        <time>2000-05-11T12:17:21.44</time>
      </trkpt>
      <trkpt lat="42.52981" lon="2.07269">
        <ele>1708.2152430924</ele>
        <time>2000-05-11T12:17:22.44</time>
      </trkpt>
      <trkpt lat="42.52981" lon="2.07268">
        <ele>1708.4109265268</ele>
        <time>2000-05-11T12:17:23.44</time>
      </trkpt>
      <trkpt lat="42.52981" lon="2.07267">
        <ele>1709.1318833357</ele>
        <time>2000-05-11T12:17:24.44</time>
      </trkpt>
      <trkpt lat="42.52982" lon="2.07266">
        <ele>1710.1081220243</ele>
        <time>2000-05-11T12:17:25.44</time>
      </trkpt>
      <trkpt lat="42.52983" lon="2.07265">
        <ele>1710.4683015367</ele>
        <time>2000-05-11T12:17:26.44</time>
      </trkpt>
      <trkpt lat="42.52983" lon="2.07265">
        <ele>1710.6190742232</ele>
        <time>2000-05-11T12:17:27.44</time>
      </trkpt>
      <trkpt lat="42.52985" lon="2.07263">
        <ele>1710.8664122075</ele>
        <time>2000-05-11T12:17:28.47</time>
      </trkpt>
      <trkpt lat="42.52985" lon="2.07262">
        <ele>1711.3070511024</ele>
        <time>2000-05-11T12:17:29.47</time>
      </trkpt>
      <trkpt lat="42.52986" lon="2.07261">
        <ele>1711.8334644772</ele>
        <time>2000-05-11T12:17:30.47</time>
      </trkpt>
      <trkpt lat="42.52986" lon="2.0726">
        <ele>1712.1433651034</ele>
        <time>2000-05-11T12:17:31.47</time>
      </trkpt>
      <trkpt lat="42.52987" lon="2.07261">
        <ele>1712.9934345769</ele>
        <time>2000-05-11T12:17:32.47</time>
      </trkpt>
      <trkpt lat="42.52987" lon="2.07261">
        <ele>1713.6766633263</ele>
        <time>2000-05-11T12:17:33.47</time>
      </trkpt>
      <trkpt lat="42.52987" lon="2.07259">
        <ele>1714.0078378187</ele>
        <time>2000-05-11T12:17:34.46</time>
      </trkpt>
      <trkpt lat="42.52988" lon="2.07258">
        <ele>1714.315078488</ele>
        <time>2000-05-11T12:17:35.46</time>
      </trkpt>
      <trkpt lat="42.52989" lon="2.07257">
        <ele>1714.6921810932</ele>
        <time>2000-05-11T12:17:36.46</time>
      </trkpt>
      <trkpt lat="42.5299" lon="2.07255">
        <ele>1714.8932189355</ele>
        <time>2000-05-11T12:17:37.46</time>
      </trkpt>
      <trkpt lat="42.52991" lon="2.07254">
        <ele>1715.0605940612</ele>
        <time>2000-05-11T12:17:38.46</time>
      </trkpt>
      <trkpt lat="42.52992" lon="2.07253">
        <ele>1715.5455830013</ele>
        <time>2000-05-11T12:17:39.46</time>
      </trkpt>
      <trkpt lat="42.52992" lon="2.07251">
        <ele>1716.2340806179</ele>
        <time>2000-05-11T12:17:40.46</time>
      </trkpt>
      <trkpt lat="42.52992" lon="2.07251">
        <ele>1716.870344862</ele>
        <time>2000-05-11T12:17:41.46</time>
      </trkpt>
      <trkpt lat="42.52993" lon="2.0725">
        <ele>1717.6276439581</ele>
        <time>2000-05-11T12:17:42.44</time>
      </trkpt>
      <trkpt lat="42.52994" lon="2.0725">
        <ele>1718.7309779949</ele>
        <time>2000-05-11T12:17:43.44</time>
      </trkpt>
      <trkpt lat="42.52995" lon="2.07249">
        <ele>1719.9208226085</ele>
        <time>2000-05-11T12:17:44.44</time>
      </trkpt>
      <trkpt lat="42.52997" lon="2.07248">
        <ele>1720.5249406336</ele>
        <time>2000-05-11T12:17:45.44</time>
      </trkpt>
      <trkpt lat="42.52997" lon="2.07248">
        <ele>1721.1622200981</ele>
        <time>2000-05-11T12:17:46.44</time>
      </trkpt>
      <trkpt lat="42.52999" lon="2.07248">
        <ele>1721.7180271184</ele>
        <time>2000-05-11T12:17:47.44</time>
      </trkpt>
      <trkpt lat="42.53001" lon="2.07247">
        <ele>1722.70456481</ele>
        <time>2000-05-11T12:17:48.44</time>
      </trkpt>
      <trkpt lat="42.53001" lon="2.07247">
        <ele>1723.5770916626</ele>
        <time>2000-05-11T12:17:49.44</time>
      </trkpt>
      <trkpt lat="42.53001" lon="2.07246">
        <ele>1724.8670878181</ele>
        <time>2000-05-11T12:17:50.44</time>
      </trkpt>
      <trkpt lat="42.53001" lon="2.07246">
        <ele>1725.9367257895</ele>
        <time>2000-05-11T12:17:51.44</time>
      </trkpt>
      <trkpt lat="42.53002" lon="2.07246">
        <ele>1726.6113164302</ele>
        <time>2000-05-11T12:17:52.44</time>
      </trkpt>
      <trkpt lat="42.53004" lon="2.07247">
        <ele>1726.2567973584</ele>
        <time>2000-05-11T12:17:53.43</time>
      </trkpt>
      <trkpt lat="42.53006" lon="2.07246">
        <ele>1726.3069827801</ele>
        <time>2000-05-11T12:17:54.43</time>
      </trkpt>
      <trkpt lat="42.53007" lon="2.07246">
        <ele>1726.1953946171</ele>
        <time>2000-05-11T12:17:55.43</time>
      </trkpt>
      <trkpt lat="42.53009" lon="2.07246">
        <ele>1726.2280707773</ele>
        <time>2000-05-11T12:17:56.43</time>
      </trkpt>
      <trkpt lat="42.5301" lon="2.07246">
        <ele>1726.522321474</ele>
        <time>2000-05-11T12:17:57.43</time>
      </trkpt>
      <trkpt lat="42.53011" lon="2.07246">
        <ele>1726.8753517209</ele>
        <time>2000-05-11T12:17:58.43</time>
      </trkpt>
      <trkpt lat="42.53012" lon="2.07246">
        <ele>1726.446027769</ele>
        <time>2000-05-11T12:17:59.43</time>
      </trkpt>
      <trkpt lat="42.53013" lon="2.07247">
        <ele>1726.0075997112</ele>
        <time>2000-05-11T12:18:00.43</time>
      </trkpt>
      <trkpt lat="42.53013" lon="2.07247">
        <ele>1725.6121040752</ele>
        <time>2000-05-11T12:18:01.43</time>
      </trkpt>
      <trkpt lat="42.53015" lon="2.07247">
        <ele>1725.3019017015</ele>
        <time>2000-05-11T12:18:02.43</time>
      </trkpt>
      <trkpt lat="42.53016" lon="2.07247">
        <ele>1725.3724488655</ele>
        <time>2000-05-11T12:18:03.43</time>
      </trkpt>
      <trkpt lat="42.53017" lon="2.07248">
        <ele>1726.0096296553</ele>
        <time>2000-05-11T12:18:04.43</time>
      </trkpt>
      <trkpt lat="42.53017" lon="2.07248">
        <ele>1726.6345457762</ele>
        <time>2000-05-11T12:18:05.43</time>
      </trkpt>
      <trkpt lat="42.53018" lon="2.07248">
        <ele>1727.1682800595</ele>
        <time>2000-05-11T12:18:06.43</time>
      </trkpt>
      <trkpt lat="42.53019" lon="2.07248">
        <ele>1727.2866551546</ele>
        <time>2000-05-11T12:18:07.43</time>
      </trkpt>
      <trkpt lat="42.5302" lon="2.07248">
        <ele>1727.0960040601</ele>
        <time>2000-05-11T12:18:08.43</time>
      </trkpt>
      <trkpt lat="42.53022" lon="2.07248">
        <ele>1726.4510247653</ele>
        <time>2000-05-11T12:18:09.43</time>
      </trkpt>
      <trkpt lat="42.53023" lon="2.07248">
        <ele>1725.8372034438</ele>
        <time>2000-05-11T12:18:10.43</time>
      </trkpt>
      <trkpt lat="42.53024" lon="2.07248">
        <ele>1725.616057219</ele>
        <time>2000-05-11T12:18:11.43</time>
      </trkpt>
      <trkpt lat="42.53025" lon="2.07248">
        <ele>1725.6830777775</ele>
        <time>2000-05-11T12:18:12.43</time>
      </trkpt>
      <trkpt lat="42.53027" lon="2.07249">
        <ele>1725.9800658029</ele>
        <time>2000-05-11T12:18:13.43</time>
      </trkpt>
      <trkpt lat="42.53028" lon="2.07249">
        <ele>1726.5704804795</ele>
        <time>2000-05-11T12:18:14.43</time>
      </trkpt>
      <trkpt lat="42.53029" lon="2.07249">
        <ele>1727.0928769365</ele>
        <time>2000-05-11T12:18:15.43</time>
      </trkpt>
      <trkpt lat="42.53029" lon="2.07249">
        <ele>1727.3645469919</ele>
        <time>2000-05-11T12:18:16.43</time>
      </trkpt>
      <trkpt lat="42.53031" lon="2.07248">
        <ele>1727.1568542384</ele>
        <time>2000-05-11T12:18:17.43</time>
      </trkpt>
      <trkpt lat="42.53031" lon="2.07247">
        <ele>1726.774787863</ele>
        <time>2000-05-11T12:18:18.43</time>
      </trkpt>
      <trkpt lat="42.53032" lon="2.07247">
        <ele>1726.41354098</ele>
        <time>2000-05-11T12:18:19.43</time>
      </trkpt>
      <trkpt lat="42.53034" lon="2.07246">
        <ele>1726.2291130153</ele>
        <time>2000-05-11T12:18:20.43</time>
      </trkpt>
      <trkpt lat="42.53035" lon="2.07245">
        <ele>1726.536754003</ele>
        <time>2000-05-11T12:18:21.43</time>
      </trkpt>
      <trkpt lat="42.53036" lon="2.07244">
        <ele>1727.6684393372</ele>
        <time>2000-05-11T12:18:22.43</time>
      </trkpt>
      <trkpt lat="42.53036" lon="2.07243">
        <ele>1728.5919500606</ele>
        <time>2000-05-11T12:18:23.43</time>
      </trkpt>
      <trkpt lat="42.53037" lon="2.07242">
        <ele>1729.1795870339</ele>
        <time>2000-05-11T12:18:24.43</time>
      </trkpt>
      <trkpt lat="42.53037" lon="2.07241">
        <ele>1729.4297089316</ele>
        <time>2000-05-11T12:18:25.43</time>
      </trkpt>
      <trkpt lat="42.53038" lon="2.07241">
        <ele>1728.8799196366</ele>
        <time>2000-05-11T12:18:26.43</time>
      </trkpt>
      <trkpt lat="42.5304" lon="2.0724">
        <ele>1727.9979115609</ele>
        <time>2000-05-11T12:18:27.43</time>
      </trkpt>
      <trkpt lat="42.53042" lon="2.0724">
        <ele>1727.7136311622</ele>
        <time>2000-05-11T12:18:28.43</time>
      </trkpt>
      <trkpt lat="42.53043" lon="2.07239">
        <ele>1727.6828796512</ele>
        <time>2000-05-11T12:18:29.43</time>
      </trkpt>
      <trkpt lat="42.53044" lon="2.07238">
        <ele>1727.7104884971</ele>
        <time>2000-05-11T12:18:30.43</time>
      </trkpt>
      <trkpt lat="42.53044" lon="2.07238">
        <ele>1727.995172726</ele>
        <time>2000-05-11T12:18:31.43</time>
      </trkpt>
      <trkpt lat="42.53044" lon="2.07238">
        <ele>1728.1453353791</ele>
        <time>2000-05-11T12:18:32.43</time>
      </trkpt>
      <trkpt lat="42.53046" lon="2.07237">
        <ele>1727.8732429812</ele>
        <time>2000-05-11T12:18:33.43</time>
      </trkpt>
      <trkpt lat="42.53047" lon="2.07236">
        <ele>1727.2818036826</ele>
        <time>2000-05-11T12:18:34.43</time>
      </trkpt>
      <trkpt lat="42.53047" lon="2.07235">
        <ele>1726.5049337605</ele>
        <time>2000-05-11T12:18:35.43</time>
      </trkpt>
      <trkpt lat="42.53047" lon="2.07235">
        <ele>1725.7280638384</ele>
        <time>2000-05-11T12:18:36.43</time>
      </trkpt>
      <trkpt lat="42.53047" lon="2.07234">
        <ele>1724.5202662343</ele>
        <time>2000-05-11T12:18:37.43</time>
      </trkpt>
      <trkpt lat="42.53047" lon="2.07232">
        <ele>1723.5358255405</ele>
        <time>2000-05-11T12:18:38.43</time>
      </trkpt>
      <trkpt lat="42.53048" lon="2.07231">
        <ele>1722.9782096118</ele>
        <time>2000-05-11T12:18:39.43</time>
      </trkpt>
      <trkpt lat="42.53049" lon="2.0723">
        <ele>1722.7781795885</ele>
        <time>2000-05-11T12:18:40.43</time>
      </trkpt>
      <trkpt lat="42.53049" lon="2.07229">
        <ele>1721.9543662079</ele>
        <time>2000-05-11T12:18:41.43</time>
      </trkpt>
      <trkpt lat="42.5305" lon="2.07228">
        <ele>1721.5453451956</ele>
        <time>2000-05-11T12:18:42.43</time>
      </trkpt>
      <trkpt lat="42.53051" lon="2.07227">
        <ele>1721.049979711</ele>
        <time>2000-05-11T12:18:43.43</time>
      </trkpt>
      <trkpt lat="42.53051" lon="2.07226">
        <ele>1720.3344694059</ele>
        <time>2000-05-11T12:18:44.43</time>
      </trkpt>
      <trkpt lat="42.53052" lon="2.07225">
        <ele>1719.5099078409</ele>
        <time>2000-05-11T12:18:45.43</time>
      </trkpt>
      <trkpt lat="42.53054" lon="2.07224">
        <ele>1720.057780209</ele>
        <time>2000-05-11T12:18:46.43</time>
      </trkpt>
      <trkpt lat="42.53055" lon="2.07223">
        <ele>1720.5632955015</ele>
        <time>2000-05-11T12:18:47.43</time>
      </trkpt>
      <trkpt lat="42.53055" lon="2.07222">
        <ele>1720.1536203209</ele>
        <time>2000-05-11T12:18:48.43</time>
      </trkpt>
      <trkpt lat="42.53055" lon="2.07222">
        <ele>1719.7474238129</ele>
        <time>2000-05-11T12:18:49.43</time>
      </trkpt>
      <trkpt lat="42.53054" lon="2.07221">
        <ele>1718.821271446</ele>
        <time>2000-05-11T12:18:50.43</time>
      </trkpt>
      <trkpt lat="42.53054" lon="2.0722">
        <ele>1717.1818440957</ele>
        <time>2000-05-11T12:18:51.43</time>
      </trkpt>
      <trkpt lat="42.53055" lon="2.07218">
        <ele>1715.3555778958</ele>
        <time>2000-05-11T12:18:52.42</time>
      </trkpt>
      <trkpt lat="42.53056" lon="2.07217">
        <ele>1714.5254336014</ele>
        <time>2000-05-11T12:18:53.42</time>
      </trkpt>
      <trkpt lat="42.53057" lon="2.07216">
        <ele>1714.0697553419</ele>
        <time>2000-05-11T12:18:54.42</time>
      </trkpt>
      <trkpt lat="42.53058" lon="2.07215">
        <ele>1713.4717735996</ele>
        <time>2000-05-11T12:18:55.42</time>
      </trkpt>
      <trkpt lat="42.53058" lon="2.07215">
        <ele>1711.8583232705</ele>
        <time>2000-05-11T12:18:56.42</time>
      </trkpt>
      <trkpt lat="42.53058" lon="2.07214">
        <ele>1709.9755351592</ele>
        <time>2000-05-11T12:18:57.42</time>
      </trkpt>
      <trkpt lat="42.53059" lon="2.07213">
        <ele>1707.8404351356</ele>
        <time>2000-05-11T12:18:58.42</time>
      </trkpt>
      <trkpt lat="42.53061" lon="2.07212">
        <ele>1705.3868593156</ele>
        <time>2000-05-11T12:18:59.41</time>
      </trkpt>
      <trkpt lat="42.53062" lon="2.07211">
        <ele>1703.5787951559</ele>
        <time>2000-05-11T12:19:00.41</time>
      </trkpt>
      <trkpt lat="42.53062" lon="2.0721">
        <ele>1702.7545982851</ele>
        <time>2000-05-11T12:19:01.41</time>
      </trkpt>
      <trkpt lat="42.53063" lon="2.07209">
        <ele>1702.3603133535</ele>
        <time>2000-05-11T12:19:02.41</time>
      </trkpt>
      <trkpt lat="42.53064" lon="2.07208">
        <ele>1702.5988208648</ele>
        <time>2000-05-11T12:19:03.41</time>
      </trkpt>
      <trkpt lat="42.53065" lon="2.07207">
        <ele>1703.5101951623</ele>
        <time>2000-05-11T12:19:04.41</time>
      </trkpt>
      <trkpt lat="42.53065" lon="2.07207">
        <ele>1704.5144091662</ele>
        <time>2000-05-11T12:19:05.41</time>
      </trkpt>
      <trkpt lat="42.53065" lon="2.07207">
        <ele>1705.5148488758</ele>
        <time>2000-05-11T12:19:06.41</time>
      </trkpt>
      <trkpt lat="42.53066" lon="2.07205">
        <ele>1706.055185782</ele>
        <time>2000-05-11T12:19:07.41</time>
      </trkpt>
      <trkpt lat="42.53067" lon="2.07204">
        <ele>1705.665446024</ele>
        <time>2000-05-11T12:19:08.42</time>
      </trkpt>
      <trkpt lat="42.53068" lon="2.07202">
        <ele>1704.4920406165</ele>
        <time>2000-05-11T12:19:09.42</time>
      </trkpt>
      <trkpt lat="42.53068" lon="2.07202">
        <ele>1703.1065377828</ele>
        <time>2000-05-11T12:19:10.42</time>
      </trkpt>
      <trkpt lat="42.53069" lon="2.07201">
        <ele>1701.656403397</ele>
        <time>2000-05-11T12:19:11.42</time>
      </trkpt>
      <trkpt lat="42.5307" lon="2.072">
        <ele>1701.1447165392</ele>
        <time>2000-05-11T12:19:12.42</time>
      </trkpt>
      <trkpt lat="42.53071" lon="2.07198">
        <ele>1701.5727332378</ele>
        <time>2000-05-11T12:19:13.42</time>
      </trkpt>
      <trkpt lat="42.53072" lon="2.07197">
        <ele>1702.1875622462</ele>
        <time>2000-05-11T12:19:14.42</time>
      </trkpt>
      <trkpt lat="42.53074" lon="2.07196">
        <ele>1703.3502400253</ele>
        <time>2000-05-11T12:19:15.42</time>
      </trkpt>
      <trkpt lat="42.53075" lon="2.07195">
        <ele>1704.596518703</ele>
        <time>2000-05-11T12:19:16.42</time>
      </trkpt>
      <trkpt lat="42.53075" lon="2.07193">
        <ele>1705.3661649929</ele>
        <time>2000-05-11T12:19:17.42</time>
      </trkpt>
      <trkpt lat="42.53075" lon="2.07193">
        <ele>1705.3248829933</ele>
        <time>2000-05-11T12:19:18.42</time>
      </trkpt>
      <trkpt lat="42.53076" lon="2.07192">
        <ele>1705.4076537089</ele>
        <time>2000-05-11T12:19:19.42</time>
      </trkpt>
      <trkpt lat="42.53077" lon="2.07191">
        <ele>1705.4550584961</ele>
        <time>2000-05-11T12:19:20.42</time>
      </trkpt>
      <trkpt lat="42.53078" lon="2.07189">
        <ele>1704.9155001851</ele>
        <time>2000-05-11T12:19:21.42</time>
      </trkpt>
      <trkpt lat="42.53078" lon="2.07188">
        <ele>1704.2511444461</ele>
        <time>2000-05-11T12:19:22.42</time>
      </trkpt>
      <trkpt lat="42.53079" lon="2.07186">
        <ele>1704.2446117224</ele>
        <time>2000-05-11T12:19:23.42</time>
      </trkpt>
      <trkpt lat="42.5308" lon="2.07185">
        <ele>1704.0386165844</ele>
        <time>2000-05-11T12:19:24.42</time>
      </trkpt>
      <trkpt lat="42.5308" lon="2.07183">
        <ele>1703.8783149958</ele>
        <time>2000-05-11T12:19:25.42</time>
      </trkpt>
      <trkpt lat="42.5308" lon="2.07181">
        <ele>1704.1665629549</ele>
        <time>2000-05-11T12:19:26.42</time>
      </trkpt>
      <trkpt lat="42.53079" lon="2.07179">
        <ele>1703.6376199421</ele>
        <time>2000-05-11T12:19:27.42</time>
      </trkpt>
      <trkpt lat="42.53079" lon="2.07178">
        <ele>1702.7272601992</ele>
        <time>2000-05-11T12:19:28.42</time>
      </trkpt>
      <trkpt lat="42.53081" lon="2.07177">
        <ele>1702.2145234128</ele>
        <time>2000-05-11T12:19:29.42</time>
      </trkpt>
      <trkpt lat="42.53082" lon="2.07176">
        <ele>1701.2544014281</ele>
        <time>2000-05-11T12:19:30.42</time>
      </trkpt>
      <trkpt lat="42.53084" lon="2.07176">
        <ele>1700.438471235</ele>
        <time>2000-05-11T12:19:31.42</time>
      </trkpt>
      <trkpt lat="42.53086" lon="2.07175">
        <ele>1701.2317568962</ele>
        <time>2000-05-11T12:19:32.42</time>
      </trkpt>
      <trkpt lat="42.53087" lon="2.07174">
        <ele>1701.7825813798</ele>
        <time>2000-05-11T12:19:33.42</time>
      </trkpt>
      <trkpt lat="42.53087" lon="2.07172">
        <ele>1701.8769449636</ele>
        <time>2000-05-11T12:19:34.42</time>
      </trkpt>
      <trkpt lat="42.53088" lon="2.07171">
        <ele>1702.4327049268</ele>
        <time>2000-05-11T12:19:35.42</time>
      </trkpt>
      <trkpt lat="42.53089" lon="2.0717">
        <ele>1703.4695396846</ele>
        <time>2000-05-11T12:19:36.42</time>
      </trkpt>
      <trkpt lat="42.53089" lon="2.07169">
        <ele>1703.925280134</ele>
        <time>2000-05-11T12:19:37.42</time>
      </trkpt>
      <trkpt lat="42.5309" lon="2.07168">
        <ele>1704.7388232626</ele>
        <time>2000-05-11T12:19:38.42</time>
      </trkpt>
      <trkpt lat="42.5309" lon="2.07168">
        <ele>1705.6640829243</ele>
        <time>2000-05-11T12:19:39.42</time>
      </trkpt>
      <trkpt lat="42.53092" lon="2.07166">
        <ele>1706.1850523293</ele>
        <time>2000-05-11T12:19:40.38</time>
      </trkpt>
      <trkpt lat="42.53093" lon="2.07165">
        <ele>1706.6227257121</ele>
        <time>2000-05-11T12:19:41.38</time>
      </trkpt>
      <trkpt lat="42.53094" lon="2.07163">
        <ele>1707.2940794025</ele>
        <time>2000-05-11T12:19:42.38</time>
      </trkpt>
      <trkpt lat="42.53094" lon="2.07162">
        <ele>1708.0549704226</ele>
        <time>2000-05-11T12:19:43.38</time>
      </trkpt>
      <trkpt lat="42.53095" lon="2.0716">
        <ele>1709.2318061255</ele>
        <time>2000-05-11T12:19:44.38</time>
      </trkpt>
      <trkpt lat="42.53095" lon="2.07159">
        <ele>1710.2389938369</ele>
        <time>2000-05-11T12:19:45.38</time>
      </trkpt>
      <trkpt lat="42.53097" lon="2.07158">
        <ele>1711.2230519449</ele>
        <time>2000-05-11T12:19:46.38</time>
      </trkpt>
      <trkpt lat="42.53098" lon="2.07156">
        <ele>1711.566117027</ele>
        <time>2000-05-11T12:19:47.38</time>
      </trkpt>
      <trkpt lat="42.53098" lon="2.07155">
        <ele>1711.6760412101</ele>
        <time>2000-05-11T12:19:48.38</time>
      </trkpt>
      <trkpt lat="42.53099" lon="2.07154">
        <ele>1711.4005974699</ele>
        <time>2000-05-11T12:19:49.38</time>
      </trkpt>
      <trkpt lat="42.53099" lon="2.07153">
        <ele>1711.3438767809</ele>
        <time>2000-05-11T12:19:50.38</time>
      </trkpt>
      <trkpt lat="42.531" lon="2.07152">
        <ele>1710.9431635678</ele>
        <time>2000-05-11T12:19:51.38</time>
      </trkpt>
      <trkpt lat="42.53102" lon="2.07151">
        <ele>1711.5338541452</ele>
        <time>2000-05-11T12:19:52.38</time>
      </trkpt>
      <trkpt lat="42.53103" lon="2.0715">
        <ele>1712.0261108208</ele>
        <time>2000-05-11T12:19:53.38</time>
      </trkpt>
      <trkpt lat="42.53103" lon="2.07149">
        <ele>1712.3026694771</ele>
        <time>2000-05-11T12:19:54.38</time>
      </trkpt>
      <trkpt lat="42.53103" lon="2.07149">
        <ele>1712.574353184</ele>
        <time>2000-05-11T12:19:55.38</time>
      </trkpt>
      <trkpt lat="42.53103" lon="2.07148">
        <ele>1712.7153759867</ele>
        <time>2000-05-11T12:19:56.38</time>
      </trkpt>
      <trkpt lat="42.53103" lon="2.07145">
        <ele>1711.9409065565</ele>
        <time>2000-05-11T12:19:57.38</time>
      </trkpt>
      <trkpt lat="42.53104" lon="2.07144">
        <ele>1711.406179662</ele>
        <time>2000-05-11T12:19:58.38</time>
      </trkpt>
      <trkpt lat="42.53104" lon="2.07144">
        <ele>1711.4295802005</ele>
        <time>2000-05-11T12:19:59.37</time>
      </trkpt>
      <trkpt lat="42.53104" lon="2.07144">
        <ele>1711.4529807389</ele>
        <time>2000-05-11T12:20:00.37</time>
      </trkpt>
      <trkpt lat="42.53104" lon="2.07143">
        <ele>1711.3280257894</ele>
        <time>2000-05-11T12:20:01.35</time>
      </trkpt>
      <trkpt lat="42.53105" lon="2.07142">
        <ele>1711.4673843304</ele>
        <time>2000-05-11T12:20:02.35</time>
      </trkpt>
      <trkpt lat="42.53105" lon="2.07141">
        <ele>1711.4352558173</ele>
        <time>2000-05-11T12:20:03.35</time>
      </trkpt>
      <trkpt lat="42.53104" lon="2.07139">
        <ele>1710.6802251756</ele>
        <time>2000-05-11T12:20:04.35</time>
      </trkpt>
      <trkpt lat="42.53106" lon="2.07137">
        <ele>1710.4510010235</ele>
        <time>2000-05-11T12:20:05.35</time>
      </trkpt>
      <trkpt lat="42.53106" lon="2.07136">
        <ele>1710.3896730812</ele>
        <time>2000-05-11T12:20:06.35</time>
      </trkpt>
      <trkpt lat="42.53106" lon="2.07135">
        <ele>1710.0532783391</ele>
        <time>2000-05-11T12:20:07.35</time>
      </trkpt>
      <trkpt lat="42.53106" lon="2.07133">
        <ele>1709.673873803</ele>
        <time>2000-05-11T12:20:08.35</time>
      </trkpt>
      <trkpt lat="42.53105" lon="2.07131">
        <ele>1710.1474873802</ele>
        <time>2000-05-11T12:20:09.35</time>
      </trkpt>
      <trkpt lat="42.53105" lon="2.07131">
        <ele>1709.9677998833</ele>
        <time>2000-05-11T12:20:10.35</time>
      </trkpt>
      <trkpt lat="42.53105" lon="2.07129">
        <ele>1709.4965465877</ele>
        <time>2000-05-11T12:20:11.35</time>
      </trkpt>
      <trkpt lat="42.53104" lon="2.07127">
        <ele>1709.0662197214</ele>
        <time>2000-05-11T12:20:12.35</time>
      </trkpt>
      <trkpt lat="42.53105" lon="2.07126">
        <ele>1708.8377612421</ele>
        <time>2000-05-11T12:20:13.35</time>
      </trkpt>
      <trkpt lat="42.53106" lon="2.07125">
        <ele>1708.1112459054</ele>
        <time>2000-05-11T12:20:14.35</time>
      </trkpt>
      <trkpt lat="42.53107" lon="2.07124">
        <ele>1707.8666413527</ele>
        <time>2000-05-11T12:20:15.35</time>
      </trkpt>
      <trkpt lat="42.53108" lon="2.07123">
        <ele>1707.6356616808</ele>
        <time>2000-05-11T12:20:16.35</time>
      </trkpt>
      <trkpt lat="42.53109" lon="2.07122">
        <ele>1707.8060495686</ele>
        <time>2000-05-11T12:20:17.35</time>
      </trkpt>
      <trkpt lat="42.53109" lon="2.07118">
        <ele>1708.6713663734</ele>
        <time>2000-05-11T12:20:18.35</time>
      </trkpt>
      <trkpt lat="42.53109" lon="2.07117">
        <ele>1708.931578372</ele>
        <time>2000-05-11T12:20:19.35</time>
      </trkpt>
      <trkpt lat="42.5311" lon="2.07117">
        <ele>1709.0230507297</ele>
        <time>2000-05-11T12:20:20.35</time>
      </trkpt>
      <trkpt lat="42.53112" lon="2.07116">
        <ele>1709.8169081958</ele>
        <time>2000-05-11T12:20:21.35</time>
      </trkpt>
      <trkpt lat="42.53113" lon="2.07116">
        <ele>1710.9830041524</ele>
        <time>2000-05-11T12:20:22.35</time>
      </trkpt>
      <trkpt lat="42.53114" lon="2.07115">
        <ele>1711.7248405727</ele>
        <time>2000-05-11T12:20:23.35</time>
      </trkpt>
      <trkpt lat="42.53115" lon="2.07114">
        <ele>1712.7255015625</ele>
        <time>2000-05-11T12:20:24.35</time>
      </trkpt>
      <trkpt lat="42.53115" lon="2.07112">
        <ele>1713.5657009672</ele>
        <time>2000-05-11T12:20:25.35</time>
      </trkpt>
      <trkpt lat="42.53115" lon="2.0711">
        <ele>1714.0899957817</ele>
        <time>2000-05-11T12:20:26.35</time>
      </trkpt>
      <trkpt lat="42.53115" lon="2.07109">
        <ele>1713.9962853692</ele>
        <time>2000-05-11T12:20:27.35</time>
      </trkpt>
      <trkpt lat="42.53116" lon="2.07108">
        <ele>1713.6463315273</ele>
        <time>2000-05-11T12:20:28.35</time>
      </trkpt>
      <trkpt lat="42.53116" lon="2.07107">
        <ele>1713.5699002128</ele>
        <time>2000-05-11T12:20:29.35</time>
      </trkpt>
      <trkpt lat="42.53116" lon="2.07106">
        <ele>1713.2509862309</ele>
        <time>2000-05-11T12:20:30.35</time>
      </trkpt>
      <trkpt lat="42.53117" lon="2.07105">
        <ele>1712.7639541984</ele>
        <time>2000-05-11T12:20:31.35</time>
      </trkpt>
      <trkpt lat="42.53118" lon="2.07103">
        <ele>1712.5182771649</ele>
        <time>2000-05-11T12:20:32.34</time>
      </trkpt>
      <trkpt lat="42.53118" lon="2.07103">
        <ele>1712.2168388445</ele>
        <time>2000-05-11T12:20:33.34</time>
      </trkpt>
      <trkpt lat="42.53119" lon="2.07101">
        <ele>1711.8060932735</ele>
        <time>2000-05-11T12:20:34.36</time>
      </trkpt>
      <trkpt lat="42.53119" lon="2.07099">
        <ele>1711.7781249793</ele>
        <time>2000-05-11T12:20:35.36</time>
      </trkpt>
      <trkpt lat="42.53119" lon="2.07098">
        <ele>1711.6656075481</ele>
        <time>2000-05-11T12:20:36.36</time>
      </trkpt>
      <trkpt lat="42.5312" lon="2.07097">
        <ele>1711.2601433106</ele>
        <time>2000-05-11T12:20:37.34</time>
      </trkpt>
      <trkpt lat="42.5312" lon="2.07095">
        <ele>1710.9990101535</ele>
        <time>2000-05-11T12:20:38.34</time>
      </trkpt>
      <trkpt lat="42.53122" lon="2.07094">
        <ele>1711.1376079492</ele>
        <time>2000-05-11T12:20:39.34</time>
      </trkpt>
      <trkpt lat="42.53123" lon="2.07094">
        <ele>1711.1887294501</ele>
        <time>2000-05-11T12:20:40.34</time>
      </trkpt>
      <trkpt lat="42.53124" lon="2.07093">
        <ele>1711.7499786608</ele>
        <time>2000-05-11T12:20:41.34</time>
      </trkpt>
      <trkpt lat="42.53125" lon="2.07093">
        <ele>1712.8889529789</ele>
        <time>2000-05-11T12:20:42.34</time>
      </trkpt>
      <trkpt lat="42.53126" lon="2.07092">
        <ele>1714.0681094266</ele>
        <time>2000-05-11T12:20:43.34</time>
      </trkpt>
      <trkpt lat="42.53126" lon="2.07091">
        <ele>1715.1213291196</ele>
        <time>2000-05-11T12:20:44.34</time>
      </trkpt>
      <trkpt lat="42.53126" lon="2.0709">
        <ele>1715.7602357769</ele>
        <time>2000-05-11T12:20:45.34</time>
      </trkpt>
      <trkpt lat="42.53126" lon="2.07088">
        <ele>1715.9482604684</ele>
        <time>2000-05-11T12:20:46.34</time>
      </trkpt>
      <trkpt lat="42.53126" lon="2.07087">
        <ele>1715.4430154094</ele>
        <time>2000-05-11T12:20:47.34</time>
      </trkpt>
      <trkpt lat="42.53126" lon="2.07087">
        <ele>1714.7532571403</ele>
        <time>2000-05-11T12:20:48.34</time>
      </trkpt>
      <trkpt lat="42.53126" lon="2.07085">
        <ele>1714.3206070047</ele>
        <time>2000-05-11T12:20:49.33</time>
      </trkpt>
      <trkpt lat="42.53126" lon="2.07085">
        <ele>1714.2242366165</ele>
        <time>2000-05-11T12:20:50.33</time>
      </trkpt>
      <trkpt lat="42.53126" lon="2.07084">
        <ele>1714.3225616293</ele>
        <time>2000-05-11T12:20:51.32</time>
      </trkpt>
      <trkpt lat="42.53126" lon="2.07084">
        <ele>1714.7305619089</ele>
        <time>2000-05-11T12:20:52.32</time>
      </trkpt>
      <trkpt lat="42.53126" lon="2.07084">
        <ele>1714.9200990885</ele>
        <time>2000-05-11T12:20:53.15</time>
      </trkpt>
      <trkpt lat="42.53126" lon="2.07084">
        <ele>1714.7557335963</ele>
        <time>2000-05-11T12:20:54.15</time>
      </trkpt>
      <trkpt lat="42.53127" lon="2.07082">
        <ele>1714.5078082273</ele>
        <time>2000-05-11T12:20:55.13</time>
      </trkpt>
      <trkpt lat="42.53128" lon="2.07081">
        <ele>1714.222793337</ele>
        <time>2000-05-11T12:20:56.13</time>
      </trkpt>
      <trkpt lat="42.53128" lon="2.0708">
        <ele>1713.7806432508</ele>
        <time>2000-05-11T12:20:57.13</time>
      </trkpt>
      <trkpt lat="42.53128" lon="2.07077">
        <ele>1713.1730897801</ele>
        <time>2000-05-11T12:20:58.13</time>
      </trkpt>
      <trkpt lat="42.53128" lon="2.07076">
        <ele>1712.1996149767</ele>
        <time>2000-05-11T12:20:59.13</time>
      </trkpt>
      <trkpt lat="42.53127" lon="2.07075">
        <ele>1711.0386025673</ele>
        <time>2000-05-11T12:21:00.13</time>
      </trkpt>
      <trkpt lat="42.53127" lon="2.07074">
        <ele>1709.9192579942</ele>
        <time>2000-05-11T12:21:01.13</time>
      </trkpt>
      <trkpt lat="42.53127" lon="2.07073">
        <ele>1708.734711064</ele>
        <time>2000-05-11T12:21:02.13</time>
      </trkpt>
      <trkpt lat="42.53126" lon="2.07071">
        <ele>1707.2284699671</ele>
        <time>2000-05-11T12:21:03.13</time>
      </trkpt>
      <trkpt lat="42.53125" lon="2.07068">
        <ele>1705.1567310248</ele>
        <time>2000-05-11T12:21:04.13</time>
      </trkpt>
      <trkpt lat="42.53126" lon="2.07065">
        <ele>1703.7765418703</ele>
        <time>2000-05-11T12:21:05.13</time>
      </trkpt>
      <trkpt lat="42.53127" lon="2.07063">
        <ele>1702.8150616733</ele>
        <time>2000-05-11T12:21:06.13</time>
      </trkpt>
      <trkpt lat="42.53128" lon="2.07061">
        <ele>1702.5595348261</ele>
        <time>2000-05-11T12:21:07.13</time>
      </trkpt>
      <trkpt lat="42.53129" lon="2.0706">
        <ele>1703.3523238258</ele>
        <time>2000-05-11T12:21:08.13</time>
      </trkpt>
      <trkpt lat="42.53129" lon="2.07058">
        <ele>1705.2722503603</ele>
        <time>2000-05-11T12:21:09.13</time>
      </trkpt>
      <trkpt lat="42.5313" lon="2.07057">
        <ele>1707.0951864388</ele>
        <time>2000-05-11T12:21:10.13</time>
      </trkpt>
      <trkpt lat="42.5313" lon="2.07056">
        <ele>1708.4571183218</ele>
        <time>2000-05-11T12:21:11.13</time>
      </trkpt>
      <trkpt lat="42.5313" lon="2.07055">
        <ele>1709.4288468877</ele>
        <time>2000-05-11T12:21:12.13</time>
      </trkpt>
      <trkpt lat="42.53129" lon="2.07054">
        <ele>1710.1508906208</ele>
        <time>2000-05-11T12:21:13.13</time>
      </trkpt>
      <trkpt lat="42.5313" lon="2.07052">
        <ele>1710.9706887513</ele>
        <time>2000-05-11T12:21:14.13</time>
      </trkpt>
      <trkpt lat="42.53131" lon="2.07051">
        <ele>1712.0006588152</ele>
        <time>2000-05-11T12:21:15.13</time>
      </trkpt>
      <trkpt lat="42.53132" lon="2.07049">
        <ele>1713.2534959501</ele>
        <time>2000-05-11T12:21:16.13</time>
      </trkpt>
      <trkpt lat="42.53132" lon="2.07048">
        <ele>1714.4771025212</ele>
        <time>2000-05-11T12:21:17.13</time>
      </trkpt>
      <trkpt lat="42.53132" lon="2.07047">
        <ele>1715.7048323873</ele>
        <time>2000-05-11T12:21:18.13</time>
      </trkpt>
      <trkpt lat="42.53132" lon="2.07047">
        <ele>1716.6390894994</ele>
        <time>2000-05-11T12:21:19.13</time>
      </trkpt>
      <trkpt lat="42.53132" lon="2.07046">
        <ele>1717.3011909872</ele>
        <time>2000-05-11T12:21:20.13</time>
      </trkpt>
      <trkpt lat="42.53133" lon="2.07044">
        <ele>1717.6121541727</ele>
        <time>2000-05-11T12:21:21.13</time>
      </trkpt>
      <trkpt lat="42.53133" lon="2.07043">
        <ele>1717.7274638515</ele>
        <time>2000-05-11T12:21:22.13</time>
      </trkpt>
      <trkpt lat="42.53133" lon="2.07042">
        <ele>1717.66738225</ele>
        <time>2000-05-11T12:21:23.13</time>
      </trkpt>
      <trkpt lat="42.53134" lon="2.07041">
        <ele>1717.4080892321</ele>
        <time>2000-05-11T12:21:24.13</time>
      </trkpt>
      <trkpt lat="42.53135" lon="2.0704">
        <ele>1716.7153566843</ele>
        <time>2000-05-11T12:21:25.13</time>
      </trkpt>
      <trkpt lat="42.53135" lon="2.07039">
        <ele>1716.2504223986</ele>
        <time>2000-05-11T12:21:26.13</time>
      </trkpt>
      <trkpt lat="42.53136" lon="2.07038">
        <ele>1716.0013715396</ele>
        <time>2000-05-11T12:21:27.13</time>
      </trkpt>
      <trkpt lat="42.53137" lon="2.07037">
        <ele>1715.8298569661</ele>
        <time>2000-05-11T12:21:28.13</time>
      </trkpt>
      <trkpt lat="42.53138" lon="2.07035">
        <ele>1716.0420704288</ele>
        <time>2000-05-11T12:21:29.13</time>
      </trkpt>
      <trkpt lat="42.53138" lon="2.07033">
        <ele>1716.0884501858</ele>
        <time>2000-05-11T12:21:30.13</time>
      </trkpt>
      <trkpt lat="42.53137" lon="2.07032">
        <ele>1715.6879643423</ele>
        <time>2000-05-11T12:21:31.13</time>
      </trkpt>
      <trkpt lat="42.53138" lon="2.07031">
        <ele>1715.2294362564</ele>
        <time>2000-05-11T12:21:32.13</time>
      </trkpt>
      <trkpt lat="42.53138" lon="2.07029">
        <ele>1714.7004696</ele>
        <time>2000-05-11T12:21:33.13</time>
      </trkpt>
      <trkpt lat="42.53138" lon="2.07027">
        <ele>1713.8998170085</ele>
        <time>2000-05-11T12:21:34.13</time>
      </trkpt>
      <trkpt lat="42.53138" lon="2.07027">
        <ele>1713.4369594947</ele>
        <time>2000-05-11T12:21:35.13</time>
      </trkpt>
      <trkpt lat="42.53138" lon="2.07026">
        <ele>1713.148024969</ele>
        <time>2000-05-11T12:21:36.13</time>
      </trkpt>
      <trkpt lat="42.53139" lon="2.07026">
        <ele>1712.915737913</ele>
        <time>2000-05-11T12:21:37.14</time>
      </trkpt>
      <trkpt lat="42.53139" lon="2.07025">
        <ele>1712.3116573896</ele>
        <time>2000-05-11T12:21:38.14</time>
      </trkpt>
      <trkpt lat="42.53139" lon="2.07023">
        <ele>1711.4055622801</ele>
        <time>2000-05-11T12:21:39.14</time>
      </trkpt>
      <trkpt lat="42.5314" lon="2.07022">
        <ele>1710.5034470432</ele>
        <time>2000-05-11T12:21:40.12</time>
      </trkpt>
      <trkpt lat="42.53141" lon="2.07021">
        <ele>1709.9326759867</ele>
        <time>2000-05-11T12:21:41.12</time>
      </trkpt>
      <trkpt lat="42.53141" lon="2.0702">
        <ele>1709.4278796569</ele>
        <time>2000-05-11T12:21:42.12</time>
      </trkpt>
      <trkpt lat="42.53141" lon="2.07019">
        <ele>1709.4935311751</ele>
        <time>2000-05-11T12:21:43.12</time>
      </trkpt>
      <trkpt lat="42.53142" lon="2.07018">
        <ele>1710.1208208203</ele>
        <time>2000-05-11T12:21:44.12</time>
      </trkpt>
      <trkpt lat="42.53143" lon="2.07017">
        <ele>1710.565872854</ele>
        <time>2000-05-11T12:21:45.12</time>
      </trkpt>
      <trkpt lat="42.53143" lon="2.07016">
        <ele>1710.7067431457</ele>
        <time>2000-05-11T12:21:46.12</time>
      </trkpt>
      <trkpt lat="42.53144" lon="2.07015">
        <ele>1710.8499736249</ele>
        <time>2000-05-11T12:21:47.12</time>
      </trkpt>
      <trkpt lat="42.53143" lon="2.07013">
        <ele>1710.728134444</ele>
        <time>2000-05-11T12:21:48.12</time>
      </trkpt>
      <trkpt lat="42.53142" lon="2.07011">
        <ele>1710.3107403716</ele>
        <time>2000-05-11T12:21:49.12</time>
      </trkpt>
      <trkpt lat="42.53142" lon="2.0701">
        <ele>1710.0464971583</ele>
        <time>2000-05-11T12:21:50.12</time>
      </trkpt>
      <trkpt lat="42.53142" lon="2.07009">
        <ele>1710.5325898383</ele>
        <time>2000-05-11T12:21:51.12</time>
      </trkpt>
      <trkpt lat="42.53143" lon="2.07008">
        <ele>1711.2672530683</ele>
        <time>2000-05-11T12:21:52.12</time>
      </trkpt>
      <trkpt lat="42.53143" lon="2.07008">
        <ele>1712.139431485</ele>
        <time>2000-05-11T12:21:53.12</time>
      </trkpt>
      <trkpt lat="42.53144" lon="2.07004">
        <ele>1712.7845828546</ele>
        <time>2000-05-11T12:21:54.14</time>
      </trkpt>
      <trkpt lat="42.53144" lon="2.07004">
        <ele>1713.4548411041</ele>
        <time>2000-05-11T12:21:55.14</time>
      </trkpt>
      <trkpt lat="42.53144" lon="2.07002">
        <ele>1712.7342410371</ele>
        <time>2000-05-11T12:21:56.14</time>
      </trkpt>
      <trkpt lat="42.53144" lon="2.07001">
        <ele>1711.4424502427</ele>
        <time>2000-05-11T12:21:57.14</time>
      </trkpt>
      <trkpt lat="42.53144" lon="2.06999">
        <ele>1710.2022568049</ele>
        <time>2000-05-11T12:21:58.14</time>
      </trkpt>
      <trkpt lat="42.53145" lon="2.06998">
        <ele>1709.5020837199</ele>
        <time>2000-05-11T12:21:59.14</time>
      </trkpt>
      <trkpt lat="42.53145" lon="2.06996">
        <ele>1708.9894181106</ele>
        <time>2000-05-11T12:22:00.14</time>
      </trkpt>
      <trkpt lat="42.53146" lon="2.06995">
        <ele>1709.4435052086</ele>
        <time>2000-05-11T12:22:01.14</time>
      </trkpt>
      <trkpt lat="42.53146" lon="2.06992">
        <ele>1710.9581534496</ele>
        <time>2000-05-11T12:22:02.14</time>
      </trkpt>
      <trkpt lat="42.53146" lon="2.06991">
        <ele>1712.6570573831</ele>
        <time>2000-05-11T12:22:03.14</time>
      </trkpt>
      <trkpt lat="42.53147" lon="2.06989">
        <ele>1714.3161010718</ele>
        <time>2000-05-11T12:22:04.14</time>
      </trkpt>
      <trkpt lat="42.53146" lon="2.06988">
        <ele>1715.7656567644</ele>
        <time>2000-05-11T12:22:05.14</time>
      </trkpt>
      <trkpt lat="42.53146" lon="2.06988">
        <ele>1716.8104840474</ele>
        <time>2000-05-11T12:22:06.14</time>
      </trkpt>
      <trkpt lat="42.53146" lon="2.06986">
        <ele>1716.9160458265</ele>
        <time>2000-05-11T12:22:07.13</time>
      </trkpt>
      <trkpt lat="42.53146" lon="2.06985">
        <ele>1716.7385716176</ele>
        <time>2000-05-11T12:22:08.13</time>
      </trkpt>
      <trkpt lat="42.53147" lon="2.06983">
        <ele>1716.6148131903</ele>
        <time>2000-05-11T12:22:09.13</time>
      </trkpt>
      <trkpt lat="42.53147" lon="2.06982">
        <ele>1716.3241864379</ele>
        <time>2000-05-11T12:22:10.13</time>
      </trkpt>
      <trkpt lat="42.53147" lon="2.06982">
        <ele>1716.2419302693</ele>
        <time>2000-05-11T12:22:11.13</time>
      </trkpt>
      <trkpt lat="42.53147" lon="2.0698">
        <ele>1716.2145037809</ele>
        <time>2000-05-11T12:22:12.12</time>
      </trkpt>
      <trkpt lat="42.53147" lon="2.06978">
        <ele>1715.9758231476</ele>
        <time>2000-05-11T12:22:13.12</time>
      </trkpt>
      <trkpt lat="42.53146" lon="2.06975">
        <ele>1715.1617174853</ele>
        <time>2000-05-11T12:22:14.12</time>
      </trkpt>
      <trkpt lat="42.53145" lon="2.06973">
        <ele>1714.319315928</ele>
        <time>2000-05-11T12:22:15.12</time>
      </trkpt>
      <trkpt lat="42.53144" lon="2.06972">
        <ele>1712.9838111693</ele>
        <time>2000-05-11T12:22:16.12</time>
      </trkpt>
      <trkpt lat="42.53144" lon="2.06972">
        <ele>1711.6434492912</ele>
        <time>2000-05-11T12:22:17.12</time>
      </trkpt>
      <trkpt lat="42.53145" lon="2.06971">
        <ele>1710.4674703401</ele>
        <time>2000-05-11T12:22:18.12</time>
      </trkpt>
      <trkpt lat="42.53146" lon="2.0697">
        <ele>1709.7194231732</ele>
        <time>2000-05-11T12:22:19.12</time>
      </trkpt>
      <trkpt lat="42.53147" lon="2.06969">
        <ele>1709.3150783557</ele>
        <time>2000-05-11T12:22:20.12</time>
      </trkpt>
      <trkpt lat="42.53148" lon="2.06968">
        <ele>1709.8056574306</ele>
        <time>2000-05-11T12:22:21.12</time>
      </trkpt>
      <trkpt lat="42.53149" lon="2.06966">
        <ele>1710.8614003731</ele>
        <time>2000-05-11T12:22:22.12</time>
      </trkpt>
      <trkpt lat="42.53148" lon="2.06965">
        <ele>1711.7669990566</ele>
        <time>2000-05-11T12:22:23.12</time>
      </trkpt>
      <trkpt lat="42.53148" lon="2.06963">
        <ele>1712.235898996</ele>
        <time>2000-05-11T12:22:24.12</time>
      </trkpt>
      <trkpt lat="42.53148" lon="2.06962">
        <ele>1712.4745599506</ele>
        <time>2000-05-11T12:22:25.12</time>
      </trkpt>
      <trkpt lat="42.53148" lon="2.06959">
        <ele>1712.956686963</ele>
        <time>2000-05-11T12:22:26.12</time>
      </trkpt>
      <trkpt lat="42.53148" lon="2.06957">
        <ele>1713.124121885</ele>
        <time>2000-05-11T12:22:27.12</time>
      </trkpt>
      <trkpt lat="42.53148" lon="2.06956">
        <ele>1713.1815563601</ele>
        <time>2000-05-11T12:22:28.12</time>
      </trkpt>
      <trkpt lat="42.53147" lon="2.06955">
        <ele>1713.49894299</ele>
        <time>2000-05-11T12:22:29.12</time>
      </trkpt>
      <trkpt lat="42.53147" lon="2.06954">
        <ele>1713.9690467035</ele>
        <time>2000-05-11T12:22:30.12</time>
      </trkpt>
      <trkpt lat="42.53147" lon="2.06952">
        <ele>1714.2625592858</ele>
        <time>2000-05-11T12:22:31.12</time>
      </trkpt>
      <trkpt lat="42.53147" lon="2.06951">
        <ele>1714.4439604754</ele>
        <time>2000-05-11T12:22:32.12</time>
      </trkpt>
      <trkpt lat="42.53147" lon="2.06951">
        <ele>1714.979560528</ele>
        <time>2000-05-11T12:22:33.12</time>
      </trkpt>
      <trkpt lat="42.53148" lon="2.0695">
        <ele>1715.9975198099</ele>
        <time>2000-05-11T12:22:34.12</time>
      </trkpt>
      <trkpt lat="42.53147" lon="2.06949">
        <ele>1716.7066023173</ele>
        <time>2000-05-11T12:22:35.16</time>
      </trkpt>
      <trkpt lat="42.53147" lon="2.06948">
        <ele>1716.5331675475</ele>
        <time>2000-05-11T12:22:36.16</time>
      </trkpt>
      <trkpt lat="42.53147" lon="2.06947">
        <ele>1716.4977491593</ele>
        <time>2000-05-11T12:22:37.16</time>
      </trkpt>
      <trkpt lat="42.53148" lon="2.06946">
        <ele>1716.5917210607</ele>
        <time>2000-05-11T12:22:38.16</time>
      </trkpt>
      <trkpt lat="42.53148" lon="2.06945">
        <ele>1716.350434692</ele>
        <time>2000-05-11T12:22:39.16</time>
      </trkpt>
      <trkpt lat="42.53147" lon="2.06944">
        <ele>1715.7824826762</ele>
        <time>2000-05-11T12:22:40.16</time>
      </trkpt>
      <trkpt lat="42.53147" lon="2.06943">
        <ele>1715.6471321955</ele>
        <time>2000-05-11T12:22:41.16</time>
      </trkpt>
      <trkpt lat="42.53146" lon="2.0694">
        <ele>1715.2150577962</ele>
        <time>2000-05-11T12:22:42.16</time>
      </trkpt>
      <trkpt lat="42.53145" lon="2.06938">
        <ele>1714.7843150303</ele>
        <time>2000-05-11T12:22:43.16</time>
      </trkpt>
      <trkpt lat="42.53144" lon="2.06937">
        <ele>1713.7425739845</ele>
        <time>2000-05-11T12:22:44.16</time>
      </trkpt>
      <trkpt lat="42.53145" lon="2.06936">
        <ele>1713.2549377901</ele>
        <time>2000-05-11T12:22:45.16</time>
      </trkpt>
      <trkpt lat="42.53145" lon="2.06936">
        <ele>1712.7485217206</ele>
        <time>2000-05-11T12:22:46.16</time>
      </trkpt>
      <trkpt lat="42.53145" lon="2.06935">
        <ele>1712.1112093305</ele>
        <time>2000-05-11T12:22:47.19</time>
      </trkpt>
      <trkpt lat="42.53146" lon="2.06934">
        <ele>1711.0267107004</ele>
        <time>2000-05-11T12:22:48.19</time>
      </trkpt>
      <trkpt lat="42.53147" lon="2.06932">
        <ele>1710.5760121174</ele>
        <time>2000-05-11T12:22:49.19</time>
      </trkpt>
      <trkpt lat="42.53147" lon="2.0693">
        <ele>1709.8964544049</ele>
        <time>2000-05-11T12:22:50.19</time>
      </trkpt>
      <trkpt lat="42.53148" lon="2.06926">
        <ele>1709.66846637</ele>
        <time>2000-05-11T12:22:51.19</time>
      </trkpt>
      <trkpt lat="42.53148" lon="2.06923">
        <ele>1709.2163848544</ele>
        <time>2000-05-11T12:22:52.19</time>
      </trkpt>
      <trkpt lat="42.53149" lon="2.06922">
        <ele>1708.906324177</ele>
        <time>2000-05-11T12:22:53.19</time>
      </trkpt>
      <trkpt lat="42.53149" lon="2.06921">
        <ele>1708.8064320615</ele>
        <time>2000-05-11T12:22:54.19</time>
      </trkpt>
      <trkpt lat="42.5315" lon="2.0692">
        <ele>1709.3018601801</ele>
        <time>2000-05-11T12:22:55.19</time>
      </trkpt>
      <trkpt lat="42.53151" lon="2.06918">
        <ele>1709.5635341868</ele>
        <time>2000-05-11T12:22:56.19</time>
      </trkpt>
      <trkpt lat="42.53151" lon="2.06918">
        <ele>1710.0229180934</ele>
        <time>2000-05-11T12:22:57.19</time>
      </trkpt>
      <trkpt lat="42.53152" lon="2.06917">
        <ele>1710.7647568833</ele>
        <time>2000-05-11T12:22:58.19</time>
      </trkpt>
      <trkpt lat="42.53153" lon="2.06916">
        <ele>1711.3002113879</ele>
        <time>2000-05-11T12:22:59.19</time>
      </trkpt>
      <trkpt lat="42.53154" lon="2.06915">
        <ele>1711.7601236627</ele>
        <time>2000-05-11T12:23:00.19</time>
      </trkpt>
      <trkpt lat="42.53155" lon="2.06915">
        <ele>1712.5208421169</ele>
        <time>2000-05-11T12:23:01.19</time>
      </trkpt>
      <trkpt lat="42.53155" lon="2.06913">
        <ele>1713.7322297933</ele>
        <time>2000-05-11T12:23:02.19</time>
      </trkpt>
      <trkpt lat="42.53155" lon="2.06913">
        <ele>1714.835606065</ele>
        <time>2000-05-11T12:23:03.19</time>
      </trkpt>
      <trkpt lat="42.53156" lon="2.06912">
        <ele>1715.9999409208</ele>
        <time>2000-05-11T12:23:04.19</time>
      </trkpt>
      <trkpt lat="42.53157" lon="2.06911">
        <ele>1717.0425938511</ele>
        <time>2000-05-11T12:23:05.19</time>
      </trkpt>
      <trkpt lat="42.53157" lon="2.0691">
        <ele>1717.5341447476</ele>
        <time>2000-05-11T12:23:06.19</time>
      </trkpt>
      <trkpt lat="42.53157" lon="2.06909">
        <ele>1717.6117434453</ele>
        <time>2000-05-11T12:23:07.18</time>
      </trkpt>
      <trkpt lat="42.53157" lon="2.06908">
        <ele>1717.5630524585</ele>
        <time>2000-05-11T12:23:08.18</time>
      </trkpt>
      <trkpt lat="42.53157" lon="2.06906">
        <ele>1717.0368136931</ele>
        <time>2000-05-11T12:23:09.18</time>
      </trkpt>
      <trkpt lat="42.53157" lon="2.06903">
        <ele>1716.633369267</ele>
        <time>2000-05-11T12:23:10.18</time>
      </trkpt>
      <trkpt lat="42.53158" lon="2.069">
        <ele>1716.4406514032</ele>
        <time>2000-05-11T12:23:11.18</time>
      </trkpt>
      <trkpt lat="42.53158" lon="2.06898">
        <ele>1716.3752197677</ele>
        <time>2000-05-11T12:23:12.18</time>
      </trkpt>
      <trkpt lat="42.53158" lon="2.06897">
        <ele>1716.341786127</ele>
        <time>2000-05-11T12:23:13.18</time>
      </trkpt>
      <trkpt lat="42.53158" lon="2.06896">
        <ele>1716.3574381331</ele>
        <time>2000-05-11T12:23:14.18</time>
      </trkpt>
      <trkpt lat="42.53157" lon="2.06895">
        <ele>1715.9346218191</ele>
        <time>2000-05-11T12:23:15.18</time>
      </trkpt>
      <trkpt lat="42.53157" lon="2.06894">
        <ele>1715.2807681007</ele>
        <time>2000-05-11T12:23:16.18</time>
      </trkpt>
      <trkpt lat="42.53158" lon="2.06892">
        <ele>1714.8857539225</ele>
        <time>2000-05-11T12:23:17.18</time>
      </trkpt>
      <trkpt lat="42.53157" lon="2.0689">
        <ele>1714.5308125123</ele>
        <time>2000-05-11T12:23:18.18</time>
      </trkpt>
      <trkpt lat="42.53158" lon="2.06888">
        <ele>1714.5133604052</ele>
        <time>2000-05-11T12:23:19.18</time>
      </trkpt>
      <trkpt lat="42.53158" lon="2.06887">
        <ele>1715.164019352</ele>
        <time>2000-05-11T12:23:20.18</time>
      </trkpt>
      <trkpt lat="42.53159" lon="2.06885">
        <ele>1716.278346503</ele>
        <time>2000-05-11T12:23:21.18</time>
      </trkpt>
      <trkpt lat="42.5316" lon="2.06884">
        <ele>1717.5702334451</ele>
        <time>2000-05-11T12:23:22.18</time>
      </trkpt>
      <trkpt lat="42.5316" lon="2.06883">
        <ele>1718.8683483772</ele>
        <time>2000-05-11T12:23:23.18</time>
      </trkpt>
      <trkpt lat="42.53161" lon="2.0688">
        <ele>1720.155556852</ele>
        <time>2000-05-11T12:23:24.18</time>
      </trkpt>
      <trkpt lat="42.53161" lon="2.06879">
        <ele>1720.8295407023</ele>
        <time>2000-05-11T12:23:25.18</time>
      </trkpt>
      <trkpt lat="42.53161" lon="2.06878">
        <ele>1720.5497237058</ele>
        <time>2000-05-11T12:23:26.18</time>
      </trkpt>
      <trkpt lat="42.53161" lon="2.06878">
        <ele>1719.4125564456</ele>
        <time>2000-05-11T12:23:27.18</time>
      </trkpt>
      <trkpt lat="42.53162" lon="2.06876">
        <ele>1718.0323801644</ele>
        <time>2000-05-11T12:23:28.18</time>
      </trkpt>
      <trkpt lat="42.53162" lon="2.06874">
        <ele>1716.9460189037</ele>
        <time>2000-05-11T12:23:29.18</time>
      </trkpt>
      <trkpt lat="42.53163" lon="2.06873">
        <ele>1716.4196011472</ele>
        <time>2000-05-11T12:23:30.18</time>
      </trkpt>
      <trkpt lat="42.53163" lon="2.06872">
        <ele>1716.5867898505</ele>
        <time>2000-05-11T12:23:31.18</time>
      </trkpt>
      <trkpt lat="42.53164" lon="2.06871">
        <ele>1717.2740700271</ele>
        <time>2000-05-11T12:23:32.18</time>
      </trkpt>
      <trkpt lat="42.53164" lon="2.0687">
        <ele>1718.0649344884</ele>
        <time>2000-05-11T12:23:33.18</time>
      </trkpt>
      <trkpt lat="42.53164" lon="2.06869">
        <ele>1719.0251713978</ele>
        <time>2000-05-11T12:23:34.19</time>
      </trkpt>
      <trkpt lat="42.53164" lon="2.06869">
        <ele>1719.5494172674</ele>
        <time>2000-05-11T12:23:35.19</time>
      </trkpt>
      <trkpt lat="42.53164" lon="2.06867">
        <ele>1719.503205679</ele>
        <time>2000-05-11T12:23:36.20</time>
      </trkpt>
      <trkpt lat="42.53164" lon="2.06865">
        <ele>1718.6561940296</ele>
        <time>2000-05-11T12:23:37.20</time>
      </trkpt>
      <trkpt lat="42.53165" lon="2.06863">
        <ele>1718.043048525</ele>
        <time>2000-05-11T12:23:38.20</time>
      </trkpt>
      <trkpt lat="42.53165" lon="2.06861">
        <ele>1717.2177794348</ele>
        <time>2000-05-11T12:23:39.20</time>
      </trkpt>
      <trkpt lat="42.53165" lon="2.0686">
        <ele>1716.5748530161</ele>
        <time>2000-05-11T12:23:40.20</time>
      </trkpt>
      <trkpt lat="42.53166" lon="2.06858">
        <ele>1717.0033906456</ele>
        <time>2000-05-11T12:23:41.20</time>
      </trkpt>
      <trkpt lat="42.53167" lon="2.06856">
        <ele>1718.4859055545</ele>
        <time>2000-05-11T12:23:42.20</time>
      </trkpt>
      <trkpt lat="42.53167" lon="2.06856">
        <ele>1719.9219699865</ele>
        <time>2000-05-11T12:23:43.20</time>
      </trkpt>
      <trkpt lat="42.53167" lon="2.06856">
        <ele>1721.0946958918</ele>
        <time>2000-05-11T12:23:44.20</time>
      </trkpt>
      <trkpt lat="42.53167" lon="2.06855">
        <ele>1722.2241892727</ele>
        <time>2000-05-11T12:23:45.20</time>
      </trkpt>
      <trkpt lat="42.53168" lon="2.06853">
        <ele>1722.7121714238</ele>
        <time>2000-05-11T12:23:46.21</time>
      </trkpt>
      <trkpt lat="42.53167" lon="2.06852">
        <ele>1722.4788301356</ele>
        <time>2000-05-11T12:23:47.21</time>
      </trkpt>
      <trkpt lat="42.53166" lon="2.06851">
        <ele>1721.9220544098</ele>
        <time>2000-05-11T12:23:48.21</time>
      </trkpt>
      <trkpt lat="42.53166" lon="2.0685">
        <ele>1721.2862380313</ele>
        <time>2000-05-11T12:23:49.21</time>
      </trkpt>
      <trkpt lat="42.53166" lon="2.06849">
        <ele>1720.1625304209</ele>
        <time>2000-05-11T12:23:50.21</time>
      </trkpt>
      <trkpt lat="42.53166" lon="2.06849">
        <ele>1718.7606745802</ele>
        <time>2000-05-11T12:23:51.21</time>
      </trkpt>
      <trkpt lat="42.53166" lon="2.06846">
        <ele>1717.8033456318</ele>
        <time>2000-05-11T12:23:52.19</time>
      </trkpt>
      <trkpt lat="42.53167" lon="2.06845">
        <ele>1717.4792569214</ele>
        <time>2000-05-11T12:23:53.19</time>
      </trkpt>
      <trkpt lat="42.53167" lon="2.06844">
        <ele>1717.4324072625</ele>
        <time>2000-05-11T12:23:54.19</time>
      </trkpt>
      <trkpt lat="42.53168" lon="2.06843">
        <ele>1717.7399650313</ele>
        <time>2000-05-11T12:23:55.19</time>
      </trkpt>
      <trkpt lat="42.53168" lon="2.06841">
        <ele>1718.5171564803</ele>
        <time>2000-05-11T12:23:56.19</time>
      </trkpt>
      <trkpt lat="42.53169" lon="2.06839">
        <ele>1719.4296570566</ele>
        <time>2000-05-11T12:23:57.19</time>
      </trkpt>
      <trkpt lat="42.53169" lon="2.06838">
        <ele>1720.2445475047</ele>
        <time>2000-05-11T12:23:58.19</time>
      </trkpt>
      <trkpt lat="42.5317" lon="2.06837">
        <ele>1720.8802700564</ele>
        <time>2000-05-11T12:23:59.19</time>
      </trkpt>
      <trkpt lat="42.5317" lon="2.06836">
        <ele>1721.544985068</ele>
        <time>2000-05-11T12:24:00.19</time>
      </trkpt>
      <trkpt lat="42.5317" lon="2.06835">
        <ele>1721.7859432936</ele>
        <time>2000-05-11T12:24:01.19</time>
      </trkpt>
      <trkpt lat="42.5317" lon="2.06833">
        <ele>1722.0952551108</ele>
        <time>2000-05-11T12:24:02.17</time>
      </trkpt>
      <trkpt lat="42.5317" lon="2.06833">
        <ele>1722.1923712557</ele>
        <time>2000-05-11T12:24:03.17</time>
      </trkpt>
      <trkpt lat="42.53172" lon="2.06831">
        <ele>1724.273478269</ele>
        <time>2000-05-11T12:24:04.13</time>
      </trkpt>
      <trkpt lat="42.53173" lon="2.06829">
        <ele>1726.2702434702</ele>
        <time>2000-05-11T12:24:05.13</time>
      </trkpt>
      <trkpt lat="42.53174" lon="2.06828">
        <ele>1728.48032679</ele>
        <time>2000-05-11T12:24:06.13</time>
      </trkpt>
      <trkpt lat="42.53174" lon="2.06828">
        <ele>1730.4248499805</ele>
        <time>2000-05-11T12:24:07.13</time>
      </trkpt>
      <trkpt lat="42.53174" lon="2.06827">
        <ele>1732.4132683957</ele>
        <time>2000-05-11T12:24:08.12</time>
      </trkpt>
      <trkpt lat="42.53174" lon="2.06827">
        <ele>1732.3986654403</ele>
        <time>2000-05-11T12:24:09.12</time>
      </trkpt>
      <trkpt lat="42.53174" lon="2.06824">
        <ele>1732.1974154903</ele>
        <time>2000-05-11T12:24:10.12</time>
      </trkpt>
      <trkpt lat="42.53175" lon="2.06823">
        <ele>1732.1299367456</ele>
        <time>2000-05-11T12:24:11.12</time>
      </trkpt>
      <trkpt lat="42.53175" lon="2.06822">
        <ele>1732.136915946</ele>
        <time>2000-05-11T12:24:12.12</time>
      </trkpt>
      <trkpt lat="42.53174" lon="2.06821">
        <ele>1731.7832840806</ele>
        <time>2000-05-11T12:24:13.12</time>
      </trkpt>
      <trkpt lat="42.53175" lon="2.0682">
        <ele>1731.4883667972</ele>
        <time>2000-05-11T12:24:14.12</time>
      </trkpt>
      <trkpt lat="42.53176" lon="2.06819">
        <ele>1731.2088420423</ele>
        <time>2000-05-11T12:24:15.12</time>
      </trkpt>
      <trkpt lat="42.53177" lon="2.06818">
        <ele>1730.4235757252</ele>
        <time>2000-05-11T12:24:16.12</time>
      </trkpt>
      <trkpt lat="42.53176" lon="2.06817">
        <ele>1729.5721782945</ele>
        <time>2000-05-11T12:24:17.12</time>
      </trkpt>
      <trkpt lat="42.53177" lon="2.06816">
        <ele>1729.1879787602</ele>
        <time>2000-05-11T12:24:18.12</time>
      </trkpt>
      <trkpt lat="42.53177" lon="2.06814">
        <ele>1728.442248865</ele>
        <time>2000-05-11T12:24:19.12</time>
      </trkpt>
      <trkpt lat="42.53177" lon="2.06813">
        <ele>1728.0015265923</ele>
        <time>2000-05-11T12:24:20.12</time>
      </trkpt>
      <trkpt lat="42.53177" lon="2.06812">
        <ele>1727.8954671929</ele>
        <time>2000-05-11T12:24:21.12</time>
      </trkpt>
      <trkpt lat="42.53177" lon="2.06811">
        <ele>1728.0800836816</ele>
        <time>2000-05-11T12:24:22.12</time>
      </trkpt>
      <trkpt lat="42.53177" lon="2.06811">
        <ele>1728.1142181152</ele>
        <time>2000-05-11T12:24:23.12</time>
      </trkpt>
      <trkpt lat="42.53178" lon="2.06809">
        <ele>1728.3617584053</ele>
        <time>2000-05-11T12:24:24.10</time>
      </trkpt>
      <trkpt lat="42.53178" lon="2.06806">
        <ele>1728.0398870492</ele>
        <time>2000-05-11T12:24:25.10</time>
      </trkpt>
      <trkpt lat="42.53179" lon="2.06806">
        <ele>1727.7192304917</ele>
        <time>2000-05-11T12:24:26.10</time>
      </trkpt>
      <trkpt lat="42.53179" lon="2.06805">
        <ele>1726.8257927449</ele>
        <time>2000-05-11T12:24:27.10</time>
      </trkpt>
      <trkpt lat="42.5318" lon="2.06804">
        <ele>1725.6002568193</ele>
        <time>2000-05-11T12:24:28.10</time>
      </trkpt>
      <trkpt lat="42.53181" lon="2.06803">
        <ele>1723.9936909249</ele>
        <time>2000-05-11T12:24:29.10</time>
      </trkpt>
      <trkpt lat="42.53181" lon="2.06802">
        <ele>1722.5892062057</ele>
        <time>2000-05-11T12:24:30.10</time>
      </trkpt>
      <trkpt lat="42.53182" lon="2.068">
        <ele>1721.4810706608</ele>
        <time>2000-05-11T12:24:31.10</time>
      </trkpt>
      <trkpt lat="42.53183" lon="2.068">
        <ele>1720.9151756557</ele>
        <time>2000-05-11T12:24:32.10</time>
      </trkpt>
      <trkpt lat="42.53183" lon="2.06799">
        <ele>1720.5950177597</ele>
        <time>2000-05-11T12:24:33.10</time>
      </trkpt>
      <trkpt lat="42.53184" lon="2.06799">
        <ele>1720.8158851931</ele>
        <time>2000-05-11T12:24:34.10</time>
      </trkpt>
      <trkpt lat="42.53185" lon="2.06797">
        <ele>1721.8115697676</ele>
        <time>2000-05-11T12:24:35.10</time>
      </trkpt>
      <trkpt lat="42.53186" lon="2.06796">
        <ele>1722.8370490244</ele>
        <time>2000-05-11T12:24:36.10</time>
      </trkpt>
      <trkpt lat="42.53187" lon="2.06795">
        <ele>1723.4607323963</ele>
        <time>2000-05-11T12:24:37.10</time>
      </trkpt>
      <trkpt lat="42.53187" lon="2.06794">
        <ele>1724.0558662452</ele>
        <time>2000-05-11T12:24:38.10</time>
      </trkpt>
      <trkpt lat="42.53188" lon="2.06792">
        <ele>1724.4868518932</ele>
        <time>2000-05-11T12:24:39.10</time>
      </trkpt>
      <trkpt lat="42.53188" lon="2.06791">
        <ele>1723.8197530834</ele>
        <time>2000-05-11T12:24:40.10</time>
      </trkpt>
      <trkpt lat="42.53187" lon="2.06789">
        <ele>1721.6724539937</ele>
        <time>2000-05-11T12:24:41.10</time>
      </trkpt>
      <trkpt lat="42.53186" lon="2.06787">
        <ele>1719.1079938091</ele>
        <time>2000-05-11T12:24:42.10</time>
      </trkpt>
      <trkpt lat="42.53186" lon="2.06786">
        <ele>1716.3909171434</ele>
        <time>2000-05-11T12:24:43.10</time>
      </trkpt>
      <trkpt lat="42.53186" lon="2.06785">
        <ele>1713.8918947103</ele>
        <time>2000-05-11T12:24:44.10</time>
      </trkpt>
      <trkpt lat="42.53187" lon="2.06784">
        <ele>1712.1055684635</ele>
        <time>2000-05-11T12:24:45.10</time>
      </trkpt>
      <trkpt lat="42.53187" lon="2.06784">
        <ele>1711.5181664959</ele>
        <time>2000-05-11T12:24:46.10</time>
      </trkpt>
      <trkpt lat="42.53187" lon="2.06783">
        <ele>1711.4250933776</ele>
        <time>2000-05-11T12:24:47.10</time>
      </trkpt>
      <trkpt lat="42.53187" lon="2.06781">
        <ele>1711.5073559418</ele>
        <time>2000-05-11T12:24:48.10</time>
      </trkpt>
      <trkpt lat="42.53189" lon="2.0678">
        <ele>1711.5305773309</ele>
        <time>2000-05-11T12:24:49.10</time>
      </trkpt>
      <trkpt lat="42.5319" lon="2.06779">
        <ele>1711.5745011663</ele>
        <time>2000-05-11T12:24:50.10</time>
      </trkpt>
      <trkpt lat="42.53191" lon="2.06778">
        <ele>1711.5856576964</ele>
        <time>2000-05-11T12:24:51.10</time>
      </trkpt>
      <trkpt lat="42.53191" lon="2.06778">
        <ele>1711.5250226906</ele>
        <time>2000-05-11T12:24:52.10</time>
      </trkpt>
      <trkpt lat="42.53192" lon="2.06777">
        <ele>1711.1527782105</ele>
        <time>2000-05-11T12:24:53.10</time>
      </trkpt>
      <trkpt lat="42.53192" lon="2.06775">
        <ele>1711.1934646424</ele>
        <time>2000-05-11T12:24:54.10</time>
      </trkpt>
      <trkpt lat="42.53193" lon="2.06774">
        <ele>1710.907917962</ele>
        <time>2000-05-11T12:24:55.10</time>
      </trkpt>
      <trkpt lat="42.53193" lon="2.06773">
        <ele>1710.5343754396</ele>
        <time>2000-05-11T12:24:56.10</time>
      </trkpt>
      <trkpt lat="42.53194" lon="2.06772">
        <ele>1710.482799373</ele>
        <time>2000-05-11T12:24:57.10</time>
      </trkpt>
      <trkpt lat="42.53194" lon="2.06771">
        <ele>1710.442214467</ele>
        <time>2000-05-11T12:24:58.10</time>
      </trkpt>
      <trkpt lat="42.53195" lon="2.0677">
        <ele>1709.9138711996</ele>
        <time>2000-05-11T12:24:59.10</time>
      </trkpt>
      <trkpt lat="42.53195" lon="2.06769">
        <ele>1709.5086439237</ele>
        <time>2000-05-11T12:25:00.10</time>
      </trkpt>
      <trkpt lat="42.53195" lon="2.06767">
        <ele>1708.8475609364</ele>
        <time>2000-05-11T12:25:01.12</time>
      </trkpt>
      <trkpt lat="42.53195" lon="2.06766">
        <ele>1707.7158647206</ele>
        <time>2000-05-11T12:25:02.12</time>
      </trkpt>
      <trkpt lat="42.53196" lon="2.06765">
        <ele>1706.6784027606</ele>
        <time>2000-05-11T12:25:03.12</time>
      </trkpt>
      <trkpt lat="42.53197" lon="2.06765">
        <ele>1705.4324076582</ele>
        <time>2000-05-11T12:25:04.12</time>
      </trkpt>
      <trkpt lat="42.53199" lon="2.06764">
        <ele>1704.2422198478</ele>
        <time>2000-05-11T12:25:05.12</time>
      </trkpt>
      <trkpt lat="42.532" lon="2.06763">
        <ele>1703.3951320298</ele>
        <time>2000-05-11T12:25:06.12</time>
      </trkpt>
      <trkpt lat="42.532" lon="2.06762">
        <ele>1702.7299508534</ele>
        <time>2000-05-11T12:25:07.12</time>
      </trkpt>
      <trkpt lat="42.53201" lon="2.06761">
        <ele>1702.4300111476</ele>
        <time>2000-05-11T12:25:08.12</time>
      </trkpt>
      <trkpt lat="42.53201" lon="2.0676">
        <ele>1702.9153197065</ele>
        <time>2000-05-11T12:25:09.12</time>
      </trkpt>
      <trkpt lat="42.53201" lon="2.0676">
        <ele>1703.421107102</ele>
        <time>2000-05-11T12:25:10.12</time>
      </trkpt>
      <trkpt lat="42.53201" lon="2.06759">
        <ele>1704.2106410643</ele>
        <time>2000-05-11T12:25:11.10</time>
      </trkpt>
      <trkpt lat="42.53201" lon="2.06759">
        <ele>1705.0948727537</ele>
        <time>2000-05-11T12:25:12.10</time>
      </trkpt>
      <trkpt lat="42.53201" lon="2.06757">
        <ele>1705.9018364862</ele>
        <time>2000-05-11T12:25:13.11</time>
      </trkpt>
      <trkpt lat="42.53202" lon="2.06756">
        <ele>1706.592431023</ele>
        <time>2000-05-11T12:25:14.11</time>
      </trkpt>
      <trkpt lat="42.53203" lon="2.06756">
        <ele>1707.5157798881</ele>
        <time>2000-05-11T12:25:15.11</time>
      </trkpt>
      <trkpt lat="42.53204" lon="2.06755">
        <ele>1708.2830224682</ele>
        <time>2000-05-11T12:25:16.11</time>
      </trkpt>
      <trkpt lat="42.53205" lon="2.06754">
        <ele>1709.294413916</ele>
        <time>2000-05-11T12:25:17.11</time>
      </trkpt>
      <trkpt lat="42.53206" lon="2.06751">
        <ele>1710.8456823859</ele>
        <time>2000-05-11T12:25:18.11</time>
      </trkpt>
      <trkpt lat="42.53206" lon="2.0675">
        <ele>1711.9264941314</ele>
        <time>2000-05-11T12:25:19.11</time>
      </trkpt>
      <trkpt lat="42.53206" lon="2.06749">
        <ele>1712.5007442782</ele>
        <time>2000-05-11T12:25:20.11</time>
      </trkpt>
      <trkpt lat="42.53207" lon="2.06748">
        <ele>1712.6446128838</ele>
        <time>2000-05-11T12:25:21.11</time>
      </trkpt>
      <trkpt lat="42.53207" lon="2.06747">
        <ele>1712.7554007303</ele>
        <time>2000-05-11T12:25:22.11</time>
      </trkpt>
      <trkpt lat="42.53208" lon="2.06746">
        <ele>1712.675284729</ele>
        <time>2000-05-11T12:25:23.11</time>
      </trkpt>
      <trkpt lat="42.53208" lon="2.06745">
        <ele>1712.7272747744</ele>
        <time>2000-05-11T12:25:24.11</time>
      </trkpt>
      <trkpt lat="42.53209" lon="2.06744">
        <ele>1713.2379976174</ele>
        <time>2000-05-11T12:25:25.11</time>
      </trkpt>
      <trkpt lat="42.53209" lon="2.06743">
        <ele>1714.3157942062</ele>
        <time>2000-05-11T12:25:26.10</time>
      </trkpt>
      <trkpt lat="42.5321" lon="2.06742">
        <ele>1715.6905056715</ele>
        <time>2000-05-11T12:25:27.10</time>
      </trkpt>
      <trkpt lat="42.53211" lon="2.06741">
        <ele>1716.8453841867</ele>
        <time>2000-05-11T12:25:28.10</time>
      </trkpt>
      <trkpt lat="42.53211" lon="2.0674">
        <ele>1717.6572726492</ele>
        <time>2000-05-11T12:25:29.10</time>
      </trkpt>
      <trkpt lat="42.53212" lon="2.06739">
        <ele>1718.1790669264</ele>
        <time>2000-05-11T12:25:30.10</time>
      </trkpt>
      <trkpt lat="42.53212" lon="2.06739">
        <ele>1718.4700475836</ele>
        <time>2000-05-11T12:25:31.10</time>
      </trkpt>
      <trkpt lat="42.53213" lon="2.06738">
        <ele>1718.2882673103</ele>
        <time>2000-05-11T12:25:32.10</time>
      </trkpt>
      <trkpt lat="42.53212" lon="2.06735">
        <ele>1717.9358178912</ele>
        <time>2000-05-11T12:25:33.9</time>
      </trkpt>
      <trkpt lat="42.53212" lon="2.06735">
        <ele>1717.8137404304</ele>
        <time>2000-05-11T12:25:34.9</time>
      </trkpt>
      <trkpt lat="42.53213" lon="2.06733">
        <ele>1717.7929716913</ele>
        <time>2000-05-11T12:25:35.8</time>
      </trkpt>
      <trkpt lat="42.53213" lon="2.06732">
        <ele>1717.1911323698</ele>
        <time>2000-05-11T12:25:36.8</time>
      </trkpt>
      <trkpt lat="42.53214" lon="2.06731">
        <ele>1716.7623868451</ele>
        <time>2000-05-11T12:25:37.6</time>
      </trkpt>
      <trkpt lat="42.53215" lon="2.06731">
        <ele>1716.5982650885</ele>
        <time>2000-05-11T12:25:38.6</time>
      </trkpt>
      <trkpt lat="42.53216" lon="2.0673">
        <ele>1716.5114139982</ele>
        <time>2000-05-11T12:25:39.6</time>
      </trkpt>
      <trkpt lat="42.53217" lon="2.06729">
        <ele>1716.2315600613</ele>
        <time>2000-05-11T12:25:40.6</time>
      </trkpt>
      <trkpt lat="42.53217" lon="2.06728">
        <ele>1716.3699714856</ele>
        <time>2000-05-11T12:25:41.6</time>
      </trkpt>
      <trkpt lat="42.53218" lon="2.06727">
        <ele>1716.3329424324</ele>
        <time>2000-05-11T12:25:42.6</time>
      </trkpt>
      <trkpt lat="42.5322" lon="2.06726">
        <ele>1716.8769406898</ele>
        <time>2000-05-11T12:25:43.6</time>
      </trkpt>
      <trkpt lat="42.5322" lon="2.06724">
        <ele>1717.5492317684</ele>
        <time>2000-05-11T12:25:44.6</time>
      </trkpt>
      <trkpt lat="42.53221" lon="2.06722">
        <ele>1718.542312995</ele>
        <time>2000-05-11T12:25:45.6</time>
      </trkpt>
      <trkpt lat="42.53222" lon="2.0672">
        <ele>1719.8623082811</ele>
        <time>2000-05-11T12:25:46.6</time>
      </trkpt>
      <trkpt lat="42.53222" lon="2.06719">
        <ele>1721.1608153785</ele>
        <time>2000-05-11T12:25:47.6</time>
      </trkpt>
      <trkpt lat="42.53222" lon="2.06719">
        <ele>1721.6658022542</ele>
        <time>2000-05-11T12:25:48.6</time>
      </trkpt>
      <trkpt lat="42.53222" lon="2.06717">
        <ele>1722.0959801622</ele>
        <time>2000-05-11T12:25:49.6</time>
      </trkpt>
      <trkpt lat="42.53222" lon="2.06716">
        <ele>1722.3110055231</ele>
        <time>2000-05-11T12:25:50.6</time>
      </trkpt>
      <trkpt lat="42.53223" lon="2.06715">
        <ele>1722.2075005069</ele>
        <time>2000-05-11T12:25:51.6</time>
      </trkpt>
      <trkpt lat="42.53223" lon="2.06713">
        <ele>1722.4719969431</ele>
        <time>2000-05-11T12:25:52.6</time>
      </trkpt>
      <trkpt lat="42.53223" lon="2.06712">
        <ele>1722.6859992716</ele>
        <time>2000-05-11T12:25:53.6</time>
      </trkpt>
      <trkpt lat="42.53224" lon="2.06711">
        <ele>1722.6902828136</ele>
        <time>2000-05-11T12:25:54.6</time>
      </trkpt>
      <trkpt lat="42.53224" lon="2.0671">
        <ele>1722.6380088056</ele>
        <time>2000-05-11T12:25:55.6</time>
      </trkpt>
      <trkpt lat="42.53224" lon="2.06709">
        <ele>1722.9142663205</ele>
        <time>2000-05-11T12:25:56.8</time>
      </trkpt>
      <trkpt lat="42.53224" lon="2.06709">
        <ele>1722.8111351982</ele>
        <time>2000-05-11T12:25:57.8</time>
      </trkpt>
      <trkpt lat="42.53224" lon="2.06706">
        <ele>1722.7100946121</ele>
        <time>2000-05-11T12:25:58.8</time>
      </trkpt>
      <trkpt lat="42.53226" lon="2.06703">
        <ele>1722.8645817537</ele>
        <time>2000-05-11T12:25:59.8</time>
      </trkpt>
      <trkpt lat="42.53226" lon="2.06703">
        <ele>1723.1668516275</ele>
        <time>2000-05-11T12:26:00.8</time>
      </trkpt>
      <trkpt lat="42.53226" lon="2.06702">
        <ele>1723.0738320984</ele>
        <time>2000-05-11T12:26:01.8</time>
      </trkpt>
      <trkpt lat="42.53226" lon="2.06702">
        <ele>1722.9808125693</ele>
        <time>2000-05-11T12:26:02.8</time>
      </trkpt>
      <trkpt lat="42.53226" lon="2.067">
        <ele>1723.2930842217</ele>
        <time>2000-05-11T12:26:03.8</time>
      </trkpt>
      <trkpt lat="42.53226" lon="2.06698">
        <ele>1723.7154326776</ele>
        <time>2000-05-11T12:26:04.8</time>
      </trkpt>
      <trkpt lat="42.53227" lon="2.06696">
        <ele>1723.9225381821</ele>
        <time>2000-05-11T12:26:05.8</time>
      </trkpt>
      <trkpt lat="42.53227" lon="2.06693">
        <ele>1724.4119785665</ele>
        <time>2000-05-11T12:26:06.8</time>
      </trkpt>
      <trkpt lat="42.53227" lon="2.06692">
        <ele>1724.6374414222</ele>
        <time>2000-05-11T12:26:07.8</time>
      </trkpt>
      <trkpt lat="42.53227" lon="2.06691">
        <ele>1724.0121618982</ele>
        <time>2000-05-11T12:26:08.8</time>
      </trkpt>
      <trkpt lat="42.53227" lon="2.06691">
        <ele>1723.10024211</ele>
        <time>2000-05-11T12:26:09.8</time>
      </trkpt>
      <trkpt lat="42.53227" lon="2.06691">
        <ele>1722.4035652731</ele>
        <time>2000-05-11T12:26:10.8</time>
      </trkpt>
      <trkpt lat="42.53228" lon="2.06688">
        <ele>1722.3145371258</ele>
        <time>2000-05-11T12:26:11.7</time>
      </trkpt>
      <trkpt lat="42.53227" lon="2.06687">
        <ele>1722.1359701419</ele>
        <time>2000-05-11T12:26:12.7</time>
      </trkpt>
      <trkpt lat="42.53227" lon="2.06686">
        <ele>1721.9511209682</ele>
        <time>2000-05-11T12:26:13.7</time>
      </trkpt>
      <trkpt lat="42.53226" lon="2.06684">
        <ele>1721.3032822143</ele>
        <time>2000-05-11T12:26:14.7</time>
      </trkpt>
      <trkpt lat="42.53226" lon="2.06683">
        <ele>1720.5916441798</ele>
        <time>2000-05-11T12:26:15.7</time>
      </trkpt>
      <trkpt lat="42.53226" lon="2.06682">
        <ele>1719.2920005152</ele>
        <time>2000-05-11T12:26:16.7</time>
      </trkpt>
      <trkpt lat="42.53227" lon="2.0668">
        <ele>1718.6683746245</ele>
        <time>2000-05-11T12:26:17.7</time>
      </trkpt>
      <trkpt lat="42.53228" lon="2.06678">
        <ele>1718.6729242325</ele>
        <time>2000-05-11T12:26:18.7</time>
      </trkpt>
      <trkpt lat="42.53228" lon="2.06678">
        <ele>1719.1404634206</ele>
        <time>2000-05-11T12:26:19.7</time>
      </trkpt>
      <trkpt lat="42.53228" lon="2.06678">
        <ele>1719.6718018893</ele>
        <time>2000-05-11T12:26:20.7</time>
      </trkpt>
      <trkpt lat="42.53228" lon="2.06677">
        <ele>1720.2958441824</ele>
        <time>2000-05-11T12:26:21.7</time>
      </trkpt>
      <trkpt lat="42.5323" lon="2.06675">
        <ele>1721.3824495342</ele>
        <time>2000-05-11T12:26:22.6</time>
      </trkpt>
      <trkpt lat="42.53231" lon="2.06673">
        <ele>1722.7518770618</ele>
        <time>2000-05-11T12:26:23.6</time>
      </trkpt>
      <trkpt lat="42.53231" lon="2.06671">
        <ele>1724.2967909522</ele>
        <time>2000-05-11T12:26:24.6</time>
      </trkpt>
      <trkpt lat="42.53231" lon="2.06671">
        <ele>1725.8417048426</ele>
        <time>2000-05-11T12:26:25.6</time>
      </trkpt>
      <trkpt lat="42.53232" lon="2.06671">
        <ele>1727.2184268231</ele>
        <time>2000-05-11T12:26:26.6</time>
      </trkpt>
      <trkpt lat="42.53232" lon="2.0667">
        <ele>1727.6987632766</ele>
        <time>2000-05-11T12:26:27.6</time>
      </trkpt>
      <trkpt lat="42.53232" lon="2.06669">
        <ele>1727.5303593464</ele>
        <time>2000-05-11T12:26:28.6</time>
      </trkpt>
      <trkpt lat="42.53232" lon="2.06668">
        <ele>1726.9594467482</ele>
        <time>2000-05-11T12:26:29.6</time>
      </trkpt>
      <trkpt lat="42.53232" lon="2.06666">
        <ele>1725.5795822827</ele>
        <time>2000-05-11T12:26:30.4</time>
      </trkpt>
      <trkpt lat="42.53232" lon="2.06665">
        <ele>1724.0753719328</ele>
        <time>2000-05-11T12:26:31.4</time>
      </trkpt>
      <trkpt lat="42.53231" lon="2.06664">
        <ele>1722.4499798328</ele>
        <time>2000-05-11T12:26:32.4</time>
      </trkpt>
      <trkpt lat="42.53233" lon="2.06663">
        <ele>1721.2471222032</ele>
        <time>2000-05-11T12:26:33.3</time>
      </trkpt>
      <trkpt lat="42.53234" lon="2.06662">
        <ele>1720.752895855</ele>
        <time>2000-05-11T12:26:34.3</time>
      </trkpt>
      <trkpt lat="42.53234" lon="2.0666">
        <ele>1721.1051552162</ele>
        <time>2000-05-11T12:26:35.3</time>
      </trkpt>
      <trkpt lat="42.53234" lon="2.06659">
        <ele>1721.1718801538</ele>
        <time>2000-05-11T12:26:36.3</time>
      </trkpt>
      <trkpt lat="42.53234" lon="2.06658">
        <ele>1721.1965780238</ele>
        <time>2000-05-11T12:26:37.3</time>
      </trkpt>
      <trkpt lat="42.53235" lon="2.06657">
        <ele>1721.0694224644</ele>
        <time>2000-05-11T12:26:38.3</time>
      </trkpt>
      <trkpt lat="42.53235" lon="2.06656">
        <ele>1720.520172862</ele>
        <time>2000-05-11T12:26:39.2</time>
      </trkpt>
      <trkpt lat="42.53235" lon="2.06656">
        <ele>1719.9333894173</ele>
        <time>2000-05-11T12:26:40.2</time>
      </trkpt>
      <trkpt lat="42.53235" lon="2.06655">
        <ele>1719.8131257752</ele>
        <time>2000-05-11T12:26:41.3</time>
      </trkpt>
      <trkpt lat="42.53236" lon="2.06654">
        <ele>1720.1050001046</ele>
        <time>2000-05-11T12:26:42.3</time>
      </trkpt>
      <trkpt lat="42.53236" lon="2.06653">
        <ele>1720.6869561534</ele>
        <time>2000-05-11T12:26:43.4</time>
      </trkpt>
      <trkpt lat="42.53235" lon="2.06651">
        <ele>1721.3417466922</ele>
        <time>2000-05-11T12:26:44.4</time>
      </trkpt>
      <trkpt lat="42.53236" lon="2.0665">
        <ele>1721.9423602751</ele>
        <time>2000-05-11T12:26:45.4</time>
      </trkpt>
      <trkpt lat="42.53236" lon="2.06648">
        <ele>1722.6560461631</ele>
        <time>2000-05-11T12:26:46.4</time>
      </trkpt>
      <trkpt lat="42.53237" lon="2.06647">
        <ele>1723.5131912723</ele>
        <time>2000-05-11T12:26:47.4</time>
      </trkpt>
      <trkpt lat="42.53237" lon="2.06645">
        <ele>1724.381001527</ele>
        <time>2000-05-11T12:26:48.4</time>
      </trkpt>
      <trkpt lat="42.53238" lon="2.06644">
        <ele>1725.1282715654</ele>
        <time>2000-05-11T12:26:49.4</time>
      </trkpt>
      <trkpt lat="42.53239" lon="2.06642">
        <ele>1726.0883808538</ele>
        <time>2000-05-11T12:26:50.4</time>
      </trkpt>
      <trkpt lat="42.53238" lon="2.06641">
        <ele>1726.5274668001</ele>
        <time>2000-05-11T12:26:51.4</time>
      </trkpt>
      <trkpt lat="42.53238" lon="2.0664">
        <ele>1726.6576677574</ele>
        <time>2000-05-11T12:26:52.4</time>
      </trkpt>
      <trkpt lat="42.53238" lon="2.06639">
        <ele>1726.6594779262</ele>
        <time>2000-05-11T12:26:53.4</time>
      </trkpt>
      <trkpt lat="42.53238" lon="2.06639">
        <ele>1726.6494788887</ele>
        <time>2000-05-11T12:26:54.4</time>
      </trkpt>
      <trkpt lat="42.53238" lon="2.06638">
        <ele>1726.3508973598</ele>
        <time>2000-05-11T12:26:55.2</time>
      </trkpt>
      <trkpt lat="42.53239" lon="2.06637">
        <ele>1726.3970336398</ele>
        <time>2000-05-11T12:26:56.2</time>
      </trkpt>
      <trkpt lat="42.53239" lon="2.06635">
        <ele>1726.2727485238</ele>
        <time>2000-05-11T12:26:57.2</time>
      </trkpt>
      <trkpt lat="42.53239" lon="2.06634">
        <ele>1725.8284015354</ele>
        <time>2000-05-11T12:26:58.2</time>
      </trkpt>
      <trkpt lat="42.5324" lon="2.06633">
        <ele>1725.4143611683</ele>
        <time>2000-05-11T12:26:59.2</time>
      </trkpt>
      <trkpt lat="42.5324" lon="2.06632">
        <ele>1724.9213794256</ele>
        <time>2000-05-11T12:27:00.2</time>
      </trkpt>
      <trkpt lat="42.5324" lon="2.06632">
        <ele>1724.4296809813</ele>
        <time>2000-05-11T12:27:01.2</time>
      </trkpt>
      <trkpt lat="42.5324" lon="2.06631">
        <ele>1724.4287005045</ele>
        <time>2000-05-11T12:27:02.2</time>
      </trkpt>
      <trkpt lat="42.5324" lon="2.06629">
        <ele>1724.5540839108</ele>
        <time>2000-05-11T12:27:03.2</time>
      </trkpt>
      <trkpt lat="42.53241" lon="2.06629">
        <ele>1724.8535275992</ele>
        <time>2000-05-11T12:27:04.2</time>
      </trkpt>
      <trkpt lat="42.53241" lon="2.06627">
        <ele>1725.4404982725</ele>
        <time>2000-05-11T12:27:05.2</time>
      </trkpt>
      <trkpt lat="42.53242" lon="2.06626">
        <ele>1725.8789947189</ele>
        <time>2000-05-11T12:27:06.2</time>
      </trkpt>
      <trkpt lat="42.53243" lon="2.06625">
        <ele>1726.0850096116</ele>
        <time>2000-05-11T12:27:07.2</time>
      </trkpt>
      <trkpt lat="42.53245" lon="2.06625">
        <ele>1726.6518139882</ele>
        <time>2000-05-11T12:27:08.2</time>
      </trkpt>
      <trkpt lat="42.53245" lon="2.06625">
        <ele>1727.0142514614</ele>
        <time>2000-05-11T12:27:09.2</time>
      </trkpt>
      <trkpt lat="42.53245" lon="2.06624">
        <ele>1727.3988623608</ele>
        <time>2000-05-11T12:27:10.2</time>
      </trkpt>
      <trkpt lat="42.53245" lon="2.06623">
        <ele>1727.1261389589</ele>
        <time>2000-05-11T12:27:11.1</time>
      </trkpt>
      <trkpt lat="42.53245" lon="2.06622">
        <ele>1726.3354271773</ele>
        <time>2000-05-11T12:27:12.1</time>
      </trkpt>
      <trkpt lat="42.53246" lon="2.0662">
        <ele>1725.2651387984</ele>
        <time>2000-05-11T12:27:13.1</time>
      </trkpt>
      <trkpt lat="42.53246" lon="2.06618">
        <ele>1724.3188473368</ele>
        <time>2000-05-11T12:27:14.1</time>
      </trkpt>
      <trkpt lat="42.53246" lon="2.06616">
        <ele>1723.3403957244</ele>
        <time>2000-05-11T12:27:15.1</time>
      </trkpt>
      <trkpt lat="42.53247" lon="2.06615">
        <ele>1723.5517235795</ele>
        <time>2000-05-11T12:27:16.1</time>
      </trkpt>
      <trkpt lat="42.53248" lon="2.06614">
        <ele>1724.3419467945</ele>
        <time>2000-05-11T12:27:17.1</time>
      </trkpt>
      <trkpt lat="42.53249" lon="2.06613">
        <ele>1725.3008199299</ele>
        <time>2000-05-11T12:27:18.1</time>
      </trkpt>
      <trkpt lat="42.53249" lon="2.06612">
        <ele>1726.158127795</ele>
        <time>2000-05-11T12:27:19.1</time>
      </trkpt>
      <trkpt lat="42.53249" lon="2.06612">
        <ele>1726.9467569726</ele>
        <time>2000-05-11T12:27:20.1</time>
      </trkpt>
      <trkpt lat="42.5325" lon="2.06611">
        <ele>1727.5443926049</ele>
        <time>2000-05-11T12:27:21</time>
      </trkpt>
      <trkpt lat="42.5325" lon="2.0661">
        <ele>1728.0051395975</ele>
        <time>2000-05-11T12:27:22</time>
      </trkpt>
      <trkpt lat="42.53251" lon="2.0661">
        <ele>1728.3700579703</ele>
        <time>2000-05-11T12:27:22.998</time>
      </trkpt>
      <trkpt lat="42.53252" lon="2.06609">
        <ele>1728.7050525699</ele>
        <time>2000-05-11T12:27:23.998</time>
      </trkpt>
      <trkpt lat="42.53253" lon="2.06608">
        <ele>1729.2243915312</ele>
        <time>2000-05-11T12:27:24.998</time>
      </trkpt>
      <trkpt lat="42.53253" lon="2.06608">
        <ele>1729.3967095653</ele>
        <time>2000-05-11T12:27:25.998</time>
      </trkpt>
      <trkpt lat="42.53254" lon="2.06607">
        <ele>1729.4804042526</ele>
        <time>2000-05-11T12:27:26.998</time>
      </trkpt>
      <trkpt lat="42.53255" lon="2.06606">
        <ele>1729.3235067004</ele>
        <time>2000-05-11T12:27:27.998</time>
      </trkpt>
      <trkpt lat="42.53256" lon="2.06606">
        <ele>1729.3465113889</ele>
        <time>2000-05-11T12:27:28.998</time>
      </trkpt>
      <trkpt lat="42.53256" lon="2.06604">
        <ele>1729.0539909553</ele>
        <time>2000-05-11T12:27:29.998</time>
      </trkpt>
      <trkpt lat="42.53257" lon="2.06603">
        <ele>1728.8165575977</ele>
        <time>2000-05-11T12:27:30.998</time>
      </trkpt>
      <trkpt lat="42.53257" lon="2.06602">
        <ele>1728.6404880807</ele>
        <time>2000-05-11T12:27:31.998</time>
      </trkpt>
      <trkpt lat="42.5326" lon="2.06601">
        <ele>1728.793741991</ele>
        <time>2000-05-11T12:27:32.998</time>
      </trkpt>
      <trkpt lat="42.5326" lon="2.06601">
        <ele>1728.7745857868</ele>
        <time>2000-05-11T12:27:33.998</time>
      </trkpt>
      <trkpt lat="42.5326" lon="2.06601">
        <ele>1728.8866103431</ele>
        <time>2000-05-11T12:27:34.998</time>
      </trkpt>
      <trkpt lat="42.5326" lon="2.06601">
        <ele>1729.0975913564</ele>
        <time>2000-05-11T12:27:35.998</time>
      </trkpt>
      <trkpt lat="42.53261" lon="2.06599">
        <ele>1729.90942945</ele>
        <time>2000-05-11T12:27:36.997</time>
      </trkpt>
      <trkpt lat="42.53262" lon="2.06599">
        <ele>1730.4020358974</ele>
        <time>2000-05-11T12:27:37.997</time>
      </trkpt>
      <trkpt lat="42.53262" lon="2.06598">
        <ele>1731.1077582829</ele>
        <time>2000-05-11T12:27:38.997</time>
      </trkpt>
      <trkpt lat="42.53263" lon="2.06597">
        <ele>1731.8754222164</ele>
        <time>2000-05-11T12:27:39.997</time>
      </trkpt>
      <trkpt lat="42.53265" lon="2.06596">
        <ele>1732.9742071625</ele>
        <time>2000-05-11T12:27:40.997</time>
      </trkpt>
      <trkpt lat="42.53265" lon="2.06595">
        <ele>1733.2532054553</ele>
        <time>2000-05-11T12:27:41.997</time>
      </trkpt>
      <trkpt lat="42.53267" lon="2.06595">
        <ele>1733.6955529271</ele>
        <time>2000-05-11T12:27:42.997</time>
      </trkpt>
      <trkpt lat="42.53268" lon="2.06594">
        <ele>1733.9022812618</ele>
        <time>2000-05-11T12:27:43.997</time>
      </trkpt>
      <trkpt lat="42.53268" lon="2.06594">
        <ele>1734.0470680485</ele>
        <time>2000-05-11T12:27:44.997</time>
      </trkpt>
      <trkpt lat="42.53267" lon="2.06596">
        <ele>1733.4458444001</ele>
        <time>2000-05-11T12:27:45.997</time>
      </trkpt>
      <trkpt lat="42.53269" lon="2.06596">
        <ele>1733.4546115594</ele>
        <time>2000-05-11T12:27:46.997</time>
      </trkpt>
      <trkpt lat="42.5327" lon="2.06596">
        <ele>1733.4724243967</ele>
        <time>2000-05-11T12:27:47.997</time>
      </trkpt>
      <trkpt lat="42.5327" lon="2.06596">
        <ele>1733.512740433</ele>
        <time>2000-05-11T12:27:48.997</time>
      </trkpt>
      <trkpt lat="42.5327" lon="2.06596">
        <ele>1733.5530564694</ele>
        <time>2000-05-11T12:27:49.997</time>
      </trkpt>
      <trkpt lat="42.53271" lon="2.06594">
        <ele>1733.345590671</ele>
        <time>2000-05-11T12:27:50.997</time>
      </trkpt>
      <trkpt lat="42.53273" lon="2.06593">
        <ele>1732.8728953458</ele>
        <time>2000-05-11T12:27:51.997</time>
      </trkpt>
      <trkpt lat="42.53276" lon="2.06591">
        <ele>1732.1740197618</ele>
        <time>2000-05-11T12:27:52.997</time>
      </trkpt>
      <trkpt lat="42.53277" lon="2.06591">
        <ele>1731.5172696454</ele>
        <time>2000-05-11T12:27:53.997</time>
      </trkpt>
      <trkpt lat="42.53278" lon="2.06589">
        <ele>1730.1245561026</ele>
        <time>2000-05-11T12:27:54.997</time>
      </trkpt>
      <trkpt lat="42.53279" lon="2.06587">
        <ele>1729.5517299464</ele>
        <time>2000-05-11T12:27:55.997</time>
      </trkpt>
      <trkpt lat="42.5328" lon="2.06587">
        <ele>1729.0920241816</ele>
        <time>2000-05-11T12:27:56.997</time>
      </trkpt>
      <trkpt lat="42.5328" lon="2.06586">
        <ele>1728.5916082624</ele>
        <time>2000-05-11T12:27:57.997</time>
      </trkpt>
      <trkpt lat="42.53281" lon="2.06585">
        <ele>1728.0131464733</ele>
        <time>2000-05-11T12:27:58.997</time>
      </trkpt>
      <trkpt lat="42.53283" lon="2.06584">
        <ele>1728.4233059419</ele>
        <time>2000-05-11T12:27:59.997</time>
      </trkpt>
      <trkpt lat="42.53283" lon="2.06584">
        <ele>1728.6762492811</ele>
        <time>2000-05-11T12:28:00.997</time>
      </trkpt>
      <trkpt lat="42.53284" lon="2.06584">
        <ele>1728.7847647149</ele>
        <time>2000-05-11T12:28:01.995</time>
      </trkpt>
      <trkpt lat="42.53285" lon="2.06583">
        <ele>1728.8912517201</ele>
        <time>2000-05-11T12:28:02.995</time>
      </trkpt>
      <trkpt lat="42.53285" lon="2.06581">
        <ele>1729.1408158282</ele>
        <time>2000-05-11T12:28:03.995</time>
      </trkpt>
      <trkpt lat="42.53286" lon="2.06582">
        <ele>1729.2594216289</ele>
        <time>2000-05-11T12:28:04.995</time>
      </trkpt>
      <trkpt lat="42.53287" lon="2.06581">
        <ele>1729.6917179301</ele>
        <time>2000-05-11T12:28:05.995</time>
      </trkpt>
      <trkpt lat="42.53288" lon="2.0658">
        <ele>1730.0241301589</ele>
        <time>2000-05-11T12:28:06.995</time>
      </trkpt>
      <trkpt lat="42.53289" lon="2.0658">
        <ele>1730.428390836</ele>
        <time>2000-05-11T12:28:07.995</time>
      </trkpt>
      <trkpt lat="42.5329" lon="2.0658">
        <ele>1730.7529714836</ele>
        <time>2000-05-11T12:28:08.995</time>
      </trkpt>
      <trkpt lat="42.53292" lon="2.0658">
        <ele>1731.1637282217</ele>
        <time>2000-05-11T12:28:09.995</time>
      </trkpt>
      <trkpt lat="42.53293" lon="2.06579">
        <ele>1731.1465670729</ele>
        <time>2000-05-11T12:28:10.995</time>
      </trkpt>
      <trkpt lat="42.53294" lon="2.06576">
        <ele>1731.4027330207</ele>
        <time>2000-05-11T12:28:11.995</time>
      </trkpt>
      <trkpt lat="42.53294" lon="2.06575">
        <ele>1731.9094505558</ele>
        <time>2000-05-11T12:28:12.995</time>
      </trkpt>
      <trkpt lat="42.53294" lon="2.06575">
        <ele>1732.1097722501</ele>
        <time>2000-05-11T12:28:13.995</time>
      </trkpt>
      <trkpt lat="42.53294" lon="2.06574">
        <ele>1731.8378000556</ele>
        <time>2000-05-11T12:28:14.995</time>
      </trkpt>
      <trkpt lat="42.53295" lon="2.06572">
        <ele>1731.8943321312</ele>
        <time>2000-05-11T12:28:15.995</time>
      </trkpt>
      <trkpt lat="42.53296" lon="2.06571">
        <ele>1731.2578549709</ele>
        <time>2000-05-11T12:28:16.995</time>
      </trkpt>
      <trkpt lat="42.53297" lon="2.0657">
        <ele>1729.7693890413</ele>
        <time>2000-05-11T12:28:17.995</time>
      </trkpt>
      <trkpt lat="42.53297" lon="2.06569">
        <ele>1727.9326002106</ele>
        <time>2000-05-11T12:28:18.995</time>
      </trkpt>
      <trkpt lat="42.53298" lon="2.06568">
        <ele>1726.1477346616</ele>
        <time>2000-05-11T12:28:19.995</time>
      </trkpt>
      <trkpt lat="42.53299" lon="2.06566">
        <ele>1724.2493498182</ele>
        <time>2000-05-11T12:28:20.995</time>
      </trkpt>
      <trkpt lat="42.53299" lon="2.06565">
        <ele>1722.38695434</ele>
        <time>2000-05-11T12:28:21.995</time>
      </trkpt>
      <trkpt lat="42.53299" lon="2.06564">
        <ele>1721.0519018088</ele>
        <time>2000-05-11T12:28:22.995</time>
      </trkpt>
      <trkpt lat="42.533" lon="2.06562">
        <ele>1720.7307036227</ele>
        <time>2000-05-11T12:28:23.995</time>
      </trkpt>
      <trkpt lat="42.53301" lon="2.06559">
        <ele>1721.1997763596</ele>
        <time>2000-05-11T12:28:24.995</time>
      </trkpt>
      <trkpt lat="42.53302" lon="2.06558">
        <ele>1722.1028298207</ele>
        <time>2000-05-11T12:28:25.995</time>
      </trkpt>
      <trkpt lat="42.53303" lon="2.06557">
        <ele>1723.581645257</ele>
        <time>2000-05-11T12:28:26.995</time>
      </trkpt>
      <trkpt lat="42.53303" lon="2.06556">
        <ele>1725.3264522476</ele>
        <time>2000-05-11T12:28:27.995</time>
      </trkpt>
      <trkpt lat="42.53303" lon="2.06554">
        <ele>1726.7241847727</ele>
        <time>2000-05-11T12:28:28.995</time>
      </trkpt>
      <trkpt lat="42.53302" lon="2.06552">
        <ele>1727.347483689</ele>
        <time>2000-05-11T12:28:29.995</time>
      </trkpt>
      <trkpt lat="42.53303" lon="2.06551">
        <ele>1727.5156772429</ele>
        <time>2000-05-11T12:28:30.995</time>
      </trkpt>
      <trkpt lat="42.53303" lon="2.0655">
        <ele>1727.5489400446</ele>
        <time>2000-05-11T12:28:31.995</time>
      </trkpt>
      <trkpt lat="42.53305" lon="2.06549">
        <ele>1728.5178454986</ele>
        <time>2000-05-11T12:28:32.995</time>
      </trkpt>
      <trkpt lat="42.53306" lon="2.06549">
        <ele>1730.5155871985</ele>
        <time>2000-05-11T12:28:33.995</time>
      </trkpt>
      <trkpt lat="42.53307" lon="2.06548">
        <ele>1733.0462290701</ele>
        <time>2000-05-11T12:28:34.995</time>
      </trkpt>
      <trkpt lat="42.53307" lon="2.06548">
        <ele>1735.4972379904</ele>
        <time>2000-05-11T12:28:35.995</time>
      </trkpt>
      <trkpt lat="42.53307" lon="2.06548">
        <ele>1737.9397121621</ele>
        <time>2000-05-11T12:28:36.995</time>
      </trkpt>
      <trkpt lat="42.53309" lon="2.06549">
        <ele>1739.4160222288</ele>
        <time>2000-05-11T12:28:37.997</time>
      </trkpt>
      <trkpt lat="42.53309" lon="2.06549">
        <ele>1739.8239582406</ele>
        <time>2000-05-11T12:28:38.997</time>
      </trkpt>
      <trkpt lat="42.53311" lon="2.06549">
        <ele>1739.9697772151</ele>
        <time>2000-05-11T12:28:39.999</time>
      </trkpt>
      <trkpt lat="42.53311" lon="2.06549">
        <ele>1740.1155961895</ele>
        <time>2000-05-11T12:28:40.999</time>
      </trkpt>
      <trkpt lat="42.53312" lon="2.06549">
        <ele>1740.6073644897</ele>
        <time>2000-05-11T12:28:42.1</time>
      </trkpt>
      <trkpt lat="42.53314" lon="2.0655">
        <ele>1741.3554988245</ele>
        <time>2000-05-11T12:28:43.1</time>
      </trkpt>
      <trkpt lat="42.53314" lon="2.0655">
        <ele>1742.1036331592</ele>
        <time>2000-05-11T12:28:44.1</time>
      </trkpt>
      <trkpt lat="42.53315" lon="2.06551">
        <ele>1742.6174237277</ele>
        <time>2000-05-11T12:28:45.2</time>
      </trkpt>
      <trkpt lat="42.53315" lon="2.06551">
        <ele>1743.1312142963</ele>
        <time>2000-05-11T12:28:46.2</time>
      </trkpt>
      <trkpt lat="42.53316" lon="2.06552">
        <ele>1742.8398922969</ele>
        <time>2000-05-11T12:28:47.2</time>
      </trkpt>
      <trkpt lat="42.53318" lon="2.06553">
        <ele>1742.2366257384</ele>
        <time>2000-05-11T12:28:48.2</time>
      </trkpt>
      <trkpt lat="42.53318" lon="2.06553">
        <ele>1741.63335918</ele>
        <time>2000-05-11T12:28:49.2</time>
      </trkpt>
      <trkpt lat="42.53319" lon="2.06553">
        <ele>1741.4810469449</ele>
        <time>2000-05-11T12:28:50.3</time>
      </trkpt>
      <trkpt lat="42.5332" lon="2.06554">
        <ele>1740.9935713824</ele>
        <time>2000-05-11T12:28:51.3</time>
      </trkpt>
      <trkpt lat="42.53321" lon="2.06553">
        <ele>1740.9095890921</ele>
        <time>2000-05-11T12:28:52.9</time>
      </trkpt>
      <trkpt lat="42.53322" lon="2.06553">
        <ele>1740.7849079575</ele>
        <time>2000-05-11T12:28:53.9</time>
      </trkpt>
      <trkpt lat="42.53324" lon="2.06553">
        <ele>1740.3257246669</ele>
        <time>2000-05-11T12:28:54.9</time>
      </trkpt>
      <trkpt lat="42.53324" lon="2.06553">
        <ele>1739.5758053636</ele>
        <time>2000-05-11T12:28:55.9</time>
      </trkpt>
      <trkpt lat="42.53325" lon="2.06552">
        <ele>1738.8108585721</ele>
        <time>2000-05-11T12:28:56.9</time>
      </trkpt>
      <trkpt lat="42.53325" lon="2.06551">
        <ele>1737.8308684848</ele>
        <time>2000-05-11T12:28:57.9</time>
      </trkpt>
      <trkpt lat="42.53326" lon="2.0655">
        <ele>1736.4532150233</ele>
        <time>2000-05-11T12:28:58.9</time>
      </trkpt>
      <trkpt lat="42.53326" lon="2.06548">
        <ele>1732.88989169</ele>
        <time>2000-05-11T12:28:59.13</time>
      </trkpt>
      <trkpt lat="42.53327" lon="2.06546">
        <ele>1729.0823665811</ele>
        <time>2000-05-11T12:29:00.13</time>
      </trkpt>
      <trkpt lat="42.53332" lon="2.06543">
        <ele>1726.495231094</ele>
        <time>2000-05-11T12:29:01.13</time>
      </trkpt>
      <trkpt lat="42.53335" lon="2.06543">
        <ele>1724.696298565</ele>
        <time>2000-05-11T12:29:02.13</time>
      </trkpt>
      <trkpt lat="42.53336" lon="2.06542">
        <ele>1723.3976490155</ele>
        <time>2000-05-11T12:29:03.13</time>
      </trkpt>
      <trkpt lat="42.53338" lon="2.06541">
        <ele>1724.5927293221</ele>
        <time>2000-05-11T12:29:04.13</time>
      </trkpt>
      <trkpt lat="42.53338" lon="2.06541">
        <ele>1726.0320114043</ele>
        <time>2000-05-11T12:29:05.13</time>
      </trkpt>
      <trkpt lat="42.5334" lon="2.06541">
        <ele>1727.3768222695</ele>
        <time>2000-05-11T12:29:06.13</time>
      </trkpt>
      <trkpt lat="42.53341" lon="2.0654">
        <ele>1728.6855944069</ele>
        <time>2000-05-11T12:29:07.13</time>
      </trkpt>
      <trkpt lat="42.53341" lon="2.0654">
        <ele>1729.9163307888</ele>
        <time>2000-05-11T12:29:08.13</time>
      </trkpt>
      <trkpt lat="42.53342" lon="2.06541">
        <ele>1732.0147205694</ele>
        <time>2000-05-11T12:29:09.11</time>
      </trkpt>
      <trkpt lat="42.53342" lon="2.06541">
        <ele>1734.1131103499</ele>
        <time>2000-05-11T12:29:10.11</time>
      </trkpt>
      <trkpt lat="42.53343" lon="2.06538">
        <ele>1735.3073840154</ele>
        <time>2000-05-11T12:29:11.8</time>
      </trkpt>
      <trkpt lat="42.53344" lon="2.06537">
        <ele>1736.0569160467</ele>
        <time>2000-05-11T12:29:12.8</time>
      </trkpt>
      <trkpt lat="42.53344" lon="2.06536">
        <ele>1736.7096550308</ele>
        <time>2000-05-11T12:29:13.8</time>
      </trkpt>
      <trkpt lat="42.53345" lon="2.06534">
        <ele>1736.7335858045</ele>
        <time>2000-05-11T12:29:14.8</time>
      </trkpt>
      <trkpt lat="42.53345" lon="2.06533">
        <ele>1736.9961777089</ele>
        <time>2000-05-11T12:29:15.8</time>
      </trkpt>
      <trkpt lat="42.53346" lon="2.06533">
        <ele>1737.7337739259</ele>
        <time>2000-05-11T12:29:16.8</time>
      </trkpt>
      <trkpt lat="42.53348" lon="2.06533">
        <ele>1739.1143707711</ele>
        <time>2000-05-11T12:29:17.9</time>
      </trkpt>
      <trkpt lat="42.53349" lon="2.06532">
        <ele>1740.3872853626</ele>
        <time>2000-05-11T12:29:18.9</time>
      </trkpt>
      <trkpt lat="42.53348" lon="2.06531">
        <ele>1740.947874782</ele>
        <time>2000-05-11T12:29:19.8</time>
      </trkpt>
      <trkpt lat="42.53348" lon="2.0653">
        <ele>1741.0375382632</ele>
        <time>2000-05-11T12:29:20.8</time>
      </trkpt>
      <trkpt lat="42.53348" lon="2.06528">
        <ele>1741.0052664487</ele>
        <time>2000-05-11T12:29:21.8</time>
      </trkpt>
      <trkpt lat="42.53349" lon="2.06527">
        <ele>1740.4190840397</ele>
        <time>2000-05-11T12:29:22.8</time>
      </trkpt>
      <trkpt lat="42.5335" lon="2.06527">
        <ele>1740.0950130172</ele>
        <time>2000-05-11T12:29:23.6</time>
      </trkpt>
      <trkpt lat="42.5335" lon="2.06527">
        <ele>1740.2708641503</ele>
        <time>2000-05-11T12:29:24.6</time>
      </trkpt>
      <trkpt lat="42.5335" lon="2.06525">
        <ele>1740.7914854279</ele>
        <time>2000-05-11T12:29:25.7</time>
      </trkpt>
      <trkpt lat="42.53351" lon="2.06524">
        <ele>1741.1699985843</ele>
        <time>2000-05-11T12:29:26.7</time>
      </trkpt>
      <trkpt lat="42.53352" lon="2.06523">
        <ele>1741.0847088851</ele>
        <time>2000-05-11T12:29:27.7</time>
      </trkpt>
      <trkpt lat="42.53353" lon="2.06522">
        <ele>1741.1361957617</ele>
        <time>2000-05-11T12:29:28.7</time>
      </trkpt>
      <trkpt lat="42.53353" lon="2.06522">
        <ele>1741.1876826383</ele>
        <time>2000-05-11T12:29:29.7</time>
      </trkpt>
      <trkpt lat="42.53352" lon="2.06521">
        <ele>1741.0647890279</ele>
        <time>2000-05-11T12:29:30.5</time>
      </trkpt>
      <trkpt lat="42.53352" lon="2.06519">
        <ele>1741.0709575679</ele>
        <time>2000-05-11T12:29:31.5</time>
      </trkpt>
      <trkpt lat="42.53352" lon="2.06518">
        <ele>1741.4440013755</ele>
        <time>2000-05-11T12:29:32.5</time>
      </trkpt>
      <trkpt lat="42.53352" lon="2.06517">
        <ele>1741.1651058225</ele>
        <time>2000-05-11T12:29:33.6</time>
      </trkpt>
      <trkpt lat="42.53352" lon="2.06516">
        <ele>1740.825968823</ele>
        <time>2000-05-11T12:29:34.6</time>
      </trkpt>
      <trkpt lat="42.53353" lon="2.06515">
        <ele>1740.5716057261</ele>
        <time>2000-05-11T12:29:35.6</time>
      </trkpt>
      <trkpt lat="42.53355" lon="2.06515">
        <ele>1740.7360839557</ele>
        <time>2000-05-11T12:29:36.6</time>
      </trkpt>
      <trkpt lat="42.53355" lon="2.06515">
        <ele>1740.8716904094</ele>
        <time>2000-05-11T12:29:37.6</time>
      </trkpt>
      <trkpt lat="42.53355" lon="2.06515">
        <ele>1741.4648235625</ele>
        <time>2000-05-11T12:29:38.6</time>
      </trkpt>
      <trkpt lat="42.53356" lon="2.06515">
        <ele>1741.6573236758</ele>
        <time>2000-05-11T12:29:39.6</time>
      </trkpt>
      <trkpt lat="42.53357" lon="2.06514">
        <ele>1741.7038100908</ele>
        <time>2000-05-11T12:29:40.6</time>
      </trkpt>
      <trkpt lat="42.53357" lon="2.06511">
        <ele>1740.9444979494</ele>
        <time>2000-05-11T12:29:41.7</time>
      </trkpt>
      <trkpt lat="42.53358" lon="2.06509">
        <ele>1740.2889007905</ele>
        <time>2000-05-11T12:29:42.7</time>
      </trkpt>
      <trkpt lat="42.53358" lon="2.06508">
        <ele>1739.5806478884</ele>
        <time>2000-05-11T12:29:43.7</time>
      </trkpt>
      <trkpt lat="42.53358" lon="2.06506">
        <ele>1738.5657716928</ele>
        <time>2000-05-11T12:29:44.7</time>
      </trkpt>
      <trkpt lat="42.53357" lon="2.06505">
        <ele>1736.9571939992</ele>
        <time>2000-05-11T12:29:45.7</time>
      </trkpt>
      <trkpt lat="42.53357" lon="2.06505">
        <ele>1735.5239390148</ele>
        <time>2000-05-11T12:29:46.7</time>
      </trkpt>
      <trkpt lat="42.53358" lon="2.06504">
        <ele>1734.5306736492</ele>
        <time>2000-05-11T12:29:47.7</time>
      </trkpt>
      <trkpt lat="42.53359" lon="2.06503">
        <ele>1733.7495937129</ele>
        <time>2000-05-11T12:29:48.7</time>
      </trkpt>
      <trkpt lat="42.5336" lon="2.06502">
        <ele>1733.7354181549</ele>
        <time>2000-05-11T12:29:49.7</time>
      </trkpt>
      <trkpt lat="42.53361" lon="2.06501">
        <ele>1734.2595545698</ele>
        <time>2000-05-11T12:29:50.7</time>
      </trkpt>
      <trkpt lat="42.53362" lon="2.06499">
        <ele>1734.7633387448</ele>
        <time>2000-05-11T12:29:51.7</time>
      </trkpt>
      <trkpt lat="42.53363" lon="2.06498">
        <ele>1734.6925464341</ele>
        <time>2000-05-11T12:29:52.7</time>
      </trkpt>
      <trkpt lat="42.53363" lon="2.06497">
        <ele>1734.5447666483</ele>
        <time>2000-05-11T12:29:53.7</time>
      </trkpt>
      <trkpt lat="42.53364" lon="2.06496">
        <ele>1734.457183036</ele>
        <time>2000-05-11T12:29:54.7</time>
      </trkpt>
      <trkpt lat="42.53364" lon="2.06496">
        <ele>1734.5481038947</ele>
        <time>2000-05-11T12:29:55.7</time>
      </trkpt>
      <trkpt lat="42.53363" lon="2.06494">
        <ele>1734.4877952367</ele>
        <time>2000-05-11T12:29:56.7</time>
      </trkpt>
      <trkpt lat="42.53363" lon="2.06494">
        <ele>1734.4583584633</ele>
        <time>2000-05-11T12:29:57.7</time>
      </trkpt>
      <trkpt lat="42.53364" lon="2.06492">
        <ele>1734.3438084748</ele>
        <time>2000-05-11T12:29:58.5</time>
      </trkpt>
      <trkpt lat="42.53364" lon="2.06492">
        <ele>1733.9439111223</ele>
        <time>2000-05-11T12:29:59.5</time>
      </trkpt>
      <trkpt lat="42.53365" lon="2.06491">
        <ele>1733.3918613765</ele>
        <time>2000-05-11T12:30:00.6</time>
      </trkpt>
      <trkpt lat="42.53366" lon="2.06489">
        <ele>1732.688679239</ele>
        <time>2000-05-11T12:30:01.6</time>
      </trkpt>
      <trkpt lat="42.53367" lon="2.06488">
        <ele>1731.8242335344</ele>
        <time>2000-05-11T12:30:02.6</time>
      </trkpt>
      <trkpt lat="42.53367" lon="2.06487">
        <ele>1730.9837428145</ele>
        <time>2000-05-11T12:30:03.6</time>
      </trkpt>
      <trkpt lat="42.53367" lon="2.06485">
        <ele>1729.8492879741</ele>
        <time>2000-05-11T12:30:04.6</time>
      </trkpt>
      <trkpt lat="42.53368" lon="2.06482">
        <ele>1729.5918497374</ele>
        <time>2000-05-11T12:30:05.6</time>
      </trkpt>
      <trkpt lat="42.53369" lon="2.06481">
        <ele>1729.7630688589</ele>
        <time>2000-05-11T12:30:06.6</time>
      </trkpt>
      <trkpt lat="42.5337" lon="2.0648">
        <ele>1730.6909271877</ele>
        <time>2000-05-11T12:30:07.6</time>
      </trkpt>
      <trkpt lat="42.53371" lon="2.06478">
        <ele>1731.7393416435</ele>
        <time>2000-05-11T12:30:08.6</time>
      </trkpt>
      <trkpt lat="42.53371" lon="2.06478">
        <ele>1733.3074648116</ele>
        <time>2000-05-11T12:30:09.6</time>
      </trkpt>
      <trkpt lat="42.53371" lon="2.06478">
        <ele>1734.1507237693</ele>
        <time>2000-05-11T12:30:10.6</time>
      </trkpt>
      <trkpt lat="42.53373" lon="2.06478">
        <ele>1735.0787823757</ele>
        <time>2000-05-11T12:30:11.6</time>
      </trkpt>
      <trkpt lat="42.53375" lon="2.06475">
        <ele>1736.2689187611</ele>
        <time>2000-05-11T12:30:12.6</time>
      </trkpt>
      <trkpt lat="42.53375" lon="2.06473">
        <ele>1737.7109353779</ele>
        <time>2000-05-11T12:30:13.6</time>
      </trkpt>
      <trkpt lat="42.53376" lon="2.06472">
        <ele>1738.8648022607</ele>
        <time>2000-05-11T12:30:14.6</time>
      </trkpt>
      <trkpt lat="42.53376" lon="2.06473">
        <ele>1740.1398034649</ele>
        <time>2000-05-11T12:30:15.6</time>
      </trkpt>
      <trkpt lat="42.53376" lon="2.06472">
        <ele>1741.2513145912</ele>
        <time>2000-05-11T12:30:16.6</time>
      </trkpt>
      <trkpt lat="42.53377" lon="2.06471">
        <ele>1741.6459039545</ele>
        <time>2000-05-11T12:30:17.6</time>
      </trkpt>
      <trkpt lat="42.53378" lon="2.06468">
        <ele>1742.5618901482</ele>
        <time>2000-05-11T12:30:18.5</time>
      </trkpt>
      <trkpt lat="42.53379" lon="2.06468">
        <ele>1743.7368277287</ele>
        <time>2000-05-11T12:30:19.5</time>
      </trkpt>
      <trkpt lat="42.5338" lon="2.06467">
        <ele>1744.4445037987</ele>
        <time>2000-05-11T12:30:20.5</time>
      </trkpt>
      <trkpt lat="42.53381" lon="2.06465">
        <ele>1743.572694305</ele>
        <time>2000-05-11T12:30:21.3</time>
      </trkpt>
      <trkpt lat="42.53382" lon="2.06464">
        <ele>1742.3998622026</ele>
        <time>2000-05-11T12:30:22.3</time>
      </trkpt>
      <trkpt lat="42.53382" lon="2.06463">
        <ele>1740.3987266393</ele>
        <time>2000-05-11T12:30:23.3</time>
      </trkpt>
      <trkpt lat="42.53383" lon="2.06462">
        <ele>1738.6798010532</ele>
        <time>2000-05-11T12:30:24.3</time>
      </trkpt>
      <trkpt lat="42.53383" lon="2.06461">
        <ele>1737.7648452099</ele>
        <time>2000-05-11T12:30:25.2</time>
      </trkpt>
      <trkpt lat="42.53383" lon="2.06461">
        <ele>1738.4021221498</ele>
        <time>2000-05-11T12:30:26.2</time>
      </trkpt>
      <trkpt lat="42.53384" lon="2.06461">
        <ele>1739.2736667182</ele>
        <time>2000-05-11T12:30:27.2</time>
      </trkpt>
      <trkpt lat="42.53386" lon="2.06461">
        <ele>1740.3552389644</ele>
        <time>2000-05-11T12:30:28.2</time>
      </trkpt>
      <trkpt lat="42.53385" lon="2.06459">
        <ele>1740.59381094</ele>
        <time>2000-05-11T12:30:29.2</time>
      </trkpt>
      <trkpt lat="42.53385" lon="2.06459">
        <ele>1740.3745403618</ele>
        <time>2000-05-11T12:30:30.2</time>
      </trkpt>
      <trkpt lat="42.53387" lon="2.06456">
        <ele>1739.5628910907</ele>
        <time>2000-05-11T12:30:31.2</time>
      </trkpt>
      <trkpt lat="42.53387" lon="2.06455">
        <ele>1738.5564927878</ele>
        <time>2000-05-11T12:30:32.2</time>
      </trkpt>
      <trkpt lat="42.53388" lon="2.06455">
        <ele>1737.6121729692</ele>
        <time>2000-05-11T12:30:33.2</time>
      </trkpt>
      <trkpt lat="42.53388" lon="2.06454">
        <ele>1737.1903805139</ele>
        <time>2000-05-11T12:30:34.2</time>
      </trkpt>
      <trkpt lat="42.53389" lon="2.06454">
        <ele>1736.7021401064</ele>
        <time>2000-05-11T12:30:35.2</time>
      </trkpt>
      <trkpt lat="42.5339" lon="2.06454">
        <ele>1736.9960018538</ele>
        <time>2000-05-11T12:30:36.2</time>
      </trkpt>
      <trkpt lat="42.53391" lon="2.06453">
        <ele>1737.1153631032</ele>
        <time>2000-05-11T12:30:37.2</time>
      </trkpt>
      <trkpt lat="42.53391" lon="2.06451">
        <ele>1736.4455813609</ele>
        <time>2000-05-11T12:30:38.2</time>
      </trkpt>
      <trkpt lat="42.5339" lon="2.0645">
        <ele>1735.0590301508</ele>
        <time>2000-05-11T12:30:39.2</time>
      </trkpt>
      <trkpt lat="42.5339" lon="2.06449">
        <ele>1732.9367592053</ele>
        <time>2000-05-11T12:30:40.2</time>
      </trkpt>
      <trkpt lat="42.5339" lon="2.06448">
        <ele>1730.6226473447</ele>
        <time>2000-05-11T12:30:41.2</time>
      </trkpt>
      <trkpt lat="42.53391" lon="2.06447">
        <ele>1728.5400602125</ele>
        <time>2000-05-11T12:30:42.2</time>
      </trkpt>
      <trkpt lat="42.53391" lon="2.06445">
        <ele>1726.7770652574</ele>
        <time>2000-05-11T12:30:43.2</time>
      </trkpt>
      <trkpt lat="42.53391" lon="2.06444">
        <ele>1725.6364866333</ele>
        <time>2000-05-11T12:30:44.2</time>
      </trkpt>
      <trkpt lat="42.53391" lon="2.06444">
        <ele>1725.2980756966</ele>
        <time>2000-05-11T12:30:45.2</time>
      </trkpt>
      <trkpt lat="42.5339" lon="2.06443">
        <ele>1724.4457933675</ele>
        <time>2000-05-11T12:30:46.3</time>
      </trkpt>
      <trkpt lat="42.53389" lon="2.06441">
        <ele>1723.3304718493</ele>
        <time>2000-05-11T12:30:47.3</time>
      </trkpt>
      <trkpt lat="42.5339" lon="2.06439">
        <ele>1722.2496586794</ele>
        <time>2000-05-11T12:30:48.3</time>
      </trkpt>
      <trkpt lat="42.53391" lon="2.06439">
        <ele>1721.4420974389</ele>
        <time>2000-05-11T12:30:49.3</time>
      </trkpt>
      <trkpt lat="42.53392" lon="2.06438">
        <ele>1720.8349075491</ele>
        <time>2000-05-11T12:30:50.3</time>
      </trkpt>
      <trkpt lat="42.53392" lon="2.06437">
        <ele>1720.1855019419</ele>
        <time>2000-05-11T12:30:51.3</time>
      </trkpt>
      <trkpt lat="42.53392" lon="2.06437">
        <ele>1719.8630836491</ele>
        <time>2000-05-11T12:30:52.3</time>
      </trkpt>
      <trkpt lat="42.53393" lon="2.06436">
        <ele>1719.7828953588</ele>
        <time>2000-05-11T12:30:53.3</time>
      </trkpt>
      <trkpt lat="42.53394" lon="2.06435">
        <ele>1720.038519853</ele>
        <time>2000-05-11T12:30:54.2</time>
      </trkpt>
      <trkpt lat="42.53393" lon="2.06436">
        <ele>1720.368019671</ele>
        <time>2000-05-11T12:30:55.2</time>
      </trkpt>
      <trkpt lat="42.53393" lon="2.06436">
        <ele>1721.2864992661</ele>
        <time>2000-05-11T12:30:56.2</time>
      </trkpt>
      <trkpt lat="42.53394" lon="2.06435">
        <ele>1722.4186004706</ele>
        <time>2000-05-11T12:30:57.2</time>
      </trkpt>
      <trkpt lat="42.53397" lon="2.06433">
        <ele>1723.6382591356</ele>
        <time>2000-05-11T12:30:58.2</time>
      </trkpt>
      <trkpt lat="42.53398" lon="2.06432">
        <ele>1724.5797723614</ele>
        <time>2000-05-11T12:30:59.2</time>
      </trkpt>
      <trkpt lat="42.534" lon="2.06431">
        <ele>1725.2407194605</ele>
        <time>2000-05-11T12:31:00.2</time>
      </trkpt>
      <trkpt lat="42.53401" lon="2.0643">
        <ele>1725.810633344</ele>
        <time>2000-05-11T12:31:01.2</time>
      </trkpt>
      <trkpt lat="42.53402" lon="2.06429">
        <ele>1725.7016535476</ele>
        <time>2000-05-11T12:31:02.2</time>
      </trkpt>
      <trkpt lat="42.53404" lon="2.06429">
        <ele>1725.5557923708</ele>
        <time>2000-05-11T12:31:03.2</time>
      </trkpt>
      <trkpt lat="42.53405" lon="2.06427">
        <ele>1725.837880055</ele>
        <time>2000-05-11T12:31:04.2</time>
      </trkpt>
      <trkpt lat="42.53407" lon="2.06426">
        <ele>1726.8642509405</ele>
        <time>2000-05-11T12:31:05.2</time>
      </trkpt>
      <trkpt lat="42.53409" lon="2.06425">
        <ele>1728.5417650767</ele>
        <time>2000-05-11T12:31:06.2</time>
      </trkpt>
      <trkpt lat="42.53411" lon="2.06424">
        <ele>1730.6803583615</ele>
        <time>2000-05-11T12:31:07.2</time>
      </trkpt>
      <trkpt lat="42.53411" lon="2.06423">
        <ele>1732.3450062249</ele>
        <time>2000-05-11T12:31:08.2</time>
      </trkpt>
      <trkpt lat="42.53411" lon="2.06423">
        <ele>1733.4126003671</ele>
        <time>2000-05-11T12:31:09.2</time>
      </trkpt>
      <trkpt lat="42.53412" lon="2.06423">
        <ele>1733.9565256387</ele>
        <time>2000-05-11T12:31:10.2</time>
      </trkpt>
      <trkpt lat="42.53412" lon="2.06423">
        <ele>1733.9095656611</ele>
        <time>2000-05-11T12:31:11.2</time>
      </trkpt>
      <trkpt lat="42.53412" lon="2.0642">
        <ele>1733.1196095895</ele>
        <time>2000-05-11T12:31:12.2</time>
      </trkpt>
      <trkpt lat="42.53413" lon="2.0642">
        <ele>1732.2419407036</ele>
        <time>2000-05-11T12:31:13.2</time>
      </trkpt>
      <trkpt lat="42.53414" lon="2.06419">
        <ele>1731.7215152042</ele>
        <time>2000-05-11T12:31:14.1</time>
      </trkpt>
      <trkpt lat="42.53414" lon="2.06419">
        <ele>1730.9867948264</ele>
        <time>2000-05-11T12:31:15.1</time>
      </trkpt>
      <trkpt lat="42.53415" lon="2.06418">
        <ele>1729.5968929097</ele>
        <time>2000-05-11T12:31:16.3</time>
      </trkpt>
      <trkpt lat="42.53415" lon="2.06417">
        <ele>1728.8475545479</ele>
        <time>2000-05-11T12:31:17.3</time>
      </trkpt>
      <trkpt lat="42.53416" lon="2.06416">
        <ele>1728.2283648001</ele>
        <time>2000-05-11T12:31:18.4</time>
      </trkpt>
      <trkpt lat="42.53417" lon="2.06415">
        <ele>1727.4720684648</ele>
        <time>2000-05-11T12:31:19.4</time>
      </trkpt>
      <trkpt lat="42.53419" lon="2.06413">
        <ele>1726.8399952728</ele>
        <time>2000-05-11T12:31:20.4</time>
      </trkpt>
      <trkpt lat="42.53419" lon="2.06412">
        <ele>1726.5824965067</ele>
        <time>2000-05-11T12:31:21.4</time>
      </trkpt>
      <trkpt lat="42.53419" lon="2.06411">
        <ele>1726.2058579518</ele>
        <time>2000-05-11T12:31:22.4</time>
      </trkpt>
      <trkpt lat="42.5342" lon="2.0641">
        <ele>1726.118151843</ele>
        <time>2000-05-11T12:31:23.4</time>
      </trkpt>
      <trkpt lat="42.5342" lon="2.06409">
        <ele>1725.5505568</ele>
        <time>2000-05-11T12:31:24.4</time>
      </trkpt>
      <trkpt lat="42.53421" lon="2.06408">
        <ele>1724.7539613139</ele>
        <time>2000-05-11T12:31:25.4</time>
      </trkpt>
      <trkpt lat="42.53424" lon="2.06407">
        <ele>1724.4601684809</ele>
        <time>2000-05-11T12:31:26.4</time>
      </trkpt>
      <trkpt lat="42.53423" lon="2.06405">
        <ele>1724.2585985981</ele>
        <time>2000-05-11T12:31:27.4</time>
      </trkpt>
      <trkpt lat="42.53425" lon="2.06403">
        <ele>1724.1056699963</ele>
        <time>2000-05-11T12:31:28.4</time>
      </trkpt>
      <trkpt lat="42.53426" lon="2.06403">
        <ele>1724.1342827322</ele>
        <time>2000-05-11T12:31:29.4</time>
      </trkpt>
      <trkpt lat="42.53426" lon="2.06402">
        <ele>1723.6951769976</ele>
        <time>2000-05-11T12:31:30.4</time>
      </trkpt>
      <trkpt lat="42.53425" lon="2.064">
        <ele>1722.0894815542</ele>
        <time>2000-05-11T12:31:31.4</time>
      </trkpt>
      <trkpt lat="42.53425" lon="2.064">
        <ele>1720.6173284106</ele>
        <time>2000-05-11T12:31:32.4</time>
      </trkpt>
      <trkpt lat="42.53426" lon="2.064">
        <ele>1719.1398050738</ele>
        <time>2000-05-11T12:31:33.7</time>
      </trkpt>
      <trkpt lat="42.53427" lon="2.06399">
        <ele>1718.0157324873</ele>
        <time>2000-05-11T12:31:34.7</time>
      </trkpt>
      <trkpt lat="42.53427" lon="2.06398">
        <ele>1717.224103347</ele>
        <time>2000-05-11T12:31:35.7</time>
      </trkpt>
      <trkpt lat="42.53427" lon="2.06397">
        <ele>1717.353229291</ele>
        <time>2000-05-11T12:31:36.7</time>
      </trkpt>
      <trkpt lat="42.53427" lon="2.06396">
        <ele>1717.4706316996</ele>
        <time>2000-05-11T12:31:37.7</time>
      </trkpt>
      <trkpt lat="42.53428" lon="2.06395">
        <ele>1717.6290973924</ele>
        <time>2000-05-11T12:31:38.7</time>
      </trkpt>
      <trkpt lat="42.53428" lon="2.06394">
        <ele>1717.5182207879</ele>
        <time>2000-05-11T12:31:39.7</time>
      </trkpt>
      <trkpt lat="42.53429" lon="2.06393">
        <ele>1717.8240852773</ele>
        <time>2000-05-11T12:31:40.7</time>
      </trkpt>
      <trkpt lat="42.5343" lon="2.06392">
        <ele>1718.5000140149</ele>
        <time>2000-05-11T12:31:41.7</time>
      </trkpt>
      <trkpt lat="42.53431" lon="2.06391">
        <ele>1719.4541784128</ele>
        <time>2000-05-11T12:31:42.7</time>
      </trkpt>
      <trkpt lat="42.53431" lon="2.06391">
        <ele>1720.2497021267</ele>
        <time>2000-05-11T12:31:43.7</time>
      </trkpt>
      <trkpt lat="42.53431" lon="2.06391">
        <ele>1721.0393281855</ele>
        <time>2000-05-11T12:31:44.7</time>
      </trkpt>
      <trkpt lat="42.53432" lon="2.0639">
        <ele>1722.064677077</ele>
        <time>2000-05-11T12:31:45.10</time>
      </trkpt>
      <trkpt lat="42.53432" lon="2.06389">
        <ele>1722.6699649552</ele>
        <time>2000-05-11T12:31:46.10</time>
      </trkpt>
      <trkpt lat="42.53433" lon="2.06388">
        <ele>1722.8879204778</ele>
        <time>2000-05-11T12:31:47.10</time>
      </trkpt>
      <trkpt lat="42.53433" lon="2.06388">
        <ele>1722.8648863288</ele>
        <time>2000-05-11T12:31:48.10</time>
      </trkpt>
      <trkpt lat="42.53434" lon="2.06387">
        <ele>1722.755416579</ele>
        <time>2000-05-11T12:31:49.10</time>
      </trkpt>
      <trkpt lat="42.53434" lon="2.06387">
        <ele>1722.2335352262</ele>
        <time>2000-05-11T12:31:50.10</time>
      </trkpt>
      <trkpt lat="42.53435" lon="2.06386">
        <ele>1722.6372757349</ele>
        <time>2000-05-11T12:31:51.9</time>
      </trkpt>
      <trkpt lat="42.53436" lon="2.06386">
        <ele>1723.1485218378</ele>
        <time>2000-05-11T12:31:52.9</time>
      </trkpt>
      <trkpt lat="42.53438" lon="2.06384">
        <ele>1724.12155159</ele>
        <time>2000-05-11T12:31:53.9</time>
      </trkpt>
      <trkpt lat="42.53439" lon="2.06384">
        <ele>1724.9830402218</ele>
        <time>2000-05-11T12:31:54.9</time>
      </trkpt>
      <trkpt lat="42.5344" lon="2.06383">
        <ele>1725.7612171849</ele>
        <time>2000-05-11T12:31:55.9</time>
      </trkpt>
      <trkpt lat="42.5344" lon="2.06381">
        <ele>1725.1415575974</ele>
        <time>2000-05-11T12:31:56.9</time>
      </trkpt>
      <trkpt lat="42.53441" lon="2.06379">
        <ele>1724.2832987225</ele>
        <time>2000-05-11T12:31:57.9</time>
      </trkpt>
      <trkpt lat="42.53441" lon="2.06379">
        <ele>1723.2042458698</ele>
        <time>2000-05-11T12:31:58.9</time>
      </trkpt>
      <trkpt lat="42.53441" lon="2.06378">
        <ele>1722.3587207828</ele>
        <time>2000-05-11T12:31:59.9</time>
      </trkpt>
      <trkpt lat="42.53442" lon="2.06378">
        <ele>1721.3842613356</ele>
        <time>2000-05-11T12:32:00.9</time>
      </trkpt>
      <trkpt lat="42.53442" lon="2.06377">
        <ele>1721.0184653297</ele>
        <time>2000-05-11T12:32:01.9</time>
      </trkpt>
      <trkpt lat="42.53442" lon="2.06375">
        <ele>1721.2895994237</ele>
        <time>2000-05-11T12:32:02.9</time>
      </trkpt>
      <trkpt lat="42.53443" lon="2.06374">
        <ele>1721.5272355586</ele>
        <time>2000-05-11T12:32:03.9</time>
      </trkpt>
      <trkpt lat="42.53444" lon="2.06373">
        <ele>1721.8813506417</ele>
        <time>2000-05-11T12:32:04.9</time>
      </trkpt>
      <trkpt lat="42.53445" lon="2.06373">
        <ele>1722.5694379961</ele>
        <time>2000-05-11T12:32:05.9</time>
      </trkpt>
      <trkpt lat="42.53445" lon="2.06372">
        <ele>1723.0338496331</ele>
        <time>2000-05-11T12:32:06.9</time>
      </trkpt>
      <trkpt lat="42.53445" lon="2.06371">
        <ele>1723.1915651405</ele>
        <time>2000-05-11T12:32:07.10</time>
      </trkpt>
      <trkpt lat="42.53445" lon="2.06371">
        <ele>1723.3827786069</ele>
        <time>2000-05-11T12:32:08.10</time>
      </trkpt>
      <trkpt lat="42.53445" lon="2.06367">
        <ele>1723.1256895572</ele>
        <time>2000-05-11T12:32:09.14</time>
      </trkpt>
      <trkpt lat="42.53446" lon="2.06366">
        <ele>1722.6187572606</ele>
        <time>2000-05-11T12:32:10.14</time>
      </trkpt>
      <trkpt lat="42.53448" lon="2.06365">
        <ele>1722.8545461955</ele>
        <time>2000-05-11T12:32:11.14</time>
      </trkpt>
      <trkpt lat="42.5345" lon="2.06363">
        <ele>1723.8156495085</ele>
        <time>2000-05-11T12:32:12.14</time>
      </trkpt>
      <trkpt lat="42.53452" lon="2.06362">
        <ele>1724.9629787086</ele>
        <time>2000-05-11T12:32:13.14</time>
      </trkpt>
      <trkpt lat="42.53453" lon="2.06361">
        <ele>1726.3063675385</ele>
        <time>2000-05-11T12:32:14.14</time>
      </trkpt>
      <trkpt lat="42.53453" lon="2.0636">
        <ele>1727.4015971465</ele>
        <time>2000-05-11T12:32:15.14</time>
      </trkpt>
      <trkpt lat="42.53453" lon="2.06359">
        <ele>1727.594597158</ele>
        <time>2000-05-11T12:32:16.14</time>
      </trkpt>
      <trkpt lat="42.53453" lon="2.06357">
        <ele>1726.8491051488</ele>
        <time>2000-05-11T12:32:17.14</time>
      </trkpt>
      <trkpt lat="42.53453" lon="2.06356">
        <ele>1725.9250670686</ele>
        <time>2000-05-11T12:32:18.14</time>
      </trkpt>
      <trkpt lat="42.53454" lon="2.06355">
        <ele>1725.1270828985</ele>
        <time>2000-05-11T12:32:19.14</time>
      </trkpt>
      <trkpt lat="42.53455" lon="2.06355">
        <ele>1724.6278622739</ele>
        <time>2000-05-11T12:32:20.14</time>
      </trkpt>
      <trkpt lat="42.53455" lon="2.06355">
        <ele>1724.4490128295</ele>
        <time>2000-05-11T12:32:21.14</time>
      </trkpt>
      <trkpt lat="42.53456" lon="2.06355">
        <ele>1724.4719171129</ele>
        <time>2000-05-11T12:32:22.13</time>
      </trkpt>
      <trkpt lat="42.53456" lon="2.06355">
        <ele>1724.4871415801</ele>
        <time>2000-05-11T12:32:23.13</time>
      </trkpt>
      <trkpt lat="42.53457" lon="2.06352">
        <ele>1724.2263217635</ele>
        <time>2000-05-11T12:32:24.14</time>
      </trkpt>
      <trkpt lat="42.53457" lon="2.06351">
        <ele>1723.6360019771</ele>
        <time>2000-05-11T12:32:25.14</time>
      </trkpt>
      <trkpt lat="42.53457" lon="2.06349">
        <ele>1722.7448539378</ele>
        <time>2000-05-11T12:32:26.14</time>
      </trkpt>
      <trkpt lat="42.53457" lon="2.06347">
        <ele>1721.7608822506</ele>
        <time>2000-05-11T12:32:27.14</time>
      </trkpt>
      <trkpt lat="42.53458" lon="2.06345">
        <ele>1721.5709270045</ele>
        <time>2000-05-11T12:32:28.14</time>
      </trkpt>
      <trkpt lat="42.53458" lon="2.06344">
        <ele>1721.6272966716</ele>
        <time>2000-05-11T12:32:29.14</time>
      </trkpt>
      <trkpt lat="42.53458" lon="2.06344">
        <ele>1722.0906789891</ele>
        <time>2000-05-11T12:32:30.14</time>
      </trkpt>
      <trkpt lat="42.53459" lon="2.06344">
        <ele>1722.7503985282</ele>
        <time>2000-05-11T12:32:31.14</time>
      </trkpt>
      <trkpt lat="42.5346" lon="2.06343">
        <ele>1723.4027048079</ele>
        <time>2000-05-11T12:32:32.14</time>
      </trkpt>
      <trkpt lat="42.53461" lon="2.06342">
        <ele>1723.6153412163</ele>
        <time>2000-05-11T12:32:33.14</time>
      </trkpt>
      <trkpt lat="42.53461" lon="2.06342">
        <ele>1723.8318559792</ele>
        <time>2000-05-11T12:32:34.14</time>
      </trkpt>
      <trkpt lat="42.53461" lon="2.06341">
        <ele>1724.5080230631</ele>
        <time>2000-05-11T12:32:35.14</time>
      </trkpt>
      <trkpt lat="42.53462" lon="2.06341">
        <ele>1725.5078597698</ele>
        <time>2000-05-11T12:32:36.14</time>
      </trkpt>
      <trkpt lat="42.53463" lon="2.0634">
        <ele>1726.6394183371</ele>
        <time>2000-05-11T12:32:37.9</time>
      </trkpt>
      <trkpt lat="42.53464" lon="2.06339">
        <ele>1727.2660430621</ele>
        <time>2000-05-11T12:32:38.9</time>
      </trkpt>
      <trkpt lat="42.53465" lon="2.06338">
        <ele>1728.066868508</ele>
        <time>2000-05-11T12:32:39.5</time>
      </trkpt>
      <trkpt lat="42.53465" lon="2.06337">
        <ele>1728.4885769494</ele>
        <time>2000-05-11T12:32:40.5</time>
      </trkpt>
      <trkpt lat="42.53467" lon="2.06336">
        <ele>1729.2454199642</ele>
        <time>2000-05-11T12:32:41.5</time>
      </trkpt>
      <trkpt lat="42.53469" lon="2.06336">
        <ele>1730.3957542973</ele>
        <time>2000-05-11T12:32:42.5</time>
      </trkpt>
      <trkpt lat="42.53471" lon="2.06335">
        <ele>1731.8818869969</ele>
        <time>2000-05-11T12:32:43.5</time>
      </trkpt>
      <trkpt lat="42.53471" lon="2.06335">
        <ele>1733.1938189756</ele>
        <time>2000-05-11T12:32:44.5</time>
      </trkpt>
      <trkpt lat="42.53471" lon="2.06335">
        <ele>1734.4252156379</ele>
        <time>2000-05-11T12:32:45.5</time>
      </trkpt>
      <trkpt lat="42.5347" lon="2.06333">
        <ele>1734.8743321307</ele>
        <time>2000-05-11T12:32:46.6</time>
      </trkpt>
      <trkpt lat="42.53469" lon="2.06331">
        <ele>1734.1750505567</ele>
        <time>2000-05-11T12:32:47.6</time>
      </trkpt>
      <trkpt lat="42.53468" lon="2.0633">
        <ele>1733.1186839305</ele>
        <time>2000-05-11T12:32:48.6</time>
      </trkpt>
      <trkpt lat="42.53469" lon="2.06329">
        <ele>1731.9806528017</ele>
        <time>2000-05-11T12:32:49.6</time>
      </trkpt>
      <trkpt lat="42.53469" lon="2.06328">
        <ele>1730.3615790972</ele>
        <time>2000-05-11T12:32:50.6</time>
      </trkpt>
      <trkpt lat="42.53469" lon="2.06326">
        <ele>1728.907760133</ele>
        <time>2000-05-11T12:32:51.6</time>
      </trkpt>
      <trkpt lat="42.53469" lon="2.06325">
        <ele>1728.0422831809</ele>
        <time>2000-05-11T12:32:52.6</time>
      </trkpt>
      <trkpt lat="42.5347" lon="2.06323">
        <ele>1728.0835902873</ele>
        <time>2000-05-11T12:32:53.6</time>
      </trkpt>
      <trkpt lat="42.53472" lon="2.06322">
        <ele>1728.0686164809</ele>
        <time>2000-05-11T12:32:54.6</time>
      </trkpt>
      <trkpt lat="42.53472" lon="2.0632">
        <ele>1728.3363215258</ele>
        <time>2000-05-11T12:32:55.6</time>
      </trkpt>
      <trkpt lat="42.53472" lon="2.06319">
        <ele>1728.5615099125</ele>
        <time>2000-05-11T12:32:56.6</time>
      </trkpt>
      <trkpt lat="42.53471" lon="2.06318">
        <ele>1728.760525487</ele>
        <time>2000-05-11T12:32:57.6</time>
      </trkpt>
      <trkpt lat="42.53471" lon="2.06318">
        <ele>1728.224630961</ele>
        <time>2000-05-11T12:32:58.6</time>
      </trkpt>
      <trkpt lat="42.53472" lon="2.06317">
        <ele>1727.8237188092</ele>
        <time>2000-05-11T12:32:59.5</time>
      </trkpt>
      <trkpt lat="42.53472" lon="2.06317">
        <ele>1727.7532739168</ele>
        <time>2000-05-11T12:33:00.5</time>
      </trkpt>
      <trkpt lat="42.53474" lon="2.06317">
        <ele>1727.893503397</ele>
        <time>2000-05-11T12:33:01.5</time>
      </trkpt>
      <trkpt lat="42.53474" lon="2.06317">
        <ele>1728.2147258706</ele>
        <time>2000-05-11T12:33:02.5</time>
      </trkpt>
      <trkpt lat="42.53474" lon="2.06317">
        <ele>1728.5359483443</ele>
        <time>2000-05-11T12:33:03.5</time>
      </trkpt>
      <trkpt lat="42.53474" lon="2.06315">
        <ele>1728.8064916762</ele>
        <time>2000-05-11T12:33:04.5</time>
      </trkpt>
      <trkpt lat="42.53475" lon="2.06314">
        <ele>1728.9732698072</ele>
        <time>2000-05-11T12:33:05.5</time>
      </trkpt>
      <trkpt lat="42.53475" lon="2.06314">
        <ele>1729.1829539385</ele>
        <time>2000-05-11T12:33:06.5</time>
      </trkpt>
      <trkpt lat="42.53476" lon="2.06313">
        <ele>1729.2745888665</ele>
        <time>2000-05-11T12:33:07</time>
      </trkpt>
      <trkpt lat="42.53478" lon="2.06311">
        <ele>1729.4141114829</ele>
        <time>2000-05-11T12:33:08</time>
      </trkpt>
      <trkpt lat="42.53478" lon="2.06311">
        <ele>1729.6072762825</ele>
        <time>2000-05-11T12:33:09</time>
      </trkpt>
      <trkpt lat="42.53477" lon="2.06309">
        <ele>1729.4056933971</ele>
        <time>2000-05-11T12:33:10</time>
      </trkpt>
      <trkpt lat="42.53477" lon="2.06308">
        <ele>1728.9962187296</ele>
        <time>2000-05-11T12:33:11</time>
      </trkpt>
      <trkpt lat="42.53477" lon="2.06306">
        <ele>1728.6231009908</ele>
        <time>2000-05-11T12:33:12</time>
      </trkpt>
      <trkpt lat="42.53478" lon="2.06305">
        <ele>1728.3285926627</ele>
        <time>2000-05-11T12:33:13</time>
      </trkpt>
      <trkpt lat="42.53479" lon="2.06304">
        <ele>1728.3412044622</ele>
        <time>2000-05-11T12:33:14</time>
      </trkpt>
      <trkpt lat="42.53478" lon="2.06302">
        <ele>1728.1593301237</ele>
        <time>2000-05-11T12:33:15</time>
      </trkpt>
      <trkpt lat="42.53477" lon="2.06301">
        <ele>1727.7210342571</ele>
        <time>2000-05-11T12:33:16</time>
      </trkpt>
      <trkpt lat="42.53477" lon="2.063">
        <ele>1727.309586215</ele>
        <time>2000-05-11T12:33:17</time>
      </trkpt>
      <trkpt lat="42.53478" lon="2.06299">
        <ele>1726.6469345838</ele>
        <time>2000-05-11T12:33:18</time>
      </trkpt>
      <trkpt lat="42.53479" lon="2.06298">
        <ele>1725.6414002359</ele>
        <time>2000-05-11T12:33:19</time>
      </trkpt>
      <trkpt lat="42.53479" lon="2.06297">
        <ele>1725.1357643709</ele>
        <time>2000-05-11T12:33:20</time>
      </trkpt>
      <trkpt lat="42.53479" lon="2.06296">
        <ele>1724.6633254446</ele>
        <time>2000-05-11T12:33:21</time>
      </trkpt>
      <trkpt lat="42.5348" lon="2.06294">
        <ele>1724.1482918929</ele>
        <time>2000-05-11T12:33:22</time>
      </trkpt>
      <trkpt lat="42.53482" lon="2.06294">
        <ele>1723.4412746001</ele>
        <time>2000-05-11T12:33:23</time>
      </trkpt>
      <trkpt lat="42.53483" lon="2.06293">
        <ele>1723.2019567555</ele>
        <time>2000-05-11T12:33:24</time>
      </trkpt>
      <trkpt lat="42.53483" lon="2.06292">
        <ele>1722.959342296</ele>
        <time>2000-05-11T12:33:25</time>
      </trkpt>
      <trkpt lat="42.53483" lon="2.06292">
        <ele>1722.9994927578</ele>
        <time>2000-05-11T12:33:26</time>
      </trkpt>
      <trkpt lat="42.53483" lon="2.06291">
        <ele>1722.8361065255</ele>
        <time>2000-05-11T12:33:27</time>
      </trkpt>
      <trkpt lat="42.53485" lon="2.0629">
        <ele>1723.0751395281</ele>
        <time>2000-05-11T12:33:28</time>
      </trkpt>
      <trkpt lat="42.53485" lon="2.0629">
        <ele>1722.8822356716</ele>
        <time>2000-05-11T12:33:29</time>
      </trkpt>
      <trkpt lat="42.53484" lon="2.06289">
        <ele>1722.5757570609</ele>
        <time>2000-05-11T12:33:30.3</time>
      </trkpt>
      <trkpt lat="42.53484" lon="2.06289">
        <ele>1722.2692784503</ele>
        <time>2000-05-11T12:33:31.3</time>
      </trkpt>
      <trkpt lat="42.53486" lon="2.06287">
        <ele>1722.8147113767</ele>
        <time>2000-05-11T12:33:32</time>
      </trkpt>
      <trkpt lat="42.53486" lon="2.06287">
        <ele>1723.2744152995</ele>
        <time>2000-05-11T12:33:33</time>
      </trkpt>
      <trkpt lat="42.53486" lon="2.06286">
        <ele>1723.4192329505</ele>
        <time>2000-05-11T12:33:34</time>
      </trkpt>
      <trkpt lat="42.53486" lon="2.06286">
        <ele>1723.7419189762</ele>
        <time>2000-05-11T12:33:35</time>
      </trkpt>
      <trkpt lat="42.53488" lon="2.06286">
        <ele>1724.1965702739</ele>
        <time>2000-05-11T12:33:36</time>
      </trkpt>
      <trkpt lat="42.53489" lon="2.06285">
        <ele>1724.1347828975</ele>
        <time>2000-05-11T12:33:37</time>
      </trkpt>
      <trkpt lat="42.53489" lon="2.06284">
        <ele>1724.144810142</ele>
        <time>2000-05-11T12:33:38</time>
      </trkpt>
      <trkpt lat="42.5349" lon="2.06284">
        <ele>1724.4883452829</ele>
        <time>2000-05-11T12:33:39</time>
      </trkpt>
      <trkpt lat="42.53491" lon="2.06283">
        <ele>1724.7705739953</ele>
        <time>2000-05-11T12:33:40</time>
      </trkpt>
      <trkpt lat="42.53491" lon="2.06282">
        <ele>1724.5761115916</ele>
        <time>2000-05-11T12:33:41</time>
      </trkpt>
      <trkpt lat="42.53493" lon="2.06282">
        <ele>1724.0852145014</ele>
        <time>2000-05-11T12:33:42</time>
      </trkpt>
      <trkpt lat="42.53494" lon="2.06281">
        <ele>1723.7818592211</ele>
        <time>2000-05-11T12:33:43</time>
      </trkpt>
      <trkpt lat="42.53494" lon="2.06281">
        <ele>1723.4598823162</ele>
        <time>2000-05-11T12:33:44</time>
      </trkpt>
      <trkpt lat="42.53494" lon="2.0628">
        <ele>1722.9382646367</ele>
        <time>2000-05-11T12:33:45</time>
      </trkpt>
      <trkpt lat="42.53495" lon="2.06278">
        <ele>1722.799040588</ele>
        <time>2000-05-11T12:33:46</time>
      </trkpt>
      <trkpt lat="42.53496" lon="2.06277">
        <ele>1722.8586810745</ele>
        <time>2000-05-11T12:33:47</time>
      </trkpt>
      <trkpt lat="42.53497" lon="2.06276">
        <ele>1722.6516086211</ele>
        <time>2000-05-11T12:33:48</time>
      </trkpt>
      <trkpt lat="42.53498" lon="2.06276">
        <ele>1722.4657928569</ele>
        <time>2000-05-11T12:33:49</time>
      </trkpt>
      <trkpt lat="42.53499" lon="2.06276">
        <ele>1722.510311541</ele>
        <time>2000-05-11T12:33:50</time>
      </trkpt>
      <trkpt lat="42.535" lon="2.06275">
        <ele>1722.5669935049</ele>
        <time>2000-05-11T12:33:51</time>
      </trkpt>
      <trkpt lat="42.535" lon="2.06275">
        <ele>1722.1219149893</ele>
        <time>2000-05-11T12:33:52</time>
      </trkpt>
      <trkpt lat="42.53498" lon="2.06274">
        <ele>1721.0848927217</ele>
        <time>2000-05-11T12:33:53</time>
      </trkpt>
      <trkpt lat="42.53498" lon="2.06273">
        <ele>1719.8304185465</ele>
        <time>2000-05-11T12:33:54</time>
      </trkpt>
      <trkpt lat="42.53498" lon="2.06273">
        <ele>1718.6065571262</ele>
        <time>2000-05-11T12:33:55</time>
      </trkpt>
      <trkpt lat="42.53498" lon="2.06275">
        <ele>1716.7879600072</ele>
        <time>2000-05-11T12:33:56</time>
      </trkpt>
      <trkpt lat="42.53499" lon="2.06275">
        <ele>1715.7457860177</ele>
        <time>2000-05-11T12:33:57.1</time>
      </trkpt>
      <trkpt lat="42.535" lon="2.06273">
        <ele>1715.7017459301</ele>
        <time>2000-05-11T12:33:58.1</time>
      </trkpt>
      <trkpt lat="42.53501" lon="2.06273">
        <ele>1715.9934030833</ele>
        <time>2000-05-11T12:33:59.2</time>
      </trkpt>
      <trkpt lat="42.53502" lon="2.06272">
        <ele>1716.2514024965</ele>
        <time>2000-05-11T12:34:00.2</time>
      </trkpt>
      <trkpt lat="42.53503" lon="2.06274">
        <ele>1717.0371336443</ele>
        <time>2000-05-11T12:34:01.2</time>
      </trkpt>
      <trkpt lat="42.53503" lon="2.06274">
        <ele>1717.5246386701</ele>
        <time>2000-05-11T12:34:02.2</time>
      </trkpt>
      <trkpt lat="42.53504" lon="2.06272">
        <ele>1717.9655830827</ele>
        <time>2000-05-11T12:34:03.3</time>
      </trkpt>
      <trkpt lat="42.53505" lon="2.06272">
        <ele>1718.7087670403</ele>
        <time>2000-05-11T12:34:04.3</time>
      </trkpt>
      <trkpt lat="42.53505" lon="2.0627">
        <ele>1719.2570313178</ele>
        <time>2000-05-11T12:34:05.3</time>
      </trkpt>
      <trkpt lat="42.53505" lon="2.06269">
        <ele>1719.4595304791</ele>
        <time>2000-05-11T12:34:06.3</time>
      </trkpt>
      <trkpt lat="42.53504" lon="2.06266">
        <ele>1719.3213450812</ele>
        <time>2000-05-11T12:34:07.3</time>
      </trkpt>
      <trkpt lat="42.53505" lon="2.06266">
        <ele>1718.7595246337</ele>
        <time>2000-05-11T12:34:08.3</time>
      </trkpt>
      <trkpt lat="42.53505" lon="2.06266">
        <ele>1717.7559626188</ele>
        <time>2000-05-11T12:34:09.3</time>
      </trkpt>
      <trkpt lat="42.53505" lon="2.06266">
        <ele>1716.9809780238</ele>
        <time>2000-05-11T12:34:10.3</time>
      </trkpt>
      <trkpt lat="42.53508" lon="2.06265">
        <ele>1718.1263487494</ele>
        <time>2000-05-11T12:34:11.3</time>
      </trkpt>
      <trkpt lat="42.53508" lon="2.06265">
        <ele>1719.6124040341</ele>
        <time>2000-05-11T12:34:12.3</time>
      </trkpt>
      <trkpt lat="42.53509" lon="2.06265">
        <ele>1721.2686965065</ele>
        <time>2000-05-11T12:34:13.2</time>
      </trkpt>
      <trkpt lat="42.5351" lon="2.06264">
        <ele>1722.8192484759</ele>
        <time>2000-05-11T12:34:14.2</time>
      </trkpt>
      <trkpt lat="42.53511" lon="2.06262">
        <ele>1724.4155915324</ele>
        <time>2000-05-11T12:34:15.2</time>
      </trkpt>
      <trkpt lat="42.53512" lon="2.06262">
        <ele>1724.7049691083</ele>
        <time>2000-05-11T12:34:16.2</time>
      </trkpt>
      <trkpt lat="42.53515" lon="2.06261">
        <ele>1725.6627300454</ele>
        <time>2000-05-11T12:34:17.2</time>
      </trkpt>
      <trkpt lat="42.53517" lon="2.06258">
        <ele>1726.9862744005</ele>
        <time>2000-05-11T12:34:18.2</time>
      </trkpt>
      <trkpt lat="42.53519" lon="2.06257">
        <ele>1728.5782118419</ele>
        <time>2000-05-11T12:34:19.2</time>
      </trkpt>
      <trkpt lat="42.5352" lon="2.06257">
        <ele>1730.1248892326</ele>
        <time>2000-05-11T12:34:20.2</time>
      </trkpt>
      <trkpt lat="42.5352" lon="2.06255">
        <ele>1731.4600481963</ele>
        <time>2000-05-11T12:34:21.2</time>
      </trkpt>
      <trkpt lat="42.5352" lon="2.06255">
        <ele>1732.1268237988</ele>
        <time>2000-05-11T12:34:22.2</time>
      </trkpt>
      <trkpt lat="42.53521" lon="2.06255">
        <ele>1732.4920477236</ele>
        <time>2000-05-11T12:34:23.2</time>
      </trkpt>
      <trkpt lat="42.53523" lon="2.06253">
        <ele>1732.9788390703</ele>
        <time>2000-05-11T12:34:24.2</time>
      </trkpt>
      <trkpt lat="42.53524" lon="2.06252">
        <ele>1733.67023878</ele>
        <time>2000-05-11T12:34:25.2</time>
      </trkpt>
      <trkpt lat="42.53525" lon="2.06251">
        <ele>1734.693768782</ele>
        <time>2000-05-11T12:34:26.2</time>
      </trkpt>
      <trkpt lat="42.53526" lon="2.0625">
        <ele>1735.7107564395</ele>
        <time>2000-05-11T12:34:27.2</time>
      </trkpt>
      <trkpt lat="42.53526" lon="2.0625">
        <ele>1736.5646371912</ele>
        <time>2000-05-11T12:34:28.2</time>
      </trkpt>
      <trkpt lat="42.53528" lon="2.0625">
        <ele>1737.5019962355</ele>
        <time>2000-05-11T12:34:29.2</time>
      </trkpt>
      <trkpt lat="42.53528" lon="2.0625">
        <ele>1738.2342158806</ele>
        <time>2000-05-11T12:34:30.2</time>
      </trkpt>
      <trkpt lat="42.53527" lon="2.06249">
        <ele>1738.3116838835</ele>
        <time>2000-05-11T12:34:31.2</time>
      </trkpt>
      <trkpt lat="42.53527" lon="2.06249">
        <ele>1738.5325982833</ele>
        <time>2000-05-11T12:34:32.2</time>
      </trkpt>
      <trkpt lat="42.53528" lon="2.06249">
        <ele>1738.9060039781</ele>
        <time>2000-05-11T12:34:33.2</time>
      </trkpt>
      <trkpt lat="42.53529" lon="2.06248">
        <ele>1739.3457142046</ele>
        <time>2000-05-11T12:34:34.3</time>
      </trkpt>
      <trkpt lat="42.53531" lon="2.06246">
        <ele>1739.8602197208</ele>
        <time>2000-05-11T12:34:35.3</time>
      </trkpt>
      <trkpt lat="42.53532" lon="2.06245">
        <ele>1740.3030155707</ele>
        <time>2000-05-11T12:34:36.3</time>
      </trkpt>
      <trkpt lat="42.53532" lon="2.06245">
        <ele>1740.6089073682</ele>
        <time>2000-05-11T12:34:37.3</time>
      </trkpt>
      <trkpt lat="42.53532" lon="2.06245">
        <ele>1740.7623078708</ele>
        <time>2000-05-11T12:34:38.3</time>
      </trkpt>
      <trkpt lat="42.53532" lon="2.06243">
        <ele>1740.4361193126</ele>
        <time>2000-05-11T12:34:39.3</time>
      </trkpt>
      <trkpt lat="42.53533" lon="2.06243">
        <ele>1740.072479392</ele>
        <time>2000-05-11T12:34:40.6</time>
      </trkpt>
      <trkpt lat="42.53536" lon="2.06243">
        <ele>1740.6755123159</ele>
        <time>2000-05-11T12:34:41.6</time>
      </trkpt>
      <trkpt lat="42.53538" lon="2.06242">
        <ele>1741.8140011704</ele>
        <time>2000-05-11T12:34:42.6</time>
      </trkpt>
      <trkpt lat="42.5354" lon="2.06242">
        <ele>1743.5195070794</ele>
        <time>2000-05-11T12:34:43.6</time>
      </trkpt>
      <trkpt lat="42.53541" lon="2.06242">
        <ele>1746.0939136144</ele>
        <time>2000-05-11T12:34:44.6</time>
      </trkpt>
      <trkpt lat="42.53541" lon="2.06242">
        <ele>1748.6309762221</ele>
        <time>2000-05-11T12:34:45.6</time>
      </trkpt>
      <trkpt lat="42.53541" lon="2.06242">
        <ele>1750.556763602</ele>
        <time>2000-05-11T12:34:46.6</time>
      </trkpt>
      <trkpt lat="42.5354" lon="2.06242">
        <ele>1751.2349338107</ele>
        <time>2000-05-11T12:34:47.6</time>
      </trkpt>
      <trkpt lat="42.53541" lon="2.06241">
        <ele>1751.3746398268</ele>
        <time>2000-05-11T12:34:48.7</time>
      </trkpt>
      <trkpt lat="42.53541" lon="2.06241">
        <ele>1750.6910314482</ele>
        <time>2000-05-11T12:34:49.7</time>
      </trkpt>
      <trkpt lat="42.53541" lon="2.0624">
        <ele>1750.0020874478</ele>
        <time>2000-05-11T12:34:50.8</time>
      </trkpt>
      <trkpt lat="42.53541" lon="2.0624">
        <ele>1749.3131434474</ele>
        <time>2000-05-11T12:34:51.8</time>
      </trkpt>
      <trkpt lat="42.53542" lon="2.06238">
        <ele>1748.8218534693</ele>
        <time>2000-05-11T12:34:52.6</time>
      </trkpt>
      <trkpt lat="42.53544" lon="2.06238">
        <ele>1747.8997942045</ele>
        <time>2000-05-11T12:34:53.6</time>
      </trkpt>
      <trkpt lat="42.53548" lon="2.06236">
        <ele>1748.1865265273</ele>
        <time>2000-05-11T12:34:54.6</time>
      </trkpt>
      <trkpt lat="42.5355" lon="2.06235">
        <ele>1748.6610687448</ele>
        <time>2000-05-11T12:34:55.6</time>
      </trkpt>
      <trkpt lat="42.53551" lon="2.06235">
        <ele>1749.212198158</ele>
        <time>2000-05-11T12:34:56.6</time>
      </trkpt>
      <trkpt lat="42.53551" lon="2.06235">
        <ele>1750.2778347896</ele>
        <time>2000-05-11T12:34:57.6</time>
      </trkpt>
      <trkpt lat="42.53551" lon="2.06235">
        <ele>1751.7456878459</ele>
        <time>2000-05-11T12:34:58.6</time>
      </trkpt>
      <trkpt lat="42.53552" lon="2.06233">
        <ele>1752.1588747263</ele>
        <time>2000-05-11T12:34:59.6</time>
      </trkpt>
      <trkpt lat="42.53552" lon="2.06232">
        <ele>1751.8709444292</ele>
        <time>2000-05-11T12:35:00.6</time>
      </trkpt>
      <trkpt lat="42.53553" lon="2.06232">
        <ele>1751.6260291353</ele>
        <time>2000-05-11T12:35:01.3</time>
      </trkpt>
      <trkpt lat="42.53554" lon="2.06233">
        <ele>1751.3683942897</ele>
        <time>2000-05-11T12:35:02.3</time>
      </trkpt>
      <trkpt lat="42.53555" lon="2.06233">
        <ele>1751.0798779475</ele>
        <time>2000-05-11T12:35:03.3</time>
      </trkpt>
      <trkpt lat="42.53555" lon="2.06233">
        <ele>1750.6372361936</ele>
        <time>2000-05-11T12:35:04.3</time>
      </trkpt>
      <trkpt lat="42.53555" lon="2.06232">
        <ele>1750.8647007372</ele>
        <time>2000-05-11T12:35:05.11</time>
      </trkpt>
      <trkpt lat="42.53555" lon="2.06232">
        <ele>1750.972563082</ele>
        <time>2000-05-11T12:35:06.11</time>
      </trkpt>
      <trkpt lat="42.53555" lon="2.06231">
        <ele>1750.8511895075</ele>
        <time>2000-05-11T12:35:07.12</time>
      </trkpt>
      <trkpt lat="42.53556" lon="2.06231">
        <ele>1751.006228097</ele>
        <time>2000-05-11T12:35:08.12</time>
      </trkpt>
      <trkpt lat="42.53558" lon="2.0623">
        <ele>1751.7431122331</ele>
        <time>2000-05-11T12:35:09.10</time>
      </trkpt>
      <trkpt lat="42.53559" lon="2.06229">
        <ele>1752.6058539797</ele>
        <time>2000-05-11T12:35:10.10</time>
      </trkpt>
      <trkpt lat="42.5356" lon="2.06229">
        <ele>1753.606212732</ele>
        <time>2000-05-11T12:35:11.10</time>
      </trkpt>
      <trkpt lat="42.53562" lon="2.06227">
        <ele>1754.6555936042</ele>
        <time>2000-05-11T12:35:12.10</time>
      </trkpt>
      <trkpt lat="42.53563" lon="2.06225">
        <ele>1755.022563394</ele>
        <time>2000-05-11T12:35:13.10</time>
      </trkpt>
      <trkpt lat="42.53564" lon="2.06223">
        <ele>1754.488502406</ele>
        <time>2000-05-11T12:35:14.10</time>
      </trkpt>
      <trkpt lat="42.53565" lon="2.06221">
        <ele>1753.4462449921</ele>
        <time>2000-05-11T12:35:15.10</time>
      </trkpt>
      <trkpt lat="42.53565" lon="2.06219">
        <ele>1751.5885559702</ele>
        <time>2000-05-11T12:35:16.10</time>
      </trkpt>
      <trkpt lat="42.53565" lon="2.06219">
        <ele>1749.9238002993</ele>
        <time>2000-05-11T12:35:17.10</time>
      </trkpt>
      <trkpt lat="42.53565" lon="2.06219">
        <ele>1748.6959250437</ele>
        <time>2000-05-11T12:35:18.10</time>
      </trkpt>
      <trkpt lat="42.53566" lon="2.06219">
        <ele>1747.6365436528</ele>
        <time>2000-05-11T12:35:19.10</time>
      </trkpt>
      <trkpt lat="42.53567" lon="2.06219">
        <ele>1746.5660821192</ele>
        <time>2000-05-11T12:35:20.10</time>
      </trkpt>
      <trkpt lat="42.53568" lon="2.06218">
        <ele>1746.4400449812</ele>
        <time>2000-05-11T12:35:21.8</time>
      </trkpt>
      <trkpt lat="42.53568" lon="2.06218">
        <ele>1746.3140078433</ele>
        <time>2000-05-11T12:35:22.8</time>
      </trkpt>
      <trkpt lat="42.53569" lon="2.06217">
        <ele>1746.6155575892</ele>
        <time>2000-05-11T12:35:23.10</time>
      </trkpt>
      <trkpt lat="42.53569" lon="2.06215">
        <ele>1747.1798104707</ele>
        <time>2000-05-11T12:35:24.10</time>
      </trkpt>
      <trkpt lat="42.53569" lon="2.06215">
        <ele>1747.9860189172</ele>
        <time>2000-05-11T12:35:25.10</time>
      </trkpt>
      <trkpt lat="42.53569" lon="2.06214">
        <ele>1748.4821209412</ele>
        <time>2000-05-11T12:35:26.11</time>
      </trkpt>
      <trkpt lat="42.5357" lon="2.06213">
        <ele>1749.4187819891</ele>
        <time>2000-05-11T12:35:27.11</time>
      </trkpt>
      <trkpt lat="42.53571" lon="2.06212">
        <ele>1750.1514507776</ele>
        <time>2000-05-11T12:35:28.11</time>
      </trkpt>
      <trkpt lat="42.53571" lon="2.0621">
        <ele>1750.8654303253</ele>
        <time>2000-05-11T12:35:29.11</time>
      </trkpt>
      <trkpt lat="42.53572" lon="2.06209">
        <ele>1751.7963302188</ele>
        <time>2000-05-11T12:35:30.11</time>
      </trkpt>
      <trkpt lat="42.53572" lon="2.06209">
        <ele>1752.7707267413</ele>
        <time>2000-05-11T12:35:31.11</time>
      </trkpt>
      <trkpt lat="42.53573" lon="2.06208">
        <ele>1753.3194017129</ele>
        <time>2000-05-11T12:35:32.12</time>
      </trkpt>
      <trkpt lat="42.53574" lon="2.06206">
        <ele>1753.6996373691</ele>
        <time>2000-05-11T12:35:33.12</time>
      </trkpt>
      <trkpt lat="42.53575" lon="2.06206">
        <ele>1753.9505734229</ele>
        <time>2000-05-11T12:35:34.12</time>
      </trkpt>
      <trkpt lat="42.53575" lon="2.06206">
        <ele>1753.984589131</ele>
        <time>2000-05-11T12:35:35.12</time>
      </trkpt>
      <trkpt lat="42.53575" lon="2.06205">
        <ele>1754.0143796904</ele>
        <time>2000-05-11T12:35:36.11</time>
      </trkpt>
      <trkpt lat="42.53575" lon="2.06205">
        <ele>1754.0293327769</ele>
        <time>2000-05-11T12:35:37.11</time>
      </trkpt>
      <trkpt lat="42.53576" lon="2.06202">
        <ele>1753.2662999496</ele>
        <time>2000-05-11T12:35:38.7</time>
      </trkpt>
      <trkpt lat="42.53576" lon="2.06201">
        <ele>1752.4678739147</ele>
        <time>2000-05-11T12:35:39.7</time>
      </trkpt>
      <trkpt lat="42.53575" lon="2.062">
        <ele>1751.4092523877</ele>
        <time>2000-05-11T12:35:40.7</time>
      </trkpt>
      <trkpt lat="42.53576" lon="2.06199">
        <ele>1750.2504408484</ele>
        <time>2000-05-11T12:35:41.7</time>
      </trkpt>
      <trkpt lat="42.53576" lon="2.06198">
        <ele>1749.2907961912</ele>
        <time>2000-05-11T12:35:42.8</time>
      </trkpt>
      <trkpt lat="42.53577" lon="2.06197">
        <ele>1749.2026887085</ele>
        <time>2000-05-11T12:35:43.8</time>
      </trkpt>
      <trkpt lat="42.53578" lon="2.06196">
        <ele>1749.4758316297</ele>
        <time>2000-05-11T12:35:44.8</time>
      </trkpt>
      <trkpt lat="42.53578" lon="2.06194">
        <ele>1750.0247372104</ele>
        <time>2000-05-11T12:35:45.8</time>
      </trkpt>
      <trkpt lat="42.53578" lon="2.06193">
        <ele>1749.7665836763</ele>
        <time>2000-05-11T12:35:46.8</time>
      </trkpt>
      <trkpt lat="42.53577" lon="2.06191">
        <ele>1748.8748741604</ele>
        <time>2000-05-11T12:35:47.8</time>
      </trkpt>
      <trkpt lat="42.53578" lon="2.0619">
        <ele>1748.4612656182</ele>
        <time>2000-05-11T12:35:48.8</time>
      </trkpt>
      <trkpt lat="42.53578" lon="2.0619">
        <ele>1747.7577769535</ele>
        <time>2000-05-11T12:35:49.8</time>
      </trkpt>
      <trkpt lat="42.53579" lon="2.06189">
        <ele>1746.9626713572</ele>
        <time>2000-05-11T12:35:50.6</time>
      </trkpt>
      <trkpt lat="42.53579" lon="2.06188">
        <ele>1746.8137062047</ele>
        <time>2000-05-11T12:35:51.6</time>
      </trkpt>
      <trkpt lat="42.53579" lon="2.06186">
        <ele>1747.041508441</ele>
        <time>2000-05-11T12:35:52.6</time>
      </trkpt>
      <trkpt lat="42.53579" lon="2.06185">
        <ele>1746.4813316906</ele>
        <time>2000-05-11T12:35:53.6</time>
      </trkpt>
      <trkpt lat="42.53579" lon="2.06183">
        <ele>1746.2601728205</ele>
        <time>2000-05-11T12:35:54.6</time>
      </trkpt>
      <trkpt lat="42.53579" lon="2.06183">
        <ele>1746.1150637146</ele>
        <time>2000-05-11T12:35:55.6</time>
      </trkpt>
      <trkpt lat="42.53579" lon="2.06183">
        <ele>1746.2862322818</ele>
        <time>2000-05-11T12:35:56.6</time>
      </trkpt>
      <trkpt lat="42.5358" lon="2.06181">
        <ele>1746.5797110517</ele>
        <time>2000-05-11T12:35:57.5</time>
      </trkpt>
      <trkpt lat="42.53581" lon="2.0618">
        <ele>1746.9231519416</ele>
        <time>2000-05-11T12:35:58.5</time>
      </trkpt>
      <trkpt lat="42.53582" lon="2.06179">
        <ele>1747.0602162773</ele>
        <time>2000-05-11T12:35:59.5</time>
      </trkpt>
      <trkpt lat="42.53582" lon="2.06178">
        <ele>1747.2354328668</ele>
        <time>2000-05-11T12:36:00.5</time>
      </trkpt>
      <trkpt lat="42.53583" lon="2.06177">
        <ele>1747.3008907678</ele>
        <time>2000-05-11T12:36:01.5</time>
      </trkpt>
      <trkpt lat="42.53583" lon="2.06176">
        <ele>1747.1282850947</ele>
        <time>2000-05-11T12:36:02.5</time>
      </trkpt>
      <trkpt lat="42.53583" lon="2.06176">
        <ele>1747.0668887451</ele>
        <time>2000-05-11T12:36:03.5</time>
      </trkpt>
      <trkpt lat="42.53583" lon="2.06175">
        <ele>1746.3879464068</ele>
        <time>2000-05-11T12:36:04.6</time>
      </trkpt>
      <trkpt lat="42.53583" lon="2.06174">
        <ele>1745.296664401</ele>
        <time>2000-05-11T12:36:05.6</time>
      </trkpt>
      <trkpt lat="42.53584" lon="2.06173">
        <ele>1745.0422956869</ele>
        <time>2000-05-11T12:36:06.6</time>
      </trkpt>
      <trkpt lat="42.53585" lon="2.06172">
        <ele>1744.7110952361</ele>
        <time>2000-05-11T12:36:07.6</time>
      </trkpt>
      <trkpt lat="42.53585" lon="2.06171">
        <ele>1743.908369486</ele>
        <time>2000-05-11T12:36:08.6</time>
      </trkpt>
      <trkpt lat="42.53586" lon="2.06171">
        <ele>1743.6670078592</ele>
        <time>2000-05-11T12:36:09.6</time>
      </trkpt>
      <trkpt lat="42.53586" lon="2.0617">
        <ele>1743.8789457187</ele>
        <time>2000-05-11T12:36:10.6</time>
      </trkpt>
      <trkpt lat="42.53585" lon="2.06168">
        <ele>1743.2793568842</ele>
        <time>2000-05-11T12:36:11.6</time>
      </trkpt>
      <trkpt lat="42.53585" lon="2.06165">
        <ele>1742.8679173466</ele>
        <time>2000-05-11T12:36:12.6</time>
      </trkpt>
      <trkpt lat="42.53585" lon="2.06164">
        <ele>1742.4084403174</ele>
        <time>2000-05-11T12:36:13.6</time>
      </trkpt>
      <trkpt lat="42.53585" lon="2.06163">
        <ele>1741.3537332291</ele>
        <time>2000-05-11T12:36:14.6</time>
      </trkpt>
      <trkpt lat="42.53583" lon="2.06162">
        <ele>1739.4516305497</ele>
        <time>2000-05-11T12:36:15.6</time>
      </trkpt>
      <trkpt lat="42.53583" lon="2.0616">
        <ele>1737.1161587266</ele>
        <time>2000-05-11T12:36:16.6</time>
      </trkpt>
      <trkpt lat="42.53583" lon="2.06159">
        <ele>1734.6399959784</ele>
        <time>2000-05-11T12:36:17.6</time>
      </trkpt>
      <trkpt lat="42.53584" lon="2.06157">
        <ele>1733.0004339116</ele>
        <time>2000-05-11T12:36:18.6</time>
      </trkpt>
      <trkpt lat="42.53584" lon="2.06156">
        <ele>1732.010982874</ele>
        <time>2000-05-11T12:36:19.6</time>
      </trkpt>
      <trkpt lat="42.53584" lon="2.06155">
        <ele>1731.7526248273</ele>
        <time>2000-05-11T12:36:20.6</time>
      </trkpt>
      <trkpt lat="42.53584" lon="2.06155">
        <ele>1731.9610641737</ele>
        <time>2000-05-11T12:36:21.6</time>
      </trkpt>
      <trkpt lat="42.53586" lon="2.06155">
        <ele>1732.5691018093</ele>
        <time>2000-05-11T12:36:22.6</time>
      </trkpt>
      <trkpt lat="42.53588" lon="2.06155">
        <ele>1733.1160480365</ele>
        <time>2000-05-11T12:36:23.6</time>
      </trkpt>
      <trkpt lat="42.53589" lon="2.06154">
        <ele>1733.844051861</ele>
        <time>2000-05-11T12:36:24.6</time>
      </trkpt>
      <trkpt lat="42.5359" lon="2.06154">
        <ele>1734.9258996524</ele>
        <time>2000-05-11T12:36:25.6</time>
      </trkpt>
      <trkpt lat="42.53591" lon="2.06154">
        <ele>1736.5260578327</ele>
        <time>2000-05-11T12:36:26.6</time>
      </trkpt>
      <trkpt lat="42.53591" lon="2.06154">
        <ele>1737.929366171</ele>
        <time>2000-05-11T12:36:27.6</time>
      </trkpt>
      <trkpt lat="42.53591" lon="2.06154">
        <ele>1739.0767280271</ele>
        <time>2000-05-11T12:36:28.6</time>
      </trkpt>
      <trkpt lat="42.53591" lon="2.06151">
        <ele>1739.4988894368</ele>
        <time>2000-05-11T12:36:29.5</time>
      </trkpt>
      <trkpt lat="42.53592" lon="2.0615">
        <ele>1739.6397262128</ele>
        <time>2000-05-11T12:36:30.5</time>
      </trkpt>
      <trkpt lat="42.53592" lon="2.06149">
        <ele>1738.8311541885</ele>
        <time>2000-05-11T12:36:31.5</time>
      </trkpt>
      <trkpt lat="42.53592" lon="2.06148">
        <ele>1737.9184803123</ele>
        <time>2000-05-11T12:36:32.5</time>
      </trkpt>
      <trkpt lat="42.53592" lon="2.06148">
        <ele>1737.005806436</ele>
        <time>2000-05-11T12:36:33.5</time>
      </trkpt>
      <trkpt lat="42.53592" lon="2.06147">
        <ele>1736.5384159395</ele>
        <time>2000-05-11T12:36:34.5</time>
      </trkpt>
      <trkpt lat="42.53593" lon="2.06146">
        <ele>1735.8408406723</ele>
        <time>2000-05-11T12:36:35.5</time>
      </trkpt>
      <trkpt lat="42.53594" lon="2.06144">
        <ele>1735.7385788426</ele>
        <time>2000-05-11T12:36:36.5</time>
      </trkpt>
      <trkpt lat="42.53598" lon="2.06143">
        <ele>1736.2446185585</ele>
        <time>2000-05-11T12:36:37.5</time>
      </trkpt>
      <trkpt lat="42.53599" lon="2.06142">
        <ele>1736.910305295</ele>
        <time>2000-05-11T12:36:38.5</time>
      </trkpt>
      <trkpt lat="42.53599" lon="2.06141">
        <ele>1737.3536950741</ele>
        <time>2000-05-11T12:36:39.5</time>
      </trkpt>
      <trkpt lat="42.53599" lon="2.0614">
        <ele>1737.8715556655</ele>
        <time>2000-05-11T12:36:40.5</time>
      </trkpt>
      <trkpt lat="42.53599" lon="2.06138">
        <ele>1738.202520437</ele>
        <time>2000-05-11T12:36:41.5</time>
      </trkpt>
      <trkpt lat="42.53599" lon="2.06137">
        <ele>1737.9032377647</ele>
        <time>2000-05-11T12:36:42.5</time>
      </trkpt>
      <trkpt lat="42.53599" lon="2.06137">
        <ele>1737.444308072</ele>
        <time>2000-05-11T12:36:43.5</time>
      </trkpt>
      <trkpt lat="42.53599" lon="2.06135">
        <ele>1737.0307701286</ele>
        <time>2000-05-11T12:36:44.6</time>
      </trkpt>
      <trkpt lat="42.53599" lon="2.06135">
        <ele>1736.7376173381</ele>
        <time>2000-05-11T12:36:45.6</time>
      </trkpt>
      <trkpt lat="42.53598" lon="2.06134">
        <ele>1736.3280087925</ele>
        <time>2000-05-11T12:36:46.5</time>
      </trkpt>
      <trkpt lat="42.53598" lon="2.06132">
        <ele>1735.9362039186</ele>
        <time>2000-05-11T12:36:47.5</time>
      </trkpt>
      <trkpt lat="42.53599" lon="2.06132">
        <ele>1735.6420973787</ele>
        <time>2000-05-11T12:36:48.5</time>
      </trkpt>
      <trkpt lat="42.536" lon="2.06131">
        <ele>1735.5887787199</ele>
        <time>2000-05-11T12:36:49.5</time>
      </trkpt>
      <trkpt lat="42.536" lon="2.0613">
        <ele>1735.3555764744</ele>
        <time>2000-05-11T12:36:50.5</time>
      </trkpt>
      <trkpt lat="42.53601" lon="2.0613">
        <ele>1735.7323740482</ele>
        <time>2000-05-11T12:36:51.5</time>
      </trkpt>
      <trkpt lat="42.53603" lon="2.06129">
        <ele>1736.6034158548</ele>
        <time>2000-05-11T12:36:52.5</time>
      </trkpt>
      <trkpt lat="42.53603" lon="2.06129">
        <ele>1737.3767593274</ele>
        <time>2000-05-11T12:36:53.5</time>
      </trkpt>
      <trkpt lat="42.53604" lon="2.06129">
        <ele>1738.5206690686</ele>
        <time>2000-05-11T12:36:54.4</time>
      </trkpt>
      <trkpt lat="42.53604" lon="2.06129">
        <ele>1739.8444623964</ele>
        <time>2000-05-11T12:36:55.4</time>
      </trkpt>
      <trkpt lat="42.53605" lon="2.06127">
        <ele>1741.0959963018</ele>
        <time>2000-05-11T12:36:56.5</time>
      </trkpt>
      <trkpt lat="42.53605" lon="2.06127">
        <ele>1741.9615300529</ele>
        <time>2000-05-11T12:36:57.5</time>
      </trkpt>
      <trkpt lat="42.53607" lon="2.06125">
        <ele>1743.4347475518</ele>
        <time>2000-05-11T12:36:58.4</time>
      </trkpt>
      <trkpt lat="42.53608" lon="2.06125">
        <ele>1745.0529099485</ele>
        <time>2000-05-11T12:36:59.4</time>
      </trkpt>
      <trkpt lat="42.53609" lon="2.06127">
        <ele>1746.5616581244</ele>
        <time>2000-05-11T12:37:00.2</time>
      </trkpt>
      <trkpt lat="42.53611" lon="2.06127">
        <ele>1747.8746972602</ele>
        <time>2000-05-11T12:37:01.2</time>
      </trkpt>
      <trkpt lat="42.53613" lon="2.06129">
        <ele>1749.4503946258</ele>
        <time>2000-05-11T12:37:02.2</time>
      </trkpt>
      <trkpt lat="42.53614" lon="2.06128">
        <ele>1750.4657965722</ele>
        <time>2000-05-11T12:37:03.2</time>
      </trkpt>
      <trkpt lat="42.53614" lon="2.06128">
        <ele>1750.8693237176</ele>
        <time>2000-05-11T12:37:04.2</time>
      </trkpt>
      <trkpt lat="42.53614" lon="2.06128">
        <ele>1751.3822650839</ele>
        <time>2000-05-11T12:37:05.2</time>
      </trkpt>
      <trkpt lat="42.53614" lon="2.06128">
        <ele>1751.6923116423</ele>
        <time>2000-05-11T12:37:06.2</time>
      </trkpt>
      <trkpt lat="42.53613" lon="2.06129">
        <ele>1752.0190189531</ele>
        <time>2000-05-11T12:37:07.2</time>
      </trkpt>
      <trkpt lat="42.53613" lon="2.06129">
        <ele>1752.2983379353</ele>
        <time>2000-05-11T12:37:08.2</time>
      </trkpt>
      <trkpt lat="42.53612" lon="2.0613">
        <ele>1752.1791736968</ele>
        <time>2000-05-11T12:37:09</time>
      </trkpt>
      <trkpt lat="42.53612" lon="2.0613">
        <ele>1752.0600094583</ele>
        <time>2000-05-11T12:37:10</time>
      </trkpt>
      <trkpt lat="42.53613" lon="2.06131">
        <ele>1752.3219013747</ele>
        <time>2000-05-11T12:37:11.1</time>
      </trkpt>
      <trkpt lat="42.53613" lon="2.06131">
        <ele>1752.7519349331</ele>
        <time>2000-05-11T12:37:12.1</time>
      </trkpt>
      <trkpt lat="42.53614" lon="2.06133">
        <ele>1753.7021570511</ele>
        <time>2000-05-11T12:37:13.3</time>
      </trkpt>
      <trkpt lat="42.53615" lon="2.06134">
        <ele>1755.5760470206</ele>
        <time>2000-05-11T12:37:14.3</time>
      </trkpt>
      <trkpt lat="42.53615" lon="2.06135">
        <ele>1757.8816459918</ele>
        <time>2000-05-11T12:37:15.2</time>
      </trkpt>
      <trkpt lat="42.53615" lon="2.06135">
        <ele>1759.8061888082</ele>
        <time>2000-05-11T12:37:16.2</time>
      </trkpt>
      <trkpt lat="42.53615" lon="2.06136">
        <ele>1761.4709457839</ele>
        <time>2000-05-11T12:37:17.1</time>
      </trkpt>
      <trkpt lat="42.53615" lon="2.06136">
        <ele>1762.6155142</ele>
        <time>2000-05-11T12:37:18.1</time>
      </trkpt>
      <trkpt lat="42.53616" lon="2.06137">
        <ele>1763.6133680534</ele>
        <time>2000-05-11T12:37:19.4</time>
      </trkpt>
      <trkpt lat="42.53616" lon="2.06137">
        <ele>1764.179512905</ele>
        <time>2000-05-11T12:37:20.4</time>
      </trkpt>
      <trkpt lat="42.53618" lon="2.06137">
        <ele>1765.3667279171</ele>
        <time>2000-05-11T12:37:21.4</time>
      </trkpt>
      <trkpt lat="42.53619" lon="2.06137">
        <ele>1766.8672348309</ele>
        <time>2000-05-11T12:37:22.4</time>
      </trkpt>
      <trkpt lat="42.5362" lon="2.06138">
        <ele>1768.7165072126</ele>
        <time>2000-05-11T12:37:23.6</time>
      </trkpt>
      <trkpt lat="42.53621" lon="2.06138">
        <ele>1770.5116342152</ele>
        <time>2000-05-11T12:37:24.6</time>
      </trkpt>
      <trkpt lat="42.53622" lon="2.06138">
        <ele>1772.7360786473</ele>
        <time>2000-05-11T12:37:25.7</time>
      </trkpt>
      <trkpt lat="42.53623" lon="2.06138">
        <ele>1774.5068107909</ele>
        <time>2000-05-11T12:37:26.7</time>
      </trkpt>
      <trkpt lat="42.53624" lon="2.06138">
        <ele>1776.3603253139</ele>
        <time>2000-05-11T12:37:27.9</time>
      </trkpt>
      <trkpt lat="42.53625" lon="2.06139">
        <ele>1778.4473140236</ele>
        <time>2000-05-11T12:37:28.9</time>
      </trkpt>
      <trkpt lat="42.53623" lon="2.06139">
        <ele>1779.958332146</ele>
        <time>2000-05-11T12:37:29.9</time>
      </trkpt>
      <trkpt lat="42.53623" lon="2.06139">
        <ele>1781.0400328387</ele>
        <time>2000-05-11T12:37:30.9</time>
      </trkpt>
      <trkpt lat="42.53624" lon="2.06137">
        <ele>1781.8911381751</ele>
        <time>2000-05-11T12:37:31.11</time>
      </trkpt>
      <trkpt lat="42.53625" lon="2.06136">
        <ele>1782.3529760573</ele>
        <time>2000-05-11T12:37:32.11</time>
      </trkpt>
      <trkpt lat="42.53626" lon="2.06135">
        <ele>1782.5183887322</ele>
        <time>2000-05-11T12:37:33.11</time>
      </trkpt>
      <trkpt lat="42.53626" lon="2.06135">
        <ele>1782.9354473054</ele>
        <time>2000-05-11T12:37:34.11</time>
      </trkpt>
      <trkpt lat="42.53627" lon="2.06134">
        <ele>1783.4646080935</ele>
        <time>2000-05-11T12:37:35.9</time>
      </trkpt>
      <trkpt lat="42.53627" lon="2.06132">
        <ele>1784.0743189717</ele>
        <time>2000-05-11T12:37:36.9</time>
      </trkpt>
      <trkpt lat="42.53626" lon="2.06131">
        <ele>1784.5931086937</ele>
        <time>2000-05-11T12:37:37.9</time>
      </trkpt>
      <trkpt lat="42.53624" lon="2.0613">
        <ele>1784.7925083354</ele>
        <time>2000-05-11T12:37:38.9</time>
      </trkpt>
      <trkpt lat="42.53624" lon="2.06129">
        <ele>1784.8791628603</ele>
        <time>2000-05-11T12:37:39.9</time>
      </trkpt>
      <trkpt lat="42.53624" lon="2.06129">
        <ele>1784.8537151704</ele>
        <time>2000-05-11T12:37:40.9</time>
      </trkpt>
      <trkpt lat="42.53622" lon="2.06127">
        <ele>1784.3052407721</ele>
        <time>2000-05-11T12:37:41.9</time>
      </trkpt>
      <trkpt lat="42.53622" lon="2.06127">
        <ele>1783.6532059195</ele>
        <time>2000-05-11T12:37:42.9</time>
      </trkpt>
      <trkpt lat="42.5362" lon="2.06127">
        <ele>1782.6218040101</ele>
        <time>2000-05-11T12:37:43.9</time>
      </trkpt>
      <trkpt lat="42.53619" lon="2.06126">
        <ele>1781.501473772</ele>
        <time>2000-05-11T12:37:44.9</time>
      </trkpt>
      <trkpt lat="42.53618" lon="2.06126">
        <ele>1780.4834144771</ele>
        <time>2000-05-11T12:37:45.9</time>
      </trkpt>
      <trkpt lat="42.53618" lon="2.06126">
        <ele>1779.9710692849</ele>
        <time>2000-05-11T12:37:46.9</time>
      </trkpt>
      <trkpt lat="42.53618" lon="2.06126">
        <ele>1779.4587240927</ele>
        <time>2000-05-11T12:37:47.9</time>
      </trkpt>
      <trkpt lat="42.53619" lon="2.06124">
        <ele>1779.3651336532</ele>
        <time>2000-05-11T12:37:48.8</time>
      </trkpt>
      <trkpt lat="42.53619" lon="2.06124">
        <ele>1779.4732166594</ele>
        <time>2000-05-11T12:37:49.8</time>
      </trkpt>
      <trkpt lat="42.53619" lon="2.06122">
        <ele>1779.5746030411</ele>
        <time>2000-05-11T12:37:50.8</time>
      </trkpt>
      <trkpt lat="42.53621" lon="2.06121">
        <ele>1779.936553371</ele>
        <time>2000-05-11T12:37:51.8</time>
      </trkpt>
      <trkpt lat="42.53621" lon="2.0612">
        <ele>1780.4258817233</ele>
        <time>2000-05-11T12:37:52.8</time>
      </trkpt>
      <trkpt lat="42.53621" lon="2.06119">
        <ele>1780.9270486463</ele>
        <time>2000-05-11T12:37:53.9</time>
      </trkpt>
      <trkpt lat="42.53622" lon="2.06117">
        <ele>1781.2999884281</ele>
        <time>2000-05-11T12:37:54.9</time>
      </trkpt>
      <trkpt lat="42.53622" lon="2.06116">
        <ele>1781.5057418348</ele>
        <time>2000-05-11T12:37:55.9</time>
      </trkpt>
      <trkpt lat="42.53623" lon="2.06115">
        <ele>1781.533390023</ele>
        <time>2000-05-11T12:37:56.9</time>
      </trkpt>
      <trkpt lat="42.53622" lon="2.06113">
        <ele>1781.2351486042</ele>
        <time>2000-05-11T12:37:57.9</time>
      </trkpt>
      <trkpt lat="42.53622" lon="2.06112">
        <ele>1780.2423194049</ele>
        <time>2000-05-11T12:37:58.9</time>
      </trkpt>
      <trkpt lat="42.53622" lon="2.06111">
        <ele>1779.1866322784</ele>
        <time>2000-05-11T12:37:59.9</time>
      </trkpt>
      <trkpt lat="42.53623" lon="2.0611">
        <ele>1778.4048702681</ele>
        <time>2000-05-11T12:38:00.9</time>
      </trkpt>
      <trkpt lat="42.53622" lon="2.06108">
        <ele>1777.0692523535</ele>
        <time>2000-05-11T12:38:01.9</time>
      </trkpt>
      <trkpt lat="42.53623" lon="2.06107">
        <ele>1776.1623505667</ele>
        <time>2000-05-11T12:38:02.9</time>
      </trkpt>
      <trkpt lat="42.53624" lon="2.06106">
        <ele>1775.8941989282</ele>
        <time>2000-05-11T12:38:03.9</time>
      </trkpt>
      <trkpt lat="42.53625" lon="2.06105">
        <ele>1775.9479030523</ele>
        <time>2000-05-11T12:38:04.9</time>
      </trkpt>
      <trkpt lat="42.53625" lon="2.06104">
        <ele>1775.6502740908</ele>
        <time>2000-05-11T12:38:05.9</time>
      </trkpt>
      <trkpt lat="42.53625" lon="2.06103">
        <ele>1775.3726625381</ele>
        <time>2000-05-11T12:38:06.9</time>
      </trkpt>
      <trkpt lat="42.53625" lon="2.06102">
        <ele>1774.3883405117</ele>
        <time>2000-05-11T12:38:07.9</time>
      </trkpt>
      <trkpt lat="42.53626" lon="2.06101">
        <ele>1773.8533274712</ele>
        <time>2000-05-11T12:38:08.11</time>
      </trkpt>
      <trkpt lat="42.53626" lon="2.06101">
        <ele>1773.1870393528</ele>
        <time>2000-05-11T12:38:09.11</time>
      </trkpt>
      <trkpt lat="42.53627" lon="2.061">
        <ele>1772.6580600463</ele>
        <time>2000-05-11T12:38:10.11</time>
      </trkpt>
      <trkpt lat="42.53627" lon="2.06099">
        <ele>1772.1982629763</ele>
        <time>2000-05-11T12:38:11.11</time>
      </trkpt>
      <trkpt lat="42.53628" lon="2.06098">
        <ele>1771.7064885888</ele>
        <time>2000-05-11T12:38:12.11</time>
      </trkpt>
      <trkpt lat="42.53628" lon="2.06097">
        <ele>1770.2157247206</ele>
        <time>2000-05-11T12:38:13.11</time>
      </trkpt>
      <trkpt lat="42.53628" lon="2.06096">
        <ele>1768.2117613701</ele>
        <time>2000-05-11T12:38:14.11</time>
      </trkpt>
      <trkpt lat="42.53629" lon="2.06096">
        <ele>1766.4323415218</ele>
        <time>2000-05-11T12:38:15.11</time>
      </trkpt>
      <trkpt lat="42.53629" lon="2.06095">
        <ele>1765.1936702307</ele>
        <time>2000-05-11T12:38:16.14</time>
      </trkpt>
      <trkpt lat="42.53631" lon="2.06094">
        <ele>1764.7169149766</ele>
        <time>2000-05-11T12:38:17.14</time>
      </trkpt>
      <trkpt lat="42.53631" lon="2.06093">
        <ele>1764.8458273184</ele>
        <time>2000-05-11T12:38:18.14</time>
      </trkpt>
      <trkpt lat="42.53631" lon="2.06092">
        <ele>1765.439896379</ele>
        <time>2000-05-11T12:38:19.14</time>
      </trkpt>
      <trkpt lat="42.53632" lon="2.06091">
        <ele>1765.8981930537</ele>
        <time>2000-05-11T12:38:20.14</time>
      </trkpt>
      <trkpt lat="42.53632" lon="2.0609">
        <ele>1766.0857591242</ele>
        <time>2000-05-11T12:38:21.14</time>
      </trkpt>
      <trkpt lat="42.53632" lon="2.06089">
        <ele>1765.8362352705</ele>
        <time>2000-05-11T12:38:22.14</time>
      </trkpt>
      <trkpt lat="42.53633" lon="2.06089">
        <ele>1765.9972250141</ele>
        <time>2000-05-11T12:38:23.14</time>
      </trkpt>
      <trkpt lat="42.53634" lon="2.06088">
        <ele>1766.3252942702</ele>
        <time>2000-05-11T12:38:24.14</time>
      </trkpt>
      <trkpt lat="42.53634" lon="2.06087">
        <ele>1766.3245931707</ele>
        <time>2000-05-11T12:38:25.13</time>
      </trkpt>
      <trkpt lat="42.53635" lon="2.06086">
        <ele>1766.4850727459</ele>
        <time>2000-05-11T12:38:26.13</time>
      </trkpt>
      <trkpt lat="42.53636" lon="2.06086">
        <ele>1766.5293589709</ele>
        <time>2000-05-11T12:38:27.12</time>
      </trkpt>
      <trkpt lat="42.53637" lon="2.06085">
        <ele>1765.8940572755</ele>
        <time>2000-05-11T12:38:28.12</time>
      </trkpt>
      <trkpt lat="42.53637" lon="2.06084">
        <ele>1765.0791834546</ele>
        <time>2000-05-11T12:38:29.12</time>
      </trkpt>
      <trkpt lat="42.53638" lon="2.06082">
        <ele>1764.2221082838</ele>
        <time>2000-05-11T12:38:30.14</time>
      </trkpt>
      <trkpt lat="42.53639" lon="2.06081">
        <ele>1763.333644342</ele>
        <time>2000-05-11T12:38:31.14</time>
      </trkpt>
      <trkpt lat="42.5364" lon="2.0608">
        <ele>1762.5703530237</ele>
        <time>2000-05-11T12:38:32.14</time>
      </trkpt>
      <trkpt lat="42.53641" lon="2.06079">
        <ele>1761.9960006816</ele>
        <time>2000-05-11T12:38:33.14</time>
      </trkpt>
      <trkpt lat="42.53642" lon="2.06078">
        <ele>1761.5465363549</ele>
        <time>2000-05-11T12:38:34.14</time>
      </trkpt>
      <trkpt lat="42.53643" lon="2.06077">
        <ele>1761.5690013787</ele>
        <time>2000-05-11T12:38:35.14</time>
      </trkpt>
      <trkpt lat="42.53644" lon="2.06077">
        <ele>1761.7723363835</ele>
        <time>2000-05-11T12:38:36.14</time>
      </trkpt>
      <trkpt lat="42.53644" lon="2.06077">
        <ele>1762.1503492502</ele>
        <time>2000-05-11T12:38:37.14</time>
      </trkpt>
      <trkpt lat="42.53645" lon="2.06077">
        <ele>1762.57617233</ele>
        <time>2000-05-11T12:38:38.14</time>
      </trkpt>
      <trkpt lat="42.53646" lon="2.06077">
        <ele>1762.7224406855</ele>
        <time>2000-05-11T12:38:39.14</time>
      </trkpt>
      <trkpt lat="42.53647" lon="2.06075">
        <ele>1762.7302122639</ele>
        <time>2000-05-11T12:38:40.12</time>
      </trkpt>
      <trkpt lat="42.53648" lon="2.06074">
        <ele>1762.8580984248</ele>
        <time>2000-05-11T12:38:41.12</time>
      </trkpt>
      <trkpt lat="42.53649" lon="2.06074">
        <ele>1763.1486065265</ele>
        <time>2000-05-11T12:38:42.12</time>
      </trkpt>
      <trkpt lat="42.5365" lon="2.06073">
        <ele>1763.4373856563</ele>
        <time>2000-05-11T12:38:43.12</time>
      </trkpt>
      <trkpt lat="42.5365" lon="2.06072">
        <ele>1763.6972331244</ele>
        <time>2000-05-11T12:38:44.12</time>
      </trkpt>
      <trkpt lat="42.5365" lon="2.06072">
        <ele>1763.9175598221</ele>
        <time>2000-05-11T12:38:45.12</time>
      </trkpt>
      <trkpt lat="42.53651" lon="2.06071">
        <ele>1763.6048537729</ele>
        <time>2000-05-11T12:38:46.12</time>
      </trkpt>
      <trkpt lat="42.53652" lon="2.0607">
        <ele>1763.5361329434</ele>
        <time>2000-05-11T12:38:47.12</time>
      </trkpt>
      <trkpt lat="42.53653" lon="2.0607">
        <ele>1763.5515894862</ele>
        <time>2000-05-11T12:38:48.12</time>
      </trkpt>
      <trkpt lat="42.53654" lon="2.06069">
        <ele>1764.0299868718</ele>
        <time>2000-05-11T12:38:49.12</time>
      </trkpt>
      <trkpt lat="42.53654" lon="2.06069">
        <ele>1764.5083842574</ele>
        <time>2000-05-11T12:38:50.12</time>
      </trkpt>
      <trkpt lat="42.53655" lon="2.06068">
        <ele>1765.2638599036</ele>
        <time>2000-05-11T12:38:51.12</time>
      </trkpt>
      <trkpt lat="42.53656" lon="2.06069">
        <ele>1765.6695432242</ele>
        <time>2000-05-11T12:38:52.12</time>
      </trkpt>
      <trkpt lat="42.53657" lon="2.06069">
        <ele>1765.8027764663</ele>
        <time>2000-05-11T12:38:53.12</time>
      </trkpt>
      <trkpt lat="42.53655" lon="2.06069">
        <ele>1764.8425896622</ele>
        <time>2000-05-11T12:38:54.12</time>
      </trkpt>
      <trkpt lat="42.53655" lon="2.06067">
        <ele>1764.3541149894</ele>
        <time>2000-05-11T12:38:55.12</time>
      </trkpt>
      <trkpt lat="42.53655" lon="2.06066">
        <ele>1763.9285109326</ele>
        <time>2000-05-11T12:38:56.9</time>
      </trkpt>
      <trkpt lat="42.53656" lon="2.06065">
        <ele>1763.2556372428</ele>
        <time>2000-05-11T12:38:57.9</time>
      </trkpt>
      <trkpt lat="42.53657" lon="2.06064">
        <ele>1762.6552042823</ele>
        <time>2000-05-11T12:38:58.9</time>
      </trkpt>
      <trkpt lat="42.53658" lon="2.06063">
        <ele>1762.8740170842</ele>
        <time>2000-05-11T12:38:59.9</time>
      </trkpt>
      <trkpt lat="42.53659" lon="2.06062">
        <ele>1762.9174663188</ele>
        <time>2000-05-11T12:39:00.9</time>
      </trkpt>
      <trkpt lat="42.5366" lon="2.06062">
        <ele>1763.4804044046</ele>
        <time>2000-05-11T12:39:01.9</time>
      </trkpt>
      <trkpt lat="42.5366" lon="2.06062">
        <ele>1764.2337972885</ele>
        <time>2000-05-11T12:39:02.9</time>
      </trkpt>
      <trkpt lat="42.5366" lon="2.06061">
        <ele>1765.0377026934</ele>
        <time>2000-05-11T12:39:03.9</time>
      </trkpt>
      <trkpt lat="42.53661" lon="2.0606">
        <ele>1765.5978025816</ele>
        <time>2000-05-11T12:39:04.9</time>
      </trkpt>
      <trkpt lat="42.53662" lon="2.06057">
        <ele>1764.4527968001</ele>
        <time>2000-05-11T12:39:05.9</time>
      </trkpt>
      <trkpt lat="42.53663" lon="2.06056">
        <ele>1762.259933655</ele>
        <time>2000-05-11T12:39:06.9</time>
      </trkpt>
      <trkpt lat="42.53664" lon="2.06055">
        <ele>1759.8859473718</ele>
        <time>2000-05-11T12:39:07.9</time>
      </trkpt>
      <trkpt lat="42.53664" lon="2.06054">
        <ele>1757.6005909074</ele>
        <time>2000-05-11T12:39:08.9</time>
      </trkpt>
      <trkpt lat="42.53665" lon="2.06053">
        <ele>1755.9143876782</ele>
        <time>2000-05-11T12:39:09.9</time>
      </trkpt>
      <trkpt lat="42.53666" lon="2.06052">
        <ele>1755.663622747</ele>
        <time>2000-05-11T12:39:10.9</time>
      </trkpt>
      <trkpt lat="42.53667" lon="2.06051">
        <ele>1755.8666206669</ele>
        <time>2000-05-11T12:39:11.9</time>
      </trkpt>
      <trkpt lat="42.53668" lon="2.0605">
        <ele>1756.398082285</ele>
        <time>2000-05-11T12:39:12.9</time>
      </trkpt>
      <trkpt lat="42.53668" lon="2.06049">
        <ele>1757.1396940488</ele>
        <time>2000-05-11T12:39:13.9</time>
      </trkpt>
      <trkpt lat="42.53668" lon="2.06049">
        <ele>1757.581829666</ele>
        <time>2000-05-11T12:39:14.9</time>
      </trkpt>
      <trkpt lat="42.53668" lon="2.06048">
        <ele>1757.7676792834</ele>
        <time>2000-05-11T12:39:15.9</time>
      </trkpt>
      <trkpt lat="42.53668" lon="2.06046">
        <ele>1757.8766722705</ele>
        <time>2000-05-11T12:39:16.9</time>
      </trkpt>
      <trkpt lat="42.53668" lon="2.06044">
        <ele>1757.5246937843</ele>
        <time>2000-05-11T12:39:17.9</time>
      </trkpt>
      <trkpt lat="42.53669" lon="2.06043">
        <ele>1757.1362916889</ele>
        <time>2000-05-11T12:39:18.9</time>
      </trkpt>
      <trkpt lat="42.5367" lon="2.06042">
        <ele>1756.7852406999</ele>
        <time>2000-05-11T12:39:19.9</time>
      </trkpt>
      <trkpt lat="42.53671" lon="2.06042">
        <ele>1756.2379699342</ele>
        <time>2000-05-11T12:39:20.9</time>
      </trkpt>
      <trkpt lat="42.53671" lon="2.0604">
        <ele>1754.9310884221</ele>
        <time>2000-05-11T12:39:21.9</time>
      </trkpt>
      <trkpt lat="42.53671" lon="2.06039">
        <ele>1753.3908156987</ele>
        <time>2000-05-11T12:39:22.9</time>
      </trkpt>
      <trkpt lat="42.53671" lon="2.06038">
        <ele>1751.459008088</ele>
        <time>2000-05-11T12:39:23.9</time>
      </trkpt>
      <trkpt lat="42.53671" lon="2.06037">
        <ele>1749.6511017809</ele>
        <time>2000-05-11T12:39:24.13</time>
      </trkpt>
      <trkpt lat="42.53672" lon="2.06037">
        <ele>1748.32823801</ele>
        <time>2000-05-11T12:39:25.13</time>
      </trkpt>
      <trkpt lat="42.53672" lon="2.06035">
        <ele>1747.945924215</ele>
        <time>2000-05-11T12:39:26.13</time>
      </trkpt>
      <trkpt lat="42.53673" lon="2.06035">
        <ele>1747.9385646431</ele>
        <time>2000-05-11T12:39:27.13</time>
      </trkpt>
      <trkpt lat="42.53673" lon="2.06034">
        <ele>1748.0219883548</ele>
        <time>2000-05-11T12:39:28.13</time>
      </trkpt>
      <trkpt lat="42.53674" lon="2.06033">
        <ele>1747.7685566308</ele>
        <time>2000-05-11T12:39:29.13</time>
      </trkpt>
      <trkpt lat="42.53675" lon="2.06032">
        <ele>1747.6008823816</ele>
        <time>2000-05-11T12:39:30.13</time>
      </trkpt>
      <trkpt lat="42.53676" lon="2.06032">
        <ele>1747.2542679496</ele>
        <time>2000-05-11T12:39:31.13</time>
      </trkpt>
      <trkpt lat="42.53676" lon="2.06031">
        <ele>1747.1165651504</ele>
        <time>2000-05-11T12:39:32.13</time>
      </trkpt>
      <trkpt lat="42.53675" lon="2.06029">
        <ele>1746.8778685357</ele>
        <time>2000-05-11T12:39:33.13</time>
      </trkpt>
      <trkpt lat="42.53674" lon="2.06029">
        <ele>1746.4818104429</ele>
        <time>2000-05-11T12:39:34.13</time>
      </trkpt>
      <trkpt lat="42.53674" lon="2.06027">
        <ele>1745.8066376569</ele>
        <time>2000-05-11T12:39:35.13</time>
      </trkpt>
      <trkpt lat="42.53674" lon="2.06027">
        <ele>1745.155415095</ele>
        <time>2000-05-11T12:39:36.13</time>
      </trkpt>
      <trkpt lat="42.53675" lon="2.06027">
        <ele>1744.850655997</ele>
        <time>2000-05-11T12:39:37.14</time>
      </trkpt>
      <trkpt lat="42.53676" lon="2.06026">
        <ele>1745.1960303448</ele>
        <time>2000-05-11T12:39:38.14</time>
      </trkpt>
      <trkpt lat="42.53676" lon="2.06025">
        <ele>1745.4444036385</ele>
        <time>2000-05-11T12:39:39.13</time>
      </trkpt>
      <trkpt lat="42.53677" lon="2.06023">
        <ele>1746.4200134695</ele>
        <time>2000-05-11T12:39:40.13</time>
      </trkpt>
      <trkpt lat="42.53676" lon="2.06022">
        <ele>1747.3212379174</ele>
        <time>2000-05-11T12:39:41.13</time>
      </trkpt>
      <trkpt lat="42.53676" lon="2.06022">
        <ele>1747.8391551701</ele>
        <time>2000-05-11T12:39:42.13</time>
      </trkpt>
      <trkpt lat="42.53677" lon="2.06019">
        <ele>1747.5307219792</ele>
        <time>2000-05-11T12:39:43.10</time>
      </trkpt>
      <trkpt lat="42.53678" lon="2.06018">
        <ele>1747.6111337133</ele>
        <time>2000-05-11T12:39:44.10</time>
      </trkpt>
      <trkpt lat="42.53679" lon="2.06014">
        <ele>1747.1639703738</ele>
        <time>2000-05-11T12:39:45.10</time>
      </trkpt>
      <trkpt lat="42.5368" lon="2.06011">
        <ele>1746.9057345919</ele>
        <time>2000-05-11T12:39:46.10</time>
      </trkpt>
      <trkpt lat="42.53681" lon="2.0601">
        <ele>1746.6678845605</ele>
        <time>2000-05-11T12:39:47.10</time>
      </trkpt>
      <trkpt lat="42.53681" lon="2.06009">
        <ele>1746.7198774207</ele>
        <time>2000-05-11T12:39:48.10</time>
      </trkpt>
      <trkpt lat="42.53681" lon="2.06008">
        <ele>1746.5625725338</ele>
        <time>2000-05-11T12:39:49.10</time>
      </trkpt>
      <trkpt lat="42.53681" lon="2.06006">
        <ele>1746.7590172941</ele>
        <time>2000-05-11T12:39:50.10</time>
      </trkpt>
      <trkpt lat="42.53681" lon="2.06005">
        <ele>1746.6696003018</ele>
        <time>2000-05-11T12:39:51.10</time>
      </trkpt>
      <trkpt lat="42.53681" lon="2.06004">
        <ele>1746.3047262849</ele>
        <time>2000-05-11T12:39:52.10</time>
      </trkpt>
      <trkpt lat="42.53681" lon="2.06004">
        <ele>1746.0471888972</ele>
        <time>2000-05-11T12:39:53.10</time>
      </trkpt>
      <trkpt lat="42.53681" lon="2.06002">
        <ele>1745.7566494457</ele>
        <time>2000-05-11T12:39:54.10</time>
      </trkpt>
      <trkpt lat="42.53681" lon="2.06">
        <ele>1745.3604651649</ele>
        <time>2000-05-11T12:39:55.10</time>
      </trkpt>
      <trkpt lat="42.53682" lon="2.05999">
        <ele>1745.1402495535</ele>
        <time>2000-05-11T12:39:56.10</time>
      </trkpt>
      <trkpt lat="42.53682" lon="2.05998">
        <ele>1745.4414401319</ele>
        <time>2000-05-11T12:39:57.10</time>
      </trkpt>
      <trkpt lat="42.53683" lon="2.05996">
        <ele>1745.9630976582</ele>
        <time>2000-05-11T12:39:58.10</time>
      </trkpt>
      <trkpt lat="42.53684" lon="2.05995">
        <ele>1746.7639314562</ele>
        <time>2000-05-11T12:39:59.10</time>
      </trkpt>
      <trkpt lat="42.53685" lon="2.05994">
        <ele>1747.4723758016</ele>
        <time>2000-05-11T12:40:00.10</time>
      </trkpt>
      <trkpt lat="42.53685" lon="2.05994">
        <ele>1748.1761710552</ele>
        <time>2000-05-11T12:40:01.10</time>
      </trkpt>
      <trkpt lat="42.53685" lon="2.05993">
        <ele>1748.4587670246</ele>
        <time>2000-05-11T12:40:02.10</time>
      </trkpt>
      <trkpt lat="42.53686" lon="2.05992">
        <ele>1748.4060441779</ele>
        <time>2000-05-11T12:40:03.10</time>
      </trkpt>
      <trkpt lat="42.53682" lon="2.05993">
        <ele>1748.3787804728</ele>
        <time>2000-05-11T12:40:04.9</time>
      </trkpt>
      <trkpt lat="42.53682" lon="2.05993">
        <ele>1748.1302792054</ele>
        <time>2000-05-11T12:40:05.9</time>
      </trkpt>
      <trkpt lat="42.53681" lon="2.05992">
        <ele>1747.8122852387</ele>
        <time>2000-05-11T12:40:06.12</time>
      </trkpt>
      <trkpt lat="42.53681" lon="2.05992">
        <ele>1747.4956846414</ele>
        <time>2000-05-11T12:40:07.12</time>
      </trkpt>
      <trkpt lat="42.5368" lon="2.0599">
        <ele>1747.2477120493</ele>
        <time>2000-05-11T12:40:08.12</time>
      </trkpt>
      <trkpt lat="42.53681" lon="2.0599">
        <ele>1747.5543806249</ele>
        <time>2000-05-11T12:40:09.13</time>
      </trkpt>
      <trkpt lat="42.5368" lon="2.0599">
        <ele>1747.2537777249</ele>
        <time>2000-05-11T12:40:10.13</time>
      </trkpt>
      <trkpt lat="42.53678" lon="2.05991">
        <ele>1747.4477532251</ele>
        <time>2000-05-11T12:40:11.16</time>
      </trkpt>
      <trkpt lat="42.53678" lon="2.05991">
        <ele>1747.7951997247</ele>
        <time>2000-05-11T12:40:12.16</time>
      </trkpt>
      <trkpt lat="42.53678" lon="2.05993">
        <ele>1749.0911599502</ele>
        <time>2000-05-11T12:40:13.17</time>
      </trkpt>
      <trkpt lat="42.53677" lon="2.05994">
        <ele>1750.0984354343</ele>
        <time>2000-05-11T12:40:14.17</time>
      </trkpt>
      <trkpt lat="42.53678" lon="2.05994">
        <ele>1751.7373767555</ele>
        <time>2000-05-11T12:40:15.16</time>
      </trkpt>
      <trkpt lat="42.53677" lon="2.05995">
        <ele>1753.0077063523</ele>
        <time>2000-05-11T12:40:16.16</time>
      </trkpt>
      <trkpt lat="42.53676" lon="2.05995">
        <ele>1754.2540264359</ele>
        <time>2000-05-11T12:40:17.18</time>
      </trkpt>
      <trkpt lat="42.53676" lon="2.05995">
        <ele>1754.5980566565</ele>
        <time>2000-05-11T12:40:18.18</time>
      </trkpt>
      <trkpt lat="42.53675" lon="2.05996">
        <ele>1754.8247903604</ele>
        <time>2000-05-11T12:40:19.17</time>
      </trkpt>
      <trkpt lat="42.53675" lon="2.05996">
        <ele>1755.027129703</ele>
        <time>2000-05-11T12:40:20.17</time>
      </trkpt>
      <trkpt lat="42.53675" lon="2.05997">
        <ele>1755.4384745628</ele>
        <time>2000-05-11T12:40:21.13</time>
      </trkpt>
      <trkpt lat="42.53675" lon="2.05997">
        <ele>1755.8738289358</ele>
        <time>2000-05-11T12:40:22.13</time>
      </trkpt>
      <trkpt lat="42.53674" lon="2.05998">
        <ele>1756.5856346814</ele>
        <time>2000-05-11T12:40:23.14</time>
      </trkpt>
      <trkpt lat="42.53673" lon="2.05998">
        <ele>1756.9610061226</ele>
        <time>2000-05-11T12:40:24.14</time>
      </trkpt>
      <trkpt lat="42.53674" lon="2.05998">
        <ele>1757.5072107991</ele>
        <time>2000-05-11T12:40:25.14</time>
      </trkpt>
      <trkpt lat="42.53675" lon="2.05997">
        <ele>1757.8827799886</ele>
        <time>2000-05-11T12:40:26.14</time>
      </trkpt>
      <trkpt lat="42.53676" lon="2.05995">
        <ele>1758.1898227951</ele>
        <time>2000-05-11T12:40:27.14</time>
      </trkpt>
      <trkpt lat="42.53677" lon="2.05994">
        <ele>1758.0835225312</ele>
        <time>2000-05-11T12:40:28.14</time>
      </trkpt>
      <trkpt lat="42.53678" lon="2.05992">
        <ele>1758.0383596072</ele>
        <time>2000-05-11T12:40:29.14</time>
      </trkpt>
      <trkpt lat="42.53679" lon="2.05991">
        <ele>1758.0037982674</ele>
        <time>2000-05-11T12:40:30.14</time>
      </trkpt>
      <trkpt lat="42.53679" lon="2.05989">
        <ele>1758.0265679266</ele>
        <time>2000-05-11T12:40:31.14</time>
      </trkpt>
      <trkpt lat="42.5368" lon="2.05987">
        <ele>1757.9513134016</ele>
        <time>2000-05-11T12:40:32.14</time>
      </trkpt>
      <trkpt lat="42.53681" lon="2.05986">
        <ele>1758.0065788012</ele>
        <time>2000-05-11T12:40:33.14</time>
      </trkpt>
      <trkpt lat="42.53682" lon="2.05984">
        <ele>1758.2083596945</ele>
        <time>2000-05-11T12:40:34.14</time>
      </trkpt>
      <trkpt lat="42.53682" lon="2.05982">
        <ele>1757.9942575257</ele>
        <time>2000-05-11T12:40:35.14</time>
      </trkpt>
      <trkpt lat="42.53683" lon="2.0598">
        <ele>1757.3644896936</ele>
        <time>2000-05-11T12:40:36.14</time>
      </trkpt>
      <trkpt lat="42.53684" lon="2.05978">
        <ele>1756.2941363879</ele>
        <time>2000-05-11T12:40:37.14</time>
      </trkpt>
      <trkpt lat="42.53687" lon="2.05975">
        <ele>1755.0108919011</ele>
        <time>2000-05-11T12:40:38.14</time>
      </trkpt>
      <trkpt lat="42.53687" lon="2.05973">
        <ele>1753.5738608634</ele>
        <time>2000-05-11T12:40:39.14</time>
      </trkpt>
      <trkpt lat="42.53687" lon="2.05972">
        <ele>1751.9074085709</ele>
        <time>2000-05-11T12:40:40.14</time>
      </trkpt>
      <trkpt lat="42.53687" lon="2.05971">
        <ele>1750.3553715823</ele>
        <time>2000-05-11T12:40:41.14</time>
      </trkpt>
      <trkpt lat="42.53688" lon="2.05969">
        <ele>1749.6991986141</ele>
        <time>2000-05-11T12:40:42.14</time>
      </trkpt>
      <trkpt lat="42.53689" lon="2.05968">
        <ele>1749.3025867667</ele>
        <time>2000-05-11T12:40:43.14</time>
      </trkpt>
      <trkpt lat="42.5369" lon="2.05966">
        <ele>1749.1354519533</ele>
        <time>2000-05-11T12:40:44.14</time>
      </trkpt>
      <trkpt lat="42.53691" lon="2.05965">
        <ele>1749.357331265</ele>
        <time>2000-05-11T12:40:45.14</time>
      </trkpt>
      <trkpt lat="42.53691" lon="2.05964">
        <ele>1749.3313279124</ele>
        <time>2000-05-11T12:40:46.14</time>
      </trkpt>
      <trkpt lat="42.53691" lon="2.05963">
        <ele>1748.6800858865</ele>
        <time>2000-05-11T12:40:47.14</time>
      </trkpt>
      <trkpt lat="42.53691" lon="2.05963">
        <ele>1747.1764631262</ele>
        <time>2000-05-11T12:40:48.14</time>
      </trkpt>
      <trkpt lat="42.53692" lon="2.05961">
        <ele>1745.4637933614</ele>
        <time>2000-05-11T12:40:49.14</time>
      </trkpt>
      <trkpt lat="42.53692" lon="2.0596">
        <ele>1743.9167627996</ele>
        <time>2000-05-11T12:40:50.14</time>
      </trkpt>
      <trkpt lat="42.53693" lon="2.05957">
        <ele>1743.071068269</ele>
        <time>2000-05-11T12:40:51.15</time>
      </trkpt>
      <trkpt lat="42.53694" lon="2.05956">
        <ele>1743.1581191296</ele>
        <time>2000-05-11T12:40:52.15</time>
      </trkpt>
      <trkpt lat="42.53694" lon="2.05954">
        <ele>1744.4327818269</ele>
        <time>2000-05-11T12:40:53.15</time>
      </trkpt>
      <trkpt lat="42.53694" lon="2.05953">
        <ele>1745.698459653</ele>
        <time>2000-05-11T12:40:54.15</time>
      </trkpt>
      <trkpt lat="42.53694" lon="2.05951">
        <ele>1746.9533412598</ele>
        <time>2000-05-11T12:40:55.15</time>
      </trkpt>
      <trkpt lat="42.53695" lon="2.0595">
        <ele>1748.2623844586</ele>
        <time>2000-05-11T12:40:56.15</time>
      </trkpt>
      <trkpt lat="42.53696" lon="2.05949">
        <ele>1749.1464426305</ele>
        <time>2000-05-11T12:40:57.15</time>
      </trkpt>
      <trkpt lat="42.53696" lon="2.05947">
        <ele>1749.6783842089</ele>
        <time>2000-05-11T12:40:58.15</time>
      </trkpt>
      <trkpt lat="42.53696" lon="2.05946">
        <ele>1750.7220685065</ele>
        <time>2000-05-11T12:40:59.15</time>
      </trkpt>
      <trkpt lat="42.53696" lon="2.05946">
        <ele>1751.6857651927</ele>
        <time>2000-05-11T12:41:00.15</time>
      </trkpt>
      <trkpt lat="42.53697" lon="2.05945">
        <ele>1752.1634922868</ele>
        <time>2000-05-11T12:41:01.15</time>
      </trkpt>
      <trkpt lat="42.53697" lon="2.05943">
        <ele>1752.13588666</ele>
        <time>2000-05-11T12:41:02.15</time>
      </trkpt>
      <trkpt lat="42.53697" lon="2.05942">
        <ele>1751.7957804594</ele>
        <time>2000-05-11T12:41:03.15</time>
      </trkpt>
      <trkpt lat="42.53698" lon="2.05941">
        <ele>1750.6986287139</ele>
        <time>2000-05-11T12:41:04.15</time>
      </trkpt>
      <trkpt lat="42.53698" lon="2.05941">
        <ele>1749.6014769685</ele>
        <time>2000-05-11T12:41:05.15</time>
      </trkpt>
      <trkpt lat="42.53698" lon="2.05939">
        <ele>1749.2045349147</ele>
        <time>2000-05-11T12:41:06.15</time>
      </trkpt>
      <trkpt lat="42.53699" lon="2.05938">
        <ele>1748.9456977857</ele>
        <time>2000-05-11T12:41:07.15</time>
      </trkpt>
      <trkpt lat="42.53699" lon="2.05936">
        <ele>1748.7445662456</ele>
        <time>2000-05-11T12:41:08.15</time>
      </trkpt>
      <trkpt lat="42.53699" lon="2.05935">
        <ele>1748.7754998276</ele>
        <time>2000-05-11T12:41:09.14</time>
      </trkpt>
      <trkpt lat="42.53699" lon="2.05934">
        <ele>1748.6723623239</ele>
        <time>2000-05-11T12:41:10.14</time>
      </trkpt>
      <trkpt lat="42.53699" lon="2.05932">
        <ele>1748.019530246</ele>
        <time>2000-05-11T12:41:11.14</time>
      </trkpt>
      <trkpt lat="42.53699" lon="2.0593">
        <ele>1747.6922077185</ele>
        <time>2000-05-11T12:41:12.14</time>
      </trkpt>
      <trkpt lat="42.53699" lon="2.05929">
        <ele>1747.4277835062</ele>
        <time>2000-05-11T12:41:13.14</time>
      </trkpt>
      <trkpt lat="42.53699" lon="2.05929">
        <ele>1747.2778449818</ele>
        <time>2000-05-11T12:41:14.14</time>
      </trkpt>
      <trkpt lat="42.53699" lon="2.05928">
        <ele>1747.0115432214</ele>
        <time>2000-05-11T12:41:15.16</time>
      </trkpt>
      <trkpt lat="42.537" lon="2.05927">
        <ele>1746.6526922142</ele>
        <time>2000-05-11T12:41:16.16</time>
      </trkpt>
      <trkpt lat="42.537" lon="2.05925">
        <ele>1746.25491491</ele>
        <time>2000-05-11T12:41:17.16</time>
      </trkpt>
      <trkpt lat="42.537" lon="2.05924">
        <ele>1746.4129553685</ele>
        <time>2000-05-11T12:41:18.17</time>
      </trkpt>
      <trkpt lat="42.53701" lon="2.05923">
        <ele>1746.9919895513</ele>
        <time>2000-05-11T12:41:19.17</time>
      </trkpt>
      <trkpt lat="42.53702" lon="2.05922">
        <ele>1748.4091070024</ele>
        <time>2000-05-11T12:41:20.17</time>
      </trkpt>
      <trkpt lat="42.53702" lon="2.05921">
        <ele>1749.8102440933</ele>
        <time>2000-05-11T12:41:21.16</time>
      </trkpt>
      <trkpt lat="42.53702" lon="2.05919">
        <ele>1750.7353547862</ele>
        <time>2000-05-11T12:41:22.16</time>
      </trkpt>
      <trkpt lat="42.53702" lon="2.05918">
        <ele>1750.7733082451</ele>
        <time>2000-05-11T12:41:23.16</time>
      </trkpt>
      <trkpt lat="42.53702" lon="2.05917">
        <ele>1750.8693147829</ele>
        <time>2000-05-11T12:41:24.16</time>
      </trkpt>
      <trkpt lat="42.53702" lon="2.05917">
        <ele>1750.3776723742</ele>
        <time>2000-05-11T12:41:25.16</time>
      </trkpt>
      <trkpt lat="42.53702" lon="2.05918">
        <ele>1749.9655563178</ele>
        <time>2000-05-11T12:41:26.17</time>
      </trkpt>
      <trkpt lat="42.53702" lon="2.05918">
        <ele>1749.938861532</ele>
        <time>2000-05-11T12:41:27.17</time>
      </trkpt>
      <trkpt lat="42.53701" lon="2.05918">
        <ele>1749.6395468578</ele>
        <time>2000-05-11T12:41:28.16</time>
      </trkpt>
      <trkpt lat="42.53701" lon="2.05918">
        <ele>1748.8611853804</ele>
        <time>2000-05-11T12:41:29.16</time>
      </trkpt>
      <trkpt lat="42.53702" lon="2.05917">
        <ele>1747.9369202267</ele>
        <time>2000-05-11T12:41:30.17</time>
      </trkpt>
      <trkpt lat="42.53702" lon="2.05916">
        <ele>1747.0265885467</ele>
        <time>2000-05-11T12:41:31.17</time>
      </trkpt>
      <trkpt lat="42.53703" lon="2.05915">
        <ele>1746.0174169093</ele>
        <time>2000-05-11T12:41:32.17</time>
      </trkpt>
      <trkpt lat="42.53703" lon="2.05912">
        <ele>1745.9951069955</ele>
        <time>2000-05-11T12:41:33.17</time>
      </trkpt>
      <trkpt lat="42.53703" lon="2.05911">
        <ele>1746.2863499852</ele>
        <time>2000-05-11T12:41:34.17</time>
      </trkpt>
      <trkpt lat="42.53704" lon="2.05909">
        <ele>1746.6838342616</ele>
        <time>2000-05-11T12:41:35.17</time>
      </trkpt>
      <trkpt lat="42.53704" lon="2.05908">
        <ele>1747.6616384363</ele>
        <time>2000-05-11T12:41:36.17</time>
      </trkpt>
      <trkpt lat="42.53706" lon="2.05906">
        <ele>1749.4453857226</ele>
        <time>2000-05-11T12:41:37.17</time>
      </trkpt>
      <trkpt lat="42.53707" lon="2.05905">
        <ele>1751.1703040093</ele>
        <time>2000-05-11T12:41:38.17</time>
      </trkpt>
      <trkpt lat="42.53707" lon="2.05904">
        <ele>1752.3063463066</ele>
        <time>2000-05-11T12:41:39.17</time>
      </trkpt>
      <trkpt lat="42.53707" lon="2.05903">
        <ele>1753.3203947114</ele>
        <time>2000-05-11T12:41:40.17</time>
      </trkpt>
      <trkpt lat="42.53707" lon="2.05901">
        <ele>1754.0178384995</ele>
        <time>2000-05-11T12:41:41.17</time>
      </trkpt>
      <trkpt lat="42.53707" lon="2.05901">
        <ele>1754.0081791332</ele>
        <time>2000-05-11T12:41:42.17</time>
      </trkpt>
      <trkpt lat="42.53708" lon="2.059">
        <ele>1753.7414008075</ele>
        <time>2000-05-11T12:41:43.17</time>
      </trkpt>
      <trkpt lat="42.53708" lon="2.05898">
        <ele>1753.669914517</ele>
        <time>2000-05-11T12:41:44.17</time>
      </trkpt>
      <trkpt lat="42.53708" lon="2.05897">
        <ele>1753.9761999242</ele>
        <time>2000-05-11T12:41:45.17</time>
      </trkpt>
      <trkpt lat="42.53708" lon="2.05895">
        <ele>1754.221890069</ele>
        <time>2000-05-11T12:41:46.17</time>
      </trkpt>
      <trkpt lat="42.53708" lon="2.05894">
        <ele>1754.2102050997</ele>
        <time>2000-05-11T12:41:47.17</time>
      </trkpt>
      <trkpt lat="42.53708" lon="2.05893">
        <ele>1754.3580989344</ele>
        <time>2000-05-11T12:41:48.17</time>
      </trkpt>
      <trkpt lat="42.53709" lon="2.05892">
        <ele>1754.7010224715</ele>
        <time>2000-05-11T12:41:49.17</time>
      </trkpt>
      <trkpt lat="42.53709" lon="2.05891">
        <ele>1754.5119371481</ele>
        <time>2000-05-11T12:41:50.17</time>
      </trkpt>
      <trkpt lat="42.53709" lon="2.0589">
        <ele>1754.1253212607</ele>
        <time>2000-05-11T12:41:51.16</time>
      </trkpt>
      <trkpt lat="42.53709" lon="2.05889">
        <ele>1753.9525063498</ele>
        <time>2000-05-11T12:41:52.16</time>
      </trkpt>
      <trkpt lat="42.53709" lon="2.05885">
        <ele>1753.9438945318</ele>
        <time>2000-05-11T12:41:53.15</time>
      </trkpt>
      <trkpt lat="42.53709" lon="2.05885">
        <ele>1753.8202840621</ele>
        <time>2000-05-11T12:41:54.15</time>
      </trkpt>
      <trkpt lat="42.5371" lon="2.05884">
        <ele>1754.0742190801</ele>
        <time>2000-05-11T12:41:55.16</time>
      </trkpt>
      <trkpt lat="42.5371" lon="2.05884">
        <ele>1754.3145492932</ele>
        <time>2000-05-11T12:41:56.16</time>
      </trkpt>
      <trkpt lat="42.53709" lon="2.05882">
        <ele>1754.4750551328</ele>
        <time>2000-05-11T12:41:57.16</time>
      </trkpt>
      <trkpt lat="42.53709" lon="2.0588">
        <ele>1754.0091292406</ele>
        <time>2000-05-11T12:41:58.16</time>
      </trkpt>
      <trkpt lat="42.53708" lon="2.05879">
        <ele>1753.2244748145</ele>
        <time>2000-05-11T12:41:59.16</time>
      </trkpt>
      <trkpt lat="42.53707" lon="2.05879">
        <ele>1752.159560997</ele>
        <time>2000-05-11T12:42:00.16</time>
      </trkpt>
      <trkpt lat="42.53705" lon="2.05879">
        <ele>1750.7701144341</ele>
        <time>2000-05-11T12:42:01.16</time>
      </trkpt>
      <trkpt lat="42.53705" lon="2.05879">
        <ele>1749.5040663822</ele>
        <time>2000-05-11T12:42:02.16</time>
      </trkpt>
      <trkpt lat="42.53705" lon="2.05878">
        <ele>1748.300264431</ele>
        <time>2000-05-11T12:42:03.16</time>
      </trkpt>
      <trkpt lat="42.53705" lon="2.05877">
        <ele>1747.2429701695</ele>
        <time>2000-05-11T12:42:04.16</time>
      </trkpt>
      <trkpt lat="42.53705" lon="2.05875">
        <ele>1746.3911012219</ele>
        <time>2000-05-11T12:42:05.16</time>
      </trkpt>
      <trkpt lat="42.53706" lon="2.05874">
        <ele>1745.4155937815</ele>
        <time>2000-05-11T12:42:06.16</time>
      </trkpt>
      <trkpt lat="42.53706" lon="2.05872">
        <ele>1744.1416243613</ele>
        <time>2000-05-11T12:42:07.16</time>
      </trkpt>
      <trkpt lat="42.53706" lon="2.0587">
        <ele>1743.6907039914</ele>
        <time>2000-05-11T12:42:08.16</time>
      </trkpt>
      <trkpt lat="42.53706" lon="2.05869">
        <ele>1743.6239900678</ele>
        <time>2000-05-11T12:42:09.16</time>
      </trkpt>
      <trkpt lat="42.53706" lon="2.05867">
        <ele>1743.8910448333</ele>
        <time>2000-05-11T12:42:10.16</time>
      </trkpt>
      <trkpt lat="42.53707" lon="2.05865">
        <ele>1745.1532159979</ele>
        <time>2000-05-11T12:42:11.16</time>
      </trkpt>
      <trkpt lat="42.53708" lon="2.05863">
        <ele>1747.1041364133</ele>
        <time>2000-05-11T12:42:12.16</time>
      </trkpt>
      <trkpt lat="42.53708" lon="2.05863">
        <ele>1748.5739411019</ele>
        <time>2000-05-11T12:42:13.16</time>
      </trkpt>
      <trkpt lat="42.53708" lon="2.05863">
        <ele>1749.8317601882</ele>
        <time>2000-05-11T12:42:14.16</time>
      </trkpt>
      <trkpt lat="42.53708" lon="2.05862">
        <ele>1751.2847890817</ele>
        <time>2000-05-11T12:42:15.15</time>
      </trkpt>
      <trkpt lat="42.53708" lon="2.05861">
        <ele>1752.106127085</ele>
        <time>2000-05-11T12:42:16.15</time>
      </trkpt>
      <trkpt lat="42.53709" lon="2.0586">
        <ele>1752.3129523067</ele>
        <time>2000-05-11T12:42:17.15</time>
      </trkpt>
      <trkpt lat="42.53709" lon="2.05859">
        <ele>1752.5135152595</ele>
        <time>2000-05-11T12:42:18.15</time>
      </trkpt>
      <trkpt lat="42.5371" lon="2.05858">
        <ele>1752.7091556696</ele>
        <time>2000-05-11T12:42:19.15</time>
      </trkpt>
      <trkpt lat="42.5371" lon="2.05857">
        <ele>1752.412909165</ele>
        <time>2000-05-11T12:42:20.15</time>
      </trkpt>
      <trkpt lat="42.53711" lon="2.05855">
        <ele>1752.1656039227</ele>
        <time>2000-05-11T12:42:21.15</time>
      </trkpt>
      <trkpt lat="42.53712" lon="2.05853">
        <ele>1752.1870831342</ele>
        <time>2000-05-11T12:42:22.15</time>
      </trkpt>
      <trkpt lat="42.53713" lon="2.05851">
        <ele>1752.2292938804</ele>
        <time>2000-05-11T12:42:23.15</time>
      </trkpt>
      <trkpt lat="42.53713" lon="2.0585">
        <ele>1752.5089627581</ele>
        <time>2000-05-11T12:42:24.15</time>
      </trkpt>
      <trkpt lat="42.53713" lon="2.0585">
        <ele>1752.7647220889</ele>
        <time>2000-05-11T12:42:25.15</time>
      </trkpt>
      <trkpt lat="42.53713" lon="2.05849">
        <ele>1752.8660620535</ele>
        <time>2000-05-11T12:42:26.15</time>
      </trkpt>
      <trkpt lat="42.53713" lon="2.05847">
        <ele>1753.0983731708</ele>
        <time>2000-05-11T12:42:27.15</time>
      </trkpt>
      <trkpt lat="42.53714" lon="2.05846">
        <ele>1753.5433134684</ele>
        <time>2000-05-11T12:42:28.15</time>
      </trkpt>
      <trkpt lat="42.53715" lon="2.05845">
        <ele>1753.8107923083</ele>
        <time>2000-05-11T12:42:29.15</time>
      </trkpt>
      <trkpt lat="42.53715" lon="2.05844">
        <ele>1753.9611137351</ele>
        <time>2000-05-11T12:42:30.15</time>
      </trkpt>
      <trkpt lat="42.53715" lon="2.05843">
        <ele>1753.9029309997</ele>
        <time>2000-05-11T12:42:31.15</time>
      </trkpt>
      <trkpt lat="42.53715" lon="2.05842">
        <ele>1753.5946985284</ele>
        <time>2000-05-11T12:42:32.15</time>
      </trkpt>
      <trkpt lat="42.53716" lon="2.05841">
        <ele>1753.0357758608</ele>
        <time>2000-05-11T12:42:33.15</time>
      </trkpt>
      <trkpt lat="42.53716" lon="2.0584">
        <ele>1752.647537755</ele>
        <time>2000-05-11T12:42:34.15</time>
      </trkpt>
      <trkpt lat="42.53717" lon="2.05839">
        <ele>1752.6188540401</ele>
        <time>2000-05-11T12:42:35.15</time>
      </trkpt>
      <trkpt lat="42.53716" lon="2.05838">
        <ele>1752.8087992068</ele>
        <time>2000-05-11T12:42:36.18</time>
      </trkpt>
      <trkpt lat="42.53717" lon="2.05837">
        <ele>1753.0434834871</ele>
        <time>2000-05-11T12:42:37.18</time>
      </trkpt>
      <trkpt lat="42.53716" lon="2.05835">
        <ele>1753.5597141786</ele>
        <time>2000-05-11T12:42:38.19</time>
      </trkpt>
      <trkpt lat="42.53716" lon="2.05834">
        <ele>1753.9698148556</ele>
        <time>2000-05-11T12:42:39.19</time>
      </trkpt>
      <trkpt lat="42.53715" lon="2.05833">
        <ele>1754.2921459423</ele>
        <time>2000-05-11T12:42:40.19</time>
      </trkpt>
      <trkpt lat="42.53715" lon="2.05831">
        <ele>1754.7041854618</ele>
        <time>2000-05-11T12:42:41.19</time>
      </trkpt>
      <trkpt lat="42.53716" lon="2.0583">
        <ele>1755.4776861567</ele>
        <time>2000-05-11T12:42:42.19</time>
      </trkpt>
      <trkpt lat="42.53716" lon="2.05829">
        <ele>1755.9427324889</ele>
        <time>2000-05-11T12:42:43.19</time>
      </trkpt>
      <trkpt lat="42.53716" lon="2.05828">
        <ele>1756.3072145989</ele>
        <time>2000-05-11T12:42:44.21</time>
      </trkpt>
      <trkpt lat="42.53716" lon="2.05826">
        <ele>1756.2151276389</ele>
        <time>2000-05-11T12:42:45.21</time>
      </trkpt>
      <trkpt lat="42.53716" lon="2.05825">
        <ele>1756.0982231813</ele>
        <time>2000-05-11T12:42:46.21</time>
      </trkpt>
      <trkpt lat="42.53716" lon="2.05824">
        <ele>1755.1290437205</ele>
        <time>2000-05-11T12:42:47.20</time>
      </trkpt>
      <trkpt lat="42.53716" lon="2.05824">
        <ele>1754.2103639614</ele>
        <time>2000-05-11T12:42:48.20</time>
      </trkpt>
      <trkpt lat="42.53716" lon="2.05822">
        <ele>1753.1088948784</ele>
        <time>2000-05-11T12:42:49.16</time>
      </trkpt>
      <trkpt lat="42.53717" lon="2.0582">
        <ele>1752.9630181942</ele>
        <time>2000-05-11T12:42:50.16</time>
      </trkpt>
      <trkpt lat="42.53717" lon="2.05819">
        <ele>1753.2536974976</ele>
        <time>2000-05-11T12:42:51.16</time>
      </trkpt>
      <trkpt lat="42.53718" lon="2.05818">
        <ele>1754.3069824331</ele>
        <time>2000-05-11T12:42:52.16</time>
      </trkpt>
      <trkpt lat="42.53718" lon="2.05816">
        <ele>1755.4318191824</ele>
        <time>2000-05-11T12:42:53.16</time>
      </trkpt>
      <trkpt lat="42.53718" lon="2.05815">
        <ele>1756.7115574943</ele>
        <time>2000-05-11T12:42:54.16</time>
      </trkpt>
      <trkpt lat="42.53718" lon="2.05814">
        <ele>1757.5996973241</ele>
        <time>2000-05-11T12:42:55.16</time>
      </trkpt>
      <trkpt lat="42.53719" lon="2.05813">
        <ele>1758.318632469</ele>
        <time>2000-05-11T12:42:56.16</time>
      </trkpt>
      <trkpt lat="42.53719" lon="2.05811">
        <ele>1759.0516074985</ele>
        <time>2000-05-11T12:42:57.16</time>
      </trkpt>
      <trkpt lat="42.53719" lon="2.05809">
        <ele>1760.1119092444</ele>
        <time>2000-05-11T12:42:58.16</time>
      </trkpt>
      <trkpt lat="42.5372" lon="2.05809">
        <ele>1761.4408100735</ele>
        <time>2000-05-11T12:42:59.16</time>
      </trkpt>
      <trkpt lat="42.53721" lon="2.05808">
        <ele>1762.7531341298</ele>
        <time>2000-05-11T12:43:00.16</time>
      </trkpt>
      <trkpt lat="42.53721" lon="2.05808">
        <ele>1763.913315062</ele>
        <time>2000-05-11T12:43:01.16</time>
      </trkpt>
      <trkpt lat="42.53722" lon="2.05808">
        <ele>1764.7710424079</ele>
        <time>2000-05-11T12:43:02.16</time>
      </trkpt>
      <trkpt lat="42.53721" lon="2.05808">
        <ele>1765.2664609691</ele>
        <time>2000-05-11T12:43:03.17</time>
      </trkpt>
      <trkpt lat="42.53721" lon="2.05806">
        <ele>1764.7926368995</ele>
        <time>2000-05-11T12:43:04.17</time>
      </trkpt>
      <trkpt lat="42.53722" lon="2.05805">
        <ele>1764.1564846192</ele>
        <time>2000-05-11T12:43:05.17</time>
      </trkpt>
      <trkpt lat="42.53723" lon="2.05804">
        <ele>1763.7126626348</ele>
        <time>2000-05-11T12:43:06.17</time>
      </trkpt>
      <trkpt lat="42.53723" lon="2.05803">
        <ele>1763.5241834326</ele>
        <time>2000-05-11T12:43:07.17</time>
      </trkpt>
      <trkpt lat="42.53723" lon="2.05802">
        <ele>1763.0271013226</ele>
        <time>2000-05-11T12:43:08.17</time>
      </trkpt>
      <trkpt lat="42.53723" lon="2.05801">
        <ele>1763.0787352292</ele>
        <time>2000-05-11T12:43:09.17</time>
      </trkpt>
      <trkpt lat="42.53724" lon="2.058">
        <ele>1763.2938935824</ele>
        <time>2000-05-11T12:43:10.14</time>
      </trkpt>
      <trkpt lat="42.53724" lon="2.058">
        <ele>1763.3167216396</ele>
        <time>2000-05-11T12:43:11.14</time>
      </trkpt>
      <trkpt lat="42.53725" lon="2.05798">
        <ele>1763.8750441255</ele>
        <time>2000-05-11T12:43:12.14</time>
      </trkpt>
      <trkpt lat="42.53725" lon="2.05797">
        <ele>1764.3008668289</ele>
        <time>2000-05-11T12:43:13.14</time>
      </trkpt>
      <trkpt lat="42.53725" lon="2.05796">
        <ele>1765.0686440665</ele>
        <time>2000-05-11T12:43:14.14</time>
      </trkpt>
      <trkpt lat="42.53725" lon="2.05795">
        <ele>1765.6368044397</ele>
        <time>2000-05-11T12:43:15.14</time>
      </trkpt>
      <trkpt lat="42.53725" lon="2.05793">
        <ele>1766.270339046</ele>
        <time>2000-05-11T12:43:16.14</time>
      </trkpt>
      <trkpt lat="42.53724" lon="2.05792">
        <ele>1765.9994188149</ele>
        <time>2000-05-11T12:43:17.14</time>
      </trkpt>
      <trkpt lat="42.53724" lon="2.05791">
        <ele>1765.9379927663</ele>
        <time>2000-05-11T12:43:18.14</time>
      </trkpt>
      <trkpt lat="42.53724" lon="2.05789">
        <ele>1765.7865205731</ele>
        <time>2000-05-11T12:43:19.14</time>
      </trkpt>
      <trkpt lat="42.53724" lon="2.05788">
        <ele>1765.3777891004</ele>
        <time>2000-05-11T12:43:20.14</time>
      </trkpt>
      <trkpt lat="42.53724" lon="2.05788">
        <ele>1764.9036833946</ele>
        <time>2000-05-11T12:43:21.14</time>
      </trkpt>
      <trkpt lat="42.53725" lon="2.05786">
        <ele>1765.258611989</ele>
        <time>2000-05-11T12:43:22.13</time>
      </trkpt>
      <trkpt lat="42.53726" lon="2.05785">
        <ele>1765.9510964941</ele>
        <time>2000-05-11T12:43:23.13</time>
      </trkpt>
      <trkpt lat="42.53726" lon="2.05784">
        <ele>1766.3677156923</ele>
        <time>2000-05-11T12:43:24.13</time>
      </trkpt>
      <trkpt lat="42.53727" lon="2.05783">
        <ele>1767.0071453853</ele>
        <time>2000-05-11T12:43:25.13</time>
      </trkpt>
      <trkpt lat="42.53727" lon="2.05782">
        <ele>1767.9147094769</ele>
        <time>2000-05-11T12:43:26.13</time>
      </trkpt>
      <trkpt lat="42.53727" lon="2.05781">
        <ele>1767.7505006777</ele>
        <time>2000-05-11T12:43:27.13</time>
      </trkpt>
      <trkpt lat="42.53726" lon="2.0578">
        <ele>1766.6490705607</ele>
        <time>2000-05-11T12:43:28.13</time>
      </trkpt>
      <trkpt lat="42.53726" lon="2.05778">
        <ele>1766.0924684299</ele>
        <time>2000-05-11T12:43:29.13</time>
      </trkpt>
      <trkpt lat="42.53726" lon="2.05778">
        <ele>1765.5232602512</ele>
        <time>2000-05-11T12:43:30.13</time>
      </trkpt>
      <trkpt lat="42.53726" lon="2.05776">
        <ele>1765.1449143939</ele>
        <time>2000-05-11T12:43:31.7</time>
      </trkpt>
      <trkpt lat="42.53726" lon="2.05776">
        <ele>1765.1693271775</ele>
        <time>2000-05-11T12:43:32.7</time>
      </trkpt>
      <trkpt lat="42.53727" lon="2.05775">
        <ele>1766.1828722104</ele>
        <time>2000-05-11T12:43:33.9</time>
      </trkpt>
      <trkpt lat="42.53728" lon="2.05773">
        <ele>1766.9595094528</ele>
        <time>2000-05-11T12:43:34.9</time>
      </trkpt>
      <trkpt lat="42.53729" lon="2.05772">
        <ele>1767.1738670064</ele>
        <time>2000-05-11T12:43:35.9</time>
      </trkpt>
      <trkpt lat="42.53731" lon="2.05771">
        <ele>1766.6334465275</ele>
        <time>2000-05-11T12:43:36.9</time>
      </trkpt>
      <trkpt lat="42.53731" lon="2.0577">
        <ele>1765.6019191932</ele>
        <time>2000-05-11T12:43:37.9</time>
      </trkpt>
      <trkpt lat="42.5373" lon="2.05769">
        <ele>1763.824605578</ele>
        <time>2000-05-11T12:43:38.9</time>
      </trkpt>
      <trkpt lat="42.5373" lon="2.05767">
        <ele>1761.8547910828</ele>
        <time>2000-05-11T12:43:39.9</time>
      </trkpt>
      <trkpt lat="42.53729" lon="2.05765">
        <ele>1759.7871481301</ele>
        <time>2000-05-11T12:43:40.9</time>
      </trkpt>
      <trkpt lat="42.53729" lon="2.05764">
        <ele>1757.5551694954</ele>
        <time>2000-05-11T12:43:41.9</time>
      </trkpt>
      <trkpt lat="42.53728" lon="2.05762">
        <ele>1755.0014717769</ele>
        <time>2000-05-11T12:43:42.9</time>
      </trkpt>
      <trkpt lat="42.53728" lon="2.0576">
        <ele>1753.3806269761</ele>
        <time>2000-05-11T12:43:43.9</time>
      </trkpt>
      <trkpt lat="42.53728" lon="2.05759">
        <ele>1751.6826591238</ele>
        <time>2000-05-11T12:43:44.9</time>
      </trkpt>
      <trkpt lat="42.53728" lon="2.05759">
        <ele>1750.6447994178</ele>
        <time>2000-05-11T12:43:45.9</time>
      </trkpt>
      <trkpt lat="42.53727" lon="2.05758">
        <ele>1750.1000341762</ele>
        <time>2000-05-11T12:43:46.9</time>
      </trkpt>
      <trkpt lat="42.53728" lon="2.05757">
        <ele>1750.2375858581</ele>
        <time>2000-05-11T12:43:47.9</time>
      </trkpt>
      <trkpt lat="42.53728" lon="2.05755">
        <ele>1750.2473276705</ele>
        <time>2000-05-11T12:43:48.9</time>
      </trkpt>
      <trkpt lat="42.53729" lon="2.05754">
        <ele>1750.6299291138</ele>
        <time>2000-05-11T12:43:49.9</time>
      </trkpt>
      <trkpt lat="42.53729" lon="2.05753">
        <ele>1751.2984665848</ele>
        <time>2000-05-11T12:43:50.9</time>
      </trkpt>
      <trkpt lat="42.5373" lon="2.05753">
        <ele>1751.9399264736</ele>
        <time>2000-05-11T12:43:51.9</time>
      </trkpt>
      <trkpt lat="42.5373" lon="2.05753">
        <ele>1752.7118953779</ele>
        <time>2000-05-11T12:43:52.9</time>
      </trkpt>
      <trkpt lat="42.53729" lon="2.05751">
        <ele>1752.8466511941</ele>
        <time>2000-05-11T12:43:53.7</time>
      </trkpt>
      <trkpt lat="42.53728" lon="2.0575">
        <ele>1752.1625969822</ele>
        <time>2000-05-11T12:43:54.7</time>
      </trkpt>
      <trkpt lat="42.53728" lon="2.05749">
        <ele>1751.0810482848</ele>
        <time>2000-05-11T12:43:55.7</time>
      </trkpt>
      <trkpt lat="42.5373" lon="2.05748">
        <ele>1750.4049612103</ele>
        <time>2000-05-11T12:43:56.7</time>
      </trkpt>
      <trkpt lat="42.53729" lon="2.05746">
        <ele>1749.2796366548</ele>
        <time>2000-05-11T12:43:57.7</time>
      </trkpt>
      <trkpt lat="42.5373" lon="2.05745">
        <ele>1748.3442002699</ele>
        <time>2000-05-11T12:43:58.7</time>
      </trkpt>
      <trkpt lat="42.5373" lon="2.05743">
        <ele>1748.2375794372</ele>
        <time>2000-05-11T12:43:59.7</time>
      </trkpt>
      <trkpt lat="42.53731" lon="2.05741">
        <ele>1748.2989252718</ele>
        <time>2000-05-11T12:44:00.7</time>
      </trkpt>
      <trkpt lat="42.53732" lon="2.0574">
        <ele>1747.8096633608</ele>
        <time>2000-05-11T12:44:01.7</time>
      </trkpt>
      <trkpt lat="42.53733" lon="2.05738">
        <ele>1748.4674276575</ele>
        <time>2000-05-11T12:44:02.7</time>
      </trkpt>
      <trkpt lat="42.53734" lon="2.05736">
        <ele>1749.974731322</ele>
        <time>2000-05-11T12:44:03.7</time>
      </trkpt>
      <trkpt lat="42.53735" lon="2.05735">
        <ele>1751.5140427882</ele>
        <time>2000-05-11T12:44:04.7</time>
      </trkpt>
      <trkpt lat="42.53734" lon="2.05734">
        <ele>1752.6893572776</ele>
        <time>2000-05-11T12:44:05.7</time>
      </trkpt>
      <trkpt lat="42.53733" lon="2.05734">
        <ele>1753.877388192</ele>
        <time>2000-05-11T12:44:06.7</time>
      </trkpt>
      <trkpt lat="42.53733" lon="2.05734">
        <ele>1754.3676303795</ele>
        <time>2000-05-11T12:44:07.7</time>
      </trkpt>
      <trkpt lat="42.53733" lon="2.05734">
        <ele>1754.2019732693</ele>
        <time>2000-05-11T12:44:08.7</time>
      </trkpt>
      <trkpt lat="42.53732" lon="2.05731">
        <ele>1753.5100245481</ele>
        <time>2000-05-11T12:44:09.8</time>
      </trkpt>
      <trkpt lat="42.53732" lon="2.0573">
        <ele>1753.1256688686</ele>
        <time>2000-05-11T12:44:10.8</time>
      </trkpt>
      <trkpt lat="42.53733" lon="2.05728">
        <ele>1753.1725015363</ele>
        <time>2000-05-11T12:44:11.8</time>
      </trkpt>
      <trkpt lat="42.53733" lon="2.05726">
        <ele>1753.8303658742</ele>
        <time>2000-05-11T12:44:12.8</time>
      </trkpt>
      <trkpt lat="42.53734" lon="2.05724">
        <ele>1754.8662043985</ele>
        <time>2000-05-11T12:44:13.8</time>
      </trkpt>
      <trkpt lat="42.53734" lon="2.05723">
        <ele>1755.8798111089</ele>
        <time>2000-05-11T12:44:14.8</time>
      </trkpt>
      <trkpt lat="42.53734" lon="2.05722">
        <ele>1756.2584083807</ele>
        <time>2000-05-11T12:44:15.8</time>
      </trkpt>
      <trkpt lat="42.53734" lon="2.0572">
        <ele>1756.3007511007</ele>
        <time>2000-05-11T12:44:16.8</time>
      </trkpt>
      <trkpt lat="42.53735" lon="2.05718">
        <ele>1756.1116584418</ele>
        <time>2000-05-11T12:44:17.8</time>
      </trkpt>
      <trkpt lat="42.53735" lon="2.05715">
        <ele>1756.2515285036</ele>
        <time>2000-05-11T12:44:18.8</time>
      </trkpt>
      <trkpt lat="42.53735" lon="2.05714">
        <ele>1756.6939280441</ele>
        <time>2000-05-11T12:44:19.8</time>
      </trkpt>
      <trkpt lat="42.53735" lon="2.05713">
        <ele>1757.5158729756</ele>
        <time>2000-05-11T12:44:20.8</time>
      </trkpt>
      <trkpt lat="42.53734" lon="2.05713">
        <ele>1758.1956953313</ele>
        <time>2000-05-11T12:44:21.8</time>
      </trkpt>
      <trkpt lat="42.53735" lon="2.05712">
        <ele>1758.4440907037</ele>
        <time>2000-05-11T12:44:22.8</time>
      </trkpt>
      <trkpt lat="42.53737" lon="2.0571">
        <ele>1758.0253447909</ele>
        <time>2000-05-11T12:44:23.8</time>
      </trkpt>
      <trkpt lat="42.53737" lon="2.05709">
        <ele>1757.5436014488</ele>
        <time>2000-05-11T12:44:24.8</time>
      </trkpt>
      <trkpt lat="42.53738" lon="2.05707">
        <ele>1757.4804811085</ele>
        <time>2000-05-11T12:44:25.8</time>
      </trkpt>
      <trkpt lat="42.53739" lon="2.05706">
        <ele>1757.5996570645</ele>
        <time>2000-05-11T12:44:26.8</time>
      </trkpt>
      <trkpt lat="42.53739" lon="2.05706">
        <ele>1757.4255554281</ele>
        <time>2000-05-11T12:44:27.8</time>
      </trkpt>
      <trkpt lat="42.53739" lon="2.05705">
        <ele>1757.4484884089</ele>
        <time>2000-05-11T12:44:28.8</time>
      </trkpt>
      <trkpt lat="42.53739" lon="2.05704">
        <ele>1757.7845955305</ele>
        <time>2000-05-11T12:44:29.8</time>
      </trkpt>
      <trkpt lat="42.53739" lon="2.05702">
        <ele>1758.5401026767</ele>
        <time>2000-05-11T12:44:30.8</time>
      </trkpt>
      <trkpt lat="42.53739" lon="2.05701">
        <ele>1759.9186329396</ele>
        <time>2000-05-11T12:44:31.8</time>
      </trkpt>
      <trkpt lat="42.53741" lon="2.05698">
        <ele>1762.1802522004</ele>
        <time>2000-05-11T12:44:32.8</time>
      </trkpt>
      <trkpt lat="42.53741" lon="2.05697">
        <ele>1764.0895819161</ele>
        <time>2000-05-11T12:44:33.8</time>
      </trkpt>
      <trkpt lat="42.53741" lon="2.05696">
        <ele>1765.6789004574</ele>
        <time>2000-05-11T12:44:34.8</time>
      </trkpt>
      <trkpt lat="42.5374" lon="2.05694">
        <ele>1766.4501815561</ele>
        <time>2000-05-11T12:44:35.8</time>
      </trkpt>
      <trkpt lat="42.5374" lon="2.05694">
        <ele>1766.5898618326</ele>
        <time>2000-05-11T12:44:36.8</time>
      </trkpt>
      <trkpt lat="42.5374" lon="2.05693">
        <ele>1766.0299400771</ele>
        <time>2000-05-11T12:44:37.7</time>
      </trkpt>
      <trkpt lat="42.53739" lon="2.05692">
        <ele>1765.238132539</ele>
        <time>2000-05-11T12:44:38.7</time>
      </trkpt>
      <trkpt lat="42.53738" lon="2.05691">
        <ele>1764.4488198632</ele>
        <time>2000-05-11T12:44:39.7</time>
      </trkpt>
      <trkpt lat="42.53738" lon="2.05689">
        <ele>1763.8631536761</ele>
        <time>2000-05-11T12:44:40.7</time>
      </trkpt>
      <trkpt lat="42.53738" lon="2.05688">
        <ele>1763.1710800013</ele>
        <time>2000-05-11T12:44:41.7</time>
      </trkpt>
      <trkpt lat="42.53739" lon="2.05687">
        <ele>1762.6945144927</ele>
        <time>2000-05-11T12:44:42.7</time>
      </trkpt>
      <trkpt lat="42.53739" lon="2.05685">
        <ele>1763.0544896422</ele>
        <time>2000-05-11T12:44:43.7</time>
      </trkpt>
      <trkpt lat="42.53741" lon="2.05684">
        <ele>1764.2591019001</ele>
        <time>2000-05-11T12:44:44.7</time>
      </trkpt>
      <trkpt lat="42.53741" lon="2.05684">
        <ele>1765.6048864953</ele>
        <time>2000-05-11T12:44:45.7</time>
      </trkpt>
      <trkpt lat="42.53741" lon="2.05684">
        <ele>1767.0570785783</ele>
        <time>2000-05-11T12:44:46.7</time>
      </trkpt>
      <trkpt lat="42.53742" lon="2.05683">
        <ele>1768.6382955328</ele>
        <time>2000-05-11T12:44:47.6</time>
      </trkpt>
      <trkpt lat="42.53742" lon="2.05681">
        <ele>1769.3734378994</ele>
        <time>2000-05-11T12:44:48.6</time>
      </trkpt>
      <trkpt lat="42.53742" lon="2.0568">
        <ele>1768.8631639592</ele>
        <time>2000-05-11T12:44:49.5</time>
      </trkpt>
      <trkpt lat="42.53741" lon="2.05678">
        <ele>1767.6558132917</ele>
        <time>2000-05-11T12:44:50.5</time>
      </trkpt>
      <trkpt lat="42.53742" lon="2.05677">
        <ele>1766.2678622775</ele>
        <time>2000-05-11T12:44:51.5</time>
      </trkpt>
      <trkpt lat="42.53742" lon="2.05676">
        <ele>1764.518448432</ele>
        <time>2000-05-11T12:44:52.5</time>
      </trkpt>
      <trkpt lat="42.53742" lon="2.05675">
        <ele>1762.9520835441</ele>
        <time>2000-05-11T12:44:53.5</time>
      </trkpt>
      <trkpt lat="42.53743" lon="2.05674">
        <ele>1761.6779518049</ele>
        <time>2000-05-11T12:44:54.5</time>
      </trkpt>
      <trkpt lat="42.53743" lon="2.05673">
        <ele>1760.7120994838</ele>
        <time>2000-05-11T12:44:55.5</time>
      </trkpt>
      <trkpt lat="42.53744" lon="2.05672">
        <ele>1760.4244540917</ele>
        <time>2000-05-11T12:44:56.5</time>
      </trkpt>
      <trkpt lat="42.53744" lon="2.05671">
        <ele>1760.0389414752</ele>
        <time>2000-05-11T12:44:57.5</time>
      </trkpt>
      <trkpt lat="42.53744" lon="2.0567">
        <ele>1759.8258110486</ele>
        <time>2000-05-11T12:44:58.5</time>
      </trkpt>
      <trkpt lat="42.53745" lon="2.05668">
        <ele>1759.3544599252</ele>
        <time>2000-05-11T12:44:59.5</time>
      </trkpt>
      <trkpt lat="42.53745" lon="2.05667">
        <ele>1759.2293578848</ele>
        <time>2000-05-11T12:45:00.5</time>
      </trkpt>
      <trkpt lat="42.53745" lon="2.05665">
        <ele>1758.87984355</ele>
        <time>2000-05-11T12:45:01.5</time>
      </trkpt>
      <trkpt lat="42.53746" lon="2.05663">
        <ele>1758.9405873327</ele>
        <time>2000-05-11T12:45:02.5</time>
      </trkpt>
      <trkpt lat="42.53746" lon="2.05663">
        <ele>1759.5350611383</ele>
        <time>2000-05-11T12:45:03.5</time>
      </trkpt>
      <trkpt lat="42.53746" lon="2.05662">
        <ele>1760.3948684921</ele>
        <time>2000-05-11T12:45:04.5</time>
      </trkpt>
      <trkpt lat="42.53747" lon="2.0566">
        <ele>1761.0585264198</ele>
        <time>2000-05-11T12:45:05.5</time>
      </trkpt>
      <trkpt lat="42.53747" lon="2.05659">
        <ele>1761.1211838739</ele>
        <time>2000-05-11T12:45:06.5</time>
      </trkpt>
      <trkpt lat="42.53748" lon="2.05657">
        <ele>1761.6907266019</ele>
        <time>2000-05-11T12:45:07.5</time>
      </trkpt>
      <trkpt lat="42.53747" lon="2.05655">
        <ele>1761.6880884442</ele>
        <time>2000-05-11T12:45:08.5</time>
      </trkpt>
      <trkpt lat="42.53748" lon="2.05654">
        <ele>1762.3081394631</ele>
        <time>2000-05-11T12:45:09.5</time>
      </trkpt>
      <trkpt lat="42.53748" lon="2.05653">
        <ele>1763.2573060848</ele>
        <time>2000-05-11T12:45:10.5</time>
      </trkpt>
      <trkpt lat="42.53748" lon="2.05653">
        <ele>1764.5342788922</ele>
        <time>2000-05-11T12:45:11.5</time>
      </trkpt>
      <trkpt lat="42.53749" lon="2.05652">
        <ele>1765.20563046</ele>
        <time>2000-05-11T12:45:12.5</time>
      </trkpt>
      <trkpt lat="42.5375" lon="2.05651">
        <ele>1766.0979339672</ele>
        <time>2000-05-11T12:45:13.5</time>
      </trkpt>
      <trkpt lat="42.53752" lon="2.0565">
        <ele>1766.3988245562</ele>
        <time>2000-05-11T12:45:14.5</time>
      </trkpt>
      <trkpt lat="42.53754" lon="2.05651">
        <ele>1766.6802027095</ele>
        <time>2000-05-11T12:45:15.5</time>
      </trkpt>
      <trkpt lat="42.53755" lon="2.05651">
        <ele>1767.4760226972</ele>
        <time>2000-05-11T12:45:16.5</time>
      </trkpt>
      <trkpt lat="42.53755" lon="2.0565">
        <ele>1768.0309666621</ele>
        <time>2000-05-11T12:45:17.5</time>
      </trkpt>
      <trkpt lat="42.53756" lon="2.05649">
        <ele>1768.6005668173</ele>
        <time>2000-05-11T12:45:18.5</time>
      </trkpt>
      <trkpt lat="42.53757" lon="2.05647">
        <ele>1769.004774051</ele>
        <time>2000-05-11T12:45:19.5</time>
      </trkpt>
      <trkpt lat="42.53757" lon="2.05646">
        <ele>1769.2163414115</ele>
        <time>2000-05-11T12:45:20.5</time>
      </trkpt>
      <trkpt lat="42.53757" lon="2.05646">
        <ele>1768.9134669377</ele>
        <time>2000-05-11T12:45:21.5</time>
      </trkpt>
      <trkpt lat="42.53759" lon="2.05646">
        <ele>1768.5627010196</ele>
        <time>2000-05-11T12:45:22.5</time>
      </trkpt>
      <trkpt lat="42.5376" lon="2.05646">
        <ele>1767.6749541229</ele>
        <time>2000-05-11T12:45:23.5</time>
      </trkpt>
      <trkpt lat="42.5376" lon="2.05645">
        <ele>1766.2221396258</ele>
        <time>2000-05-11T12:45:24.5</time>
      </trkpt>
      <trkpt lat="42.53761" lon="2.05644">
        <ele>1764.9410168881</ele>
        <time>2000-05-11T12:45:25.2</time>
      </trkpt>
      <trkpt lat="42.53762" lon="2.05644">
        <ele>1763.8664223893</ele>
        <time>2000-05-11T12:45:26.2</time>
      </trkpt>
      <trkpt lat="42.53764" lon="2.05644">
        <ele>1763.2974278098</ele>
        <time>2000-05-11T12:45:27.2</time>
      </trkpt>
      <trkpt lat="42.53764" lon="2.05643">
        <ele>1763.1929282444</ele>
        <time>2000-05-11T12:45:28.2</time>
      </trkpt>
      <trkpt lat="42.53765" lon="2.05642">
        <ele>1763.6734157009</ele>
        <time>2000-05-11T12:45:29.2</time>
      </trkpt>
      <trkpt lat="42.53765" lon="2.05642">
        <ele>1763.9946011199</ele>
        <time>2000-05-11T12:45:30.2</time>
      </trkpt>
      <trkpt lat="42.53766" lon="2.05641">
        <ele>1763.9052412197</ele>
        <time>2000-05-11T12:45:31.1</time>
      </trkpt>
      <trkpt lat="42.53766" lon="2.05641">
        <ele>1763.5639450517</ele>
        <time>2000-05-11T12:45:32.1</time>
      </trkpt>
      <trkpt lat="42.53768" lon="2.05641">
        <ele>1763.3590115095</ele>
        <time>2000-05-11T12:45:33.2</time>
      </trkpt>
      <trkpt lat="42.53769" lon="2.0564">
        <ele>1763.3166134356</ele>
        <time>2000-05-11T12:45:34.2</time>
      </trkpt>
      <trkpt lat="42.53769" lon="2.05639">
        <ele>1763.1768165415</ele>
        <time>2000-05-11T12:45:35.2</time>
      </trkpt>
      <trkpt lat="42.53769" lon="2.05638">
        <ele>1763.2230074542</ele>
        <time>2000-05-11T12:45:36.2</time>
      </trkpt>
      <trkpt lat="42.5377" lon="2.05637">
        <ele>1763.4756199284</ele>
        <time>2000-05-11T12:45:37.2</time>
      </trkpt>
      <trkpt lat="42.53771" lon="2.05636">
        <ele>1763.4854550788</ele>
        <time>2000-05-11T12:45:38.2</time>
      </trkpt>
      <trkpt lat="42.53772" lon="2.05635">
        <ele>1763.8163946236</ele>
        <time>2000-05-11T12:45:39.2</time>
      </trkpt>
      <trkpt lat="42.53773" lon="2.05634">
        <ele>1764.5506362507</ele>
        <time>2000-05-11T12:45:40.2</time>
      </trkpt>
      <trkpt lat="42.53773" lon="2.05632">
        <ele>1765.3285500361</ele>
        <time>2000-05-11T12:45:41.2</time>
      </trkpt>
      <trkpt lat="42.53773" lon="2.05631">
        <ele>1765.6974699017</ele>
        <time>2000-05-11T12:45:42.2</time>
      </trkpt>
      <trkpt lat="42.53773" lon="2.0563">
        <ele>1765.6213677352</ele>
        <time>2000-05-11T12:45:43.2</time>
      </trkpt>
      <trkpt lat="42.53774" lon="2.05629">
        <ele>1765.2171609938</ele>
        <time>2000-05-11T12:45:44.2</time>
      </trkpt>
      <trkpt lat="42.53775" lon="2.05629">
        <ele>1764.3317004347</ele>
        <time>2000-05-11T12:45:45.2</time>
      </trkpt>
      <trkpt lat="42.53776" lon="2.05628">
        <ele>1763.2539611559</ele>
        <time>2000-05-11T12:45:46.2</time>
      </trkpt>
      <trkpt lat="42.53777" lon="2.05628">
        <ele>1762.3678308405</ele>
        <time>2000-05-11T12:45:47.3</time>
      </trkpt>
      <trkpt lat="42.53779" lon="2.05627">
        <ele>1761.8664961124</ele>
        <time>2000-05-11T12:45:48.3</time>
      </trkpt>
      <trkpt lat="42.53781" lon="2.05626">
        <ele>1761.6396331932</ele>
        <time>2000-05-11T12:45:49.3</time>
      </trkpt>
      <trkpt lat="42.53782" lon="2.05625">
        <ele>1761.9582275365</ele>
        <time>2000-05-11T12:45:50.3</time>
      </trkpt>
      <trkpt lat="42.53783" lon="2.05624">
        <ele>1762.26416605</ele>
        <time>2000-05-11T12:45:51.3</time>
      </trkpt>
      <trkpt lat="42.53784" lon="2.05624">
        <ele>1762.5865800085</ele>
        <time>2000-05-11T12:45:52.3</time>
      </trkpt>
      <trkpt lat="42.53784" lon="2.05623">
        <ele>1763.1659245037</ele>
        <time>2000-05-11T12:45:53.3</time>
      </trkpt>
      <trkpt lat="42.53785" lon="2.05622">
        <ele>1763.6939780481</ele>
        <time>2000-05-11T12:45:54.3</time>
      </trkpt>
      <trkpt lat="42.53785" lon="2.05622">
        <ele>1763.8519248856</ele>
        <time>2000-05-11T12:45:55.3</time>
      </trkpt>
      <trkpt lat="42.53786" lon="2.05621">
        <ele>1764.1791565794</ele>
        <time>2000-05-11T12:45:56.3</time>
      </trkpt>
      <trkpt lat="42.53787" lon="2.0562">
        <ele>1764.6083349392</ele>
        <time>2000-05-11T12:45:57.3</time>
      </trkpt>
      <trkpt lat="42.53787" lon="2.0562">
        <ele>1764.8240004735</ele>
        <time>2000-05-11T12:45:58.3</time>
      </trkpt>
      <trkpt lat="42.53788" lon="2.05619">
        <ele>1764.954092684</ele>
        <time>2000-05-11T12:45:59.3</time>
      </trkpt>
      <trkpt lat="42.53788" lon="2.05618">
        <ele>1765.295416656</ele>
        <time>2000-05-11T12:46:00.3</time>
      </trkpt>
      <trkpt lat="42.53789" lon="2.05616">
        <ele>1765.6870691791</ele>
        <time>2000-05-11T12:46:01.3</time>
      </trkpt>
      <trkpt lat="42.5379" lon="2.05615">
        <ele>1766.0316698611</ele>
        <time>2000-05-11T12:46:02.4</time>
      </trkpt>
      <trkpt lat="42.5379" lon="2.05615">
        <ele>1766.376270543</ele>
        <time>2000-05-11T12:46:03.4</time>
      </trkpt>
      <trkpt lat="42.53792" lon="2.05616">
        <ele>1767.6151972124</ele>
        <time>2000-05-11T12:46:04</time>
      </trkpt>
      <trkpt lat="42.53793" lon="2.05615">
        <ele>1768.9473100489</ele>
        <time>2000-05-11T12:46:05</time>
      </trkpt>
      <trkpt lat="42.53794" lon="2.05612">
        <ele>1770.2061421184</ele>
        <time>2000-05-11T12:46:06</time>
      </trkpt>
      <trkpt lat="42.53795" lon="2.0561">
        <ele>1771.6260646878</ele>
        <time>2000-05-11T12:46:07</time>
      </trkpt>
      <trkpt lat="42.53796" lon="2.05609">
        <ele>1772.9932417804</ele>
        <time>2000-05-11T12:46:08</time>
      </trkpt>
      <trkpt lat="42.53796" lon="2.05609">
        <ele>1773.4334525827</ele>
        <time>2000-05-11T12:46:09</time>
      </trkpt>
      <trkpt lat="42.53797" lon="2.05609">
        <ele>1773.7710224073</ele>
        <time>2000-05-11T12:46:10</time>
      </trkpt>
      <trkpt lat="42.53797" lon="2.05609">
        <ele>1774.141551256</ele>
        <time>2000-05-11T12:46:11</time>
      </trkpt>
      <trkpt lat="42.53798" lon="2.05608">
        <ele>1774.575735499</ele>
        <time>2000-05-11T12:46:12</time>
      </trkpt>
      <trkpt lat="42.53799" lon="2.05608">
        <ele>1775.3786020607</ele>
        <time>2000-05-11T12:46:13</time>
      </trkpt>
      <trkpt lat="42.538" lon="2.05608">
        <ele>1776.414988458</ele>
        <time>2000-05-11T12:46:14</time>
      </trkpt>
      <trkpt lat="42.53801" lon="2.05608">
        <ele>1777.4372791313</ele>
        <time>2000-05-11T12:46:15</time>
      </trkpt>
      <trkpt lat="42.53803" lon="2.05608">
        <ele>1778.6456808126</ele>
        <time>2000-05-11T12:46:16</time>
      </trkpt>
      <trkpt lat="42.53804" lon="2.05607">
        <ele>1779.9909904581</ele>
        <time>2000-05-11T12:46:17</time>
      </trkpt>
      <trkpt lat="42.53804" lon="2.05607">
        <ele>1780.8823420107</ele>
        <time>2000-05-11T12:46:18</time>
      </trkpt>
      <trkpt lat="42.53804" lon="2.05607">
        <ele>1781.5401737278</ele>
        <time>2000-05-11T12:46:19</time>
      </trkpt>
      <trkpt lat="42.53805" lon="2.05606">
        <ele>1781.7248936061</ele>
        <time>2000-05-11T12:46:20</time>
      </trkpt>
      <trkpt lat="42.53806" lon="2.05606">
        <ele>1781.6006279526</ele>
        <time>2000-05-11T12:46:21</time>
      </trkpt>
      <trkpt lat="42.53808" lon="2.05606">
        <ele>1780.9728916859</ele>
        <time>2000-05-11T12:46:22</time>
      </trkpt>
      <trkpt lat="42.53809" lon="2.05606">
        <ele>1780.0963545136</ele>
        <time>2000-05-11T12:46:23</time>
      </trkpt>
      <trkpt lat="42.53811" lon="2.05605">
        <ele>1779.3137424793</ele>
        <time>2000-05-11T12:46:24</time>
      </trkpt>
      <trkpt lat="42.53812" lon="2.05604">
        <ele>1778.7034835715</ele>
        <time>2000-05-11T12:46:25</time>
      </trkpt>
      <trkpt lat="42.53813" lon="2.05604">
        <ele>1777.9520883309</ele>
        <time>2000-05-11T12:46:26</time>
      </trkpt>
      <trkpt lat="42.53813" lon="2.05602">
        <ele>1777.5901102833</ele>
        <time>2000-05-11T12:46:27</time>
      </trkpt>
      <trkpt lat="42.53813" lon="2.05601">
        <ele>1777.6689796938</ele>
        <time>2000-05-11T12:46:28</time>
      </trkpt>
      <trkpt lat="42.53814" lon="2.056">
        <ele>1777.3167235365</ele>
        <time>2000-05-11T12:46:29</time>
      </trkpt>
      <trkpt lat="42.53815" lon="2.05599">
        <ele>1777.081695082</ele>
        <time>2000-05-11T12:46:30</time>
      </trkpt>
      <trkpt lat="42.53816" lon="2.05599">
        <ele>1777.1981004642</ele>
        <time>2000-05-11T12:46:31</time>
      </trkpt>
      <trkpt lat="42.53817" lon="2.05599">
        <ele>1776.7221048824</ele>
        <time>2000-05-11T12:46:32</time>
      </trkpt>
      <trkpt lat="42.53817" lon="2.05599">
        <ele>1776.1920839991</ele>
        <time>2000-05-11T12:46:33</time>
      </trkpt>
      <trkpt lat="42.53819" lon="2.05598">
        <ele>1775.4936334059</ele>
        <time>2000-05-11T12:46:34.1</time>
      </trkpt>
      <trkpt lat="42.53819" lon="2.05598">
        <ele>1774.5589254206</ele>
        <time>2000-05-11T12:46:35.1</time>
      </trkpt>
      <trkpt lat="42.5382" lon="2.05597">
        <ele>1773.6408336617</ele>
        <time>2000-05-11T12:46:36.1</time>
      </trkpt>
      <trkpt lat="42.53821" lon="2.05596">
        <ele>1772.7987493198</ele>
        <time>2000-05-11T12:46:37.1</time>
      </trkpt>
      <trkpt lat="42.53822" lon="2.05596">
        <ele>1772.1524434512</ele>
        <time>2000-05-11T12:46:38.1</time>
      </trkpt>
      <trkpt lat="42.53822" lon="2.05596">
        <ele>1772.0117677223</ele>
        <time>2000-05-11T12:46:39.1</time>
      </trkpt>
      <trkpt lat="42.53823" lon="2.05596">
        <ele>1772.1624272306</ele>
        <time>2000-05-11T12:46:40.3</time>
      </trkpt>
      <trkpt lat="42.53824" lon="2.05595">
        <ele>1771.9937294316</ele>
        <time>2000-05-11T12:46:41.3</time>
      </trkpt>
      <trkpt lat="42.53825" lon="2.05594">
        <ele>1771.6438920872</ele>
        <time>2000-05-11T12:46:42.3</time>
      </trkpt>
      <trkpt lat="42.53827" lon="2.05594">
        <ele>1771.2978746254</ele>
        <time>2000-05-11T12:46:43.3</time>
      </trkpt>
      <trkpt lat="42.53828" lon="2.05594">
        <ele>1771.4387698933</ele>
        <time>2000-05-11T12:46:44.3</time>
      </trkpt>
      <trkpt lat="42.53829" lon="2.05594">
        <ele>1771.5524001753</ele>
        <time>2000-05-11T12:46:45.3</time>
      </trkpt>
      <trkpt lat="42.53829" lon="2.05594">
        <ele>1771.881348558</ele>
        <time>2000-05-11T12:46:46.3</time>
      </trkpt>
      <trkpt lat="42.53829" lon="2.05594">
        <ele>1772.59982272</ele>
        <time>2000-05-11T12:46:47.3</time>
      </trkpt>
      <trkpt lat="42.5383" lon="2.05593">
        <ele>1773.2467217924</ele>
        <time>2000-05-11T12:46:47.999</time>
      </trkpt>
      <trkpt lat="42.5383" lon="2.05593">
        <ele>1773.4067081351</ele>
        <time>2000-05-11T12:46:48.999</time>
      </trkpt>
      <trkpt lat="42.53832" lon="2.05591">
        <ele>1773.7820134779</ele>
        <time>2000-05-11T12:46:49.999</time>
      </trkpt>
      <trkpt lat="42.53834" lon="2.05591">
        <ele>1774.0661929745</ele>
        <time>2000-05-11T12:46:50.999</time>
      </trkpt>
      <trkpt lat="42.53834" lon="2.05591">
        <ele>1774.3503724711</ele>
        <time>2000-05-11T12:46:51.999</time>
      </trkpt>
      <trkpt lat="42.53834" lon="2.05591">
        <ele>1774.5065287014</ele>
        <time>2000-05-11T12:46:52.999</time>
      </trkpt>
      <trkpt lat="42.53834" lon="2.05591">
        <ele>1774.6626849318</ele>
        <time>2000-05-11T12:46:53.999</time>
      </trkpt>
      <trkpt lat="42.53838" lon="2.05591">
        <ele>1773.803646552</ele>
        <time>2000-05-11T12:46:54.999</time>
      </trkpt>
      <trkpt lat="42.53839" lon="2.05591">
        <ele>1772.757169158</ele>
        <time>2000-05-11T12:46:55.999</time>
      </trkpt>
      <trkpt lat="42.53839" lon="2.05591">
        <ele>1771.710691764</ele>
        <time>2000-05-11T12:46:56.999</time>
      </trkpt>
      <trkpt lat="42.53839" lon="2.05592">
        <ele>1770.7396300351</ele>
        <time>2000-05-11T12:46:57.999</time>
      </trkpt>
      <trkpt lat="42.5384" lon="2.05593">
        <ele>1770.5496627862</ele>
        <time>2000-05-11T12:46:58.999</time>
      </trkpt>
      <trkpt lat="42.5384" lon="2.05593">
        <ele>1771.1276080707</ele>
        <time>2000-05-11T12:46:59.999</time>
      </trkpt>
      <trkpt lat="42.5384" lon="2.05594">
        <ele>1771.9700286992</ele>
        <time>2000-05-11T12:47:00.999</time>
      </trkpt>
      <trkpt lat="42.5384" lon="2.05597">
        <ele>1772.5757420786</ele>
        <time>2000-05-11T12:47:01.999</time>
      </trkpt>
      <trkpt lat="42.5384" lon="2.05599">
        <ele>1773.6365574883</ele>
        <time>2000-05-11T12:47:02.999</time>
      </trkpt>
      <trkpt lat="42.5384" lon="2.05599">
        <ele>1773.9162784182</ele>
        <time>2000-05-11T12:47:03.999</time>
      </trkpt>
      <trkpt lat="42.5384" lon="2.05599">
        <ele>1774.195999348</ele>
        <time>2000-05-11T12:47:04.999</time>
      </trkpt>
      <trkpt lat="42.5384" lon="2.05599">
        <ele>1774.4898097944</ele>
        <time>2000-05-11T12:47:05.999</time>
      </trkpt>
      <trkpt lat="42.53841" lon="2.05599">
        <ele>1775.0215521635</ele>
        <time>2000-05-11T12:47:06.999</time>
      </trkpt>
      <trkpt lat="42.53842" lon="2.05599">
        <ele>1775.0777891746</ele>
        <time>2000-05-11T12:47:07.999</time>
      </trkpt>
      <trkpt lat="42.53844" lon="2.05598">
        <ele>1774.7785327617</ele>
        <time>2000-05-11T12:47:08.998</time>
      </trkpt>
      <trkpt lat="42.53845" lon="2.05599">
        <ele>1774.1680035982</ele>
        <time>2000-05-11T12:47:09.998</time>
      </trkpt>
      <trkpt lat="42.53847" lon="2.05598">
        <ele>1773.3714255683</ele>
        <time>2000-05-11T12:47:10.998</time>
      </trkpt>
      <trkpt lat="42.53847" lon="2.05598">
        <ele>1772.5736228647</ele>
        <time>2000-05-11T12:47:11.998</time>
      </trkpt>
      <trkpt lat="42.53848" lon="2.05596">
        <ele>1772.0070416098</ele>
        <time>2000-05-11T12:47:12.998</time>
      </trkpt>
      <trkpt lat="42.5385" lon="2.05594">
        <ele>1771.50663973</ele>
        <time>2000-05-11T12:47:13.998</time>
      </trkpt>
      <trkpt lat="42.53851" lon="2.05594">
        <ele>1771.4114960903</ele>
        <time>2000-05-11T12:47:14.998</time>
      </trkpt>
      <trkpt lat="42.53852" lon="2.05593">
        <ele>1771.5616379024</ele>
        <time>2000-05-11T12:47:15.998</time>
      </trkpt>
      <trkpt lat="42.53852" lon="2.05591">
        <ele>1771.6086996896</ele>
        <time>2000-05-11T12:47:16.998</time>
      </trkpt>
      <trkpt lat="42.53854" lon="2.05589">
        <ele>1770.9789950915</ele>
        <time>2000-05-11T12:47:17.998</time>
      </trkpt>
      <trkpt lat="42.53854" lon="2.05589">
        <ele>1770.2720220033</ele>
        <time>2000-05-11T12:47:18.998</time>
      </trkpt>
      <trkpt lat="42.53854" lon="2.05589">
        <ele>1769.4710634256</ele>
        <time>2000-05-11T12:47:19.998</time>
      </trkpt>
      <trkpt lat="42.53855" lon="2.05588">
        <ele>1768.3204675769</ele>
        <time>2000-05-11T12:47:21</time>
      </trkpt>
      <trkpt lat="42.53855" lon="2.05588">
        <ele>1767.2729517533</ele>
        <time>2000-05-11T12:47:22</time>
      </trkpt>
      <trkpt lat="42.53856" lon="2.05589">
        <ele>1766.2626939751</ele>
        <time>2000-05-11T12:47:23</time>
      </trkpt>
      <trkpt lat="42.53856" lon="2.05589">
        <ele>1765.6190187359</ele>
        <time>2000-05-11T12:47:24</time>
      </trkpt>
      <trkpt lat="42.53856" lon="2.0559">
        <ele>1764.606503159</ele>
        <time>2000-05-11T12:47:24.999</time>
      </trkpt>
      <trkpt lat="42.53856" lon="2.0559">
        <ele>1763.8843882676</ele>
        <time>2000-05-11T12:47:25.999</time>
      </trkpt>
      <trkpt lat="42.53857" lon="2.05589">
        <ele>1762.6429757817</ele>
        <time>2000-05-11T12:47:26.999</time>
      </trkpt>
      <trkpt lat="42.53859" lon="2.05588">
        <ele>1761.3716808144</ele>
        <time>2000-05-11T12:47:27.999</time>
      </trkpt>
      <trkpt lat="42.53859" lon="2.05588">
        <ele>1760.1003858471</ele>
        <time>2000-05-11T12:47:28.999</time>
      </trkpt>
      <trkpt lat="42.5386" lon="2.05587">
        <ele>1758.2999832977</ele>
        <time>2000-05-11T12:47:29.999</time>
      </trkpt>
      <trkpt lat="42.53861" lon="2.05587">
        <ele>1756.1975565877</ele>
        <time>2000-05-11T12:47:30.999</time>
      </trkpt>
      <trkpt lat="42.53863" lon="2.05586">
        <ele>1754.4961727379</ele>
        <time>2000-05-11T12:47:31.999</time>
      </trkpt>
      <trkpt lat="42.53863" lon="2.05586">
        <ele>1753.1779459231</ele>
        <time>2000-05-11T12:47:32.999</time>
      </trkpt>
      <trkpt lat="42.53865" lon="2.05586">
        <ele>1752.3579446308</ele>
        <time>2000-05-11T12:47:33.999</time>
      </trkpt>
      <trkpt lat="42.53865" lon="2.05586">
        <ele>1752.4358912585</ele>
        <time>2000-05-11T12:47:34.999</time>
      </trkpt>
      <trkpt lat="42.53866" lon="2.05585">
        <ele>1753.2157563047</ele>
        <time>2000-05-11T12:47:35.999</time>
      </trkpt>
      <trkpt lat="42.53867" lon="2.05585">
        <ele>1754.1519657375</ele>
        <time>2000-05-11T12:47:36.999</time>
      </trkpt>
      <trkpt lat="42.53867" lon="2.05584">
        <ele>1754.9940311193</ele>
        <time>2000-05-11T12:47:37.999</time>
      </trkpt>
      <trkpt lat="42.53868" lon="2.05584">
        <ele>1755.504263895</ele>
        <time>2000-05-11T12:47:38.999</time>
      </trkpt>
      <trkpt lat="42.53868" lon="2.05584">
        <ele>1756.0144966707</ele>
        <time>2000-05-11T12:47:39.999</time>
      </trkpt>
      <trkpt lat="42.53869" lon="2.05583">
        <ele>1755.7828648724</ele>
        <time>2000-05-11T12:47:40.999</time>
      </trkpt>
      <trkpt lat="42.5387" lon="2.05582">
        <ele>1754.9019012565</ele>
        <time>2000-05-11T12:47:41.999</time>
      </trkpt>
      <trkpt lat="42.53871" lon="2.05582">
        <ele>1754.1043732863</ele>
        <time>2000-05-11T12:47:42.999</time>
      </trkpt>
      <trkpt lat="42.53872" lon="2.05582">
        <ele>1753.0153408691</ele>
        <time>2000-05-11T12:47:43.999</time>
      </trkpt>
      <trkpt lat="42.53874" lon="2.05581">
        <ele>1751.7013272375</ele>
        <time>2000-05-11T12:47:44.999</time>
      </trkpt>
      <trkpt lat="42.53875" lon="2.05581">
        <ele>1750.7053696243</ele>
        <time>2000-05-11T12:47:45.999</time>
      </trkpt>
      <trkpt lat="42.53875" lon="2.05581">
        <ele>1750.3206541765</ele>
        <time>2000-05-11T12:47:46.999</time>
      </trkpt>
      <trkpt lat="42.53876" lon="2.05581">
        <ele>1750.1934887996</ele>
        <time>2000-05-11T12:47:47.999</time>
      </trkpt>
      <trkpt lat="42.53877" lon="2.05581">
        <ele>1750.5189350983</ele>
        <time>2000-05-11T12:47:48.999</time>
      </trkpt>
      <trkpt lat="42.53877" lon="2.0558">
        <ele>1750.7407104414</ele>
        <time>2000-05-11T12:47:50.3</time>
      </trkpt>
      <trkpt lat="42.53877" lon="2.0558">
        <ele>1750.986400082</ele>
        <time>2000-05-11T12:47:51.3</time>
      </trkpt>
      <trkpt lat="42.5388" lon="2.05581">
        <ele>1751.2517995745</ele>
        <time>2000-05-11T12:47:52.5</time>
      </trkpt>
      <trkpt lat="42.53881" lon="2.0558">
        <ele>1751.6872410277</ele>
        <time>2000-05-11T12:47:53.5</time>
      </trkpt>
      <trkpt lat="42.53883" lon="2.05579">
        <ele>1751.8894867895</ele>
        <time>2000-05-11T12:47:54.5</time>
      </trkpt>
      <trkpt lat="42.53885" lon="2.05578">
        <ele>1752.4863428188</ele>
        <time>2000-05-11T12:47:55.5</time>
      </trkpt>
      <trkpt lat="42.53887" lon="2.05578">
        <ele>1753.8739162166</ele>
        <time>2000-05-11T12:47:56.5</time>
      </trkpt>
      <trkpt lat="42.53889" lon="2.05577">
        <ele>1755.1696491523</ele>
        <time>2000-05-11T12:47:57.5</time>
      </trkpt>
      <trkpt lat="42.53891" lon="2.05575">
        <ele>1756.057090723</ele>
        <time>2000-05-11T12:47:58.5</time>
      </trkpt>
      <trkpt lat="42.53893" lon="2.05575">
        <ele>1756.9437357802</ele>
        <time>2000-05-11T12:47:59.5</time>
      </trkpt>
      <trkpt lat="42.53894" lon="2.05575">
        <ele>1757.7074841805</ele>
        <time>2000-05-11T12:48:00.5</time>
      </trkpt>
      <trkpt lat="42.53894" lon="2.05575">
        <ele>1757.6805152124</ele>
        <time>2000-05-11T12:48:01.5</time>
      </trkpt>
      <trkpt lat="42.53894" lon="2.05575">
        <ele>1757.7256768543</ele>
        <time>2000-05-11T12:48:02.5</time>
      </trkpt>
      <trkpt lat="42.53894" lon="2.05575">
        <ele>1757.7622462351</ele>
        <time>2000-05-11T12:48:03.5</time>
      </trkpt>
      <trkpt lat="42.53896" lon="2.05572">
        <ele>1758.272940951</ele>
        <time>2000-05-11T12:48:04.5</time>
      </trkpt>
      <trkpt lat="42.53896" lon="2.05571">
        <ele>1758.6760108231</ele>
        <time>2000-05-11T12:48:05.5</time>
      </trkpt>
      <trkpt lat="42.53898" lon="2.0557">
        <ele>1758.7822178971</ele>
        <time>2000-05-11T12:48:06.5</time>
      </trkpt>
      <trkpt lat="42.53899" lon="2.05569">
        <ele>1758.8980446106</ele>
        <time>2000-05-11T12:48:07.5</time>
      </trkpt>
      <trkpt lat="42.539" lon="2.05568">
        <ele>1758.8986661291</ele>
        <time>2000-05-11T12:48:08.5</time>
      </trkpt>
      <trkpt lat="42.539" lon="2.05567">
        <ele>1758.3408223478</ele>
        <time>2000-05-11T12:48:09.5</time>
      </trkpt>
      <trkpt lat="42.53901" lon="2.05565">
        <ele>1757.8290782375</ele>
        <time>2000-05-11T12:48:10.5</time>
      </trkpt>
      <trkpt lat="42.53902" lon="2.05565">
        <ele>1757.4866987672</ele>
        <time>2000-05-11T12:48:11.5</time>
      </trkpt>
      <trkpt lat="42.53902" lon="2.05564">
        <ele>1756.8016987998</ele>
        <time>2000-05-11T12:48:12.5</time>
      </trkpt>
      <trkpt lat="42.53903" lon="2.05564">
        <ele>1756.4154301435</ele>
        <time>2000-05-11T12:48:13.5</time>
      </trkpt>
      <trkpt lat="42.53903" lon="2.05563">
        <ele>1755.9101824356</ele>
        <time>2000-05-11T12:48:14.5</time>
      </trkpt>
      <trkpt lat="42.53905" lon="2.05562">
        <ele>1755.9329674596</ele>
        <time>2000-05-11T12:48:15.7</time>
      </trkpt>
      <trkpt lat="42.53905" lon="2.05561">
        <ele>1756.0600050895</ele>
        <time>2000-05-11T12:48:16.7</time>
      </trkpt>
      <trkpt lat="42.53906" lon="2.0556">
        <ele>1756.7417531963</ele>
        <time>2000-05-11T12:48:17.5</time>
      </trkpt>
      <trkpt lat="42.53906" lon="2.05559">
        <ele>1757.4567311071</ele>
        <time>2000-05-11T12:48:18.5</time>
      </trkpt>
      <trkpt lat="42.53907" lon="2.05558">
        <ele>1758.6264454991</ele>
        <time>2000-05-11T12:48:19.5</time>
      </trkpt>
      <trkpt lat="42.53908" lon="2.05558">
        <ele>1759.5176501328</ele>
        <time>2000-05-11T12:48:20.5</time>
      </trkpt>
      <trkpt lat="42.53909" lon="2.05557">
        <ele>1760.5439021191</ele>
        <time>2000-05-11T12:48:21.5</time>
      </trkpt>
      <trkpt lat="42.53909" lon="2.05557">
        <ele>1761.3484444859</ele>
        <time>2000-05-11T12:48:22.5</time>
      </trkpt>
      <trkpt lat="42.53909" lon="2.05556">
        <ele>1761.8271316422</ele>
        <time>2000-05-11T12:48:23.5</time>
      </trkpt>
      <trkpt lat="42.5391" lon="2.05555">
        <ele>1762.3571022771</ele>
        <time>2000-05-11T12:48:24.5</time>
      </trkpt>
      <trkpt lat="42.5391" lon="2.05554">
        <ele>1762.5986611707</ele>
        <time>2000-05-11T12:48:25.6</time>
      </trkpt>
      <trkpt lat="42.53911" lon="2.05552">
        <ele>1762.4886085948</ele>
        <time>2000-05-11T12:48:26.6</time>
      </trkpt>
      <trkpt lat="42.53912" lon="2.05551">
        <ele>1762.5386953361</ele>
        <time>2000-05-11T12:48:27.6</time>
      </trkpt>
      <trkpt lat="42.53913" lon="2.0555">
        <ele>1762.3786752325</ele>
        <time>2000-05-11T12:48:28.6</time>
      </trkpt>
      <trkpt lat="42.53913" lon="2.05549">
        <ele>1761.6722768888</ele>
        <time>2000-05-11T12:48:29.6</time>
      </trkpt>
      <trkpt lat="42.53913" lon="2.05548">
        <ele>1761.5665883368</ele>
        <time>2000-05-11T12:48:30.6</time>
      </trkpt>
      <trkpt lat="42.53913" lon="2.05548">
        <ele>1761.700709454</ele>
        <time>2000-05-11T12:48:31.6</time>
      </trkpt>
      <trkpt lat="42.53914" lon="2.05547">
        <ele>1761.9963729272</ele>
        <time>2000-05-11T12:48:32.6</time>
      </trkpt>
      <trkpt lat="42.53914" lon="2.05545">
        <ele>1763.0641007835</ele>
        <time>2000-05-11T12:48:33.6</time>
      </trkpt>
      <trkpt lat="42.53915" lon="2.05544">
        <ele>1764.2571477091</ele>
        <time>2000-05-11T12:48:34.3</time>
      </trkpt>
      <trkpt lat="42.53915" lon="2.05544">
        <ele>1765.0068373432</ele>
        <time>2000-05-11T12:48:35.3</time>
      </trkpt>
      <trkpt lat="42.53916" lon="2.05542">
        <ele>1765.2486904996</ele>
        <time>2000-05-11T12:48:36.3</time>
      </trkpt>
      <trkpt lat="42.53918" lon="2.05541">
        <ele>1764.8232560251</ele>
        <time>2000-05-11T12:48:37.3</time>
      </trkpt>
      <trkpt lat="42.53918" lon="2.0554">
        <ele>1764.1929328971</ele>
        <time>2000-05-11T12:48:38.3</time>
      </trkpt>
      <trkpt lat="42.53918" lon="2.05539">
        <ele>1763.4908900116</ele>
        <time>2000-05-11T12:48:39.3</time>
      </trkpt>
      <trkpt lat="42.53918" lon="2.05539">
        <ele>1762.7888471261</ele>
        <time>2000-05-11T12:48:40.3</time>
      </trkpt>
      <trkpt lat="42.53918" lon="2.05537">
        <ele>1762.9580446426</ele>
        <time>2000-05-11T12:48:41.3</time>
      </trkpt>
      <trkpt lat="42.53919" lon="2.05537">
        <ele>1763.8172824554</ele>
        <time>2000-05-11T12:48:42.1</time>
      </trkpt>
      <trkpt lat="42.53919" lon="2.05537">
        <ele>1764.4285506742</ele>
        <time>2000-05-11T12:48:43.1</time>
      </trkpt>
      <trkpt lat="42.53921" lon="2.05536">
        <ele>1765.1518220207</ele>
        <time>2000-05-11T12:48:44.1</time>
      </trkpt>
      <trkpt lat="42.5392" lon="2.05535">
        <ele>1765.6656943973</ele>
        <time>2000-05-11T12:48:45.1</time>
      </trkpt>
      <trkpt lat="42.53921" lon="2.05534">
        <ele>1765.7323447373</ele>
        <time>2000-05-11T12:48:46.1</time>
      </trkpt>
      <trkpt lat="42.53922" lon="2.05533">
        <ele>1765.3908007918</ele>
        <time>2000-05-11T12:48:47.1</time>
      </trkpt>
      <trkpt lat="42.53922" lon="2.05532">
        <ele>1764.8240113756</ele>
        <time>2000-05-11T12:48:48.1</time>
      </trkpt>
      <trkpt lat="42.53923" lon="2.0553">
        <ele>1764.0282392556</ele>
        <time>2000-05-11T12:48:49.1</time>
      </trkpt>
      <trkpt lat="42.53924" lon="2.0553">
        <ele>1763.8265479777</ele>
        <time>2000-05-11T12:48:50.1</time>
      </trkpt>
      <trkpt lat="42.53925" lon="2.0553">
        <ele>1763.8158420825</ele>
        <time>2000-05-11T12:48:51.1</time>
      </trkpt>
      <trkpt lat="42.53925" lon="2.0553">
        <ele>1763.868896134</ele>
        <time>2000-05-11T12:48:52.1</time>
      </trkpt>
      <trkpt lat="42.53925" lon="2.0553">
        <ele>1764.1471956562</ele>
        <time>2000-05-11T12:48:53.1</time>
      </trkpt>
      <trkpt lat="42.53925" lon="2.05528">
        <ele>1764.9514632838</ele>
        <time>2000-05-11T12:48:54.1</time>
      </trkpt>
      <trkpt lat="42.53925" lon="2.05528">
        <ele>1765.3710490391</ele>
        <time>2000-05-11T12:48:55.1</time>
      </trkpt>
      <trkpt lat="42.53925" lon="2.05527">
        <ele>1765.9926867966</ele>
        <time>2000-05-11T12:48:55.998</time>
      </trkpt>
      <trkpt lat="42.53925" lon="2.05527">
        <ele>1766.6143245541</ele>
        <time>2000-05-11T12:48:56.998</time>
      </trkpt>
      <trkpt lat="42.53927" lon="2.05526">
        <ele>1767.8010366691</ele>
        <time>2000-05-11T12:48:57.999</time>
      </trkpt>
      <trkpt lat="42.53927" lon="2.05526">
        <ele>1768.6753302991</ele>
        <time>2000-05-11T12:48:58.999</time>
      </trkpt>
      <trkpt lat="42.53928" lon="2.05525">
        <ele>1769.7768922677</ele>
        <time>2000-05-11T12:48:59.999</time>
      </trkpt>
      <trkpt lat="42.53928" lon="2.05525">
        <ele>1770.5692349639</ele>
        <time>2000-05-11T12:49:00.999</time>
      </trkpt>
      <trkpt lat="42.5393" lon="2.05521">
        <ele>1772.606331908</ele>
        <time>2000-05-11T12:49:01.999</time>
      </trkpt>
      <trkpt lat="42.53931" lon="2.05519">
        <ele>1774.5369527843</ele>
        <time>2000-05-11T12:49:02.999</time>
      </trkpt>
      <trkpt lat="42.53931" lon="2.05519">
        <ele>1776.4173611419</ele>
        <time>2000-05-11T12:49:03.999</time>
      </trkpt>
      <trkpt lat="42.53931" lon="2.05519">
        <ele>1778.070501161</ele>
        <time>2000-05-11T12:49:04.999</time>
      </trkpt>
      <trkpt lat="42.53932" lon="2.05516">
        <ele>1779.5728681697</ele>
        <time>2000-05-11T12:49:05.997</time>
      </trkpt>
      <trkpt lat="42.53932" lon="2.05515">
        <ele>1779.5973379331</ele>
        <time>2000-05-11T12:49:06.997</time>
      </trkpt>
      <trkpt lat="42.53933" lon="2.05514">
        <ele>1778.7779557696</ele>
        <time>2000-05-11T12:49:07.997</time>
      </trkpt>
      <trkpt lat="42.53933" lon="2.05513">
        <ele>1777.8456985077</ele>
        <time>2000-05-11T12:49:08.997</time>
      </trkpt>
      <trkpt lat="42.53934" lon="2.05512">
        <ele>1777.0632487984</ele>
        <time>2000-05-11T12:49:09.999</time>
      </trkpt>
      <trkpt lat="42.53934" lon="2.05512">
        <ele>1776.4315720996</ele>
        <time>2000-05-11T12:49:10.999</time>
      </trkpt>
      <trkpt lat="42.53933" lon="2.05511">
        <ele>1775.8921843078</ele>
        <time>2000-05-11T12:49:11.999</time>
      </trkpt>
      <trkpt lat="42.53933" lon="2.05511">
        <ele>1775.7380501531</ele>
        <time>2000-05-11T12:49:12.999</time>
      </trkpt>
      <trkpt lat="42.53934" lon="2.05509">
        <ele>1776.0261237705</ele>
        <time>2000-05-11T12:49:13.999</time>
      </trkpt>
      <trkpt lat="42.53934" lon="2.05508">
        <ele>1776.3448668133</ele>
        <time>2000-05-11T12:49:14.999</time>
      </trkpt>
      <trkpt lat="42.53935" lon="2.05507">
        <ele>1776.7649372626</ele>
        <time>2000-05-11T12:49:15.999</time>
      </trkpt>
      <trkpt lat="42.53935" lon="2.05506">
        <ele>1776.7908076962</ele>
        <time>2000-05-11T12:49:16.998</time>
      </trkpt>
      <trkpt lat="42.53935" lon="2.05505">
        <ele>1776.4971499089</ele>
        <time>2000-05-11T12:49:17.998</time>
      </trkpt>
      <trkpt lat="42.53936" lon="2.05504">
        <ele>1776.1019423794</ele>
        <time>2000-05-11T12:49:18.998</time>
      </trkpt>
      <trkpt lat="42.53935" lon="2.05503">
        <ele>1775.8980615467</ele>
        <time>2000-05-11T12:49:19.998</time>
      </trkpt>
      <trkpt lat="42.53935" lon="2.05502">
        <ele>1775.9542616678</ele>
        <time>2000-05-11T12:49:20.999</time>
      </trkpt>
      <trkpt lat="42.53936" lon="2.055">
        <ele>1776.2639687072</ele>
        <time>2000-05-11T12:49:21.999</time>
      </trkpt>
      <trkpt lat="42.53936" lon="2.05499">
        <ele>1776.7639539178</ele>
        <time>2000-05-11T12:49:23.2</time>
      </trkpt>
      <trkpt lat="42.53936" lon="2.05497">
        <ele>1777.3432251174</ele>
        <time>2000-05-11T12:49:24.2</time>
      </trkpt>
      <trkpt lat="42.53936" lon="2.05496">
        <ele>1777.6070858497</ele>
        <time>2000-05-11T12:49:25.2</time>
      </trkpt>
      <trkpt lat="42.53936" lon="2.05496">
        <ele>1777.5095382217</ele>
        <time>2000-05-11T12:49:26.2</time>
      </trkpt>
      <trkpt lat="42.53937" lon="2.05495">
        <ele>1777.5576201545</ele>
        <time>2000-05-11T12:49:27.4</time>
      </trkpt>
      <trkpt lat="42.53938" lon="2.05493">
        <ele>1777.7371169429</ele>
        <time>2000-05-11T12:49:28.4</time>
      </trkpt>
      <trkpt lat="42.5394" lon="2.05492">
        <ele>1777.4913607525</ele>
        <time>2000-05-11T12:49:29.4</time>
      </trkpt>
      <trkpt lat="42.5394" lon="2.05492">
        <ele>1777.1892113544</ele>
        <time>2000-05-11T12:49:30.4</time>
      </trkpt>
      <trkpt lat="42.5394" lon="2.05492">
        <ele>1776.8870619563</ele>
        <time>2000-05-11T12:49:31.4</time>
      </trkpt>
      <trkpt lat="42.5394" lon="2.05491">
        <ele>1776.463966389</ele>
        <time>2000-05-11T12:49:32.4</time>
      </trkpt>
      <trkpt lat="42.53942" lon="2.05488">
        <ele>1775.7447371295</ele>
        <time>2000-05-11T12:49:33.3</time>
      </trkpt>
      <trkpt lat="42.53943" lon="2.05488">
        <ele>1775.1720655188</ele>
        <time>2000-05-11T12:49:34.3</time>
      </trkpt>
      <trkpt lat="42.53944" lon="2.05487">
        <ele>1774.3594501542</ele>
        <time>2000-05-11T12:49:35.3</time>
      </trkpt>
      <trkpt lat="42.53946" lon="2.05487">
        <ele>1773.3250904517</ele>
        <time>2000-05-11T12:49:36.3</time>
      </trkpt>
      <trkpt lat="42.53948" lon="2.05487">
        <ele>1772.4599407502</ele>
        <time>2000-05-11T12:49:37.3</time>
      </trkpt>
      <trkpt lat="42.53948" lon="2.05487">
        <ele>1771.8887599349</ele>
        <time>2000-05-11T12:49:38.3</time>
      </trkpt>
      <trkpt lat="42.53948" lon="2.05487">
        <ele>1771.3394180479</ele>
        <time>2000-05-11T12:49:39.3</time>
      </trkpt>
      <trkpt lat="42.53949" lon="2.05486">
        <ele>1771.2279601306</ele>
        <time>2000-05-11T12:49:40.2</time>
      </trkpt>
      <trkpt lat="42.5395" lon="2.05485">
        <ele>1771.5900721923</ele>
        <time>2000-05-11T12:49:41.2</time>
      </trkpt>
      <trkpt lat="42.53951" lon="2.05484">
        <ele>1772.0071839476</ele>
        <time>2000-05-11T12:49:42.2</time>
      </trkpt>
      <trkpt lat="42.53951" lon="2.05483">
        <ele>1772.0922238145</ele>
        <time>2000-05-11T12:49:43.2</time>
      </trkpt>
      <trkpt lat="42.53955" lon="2.0548">
        <ele>1772.0285453381</ele>
        <time>2000-05-11T12:49:44.2</time>
      </trkpt>
      <trkpt lat="42.53957" lon="2.05478">
        <ele>1771.626654412</ele>
        <time>2000-05-11T12:49:45.2</time>
      </trkpt>
      <trkpt lat="42.53959" lon="2.05476">
        <ele>1770.9365459945</ele>
        <time>2000-05-11T12:49:46.2</time>
      </trkpt>
      <trkpt lat="42.5396" lon="2.05474">
        <ele>1770.1545135034</ele>
        <time>2000-05-11T12:49:47.2</time>
      </trkpt>
      <trkpt lat="42.5396" lon="2.05474">
        <ele>1769.7045529008</ele>
        <time>2000-05-11T12:49:48.2</time>
      </trkpt>
      <trkpt lat="42.5396" lon="2.05474">
        <ele>1769.4033106415</ele>
        <time>2000-05-11T12:49:49.2</time>
      </trkpt>
      <trkpt lat="42.5396" lon="2.05474">
        <ele>1769.242340616</ele>
        <time>2000-05-11T12:49:50.2</time>
      </trkpt>
      <trkpt lat="42.53961" lon="2.05473">
        <ele>1769.1303581297</ele>
        <time>2000-05-11T12:49:51</time>
      </trkpt>
      <trkpt lat="42.53962" lon="2.05472">
        <ele>1769.1529789388</ele>
        <time>2000-05-11T12:49:52</time>
      </trkpt>
      <trkpt lat="42.53961" lon="2.05472">
        <ele>1768.9293007981</ele>
        <time>2000-05-11T12:49:53.3</time>
      </trkpt>
      <trkpt lat="42.53961" lon="2.05472">
        <ele>1768.7056226574</ele>
        <time>2000-05-11T12:49:54.3</time>
      </trkpt>
      <trkpt lat="42.5396" lon="2.05469">
        <ele>1768.7742066517</ele>
        <time>2000-05-11T12:49:55.3</time>
      </trkpt>
      <trkpt lat="42.53961" lon="2.05469">
        <ele>1768.5191710299</ele>
        <time>2000-05-11T12:49:55.998</time>
      </trkpt>
      <trkpt lat="42.53963" lon="2.0547">
        <ele>1767.5577336952</ele>
        <time>2000-05-11T12:49:56.998</time>
      </trkpt>
      <trkpt lat="42.53965" lon="2.05471">
        <ele>1766.1695768772</ele>
        <time>2000-05-11T12:49:57.998</time>
      </trkpt>
      <trkpt lat="42.53967" lon="2.05471">
        <ele>1764.3376065241</ele>
        <time>2000-05-11T12:49:58.998</time>
      </trkpt>
      <trkpt lat="42.53968" lon="2.05471">
        <ele>1762.3534052774</ele>
        <time>2000-05-11T12:49:59.998</time>
      </trkpt>
      <trkpt lat="42.53969" lon="2.05471">
        <ele>1760.6443907896</ele>
        <time>2000-05-11T12:50:00.998</time>
      </trkpt>
      <trkpt lat="42.53969" lon="2.05471">
        <ele>1759.6317528944</ele>
        <time>2000-05-11T12:50:01.998</time>
      </trkpt>
      <trkpt lat="42.5397" lon="2.0547">
        <ele>1759.1783057429</ele>
        <time>2000-05-11T12:50:02.998</time>
      </trkpt>
      <trkpt lat="42.53971" lon="2.05469">
        <ele>1759.4452942241</ele>
        <time>2000-05-11T12:50:03.998</time>
      </trkpt>
      <trkpt lat="42.53971" lon="2.05468">
        <ele>1759.8313762642</ele>
        <time>2000-05-11T12:50:04.998</time>
      </trkpt>
      <trkpt lat="42.53973" lon="2.05468">
        <ele>1760.6803366292</ele>
        <time>2000-05-11T12:50:05.999</time>
      </trkpt>
      <trkpt lat="42.53973" lon="2.05468">
        <ele>1761.5292969942</ele>
        <time>2000-05-11T12:50:06.999</time>
      </trkpt>
      <trkpt lat="42.53974" lon="2.05467">
        <ele>1762.5975449648</ele>
        <time>2000-05-11T12:50:07.997</time>
      </trkpt>
      <trkpt lat="42.53974" lon="2.05467">
        <ele>1763.3891708376</ele>
        <time>2000-05-11T12:50:08.997</time>
      </trkpt>
      <trkpt lat="42.53976" lon="2.05466">
        <ele>1764.2900066495</ele>
        <time>2000-05-11T12:50:09.998</time>
      </trkpt>
      <trkpt lat="42.53977" lon="2.05466">
        <ele>1765.3195414243</ele>
        <time>2000-05-11T12:50:10.998</time>
      </trkpt>
      <trkpt lat="42.53978" lon="2.05466">
        <ele>1766.3332889641</ele>
        <time>2000-05-11T12:50:11.998</time>
      </trkpt>
      <trkpt lat="42.53978" lon="2.05465">
        <ele>1767.0178773822</ele>
        <time>2000-05-11T12:50:12.998</time>
      </trkpt>
      <trkpt lat="42.53978" lon="2.05463">
        <ele>1767.5027563162</ele>
        <time>2000-05-11T12:50:13.998</time>
      </trkpt>
      <trkpt lat="42.53978" lon="2.05462">
        <ele>1767.4474721951</ele>
        <time>2000-05-11T12:50:14.998</time>
      </trkpt>
      <trkpt lat="42.53979" lon="2.05461">
        <ele>1767.0695313448</ele>
        <time>2000-05-11T12:50:15.998</time>
      </trkpt>
      <trkpt lat="42.53979" lon="2.0546">
        <ele>1766.8624244474</ele>
        <time>2000-05-11T12:50:16.998</time>
      </trkpt>
      <trkpt lat="42.53979" lon="2.0546">
        <ele>1766.8790167555</ele>
        <time>2000-05-11T12:50:17.998</time>
      </trkpt>
      <trkpt lat="42.5398" lon="2.0546">
        <ele>1767.0551980099</ele>
        <time>2000-05-11T12:50:18.997</time>
      </trkpt>
      <trkpt lat="42.5398" lon="2.0546">
        <ele>1767.4032075798</ele>
        <time>2000-05-11T12:50:19.997</time>
      </trkpt>
      <trkpt lat="42.53982" lon="2.0546">
        <ele>1767.8780928131</ele>
        <time>2000-05-11T12:50:20.997</time>
      </trkpt>
      <trkpt lat="42.53983" lon="2.0546">
        <ele>1768.1817155208</ele>
        <time>2000-05-11T12:50:21.997</time>
      </trkpt>
      <trkpt lat="42.53984" lon="2.0546">
        <ele>1768.4061498892</ele>
        <time>2000-05-11T12:50:22.997</time>
      </trkpt>
      <trkpt lat="42.53986" lon="2.0546">
        <ele>1768.2307705736</ele>
        <time>2000-05-11T12:50:23.997</time>
      </trkpt>
      <trkpt lat="42.53987" lon="2.0546">
        <ele>1768.1918958236</ele>
        <time>2000-05-11T12:50:24.997</time>
      </trkpt>
      <trkpt lat="42.53988" lon="2.0546">
        <ele>1767.7904277571</ele>
        <time>2000-05-11T12:50:25.997</time>
      </trkpt>
      <trkpt lat="42.53989" lon="2.0546">
        <ele>1767.5382875919</ele>
        <time>2000-05-11T12:50:26.997</time>
      </trkpt>
      <trkpt lat="42.5399" lon="2.05459">
        <ele>1767.5194508847</ele>
        <time>2000-05-11T12:50:27.997</time>
      </trkpt>
      <trkpt lat="42.53991" lon="2.05458">
        <ele>1767.9243449496</ele>
        <time>2000-05-11T12:50:28.997</time>
      </trkpt>
      <trkpt lat="42.53991" lon="2.05457">
        <ele>1768.2947005481</ele>
        <time>2000-05-11T12:50:29.997</time>
      </trkpt>
      <trkpt lat="42.53992" lon="2.05457">
        <ele>1768.6954556236</ele>
        <time>2000-05-11T12:50:30.997</time>
      </trkpt>
      <trkpt lat="42.53993" lon="2.05456">
        <ele>1769.1746467676</ele>
        <time>2000-05-11T12:50:31.997</time>
      </trkpt>
      <trkpt lat="42.53994" lon="2.05456">
        <ele>1769.6278236356</ele>
        <time>2000-05-11T12:50:32.997</time>
      </trkpt>
      <trkpt lat="42.53995" lon="2.05455">
        <ele>1770.0208364397</ele>
        <time>2000-05-11T12:50:33.997</time>
      </trkpt>
      <trkpt lat="42.53995" lon="2.05455">
        <ele>1770.3118831448</ele>
        <time>2000-05-11T12:50:34.997</time>
      </trkpt>
      <trkpt lat="42.53996" lon="2.05455">
        <ele>1770.572544753</ele>
        <time>2000-05-11T12:50:35.996</time>
      </trkpt>
      <trkpt lat="42.53996" lon="2.05455">
        <ele>1770.6216581991</ele>
        <time>2000-05-11T12:50:36.996</time>
      </trkpt>
      <trkpt lat="42.53998" lon="2.05454">
        <ele>1771.0131427156</ele>
        <time>2000-05-11T12:50:37.997</time>
      </trkpt>
      <trkpt lat="42.53998" lon="2.05454">
        <ele>1771.4809947455</ele>
        <time>2000-05-11T12:50:38.997</time>
      </trkpt>
      <trkpt lat="42.54001" lon="2.05453">
        <ele>1772.0780508917</ele>
        <time>2000-05-11T12:50:39.994</time>
      </trkpt>
      <trkpt lat="42.54001" lon="2.05452">
        <ele>1772.6803071627</ele>
        <time>2000-05-11T12:50:40.994</time>
      </trkpt>
      <trkpt lat="42.54001" lon="2.0545">
        <ele>1773.422595958</ele>
        <time>2000-05-11T12:50:41.994</time>
      </trkpt>
      <trkpt lat="42.54002" lon="2.05449">
        <ele>1773.5500085814</ele>
        <time>2000-05-11T12:50:42.994</time>
      </trkpt>
      <trkpt lat="42.54003" lon="2.05449">
        <ele>1773.5061607432</ele>
        <time>2000-05-11T12:50:43.994</time>
      </trkpt>
      <trkpt lat="42.54004" lon="2.05449">
        <ele>1773.1553896604</ele>
        <time>2000-05-11T12:50:44.994</time>
      </trkpt>
      <trkpt lat="42.54005" lon="2.05448">
        <ele>1772.5495421177</ele>
        <time>2000-05-11T12:50:45.994</time>
      </trkpt>
      <trkpt lat="42.54006" lon="2.05447">
        <ele>1771.7459601425</ele>
        <time>2000-05-11T12:50:46.994</time>
      </trkpt>
      <trkpt lat="42.54007" lon="2.05447">
        <ele>1771.0621773377</ele>
        <time>2000-05-11T12:50:47.994</time>
      </trkpt>
      <trkpt lat="42.54008" lon="2.05446">
        <ele>1770.515023979</ele>
        <time>2000-05-11T12:50:48.994</time>
      </trkpt>
      <trkpt lat="42.5401" lon="2.05446">
        <ele>1770.3472052617</ele>
        <time>2000-05-11T12:50:49.994</time>
      </trkpt>
      <trkpt lat="42.5401" lon="2.05446">
        <ele>1770.4318827624</ele>
        <time>2000-05-11T12:50:50.994</time>
      </trkpt>
      <trkpt lat="42.5401" lon="2.05446">
        <ele>1770.5742621712</ele>
        <time>2000-05-11T12:50:51.994</time>
      </trkpt>
      <trkpt lat="42.54011" lon="2.05445">
        <ele>1770.4101976853</ele>
        <time>2000-05-11T12:50:52.993</time>
      </trkpt>
      <trkpt lat="42.54011" lon="2.05445">
        <ele>1770.2807642149</ele>
        <time>2000-05-11T12:50:53.993</time>
      </trkpt>
      <trkpt lat="42.54012" lon="2.05443">
        <ele>1769.5711613555</ele>
        <time>2000-05-11T12:50:54.992</time>
      </trkpt>
      <trkpt lat="42.54013" lon="2.05442">
        <ele>1769.0365699563</ele>
        <time>2000-05-11T12:50:55.992</time>
      </trkpt>
      <trkpt lat="42.54015" lon="2.05441">
        <ele>1767.9162961377</ele>
        <time>2000-05-11T12:50:56.992</time>
      </trkpt>
      <trkpt lat="42.54015" lon="2.05441">
        <ele>1767.1270713026</ele>
        <time>2000-05-11T12:50:57.992</time>
      </trkpt>
      <trkpt lat="42.54016" lon="2.05439">
        <ele>1766.9802379187</ele>
        <time>2000-05-11T12:50:58.992</time>
      </trkpt>
      <trkpt lat="42.54017" lon="2.05438">
        <ele>1766.8849149788</ele>
        <time>2000-05-11T12:50:59.992</time>
      </trkpt>
      <trkpt lat="42.54019" lon="2.05436">
        <ele>1766.7442422077</ele>
        <time>2000-05-11T12:51:00.992</time>
      </trkpt>
      <trkpt lat="42.54019" lon="2.05435">
        <ele>1767.4263138777</ele>
        <time>2000-05-11T12:51:01.992</time>
      </trkpt>
      <trkpt lat="42.54019" lon="2.05434">
        <ele>1768.5072172515</ele>
        <time>2000-05-11T12:51:02.992</time>
      </trkpt>
      <trkpt lat="42.54019" lon="2.05434">
        <ele>1768.9457291741</ele>
        <time>2000-05-11T12:51:03.992</time>
      </trkpt>
      <trkpt lat="42.54019" lon="2.05434">
        <ele>1769.7112845287</ele>
        <time>2000-05-11T12:51:04.992</time>
      </trkpt>
      <trkpt lat="42.5402" lon="2.05434">
        <ele>1768.9652918009</ele>
        <time>2000-05-11T12:51:05.990</time>
      </trkpt>
      <trkpt lat="42.5402" lon="2.05434">
        <ele>1767.9822370516</ele>
        <time>2000-05-11T12:51:06.990</time>
      </trkpt>
      <trkpt lat="42.54021" lon="2.05434">
        <ele>1766.5831707416</ele>
        <time>2000-05-11T12:51:07.991</time>
      </trkpt>
      <trkpt lat="42.54022" lon="2.05433">
        <ele>1765.1394762656</ele>
        <time>2000-05-11T12:51:08.991</time>
      </trkpt>
      <trkpt lat="42.54023" lon="2.05432">
        <ele>1763.7267154647</ele>
        <time>2000-05-11T12:51:09.991</time>
      </trkpt>
      <trkpt lat="42.54023" lon="2.05432">
        <ele>1763.695841117</ele>
        <time>2000-05-11T12:51:10.991</time>
      </trkpt>
      <trkpt lat="42.54024" lon="2.05431">
        <ele>1763.7470562737</ele>
        <time>2000-05-11T12:51:11.992</time>
      </trkpt>
      <trkpt lat="42.54024" lon="2.0543">
        <ele>1763.8417000813</ele>
        <time>2000-05-11T12:51:12.992</time>
      </trkpt>
      <trkpt lat="42.54025" lon="2.05429">
        <ele>1763.947825994</ele>
        <time>2000-05-11T12:51:13.992</time>
      </trkpt>
      <trkpt lat="42.54026" lon="2.05428">
        <ele>1764.3831012024</ele>
        <time>2000-05-11T12:51:14.990</time>
      </trkpt>
      <trkpt lat="42.54027" lon="2.05427">
        <ele>1764.7430249142</ele>
        <time>2000-05-11T12:51:15.990</time>
      </trkpt>
      <trkpt lat="42.54027" lon="2.05426">
        <ele>1764.6592944831</ele>
        <time>2000-05-11T12:51:16.990</time>
      </trkpt>
      <trkpt lat="42.54027" lon="2.05426">
        <ele>1764.5493152579</ele>
        <time>2000-05-11T12:51:17.990</time>
      </trkpt>
      <trkpt lat="42.54028" lon="2.05425">
        <ele>1764.4857946722</ele>
        <time>2000-05-11T12:51:18.990</time>
      </trkpt>
      <trkpt lat="42.54028" lon="2.05424">
        <ele>1764.3470469672</ele>
        <time>2000-05-11T12:51:19.990</time>
      </trkpt>
      <trkpt lat="42.5403" lon="2.05423">
        <ele>1764.580554707</ele>
        <time>2000-05-11T12:51:20.989</time>
      </trkpt>
      <trkpt lat="42.5403" lon="2.05423">
        <ele>1765.0733930606</ele>
        <time>2000-05-11T12:51:21.989</time>
      </trkpt>
      <trkpt lat="42.54031" lon="2.05423">
        <ele>1765.3901190044</ele>
        <time>2000-05-11T12:51:22.991</time>
      </trkpt>
      <trkpt lat="42.54031" lon="2.05423">
        <ele>1765.6935323698</ele>
        <time>2000-05-11T12:51:23.991</time>
      </trkpt>
      <trkpt lat="42.54032" lon="2.05422">
        <ele>1765.7445550753</ele>
        <time>2000-05-11T12:51:24.992</time>
      </trkpt>
      <trkpt lat="42.54032" lon="2.05421">
        <ele>1765.7723976659</ele>
        <time>2000-05-11T12:51:25.992</time>
      </trkpt>
      <trkpt lat="42.54033" lon="2.05421">
        <ele>1765.58577438</ele>
        <time>2000-05-11T12:51:26.992</time>
      </trkpt>
      <trkpt lat="42.54033" lon="2.05421">
        <ele>1765.5752635039</ele>
        <time>2000-05-11T12:51:27.992</time>
      </trkpt>
      <trkpt lat="42.54036" lon="2.05418">
        <ele>1765.8344118586</ele>
        <time>2000-05-11T12:51:28.991</time>
      </trkpt>
      <trkpt lat="42.54038" lon="2.05415">
        <ele>1767.0258740338</ele>
        <time>2000-05-11T12:51:29.991</time>
      </trkpt>
      <trkpt lat="42.54039" lon="2.05414">
        <ele>1768.2245054582</ele>
        <time>2000-05-11T12:51:30.991</time>
      </trkpt>
      <trkpt lat="42.5404" lon="2.05413">
        <ele>1769.8772202235</ele>
        <time>2000-05-11T12:51:31.991</time>
      </trkpt>
      <trkpt lat="42.5404" lon="2.05413">
        <ele>1771.5299349887</ele>
        <time>2000-05-11T12:51:32.991</time>
      </trkpt>
      <trkpt lat="42.54041" lon="2.05413">
        <ele>1773.4485735845</ele>
        <time>2000-05-11T12:51:33.991</time>
      </trkpt>
      <trkpt lat="42.5404" lon="2.05414">
        <ele>1774.3115338877</ele>
        <time>2000-05-11T12:51:34.992</time>
      </trkpt>
      <trkpt lat="42.5404" lon="2.05414">
        <ele>1774.8936011083</ele>
        <time>2000-05-11T12:51:35.992</time>
      </trkpt>
      <trkpt lat="42.54042" lon="2.05412">
        <ele>1775.4316910077</ele>
        <time>2000-05-11T12:51:36.991</time>
      </trkpt>
      <trkpt lat="42.54043" lon="2.05411">
        <ele>1775.7884961136</ele>
        <time>2000-05-11T12:51:37.991</time>
      </trkpt>
      <trkpt lat="42.54043" lon="2.05411">
        <ele>1775.6615291107</ele>
        <time>2000-05-11T12:51:38.991</time>
      </trkpt>
      <trkpt lat="42.54044" lon="2.0541">
        <ele>1775.5452666704</ele>
        <time>2000-05-11T12:51:39.989</time>
      </trkpt>
      <trkpt lat="42.54044" lon="2.05409">
        <ele>1775.2168871291</ele>
        <time>2000-05-11T12:51:40.989</time>
      </trkpt>
      <trkpt lat="42.54045" lon="2.05408">
        <ele>1774.8924812429</ele>
        <time>2000-05-11T12:51:41.989</time>
      </trkpt>
      <trkpt lat="42.54046" lon="2.05408">
        <ele>1775.0048207423</ele>
        <time>2000-05-11T12:51:42.989</time>
      </trkpt>
      <trkpt lat="42.54046" lon="2.05408">
        <ele>1775.0653492892</ele>
        <time>2000-05-11T12:51:43.989</time>
      </trkpt>
      <trkpt lat="42.54047" lon="2.05407">
        <ele>1774.9982915299</ele>
        <time>2000-05-11T12:51:44.989</time>
      </trkpt>
      <trkpt lat="42.54048" lon="2.05406">
        <ele>1774.9024388127</ele>
        <time>2000-05-11T12:51:45.989</time>
      </trkpt>
      <trkpt lat="42.54048" lon="2.05406">
        <ele>1774.709206322</ele>
        <time>2000-05-11T12:51:46.989</time>
      </trkpt>
      <trkpt lat="42.5405" lon="2.05405">
        <ele>1774.2061589479</ele>
        <time>2000-05-11T12:51:47.989</time>
      </trkpt>
      <trkpt lat="42.54051" lon="2.05405">
        <ele>1773.3732434811</ele>
        <time>2000-05-11T12:51:48.989</time>
      </trkpt>
      <trkpt lat="42.54052" lon="2.05405">
        <ele>1772.7492433567</ele>
        <time>2000-05-11T12:51:49.989</time>
      </trkpt>
      <trkpt lat="42.54053" lon="2.05404">
        <ele>1772.3195163941</ele>
        <time>2000-05-11T12:51:50.989</time>
      </trkpt>
      <trkpt lat="42.54054" lon="2.05404">
        <ele>1771.9376604628</ele>
        <time>2000-05-11T12:51:51.989</time>
      </trkpt>
      <trkpt lat="42.54054" lon="2.05404">
        <ele>1771.6101588227</ele>
        <time>2000-05-11T12:51:52.989</time>
      </trkpt>
      <trkpt lat="42.54055" lon="2.05403">
        <ele>1771.4937975608</ele>
        <time>2000-05-11T12:51:53.989</time>
      </trkpt>
      <trkpt lat="42.54055" lon="2.05403">
        <ele>1770.8448164973</ele>
        <time>2000-05-11T12:51:54.989</time>
      </trkpt>
      <trkpt lat="42.54057" lon="2.05401">
        <ele>1769.9829924535</ele>
        <time>2000-05-11T12:51:55.989</time>
      </trkpt>
      <trkpt lat="42.54057" lon="2.05401">
        <ele>1768.8169994486</ele>
        <time>2000-05-11T12:51:56.989</time>
      </trkpt>
      <trkpt lat="42.54058" lon="2.054">
        <ele>1767.6893496113</ele>
        <time>2000-05-11T12:51:57.991</time>
      </trkpt>
      <trkpt lat="42.54058" lon="2.05398">
        <ele>1766.6197564514</ele>
        <time>2000-05-11T12:51:58.991</time>
      </trkpt>
      <trkpt lat="42.54059" lon="2.05397">
        <ele>1766.2437280742</ele>
        <time>2000-05-11T12:51:59.991</time>
      </trkpt>
      <trkpt lat="42.5406" lon="2.05396">
        <ele>1766.8715094382</ele>
        <time>2000-05-11T12:52:00.991</time>
      </trkpt>
      <trkpt lat="42.5406" lon="2.05395">
        <ele>1768.3480829705</ele>
        <time>2000-05-11T12:52:01.991</time>
      </trkpt>
      <trkpt lat="42.5406" lon="2.05395">
        <ele>1769.7863133352</ele>
        <time>2000-05-11T12:52:02.991</time>
      </trkpt>
      <trkpt lat="42.54061" lon="2.05394">
        <ele>1771.3423232689</ele>
        <time>2000-05-11T12:52:03.991</time>
      </trkpt>
      <trkpt lat="42.54062" lon="2.05393">
        <ele>1772.4398811888</ele>
        <time>2000-05-11T12:52:04.991</time>
      </trkpt>
      <trkpt lat="42.54063" lon="2.05392">
        <ele>1772.7226494661</ele>
        <time>2000-05-11T12:52:05.991</time>
      </trkpt>
      <trkpt lat="42.54063" lon="2.05392">
        <ele>1772.4129235048</ele>
        <time>2000-05-11T12:52:06.991</time>
      </trkpt>
      <trkpt lat="42.54063" lon="2.05392">
        <ele>1772.1031975435</ele>
        <time>2000-05-11T12:52:07.991</time>
      </trkpt>
      <trkpt lat="42.54065" lon="2.0539">
        <ele>1771.664867441</ele>
        <time>2000-05-11T12:52:08.990</time>
      </trkpt>
      <trkpt lat="42.54065" lon="2.05389">
        <ele>1771.5309220925</ele>
        <time>2000-05-11T12:52:09.990</time>
      </trkpt>
      <trkpt lat="42.54065" lon="2.05388">
        <ele>1771.478238192</ele>
        <time>2000-05-11T12:52:10.993</time>
      </trkpt>
      <trkpt lat="42.54066" lon="2.05387">
        <ele>1771.5295509305</ele>
        <time>2000-05-11T12:52:11.993</time>
      </trkpt>
      <trkpt lat="42.54066" lon="2.05386">
        <ele>1771.6541348955</ele>
        <time>2000-05-11T12:52:12.993</time>
      </trkpt>
      <trkpt lat="42.54067" lon="2.05386">
        <ele>1771.8695821581</ele>
        <time>2000-05-11T12:52:13.993</time>
      </trkpt>
      <trkpt lat="42.54068" lon="2.05385">
        <ele>1771.6306525134</ele>
        <time>2000-05-11T12:52:14.995</time>
      </trkpt>
      <trkpt lat="42.54067" lon="2.05384">
        <ele>1771.2041169712</ele>
        <time>2000-05-11T12:52:15.995</time>
      </trkpt>
      <trkpt lat="42.54068" lon="2.05383">
        <ele>1770.7314264614</ele>
        <time>2000-05-11T12:52:16.995</time>
      </trkpt>
      <trkpt lat="42.54068" lon="2.05383">
        <ele>1770.1854647251</ele>
        <time>2000-05-11T12:52:17.995</time>
      </trkpt>
      <trkpt lat="42.54068" lon="2.05382">
        <ele>1769.94470155</ele>
        <time>2000-05-11T12:52:18.996</time>
      </trkpt>
      <trkpt lat="42.54068" lon="2.05382">
        <ele>1770.1503032427</ele>
        <time>2000-05-11T12:52:19.996</time>
      </trkpt>
      <trkpt lat="42.54069" lon="2.05381">
        <ele>1770.3188297708</ele>
        <time>2000-05-11T12:52:20.997</time>
      </trkpt>
      <trkpt lat="42.54069" lon="2.05381">
        <ele>1770.4295146275</ele>
        <time>2000-05-11T12:52:21.997</time>
      </trkpt>
      <trkpt lat="42.54071" lon="2.05379">
        <ele>1770.6820257491</ele>
        <time>2000-05-11T12:52:22.997</time>
      </trkpt>
      <trkpt lat="42.54072" lon="2.05378">
        <ele>1770.8248996602</ele>
        <time>2000-05-11T12:52:23.997</time>
      </trkpt>
      <trkpt lat="42.54074" lon="2.05378">
        <ele>1770.8081971357</ele>
        <time>2000-05-11T12:52:24.997</time>
      </trkpt>
      <trkpt lat="42.54075" lon="2.05379">
        <ele>1770.2857577868</ele>
        <time>2000-05-11T12:52:25.997</time>
      </trkpt>
      <trkpt lat="42.54075" lon="2.05379">
        <ele>1769.7633184379</ele>
        <time>2000-05-11T12:52:26.997</time>
      </trkpt>
      <trkpt lat="42.54076" lon="2.05379">
        <ele>1768.6855372924</ele>
        <time>2000-05-11T12:52:27.997</time>
      </trkpt>
      <trkpt lat="42.54077" lon="2.05378">
        <ele>1767.3187020157</ele>
        <time>2000-05-11T12:52:28.997</time>
      </trkpt>
      <trkpt lat="42.54078" lon="2.05378">
        <ele>1766.1420204569</ele>
        <time>2000-05-11T12:52:29.997</time>
      </trkpt>
      <trkpt lat="42.54078" lon="2.05376">
        <ele>1765.84117145</ele>
        <time>2000-05-11T12:52:30.997</time>
      </trkpt>
      <trkpt lat="42.54079" lon="2.05375">
        <ele>1765.5275993103</ele>
        <time>2000-05-11T12:52:31.997</time>
      </trkpt>
      <trkpt lat="42.5408" lon="2.05373">
        <ele>1765.829828655</ele>
        <time>2000-05-11T12:52:32.997</time>
      </trkpt>
      <trkpt lat="42.5408" lon="2.05373">
        <ele>1766.2061830917</ele>
        <time>2000-05-11T12:52:33.997</time>
      </trkpt>
      <trkpt lat="42.5408" lon="2.05373">
        <ele>1766.5519602463</ele>
        <time>2000-05-11T12:52:34.997</time>
      </trkpt>
      <trkpt lat="42.5408" lon="2.05369">
        <ele>1766.8369103286</ele>
        <time>2000-05-11T12:52:35.995</time>
      </trkpt>
      <trkpt lat="42.54081" lon="2.05368">
        <ele>1766.7259046702</ele>
        <time>2000-05-11T12:52:36.995</time>
      </trkpt>
      <trkpt lat="42.54082" lon="2.05367">
        <ele>1766.1510932196</ele>
        <time>2000-05-11T12:52:37.995</time>
      </trkpt>
      <trkpt lat="42.54082" lon="2.05366">
        <ele>1765.883309616</ele>
        <time>2000-05-11T12:52:38.995</time>
      </trkpt>
      <trkpt lat="42.54083" lon="2.05365">
        <ele>1765.4362907099</ele>
        <time>2000-05-11T12:52:39.995</time>
      </trkpt>
      <trkpt lat="42.54084" lon="2.05364">
        <ele>1764.5293219311</ele>
        <time>2000-05-11T12:52:40.995</time>
      </trkpt>
      <trkpt lat="42.54084" lon="2.05364">
        <ele>1764.031032026</ele>
        <time>2000-05-11T12:52:41.995</time>
      </trkpt>
      <trkpt lat="42.54084" lon="2.05363">
        <ele>1763.8350712571</ele>
        <time>2000-05-11T12:52:42.995</time>
      </trkpt>
      <trkpt lat="42.54085" lon="2.05362">
        <ele>1763.5158533799</ele>
        <time>2000-05-11T12:52:43.995</time>
      </trkpt>
      <trkpt lat="42.54085" lon="2.0536">
        <ele>1763.7293578388</ele>
        <time>2000-05-11T12:52:44.995</time>
      </trkpt>
      <trkpt lat="42.54085" lon="2.05358">
        <ele>1764.6383638941</ele>
        <time>2000-05-11T12:52:45.995</time>
      </trkpt>
      <trkpt lat="42.54087" lon="2.05358">
        <ele>1765.5830580484</ele>
        <time>2000-05-11T12:52:46.995</time>
      </trkpt>
      <trkpt lat="42.54087" lon="2.05356">
        <ele>1766.6255070409</ele>
        <time>2000-05-11T12:52:47.995</time>
      </trkpt>
      <trkpt lat="42.54087" lon="2.05356">
        <ele>1767.4841852948</ele>
        <time>2000-05-11T12:52:48.995</time>
      </trkpt>
      <trkpt lat="42.54087" lon="2.05356">
        <ele>1767.989376515</ele>
        <time>2000-05-11T12:52:49.995</time>
      </trkpt>
      <trkpt lat="42.54089" lon="2.05356">
        <ele>1767.8320078734</ele>
        <time>2000-05-11T12:52:50.995</time>
      </trkpt>
      <trkpt lat="42.5409" lon="2.05355">
        <ele>1767.3171089375</ele>
        <time>2000-05-11T12:52:51.995</time>
      </trkpt>
      <trkpt lat="42.54091" lon="2.05353">
        <ele>1766.0932984406</ele>
        <time>2000-05-11T12:52:52.995</time>
      </trkpt>
      <trkpt lat="42.54092" lon="2.05351">
        <ele>1765.0950501403</ele>
        <time>2000-05-11T12:52:53.995</time>
      </trkpt>
      <trkpt lat="42.54094" lon="2.0535">
        <ele>1764.3753080593</ele>
        <time>2000-05-11T12:52:54.995</time>
      </trkpt>
      <trkpt lat="42.54095" lon="2.05349">
        <ele>1763.9370984644</ele>
        <time>2000-05-11T12:52:55.995</time>
      </trkpt>
      <trkpt lat="42.54096" lon="2.05348">
        <ele>1763.6622167034</ele>
        <time>2000-05-11T12:52:56.995</time>
      </trkpt>
      <trkpt lat="42.54097" lon="2.05348">
        <ele>1763.9555798519</ele>
        <time>2000-05-11T12:52:57.995</time>
      </trkpt>
      <trkpt lat="42.54098" lon="2.05347">
        <ele>1764.1848719569</ele>
        <time>2000-05-11T12:52:58.995</time>
      </trkpt>
      <trkpt lat="42.54098" lon="2.05345">
        <ele>1764.3457395513</ele>
        <time>2000-05-11T12:52:59.995</time>
      </trkpt>
      <trkpt lat="42.54099" lon="2.05343">
        <ele>1764.7201749545</ele>
        <time>2000-05-11T12:53:00.995</time>
      </trkpt>
      <trkpt lat="42.541" lon="2.05342">
        <ele>1765.3747901766</ele>
        <time>2000-05-11T12:53:01.995</time>
      </trkpt>
      <trkpt lat="42.541" lon="2.05342">
        <ele>1766.0315079154</ele>
        <time>2000-05-11T12:53:02.995</time>
      </trkpt>
      <trkpt lat="42.54101" lon="2.05342">
        <ele>1766.2592451407</ele>
        <time>2000-05-11T12:53:03.995</time>
      </trkpt>
      <trkpt lat="42.54101" lon="2.05342">
        <ele>1766.176984686</ele>
        <time>2000-05-11T12:53:04.995</time>
      </trkpt>
      <trkpt lat="42.54102" lon="2.05341">
        <ele>1765.8120518714</ele>
        <time>2000-05-11T12:53:05.994</time>
      </trkpt>
      <trkpt lat="42.54103" lon="2.05341">
        <ele>1765.1234890491</ele>
        <time>2000-05-11T12:53:06.994</time>
      </trkpt>
      <trkpt lat="42.54104" lon="2.0534">
        <ele>1764.2285470065</ele>
        <time>2000-05-11T12:53:07.994</time>
      </trkpt>
      <trkpt lat="42.54105" lon="2.0534">
        <ele>1763.5422481665</ele>
        <time>2000-05-11T12:53:08.994</time>
      </trkpt>
      <trkpt lat="42.54106" lon="2.0534">
        <ele>1762.9922713649</ele>
        <time>2000-05-11T12:53:09.994</time>
      </trkpt>
      <trkpt lat="42.54106" lon="2.05338">
        <ele>1762.8036326986</ele>
        <time>2000-05-11T12:53:10.994</time>
      </trkpt>
      <trkpt lat="42.54106" lon="2.05338">
        <ele>1762.8169585824</ele>
        <time>2000-05-11T12:53:11.994</time>
      </trkpt>
      <trkpt lat="42.54106" lon="2.05337">
        <ele>1762.9943144092</ele>
        <time>2000-05-11T12:53:12.994</time>
      </trkpt>
      <trkpt lat="42.54105" lon="2.05335">
        <ele>1763.3504218824</ele>
        <time>2000-05-11T12:53:13.994</time>
      </trkpt>
      <trkpt lat="42.54105" lon="2.05334">
        <ele>1763.9033057693</ele>
        <time>2000-05-11T12:53:14.995</time>
      </trkpt>
      <trkpt lat="42.54105" lon="2.05334">
        <ele>1764.2140444614</ele>
        <time>2000-05-11T12:53:15.995</time>
      </trkpt>
      <trkpt lat="42.54106" lon="2.05332">
        <ele>1764.6069354847</ele>
        <time>2000-05-11T12:53:16.994</time>
      </trkpt>
      <trkpt lat="42.54106" lon="2.05332">
        <ele>1765.0421757853</ele>
        <time>2000-05-11T12:53:17.994</time>
      </trkpt>
      <trkpt lat="42.54107" lon="2.05331">
        <ele>1765.5631475227</ele>
        <time>2000-05-11T12:53:18.994</time>
      </trkpt>
      <trkpt lat="42.54108" lon="2.0533">
        <ele>1765.858024478</ele>
        <time>2000-05-11T12:53:19.994</time>
      </trkpt>
      <trkpt lat="42.54109" lon="2.0533">
        <ele>1766.1551449442</ele>
        <time>2000-05-11T12:53:20.994</time>
      </trkpt>
      <trkpt lat="42.54109" lon="2.05329">
        <ele>1766.4497292899</ele>
        <time>2000-05-11T12:53:21.994</time>
      </trkpt>
      <trkpt lat="42.5411" lon="2.05328">
        <ele>1766.6536666298</ele>
        <time>2000-05-11T12:53:22.994</time>
      </trkpt>
      <trkpt lat="42.54111" lon="2.05328">
        <ele>1766.6811146131</ele>
        <time>2000-05-11T12:53:23.996</time>
      </trkpt>
      <trkpt lat="42.54112" lon="2.05327">
        <ele>1766.9543106843</ele>
        <time>2000-05-11T12:53:24.996</time>
      </trkpt>
      <trkpt lat="42.54113" lon="2.05325">
        <ele>1767.7224142019</ele>
        <time>2000-05-11T12:53:25.996</time>
      </trkpt>
      <trkpt lat="42.54114" lon="2.05323">
        <ele>1768.8234123012</ele>
        <time>2000-05-11T12:53:26.996</time>
      </trkpt>
      <trkpt lat="42.54115" lon="2.05322">
        <ele>1769.8567186501</ele>
        <time>2000-05-11T12:53:27.996</time>
      </trkpt>
      <trkpt lat="42.54116" lon="2.05322">
        <ele>1770.7007199394</ele>
        <time>2000-05-11T12:53:28.996</time>
      </trkpt>
      <trkpt lat="42.54116" lon="2.05322">
        <ele>1771.2918854419</ele>
        <time>2000-05-11T12:53:29.996</time>
      </trkpt>
      <trkpt lat="42.54117" lon="2.05321">
        <ele>1771.2969106156</ele>
        <time>2000-05-11T12:53:30.996</time>
      </trkpt>
      <trkpt lat="42.54118" lon="2.0532">
        <ele>1770.8048057765</ele>
        <time>2000-05-11T12:53:31.996</time>
      </trkpt>
      <trkpt lat="42.54118" lon="2.05319">
        <ele>1770.2782457503</ele>
        <time>2000-05-11T12:53:32.996</time>
      </trkpt>
      <trkpt lat="42.54118" lon="2.05318">
        <ele>1769.6703158202</ele>
        <time>2000-05-11T12:53:33.996</time>
      </trkpt>
      <trkpt lat="42.54118" lon="2.05316">
        <ele>1769.1901047476</ele>
        <time>2000-05-11T12:53:34.996</time>
      </trkpt>
      <trkpt lat="42.54119" lon="2.05315">
        <ele>1768.7283449978</ele>
        <time>2000-05-11T12:53:35.996</time>
      </trkpt>
      <trkpt lat="42.5412" lon="2.05314">
        <ele>1768.3343427988</ele>
        <time>2000-05-11T12:53:36.996</time>
      </trkpt>
      <trkpt lat="42.5412" lon="2.05314">
        <ele>1768.133134543</ele>
        <time>2000-05-11T12:53:37.996</time>
      </trkpt>
      <trkpt lat="42.5412" lon="2.05313">
        <ele>1768.1130862633</ele>
        <time>2000-05-11T12:53:38.996</time>
      </trkpt>
      <trkpt lat="42.54122" lon="2.05311">
        <ele>1767.858299022</ele>
        <time>2000-05-11T12:53:39.996</time>
      </trkpt>
      <trkpt lat="42.54123" lon="2.05311">
        <ele>1767.5737192214</ele>
        <time>2000-05-11T12:53:40.996</time>
      </trkpt>
      <trkpt lat="42.54123" lon="2.05311">
        <ele>1767.3060010904</ele>
        <time>2000-05-11T12:53:41.996</time>
      </trkpt>
      <trkpt lat="42.54123" lon="2.05309">
        <ele>1767.4179616122</ele>
        <time>2000-05-11T12:53:42.996</time>
      </trkpt>
      <trkpt lat="42.54123" lon="2.05309">
        <ele>1767.5902895527</ele>
        <time>2000-05-11T12:53:43.996</time>
      </trkpt>
      <trkpt lat="42.54125" lon="2.05309">
        <ele>1767.7895657087</ele>
        <time>2000-05-11T12:53:44.997</time>
      </trkpt>
      <trkpt lat="42.54126" lon="2.05308">
        <ele>1767.858573602</ele>
        <time>2000-05-11T12:53:45.997</time>
      </trkpt>
      <trkpt lat="42.54126" lon="2.05307">
        <ele>1767.5676907877</ele>
        <time>2000-05-11T12:53:46.997</time>
      </trkpt>
      <trkpt lat="42.54126" lon="2.05305">
        <ele>1767.0844189961</ele>
        <time>2000-05-11T12:53:47.997</time>
      </trkpt>
      <trkpt lat="42.54126" lon="2.05303">
        <ele>1766.6532194488</ele>
        <time>2000-05-11T12:53:48.997</time>
      </trkpt>
      <trkpt lat="42.54127" lon="2.05302">
        <ele>1766.2102421541</ele>
        <time>2000-05-11T12:53:49.997</time>
      </trkpt>
      <trkpt lat="42.54129" lon="2.05301">
        <ele>1765.8971777551</ele>
        <time>2000-05-11T12:53:50.997</time>
      </trkpt>
      <trkpt lat="42.54129" lon="2.053">
        <ele>1765.9338097215</ele>
        <time>2000-05-11T12:53:51.997</time>
      </trkpt>
      <trkpt lat="42.54129" lon="2.053">
        <ele>1765.7831520125</ele>
        <time>2000-05-11T12:53:52.997</time>
      </trkpt>
      <trkpt lat="42.5413" lon="2.05299">
        <ele>1765.3300347241</ele>
        <time>2000-05-11T12:53:53.997</time>
      </trkpt>
      <trkpt lat="42.54131" lon="2.05299">
        <ele>1764.8106568836</ele>
        <time>2000-05-11T12:53:54.997</time>
      </trkpt>
      <trkpt lat="42.54131" lon="2.05298">
        <ele>1764.7537095685</ele>
        <time>2000-05-11T12:53:55.997</time>
      </trkpt>
      <trkpt lat="42.54132" lon="2.05296">
        <ele>1764.8179271301</ele>
        <time>2000-05-11T12:53:56.998</time>
      </trkpt>
      <trkpt lat="42.54133" lon="2.05295">
        <ele>1764.756317047</ele>
        <time>2000-05-11T12:53:57.998</time>
      </trkpt>
      <trkpt lat="42.54134" lon="2.05294">
        <ele>1764.9521755831</ele>
        <time>2000-05-11T12:53:58.997</time>
      </trkpt>
      <trkpt lat="42.54136" lon="2.05293">
        <ele>1765.1498546222</ele>
        <time>2000-05-11T12:53:59.997</time>
      </trkpt>
      <trkpt lat="42.54137" lon="2.05292">
        <ele>1764.917678749</ele>
        <time>2000-05-11T12:54:00.997</time>
      </trkpt>
      <trkpt lat="42.54138" lon="2.05292">
        <ele>1764.468598384</ele>
        <time>2000-05-11T12:54:01.997</time>
      </trkpt>
      <trkpt lat="42.54139" lon="2.05291">
        <ele>1764.4375442235</ele>
        <time>2000-05-11T12:54:02.997</time>
      </trkpt>
      <trkpt lat="42.5414" lon="2.0529">
        <ele>1764.4058600789</ele>
        <time>2000-05-11T12:54:03.997</time>
      </trkpt>
      <trkpt lat="42.54141" lon="2.05289">
        <ele>1764.6120277934</ele>
        <time>2000-05-11T12:54:04.997</time>
      </trkpt>
      <trkpt lat="42.54142" lon="2.05288">
        <ele>1764.78294331</ele>
        <time>2000-05-11T12:54:05.997</time>
      </trkpt>
      <trkpt lat="42.54142" lon="2.05288">
        <ele>1764.9750276703</ele>
        <time>2000-05-11T12:54:06.997</time>
      </trkpt>
      <trkpt lat="42.54143" lon="2.05287">
        <ele>1764.9058121346</ele>
        <time>2000-05-11T12:54:07.997</time>
      </trkpt>
      <trkpt lat="42.54144" lon="2.05286">
        <ele>1764.7741129708</ele>
        <time>2000-05-11T12:54:08.997</time>
      </trkpt>
      <trkpt lat="42.54144" lon="2.05286">
        <ele>1764.560851633</ele>
        <time>2000-05-11T12:54:09.997</time>
      </trkpt>
      <trkpt lat="42.54145" lon="2.05286">
        <ele>1764.3961905574</ele>
        <time>2000-05-11T12:54:10.997</time>
      </trkpt>
      <trkpt lat="42.54145" lon="2.05285">
        <ele>1764.4047951641</ele>
        <time>2000-05-11T12:54:11.997</time>
      </trkpt>
      <trkpt lat="42.54146" lon="2.05284">
        <ele>1764.1933105785</ele>
        <time>2000-05-11T12:54:12.998</time>
      </trkpt>
      <trkpt lat="42.54147" lon="2.05283">
        <ele>1763.9968500752</ele>
        <time>2000-05-11T12:54:13.998</time>
      </trkpt>
      <trkpt lat="42.54148" lon="2.05282">
        <ele>1763.8857337864</ele>
        <time>2000-05-11T12:54:14.998</time>
      </trkpt>
      <trkpt lat="42.54149" lon="2.0528">
        <ele>1764.1851132216</ele>
        <time>2000-05-11T12:54:15.998</time>
      </trkpt>
      <trkpt lat="42.54151" lon="2.05278">
        <ele>1764.7394291099</ele>
        <time>2000-05-11T12:54:16.998</time>
      </trkpt>
      <trkpt lat="42.54151" lon="2.05277">
        <ele>1765.6716901105</ele>
        <time>2000-05-11T12:54:17.998</time>
      </trkpt>
      <trkpt lat="42.54151" lon="2.05277">
        <ele>1766.644959357</ele>
        <time>2000-05-11T12:54:18.998</time>
      </trkpt>
      <trkpt lat="42.54151" lon="2.05277">
        <ele>1767.532884389</ele>
        <time>2000-05-11T12:54:19.998</time>
      </trkpt>
      <trkpt lat="42.54152" lon="2.05277">
        <ele>1767.8558493275</ele>
        <time>2000-05-11T12:54:20.998</time>
      </trkpt>
      <trkpt lat="42.54154" lon="2.05276">
        <ele>1767.5019596927</ele>
        <time>2000-05-11T12:54:21.999</time>
      </trkpt>
      <trkpt lat="42.54155" lon="2.05275">
        <ele>1766.8836167343</ele>
        <time>2000-05-11T12:54:22.999</time>
      </trkpt>
      <trkpt lat="42.54156" lon="2.05274">
        <ele>1766.3090521947</ele>
        <time>2000-05-11T12:54:23.999</time>
      </trkpt>
      <trkpt lat="42.54157" lon="2.05272">
        <ele>1765.7540636407</ele>
        <time>2000-05-11T12:54:24.999</time>
      </trkpt>
      <trkpt lat="42.54158" lon="2.05271">
        <ele>1765.517907948</ele>
        <time>2000-05-11T12:54:25.999</time>
      </trkpt>
      <trkpt lat="42.54158" lon="2.0527">
        <ele>1765.7025238134</ele>
        <time>2000-05-11T12:54:26.999</time>
      </trkpt>
      <trkpt lat="42.54158" lon="2.05269">
        <ele>1765.8164913649</ele>
        <time>2000-05-11T12:54:27.999</time>
      </trkpt>
      <trkpt lat="42.54159" lon="2.05268">
        <ele>1765.2611202188</ele>
        <time>2000-05-11T12:54:28.999</time>
      </trkpt>
      <trkpt lat="42.5416" lon="2.05266">
        <ele>1764.1630265193</ele>
        <time>2000-05-11T12:54:29.999</time>
      </trkpt>
      <trkpt lat="42.54161" lon="2.05266">
        <ele>1762.8153191308</ele>
        <time>2000-05-11T12:54:30.999</time>
      </trkpt>
      <trkpt lat="42.54161" lon="2.05265">
        <ele>1761.284872208</ele>
        <time>2000-05-11T12:54:31.999</time>
      </trkpt>
      <trkpt lat="42.54161" lon="2.05265">
        <ele>1759.9007723389</ele>
        <time>2000-05-11T12:54:32.999</time>
      </trkpt>
      <trkpt lat="42.54162" lon="2.05264">
        <ele>1759.4950058365</ele>
        <time>2000-05-11T12:54:33.999</time>
      </trkpt>
      <trkpt lat="42.54162" lon="2.05263">
        <ele>1759.795152162</ele>
        <time>2000-05-11T12:54:34.999</time>
      </trkpt>
      <trkpt lat="42.54162" lon="2.05262">
        <ele>1760.1860639025</ele>
        <time>2000-05-11T12:54:35.999</time>
      </trkpt>
      <trkpt lat="42.54163" lon="2.05261">
        <ele>1760.7878554003</ele>
        <time>2000-05-11T12:54:37</time>
      </trkpt>
      <trkpt lat="42.54163" lon="2.0526">
        <ele>1761.5913440574</ele>
        <time>2000-05-11T12:54:38</time>
      </trkpt>
      <trkpt lat="42.54163" lon="2.05259">
        <ele>1762.2535634134</ele>
        <time>2000-05-11T12:54:39</time>
      </trkpt>
      <trkpt lat="42.54164" lon="2.05257">
        <ele>1762.7099635191</ele>
        <time>2000-05-11T12:54:39.998</time>
      </trkpt>
      <trkpt lat="42.54165" lon="2.05256">
        <ele>1763.4306606542</ele>
        <time>2000-05-11T12:54:40.998</time>
      </trkpt>
      <trkpt lat="42.54165" lon="2.05254">
        <ele>1764.2541852968</ele>
        <time>2000-05-11T12:54:41.998</time>
      </trkpt>
      <trkpt lat="42.54166" lon="2.05253">
        <ele>1764.9892059468</ele>
        <time>2000-05-11T12:54:42.998</time>
      </trkpt>
      <trkpt lat="42.54166" lon="2.05252">
        <ele>1765.6432286171</ele>
        <time>2000-05-11T12:54:43.998</time>
      </trkpt>
      <trkpt lat="42.54168" lon="2.05252">
        <ele>1765.9730570819</ele>
        <time>2000-05-11T12:54:44.998</time>
      </trkpt>
      <trkpt lat="42.54168" lon="2.0525">
        <ele>1766.2688628467</ele>
        <time>2000-05-11T12:54:45.998</time>
      </trkpt>
      <trkpt lat="42.54168" lon="2.0525">
        <ele>1766.3463468743</ele>
        <time>2000-05-11T12:54:46.998</time>
      </trkpt>
      <trkpt lat="42.54168" lon="2.05247">
        <ele>1766.0474175369</ele>
        <time>2000-05-11T12:54:47.998</time>
      </trkpt>
      <trkpt lat="42.54169" lon="2.05247">
        <ele>1765.5300072033</ele>
        <time>2000-05-11T12:54:48.998</time>
      </trkpt>
      <trkpt lat="42.54169" lon="2.05246">
        <ele>1765.4381897602</ele>
        <time>2000-05-11T12:54:49.998</time>
      </trkpt>
      <trkpt lat="42.5417" lon="2.05245">
        <ele>1765.1611830287</ele>
        <time>2000-05-11T12:54:50.998</time>
      </trkpt>
      <trkpt lat="42.54171" lon="2.05244">
        <ele>1764.8163498472</ele>
        <time>2000-05-11T12:54:51.998</time>
      </trkpt>
      <trkpt lat="42.54171" lon="2.05244">
        <ele>1764.7347368643</ele>
        <time>2000-05-11T12:54:52.998</time>
      </trkpt>
      <trkpt lat="42.54171" lon="2.05242">
        <ele>1765.1483630387</ele>
        <time>2000-05-11T12:54:54</time>
      </trkpt>
      <trkpt lat="42.54171" lon="2.05242">
        <ele>1765.4836435182</ele>
        <time>2000-05-11T12:54:55</time>
      </trkpt>
      <trkpt lat="42.54172" lon="2.05242">
        <ele>1765.7769532012</ele>
        <time>2000-05-11T12:54:55.998</time>
      </trkpt>
      <trkpt lat="42.54172" lon="2.05242">
        <ele>1766.138089334</ele>
        <time>2000-05-11T12:54:56.998</time>
      </trkpt>
      <trkpt lat="42.54173" lon="2.0524">
        <ele>1766.0504371235</ele>
        <time>2000-05-11T12:54:57.994</time>
      </trkpt>
      <trkpt lat="42.54175" lon="2.05238">
        <ele>1765.8360596051</ele>
        <time>2000-05-11T12:54:58.994</time>
      </trkpt>
      <trkpt lat="42.54176" lon="2.05238">
        <ele>1765.5510823686</ele>
        <time>2000-05-11T12:54:59.994</time>
      </trkpt>
      <trkpt lat="42.54176" lon="2.05238">
        <ele>1765.3122329675</ele>
        <time>2000-05-11T12:55:00.994</time>
      </trkpt>
      <trkpt lat="42.54176" lon="2.05238">
        <ele>1765.0733835664</ele>
        <time>2000-05-11T12:55:01.994</time>
      </trkpt>
      <trkpt lat="42.54177" lon="2.05237">
        <ele>1765.2514993086</ele>
        <time>2000-05-11T12:55:02.994</time>
      </trkpt>
      <trkpt lat="42.54179" lon="2.05236">
        <ele>1765.1197224896</ele>
        <time>2000-05-11T12:55:03.994</time>
      </trkpt>
      <trkpt lat="42.54181" lon="2.05235">
        <ele>1765.2030283678</ele>
        <time>2000-05-11T12:55:04.994</time>
      </trkpt>
      <trkpt lat="42.54182" lon="2.05234">
        <ele>1765.3863707731</ele>
        <time>2000-05-11T12:55:05.994</time>
      </trkpt>
      <trkpt lat="42.54184" lon="2.05233">
        <ele>1765.7410266371</ele>
        <time>2000-05-11T12:55:06.994</time>
      </trkpt>
      <trkpt lat="42.54184" lon="2.05233">
        <ele>1766.2505043896</ele>
        <time>2000-05-11T12:55:07.994</time>
      </trkpt>
      <trkpt lat="42.54184" lon="2.05233">
        <ele>1766.7893360429</ele>
        <time>2000-05-11T12:55:08.994</time>
      </trkpt>
      <trkpt lat="42.54185" lon="2.05232">
        <ele>1767.0728535434</ele>
        <time>2000-05-11T12:55:09.994</time>
      </trkpt>
      <trkpt lat="42.54185" lon="2.0523">
        <ele>1767.5764648139</ele>
        <time>2000-05-11T12:55:10.994</time>
      </trkpt>
      <trkpt lat="42.54186" lon="2.05229">
        <ele>1767.759616263</ele>
        <time>2000-05-11T12:55:11.996</time>
      </trkpt>
      <trkpt lat="42.54186" lon="2.05229">
        <ele>1767.8197690237</ele>
        <time>2000-05-11T12:55:12.996</time>
      </trkpt>
      <trkpt lat="42.54186" lon="2.05228">
        <ele>1767.8279774809</ele>
        <time>2000-05-11T12:55:13.997</time>
      </trkpt>
      <trkpt lat="42.54186" lon="2.05226">
        <ele>1767.9020355344</ele>
        <time>2000-05-11T12:55:14.997</time>
      </trkpt>
      <trkpt lat="42.54187" lon="2.05224">
        <ele>1767.432181197</ele>
        <time>2000-05-11T12:55:15.997</time>
      </trkpt>
      <trkpt lat="42.54187" lon="2.05224">
        <ele>1766.7659798497</ele>
        <time>2000-05-11T12:55:16.997</time>
      </trkpt>
      <trkpt lat="42.54187" lon="2.05224">
        <ele>1766.2779727641</ele>
        <time>2000-05-11T12:55:17.997</time>
      </trkpt>
      <trkpt lat="42.54188" lon="2.05223">
        <ele>1765.7964118462</ele>
        <time>2000-05-11T12:55:18.997</time>
      </trkpt>
      <trkpt lat="42.54189" lon="2.05222">
        <ele>1765.7310712514</ele>
        <time>2000-05-11T12:55:19.997</time>
      </trkpt>
      <trkpt lat="42.54189" lon="2.05221">
        <ele>1765.8394311413</ele>
        <time>2000-05-11T12:55:20.997</time>
      </trkpt>
      <trkpt lat="42.54188" lon="2.05219">
        <ele>1766.2983800573</ele>
        <time>2000-05-11T12:55:21.997</time>
      </trkpt>
      <trkpt lat="42.54188" lon="2.05218">
        <ele>1766.5176368698</ele>
        <time>2000-05-11T12:55:22.997</time>
      </trkpt>
      <trkpt lat="42.54189" lon="2.05216">
        <ele>1766.6727878727</ele>
        <time>2000-05-11T12:55:23.997</time>
      </trkpt>
      <trkpt lat="42.54189" lon="2.05214">
        <ele>1766.4229160588</ele>
        <time>2000-05-11T12:55:24.997</time>
      </trkpt>
      <trkpt lat="42.54189" lon="2.05211">
        <ele>1766.663112486</ele>
        <time>2000-05-11T12:55:25.997</time>
      </trkpt>
      <trkpt lat="42.54189" lon="2.0521">
        <ele>1767.0136001004</ele>
        <time>2000-05-11T12:55:26.997</time>
      </trkpt>
      <trkpt lat="42.54189" lon="2.05209">
        <ele>1767.305359664</ele>
        <time>2000-05-11T12:55:27.997</time>
      </trkpt>
      <trkpt lat="42.5419" lon="2.05208">
        <ele>1767.7385552621</ele>
        <time>2000-05-11T12:55:28.997</time>
      </trkpt>
      <trkpt lat="42.5419" lon="2.05208">
        <ele>1768.2055349311</ele>
        <time>2000-05-11T12:55:29.997</time>
      </trkpt>
      <trkpt lat="42.54189" lon="2.05205">
        <ele>1768.769431459</ele>
        <time>2000-05-11T12:55:30.999</time>
      </trkpt>
      <trkpt lat="42.5419" lon="2.05204">
        <ele>1769.1063049605</ele>
        <time>2000-05-11T12:55:31.999</time>
      </trkpt>
      <trkpt lat="42.5419" lon="2.05203">
        <ele>1769.7054146256</ele>
        <time>2000-05-11T12:55:32.999</time>
      </trkpt>
      <trkpt lat="42.5419" lon="2.05202">
        <ele>1770.4287206424</ele>
        <time>2000-05-11T12:55:33.999</time>
      </trkpt>
      <trkpt lat="42.54191" lon="2.05201">
        <ele>1771.2365699138</ele>
        <time>2000-05-11T12:55:34.999</time>
      </trkpt>
      <trkpt lat="42.54191" lon="2.05201">
        <ele>1771.5075156946</ele>
        <time>2000-05-11T12:55:35.999</time>
      </trkpt>
      <trkpt lat="42.54191" lon="2.052">
        <ele>1771.8061155451</ele>
        <time>2000-05-11T12:55:36.997</time>
      </trkpt>
      <trkpt lat="42.54191" lon="2.05199">
        <ele>1772.1634914372</ele>
        <time>2000-05-11T12:55:37.997</time>
      </trkpt>
      <trkpt lat="42.54191" lon="2.05198">
        <ele>1772.5025863033</ele>
        <time>2000-05-11T12:55:38.999</time>
      </trkpt>
      <trkpt lat="42.54191" lon="2.05198">
        <ele>1772.7571379147</ele>
        <time>2000-05-11T12:55:39.999</time>
      </trkpt>
      <trkpt lat="42.5419" lon="2.05197">
        <ele>1773.0245095145</ele>
        <time>2000-05-11T12:55:40.999</time>
      </trkpt>
      <trkpt lat="42.5419" lon="2.05197">
        <ele>1773.3758632299</ele>
        <time>2000-05-11T12:55:41.999</time>
      </trkpt>
      <trkpt lat="42.54189" lon="2.05196">
        <ele>1773.4031342437</ele>
        <time>2000-05-11T12:55:42.999</time>
      </trkpt>
      <trkpt lat="42.54191" lon="2.05195">
        <ele>1773.49994797</ele>
        <time>2000-05-11T12:55:43.999</time>
      </trkpt>
      <trkpt lat="42.54192" lon="2.05193">
        <ele>1773.7860166594</ele>
        <time>2000-05-11T12:55:44.999</time>
      </trkpt>
      <trkpt lat="42.54192" lon="2.05192">
        <ele>1774.1220941378</ele>
        <time>2000-05-11T12:55:45.999</time>
      </trkpt>
      <trkpt lat="42.54193" lon="2.05191">
        <ele>1774.4596442007</ele>
        <time>2000-05-11T12:55:46.999</time>
      </trkpt>
      <trkpt lat="42.54194" lon="2.0519">
        <ele>1774.739132908</ele>
        <time>2000-05-11T12:55:47.999</time>
      </trkpt>
      <trkpt lat="42.54195" lon="2.05189">
        <ele>1774.6636475803</ele>
        <time>2000-05-11T12:55:48.999</time>
      </trkpt>
      <trkpt lat="42.54194" lon="2.05187">
        <ele>1774.3997913713</ele>
        <time>2000-05-11T12:55:49.999</time>
      </trkpt>
      <trkpt lat="42.54195" lon="2.05186">
        <ele>1773.4758612687</ele>
        <time>2000-05-11T12:55:50.999</time>
      </trkpt>
      <trkpt lat="42.54195" lon="2.05185">
        <ele>1772.4392630005</ele>
        <time>2000-05-11T12:55:51.999</time>
      </trkpt>
      <trkpt lat="42.54195" lon="2.05185">
        <ele>1771.5840224769</ele>
        <time>2000-05-11T12:55:52.999</time>
      </trkpt>
      <trkpt lat="42.54194" lon="2.05184">
        <ele>1770.8498341441</ele>
        <time>2000-05-11T12:55:53.999</time>
      </trkpt>
      <trkpt lat="42.54193" lon="2.05183">
        <ele>1770.2057624083</ele>
        <time>2000-05-11T12:55:54.999</time>
      </trkpt>
      <trkpt lat="42.54192" lon="2.05182">
        <ele>1770.2436379189</ele>
        <time>2000-05-11T12:55:55.999</time>
      </trkpt>
      <trkpt lat="42.54192" lon="2.0518">
        <ele>1770.2009300591</ele>
        <time>2000-05-11T12:55:56.999</time>
      </trkpt>
      <trkpt lat="42.54192" lon="2.05179">
        <ele>1770.0976577146</ele>
        <time>2000-05-11T12:55:57.999</time>
      </trkpt>
      <trkpt lat="42.54193" lon="2.05179">
        <ele>1769.9882495981</ele>
        <time>2000-05-11T12:55:58.999</time>
      </trkpt>
      <trkpt lat="42.54193" lon="2.05178">
        <ele>1769.8628147554</ele>
        <time>2000-05-11T12:55:59.999</time>
      </trkpt>
      <trkpt lat="42.54193" lon="2.05176">
        <ele>1769.5427214537</ele>
        <time>2000-05-11T12:56:00.999</time>
      </trkpt>
      <trkpt lat="42.54194" lon="2.05174">
        <ele>1769.2385739211</ele>
        <time>2000-05-11T12:56:01.999</time>
      </trkpt>
      <trkpt lat="42.54195" lon="2.05173">
        <ele>1768.9926713759</ele>
        <time>2000-05-11T12:56:02.999</time>
      </trkpt>
      <trkpt lat="42.54196" lon="2.05171">
        <ele>1768.8147640867</ele>
        <time>2000-05-11T12:56:03.999</time>
      </trkpt>
      <trkpt lat="42.54197" lon="2.05171">
        <ele>1768.539498562</ele>
        <time>2000-05-11T12:56:04.999</time>
      </trkpt>
      <trkpt lat="42.54197" lon="2.05171">
        <ele>1768.3634933239</ele>
        <time>2000-05-11T12:56:05.999</time>
      </trkpt>
      <trkpt lat="42.54197" lon="2.05171">
        <ele>1768.363321268</ele>
        <time>2000-05-11T12:56:06.999</time>
      </trkpt>
      <trkpt lat="42.54198" lon="2.05169">
        <ele>1768.4983967507</ele>
        <time>2000-05-11T12:56:07.999</time>
      </trkpt>
      <trkpt lat="42.54198" lon="2.05168">
        <ele>1768.5818576459</ele>
        <time>2000-05-11T12:56:08.999</time>
      </trkpt>
      <trkpt lat="42.54199" lon="2.05166">
        <ele>1768.6621037619</ele>
        <time>2000-05-11T12:56:09.999</time>
      </trkpt>
      <trkpt lat="42.542" lon="2.05165">
        <ele>1768.834828444</ele>
        <time>2000-05-11T12:56:10.999</time>
      </trkpt>
      <trkpt lat="42.542" lon="2.05164">
        <ele>1768.9637704372</ele>
        <time>2000-05-11T12:56:11.998</time>
      </trkpt>
      <trkpt lat="42.54201" lon="2.05162">
        <ele>1769.5492791684</ele>
        <time>2000-05-11T12:56:12.998</time>
      </trkpt>
      <trkpt lat="42.54201" lon="2.05162">
        <ele>1770.1511747204</ele>
        <time>2000-05-11T12:56:13.998</time>
      </trkpt>
      <trkpt lat="42.54201" lon="2.05161">
        <ele>1770.8900207892</ele>
        <time>2000-05-11T12:56:14.998</time>
      </trkpt>
      <trkpt lat="42.54202" lon="2.05159">
        <ele>1771.2319508415</ele>
        <time>2000-05-11T12:56:15.998</time>
      </trkpt>
      <trkpt lat="42.54202" lon="2.05158">
        <ele>1771.2773511989</ele>
        <time>2000-05-11T12:56:16.998</time>
      </trkpt>
      <trkpt lat="42.54203" lon="2.05157">
        <ele>1770.5167251714</ele>
        <time>2000-05-11T12:56:17.998</time>
      </trkpt>
      <trkpt lat="42.54203" lon="2.05156">
        <ele>1769.9470486755</ele>
        <time>2000-05-11T12:56:18.998</time>
      </trkpt>
      <trkpt lat="42.54205" lon="2.05154">
        <ele>1769.7449139571</ele>
        <time>2000-05-11T12:56:19.998</time>
      </trkpt>
      <trkpt lat="42.54206" lon="2.05154">
        <ele>1769.7852763355</ele>
        <time>2000-05-11T12:56:20.998</time>
      </trkpt>
      <trkpt lat="42.54206" lon="2.05151">
        <ele>1770.7616216186</ele>
        <time>2000-05-11T12:56:21.998</time>
      </trkpt>
      <trkpt lat="42.54206" lon="2.05151">
        <ele>1771.8978198342</ele>
        <time>2000-05-11T12:56:22.998</time>
      </trkpt>
      <trkpt lat="42.54206" lon="2.05151">
        <ele>1772.9830374345</ele>
        <time>2000-05-11T12:56:23.998</time>
      </trkpt>
      <trkpt lat="42.54206" lon="2.0515">
        <ele>1773.7424270352</ele>
        <time>2000-05-11T12:56:24.998</time>
      </trkpt>
      <trkpt lat="42.54207" lon="2.0515">
        <ele>1774.5313049782</ele>
        <time>2000-05-11T12:56:25.996</time>
      </trkpt>
      <trkpt lat="42.54208" lon="2.05149">
        <ele>1774.6665042115</ele>
        <time>2000-05-11T12:56:26.996</time>
      </trkpt>
      <trkpt lat="42.54208" lon="2.05148">
        <ele>1774.9526980054</ele>
        <time>2000-05-11T12:56:27.996</time>
      </trkpt>
      <trkpt lat="42.5421" lon="2.05146">
        <ele>1775.3729052501</ele>
        <time>2000-05-11T12:56:28.996</time>
      </trkpt>
      <trkpt lat="42.54211" lon="2.05146">
        <ele>1775.6756327277</ele>
        <time>2000-05-11T12:56:29.996</time>
      </trkpt>
      <trkpt lat="42.54211" lon="2.05146">
        <ele>1776.0215082591</ele>
        <time>2000-05-11T12:56:30.996</time>
      </trkpt>
      <trkpt lat="42.54211" lon="2.05146">
        <ele>1776.4253919791</ele>
        <time>2000-05-11T12:56:31.996</time>
      </trkpt>
      <trkpt lat="42.54212" lon="2.05144">
        <ele>1776.705354847</ele>
        <time>2000-05-11T12:56:32.996</time>
      </trkpt>
      <trkpt lat="42.54213" lon="2.05142">
        <ele>1776.6534357307</ele>
        <time>2000-05-11T12:56:33.995</time>
      </trkpt>
      <trkpt lat="42.54213" lon="2.05141">
        <ele>1776.757231283</ele>
        <time>2000-05-11T12:56:34.995</time>
      </trkpt>
      <trkpt lat="42.54213" lon="2.05139">
        <ele>1776.7581588076</ele>
        <time>2000-05-11T12:56:35.991</time>
      </trkpt>
      <trkpt lat="42.54214" lon="2.05138">
        <ele>1776.6149882779</ele>
        <time>2000-05-11T12:56:36.991</time>
      </trkpt>
      <trkpt lat="42.54215" lon="2.05137">
        <ele>1776.2881135514</ele>
        <time>2000-05-11T12:56:37.991</time>
      </trkpt>
      <trkpt lat="42.54216" lon="2.05136">
        <ele>1775.4251744792</ele>
        <time>2000-05-11T12:56:38.991</time>
      </trkpt>
      <trkpt lat="42.54217" lon="2.05136">
        <ele>1773.7150352366</ele>
        <time>2000-05-11T12:56:39.992</time>
      </trkpt>
      <trkpt lat="42.54217" lon="2.05134">
        <ele>1772.2930216866</ele>
        <time>2000-05-11T12:56:40.992</time>
      </trkpt>
      <trkpt lat="42.54218" lon="2.05134">
        <ele>1771.1179229314</ele>
        <time>2000-05-11T12:56:41.992</time>
      </trkpt>
      <trkpt lat="42.54218" lon="2.05132">
        <ele>1770.1654239748</ele>
        <time>2000-05-11T12:56:42.992</time>
      </trkpt>
      <trkpt lat="42.54218" lon="2.05131">
        <ele>1769.8301854901</ele>
        <time>2000-05-11T12:56:43.992</time>
      </trkpt>
      <trkpt lat="42.54218" lon="2.0513">
        <ele>1770.082414555</ele>
        <time>2000-05-11T12:56:44.992</time>
      </trkpt>
      <trkpt lat="42.54218" lon="2.05129">
        <ele>1770.0896360377</ele>
        <time>2000-05-11T12:56:45.992</time>
      </trkpt>
      <trkpt lat="42.54218" lon="2.05128">
        <ele>1769.8252295259</ele>
        <time>2000-05-11T12:56:46.992</time>
      </trkpt>
      <trkpt lat="42.54219" lon="2.05127">
        <ele>1769.1607870905</ele>
        <time>2000-05-11T12:56:47.992</time>
      </trkpt>
      <trkpt lat="42.54219" lon="2.05126">
        <ele>1768.464543297</ele>
        <time>2000-05-11T12:56:48.992</time>
      </trkpt>
      <trkpt lat="42.5422" lon="2.05124">
        <ele>1767.7147798467</ele>
        <time>2000-05-11T12:56:49.992</time>
      </trkpt>
      <trkpt lat="42.5422" lon="2.05123">
        <ele>1766.9873122804</ele>
        <time>2000-05-11T12:56:50.992</time>
      </trkpt>
      <trkpt lat="42.5422" lon="2.05122">
        <ele>1766.3969651651</ele>
        <time>2000-05-11T12:56:51.992</time>
      </trkpt>
      <trkpt lat="42.5422" lon="2.05121">
        <ele>1766.1549107144</ele>
        <time>2000-05-11T12:56:52.992</time>
      </trkpt>
      <trkpt lat="42.54219" lon="2.05119">
        <ele>1765.9145126754</ele>
        <time>2000-05-11T12:56:53.992</time>
      </trkpt>
      <trkpt lat="42.54219" lon="2.05118">
        <ele>1765.7576127814</ele>
        <time>2000-05-11T12:56:54.992</time>
      </trkpt>
      <trkpt lat="42.54219" lon="2.05116">
        <ele>1765.9227044543</ele>
        <time>2000-05-11T12:56:55.992</time>
      </trkpt>
      <trkpt lat="42.54219" lon="2.05116">
        <ele>1766.1194869302</ele>
        <time>2000-05-11T12:56:56.992</time>
      </trkpt>
      <trkpt lat="42.54219" lon="2.05115">
        <ele>1766.5084540622</ele>
        <time>2000-05-11T12:56:57.992</time>
      </trkpt>
      <trkpt lat="42.54218" lon="2.05114">
        <ele>1766.9471106479</ele>
        <time>2000-05-11T12:56:58.992</time>
      </trkpt>
      <trkpt lat="42.54218" lon="2.05113">
        <ele>1767.6182900265</ele>
        <time>2000-05-11T12:56:59.992</time>
      </trkpt>
      <trkpt lat="42.54217" lon="2.05112">
        <ele>1768.1567076808</ele>
        <time>2000-05-11T12:57:00.992</time>
      </trkpt>
      <trkpt lat="42.54217" lon="2.05111">
        <ele>1768.6180685176</ele>
        <time>2000-05-11T12:57:01.992</time>
      </trkpt>
      <trkpt lat="42.54216" lon="2.05109">
        <ele>1768.5765443873</ele>
        <time>2000-05-11T12:57:02.993</time>
      </trkpt>
      <trkpt lat="42.54216" lon="2.05108">
        <ele>1768.5027469644</ele>
        <time>2000-05-11T12:57:03.993</time>
      </trkpt>
      <trkpt lat="42.54216" lon="2.05107">
        <ele>1768.2114939967</ele>
        <time>2000-05-11T12:57:04.993</time>
      </trkpt>
      <trkpt lat="42.54215" lon="2.05107">
        <ele>1767.7009240564</ele>
        <time>2000-05-11T12:57:05.993</time>
      </trkpt>
      <trkpt lat="42.54215" lon="2.05106">
        <ele>1767.4310249681</ele>
        <time>2000-05-11T12:57:06.993</time>
      </trkpt>
      <trkpt lat="42.54214" lon="2.05105">
        <ele>1767.6710583357</ele>
        <time>2000-05-11T12:57:07.993</time>
      </trkpt>
      <trkpt lat="42.54214" lon="2.05104">
        <ele>1768.0292361017</ele>
        <time>2000-05-11T12:57:08.993</time>
      </trkpt>
      <trkpt lat="42.54214" lon="2.05102">
        <ele>1768.5223455142</ele>
        <time>2000-05-11T12:57:09.993</time>
      </trkpt>
      <trkpt lat="42.54214" lon="2.05101">
        <ele>1769.0273888294</ele>
        <time>2000-05-11T12:57:10.993</time>
      </trkpt>
      <trkpt lat="42.54214" lon="2.051">
        <ele>1769.1695537554</ele>
        <time>2000-05-11T12:57:11.993</time>
      </trkpt>
      <trkpt lat="42.54214" lon="2.051">
        <ele>1768.7046946606</ele>
        <time>2000-05-11T12:57:12.993</time>
      </trkpt>
      <trkpt lat="42.54214" lon="2.05099">
        <ele>1768.1480457325</ele>
        <time>2000-05-11T12:57:13.993</time>
      </trkpt>
      <trkpt lat="42.54214" lon="2.05097">
        <ele>1767.5022342874</ele>
        <time>2000-05-11T12:57:14.993</time>
      </trkpt>
      <trkpt lat="42.54214" lon="2.05096">
        <ele>1767.0541207645</ele>
        <time>2000-05-11T12:57:15.993</time>
      </trkpt>
      <trkpt lat="42.54216" lon="2.05094">
        <ele>1766.9610107346</ele>
        <time>2000-05-11T12:57:16.993</time>
      </trkpt>
      <trkpt lat="42.54216" lon="2.05093">
        <ele>1767.267545251</ele>
        <time>2000-05-11T12:57:17.993</time>
      </trkpt>
      <trkpt lat="42.54217" lon="2.05091">
        <ele>1767.4728129469</ele>
        <time>2000-05-11T12:57:18.993</time>
      </trkpt>
      <trkpt lat="42.54217" lon="2.05089">
        <ele>1767.8712375831</ele>
        <time>2000-05-11T12:57:19.993</time>
      </trkpt>
      <trkpt lat="42.54218" lon="2.05087">
        <ele>1768.4230621077</ele>
        <time>2000-05-11T12:57:20.993</time>
      </trkpt>
      <trkpt lat="42.54218" lon="2.05086">
        <ele>1768.8158839433</ele>
        <time>2000-05-11T12:57:21.993</time>
      </trkpt>
      <trkpt lat="42.54218" lon="2.05086">
        <ele>1769.2797956392</ele>
        <time>2000-05-11T12:57:22.993</time>
      </trkpt>
      <trkpt lat="42.54218" lon="2.05085">
        <ele>1769.8282989159</ele>
        <time>2000-05-11T12:57:23.993</time>
      </trkpt>
      <trkpt lat="42.54217" lon="2.05082">
        <ele>1770.2295773573</ele>
        <time>2000-05-11T12:57:24.996</time>
      </trkpt>
      <trkpt lat="42.54216" lon="2.05082">
        <ele>1770.3940843208</ele>
        <time>2000-05-11T12:57:25.996</time>
      </trkpt>
      <trkpt lat="42.54217" lon="2.05081">
        <ele>1770.1867305737</ele>
        <time>2000-05-11T12:57:26.996</time>
      </trkpt>
      <trkpt lat="42.54217" lon="2.0508">
        <ele>1769.3195861463</ele>
        <time>2000-05-11T12:57:27.996</time>
      </trkpt>
      <trkpt lat="42.54218" lon="2.05079">
        <ele>1768.1331406752</ele>
        <time>2000-05-11T12:57:28.996</time>
      </trkpt>
      <trkpt lat="42.54218" lon="2.05078">
        <ele>1766.905793556</ele>
        <time>2000-05-11T12:57:29.996</time>
      </trkpt>
      <trkpt lat="42.54219" lon="2.05077">
        <ele>1765.4993813341</ele>
        <time>2000-05-11T12:57:30.996</time>
      </trkpt>
      <trkpt lat="42.54219" lon="2.05076">
        <ele>1764.5141855549</ele>
        <time>2000-05-11T12:57:31.996</time>
      </trkpt>
      <trkpt lat="42.5422" lon="2.05075">
        <ele>1764.1438543489</ele>
        <time>2000-05-11T12:57:32.996</time>
      </trkpt>
      <trkpt lat="42.5422" lon="2.05074">
        <ele>1764.0240695139</ele>
        <time>2000-05-11T12:57:33.996</time>
      </trkpt>
      <trkpt lat="42.5422" lon="2.05074">
        <ele>1763.9042609248</ele>
        <time>2000-05-11T12:57:34.996</time>
      </trkpt>
      <trkpt lat="42.5422" lon="2.05071">
        <ele>1764.3368293574</ele>
        <time>2000-05-11T12:57:35.996</time>
      </trkpt>
      <trkpt lat="42.5422" lon="2.05071">
        <ele>1764.7233056087</ele>
        <time>2000-05-11T12:57:36.996</time>
      </trkpt>
      <trkpt lat="42.5422" lon="2.0507">
        <ele>1765.3269901801</ele>
        <time>2000-05-11T12:57:37.994</time>
      </trkpt>
      <trkpt lat="42.54221" lon="2.05068">
        <ele>1765.7312113142</ele>
        <time>2000-05-11T12:57:38.994</time>
      </trkpt>
      <trkpt lat="42.54222" lon="2.05067">
        <ele>1765.8871308541</ele>
        <time>2000-05-11T12:57:39.994</time>
      </trkpt>
      <trkpt lat="42.54223" lon="2.05066">
        <ele>1765.7332458101</ele>
        <time>2000-05-11T12:57:40.994</time>
      </trkpt>
      <trkpt lat="42.54223" lon="2.05064">
        <ele>1765.8735045256</ele>
        <time>2000-05-11T12:57:41.994</time>
      </trkpt>
      <trkpt lat="42.54224" lon="2.05063">
        <ele>1765.8078284839</ele>
        <time>2000-05-11T12:57:42.994</time>
      </trkpt>
      <trkpt lat="42.54225" lon="2.05061">
        <ele>1766.0234544581</ele>
        <time>2000-05-11T12:57:43.994</time>
      </trkpt>
      <trkpt lat="42.54226" lon="2.05059">
        <ele>1766.7640979309</ele>
        <time>2000-05-11T12:57:44.994</time>
      </trkpt>
      <trkpt lat="42.54226" lon="2.05057">
        <ele>1767.7731079137</ele>
        <time>2000-05-11T12:57:45.994</time>
      </trkpt>
      <trkpt lat="42.54226" lon="2.05054">
        <ele>1768.7326753953</ele>
        <time>2000-05-11T12:57:46.994</time>
      </trkpt>
      <trkpt lat="42.54226" lon="2.05053">
        <ele>1769.4444710068</ele>
        <time>2000-05-11T12:57:47.994</time>
      </trkpt>
      <trkpt lat="42.54226" lon="2.05052">
        <ele>1770.3020426784</ele>
        <time>2000-05-11T12:57:48.994</time>
      </trkpt>
      <trkpt lat="42.54227" lon="2.05052">
        <ele>1770.9592208464</ele>
        <time>2000-05-11T12:57:49.994</time>
      </trkpt>
      <trkpt lat="42.54228" lon="2.0505">
        <ele>1771.1580153845</ele>
        <time>2000-05-11T12:57:50.994</time>
      </trkpt>
      <trkpt lat="42.54228" lon="2.05049">
        <ele>1771.0122641588</ele>
        <time>2000-05-11T12:57:51.994</time>
      </trkpt>
      <trkpt lat="42.54229" lon="2.05047">
        <ele>1771.1588084582</ele>
        <time>2000-05-11T12:57:52.994</time>
      </trkpt>
      <trkpt lat="42.54229" lon="2.05046">
        <ele>1771.210759924</ele>
        <time>2000-05-11T12:57:53.994</time>
      </trkpt>
      <trkpt lat="42.5423" lon="2.05045">
        <ele>1770.8260517573</ele>
        <time>2000-05-11T12:57:54.994</time>
      </trkpt>
      <trkpt lat="42.5423" lon="2.05045">
        <ele>1770.5091343034</ele>
        <time>2000-05-11T12:57:55.994</time>
      </trkpt>
      <trkpt lat="42.5423" lon="2.05044">
        <ele>1770.3624229014</ele>
        <time>2000-05-11T12:57:56.994</time>
      </trkpt>
      <trkpt lat="42.54231" lon="2.05041">
        <ele>1770.4847862173</ele>
        <time>2000-05-11T12:57:57.994</time>
      </trkpt>
      <trkpt lat="42.54231" lon="2.05041">
        <ele>1770.6361051256</ele>
        <time>2000-05-11T12:57:58.994</time>
      </trkpt>
      <trkpt lat="42.54232" lon="2.0504">
        <ele>1771.0002657481</ele>
        <time>2000-05-11T12:57:59.994</time>
      </trkpt>
      <trkpt lat="42.54232" lon="2.05039">
        <ele>1771.2622307809</ele>
        <time>2000-05-11T12:58:00.994</time>
      </trkpt>
      <trkpt lat="42.54232" lon="2.05038">
        <ele>1771.3802647322</ele>
        <time>2000-05-11T12:58:01.994</time>
      </trkpt>
      <trkpt lat="42.54232" lon="2.05036">
        <ele>1770.9494273217</ele>
        <time>2000-05-11T12:58:02.994</time>
      </trkpt>
      <trkpt lat="42.54233" lon="2.05035">
        <ele>1770.3517374946</ele>
        <time>2000-05-11T12:58:03.994</time>
      </trkpt>
      <trkpt lat="42.54232" lon="2.05033">
        <ele>1769.7653763769</ele>
        <time>2000-05-11T12:58:04.994</time>
      </trkpt>
      <trkpt lat="42.54232" lon="2.05032">
        <ele>1769.2394990638</ele>
        <time>2000-05-11T12:58:05.994</time>
      </trkpt>
      <trkpt lat="42.54232" lon="2.05031">
        <ele>1768.6583235661</ele>
        <time>2000-05-11T12:58:06.994</time>
      </trkpt>
      <trkpt lat="42.54233" lon="2.0503">
        <ele>1768.3022150481</ele>
        <time>2000-05-11T12:58:07.994</time>
      </trkpt>
      <trkpt lat="42.54232" lon="2.05029">
        <ele>1767.8221103001</ele>
        <time>2000-05-11T12:58:08.994</time>
      </trkpt>
      <trkpt lat="42.54232" lon="2.05028">
        <ele>1767.1949430211</ele>
        <time>2000-05-11T12:58:09.994</time>
      </trkpt>
      <trkpt lat="42.54232" lon="2.05028">
        <ele>1766.4731735021</ele>
        <time>2000-05-11T12:58:10.994</time>
      </trkpt>
      <trkpt lat="42.54232" lon="2.05026">
        <ele>1765.6597608142</ele>
        <time>2000-05-11T12:58:11.994</time>
      </trkpt>
      <trkpt lat="42.54231" lon="2.05024">
        <ele>1764.9891927158</ele>
        <time>2000-05-11T12:58:12.996</time>
      </trkpt>
      <trkpt lat="42.5423" lon="2.05022">
        <ele>1764.7547362501</ele>
        <time>2000-05-11T12:58:13.996</time>
      </trkpt>
      <trkpt lat="42.5423" lon="2.0502">
        <ele>1764.669065967</ele>
        <time>2000-05-11T12:58:14.996</time>
      </trkpt>
      <trkpt lat="42.54229" lon="2.05019">
        <ele>1764.6793389041</ele>
        <time>2000-05-11T12:58:15.996</time>
      </trkpt>
      <trkpt lat="42.54229" lon="2.05017">
        <ele>1764.9744971687</ele>
        <time>2000-05-11T12:58:16.996</time>
      </trkpt>
      <trkpt lat="42.54229" lon="2.05016">
        <ele>1765.1147740917</ele>
        <time>2000-05-11T12:58:17.996</time>
      </trkpt>
      <trkpt lat="42.5423" lon="2.05015">
        <ele>1764.8824422499</ele>
        <time>2000-05-11T12:58:18.996</time>
      </trkpt>
      <trkpt lat="42.54229" lon="2.05013">
        <ele>1764.9090923596</ele>
        <time>2000-05-11T12:58:19.996</time>
      </trkpt>
      <trkpt lat="42.5423" lon="2.05011">
        <ele>1765.2582966605</ele>
        <time>2000-05-11T12:58:20.996</time>
      </trkpt>
      <trkpt lat="42.54229" lon="2.0501">
        <ele>1765.6501919746</ele>
        <time>2000-05-11T12:58:21.996</time>
      </trkpt>
      <trkpt lat="42.54229" lon="2.05009">
        <ele>1766.1122257447</ele>
        <time>2000-05-11T12:58:22.996</time>
      </trkpt>
      <trkpt lat="42.54229" lon="2.05007">
        <ele>1766.6901301678</ele>
        <time>2000-05-11T12:58:23.996</time>
      </trkpt>
      <trkpt lat="42.54228" lon="2.05006">
        <ele>1767.054638396</ele>
        <time>2000-05-11T12:58:24.996</time>
      </trkpt>
      <trkpt lat="42.54228" lon="2.05004">
        <ele>1767.0055212155</ele>
        <time>2000-05-11T12:58:25.996</time>
      </trkpt>
      <trkpt lat="42.54228" lon="2.05004">
        <ele>1766.698191672</ele>
        <time>2000-05-11T12:58:26.996</time>
      </trkpt>
      <trkpt lat="42.54228" lon="2.05002">
        <ele>1766.1513465872</ele>
        <time>2000-05-11T12:58:27.996</time>
      </trkpt>
      <trkpt lat="42.54228" lon="2.05001">
        <ele>1765.5796771603</ele>
        <time>2000-05-11T12:58:28.996</time>
      </trkpt>
      <trkpt lat="42.54228" lon="2.05">
        <ele>1765.1571842521</ele>
        <time>2000-05-11T12:58:29.996</time>
      </trkpt>
      <trkpt lat="42.54228" lon="2.04999">
        <ele>1764.9984824426</ele>
        <time>2000-05-11T12:58:30.996</time>
      </trkpt>
      <trkpt lat="42.54228" lon="2.04997">
        <ele>1765.0266130524</ele>
        <time>2000-05-11T12:58:31.996</time>
      </trkpt>
      <trkpt lat="42.54228" lon="2.04996">
        <ele>1765.2193962969</ele>
        <time>2000-05-11T12:58:32.996</time>
      </trkpt>
      <trkpt lat="42.54227" lon="2.04996">
        <ele>1765.2633910883</ele>
        <time>2000-05-11T12:58:33.996</time>
      </trkpt>
      <trkpt lat="42.54226" lon="2.04995">
        <ele>1765.0185879132</ele>
        <time>2000-05-11T12:58:34.996</time>
      </trkpt>
      <trkpt lat="42.54226" lon="2.04994">
        <ele>1764.566842987</ele>
        <time>2000-05-11T12:58:35.996</time>
      </trkpt>
      <trkpt lat="42.54226" lon="2.04993">
        <ele>1764.0926822735</ele>
        <time>2000-05-11T12:58:36.996</time>
      </trkpt>
      <trkpt lat="42.54226" lon="2.04991">
        <ele>1763.8650547404</ele>
        <time>2000-05-11T12:58:37.996</time>
      </trkpt>
      <trkpt lat="42.54227" lon="2.04989">
        <ele>1764.1174962478</ele>
        <time>2000-05-11T12:58:38.996</time>
      </trkpt>
      <trkpt lat="42.54227" lon="2.04987">
        <ele>1764.7210967069</ele>
        <time>2000-05-11T12:58:39.996</time>
      </trkpt>
      <trkpt lat="42.54227" lon="2.04986">
        <ele>1765.5347107729</ele>
        <time>2000-05-11T12:58:40.996</time>
      </trkpt>
      <trkpt lat="42.54227" lon="2.04985">
        <ele>1766.2899778571</ele>
        <time>2000-05-11T12:58:41.996</time>
      </trkpt>
      <trkpt lat="42.54227" lon="2.04984">
        <ele>1766.7198075246</ele>
        <time>2000-05-11T12:58:42.996</time>
      </trkpt>
      <trkpt lat="42.54227" lon="2.04983">
        <ele>1766.7482582554</ele>
        <time>2000-05-11T12:58:43.996</time>
      </trkpt>
      <trkpt lat="42.54226" lon="2.04983">
        <ele>1766.2441726724</ele>
        <time>2000-05-11T12:58:44.996</time>
      </trkpt>
      <trkpt lat="42.54226" lon="2.0498">
        <ele>1765.5695916748</ele>
        <time>2000-05-11T12:58:45.997</time>
      </trkpt>
      <trkpt lat="42.54226" lon="2.04979">
        <ele>1765.0193920033</ele>
        <time>2000-05-11T12:58:46.997</time>
      </trkpt>
      <trkpt lat="42.54226" lon="2.04977">
        <ele>1764.5622420328</ele>
        <time>2000-05-11T12:58:47.997</time>
      </trkpt>
      <trkpt lat="42.54227" lon="2.04976">
        <ele>1764.1624561917</ele>
        <time>2000-05-11T12:58:48.997</time>
      </trkpt>
      <trkpt lat="42.54227" lon="2.04975">
        <ele>1764.2692906741</ele>
        <time>2000-05-11T12:58:49.997</time>
      </trkpt>
      <trkpt lat="42.54227" lon="2.04974">
        <ele>1764.2661712365</ele>
        <time>2000-05-11T12:58:50.997</time>
      </trkpt>
      <trkpt lat="42.54228" lon="2.04974">
        <ele>1763.887621716</ele>
        <time>2000-05-11T12:58:51.997</time>
      </trkpt>
      <trkpt lat="42.54228" lon="2.04974">
        <ele>1763.339912639</ele>
        <time>2000-05-11T12:58:52.997</time>
      </trkpt>
      <trkpt lat="42.54226" lon="2.0497">
        <ele>1763.1355357153</ele>
        <time>2000-05-11T12:58:53.999</time>
      </trkpt>
      <trkpt lat="42.54226" lon="2.04969">
        <ele>1762.8165429424</ele>
        <time>2000-05-11T12:58:54.999</time>
      </trkpt>
      <trkpt lat="42.54227" lon="2.04967">
        <ele>1762.6909756232</ele>
        <time>2000-05-11T12:58:55.999</time>
      </trkpt>
      <trkpt lat="42.54226" lon="2.04965">
        <ele>1763.3136987761</ele>
        <time>2000-05-11T12:58:56.999</time>
      </trkpt>
      <trkpt lat="42.54226" lon="2.04964">
        <ele>1764.1667434376</ele>
        <time>2000-05-11T12:58:57.999</time>
      </trkpt>
      <trkpt lat="42.54226" lon="2.04963">
        <ele>1764.7920937134</ele>
        <time>2000-05-11T12:58:58.999</time>
      </trkpt>
      <trkpt lat="42.54226" lon="2.04962">
        <ele>1765.415656683</ele>
        <time>2000-05-11T12:58:59.999</time>
      </trkpt>
      <trkpt lat="42.54227" lon="2.04961">
        <ele>1765.8642573852</ele>
        <time>2000-05-11T12:59:00.999</time>
      </trkpt>
      <trkpt lat="42.54227" lon="2.0496">
        <ele>1765.655966036</ele>
        <time>2000-05-11T12:59:01.999</time>
      </trkpt>
      <trkpt lat="42.54227" lon="2.04958">
        <ele>1765.3087607659</ele>
        <time>2000-05-11T12:59:02.999</time>
      </trkpt>
      <trkpt lat="42.54227" lon="2.04957">
        <ele>1764.8857366376</ele>
        <time>2000-05-11T12:59:03.999</time>
      </trkpt>
      <trkpt lat="42.54227" lon="2.04956">
        <ele>1764.4238841217</ele>
        <time>2000-05-11T12:59:04.999</time>
      </trkpt>
      <trkpt lat="42.54228" lon="2.04955">
        <ele>1764.1944518531</ele>
        <time>2000-05-11T12:59:05.999</time>
      </trkpt>
      <trkpt lat="42.54228" lon="2.04953">
        <ele>1764.077626935</ele>
        <time>2000-05-11T12:59:06.997</time>
      </trkpt>
      <trkpt lat="42.54228" lon="2.04952">
        <ele>1763.9887852876</ele>
        <time>2000-05-11T12:59:07.997</time>
      </trkpt>
      <trkpt lat="42.54227" lon="2.04951">
        <ele>1763.810776332</ele>
        <time>2000-05-11T12:59:08.997</time>
      </trkpt>
      <trkpt lat="42.54227" lon="2.0495">
        <ele>1763.6929089425</ele>
        <time>2000-05-11T12:59:09.997</time>
      </trkpt>
      <trkpt lat="42.54226" lon="2.04948">
        <ele>1763.4140960829</ele>
        <time>2000-05-11T12:59:10.997</time>
      </trkpt>
      <trkpt lat="42.54226" lon="2.04946">
        <ele>1763.2210636761</ele>
        <time>2000-05-11T12:59:11.997</time>
      </trkpt>
      <trkpt lat="42.54225" lon="2.04945">
        <ele>1762.9403468728</ele>
        <time>2000-05-11T12:59:12.997</time>
      </trkpt>
      <trkpt lat="42.54225" lon="2.04943">
        <ele>1762.6784556013</ele>
        <time>2000-05-11T12:59:13.997</time>
      </trkpt>
      <trkpt lat="42.54225" lon="2.04942">
        <ele>1762.3585598944</ele>
        <time>2000-05-11T12:59:14.997</time>
      </trkpt>
      <trkpt lat="42.54226" lon="2.04941">
        <ele>1762.1346908974</ele>
        <time>2000-05-11T12:59:15.997</time>
      </trkpt>
      <trkpt lat="42.54227" lon="2.04939">
        <ele>1762.178129526</ele>
        <time>2000-05-11T12:59:16.997</time>
      </trkpt>
      <trkpt lat="42.54228" lon="2.04938">
        <ele>1762.4732526371</ele>
        <time>2000-05-11T12:59:17.997</time>
      </trkpt>
      <trkpt lat="42.54228" lon="2.04937">
        <ele>1762.7836220013</ele>
        <time>2000-05-11T12:59:18.997</time>
      </trkpt>
      <trkpt lat="42.54228" lon="2.04935">
        <ele>1763.0916299099</ele>
        <time>2000-05-11T12:59:19.997</time>
      </trkpt>
      <trkpt lat="42.54227" lon="2.04934">
        <ele>1763.5379496777</ele>
        <time>2000-05-11T12:59:20.997</time>
      </trkpt>
      <trkpt lat="42.54226" lon="2.04933">
        <ele>1763.9703281026</ele>
        <time>2000-05-11T12:59:21.997</time>
      </trkpt>
      <trkpt lat="42.54226" lon="2.04932">
        <ele>1764.2135691723</ele>
        <time>2000-05-11T12:59:22.997</time>
      </trkpt>
      <trkpt lat="42.54226" lon="2.04932">
        <ele>1764.5076507695</ele>
        <time>2000-05-11T12:59:23.997</time>
      </trkpt>
      <trkpt lat="42.54226" lon="2.04931">
        <ele>1765.0014944574</ele>
        <time>2000-05-11T12:59:24.997</time>
      </trkpt>
      <trkpt lat="42.54227" lon="2.04929">
        <ele>1765.5992019277</ele>
        <time>2000-05-11T12:59:25.997</time>
      </trkpt>
      <trkpt lat="42.54227" lon="2.04928">
        <ele>1765.8635770069</ele>
        <time>2000-05-11T12:59:26.997</time>
      </trkpt>
      <trkpt lat="42.54227" lon="2.04924">
        <ele>1765.4205864767</ele>
        <time>2000-05-11T12:59:27.996</time>
      </trkpt>
      <trkpt lat="42.54227" lon="2.04923">
        <ele>1765.1254692743</ele>
        <time>2000-05-11T12:59:28.996</time>
      </trkpt>
      <trkpt lat="42.54227" lon="2.04922">
        <ele>1764.7578292288</ele>
        <time>2000-05-11T12:59:29.996</time>
      </trkpt>
      <trkpt lat="42.54227" lon="2.0492">
        <ele>1764.1371003548</ele>
        <time>2000-05-11T12:59:30.996</time>
      </trkpt>
      <trkpt lat="42.54227" lon="2.04919">
        <ele>1763.3372042047</ele>
        <time>2000-05-11T12:59:31.996</time>
      </trkpt>
      <trkpt lat="42.54226" lon="2.04917">
        <ele>1763.3337102205</ele>
        <time>2000-05-11T12:59:32.996</time>
      </trkpt>
      <trkpt lat="42.54226" lon="2.04916">
        <ele>1763.1770126322</ele>
        <time>2000-05-11T12:59:33.996</time>
      </trkpt>
      <trkpt lat="42.54227" lon="2.04913">
        <ele>1763.4184122486</ele>
        <time>2000-05-11T12:59:34.996</time>
      </trkpt>
      <trkpt lat="42.54228" lon="2.04912">
        <ele>1763.2910511322</ele>
        <time>2000-05-11T12:59:35.996</time>
      </trkpt>
      <trkpt lat="42.54229" lon="2.0491">
        <ele>1763.1423904756</ele>
        <time>2000-05-11T12:59:36.996</time>
      </trkpt>
      <trkpt lat="42.54229" lon="2.04909">
        <ele>1763.0853565257</ele>
        <time>2000-05-11T12:59:37.996</time>
      </trkpt>
      <trkpt lat="42.5423" lon="2.04907">
        <ele>1763.4221245976</ele>
        <time>2000-05-11T12:59:38.996</time>
      </trkpt>
      <trkpt lat="42.54231" lon="2.04906">
        <ele>1763.4532264611</ele>
        <time>2000-05-11T12:59:39.996</time>
      </trkpt>
      <trkpt lat="42.54233" lon="2.04904">
        <ele>1764.0936229182</ele>
        <time>2000-05-11T12:59:40.996</time>
      </trkpt>
      <trkpt lat="42.54233" lon="2.04903">
        <ele>1764.7958644664</ele>
        <time>2000-05-11T12:59:41.996</time>
      </trkpt>
      <trkpt lat="42.54232" lon="2.04903">
        <ele>1765.0696107982</ele>
        <time>2000-05-11T12:59:42.996</time>
      </trkpt>
      <trkpt lat="42.54232" lon="2.04901">
        <ele>1764.8443189228</ele>
        <time>2000-05-11T12:59:43.996</time>
      </trkpt>
      <trkpt lat="42.54232" lon="2.04901">
        <ele>1764.4306594756</ele>
        <time>2000-05-11T12:59:44.996</time>
      </trkpt>
      <trkpt lat="42.54233" lon="2.04899">
        <ele>1763.7233335743</ele>
        <time>2000-05-11T12:59:45.996</time>
      </trkpt>
      <trkpt lat="42.54235" lon="2.04898">
        <ele>1762.9590992726</ele>
        <time>2000-05-11T12:59:46.996</time>
      </trkpt>
      <trkpt lat="42.54236" lon="2.04898">
        <ele>1762.3499915143</ele>
        <time>2000-05-11T12:59:47.996</time>
      </trkpt>
      <trkpt lat="42.54236" lon="2.04897">
        <ele>1761.7270818504</ele>
        <time>2000-05-11T12:59:48.996</time>
      </trkpt>
      <trkpt lat="42.54236" lon="2.04896">
        <ele>1760.7815445149</ele>
        <time>2000-05-11T12:59:49.996</time>
      </trkpt>
      <trkpt lat="42.54236" lon="2.04895">
        <ele>1759.4498081947</ele>
        <time>2000-05-11T12:59:50.996</time>
      </trkpt>
      <trkpt lat="42.54235" lon="2.04894">
        <ele>1758.2779084511</ele>
        <time>2000-05-11T12:59:51.996</time>
      </trkpt>
      <trkpt lat="42.54235" lon="2.04892">
        <ele>1757.6047811242</ele>
        <time>2000-05-11T12:59:52.996</time>
      </trkpt>
      <trkpt lat="42.54235" lon="2.04891">
        <ele>1757.2120240049</ele>
        <time>2000-05-11T12:59:53.996</time>
      </trkpt>
      <trkpt lat="42.54236" lon="2.0489">
        <ele>1757.2463642016</ele>
        <time>2000-05-11T12:59:54.996</time>
      </trkpt>
      <trkpt lat="42.54237" lon="2.04888">
        <ele>1757.7679165194</ele>
        <time>2000-05-11T12:59:55.996</time>
      </trkpt>
      <trkpt lat="42.54237" lon="2.04886">
        <ele>1758.4433426268</ele>
        <time>2000-05-11T12:59:56.996</time>
      </trkpt>
      <trkpt lat="42.54237" lon="2.04885">
        <ele>1758.8565414537</ele>
        <time>2000-05-11T12:59:57.996</time>
      </trkpt>
      <trkpt lat="42.54237" lon="2.04881">
        <ele>1759.6287933903</ele>
        <time>2000-05-11T12:59:58.996</time>
      </trkpt>
      <trkpt lat="42.54237" lon="2.0488">
        <ele>1760.4337526295</ele>
        <time>2000-05-11T12:59:59.996</time>
      </trkpt>
      <trkpt lat="42.54236" lon="2.04878">
        <ele>1761.469932089</ele>
        <time>2000-05-11T13:00:00.996</time>
      </trkpt>
      <trkpt lat="42.54237" lon="2.04877">
        <ele>1762.5574846806</ele>
        <time>2000-05-11T13:00:01.996</time>
      </trkpt>
      <trkpt lat="42.54237" lon="2.04876">
        <ele>1763.5951260524</ele>
        <time>2000-05-11T13:00:02.996</time>
      </trkpt>
      <trkpt lat="42.54237" lon="2.04875">
        <ele>1764.1158603644</ele>
        <time>2000-05-11T13:00:03.996</time>
      </trkpt>
      <trkpt lat="42.54238" lon="2.04874">
        <ele>1764.4643377589</ele>
        <time>2000-05-11T13:00:04.996</time>
      </trkpt>
      <trkpt lat="42.54238" lon="2.04873">
        <ele>1764.3880108608</ele>
        <time>2000-05-11T13:00:05.996</time>
      </trkpt>
      <trkpt lat="42.54238" lon="2.04871">
        <ele>1764.1986830628</ele>
        <time>2000-05-11T13:00:06.996</time>
      </trkpt>
      <trkpt lat="42.54238" lon="2.0487">
        <ele>1764.0192261484</ele>
        <time>2000-05-11T13:00:07.996</time>
      </trkpt>
      <trkpt lat="42.54238" lon="2.04869">
        <ele>1763.8059298759</ele>
        <time>2000-05-11T13:00:08.996</time>
      </trkpt>
      <trkpt lat="42.54238" lon="2.04868">
        <ele>1763.7679029528</ele>
        <time>2000-05-11T13:00:09.996</time>
      </trkpt>
      <trkpt lat="42.54238" lon="2.04865">
        <ele>1763.1846739231</ele>
        <time>2000-05-11T13:00:10.995</time>
      </trkpt>
      <trkpt lat="42.54238" lon="2.04864">
        <ele>1762.6634412775</ele>
        <time>2000-05-11T13:00:11.995</time>
      </trkpt>
      <trkpt lat="42.54237" lon="2.04861">
        <ele>1761.7447949108</ele>
        <time>2000-05-11T13:00:12.995</time>
      </trkpt>
      <trkpt lat="42.54237" lon="2.04859">
        <ele>1760.9560504751</ele>
        <time>2000-05-11T13:00:13.995</time>
      </trkpt>
      <trkpt lat="42.54237" lon="2.04858">
        <ele>1759.9974242505</ele>
        <time>2000-05-11T13:00:14.995</time>
      </trkpt>
      <trkpt lat="42.54237" lon="2.04857">
        <ele>1759.5909958601</ele>
        <time>2000-05-11T13:00:15.995</time>
      </trkpt>
      <trkpt lat="42.54237" lon="2.04856">
        <ele>1759.3810383143</ele>
        <time>2000-05-11T13:00:16.995</time>
      </trkpt>
      <trkpt lat="42.54237" lon="2.04856">
        <ele>1759.5655854497</ele>
        <time>2000-05-11T13:00:17.995</time>
      </trkpt>
      <trkpt lat="42.54236" lon="2.04854">
        <ele>1759.913905479</ele>
        <time>2000-05-11T13:00:18.994</time>
      </trkpt>
      <trkpt lat="42.54235" lon="2.04853">
        <ele>1760.5257857192</ele>
        <time>2000-05-11T13:00:19.994</time>
      </trkpt>
      <trkpt lat="42.54234" lon="2.04852">
        <ele>1761.3839142313</ele>
        <time>2000-05-11T13:00:20.994</time>
      </trkpt>
      <trkpt lat="42.54233" lon="2.04851">
        <ele>1762.1038371781</ele>
        <time>2000-05-11T13:00:21.994</time>
      </trkpt>
      <trkpt lat="42.54232" lon="2.04849">
        <ele>1762.9545158142</ele>
        <time>2000-05-11T13:00:22.994</time>
      </trkpt>
      <trkpt lat="42.54232" lon="2.04848">
        <ele>1763.3098412082</ele>
        <time>2000-05-11T13:00:23.994</time>
      </trkpt>
      <trkpt lat="42.54233" lon="2.04845">
        <ele>1763.3904184658</ele>
        <time>2000-05-11T13:00:24.994</time>
      </trkpt>
      <trkpt lat="42.54233" lon="2.04844">
        <ele>1763.2818995783</ele>
        <time>2000-05-11T13:00:25.994</time>
      </trkpt>
      <trkpt lat="42.54233" lon="2.04843">
        <ele>1763.0806009423</ele>
        <time>2000-05-11T13:00:26.994</time>
      </trkpt>
      <trkpt lat="42.54233" lon="2.04843">
        <ele>1762.7485466169</ele>
        <time>2000-05-11T13:00:27.994</time>
      </trkpt>
      <trkpt lat="42.54233" lon="2.04842">
        <ele>1762.9588539662</ele>
        <time>2000-05-11T13:00:28.994</time>
      </trkpt>
      <trkpt lat="42.54232" lon="2.0484">
        <ele>1763.4223518994</ele>
        <time>2000-05-11T13:00:29.994</time>
      </trkpt>
      <trkpt lat="42.54231" lon="2.04839">
        <ele>1763.8780192414</ele>
        <time>2000-05-11T13:00:30.994</time>
      </trkpt>
      <trkpt lat="42.54231" lon="2.04838">
        <ele>1764.2954162987</ele>
        <time>2000-05-11T13:00:31.994</time>
      </trkpt>
      <trkpt lat="42.5423" lon="2.04837">
        <ele>1764.6712137273</ele>
        <time>2000-05-11T13:00:32.994</time>
      </trkpt>
      <trkpt lat="42.54231" lon="2.04836">
        <ele>1764.8100802548</ele>
        <time>2000-05-11T13:00:33.994</time>
      </trkpt>
      <trkpt lat="42.54229" lon="2.04836">
        <ele>1764.5604179928</ele>
        <time>2000-05-11T13:00:34.994</time>
      </trkpt>
      <trkpt lat="42.54227" lon="2.04836">
        <ele>1764.232276842</ele>
        <time>2000-05-11T13:00:35.994</time>
      </trkpt>
      <trkpt lat="42.54226" lon="2.04836">
        <ele>1763.972022666</ele>
        <time>2000-05-11T13:00:36.994</time>
      </trkpt>
      <trkpt lat="42.54226" lon="2.04835">
        <ele>1763.7361836191</ele>
        <time>2000-05-11T13:00:37.994</time>
      </trkpt>
      <trkpt lat="42.54225" lon="2.04834">
        <ele>1763.3595617466</ele>
        <time>2000-05-11T13:00:38.994</time>
      </trkpt>
      <trkpt lat="42.54224" lon="2.04834">
        <ele>1763.0986602379</ele>
        <time>2000-05-11T13:00:39.994</time>
      </trkpt>
      <trkpt lat="42.54224" lon="2.04834">
        <ele>1763.0764333665</ele>
        <time>2000-05-11T13:00:40.994</time>
      </trkpt>
      <trkpt lat="42.54223" lon="2.04833">
        <ele>1763.0956937399</ele>
        <time>2000-05-11T13:00:41.994</time>
      </trkpt>
      <trkpt lat="42.54224" lon="2.04832">
        <ele>1763.0320622185</ele>
        <time>2000-05-11T13:00:42.994</time>
      </trkpt>
      <trkpt lat="42.54224" lon="2.04831">
        <ele>1762.9357881568</ele>
        <time>2000-05-11T13:00:43.994</time>
      </trkpt>
      <trkpt lat="42.54224" lon="2.04829">
        <ele>1763.0342058785</ele>
        <time>2000-05-11T13:00:44.994</time>
      </trkpt>
      <trkpt lat="42.54224" lon="2.04827">
        <ele>1762.7887378817</ele>
        <time>2000-05-11T13:00:45.994</time>
      </trkpt>
      <trkpt lat="42.54224" lon="2.04827">
        <ele>1762.4744374644</ele>
        <time>2000-05-11T13:00:46.994</time>
      </trkpt>
      <trkpt lat="42.54224" lon="2.04826">
        <ele>1761.9040776271</ele>
        <time>2000-05-11T13:00:47.994</time>
      </trkpt>
      <trkpt lat="42.54224" lon="2.04825">
        <ele>1761.2394678462</ele>
        <time>2000-05-11T13:00:48.994</time>
      </trkpt>
      <trkpt lat="42.54223" lon="2.04824">
        <ele>1760.5524252536</ele>
        <time>2000-05-11T13:00:49.994</time>
      </trkpt>
      <trkpt lat="42.54223" lon="2.04823">
        <ele>1760.2698120434</ele>
        <time>2000-05-11T13:00:50.994</time>
      </trkpt>
      <trkpt lat="42.54222" lon="2.04821">
        <ele>1760.1087095922</ele>
        <time>2000-05-11T13:00:51.994</time>
      </trkpt>
      <trkpt lat="42.54222" lon="2.04821">
        <ele>1760.3037429553</ele>
        <time>2000-05-11T13:00:52.994</time>
      </trkpt>
      <trkpt lat="42.54221" lon="2.04819">
        <ele>1760.6844768364</ele>
        <time>2000-05-11T13:00:53.994</time>
      </trkpt>
      <trkpt lat="42.54221" lon="2.04819">
        <ele>1760.9534499232</ele>
        <time>2000-05-11T13:00:54.994</time>
      </trkpt>
      <trkpt lat="42.54219" lon="2.04817">
        <ele>1761.0340587609</ele>
        <time>2000-05-11T13:00:55.991</time>
      </trkpt>
      <trkpt lat="42.54218" lon="2.04816">
        <ele>1760.9777667886</ele>
        <time>2000-05-11T13:00:56.991</time>
      </trkpt>
      <trkpt lat="42.54218" lon="2.04815">
        <ele>1760.7645765871</ele>
        <time>2000-05-11T13:00:57.991</time>
      </trkpt>
      <trkpt lat="42.54217" lon="2.04814">
        <ele>1760.5494335338</ele>
        <time>2000-05-11T13:00:58.991</time>
      </trkpt>
      <trkpt lat="42.54217" lon="2.04813">
        <ele>1760.1843226954</ele>
        <time>2000-05-11T13:00:59.991</time>
      </trkpt>
      <trkpt lat="42.54216" lon="2.04812">
        <ele>1759.7905860193</ele>
        <time>2000-05-11T13:01:00.991</time>
      </trkpt>
      <trkpt lat="42.54216" lon="2.04811">
        <ele>1759.4945688669</ele>
        <time>2000-05-11T13:01:01.991</time>
      </trkpt>
      <trkpt lat="42.54216" lon="2.0481">
        <ele>1759.2793025518</ele>
        <time>2000-05-11T13:01:02.991</time>
      </trkpt>
      <trkpt lat="42.54216" lon="2.04808">
        <ele>1758.9538355349</ele>
        <time>2000-05-11T13:01:03.991</time>
      </trkpt>
      <trkpt lat="42.54217" lon="2.04807">
        <ele>1758.5631798014</ele>
        <time>2000-05-11T13:01:04.991</time>
      </trkpt>
      <trkpt lat="42.54217" lon="2.04805">
        <ele>1758.2511664284</ele>
        <time>2000-05-11T13:01:05.991</time>
      </trkpt>
      <trkpt lat="42.54216" lon="2.04804">
        <ele>1758.0886042023</ele>
        <time>2000-05-11T13:01:06.991</time>
      </trkpt>
      <trkpt lat="42.54215" lon="2.04803">
        <ele>1758.1805985011</ele>
        <time>2000-05-11T13:01:07.991</time>
      </trkpt>
      <trkpt lat="42.54215" lon="2.04802">
        <ele>1758.4575126771</ele>
        <time>2000-05-11T13:01:08.991</time>
      </trkpt>
      <trkpt lat="42.54215" lon="2.048">
        <ele>1759.1857504565</ele>
        <time>2000-05-11T13:01:09.991</time>
      </trkpt>
      <trkpt lat="42.54214" lon="2.04798">
        <ele>1760.0889854755</ele>
        <time>2000-05-11T13:01:10.991</time>
      </trkpt>
      <trkpt lat="42.54214" lon="2.04797">
        <ele>1760.7831013111</ele>
        <time>2000-05-11T13:01:11.991</time>
      </trkpt>
      <trkpt lat="42.54214" lon="2.04795">
        <ele>1761.2051146807</ele>
        <time>2000-05-11T13:01:12.991</time>
      </trkpt>
      <trkpt lat="42.54214" lon="2.04794">
        <ele>1761.4596146815</ele>
        <time>2000-05-11T13:01:13.991</time>
      </trkpt>
      <trkpt lat="42.54213" lon="2.04793">
        <ele>1761.4687707974</ele>
        <time>2000-05-11T13:01:14.991</time>
      </trkpt>
      <trkpt lat="42.54213" lon="2.04792">
        <ele>1761.1970355626</ele>
        <time>2000-05-11T13:01:15.991</time>
      </trkpt>
      <trkpt lat="42.54212" lon="2.0479">
        <ele>1760.9551954642</ele>
        <time>2000-05-11T13:01:16.991</time>
      </trkpt>
      <trkpt lat="42.54212" lon="2.04789">
        <ele>1760.7247155143</ele>
        <time>2000-05-11T13:01:17.991</time>
      </trkpt>
      <trkpt lat="42.54211" lon="2.04787">
        <ele>1760.6972183039</ele>
        <time>2000-05-11T13:01:18.991</time>
      </trkpt>
      <trkpt lat="42.5421" lon="2.04785">
        <ele>1760.8462388327</ele>
        <time>2000-05-11T13:01:19.991</time>
      </trkpt>
      <trkpt lat="42.5421" lon="2.04784">
        <ele>1761.0066626502</ele>
        <time>2000-05-11T13:01:20.991</time>
      </trkpt>
      <trkpt lat="42.5421" lon="2.04783">
        <ele>1760.9734761065</ele>
        <time>2000-05-11T13:01:21.991</time>
      </trkpt>
      <trkpt lat="42.5421" lon="2.04783">
        <ele>1760.9820404533</ele>
        <time>2000-05-11T13:01:22.991</time>
      </trkpt>
      <trkpt lat="42.5421" lon="2.04782">
        <ele>1761.0262026738</ele>
        <time>2000-05-11T13:01:23.991</time>
      </trkpt>
      <trkpt lat="42.5421" lon="2.0478">
        <ele>1760.8200031403</ele>
        <time>2000-05-11T13:01:24.990</time>
      </trkpt>
      <trkpt lat="42.5421" lon="2.04778">
        <ele>1760.7086043678</ele>
        <time>2000-05-11T13:01:25.990</time>
      </trkpt>
      <trkpt lat="42.54211" lon="2.04777">
        <ele>1760.6335992716</ele>
        <time>2000-05-11T13:01:26.990</time>
      </trkpt>
      <trkpt lat="42.54211" lon="2.04775">
        <ele>1760.7650197398</ele>
        <time>2000-05-11T13:01:27.990</time>
      </trkpt>
      <trkpt lat="42.5421" lon="2.04774">
        <ele>1760.9125451487</ele>
        <time>2000-05-11T13:01:28.990</time>
      </trkpt>
      <trkpt lat="42.5421" lon="2.04772">
        <ele>1761.1837490406</ele>
        <time>2000-05-11T13:01:29.990</time>
      </trkpt>
      <trkpt lat="42.5421" lon="2.04771">
        <ele>1761.3350433346</ele>
        <time>2000-05-11T13:01:30.990</time>
      </trkpt>
      <trkpt lat="42.5421" lon="2.04771">
        <ele>1761.3153177116</ele>
        <time>2000-05-11T13:01:31.990</time>
      </trkpt>
      <trkpt lat="42.54211" lon="2.0477">
        <ele>1760.9828623299</ele>
        <time>2000-05-11T13:01:32.990</time>
      </trkpt>
      <trkpt lat="42.54211" lon="2.04768">
        <ele>1760.4134758027</ele>
        <time>2000-05-11T13:01:33.990</time>
      </trkpt>
      <trkpt lat="42.54211" lon="2.04767">
        <ele>1759.7885369433</ele>
        <time>2000-05-11T13:01:34.990</time>
      </trkpt>
      <trkpt lat="42.54211" lon="2.04766">
        <ele>1759.1218563993</ele>
        <time>2000-05-11T13:01:35.990</time>
      </trkpt>
      <trkpt lat="42.54211" lon="2.04764">
        <ele>1758.6766042098</ele>
        <time>2000-05-11T13:01:36.990</time>
      </trkpt>
      <trkpt lat="42.54211" lon="2.04763">
        <ele>1758.3467535706</ele>
        <time>2000-05-11T13:01:37.990</time>
      </trkpt>
      <trkpt lat="42.54211" lon="2.04761">
        <ele>1758.0951968251</ele>
        <time>2000-05-11T13:01:38.990</time>
      </trkpt>
      <trkpt lat="42.54211" lon="2.0476">
        <ele>1757.9792790029</ele>
        <time>2000-05-11T13:01:39.990</time>
      </trkpt>
      <trkpt lat="42.54212" lon="2.04758">
        <ele>1758.0523736455</ele>
        <time>2000-05-11T13:01:40.990</time>
      </trkpt>
      <trkpt lat="42.54212" lon="2.04757">
        <ele>1758.1985612964</ele>
        <time>2000-05-11T13:01:41.990</time>
      </trkpt>
      <trkpt lat="42.54211" lon="2.04756">
        <ele>1758.6486638654</ele>
        <time>2000-05-11T13:01:42.990</time>
      </trkpt>
      <trkpt lat="42.54211" lon="2.04755">
        <ele>1759.2989283906</ele>
        <time>2000-05-11T13:01:43.990</time>
      </trkpt>
      <trkpt lat="42.54211" lon="2.04753">
        <ele>1760.2448188271</ele>
        <time>2000-05-11T13:01:44.990</time>
      </trkpt>
      <trkpt lat="42.5421" lon="2.04752">
        <ele>1761.4963478416</ele>
        <time>2000-05-11T13:01:45.990</time>
      </trkpt>
      <trkpt lat="42.5421" lon="2.04751">
        <ele>1762.6391633226</ele>
        <time>2000-05-11T13:01:46.990</time>
      </trkpt>
      <trkpt lat="42.54211" lon="2.04749">
        <ele>1763.3723720754</ele>
        <time>2000-05-11T13:01:47.990</time>
      </trkpt>
      <trkpt lat="42.54212" lon="2.04748">
        <ele>1763.9016713064</ele>
        <time>2000-05-11T13:01:48.990</time>
      </trkpt>
      <trkpt lat="42.54212" lon="2.04747">
        <ele>1763.9578864727</ele>
        <time>2000-05-11T13:01:49.990</time>
      </trkpt>
      <trkpt lat="42.54211" lon="2.04746">
        <ele>1763.6552229289</ele>
        <time>2000-05-11T13:01:50.990</time>
      </trkpt>
      <trkpt lat="42.54211" lon="2.04745">
        <ele>1763.4113763696</ele>
        <time>2000-05-11T13:01:51.990</time>
      </trkpt>
      <trkpt lat="42.54211" lon="2.04743">
        <ele>1763.1001909867</ele>
        <time>2000-05-11T13:01:52.990</time>
      </trkpt>
      <trkpt lat="42.54212" lon="2.04742">
        <ele>1762.7149077181</ele>
        <time>2000-05-11T13:01:53.990</time>
      </trkpt>
      <trkpt lat="42.54212" lon="2.04741">
        <ele>1762.2502449917</ele>
        <time>2000-05-11T13:01:54.990</time>
      </trkpt>
      <trkpt lat="42.54211" lon="2.0474">
        <ele>1761.7649477569</ele>
        <time>2000-05-11T13:01:55.990</time>
      </trkpt>
      <trkpt lat="42.54211" lon="2.04739">
        <ele>1761.4086448632</ele>
        <time>2000-05-11T13:01:56.990</time>
      </trkpt>
      <trkpt lat="42.54211" lon="2.04737">
        <ele>1761.5548777351</ele>
        <time>2000-05-11T13:01:57.990</time>
      </trkpt>
      <trkpt lat="42.5421" lon="2.04735">
        <ele>1761.941895807</ele>
        <time>2000-05-11T13:01:58.990</time>
      </trkpt>
      <trkpt lat="42.5421" lon="2.04734">
        <ele>1762.5469532017</ele>
        <time>2000-05-11T13:01:59.990</time>
      </trkpt>
      <trkpt lat="42.5421" lon="2.04733">
        <ele>1763.3677322453</ele>
        <time>2000-05-11T13:02:00.990</time>
      </trkpt>
      <trkpt lat="42.5421" lon="2.04731">
        <ele>1764.1506249348</ele>
        <time>2000-05-11T13:02:01.990</time>
      </trkpt>
      <trkpt lat="42.5421" lon="2.0473">
        <ele>1764.5239230338</ele>
        <time>2000-05-11T13:02:02.990</time>
      </trkpt>
      <trkpt lat="42.5421" lon="2.04729">
        <ele>1764.6909538489</ele>
        <time>2000-05-11T13:02:03.990</time>
      </trkpt>
      <trkpt lat="42.5421" lon="2.04727">
        <ele>1764.6566825541</ele>
        <time>2000-05-11T13:02:04.990</time>
      </trkpt>
      <trkpt lat="42.5421" lon="2.04726">
        <ele>1764.3148394592</ele>
        <time>2000-05-11T13:02:05.990</time>
      </trkpt>
      <trkpt lat="42.54211" lon="2.04724">
        <ele>1763.8583006086</ele>
        <time>2000-05-11T13:02:06.990</time>
      </trkpt>
      <trkpt lat="42.5421" lon="2.04723">
        <ele>1763.4137691373</ele>
        <time>2000-05-11T13:02:07.990</time>
      </trkpt>
      <trkpt lat="42.5421" lon="2.04721">
        <ele>1762.9703768643</ele>
        <time>2000-05-11T13:02:08.990</time>
      </trkpt>
      <trkpt lat="42.5421" lon="2.0472">
        <ele>1762.6296715047</ele>
        <time>2000-05-11T13:02:09.990</time>
      </trkpt>
      <trkpt lat="42.5421" lon="2.04719">
        <ele>1762.5494332669</ele>
        <time>2000-05-11T13:02:10.990</time>
      </trkpt>
      <trkpt lat="42.5421" lon="2.04717">
        <ele>1762.5708530543</ele>
        <time>2000-05-11T13:02:11.990</time>
      </trkpt>
      <trkpt lat="42.5421" lon="2.04716">
        <ele>1762.3658847868</ele>
        <time>2000-05-11T13:02:12.990</time>
      </trkpt>
      <trkpt lat="42.5421" lon="2.04715">
        <ele>1762.0636613546</ele>
        <time>2000-05-11T13:02:13.990</time>
      </trkpt>
      <trkpt lat="42.54209" lon="2.04713">
        <ele>1761.716483088</ele>
        <time>2000-05-11T13:02:14.990</time>
      </trkpt>
      <trkpt lat="42.54209" lon="2.04712">
        <ele>1761.2147830104</ele>
        <time>2000-05-11T13:02:15.990</time>
      </trkpt>
      <trkpt lat="42.54208" lon="2.04712">
        <ele>1760.7007725574</ele>
        <time>2000-05-11T13:02:16.990</time>
      </trkpt>
      <trkpt lat="42.54207" lon="2.0471">
        <ele>1760.5638730804</ele>
        <time>2000-05-11T13:02:17.990</time>
      </trkpt>
      <trkpt lat="42.54207" lon="2.04709">
        <ele>1760.7008642245</ele>
        <time>2000-05-11T13:02:18.990</time>
      </trkpt>
      <trkpt lat="42.54206" lon="2.04709">
        <ele>1760.9200596156</ele>
        <time>2000-05-11T13:02:19.990</time>
      </trkpt>
      <trkpt lat="42.54205" lon="2.04708">
        <ele>1761.0501073597</ele>
        <time>2000-05-11T13:02:20.990</time>
      </trkpt>
      <trkpt lat="42.54205" lon="2.04706">
        <ele>1761.0568658391</ele>
        <time>2000-05-11T13:02:21.990</time>
      </trkpt>
      <trkpt lat="42.54205" lon="2.04705">
        <ele>1760.9993345218</ele>
        <time>2000-05-11T13:02:22.990</time>
      </trkpt>
      <trkpt lat="42.54206" lon="2.04703">
        <ele>1760.8077349434</ele>
        <time>2000-05-11T13:02:23.990</time>
      </trkpt>
      <trkpt lat="42.54206" lon="2.04702">
        <ele>1760.4916044088</ele>
        <time>2000-05-11T13:02:24.990</time>
      </trkpt>
      <trkpt lat="42.54205" lon="2.04701">
        <ele>1760.291493482</ele>
        <time>2000-05-11T13:02:25.990</time>
      </trkpt>
      <trkpt lat="42.54205" lon="2.047">
        <ele>1760.31261802</ele>
        <time>2000-05-11T13:02:26.990</time>
      </trkpt>
      <trkpt lat="42.54205" lon="2.04699">
        <ele>1760.3407993648</ele>
        <time>2000-05-11T13:02:27.990</time>
      </trkpt>
      <trkpt lat="42.54204" lon="2.04697">
        <ele>1760.4284709064</ele>
        <time>2000-05-11T13:02:28.990</time>
      </trkpt>
      <trkpt lat="42.54204" lon="2.04696">
        <ele>1760.7791384501</ele>
        <time>2000-05-11T13:02:29.990</time>
      </trkpt>
      <trkpt lat="42.54203" lon="2.04695">
        <ele>1761.1833874304</ele>
        <time>2000-05-11T13:02:30.990</time>
      </trkpt>
      <trkpt lat="42.54203" lon="2.04694">
        <ele>1761.4312762404</ele>
        <time>2000-05-11T13:02:31.990</time>
      </trkpt>
      <trkpt lat="42.54203" lon="2.04693">
        <ele>1761.6558973916</ele>
        <time>2000-05-11T13:02:32.990</time>
      </trkpt>
      <trkpt lat="42.54203" lon="2.04691">
        <ele>1761.7168224026</ele>
        <time>2000-05-11T13:02:33.990</time>
      </trkpt>
      <trkpt lat="42.54204" lon="2.0469">
        <ele>1761.4967358295</ele>
        <time>2000-05-11T13:02:34.990</time>
      </trkpt>
      <trkpt lat="42.54204" lon="2.04689">
        <ele>1761.0731555276</ele>
        <time>2000-05-11T13:02:35.990</time>
      </trkpt>
      <trkpt lat="42.54204" lon="2.04687">
        <ele>1760.5389457986</ele>
        <time>2000-05-11T13:02:36.990</time>
      </trkpt>
      <trkpt lat="42.54204" lon="2.04686">
        <ele>1760.0237435916</ele>
        <time>2000-05-11T13:02:37.990</time>
      </trkpt>
      <trkpt lat="42.54204" lon="2.04685">
        <ele>1759.6693422498</ele>
        <time>2000-05-11T13:02:38.990</time>
      </trkpt>
      <trkpt lat="42.54203" lon="2.04684">
        <ele>1759.4446435925</ele>
        <time>2000-05-11T13:02:39.990</time>
      </trkpt>
      <trkpt lat="42.54202" lon="2.04683">
        <ele>1759.4330357816</ele>
        <time>2000-05-11T13:02:40.990</time>
      </trkpt>
      <trkpt lat="42.54202" lon="2.04682">
        <ele>1759.572164405</ele>
        <time>2000-05-11T13:02:41.990</time>
      </trkpt>
      <trkpt lat="42.54202" lon="2.04681">
        <ele>1759.7675999148</ele>
        <time>2000-05-11T13:02:42.990</time>
      </trkpt>
      <trkpt lat="42.54202" lon="2.0468">
        <ele>1759.8536039682</ele>
        <time>2000-05-11T13:02:43.990</time>
      </trkpt>
      <trkpt lat="42.54202" lon="2.04679">
        <ele>1759.968647314</ele>
        <time>2000-05-11T13:02:44.990</time>
      </trkpt>
      <trkpt lat="42.54202" lon="2.04679">
        <ele>1760.1654918013</ele>
        <time>2000-05-11T13:02:45.990</time>
      </trkpt>
      <trkpt lat="42.54201" lon="2.04677">
        <ele>1760.5875649858</ele>
        <time>2000-05-11T13:02:46.990</time>
      </trkpt>
      <trkpt lat="42.54202" lon="2.04675">
        <ele>1760.8366535746</ele>
        <time>2000-05-11T13:02:47.990</time>
      </trkpt>
      <trkpt lat="42.54202" lon="2.04674">
        <ele>1761.1305798721</ele>
        <time>2000-05-11T13:02:48.990</time>
      </trkpt>
      <trkpt lat="42.54201" lon="2.04673">
        <ele>1761.532781668</ele>
        <time>2000-05-11T13:02:49.990</time>
      </trkpt>
      <trkpt lat="42.542" lon="2.04671">
        <ele>1762.0369003929</ele>
        <time>2000-05-11T13:02:50.990</time>
      </trkpt>
      <trkpt lat="42.542" lon="2.0467">
        <ele>1762.4201563515</ele>
        <time>2000-05-11T13:02:51.990</time>
      </trkpt>
      <trkpt lat="42.54201" lon="2.04668">
        <ele>1762.8336545816</ele>
        <time>2000-05-11T13:02:52.990</time>
      </trkpt>
      <trkpt lat="42.542" lon="2.04667">
        <ele>1763.2281247351</ele>
        <time>2000-05-11T13:02:53.990</time>
      </trkpt>
      <trkpt lat="42.542" lon="2.04666">
        <ele>1763.3463090178</ele>
        <time>2000-05-11T13:02:54.990</time>
      </trkpt>
      <trkpt lat="42.542" lon="2.04664">
        <ele>1763.1036864897</ele>
        <time>2000-05-11T13:02:55.990</time>
      </trkpt>
      <trkpt lat="42.542" lon="2.04663">
        <ele>1762.7018898858</ele>
        <time>2000-05-11T13:02:56.990</time>
      </trkpt>
      <trkpt lat="42.542" lon="2.04662">
        <ele>1762.3860264339</ele>
        <time>2000-05-11T13:02:57.990</time>
      </trkpt>
      <trkpt lat="42.54199" lon="2.04661">
        <ele>1762.1870526299</ele>
        <time>2000-05-11T13:02:58.990</time>
      </trkpt>
      <trkpt lat="42.54199" lon="2.0466">
        <ele>1762.1045513444</ele>
        <time>2000-05-11T13:02:59.990</time>
      </trkpt>
      <trkpt lat="42.54198" lon="2.04658">
        <ele>1761.9572544701</ele>
        <time>2000-05-11T13:03:00.990</time>
      </trkpt>
      <trkpt lat="42.54199" lon="2.04657">
        <ele>1761.8943353528</ele>
        <time>2000-05-11T13:03:01.990</time>
      </trkpt>
      <trkpt lat="42.54199" lon="2.04656">
        <ele>1761.6677732691</ele>
        <time>2000-05-11T13:03:02.990</time>
      </trkpt>
      <trkpt lat="42.54199" lon="2.04655">
        <ele>1761.4861297237</ele>
        <time>2000-05-11T13:03:03.990</time>
      </trkpt>
      <trkpt lat="42.54201" lon="2.04653">
        <ele>1761.4353453713</ele>
        <time>2000-05-11T13:03:04.990</time>
      </trkpt>
      <trkpt lat="42.54201" lon="2.04652">
        <ele>1761.5599512324</ele>
        <time>2000-05-11T13:03:05.990</time>
      </trkpt>
      <trkpt lat="42.54201" lon="2.0465">
        <ele>1761.6980722969</ele>
        <time>2000-05-11T13:03:06.990</time>
      </trkpt>
      <trkpt lat="42.54201" lon="2.04649">
        <ele>1761.9131327789</ele>
        <time>2000-05-11T13:03:07.990</time>
      </trkpt>
      <trkpt lat="42.542" lon="2.04648">
        <ele>1761.9316722497</ele>
        <time>2000-05-11T13:03:08.990</time>
      </trkpt>
      <trkpt lat="42.54201" lon="2.04646">
        <ele>1761.7026483901</ele>
        <time>2000-05-11T13:03:09.990</time>
      </trkpt>
      <trkpt lat="42.54201" lon="2.04645">
        <ele>1761.3956508951</ele>
        <time>2000-05-11T13:03:10.990</time>
      </trkpt>
      <trkpt lat="42.54201" lon="2.04643">
        <ele>1760.9814790225</ele>
        <time>2000-05-11T13:03:11.990</time>
      </trkpt>
      <trkpt lat="42.54201" lon="2.04642">
        <ele>1760.9777495788</ele>
        <time>2000-05-11T13:03:12.990</time>
      </trkpt>
      <trkpt lat="42.54201" lon="2.04641">
        <ele>1761.0568067428</ele>
        <time>2000-05-11T13:03:13.990</time>
      </trkpt>
      <trkpt lat="42.542" lon="2.0464">
        <ele>1761.1027390111</ele>
        <time>2000-05-11T13:03:14.990</time>
      </trkpt>
      <trkpt lat="42.54201" lon="2.04639">
        <ele>1761.110995225</ele>
        <time>2000-05-11T13:03:15.990</time>
      </trkpt>
      <trkpt lat="42.54201" lon="2.04637">
        <ele>1761.0294786414</ele>
        <time>2000-05-11T13:03:16.990</time>
      </trkpt>
      <trkpt lat="42.54201" lon="2.04636">
        <ele>1760.7017099319</ele>
        <time>2000-05-11T13:03:17.990</time>
      </trkpt>
      <trkpt lat="42.54201" lon="2.04635">
        <ele>1760.3907567445</ele>
        <time>2000-05-11T13:03:18.990</time>
      </trkpt>
      <trkpt lat="42.54201" lon="2.04634">
        <ele>1760.1969138956</ele>
        <time>2000-05-11T13:03:19.990</time>
      </trkpt>
      <trkpt lat="42.54201" lon="2.04633">
        <ele>1760.1728155296</ele>
        <time>2000-05-11T13:03:20.990</time>
      </trkpt>
      <trkpt lat="42.54202" lon="2.04632">
        <ele>1760.3249549694</ele>
        <time>2000-05-11T13:03:21.990</time>
      </trkpt>
      <trkpt lat="42.54203" lon="2.0463">
        <ele>1760.3775852343</ele>
        <time>2000-05-11T13:03:22.990</time>
      </trkpt>
      <trkpt lat="42.54204" lon="2.04629">
        <ele>1760.3466853136</ele>
        <time>2000-05-11T13:03:23.990</time>
      </trkpt>
      <trkpt lat="42.54203" lon="2.04627">
        <ele>1760.2185008554</ele>
        <time>2000-05-11T13:03:24.990</time>
      </trkpt>
      <trkpt lat="42.54203" lon="2.04626">
        <ele>1759.7126642207</ele>
        <time>2000-05-11T13:03:25.990</time>
      </trkpt>
      <trkpt lat="42.54202" lon="2.04625">
        <ele>1759.2943355612</ele>
        <time>2000-05-11T13:03:26.990</time>
      </trkpt>
      <trkpt lat="42.54202" lon="2.04624">
        <ele>1759.1445366444</ele>
        <time>2000-05-11T13:03:27.990</time>
      </trkpt>
      <trkpt lat="42.54202" lon="2.04623">
        <ele>1759.2422823859</ele>
        <time>2000-05-11T13:03:28.990</time>
      </trkpt>
      <trkpt lat="42.54202" lon="2.04621">
        <ele>1759.5942245312</ele>
        <time>2000-05-11T13:03:29.990</time>
      </trkpt>
      <trkpt lat="42.54202" lon="2.0462">
        <ele>1760.2864672108</ele>
        <time>2000-05-11T13:03:30.990</time>
      </trkpt>
      <trkpt lat="42.54202" lon="2.04619">
        <ele>1760.7486710303</ele>
        <time>2000-05-11T13:03:31.990</time>
      </trkpt>
      <trkpt lat="42.54202" lon="2.04618">
        <ele>1760.8932950998</ele>
        <time>2000-05-11T13:03:32.990</time>
      </trkpt>
      <trkpt lat="42.54202" lon="2.04616">
        <ele>1760.8652737446</ele>
        <time>2000-05-11T13:03:33.990</time>
      </trkpt>
      <trkpt lat="42.54202" lon="2.04614">
        <ele>1760.7764103534</ele>
        <time>2000-05-11T13:03:34.990</time>
      </trkpt>
      <trkpt lat="42.54202" lon="2.04613">
        <ele>1760.581019753</ele>
        <time>2000-05-11T13:03:35.990</time>
      </trkpt>
      <trkpt lat="42.54202" lon="2.04612">
        <ele>1760.4999361522</ele>
        <time>2000-05-11T13:03:36.990</time>
      </trkpt>
      <trkpt lat="42.54203" lon="2.0461">
        <ele>1760.5949810829</ele>
        <time>2000-05-11T13:03:37.990</time>
      </trkpt>
      <trkpt lat="42.54203" lon="2.04608">
        <ele>1760.9042105276</ele>
        <time>2000-05-11T13:03:38.990</time>
      </trkpt>
      <trkpt lat="42.54204" lon="2.04607">
        <ele>1761.3933699468</ele>
        <time>2000-05-11T13:03:39.990</time>
      </trkpt>
      <trkpt lat="42.54204" lon="2.04606">
        <ele>1762.0462215068</ele>
        <time>2000-05-11T13:03:40.990</time>
      </trkpt>
      <trkpt lat="42.54205" lon="2.04605">
        <ele>1762.7659939358</ele>
        <time>2000-05-11T13:03:41.990</time>
      </trkpt>
      <trkpt lat="42.54205" lon="2.04604">
        <ele>1763.4758452186</ele>
        <time>2000-05-11T13:03:42.990</time>
      </trkpt>
      <trkpt lat="42.54205" lon="2.04602">
        <ele>1763.8680156711</ele>
        <time>2000-05-11T13:03:43.990</time>
      </trkpt>
      <trkpt lat="42.54205" lon="2.04601">
        <ele>1763.902785944</ele>
        <time>2000-05-11T13:03:44.990</time>
      </trkpt>
      <trkpt lat="42.54205" lon="2.046">
        <ele>1763.8441754231</ele>
        <time>2000-05-11T13:03:45.990</time>
      </trkpt>
      <trkpt lat="42.54205" lon="2.04598">
        <ele>1763.6568199879</ele>
        <time>2000-05-11T13:03:46.990</time>
      </trkpt>
      <trkpt lat="42.54206" lon="2.04597">
        <ele>1763.3863891894</ele>
        <time>2000-05-11T13:03:47.990</time>
      </trkpt>
      <trkpt lat="42.54208" lon="2.04596">
        <ele>1763.2673774917</ele>
        <time>2000-05-11T13:03:48.990</time>
      </trkpt>
      <trkpt lat="42.54208" lon="2.04595">
        <ele>1763.3597803231</ele>
        <time>2000-05-11T13:03:49.990</time>
      </trkpt>
      <trkpt lat="42.54209" lon="2.04593">
        <ele>1763.4028620208</ele>
        <time>2000-05-11T13:03:50.990</time>
      </trkpt>
      <trkpt lat="42.5421" lon="2.04592">
        <ele>1763.6254972871</ele>
        <time>2000-05-11T13:03:51.990</time>
      </trkpt>
      <trkpt lat="42.5421" lon="2.0459">
        <ele>1763.9377308972</ele>
        <time>2000-05-11T13:03:52.990</time>
      </trkpt>
      <trkpt lat="42.5421" lon="2.04589">
        <ele>1764.257114017</ele>
        <time>2000-05-11T13:03:53.990</time>
      </trkpt>
      <trkpt lat="42.5421" lon="2.04588">
        <ele>1764.4934034484</ele>
        <time>2000-05-11T13:03:54.990</time>
      </trkpt>
      <trkpt lat="42.5421" lon="2.04587">
        <ele>1764.7666374087</ele>
        <time>2000-05-11T13:03:55.990</time>
      </trkpt>
      <trkpt lat="42.54211" lon="2.04585">
        <ele>1764.880332238</ele>
        <time>2000-05-11T13:03:56.990</time>
      </trkpt>
      <trkpt lat="42.54211" lon="2.04584">
        <ele>1764.8709595948</ele>
        <time>2000-05-11T13:03:57.990</time>
      </trkpt>
      <trkpt lat="42.54212" lon="2.04583">
        <ele>1764.8257193957</ele>
        <time>2000-05-11T13:03:58.990</time>
      </trkpt>
      <trkpt lat="42.54212" lon="2.04583">
        <ele>1764.6862032795</ele>
        <time>2000-05-11T13:03:59.990</time>
      </trkpt>
      <trkpt lat="42.54213" lon="2.04582">
        <ele>1764.5323741285</ele>
        <time>2000-05-11T13:04:00.990</time>
      </trkpt>
      <trkpt lat="42.54214" lon="2.0458">
        <ele>1764.4441704208</ele>
        <time>2000-05-11T13:04:01.990</time>
      </trkpt>
      <trkpt lat="42.54214" lon="2.04579">
        <ele>1764.5664830577</ele>
        <time>2000-05-11T13:04:02.990</time>
      </trkpt>
      <trkpt lat="42.54215" lon="2.04577">
        <ele>1764.655896621</ele>
        <time>2000-05-11T13:04:03.990</time>
      </trkpt>
      <trkpt lat="42.54215" lon="2.04576">
        <ele>1764.7711532807</ele>
        <time>2000-05-11T13:04:04.990</time>
      </trkpt>
      <trkpt lat="42.54215" lon="2.04575">
        <ele>1765.0249158427</ele>
        <time>2000-05-11T13:04:05.990</time>
      </trkpt>
      <trkpt lat="42.54216" lon="2.04574">
        <ele>1765.3463699955</ele>
        <time>2000-05-11T13:04:06.990</time>
      </trkpt>
      <trkpt lat="42.54217" lon="2.04573">
        <ele>1765.4863818115</ele>
        <time>2000-05-11T13:04:07.990</time>
      </trkpt>
      <trkpt lat="42.54217" lon="2.04573">
        <ele>1765.6230902998</ele>
        <time>2000-05-11T13:04:08.990</time>
      </trkpt>
      <trkpt lat="42.54217" lon="2.04572">
        <ele>1765.8206885722</ele>
        <time>2000-05-11T13:04:09.990</time>
      </trkpt>
      <trkpt lat="42.54218" lon="2.04571">
        <ele>1765.7844414286</ele>
        <time>2000-05-11T13:04:10.990</time>
      </trkpt>
      <trkpt lat="42.5422" lon="2.0457">
        <ele>1765.7659875244</ele>
        <time>2000-05-11T13:04:11.990</time>
      </trkpt>
      <trkpt lat="42.5422" lon="2.04569">
        <ele>1765.7771187656</ele>
        <time>2000-05-11T13:04:12.990</time>
      </trkpt>
      <trkpt lat="42.54221" lon="2.04569">
        <ele>1765.9834735785</ele>
        <time>2000-05-11T13:04:13.990</time>
      </trkpt>
      <trkpt lat="42.54221" lon="2.04568">
        <ele>1766.1342622645</ele>
        <time>2000-05-11T13:04:14.990</time>
      </trkpt>
      <trkpt lat="42.54222" lon="2.04567">
        <ele>1766.4123816978</ele>
        <time>2000-05-11T13:04:15.990</time>
      </trkpt>
      <trkpt lat="42.54222" lon="2.04565">
        <ele>1766.5248943433</ele>
        <time>2000-05-11T13:04:16.990</time>
      </trkpt>
      <trkpt lat="42.54223" lon="2.04563">
        <ele>1766.6258565318</ele>
        <time>2000-05-11T13:04:17.990</time>
      </trkpt>
      <trkpt lat="42.54224" lon="2.04563">
        <ele>1766.3554874059</ele>
        <time>2000-05-11T13:04:18.990</time>
      </trkpt>
      <trkpt lat="42.54224" lon="2.04562">
        <ele>1766.0883542497</ele>
        <time>2000-05-11T13:04:19.990</time>
      </trkpt>
      <trkpt lat="42.54225" lon="2.04561">
        <ele>1765.7890765335</ele>
        <time>2000-05-11T13:04:20.990</time>
      </trkpt>
      <trkpt lat="42.54226" lon="2.0456">
        <ele>1765.5088697754</ele>
        <time>2000-05-11T13:04:21.990</time>
      </trkpt>
      <trkpt lat="42.54227" lon="2.04559">
        <ele>1765.190709017</ele>
        <time>2000-05-11T13:04:22.990</time>
      </trkpt>
      <trkpt lat="42.54228" lon="2.04557">
        <ele>1764.9788051868</ele>
        <time>2000-05-11T13:04:23.990</time>
      </trkpt>
      <trkpt lat="42.54228" lon="2.04556">
        <ele>1764.5886111872</ele>
        <time>2000-05-11T13:04:24.990</time>
      </trkpt>
      <trkpt lat="42.54229" lon="2.04555">
        <ele>1764.0773961183</ele>
        <time>2000-05-11T13:04:25.990</time>
      </trkpt>
      <trkpt lat="42.54229" lon="2.04554">
        <ele>1763.5853788361</ele>
        <time>2000-05-11T13:04:26.990</time>
      </trkpt>
      <trkpt lat="42.5423" lon="2.04553">
        <ele>1763.2447441554</ele>
        <time>2000-05-11T13:04:27.990</time>
      </trkpt>
      <trkpt lat="42.5423" lon="2.04552">
        <ele>1763.3224378577</ele>
        <time>2000-05-11T13:04:28.990</time>
      </trkpt>
      <trkpt lat="42.54231" lon="2.04551">
        <ele>1763.7817342231</ele>
        <time>2000-05-11T13:04:29.990</time>
      </trkpt>
      <trkpt lat="42.54231" lon="2.0455">
        <ele>1764.477659798</ele>
        <time>2000-05-11T13:04:30.990</time>
      </trkpt>
      <trkpt lat="42.54232" lon="2.04549">
        <ele>1765.287379658</ele>
        <time>2000-05-11T13:04:31.990</time>
      </trkpt>
      <trkpt lat="42.54232" lon="2.04548">
        <ele>1765.918703373</ele>
        <time>2000-05-11T13:04:32.990</time>
      </trkpt>
      <trkpt lat="42.54232" lon="2.04547">
        <ele>1766.1849095216</ele>
        <time>2000-05-11T13:04:33.990</time>
      </trkpt>
      <trkpt lat="42.54232" lon="2.04547">
        <ele>1766.1933285912</ele>
        <time>2000-05-11T13:04:34.990</time>
      </trkpt>
      <trkpt lat="42.54233" lon="2.04546">
        <ele>1766.0108202688</ele>
        <time>2000-05-11T13:04:35.990</time>
      </trkpt>
      <trkpt lat="42.54234" lon="2.04545">
        <ele>1765.6999736961</ele>
        <time>2000-05-11T13:04:36.990</time>
      </trkpt>
      <trkpt lat="42.54234" lon="2.04545">
        <ele>1765.2238868933</ele>
        <time>2000-05-11T13:04:37.990</time>
      </trkpt>
      <trkpt lat="42.54235" lon="2.04543">
        <ele>1764.8143242402</ele>
        <time>2000-05-11T13:04:38.990</time>
      </trkpt>
      <trkpt lat="42.54235" lon="2.04543">
        <ele>1764.5447638182</ele>
        <time>2000-05-11T13:04:39.990</time>
      </trkpt>
      <trkpt lat="42.54236" lon="2.04542">
        <ele>1764.3114888698</ele>
        <time>2000-05-11T13:04:40.990</time>
      </trkpt>
      <trkpt lat="42.54236" lon="2.04542">
        <ele>1763.8950709648</ele>
        <time>2000-05-11T13:04:41.990</time>
      </trkpt>
      <trkpt lat="42.54237" lon="2.04539">
        <ele>1763.5500110144</ele>
        <time>2000-05-11T13:04:42.991</time>
      </trkpt>
      <trkpt lat="42.54236" lon="2.04537">
        <ele>1763.0616076574</ele>
        <time>2000-05-11T13:04:43.991</time>
      </trkpt>
      <trkpt lat="42.54235" lon="2.04535">
        <ele>1762.2006712925</ele>
        <time>2000-05-11T13:04:44.991</time>
      </trkpt>
      <trkpt lat="42.54235" lon="2.04534">
        <ele>1761.4976548545</ele>
        <time>2000-05-11T13:04:45.991</time>
      </trkpt>
      <trkpt lat="42.54234" lon="2.04532">
        <ele>1760.9905662483</ele>
        <time>2000-05-11T13:04:46.991</time>
      </trkpt>
      <trkpt lat="42.54234" lon="2.04531">
        <ele>1760.5977528349</ele>
        <time>2000-05-11T13:04:47.991</time>
      </trkpt>
      <trkpt lat="42.54234" lon="2.04531">
        <ele>1760.0864194294</ele>
        <time>2000-05-11T13:04:48.991</time>
      </trkpt>
      <trkpt lat="42.54234" lon="2.04529">
        <ele>1760.195976017</ele>
        <time>2000-05-11T13:04:49.991</time>
      </trkpt>
      <trkpt lat="42.54236" lon="2.04527">
        <ele>1760.4371129667</ele>
        <time>2000-05-11T13:04:50.991</time>
      </trkpt>
      <trkpt lat="42.54236" lon="2.04526">
        <ele>1760.8164928794</ele>
        <time>2000-05-11T13:04:51.991</time>
      </trkpt>
      <trkpt lat="42.54237" lon="2.04524">
        <ele>1761.2183484372</ele>
        <time>2000-05-11T13:04:52.991</time>
      </trkpt>
      <trkpt lat="42.54237" lon="2.04523">
        <ele>1761.8833137268</ele>
        <time>2000-05-11T13:04:53.991</time>
      </trkpt>
      <trkpt lat="42.54237" lon="2.04522">
        <ele>1762.492221692</ele>
        <time>2000-05-11T13:04:54.991</time>
      </trkpt>
      <trkpt lat="42.54238" lon="2.04522">
        <ele>1763.1280363312</ele>
        <time>2000-05-11T13:04:55.991</time>
      </trkpt>
      <trkpt lat="42.54238" lon="2.04521">
        <ele>1763.8419671798</ele>
        <time>2000-05-11T13:04:56.991</time>
      </trkpt>
      <trkpt lat="42.54238" lon="2.04519">
        <ele>1764.7745258283</ele>
        <time>2000-05-11T13:04:57.991</time>
      </trkpt>
      <trkpt lat="42.54238" lon="2.04518">
        <ele>1765.6427676823</ele>
        <time>2000-05-11T13:04:58.991</time>
      </trkpt>
      <trkpt lat="42.54237" lon="2.04517">
        <ele>1766.2663877679</ele>
        <time>2000-05-11T13:04:59.991</time>
      </trkpt>
      <trkpt lat="42.54237" lon="2.04516">
        <ele>1766.3648545967</ele>
        <time>2000-05-11T13:05:00.991</time>
      </trkpt>
      <trkpt lat="42.54236" lon="2.04516">
        <ele>1765.8983679473</ele>
        <time>2000-05-11T13:05:01.991</time>
      </trkpt>
      <trkpt lat="42.54236" lon="2.04515">
        <ele>1765.1037247939</ele>
        <time>2000-05-11T13:05:02.991</time>
      </trkpt>
      <trkpt lat="42.54236" lon="2.04513">
        <ele>1764.41983866</ele>
        <time>2000-05-11T13:05:03.991</time>
      </trkpt>
      <trkpt lat="42.54236" lon="2.04512">
        <ele>1763.9085851671</ele>
        <time>2000-05-11T13:05:04.991</time>
      </trkpt>
      <trkpt lat="42.54236" lon="2.04511">
        <ele>1763.6350461666</ele>
        <time>2000-05-11T13:05:05.991</time>
      </trkpt>
      <trkpt lat="42.54236" lon="2.04509">
        <ele>1763.5156026082</ele>
        <time>2000-05-11T13:05:06.991</time>
      </trkpt>
      <trkpt lat="42.54236" lon="2.04508">
        <ele>1763.4078068815</ele>
        <time>2000-05-11T13:05:07.991</time>
      </trkpt>
      <trkpt lat="42.54236" lon="2.04507">
        <ele>1763.2525327154</ele>
        <time>2000-05-11T13:05:08.991</time>
      </trkpt>
      <trkpt lat="42.54236" lon="2.04505">
        <ele>1762.9147692664</ele>
        <time>2000-05-11T13:05:09.991</time>
      </trkpt>
      <trkpt lat="42.54236" lon="2.04504">
        <ele>1762.5420913568</ele>
        <time>2000-05-11T13:05:10.991</time>
      </trkpt>
      <trkpt lat="42.54237" lon="2.04503">
        <ele>1762.3192866864</ele>
        <time>2000-05-11T13:05:11.991</time>
      </trkpt>
      <trkpt lat="42.54236" lon="2.04501">
        <ele>1762.2520711005</ele>
        <time>2000-05-11T13:05:12.991</time>
      </trkpt>
      <trkpt lat="42.54236" lon="2.04499">
        <ele>1762.2391806494</ele>
        <time>2000-05-11T13:05:13.991</time>
      </trkpt>
      <trkpt lat="42.54236" lon="2.04498">
        <ele>1762.5597600432</ele>
        <time>2000-05-11T13:05:14.991</time>
      </trkpt>
      <trkpt lat="42.54235" lon="2.04497">
        <ele>1763.1578034399</ele>
        <time>2000-05-11T13:05:15.991</time>
      </trkpt>
      <trkpt lat="42.54234" lon="2.04496">
        <ele>1763.8341519838</ele>
        <time>2000-05-11T13:05:16.991</time>
      </trkpt>
      <trkpt lat="42.54233" lon="2.04495">
        <ele>1764.5474741042</ele>
        <time>2000-05-11T13:05:17.991</time>
      </trkpt>
      <trkpt lat="42.54233" lon="2.04495">
        <ele>1764.9100602677</ele>
        <time>2000-05-11T13:05:18.991</time>
      </trkpt>
      <trkpt lat="42.54233" lon="2.04494">
        <ele>1764.5478567054</ele>
        <time>2000-05-11T13:05:19.991</time>
      </trkpt>
      <trkpt lat="42.54234" lon="2.04493">
        <ele>1763.7694754556</ele>
        <time>2000-05-11T13:05:20.991</time>
      </trkpt>
      <trkpt lat="42.54233" lon="2.04491">
        <ele>1762.7507589636</ele>
        <time>2000-05-11T13:05:21.991</time>
      </trkpt>
      <trkpt lat="42.54234" lon="2.0449">
        <ele>1761.6435218189</ele>
        <time>2000-05-11T13:05:22.991</time>
      </trkpt>
      <trkpt lat="42.54235" lon="2.04488">
        <ele>1760.9719946075</ele>
        <time>2000-05-11T13:05:23.991</time>
      </trkpt>
      <trkpt lat="42.54235" lon="2.04486">
        <ele>1760.8380803503</ele>
        <time>2000-05-11T13:05:24.991</time>
      </trkpt>
      <trkpt lat="42.54235" lon="2.04485">
        <ele>1761.1148111919</ele>
        <time>2000-05-11T13:05:25.991</time>
      </trkpt>
      <trkpt lat="42.54234" lon="2.04484">
        <ele>1761.5905987551</ele>
        <time>2000-05-11T13:05:26.991</time>
      </trkpt>
      <trkpt lat="42.54234" lon="2.04483">
        <ele>1762.0265199073</ele>
        <time>2000-05-11T13:05:27.991</time>
      </trkpt>
      <trkpt lat="42.54234" lon="2.04481">
        <ele>1762.2715261376</ele>
        <time>2000-05-11T13:05:28.991</time>
      </trkpt>
      <trkpt lat="42.54233" lon="2.0448">
        <ele>1762.5513522863</ele>
        <time>2000-05-11T13:05:29.991</time>
      </trkpt>
      <trkpt lat="42.54233" lon="2.04479">
        <ele>1762.8333168738</ele>
        <time>2000-05-11T13:05:30.991</time>
      </trkpt>
      <trkpt lat="42.54233" lon="2.04477">
        <ele>1763.2258818915</ele>
        <time>2000-05-11T13:05:31.991</time>
      </trkpt>
      <trkpt lat="42.54233" lon="2.04476">
        <ele>1763.7449740687</ele>
        <time>2000-05-11T13:05:32.991</time>
      </trkpt>
      <trkpt lat="42.54234" lon="2.04474">
        <ele>1764.3666044429</ele>
        <time>2000-05-11T13:05:33.991</time>
      </trkpt>
      <trkpt lat="42.54234" lon="2.04473">
        <ele>1764.9005648635</ele>
        <time>2000-05-11T13:05:34.991</time>
      </trkpt>
      <trkpt lat="42.54234" lon="2.04471">
        <ele>1765.7056542445</ele>
        <time>2000-05-11T13:05:35.991</time>
      </trkpt>
      <trkpt lat="42.54234" lon="2.04471">
        <ele>1766.4169893971</ele>
        <time>2000-05-11T13:05:36.991</time>
      </trkpt>
      <trkpt lat="42.54234" lon="2.04469">
        <ele>1767.2790803928</ele>
        <time>2000-05-11T13:05:37.991</time>
      </trkpt>
      <trkpt lat="42.54233" lon="2.04467">
        <ele>1768.0744264627</ele>
        <time>2000-05-11T13:05:38.991</time>
      </trkpt>
      <trkpt lat="42.54234" lon="2.04466">
        <ele>1768.8665788131</ele>
        <time>2000-05-11T13:05:39.991</time>
      </trkpt>
      <trkpt lat="42.54234" lon="2.04465">
        <ele>1769.0186494995</ele>
        <time>2000-05-11T13:05:40.991</time>
      </trkpt>
      <trkpt lat="42.54235" lon="2.04464">
        <ele>1768.9604702191</ele>
        <time>2000-05-11T13:05:41.991</time>
      </trkpt>
      <trkpt lat="42.54235" lon="2.04462">
        <ele>1768.604967034</ele>
        <time>2000-05-11T13:05:42.991</time>
      </trkpt>
      <trkpt lat="42.54235" lon="2.04461">
        <ele>1768.2871956045</ele>
        <time>2000-05-11T13:05:43.991</time>
      </trkpt>
      <trkpt lat="42.54236" lon="2.0446">
        <ele>1767.8607250461</ele>
        <time>2000-05-11T13:05:44.991</time>
      </trkpt>
      <trkpt lat="42.54236" lon="2.04458">
        <ele>1767.6246153517</ele>
        <time>2000-05-11T13:05:45.991</time>
      </trkpt>
      <trkpt lat="42.54236" lon="2.04458">
        <ele>1767.6136790153</ele>
        <time>2000-05-11T13:05:46.991</time>
      </trkpt>
      <trkpt lat="42.54236" lon="2.04456">
        <ele>1767.8423343843</ele>
        <time>2000-05-11T13:05:47.991</time>
      </trkpt>
      <trkpt lat="42.54237" lon="2.04455">
        <ele>1768.1100524319</ele>
        <time>2000-05-11T13:05:48.991</time>
      </trkpt>
      <trkpt lat="42.54237" lon="2.04453">
        <ele>1768.5408201357</ele>
        <time>2000-05-11T13:05:49.991</time>
      </trkpt>
      <trkpt lat="42.54238" lon="2.04452">
        <ele>1769.1516300516</ele>
        <time>2000-05-11T13:05:50.991</time>
      </trkpt>
      <trkpt lat="42.54237" lon="2.04451">
        <ele>1769.8684934279</ele>
        <time>2000-05-11T13:05:51.991</time>
      </trkpt>
      <trkpt lat="42.54237" lon="2.0445">
        <ele>1770.3525067789</ele>
        <time>2000-05-11T13:05:52.991</time>
      </trkpt>
      <trkpt lat="42.54238" lon="2.04449">
        <ele>1770.8168274688</ele>
        <time>2000-05-11T13:05:53.991</time>
      </trkpt>
      <trkpt lat="42.54238" lon="2.04448">
        <ele>1771.1267243028</ele>
        <time>2000-05-11T13:05:54.991</time>
      </trkpt>
      <trkpt lat="42.54239" lon="2.04446">
        <ele>1771.0769359542</ele>
        <time>2000-05-11T13:05:55.991</time>
      </trkpt>
      <trkpt lat="42.5424" lon="2.04445">
        <ele>1770.8545965225</ele>
        <time>2000-05-11T13:05:56.991</time>
      </trkpt>
      <trkpt lat="42.54241" lon="2.04444">
        <ele>1770.565771989</ele>
        <time>2000-05-11T13:05:57.991</time>
      </trkpt>
      <trkpt lat="42.54241" lon="2.04443">
        <ele>1770.0278057704</ele>
        <time>2000-05-11T13:05:58.991</time>
      </trkpt>
      <trkpt lat="42.54242" lon="2.04443">
        <ele>1769.3084330292</ele>
        <time>2000-05-11T13:05:59.991</time>
      </trkpt>
      <trkpt lat="42.54241" lon="2.04442">
        <ele>1768.6774178693</ele>
        <time>2000-05-11T13:06:00.991</time>
      </trkpt>
      <trkpt lat="42.5424" lon="2.0444">
        <ele>1768.3866734494</ele>
        <time>2000-05-11T13:06:01.991</time>
      </trkpt>
      <trkpt lat="42.5424" lon="2.04439">
        <ele>1768.2380624034</ele>
        <time>2000-05-11T13:06:02.991</time>
      </trkpt>
      <trkpt lat="42.54241" lon="2.04438">
        <ele>1768.4279058672</ele>
        <time>2000-05-11T13:06:03.991</time>
      </trkpt>
      <trkpt lat="42.54241" lon="2.04436">
        <ele>1769.1264860425</ele>
        <time>2000-05-11T13:06:04.991</time>
      </trkpt>
      <trkpt lat="42.54243" lon="2.04434">
        <ele>1770.1791963648</ele>
        <time>2000-05-11T13:06:05.991</time>
      </trkpt>
      <trkpt lat="42.54244" lon="2.04433">
        <ele>1770.9935259102</ele>
        <time>2000-05-11T13:06:06.991</time>
      </trkpt>
      <trkpt lat="42.54245" lon="2.04432">
        <ele>1771.7058128461</ele>
        <time>2000-05-11T13:06:07.991</time>
      </trkpt>
      <trkpt lat="42.54246" lon="2.04431">
        <ele>1772.5236276135</ele>
        <time>2000-05-11T13:06:08.991</time>
      </trkpt>
      <trkpt lat="42.54247" lon="2.0443">
        <ele>1773.0234479936</ele>
        <time>2000-05-11T13:06:09.991</time>
      </trkpt>
      <trkpt lat="42.54248" lon="2.04429">
        <ele>1773.2161746742</ele>
        <time>2000-05-11T13:06:10.991</time>
      </trkpt>
      <trkpt lat="42.54248" lon="2.04429">
        <ele>1773.4310124233</ele>
        <time>2000-05-11T13:06:11.991</time>
      </trkpt>
      <trkpt lat="42.54249" lon="2.04428">
        <ele>1774.0149508316</ele>
        <time>2000-05-11T13:06:12.991</time>
      </trkpt>
      <trkpt lat="42.54249" lon="2.04426">
        <ele>1774.6403878933</ele>
        <time>2000-05-11T13:06:13.991</time>
      </trkpt>
      <trkpt lat="42.54249" lon="2.04426">
        <ele>1775.3033979006</ele>
        <time>2000-05-11T13:06:14.991</time>
      </trkpt>
      <trkpt lat="42.54251" lon="2.04426">
        <ele>1775.3078609047</ele>
        <time>2000-05-11T13:06:15.993</time>
      </trkpt>
      <trkpt lat="42.54251" lon="2.04426">
        <ele>1775.3446785675</ele>
        <time>2000-05-11T13:06:16.993</time>
      </trkpt>
      <trkpt lat="42.54251" lon="2.04424">
        <ele>1775.1510710655</ele>
        <time>2000-05-11T13:06:17.994</time>
      </trkpt>
      <trkpt lat="42.54251" lon="2.04424">
        <ele>1774.6297527494</ele>
        <time>2000-05-11T13:06:18.994</time>
      </trkpt>
      <trkpt lat="42.54252" lon="2.04427">
        <ele>1772.9096673628</ele>
        <time>2000-05-11T13:06:19.994</time>
      </trkpt>
      <trkpt lat="42.54252" lon="2.04427">
        <ele>1771.6204074882</ele>
        <time>2000-05-11T13:06:20.994</time>
      </trkpt>
      <trkpt lat="42.54254" lon="2.04427">
        <ele>1770.1460230926</ele>
        <time>2000-05-11T13:06:21.994</time>
      </trkpt>
      <trkpt lat="42.54256" lon="2.04427">
        <ele>1768.4364839954</ele>
        <time>2000-05-11T13:06:22.994</time>
      </trkpt>
      <trkpt lat="42.5426" lon="2.04426">
        <ele>1766.1475333082</ele>
        <time>2000-05-11T13:06:23.994</time>
      </trkpt>
      <trkpt lat="42.54261" lon="2.04425">
        <ele>1765.0245399909</ele>
        <time>2000-05-11T13:06:24.994</time>
      </trkpt>
      <trkpt lat="42.54262" lon="2.04424">
        <ele>1764.2355138138</ele>
        <time>2000-05-11T13:06:25.994</time>
      </trkpt>
      <trkpt lat="42.54262" lon="2.04424">
        <ele>1763.2640548838</ele>
        <time>2000-05-11T13:06:26.994</time>
      </trkpt>
      <trkpt lat="42.54263" lon="2.04423">
        <ele>1762.5890082408</ele>
        <time>2000-05-11T13:06:27.994</time>
      </trkpt>
      <trkpt lat="42.54263" lon="2.04422">
        <ele>1762.7263859915</ele>
        <time>2000-05-11T13:06:28.994</time>
      </trkpt>
      <trkpt lat="42.54263" lon="2.04421">
        <ele>1762.795797283</ele>
        <time>2000-05-11T13:06:29.994</time>
      </trkpt>
      <trkpt lat="42.54263" lon="2.0442">
        <ele>1762.7072237663</ele>
        <time>2000-05-11T13:06:30.994</time>
      </trkpt>
      <trkpt lat="42.54263" lon="2.04419">
        <ele>1762.8099275189</ele>
        <time>2000-05-11T13:06:31.994</time>
      </trkpt>
      <trkpt lat="42.54263" lon="2.04418">
        <ele>1762.6754051402</ele>
        <time>2000-05-11T13:06:32.994</time>
      </trkpt>
      <trkpt lat="42.54264" lon="2.04417">
        <ele>1762.190089272</ele>
        <time>2000-05-11T13:06:33.994</time>
      </trkpt>
      <trkpt lat="42.54265" lon="2.04415">
        <ele>1761.9464494243</ele>
        <time>2000-05-11T13:06:34.994</time>
      </trkpt>
      <trkpt lat="42.54266" lon="2.04414">
        <ele>1762.0685893405</ele>
        <time>2000-05-11T13:06:35.994</time>
      </trkpt>
      <trkpt lat="42.54266" lon="2.04413">
        <ele>1762.3768517466</ele>
        <time>2000-05-11T13:06:36.994</time>
      </trkpt>
      <trkpt lat="42.54265" lon="2.04411">
        <ele>1763.2435713628</ele>
        <time>2000-05-11T13:06:37.994</time>
      </trkpt>
      <trkpt lat="42.54265" lon="2.0441">
        <ele>1764.3054785209</ele>
        <time>2000-05-11T13:06:38.994</time>
      </trkpt>
      <trkpt lat="42.54266" lon="2.04409">
        <ele>1765.1997047756</ele>
        <time>2000-05-11T13:06:39.994</time>
      </trkpt>
      <trkpt lat="42.54266" lon="2.04408">
        <ele>1765.5518599883</ele>
        <time>2000-05-11T13:06:40.994</time>
      </trkpt>
      <trkpt lat="42.54267" lon="2.04407">
        <ele>1765.5527533101</ele>
        <time>2000-05-11T13:06:41.994</time>
      </trkpt>
      <trkpt lat="42.54267" lon="2.04406">
        <ele>1765.2480075995</ele>
        <time>2000-05-11T13:06:42.994</time>
      </trkpt>
      <trkpt lat="42.54267" lon="2.04405">
        <ele>1764.9350569434</ele>
        <time>2000-05-11T13:06:43.994</time>
      </trkpt>
      <trkpt lat="42.54268" lon="2.04404">
        <ele>1764.7320015099</ele>
        <time>2000-05-11T13:06:44.994</time>
      </trkpt>
      <trkpt lat="42.54269" lon="2.04402">
        <ele>1764.7744751243</ele>
        <time>2000-05-11T13:06:45.994</time>
      </trkpt>
      <trkpt lat="42.54269" lon="2.04401">
        <ele>1764.9583187874</ele>
        <time>2000-05-11T13:06:46.994</time>
      </trkpt>
      <trkpt lat="42.5427" lon="2.044">
        <ele>1765.0225633202</ele>
        <time>2000-05-11T13:06:47.994</time>
      </trkpt>
      <trkpt lat="42.5427" lon="2.04399">
        <ele>1764.960313138</ele>
        <time>2000-05-11T13:06:48.994</time>
      </trkpt>
      <trkpt lat="42.5427" lon="2.04399">
        <ele>1764.71621744</ele>
        <time>2000-05-11T13:06:49.994</time>
      </trkpt>
      <trkpt lat="42.54271" lon="2.04398">
        <ele>1764.4557983814</ele>
        <time>2000-05-11T13:06:50.994</time>
      </trkpt>
      <trkpt lat="42.54272" lon="2.04397">
        <ele>1764.3357605647</ele>
        <time>2000-05-11T13:06:51.994</time>
      </trkpt>
      <trkpt lat="42.54273" lon="2.04395">
        <ele>1764.4079034708</ele>
        <time>2000-05-11T13:06:52.994</time>
      </trkpt>
      <trkpt lat="42.54273" lon="2.04394">
        <ele>1764.4152483618</ele>
        <time>2000-05-11T13:06:53.994</time>
      </trkpt>
      <trkpt lat="42.54273" lon="2.04393">
        <ele>1764.7294211259</ele>
        <time>2000-05-11T13:06:54.994</time>
      </trkpt>
      <trkpt lat="42.54273" lon="2.0439">
        <ele>1765.2767874978</ele>
        <time>2000-05-11T13:06:55.994</time>
      </trkpt>
      <trkpt lat="42.54273" lon="2.04389">
        <ele>1765.6700329404</ele>
        <time>2000-05-11T13:06:56.994</time>
      </trkpt>
      <trkpt lat="42.54273" lon="2.04388">
        <ele>1765.7294276426</ele>
        <time>2000-05-11T13:06:57.994</time>
      </trkpt>
      <trkpt lat="42.54274" lon="2.04387">
        <ele>1765.8877866711</ele>
        <time>2000-05-11T13:06:58.994</time>
      </trkpt>
      <trkpt lat="42.54274" lon="2.04386">
        <ele>1765.9396024477</ele>
        <time>2000-05-11T13:06:59.994</time>
      </trkpt>
      <trkpt lat="42.54275" lon="2.04385">
        <ele>1765.8453455282</ele>
        <time>2000-05-11T13:07:00.994</time>
      </trkpt>
      <trkpt lat="42.54276" lon="2.04384">
        <ele>1765.1787956884</ele>
        <time>2000-05-11T13:07:01.994</time>
      </trkpt>
      <trkpt lat="42.54275" lon="2.04383">
        <ele>1764.6510524098</ele>
        <time>2000-05-11T13:07:02.994</time>
      </trkpt>
      <trkpt lat="42.54274" lon="2.04382">
        <ele>1764.0825570898</ele>
        <time>2000-05-11T13:07:03.994</time>
      </trkpt>
      <trkpt lat="42.54273" lon="2.0438">
        <ele>1763.350448896</ele>
        <time>2000-05-11T13:07:04.994</time>
      </trkpt>
      <trkpt lat="42.54272" lon="2.0438">
        <ele>1762.3931728525</ele>
        <time>2000-05-11T13:07:05.994</time>
      </trkpt>
      <trkpt lat="42.54271" lon="2.04379">
        <ele>1762.2056814007</ele>
        <time>2000-05-11T13:07:06.994</time>
      </trkpt>
      <trkpt lat="42.5427" lon="2.04378">
        <ele>1762.030066473</ele>
        <time>2000-05-11T13:07:07.994</time>
      </trkpt>
      <trkpt lat="42.5427" lon="2.04377">
        <ele>1762.0774300743</ele>
        <time>2000-05-11T13:07:08.994</time>
      </trkpt>
      <trkpt lat="42.54271" lon="2.04375">
        <ele>1762.4064813245</ele>
        <time>2000-05-11T13:07:09.994</time>
      </trkpt>
      <trkpt lat="42.54271" lon="2.04374">
        <ele>1763.0534100365</ele>
        <time>2000-05-11T13:07:10.994</time>
      </trkpt>
      <trkpt lat="42.54271" lon="2.04374">
        <ele>1763.6966858359</ele>
        <time>2000-05-11T13:07:11.994</time>
      </trkpt>
      <trkpt lat="42.5427" lon="2.04373">
        <ele>1764.2398222556</ele>
        <time>2000-05-11T13:07:12.994</time>
      </trkpt>
      <trkpt lat="42.5427" lon="2.04372">
        <ele>1764.4010024833</ele>
        <time>2000-05-11T13:07:13.994</time>
      </trkpt>
      <trkpt lat="42.5427" lon="2.0437">
        <ele>1764.3413594054</ele>
        <time>2000-05-11T13:07:14.994</time>
      </trkpt>
      <trkpt lat="42.5427" lon="2.04369">
        <ele>1764.2080675434</ele>
        <time>2000-05-11T13:07:15.994</time>
      </trkpt>
      <trkpt lat="42.5427" lon="2.04369">
        <ele>1763.8184636904</ele>
        <time>2000-05-11T13:07:16.994</time>
      </trkpt>
      <trkpt lat="42.54269" lon="2.04368">
        <ele>1763.4364215882</ele>
        <time>2000-05-11T13:07:17.994</time>
      </trkpt>
      <trkpt lat="42.54269" lon="2.04366">
        <ele>1762.907737744</ele>
        <time>2000-05-11T13:07:18.994</time>
      </trkpt>
      <trkpt lat="42.54268" lon="2.04366">
        <ele>1762.2869495066</ele>
        <time>2000-05-11T13:07:19.994</time>
      </trkpt>
      <trkpt lat="42.54267" lon="2.04365">
        <ele>1761.596305104</ele>
        <time>2000-05-11T13:07:20.994</time>
      </trkpt>
      <trkpt lat="42.54266" lon="2.04364">
        <ele>1761.1177176261</ele>
        <time>2000-05-11T13:07:21.994</time>
      </trkpt>
      <trkpt lat="42.54266" lon="2.04363">
        <ele>1761.0298197946</ele>
        <time>2000-05-11T13:07:22.994</time>
      </trkpt>
      <trkpt lat="42.54264" lon="2.04362">
        <ele>1761.2146710014</ele>
        <time>2000-05-11T13:07:23.994</time>
      </trkpt>
      <trkpt lat="42.54263" lon="2.04361">
        <ele>1761.5173630787</ele>
        <time>2000-05-11T13:07:24.994</time>
      </trkpt>
      <trkpt lat="42.54262" lon="2.04359">
        <ele>1761.5060748665</ele>
        <time>2000-05-11T13:07:25.994</time>
      </trkpt>
      <trkpt lat="42.54261" lon="2.04358">
        <ele>1761.3078718385</ele>
        <time>2000-05-11T13:07:26.994</time>
      </trkpt>
      <trkpt lat="42.54261" lon="2.04357">
        <ele>1760.8174060276</ele>
        <time>2000-05-11T13:07:27.994</time>
      </trkpt>
      <trkpt lat="42.54261" lon="2.04355">
        <ele>1760.5856994439</ele>
        <time>2000-05-11T13:07:28.994</time>
      </trkpt>
      <trkpt lat="42.54261" lon="2.04354">
        <ele>1760.7337953046</ele>
        <time>2000-05-11T13:07:29.994</time>
      </trkpt>
      <trkpt lat="42.54261" lon="2.04353">
        <ele>1761.4188866194</ele>
        <time>2000-05-11T13:07:30.994</time>
      </trkpt>
      <trkpt lat="42.54261" lon="2.04351">
        <ele>1762.1342487937</ele>
        <time>2000-05-11T13:07:31.994</time>
      </trkpt>
      <trkpt lat="42.54262" lon="2.04349">
        <ele>1762.73539191</ele>
        <time>2000-05-11T13:07:32.994</time>
      </trkpt>
      <trkpt lat="42.54261" lon="2.04348">
        <ele>1763.0907271327</ele>
        <time>2000-05-11T13:07:33.994</time>
      </trkpt>
      <trkpt lat="42.54261" lon="2.04346">
        <ele>1763.1250267349</ele>
        <time>2000-05-11T13:07:34.994</time>
      </trkpt>
      <trkpt lat="42.5426" lon="2.04345">
        <ele>1762.9009697292</ele>
        <time>2000-05-11T13:07:35.994</time>
      </trkpt>
      <trkpt lat="42.5426" lon="2.04344">
        <ele>1762.6494004609</ele>
        <time>2000-05-11T13:07:36.994</time>
      </trkpt>
      <trkpt lat="42.54261" lon="2.04343">
        <ele>1762.6421460982</ele>
        <time>2000-05-11T13:07:37.994</time>
      </trkpt>
      <trkpt lat="42.54262" lon="2.04341">
        <ele>1762.8937302349</ele>
        <time>2000-05-11T13:07:38.994</time>
      </trkpt>
      <trkpt lat="42.54263" lon="2.04339">
        <ele>1763.0871668044</ele>
        <time>2000-05-11T13:07:39.994</time>
      </trkpt>
      <trkpt lat="42.54264" lon="2.04338">
        <ele>1763.4014740683</ele>
        <time>2000-05-11T13:07:40.994</time>
      </trkpt>
      <trkpt lat="42.54265" lon="2.04336">
        <ele>1763.7700009823</ele>
        <time>2000-05-11T13:07:41.994</time>
      </trkpt>
      <trkpt lat="42.54264" lon="2.04334">
        <ele>1763.9451066274</ele>
        <time>2000-05-11T13:07:42.994</time>
      </trkpt>
      <trkpt lat="42.54265" lon="2.04333">
        <ele>1763.9370479237</ele>
        <time>2000-05-11T13:07:43.994</time>
      </trkpt>
      <trkpt lat="42.54265" lon="2.04332">
        <ele>1764.0484488057</ele>
        <time>2000-05-11T13:07:44.994</time>
      </trkpt>
      <trkpt lat="42.54266" lon="2.0433">
        <ele>1764.1389473066</ele>
        <time>2000-05-11T13:07:45.994</time>
      </trkpt>
      <trkpt lat="42.54267" lon="2.04328">
        <ele>1764.5629811091</ele>
        <time>2000-05-11T13:07:46.994</time>
      </trkpt>
      <trkpt lat="42.54267" lon="2.04327">
        <ele>1765.1193180997</ele>
        <time>2000-05-11T13:07:47.994</time>
      </trkpt>
      <trkpt lat="42.54268" lon="2.04325">
        <ele>1765.6198680446</ele>
        <time>2000-05-11T13:07:48.994</time>
      </trkpt>
      <trkpt lat="42.54268" lon="2.04323">
        <ele>1766.413291857</ele>
        <time>2000-05-11T13:07:49.994</time>
      </trkpt>
      <trkpt lat="42.54269" lon="2.04321">
        <ele>1767.2612530963</ele>
        <time>2000-05-11T13:07:50.994</time>
      </trkpt>
      <trkpt lat="42.54269" lon="2.0432">
        <ele>1767.970070277</ele>
        <time>2000-05-11T13:07:51.994</time>
      </trkpt>
      <trkpt lat="42.5427" lon="2.04318">
        <ele>1768.8090414476</ele>
        <time>2000-05-11T13:07:52.994</time>
      </trkpt>
      <trkpt lat="42.5427" lon="2.04317">
        <ele>1769.8371070445</ele>
        <time>2000-05-11T13:07:53.994</time>
      </trkpt>
      <trkpt lat="42.54271" lon="2.04316">
        <ele>1770.5428143546</ele>
        <time>2000-05-11T13:07:54.994</time>
      </trkpt>
      <trkpt lat="42.54271" lon="2.04316">
        <ele>1771.1174466461</ele>
        <time>2000-05-11T13:07:55.994</time>
      </trkpt>
      <trkpt lat="42.54271" lon="2.04315">
        <ele>1771.7844715219</ele>
        <time>2000-05-11T13:07:56.995</time>
      </trkpt>
      <trkpt lat="42.54272" lon="2.04314">
        <ele>1772.3237739496</ele>
        <time>2000-05-11T13:07:57.995</time>
      </trkpt>
      <trkpt lat="42.54273" lon="2.04313">
        <ele>1772.7825300911</ele>
        <time>2000-05-11T13:07:58.995</time>
      </trkpt>
      <trkpt lat="42.54273" lon="2.04312">
        <ele>1773.0626084946</ele>
        <time>2000-05-11T13:07:59.995</time>
      </trkpt>
      <trkpt lat="42.54274" lon="2.04311">
        <ele>1773.317208143</ele>
        <time>2000-05-11T13:08:00.995</time>
      </trkpt>
      <trkpt lat="42.54274" lon="2.04311">
        <ele>1773.3743844258</ele>
        <time>2000-05-11T13:08:01.995</time>
      </trkpt>
      <trkpt lat="42.54275" lon="2.04311">
        <ele>1773.0286107725</ele>
        <time>2000-05-11T13:08:02.995</time>
      </trkpt>
      <trkpt lat="42.54276" lon="2.0431">
        <ele>1772.480621949</ele>
        <time>2000-05-11T13:08:03.995</time>
      </trkpt>
      <trkpt lat="42.54278" lon="2.04309">
        <ele>1772.080128463</ele>
        <time>2000-05-11T13:08:04.994</time>
      </trkpt>
      <trkpt lat="42.54281" lon="2.04308">
        <ele>1771.5258576794</ele>
        <time>2000-05-11T13:08:05.994</time>
      </trkpt>
      <trkpt lat="42.54283" lon="2.04307">
        <ele>1770.8571268737</ele>
        <time>2000-05-11T13:08:06.994</time>
      </trkpt>
      <trkpt lat="42.54283" lon="2.04307">
        <ele>1770.5998757649</ele>
        <time>2000-05-11T13:08:07.994</time>
      </trkpt>
      <trkpt lat="42.54284" lon="2.04306">
        <ele>1770.5766800361</ele>
        <time>2000-05-11T13:08:08.994</time>
      </trkpt>
      <trkpt lat="42.54284" lon="2.04304">
        <ele>1770.4189186456</ele>
        <time>2000-05-11T13:08:09.994</time>
      </trkpt>
      <trkpt lat="42.54284" lon="2.04304">
        <ele>1769.8965614781</ele>
        <time>2000-05-11T13:08:10.994</time>
      </trkpt>
      <trkpt lat="42.54284" lon="2.04302">
        <ele>1769.4637852255</ele>
        <time>2000-05-11T13:08:11.994</time>
      </trkpt>
      <trkpt lat="42.54285" lon="2.04301">
        <ele>1768.8537979929</ele>
        <time>2000-05-11T13:08:12.994</time>
      </trkpt>
      <trkpt lat="42.54286" lon="2.04299">
        <ele>1768.1966175983</ele>
        <time>2000-05-11T13:08:13.994</time>
      </trkpt>
      <trkpt lat="42.54287" lon="2.04297">
        <ele>1767.5094109729</ele>
        <time>2000-05-11T13:08:14.994</time>
      </trkpt>
      <trkpt lat="42.54287" lon="2.04296">
        <ele>1767.4135235965</ele>
        <time>2000-05-11T13:08:15.994</time>
      </trkpt>
      <trkpt lat="42.54288" lon="2.04294">
        <ele>1767.5377036432</ele>
        <time>2000-05-11T13:08:16.994</time>
      </trkpt>
      <trkpt lat="42.54287" lon="2.04293">
        <ele>1767.9868346741</ele>
        <time>2000-05-11T13:08:17.994</time>
      </trkpt>
      <trkpt lat="42.54288" lon="2.04291">
        <ele>1768.7868626341</ele>
        <time>2000-05-11T13:08:18.994</time>
      </trkpt>
      <trkpt lat="42.54289" lon="2.0429">
        <ele>1770.1275313787</ele>
        <time>2000-05-11T13:08:19.994</time>
      </trkpt>
      <trkpt lat="42.54289" lon="2.04289">
        <ele>1771.5867702842</ele>
        <time>2000-05-11T13:08:20.994</time>
      </trkpt>
      <trkpt lat="42.54289" lon="2.04289">
        <ele>1772.7778385997</ele>
        <time>2000-05-11T13:08:21.994</time>
      </trkpt>
      <trkpt lat="42.54288" lon="2.04289">
        <ele>1772.9801099237</ele>
        <time>2000-05-11T13:08:22.994</time>
      </trkpt>
      <trkpt lat="42.54287" lon="2.04287">
        <ele>1771.9106647903</ele>
        <time>2000-05-11T13:08:23.994</time>
      </trkpt>
      <trkpt lat="42.54287" lon="2.04286">
        <ele>1770.3014581162</ele>
        <time>2000-05-11T13:08:24.994</time>
      </trkpt>
      <trkpt lat="42.54287" lon="2.04284">
        <ele>1768.4757065373</ele>
        <time>2000-05-11T13:08:25.995</time>
      </trkpt>
      <trkpt lat="42.54288" lon="2.04283">
        <ele>1766.7092464553</ele>
        <time>2000-05-11T13:08:26.995</time>
      </trkpt>
      <trkpt lat="42.54288" lon="2.04281">
        <ele>1765.6764797209</ele>
        <time>2000-05-11T13:08:27.995</time>
      </trkpt>
      <trkpt lat="42.54288" lon="2.0428">
        <ele>1765.6679216849</ele>
        <time>2000-05-11T13:08:28.995</time>
      </trkpt>
      <trkpt lat="42.54288" lon="2.04279">
        <ele>1765.8254716396</ele>
        <time>2000-05-11T13:08:29.995</time>
      </trkpt>
      <trkpt lat="42.54289" lon="2.04278">
        <ele>1765.9813361315</ele>
        <time>2000-05-11T13:08:30.995</time>
      </trkpt>
      <trkpt lat="42.54289" lon="2.04277">
        <ele>1766.147807613</ele>
        <time>2000-05-11T13:08:31.995</time>
      </trkpt>
      <trkpt lat="42.54289" lon="2.04276">
        <ele>1766.2477222443</ele>
        <time>2000-05-11T13:08:32.995</time>
      </trkpt>
      <trkpt lat="42.5429" lon="2.04274">
        <ele>1766.1411558658</ele>
        <time>2000-05-11T13:08:33.995</time>
      </trkpt>
      <trkpt lat="42.54291" lon="2.04273">
        <ele>1765.984215924</ele>
        <time>2000-05-11T13:08:34.995</time>
      </trkpt>
      <trkpt lat="42.54291" lon="2.04272">
        <ele>1765.8623790285</ele>
        <time>2000-05-11T13:08:35.995</time>
      </trkpt>
      <trkpt lat="42.54291" lon="2.0427">
        <ele>1765.6588146033</ele>
        <time>2000-05-11T13:08:36.995</time>
      </trkpt>
      <trkpt lat="42.54292" lon="2.0427">
        <ele>1765.4505668433</ele>
        <time>2000-05-11T13:08:37.995</time>
      </trkpt>
      <trkpt lat="42.54293" lon="2.0427">
        <ele>1765.0319053723</ele>
        <time>2000-05-11T13:08:38.995</time>
      </trkpt>
      <trkpt lat="42.54292" lon="2.04269">
        <ele>1764.4611571725</ele>
        <time>2000-05-11T13:08:39.995</time>
      </trkpt>
      <trkpt lat="42.54292" lon="2.04267">
        <ele>1763.8423809875</ele>
        <time>2000-05-11T13:08:40.995</time>
      </trkpt>
      <trkpt lat="42.54292" lon="2.04265">
        <ele>1763.3998364886</ele>
        <time>2000-05-11T13:08:41.995</time>
      </trkpt>
      <trkpt lat="42.54292" lon="2.04264">
        <ele>1763.1024841683</ele>
        <time>2000-05-11T13:08:42.995</time>
      </trkpt>
      <trkpt lat="42.54292" lon="2.04262">
        <ele>1763.104595373</ele>
        <time>2000-05-11T13:08:43.995</time>
      </trkpt>
      <trkpt lat="42.54292" lon="2.04261">
        <ele>1763.3145946078</ele>
        <time>2000-05-11T13:08:44.995</time>
      </trkpt>
      <trkpt lat="42.54291" lon="2.04259">
        <ele>1763.5492779665</ele>
        <time>2000-05-11T13:08:45.995</time>
      </trkpt>
      <trkpt lat="42.54291" lon="2.04258">
        <ele>1763.6479602698</ele>
        <time>2000-05-11T13:08:46.995</time>
      </trkpt>
      <trkpt lat="42.54291" lon="2.04257">
        <ele>1763.6340580331</ele>
        <time>2000-05-11T13:08:47.995</time>
      </trkpt>
      <trkpt lat="42.54291" lon="2.04256">
        <ele>1763.6086281957</ele>
        <time>2000-05-11T13:08:48.995</time>
      </trkpt>
      <trkpt lat="42.54291" lon="2.04255">
        <ele>1763.4946647268</ele>
        <time>2000-05-11T13:08:49.995</time>
      </trkpt>
      <trkpt lat="42.54291" lon="2.04253">
        <ele>1763.4506072398</ele>
        <time>2000-05-11T13:08:50.995</time>
      </trkpt>
      <trkpt lat="42.54292" lon="2.04252">
        <ele>1763.5931184659</ele>
        <time>2000-05-11T13:08:51.995</time>
      </trkpt>
      <trkpt lat="42.54292" lon="2.04251">
        <ele>1763.7205007536</ele>
        <time>2000-05-11T13:08:52.995</time>
      </trkpt>
      <trkpt lat="42.54293" lon="2.0425">
        <ele>1763.776311277</ele>
        <time>2000-05-11T13:08:53.995</time>
      </trkpt>
      <trkpt lat="42.54293" lon="2.04249">
        <ele>1763.8254866254</ele>
        <time>2000-05-11T13:08:54.995</time>
      </trkpt>
      <trkpt lat="42.54293" lon="2.04247">
        <ele>1764.0254581803</ele>
        <time>2000-05-11T13:08:55.995</time>
      </trkpt>
      <trkpt lat="42.54293" lon="2.04246">
        <ele>1764.1012492945</ele>
        <time>2000-05-11T13:08:56.995</time>
      </trkpt>
      <trkpt lat="42.54293" lon="2.04245">
        <ele>1764.243458776</ele>
        <time>2000-05-11T13:08:57.995</time>
      </trkpt>
      <trkpt lat="42.54292" lon="2.04244">
        <ele>1764.3175476922</ele>
        <time>2000-05-11T13:08:58.995</time>
      </trkpt>
      <trkpt lat="42.54292" lon="2.04242">
        <ele>1764.3397483349</ele>
        <time>2000-05-11T13:08:59.995</time>
      </trkpt>
      <trkpt lat="42.54292" lon="2.04241">
        <ele>1764.0937962698</ele>
        <time>2000-05-11T13:09:00.995</time>
      </trkpt>
      <trkpt lat="42.54292" lon="2.0424">
        <ele>1763.8390876308</ele>
        <time>2000-05-11T13:09:01.995</time>
      </trkpt>
      <trkpt lat="42.54291" lon="2.04239">
        <ele>1763.7003500257</ele>
        <time>2000-05-11T13:09:02.995</time>
      </trkpt>
      <trkpt lat="42.54291" lon="2.04238">
        <ele>1763.5907412997</ele>
        <time>2000-05-11T13:09:03.995</time>
      </trkpt>
      <trkpt lat="42.54291" lon="2.04237">
        <ele>1763.3076358525</ele>
        <time>2000-05-11T13:09:04.995</time>
      </trkpt>
      <trkpt lat="42.54291" lon="2.04236">
        <ele>1763.2444852723</ele>
        <time>2000-05-11T13:09:05.995</time>
      </trkpt>
      <trkpt lat="42.54291" lon="2.04235">
        <ele>1763.3425738584</ele>
        <time>2000-05-11T13:09:06.995</time>
      </trkpt>
      <trkpt lat="42.54291" lon="2.04234">
        <ele>1763.3522936862</ele>
        <time>2000-05-11T13:09:07.995</time>
      </trkpt>
      <trkpt lat="42.5429" lon="2.04233">
        <ele>1763.3862764109</ele>
        <time>2000-05-11T13:09:08.995</time>
      </trkpt>
      <trkpt lat="42.5429" lon="2.04232">
        <ele>1763.703363855</ele>
        <time>2000-05-11T13:09:09.995</time>
      </trkpt>
      <trkpt lat="42.5429" lon="2.04231">
        <ele>1763.8212776722</ele>
        <time>2000-05-11T13:09:10.995</time>
      </trkpt>
      <trkpt lat="42.5429" lon="2.0423">
        <ele>1763.741192824</ele>
        <time>2000-05-11T13:09:11.995</time>
      </trkpt>
      <trkpt lat="42.54291" lon="2.04228">
        <ele>1763.7464532051</ele>
        <time>2000-05-11T13:09:12.995</time>
      </trkpt>
      <trkpt lat="42.54291" lon="2.04227">
        <ele>1763.7583418444</ele>
        <time>2000-05-11T13:09:13.995</time>
      </trkpt>
      <trkpt lat="42.54291" lon="2.04225">
        <ele>1763.8253540562</ele>
        <time>2000-05-11T13:09:14.995</time>
      </trkpt>
      <trkpt lat="42.54291" lon="2.04224">
        <ele>1764.1163813068</ele>
        <time>2000-05-11T13:09:15.995</time>
      </trkpt>
      <trkpt lat="42.54292" lon="2.04222">
        <ele>1764.5098390432</ele>
        <time>2000-05-11T13:09:16.995</time>
      </trkpt>
      <trkpt lat="42.54292" lon="2.04221">
        <ele>1764.8362308741</ele>
        <time>2000-05-11T13:09:17.995</time>
      </trkpt>
      <trkpt lat="42.54292" lon="2.04219">
        <ele>1765.2202233126</ele>
        <time>2000-05-11T13:09:18.995</time>
      </trkpt>
      <trkpt lat="42.54292" lon="2.04218">
        <ele>1765.6721832685</ele>
        <time>2000-05-11T13:09:19.995</time>
      </trkpt>
      <trkpt lat="42.54292" lon="2.04217">
        <ele>1766.2534094794</ele>
        <time>2000-05-11T13:09:20.995</time>
      </trkpt>
      <trkpt lat="42.54291" lon="2.04215">
        <ele>1766.9386016935</ele>
        <time>2000-05-11T13:09:21.995</time>
      </trkpt>
      <trkpt lat="42.54292" lon="2.04214">
        <ele>1767.5932469908</ele>
        <time>2000-05-11T13:09:22.995</time>
      </trkpt>
      <trkpt lat="42.54293" lon="2.04212">
        <ele>1767.8566732574</ele>
        <time>2000-05-11T13:09:23.995</time>
      </trkpt>
      <trkpt lat="42.54293" lon="2.0421">
        <ele>1767.9483257053</ele>
        <time>2000-05-11T13:09:24.995</time>
      </trkpt>
      <trkpt lat="42.54293" lon="2.04209">
        <ele>1767.877480462</ele>
        <time>2000-05-11T13:09:25.995</time>
      </trkpt>
      <trkpt lat="42.54293" lon="2.04208">
        <ele>1767.682915628</ele>
        <time>2000-05-11T13:09:26.995</time>
      </trkpt>
      <trkpt lat="42.54293" lon="2.04207">
        <ele>1767.7464657627</ele>
        <time>2000-05-11T13:09:27.995</time>
      </trkpt>
      <trkpt lat="42.54294" lon="2.04206">
        <ele>1768.4233416306</ele>
        <time>2000-05-11T13:09:28.995</time>
      </trkpt>
      <trkpt lat="42.54293" lon="2.04205">
        <ele>1769.1854354592</ele>
        <time>2000-05-11T13:09:29.995</time>
      </trkpt>
      <trkpt lat="42.54293" lon="2.04204">
        <ele>1769.7207284324</ele>
        <time>2000-05-11T13:09:30.995</time>
      </trkpt>
      <trkpt lat="42.54293" lon="2.04203">
        <ele>1770.109513863</ele>
        <time>2000-05-11T13:09:31.995</time>
      </trkpt>
      <trkpt lat="42.54293" lon="2.04202">
        <ele>1769.9495244265</ele>
        <time>2000-05-11T13:09:32.995</time>
      </trkpt>
      <trkpt lat="42.54293" lon="2.04201">
        <ele>1769.5188438166</ele>
        <time>2000-05-11T13:09:33.995</time>
      </trkpt>
      <trkpt lat="42.54293" lon="2.042">
        <ele>1768.8280469194</ele>
        <time>2000-05-11T13:09:34.995</time>
      </trkpt>
      <trkpt lat="42.54293" lon="2.04198">
        <ele>1767.9951437885</ele>
        <time>2000-05-11T13:09:35.995</time>
      </trkpt>
      <trkpt lat="42.54295" lon="2.04197">
        <ele>1767.0346707096</ele>
        <time>2000-05-11T13:09:36.995</time>
      </trkpt>
      <trkpt lat="42.54295" lon="2.04197">
        <ele>1766.3264736457</ele>
        <time>2000-05-11T13:09:37.995</time>
      </trkpt>
      <trkpt lat="42.54296" lon="2.04195">
        <ele>1765.8575101584</ele>
        <time>2000-05-11T13:09:38.995</time>
      </trkpt>
      <trkpt lat="42.54297" lon="2.04194">
        <ele>1765.7449325508</ele>
        <time>2000-05-11T13:09:39.995</time>
      </trkpt>
      <trkpt lat="42.54297" lon="2.04194">
        <ele>1765.7051276891</ele>
        <time>2000-05-11T13:09:40.995</time>
      </trkpt>
      <trkpt lat="42.54297" lon="2.04191">
        <ele>1765.5144250097</ele>
        <time>2000-05-11T13:09:41.993</time>
      </trkpt>
      <trkpt lat="42.54298" lon="2.0419">
        <ele>1765.307236331</ele>
        <time>2000-05-11T13:09:42.993</time>
      </trkpt>
      <trkpt lat="42.54299" lon="2.04188">
        <ele>1764.8830743585</ele>
        <time>2000-05-11T13:09:43.993</time>
      </trkpt>
      <trkpt lat="42.54299" lon="2.04187">
        <ele>1764.2826487914</ele>
        <time>2000-05-11T13:09:44.993</time>
      </trkpt>
      <trkpt lat="42.54299" lon="2.04185">
        <ele>1763.8554602152</ele>
        <time>2000-05-11T13:09:45.993</time>
      </trkpt>
      <trkpt lat="42.54299" lon="2.04184">
        <ele>1763.8053556053</ele>
        <time>2000-05-11T13:09:46.993</time>
      </trkpt>
      <trkpt lat="42.54298" lon="2.04182">
        <ele>1763.5931742486</ele>
        <time>2000-05-11T13:09:47.993</time>
      </trkpt>
      <trkpt lat="42.54298" lon="2.04181">
        <ele>1763.5176985724</ele>
        <time>2000-05-11T13:09:48.993</time>
      </trkpt>
      <trkpt lat="42.54298" lon="2.0418">
        <ele>1763.5885211701</ele>
        <time>2000-05-11T13:09:49.993</time>
      </trkpt>
      <trkpt lat="42.54298" lon="2.04179">
        <ele>1763.9478712471</ele>
        <time>2000-05-11T13:09:50.993</time>
      </trkpt>
      <trkpt lat="42.54298" lon="2.04179">
        <ele>1764.3517219733</ele>
        <time>2000-05-11T13:09:51.993</time>
      </trkpt>
      <trkpt lat="42.54299" lon="2.04177">
        <ele>1764.8640429066</ele>
        <time>2000-05-11T13:09:52.993</time>
      </trkpt>
      <trkpt lat="42.543" lon="2.04176">
        <ele>1765.2739339652</ele>
        <time>2000-05-11T13:09:53.993</time>
      </trkpt>
      <trkpt lat="42.543" lon="2.04175">
        <ele>1765.5225681815</ele>
        <time>2000-05-11T13:09:54.993</time>
      </trkpt>
      <trkpt lat="42.54301" lon="2.04173">
        <ele>1765.5206696484</ele>
        <time>2000-05-11T13:09:55.993</time>
      </trkpt>
      <trkpt lat="42.54301" lon="2.04171">
        <ele>1765.7139380844</ele>
        <time>2000-05-11T13:09:56.993</time>
      </trkpt>
      <trkpt lat="42.54301" lon="2.0417">
        <ele>1766.1162427895</ele>
        <time>2000-05-11T13:09:57.993</time>
      </trkpt>
      <trkpt lat="42.54301" lon="2.04168">
        <ele>1766.9010218127</ele>
        <time>2000-05-11T13:09:58.993</time>
      </trkpt>
      <trkpt lat="42.54301" lon="2.04167">
        <ele>1767.9289618466</ele>
        <time>2000-05-11T13:09:59.993</time>
      </trkpt>
      <trkpt lat="42.54301" lon="2.04167">
        <ele>1769.0909521032</ele>
        <time>2000-05-11T13:10:00.993</time>
      </trkpt>
      <trkpt lat="42.54301" lon="2.04166">
        <ele>1770.1421849502</ele>
        <time>2000-05-11T13:10:01.993</time>
      </trkpt>
      <trkpt lat="42.54302" lon="2.04164">
        <ele>1771.1281446032</ele>
        <time>2000-05-11T13:10:02.996</time>
      </trkpt>
      <trkpt lat="42.54303" lon="2.04163">
        <ele>1771.5800713949</ele>
        <time>2000-05-11T13:10:03.996</time>
      </trkpt>
      <trkpt lat="42.54303" lon="2.04161">
        <ele>1771.8473323317</ele>
        <time>2000-05-11T13:10:04.994</time>
      </trkpt>
      <trkpt lat="42.54304" lon="2.04159">
        <ele>1771.9727285722</ele>
        <time>2000-05-11T13:10:05.994</time>
      </trkpt>
      <trkpt lat="42.54305" lon="2.04158">
        <ele>1771.7196170155</ele>
        <time>2000-05-11T13:10:06.994</time>
      </trkpt>
      <trkpt lat="42.54305" lon="2.04157">
        <ele>1771.0783175822</ele>
        <time>2000-05-11T13:10:07.994</time>
      </trkpt>
      <trkpt lat="42.54306" lon="2.04156">
        <ele>1770.5438763138</ele>
        <time>2000-05-11T13:10:08.994</time>
      </trkpt>
      <trkpt lat="42.54306" lon="2.04154">
        <ele>1769.9003211392</ele>
        <time>2000-05-11T13:10:09.994</time>
      </trkpt>
      <trkpt lat="42.54307" lon="2.04153">
        <ele>1769.2994761983</ele>
        <time>2000-05-11T13:10:10.994</time>
      </trkpt>
      <trkpt lat="42.54307" lon="2.04152">
        <ele>1768.9201607225</ele>
        <time>2000-05-11T13:10:11.994</time>
      </trkpt>
      <trkpt lat="42.54307" lon="2.04151">
        <ele>1768.9810283342</ele>
        <time>2000-05-11T13:10:12.994</time>
      </trkpt>
      <trkpt lat="42.54308" lon="2.0415">
        <ele>1769.2118342578</ele>
        <time>2000-05-11T13:10:13.994</time>
      </trkpt>
      <trkpt lat="42.54308" lon="2.04149">
        <ele>1769.5344394326</ele>
        <time>2000-05-11T13:10:14.994</time>
      </trkpt>
      <trkpt lat="42.54309" lon="2.04149">
        <ele>1769.6142682528</ele>
        <time>2000-05-11T13:10:15.994</time>
      </trkpt>
      <trkpt lat="42.54309" lon="2.04147">
        <ele>1769.8301100789</ele>
        <time>2000-05-11T13:10:16.992</time>
      </trkpt>
      <trkpt lat="42.54309" lon="2.04147">
        <ele>1769.8135306599</ele>
        <time>2000-05-11T13:10:17.992</time>
      </trkpt>
      <trkpt lat="42.5431" lon="2.04144">
        <ele>1769.7870849855</ele>
        <time>2000-05-11T13:10:18.992</time>
      </trkpt>
      <trkpt lat="42.54311" lon="2.04142">
        <ele>1769.8545816706</ele>
        <time>2000-05-11T13:10:19.992</time>
      </trkpt>
      <trkpt lat="42.54311" lon="2.04142">
        <ele>1770.0665551087</ele>
        <time>2000-05-11T13:10:20.992</time>
      </trkpt>
      <trkpt lat="42.54312" lon="2.04141">
        <ele>1769.8850779792</ele>
        <time>2000-05-11T13:10:21.992</time>
      </trkpt>
      <trkpt lat="42.54312" lon="2.0414">
        <ele>1769.7865316736</ele>
        <time>2000-05-11T13:10:22.992</time>
      </trkpt>
      <trkpt lat="42.54312" lon="2.04139">
        <ele>1769.4837116985</ele>
        <time>2000-05-11T13:10:23.992</time>
      </trkpt>
      <trkpt lat="42.54313" lon="2.04137">
        <ele>1769.1059075074</ele>
        <time>2000-05-11T13:10:24.995</time>
      </trkpt>
      <trkpt lat="42.54314" lon="2.04136">
        <ele>1769.033962759</ele>
        <time>2000-05-11T13:10:25.995</time>
      </trkpt>
      <trkpt lat="42.54315" lon="2.04136">
        <ele>1769.1157551307</ele>
        <time>2000-05-11T13:10:26.996</time>
      </trkpt>
      <trkpt lat="42.54316" lon="2.04135">
        <ele>1769.0994453136</ele>
        <time>2000-05-11T13:10:27.996</time>
      </trkpt>
      <trkpt lat="42.54317" lon="2.04135">
        <ele>1769.1197181512</ele>
        <time>2000-05-11T13:10:28.996</time>
      </trkpt>
      <trkpt lat="42.54318" lon="2.04134">
        <ele>1769.2731407136</ele>
        <time>2000-05-11T13:10:29.996</time>
      </trkpt>
      <trkpt lat="42.54319" lon="2.04133">
        <ele>1769.0841984479</ele>
        <time>2000-05-11T13:10:30.996</time>
      </trkpt>
      <trkpt lat="42.5432" lon="2.04132">
        <ele>1768.7568826342</ele>
        <time>2000-05-11T13:10:31.996</time>
      </trkpt>
      <trkpt lat="42.5432" lon="2.0413">
        <ele>1768.5857536722</ele>
        <time>2000-05-11T13:10:32.996</time>
      </trkpt>
      <trkpt lat="42.5432" lon="2.04129">
        <ele>1768.6179049641</ele>
        <time>2000-05-11T13:10:33.996</time>
      </trkpt>
      <trkpt lat="42.5432" lon="2.04129">
        <ele>1768.2670508012</ele>
        <time>2000-05-11T13:10:34.996</time>
      </trkpt>
      <trkpt lat="42.54321" lon="2.04129">
        <ele>1768.0839597354</ele>
        <time>2000-05-11T13:10:35.997</time>
      </trkpt>
      <trkpt lat="42.54322" lon="2.04128">
        <ele>1768.3263683919</ele>
        <time>2000-05-11T13:10:36.997</time>
      </trkpt>
      <trkpt lat="42.54324" lon="2.04127">
        <ele>1768.46926011</ele>
        <time>2000-05-11T13:10:37.997</time>
      </trkpt>
      <trkpt lat="42.54325" lon="2.04127">
        <ele>1768.4628950883</ele>
        <time>2000-05-11T13:10:38.997</time>
      </trkpt>
      <trkpt lat="42.54326" lon="2.04126">
        <ele>1768.5643097488</ele>
        <time>2000-05-11T13:10:39.997</time>
      </trkpt>
      <trkpt lat="42.54327" lon="2.04126">
        <ele>1768.4573020907</ele>
        <time>2000-05-11T13:10:40.997</time>
      </trkpt>
      <trkpt lat="42.54328" lon="2.04125">
        <ele>1768.2711516662</ele>
        <time>2000-05-11T13:10:41.997</time>
      </trkpt>
      <trkpt lat="42.54328" lon="2.04124">
        <ele>1768.3006770788</ele>
        <time>2000-05-11T13:10:42.997</time>
      </trkpt>
      <trkpt lat="42.54329" lon="2.04123">
        <ele>1768.4769610994</ele>
        <time>2000-05-11T13:10:43.997</time>
      </trkpt>
      <trkpt lat="42.5433" lon="2.04123">
        <ele>1768.7103520574</ele>
        <time>2000-05-11T13:10:44.997</time>
      </trkpt>
      <trkpt lat="42.54331" lon="2.04123">
        <ele>1768.9747590397</ele>
        <time>2000-05-11T13:10:45.997</time>
      </trkpt>
      <trkpt lat="42.54333" lon="2.04122">
        <ele>1769.2893489031</ele>
        <time>2000-05-11T13:10:46.997</time>
      </trkpt>
      <trkpt lat="42.54334" lon="2.04122">
        <ele>1769.6870947562</ele>
        <time>2000-05-11T13:10:47.997</time>
      </trkpt>
      <trkpt lat="42.54334" lon="2.04122">
        <ele>1769.946782795</ele>
        <time>2000-05-11T13:10:48.997</time>
      </trkpt>
      <trkpt lat="42.54335" lon="2.04122">
        <ele>1770.0535116112</ele>
        <time>2000-05-11T13:10:49.999</time>
      </trkpt>
      <trkpt lat="42.54336" lon="2.04122">
        <ele>1770.0833581226</ele>
        <time>2000-05-11T13:10:50.999</time>
      </trkpt>
      <trkpt lat="42.54337" lon="2.04122">
        <ele>1770.0068257449</ele>
        <time>2000-05-11T13:10:51.999</time>
      </trkpt>
      <trkpt lat="42.54338" lon="2.04123">
        <ele>1769.457995967</ele>
        <time>2000-05-11T13:10:52.996</time>
      </trkpt>
      <trkpt lat="42.54338" lon="2.04123">
        <ele>1768.9091661891</ele>
        <time>2000-05-11T13:10:53.996</time>
      </trkpt>
      <trkpt lat="42.54339" lon="2.04122">
        <ele>1768.7021210536</ele>
        <time>2000-05-11T13:10:54.991</time>
      </trkpt>
      <trkpt lat="42.54341" lon="2.04122">
        <ele>1768.8253883582</ele>
        <time>2000-05-11T13:10:55.991</time>
      </trkpt>
      <trkpt lat="42.54341" lon="2.04122">
        <ele>1768.9215597577</ele>
        <time>2000-05-11T13:10:56.991</time>
      </trkpt>
      <trkpt lat="42.54342" lon="2.04121">
        <ele>1769.3633724475</ele>
        <time>2000-05-11T13:10:57.992</time>
      </trkpt>
      <trkpt lat="42.54344" lon="2.0412">
        <ele>1769.9025724823</ele>
        <time>2000-05-11T13:10:58.992</time>
      </trkpt>
      <trkpt lat="42.54346" lon="2.04119">
        <ele>1770.1126097003</ele>
        <time>2000-05-11T13:10:59.992</time>
      </trkpt>
      <trkpt lat="42.54347" lon="2.04117">
        <ele>1769.6934251638</ele>
        <time>2000-05-11T13:11:00.992</time>
      </trkpt>
      <trkpt lat="42.54347" lon="2.04116">
        <ele>1769.0686838571</ele>
        <time>2000-05-11T13:11:01.992</time>
      </trkpt>
      <trkpt lat="42.54349" lon="2.04115">
        <ele>1768.0840067172</ele>
        <time>2000-05-11T13:11:02.992</time>
      </trkpt>
      <trkpt lat="42.54349" lon="2.04115">
        <ele>1767.0019422324</ele>
        <time>2000-05-11T13:11:03.992</time>
      </trkpt>
      <trkpt lat="42.5435" lon="2.04115">
        <ele>1766.0683989346</ele>
        <time>2000-05-11T13:11:04.992</time>
      </trkpt>
      <trkpt lat="42.5435" lon="2.04114">
        <ele>1765.711740208</ele>
        <time>2000-05-11T13:11:05.992</time>
      </trkpt>
      <trkpt lat="42.5435" lon="2.04112">
        <ele>1765.3757453091</ele>
        <time>2000-05-11T13:11:06.993</time>
      </trkpt>
      <trkpt lat="42.54351" lon="2.04111">
        <ele>1765.354314612</ele>
        <time>2000-05-11T13:11:07.993</time>
      </trkpt>
      <trkpt lat="42.54351" lon="2.0411">
        <ele>1765.4321506089</ele>
        <time>2000-05-11T13:11:08.993</time>
      </trkpt>
      <trkpt lat="42.54352" lon="2.04108">
        <ele>1765.5150827816</ele>
        <time>2000-05-11T13:11:09.993</time>
      </trkpt>
      <trkpt lat="42.54353" lon="2.04108">
        <ele>1765.4859670307</ele>
        <time>2000-05-11T13:11:10.993</time>
      </trkpt>
      <trkpt lat="42.54353" lon="2.04107">
        <ele>1765.9289854389</ele>
        <time>2000-05-11T13:11:11.993</time>
      </trkpt>
      <trkpt lat="42.54354" lon="2.04106">
        <ele>1766.3516501348</ele>
        <time>2000-05-11T13:11:12.993</time>
      </trkpt>
      <trkpt lat="42.54355" lon="2.04105">
        <ele>1766.6019276507</ele>
        <time>2000-05-11T13:11:13.993</time>
      </trkpt>
      <trkpt lat="42.54357" lon="2.04105">
        <ele>1766.8520083487</ele>
        <time>2000-05-11T13:11:14.993</time>
      </trkpt>
      <trkpt lat="42.54358" lon="2.04104">
        <ele>1767.0434526119</ele>
        <time>2000-05-11T13:11:15.993</time>
      </trkpt>
      <trkpt lat="42.5436" lon="2.04103">
        <ele>1766.8731815822</ele>
        <time>2000-05-11T13:11:16.993</time>
      </trkpt>
      <trkpt lat="42.54361" lon="2.04103">
        <ele>1766.4751171455</ele>
        <time>2000-05-11T13:11:17.993</time>
      </trkpt>
      <trkpt lat="42.54362" lon="2.04102">
        <ele>1766.1604085855</ele>
        <time>2000-05-11T13:11:18.993</time>
      </trkpt>
      <trkpt lat="42.54362" lon="2.04102">
        <ele>1765.8041415434</ele>
        <time>2000-05-11T13:11:19.993</time>
      </trkpt>
      <trkpt lat="42.54362" lon="2.04102">
        <ele>1765.4882402342</ele>
        <time>2000-05-11T13:11:20.993</time>
      </trkpt>
      <trkpt lat="42.54361" lon="2.04102">
        <ele>1765.5360555697</ele>
        <time>2000-05-11T13:11:21.992</time>
      </trkpt>
      <trkpt lat="42.54361" lon="2.04102">
        <ele>1765.7781376436</ele>
        <time>2000-05-11T13:11:22.992</time>
      </trkpt>
      <trkpt lat="42.54359" lon="2.04103">
        <ele>1766.1741521964</ele>
        <time>2000-05-11T13:11:23.994</time>
      </trkpt>
      <trkpt lat="42.54359" lon="2.04103">
        <ele>1766.6275626341</ele>
        <time>2000-05-11T13:11:24.994</time>
      </trkpt>
      <trkpt lat="42.5436" lon="2.04102">
        <ele>1767.5730508514</ele>
        <time>2000-05-11T13:11:25.994</time>
      </trkpt>
      <trkpt lat="42.5436" lon="2.04102">
        <ele>1768.2292965004</ele>
        <time>2000-05-11T13:11:26.994</time>
      </trkpt>
      <trkpt lat="42.54359" lon="2.04102">
        <ele>1768.4198111236</ele>
        <time>2000-05-11T13:11:27.994</time>
      </trkpt>
      <trkpt lat="42.54359" lon="2.04102">
        <ele>1768.4461578773</ele>
        <time>2000-05-11T13:11:28.994</time>
      </trkpt>
      <trkpt lat="42.54361" lon="2.04102">
        <ele>1767.967274918</ele>
        <time>2000-05-11T13:11:29.998</time>
      </trkpt>
      <trkpt lat="42.54363" lon="2.04102">
        <ele>1767.1003706224</ele>
        <time>2000-05-11T13:11:30.998</time>
      </trkpt>
      <trkpt lat="42.54364" lon="2.04102">
        <ele>1766.3398942832</ele>
        <time>2000-05-11T13:11:31.998</time>
      </trkpt>
      <trkpt lat="42.54365" lon="2.04102">
        <ele>1766.1846131435</ele>
        <time>2000-05-11T13:11:32.998</time>
      </trkpt>
      <trkpt lat="42.54365" lon="2.04102">
        <ele>1766.0293320037</ele>
        <time>2000-05-11T13:11:33.998</time>
      </trkpt>
      <trkpt lat="42.54365" lon="2.04101">
        <ele>1766.1456679558</ele>
        <time>2000-05-11T13:11:35</time>
      </trkpt>
      <trkpt lat="42.54365" lon="2.04101">
        <ele>1766.1579474647</ele>
        <time>2000-05-11T13:11:36</time>
      </trkpt>
      <trkpt lat="42.54366" lon="2.04101">
        <ele>1766.2431944346</ele>
        <time>2000-05-11T13:11:36.997</time>
      </trkpt>
      <trkpt lat="42.54366" lon="2.04101">
        <ele>1766.1889772309</ele>
        <time>2000-05-11T13:11:37.997</time>
      </trkpt>
      <trkpt lat="42.54367" lon="2.04099">
        <ele>1766.229515527</ele>
        <time>2000-05-11T13:11:38.997</time>
      </trkpt>
      <trkpt lat="42.54367" lon="2.04099">
        <ele>1766.5036664443</ele>
        <time>2000-05-11T13:11:39.997</time>
      </trkpt>
      <trkpt lat="42.54369" lon="2.04099">
        <ele>1766.6867339911</ele>
        <time>2000-05-11T13:11:40.996</time>
      </trkpt>
      <trkpt lat="42.54369" lon="2.04097">
        <ele>1766.7380267058</ele>
        <time>2000-05-11T13:11:41.996</time>
      </trkpt>
      <trkpt lat="42.5437" lon="2.04095">
        <ele>1766.8908082886</ele>
        <time>2000-05-11T13:11:42.996</time>
      </trkpt>
      <trkpt lat="42.54371" lon="2.04094">
        <ele>1766.9567465561</ele>
        <time>2000-05-11T13:11:43.996</time>
      </trkpt>
      <trkpt lat="42.54371" lon="2.04093">
        <ele>1766.9264261506</ele>
        <time>2000-05-11T13:11:44.996</time>
      </trkpt>
      <trkpt lat="42.54372" lon="2.04092">
        <ele>1766.9489423973</ele>
        <time>2000-05-11T13:11:45.996</time>
      </trkpt>
      <trkpt lat="42.54373" lon="2.04092">
        <ele>1766.7951212702</ele>
        <time>2000-05-11T13:11:46.996</time>
      </trkpt>
      <trkpt lat="42.54373" lon="2.04092">
        <ele>1766.539811275</ele>
        <time>2000-05-11T13:11:47.996</time>
      </trkpt>
      <trkpt lat="42.54373" lon="2.0409">
        <ele>1766.2904442586</ele>
        <time>2000-05-11T13:11:48.996</time>
      </trkpt>
      <trkpt lat="42.54375" lon="2.04089">
        <ele>1765.9465681402</ele>
        <time>2000-05-11T13:11:49.996</time>
      </trkpt>
      <trkpt lat="42.54375" lon="2.04089">
        <ele>1765.507415924</ele>
        <time>2000-05-11T13:11:50.995</time>
      </trkpt>
      <trkpt lat="42.54375" lon="2.04089">
        <ele>1765.1969804963</ele>
        <time>2000-05-11T13:11:51.995</time>
      </trkpt>
      <trkpt lat="42.54377" lon="2.04087">
        <ele>1765.1186466636</ele>
        <time>2000-05-11T13:11:52.996</time>
      </trkpt>
      <trkpt lat="42.54378" lon="2.04087">
        <ele>1764.9675861698</ele>
        <time>2000-05-11T13:11:53.996</time>
      </trkpt>
      <trkpt lat="42.54378" lon="2.04086">
        <ele>1764.9981926398</ele>
        <time>2000-05-11T13:11:54.994</time>
      </trkpt>
      <trkpt lat="42.54379" lon="2.04084">
        <ele>1765.1068553546</ele>
        <time>2000-05-11T13:11:55.994</time>
      </trkpt>
      <trkpt lat="42.54379" lon="2.04083">
        <ele>1765.2814138709</ele>
        <time>2000-05-11T13:11:56.994</time>
      </trkpt>
      <trkpt lat="42.54379" lon="2.04082">
        <ele>1765.2457353421</ele>
        <time>2000-05-11T13:11:57.994</time>
      </trkpt>
      <trkpt lat="42.54379" lon="2.04081">
        <ele>1765.3108839341</ele>
        <time>2000-05-11T13:11:58.994</time>
      </trkpt>
      <trkpt lat="42.54381" lon="2.0408">
        <ele>1765.3285292767</ele>
        <time>2000-05-11T13:11:59.994</time>
      </trkpt>
      <trkpt lat="42.54383" lon="2.04079">
        <ele>1765.1029423455</ele>
        <time>2000-05-11T13:12:00.994</time>
      </trkpt>
      <trkpt lat="42.54384" lon="2.04078">
        <ele>1764.7291007524</ele>
        <time>2000-05-11T13:12:01.994</time>
      </trkpt>
      <trkpt lat="42.54384" lon="2.04077">
        <ele>1764.3012610372</ele>
        <time>2000-05-11T13:12:02.994</time>
      </trkpt>
      <trkpt lat="42.54385" lon="2.04076">
        <ele>1764.0058740679</ele>
        <time>2000-05-11T13:12:03.994</time>
      </trkpt>
      <trkpt lat="42.54385" lon="2.04076">
        <ele>1763.5697580244</ele>
        <time>2000-05-11T13:12:04.994</time>
      </trkpt>
      <trkpt lat="42.54386" lon="2.04074">
        <ele>1763.5256766217</ele>
        <time>2000-05-11T13:12:05.991</time>
      </trkpt>
      <trkpt lat="42.54389" lon="2.04073">
        <ele>1763.6971878741</ele>
        <time>2000-05-11T13:12:06.991</time>
      </trkpt>
      <trkpt lat="42.54391" lon="2.04071">
        <ele>1763.8363042949</ele>
        <time>2000-05-11T13:12:07.991</time>
      </trkpt>
      <trkpt lat="42.54392" lon="2.0407">
        <ele>1763.8132098826</ele>
        <time>2000-05-11T13:12:08.991</time>
      </trkpt>
      <trkpt lat="42.54393" lon="2.04068">
        <ele>1763.9627384532</ele>
        <time>2000-05-11T13:12:09.991</time>
      </trkpt>
      <trkpt lat="42.54394" lon="2.04067">
        <ele>1763.9417210419</ele>
        <time>2000-05-11T13:12:10.991</time>
      </trkpt>
      <trkpt lat="42.54394" lon="2.04066">
        <ele>1763.654575881</ele>
        <time>2000-05-11T13:12:11.991</time>
      </trkpt>
      <trkpt lat="42.54394" lon="2.04065">
        <ele>1763.346952313</ele>
        <time>2000-05-11T13:12:12.991</time>
      </trkpt>
      <trkpt lat="42.54394" lon="2.04064">
        <ele>1762.8960132472</ele>
        <time>2000-05-11T13:12:13.991</time>
      </trkpt>
      <trkpt lat="42.54394" lon="2.04064">
        <ele>1762.5965463884</ele>
        <time>2000-05-11T13:12:14.991</time>
      </trkpt>
      <trkpt lat="42.54395" lon="2.04063">
        <ele>1762.3757956935</ele>
        <time>2000-05-11T13:12:15.991</time>
      </trkpt>
      <trkpt lat="42.54396" lon="2.04061">
        <ele>1762.6858360471</ele>
        <time>2000-05-11T13:12:16.992</time>
      </trkpt>
      <trkpt lat="42.54397" lon="2.0406">
        <ele>1763.4043334818</ele>
        <time>2000-05-11T13:12:17.992</time>
      </trkpt>
      <trkpt lat="42.54398" lon="2.04058">
        <ele>1764.4196162079</ele>
        <time>2000-05-11T13:12:18.992</time>
      </trkpt>
      <trkpt lat="42.544" lon="2.04057">
        <ele>1764.8107401529</ele>
        <time>2000-05-11T13:12:19.992</time>
      </trkpt>
      <trkpt lat="42.54401" lon="2.04057">
        <ele>1765.0886968989</ele>
        <time>2000-05-11T13:12:20.992</time>
      </trkpt>
      <trkpt lat="42.54402" lon="2.04056">
        <ele>1764.9711187707</ele>
        <time>2000-05-11T13:12:21.992</time>
      </trkpt>
      <trkpt lat="42.54403" lon="2.04055">
        <ele>1764.6690393949</ele>
        <time>2000-05-11T13:12:22.992</time>
      </trkpt>
      <trkpt lat="42.54403" lon="2.04055">
        <ele>1764.2012926895</ele>
        <time>2000-05-11T13:12:23.992</time>
      </trkpt>
      <trkpt lat="42.54402" lon="2.04054">
        <ele>1764.6895145364</ele>
        <time>2000-05-11T13:12:24.994</time>
      </trkpt>
      <trkpt lat="42.54402" lon="2.04054">
        <ele>1765.2893976051</ele>
        <time>2000-05-11T13:12:25.994</time>
      </trkpt>
      <trkpt lat="42.54404" lon="2.04052">
        <ele>1765.5345096506</ele>
        <time>2000-05-11T13:12:26.994</time>
      </trkpt>
      <trkpt lat="42.54405" lon="2.04051">
        <ele>1765.245225413</ele>
        <time>2000-05-11T13:12:27.994</time>
      </trkpt>
      <trkpt lat="42.54406" lon="2.04049">
        <ele>1765.059077872</ele>
        <time>2000-05-11T13:12:28.994</time>
      </trkpt>
      <trkpt lat="42.54406" lon="2.04049">
        <ele>1764.4143585043</ele>
        <time>2000-05-11T13:12:29.994</time>
      </trkpt>
      <trkpt lat="42.54406" lon="2.04049">
        <ele>1763.7696391366</ele>
        <time>2000-05-11T13:12:30.994</time>
      </trkpt>
      <trkpt lat="42.54406" lon="2.04048">
        <ele>1763.5843450066</ele>
        <time>2000-05-11T13:12:31.993</time>
      </trkpt>
      <trkpt lat="42.54407" lon="2.04046">
        <ele>1764.2945484614</ele>
        <time>2000-05-11T13:12:32.993</time>
      </trkpt>
      <trkpt lat="42.54407" lon="2.04044">
        <ele>1765.0505200358</ele>
        <time>2000-05-11T13:12:33.993</time>
      </trkpt>
      <trkpt lat="42.54408" lon="2.04043">
        <ele>1765.75811269</ele>
        <time>2000-05-11T13:12:34.993</time>
      </trkpt>
      <trkpt lat="42.54408" lon="2.04042">
        <ele>1766.3703259831</ele>
        <time>2000-05-11T13:12:35.993</time>
      </trkpt>
      <trkpt lat="42.54408" lon="2.04041">
        <ele>1766.8599909421</ele>
        <time>2000-05-11T13:12:36.993</time>
      </trkpt>
      <trkpt lat="42.54409" lon="2.0404">
        <ele>1766.8070820678</ele>
        <time>2000-05-11T13:12:37.993</time>
      </trkpt>
      <trkpt lat="42.54409" lon="2.0404">
        <ele>1766.6529389663</ele>
        <time>2000-05-11T13:12:38.993</time>
      </trkpt>
      <trkpt lat="42.5441" lon="2.04038">
        <ele>1766.4997319192</ele>
        <time>2000-05-11T13:12:39.994</time>
      </trkpt>
      <trkpt lat="42.5441" lon="2.04037">
        <ele>1766.4025077157</ele>
        <time>2000-05-11T13:12:40.994</time>
      </trkpt>
      <trkpt lat="42.54411" lon="2.04036">
        <ele>1766.2648726556</ele>
        <time>2000-05-11T13:12:41.994</time>
      </trkpt>
      <trkpt lat="42.54412" lon="2.04035">
        <ele>1765.9713187514</ele>
        <time>2000-05-11T13:12:42.994</time>
      </trkpt>
      <trkpt lat="42.54413" lon="2.04034">
        <ele>1765.374187397</ele>
        <time>2000-05-11T13:12:43.994</time>
      </trkpt>
      <trkpt lat="42.54413" lon="2.04033">
        <ele>1764.58721753</ele>
        <time>2000-05-11T13:12:44.994</time>
      </trkpt>
      <trkpt lat="42.54414" lon="2.04032">
        <ele>1763.781383723</ele>
        <time>2000-05-11T13:12:45.994</time>
      </trkpt>
      <trkpt lat="42.54414" lon="2.04031">
        <ele>1763.0700206468</ele>
        <time>2000-05-11T13:12:46.994</time>
      </trkpt>
      <trkpt lat="42.54414" lon="2.04031">
        <ele>1762.5570999239</ele>
        <time>2000-05-11T13:12:47.994</time>
      </trkpt>
      <trkpt lat="42.54416" lon="2.04029">
        <ele>1762.1371003443</ele>
        <time>2000-05-11T13:12:48.996</time>
      </trkpt>
      <trkpt lat="42.54416" lon="2.04029">
        <ele>1761.9543821432</ele>
        <time>2000-05-11T13:12:49.996</time>
      </trkpt>
      <trkpt lat="42.54415" lon="2.04028">
        <ele>1762.0291035444</ele>
        <time>2000-05-11T13:12:50.994</time>
      </trkpt>
      <trkpt lat="42.54415" lon="2.04028">
        <ele>1762.0652969714</ele>
        <time>2000-05-11T13:12:51.994</time>
      </trkpt>
      <trkpt lat="42.54416" lon="2.04029">
        <ele>1762.2452682273</ele>
        <time>2000-05-11T13:12:52.995</time>
      </trkpt>
      <trkpt lat="42.54416" lon="2.04029">
        <ele>1762.588225201</ele>
        <time>2000-05-11T13:12:53.995</time>
      </trkpt>
      <trkpt lat="42.54415" lon="2.0403">
        <ele>1763.0052144609</ele>
        <time>2000-05-11T13:12:54.995</time>
      </trkpt>
      <trkpt lat="42.54414" lon="2.0403">
        <ele>1763.4133565282</ele>
        <time>2000-05-11T13:12:55.995</time>
      </trkpt>
      <trkpt lat="42.54413" lon="2.0403">
        <ele>1764.3678479126</ele>
        <time>2000-05-11T13:12:56.995</time>
      </trkpt>
      <trkpt lat="42.54414" lon="2.0403">
        <ele>1765.0981147552</ele>
        <time>2000-05-11T13:12:57.990</time>
      </trkpt>
      <trkpt lat="42.54414" lon="2.0403">
        <ele>1765.8283815978</ele>
        <time>2000-05-11T13:12:58.990</time>
      </trkpt>
      <trkpt lat="42.54414" lon="2.04028">
        <ele>1766.8381673729</ele>
        <time>2000-05-11T13:12:59.988</time>
      </trkpt>
      <trkpt lat="42.54414" lon="2.04028">
        <ele>1767.6576211959</ele>
        <time>2000-05-11T13:13:00.988</time>
      </trkpt>
      <trkpt lat="42.54414" lon="2.04029">
        <ele>1768.3186039167</ele>
        <time>2000-05-11T13:13:01.985</time>
      </trkpt>
      <trkpt lat="42.54414" lon="2.0403">
        <ele>1769.1342627577</ele>
        <time>2000-05-11T13:13:02.985</time>
      </trkpt>
      <trkpt lat="42.54413" lon="2.0403">
        <ele>1770.4008053007</ele>
        <time>2000-05-11T13:13:03.989</time>
      </trkpt>
      <trkpt lat="42.54412" lon="2.0403">
        <ele>1771.541908996</ele>
        <time>2000-05-11T13:13:04.989</time>
      </trkpt>
      <trkpt lat="42.54413" lon="2.0403">
        <ele>1772.5500550948</ele>
        <time>2000-05-11T13:13:05.989</time>
      </trkpt>
      <trkpt lat="42.54413" lon="2.0403">
        <ele>1773.1703229789</ele>
        <time>2000-05-11T13:13:06.989</time>
      </trkpt>
      <trkpt lat="42.54413" lon="2.04028">
        <ele>1773.0372499194</ele>
        <time>2000-05-11T13:13:07.990</time>
      </trkpt>
      <trkpt lat="42.54413" lon="2.04028">
        <ele>1772.4532931581</ele>
        <time>2000-05-11T13:13:08.990</time>
      </trkpt>
      <trkpt lat="42.54412" lon="2.04028">
        <ele>1771.6466687085</ele>
        <time>2000-05-11T13:13:09.992</time>
      </trkpt>
      <trkpt lat="42.54412" lon="2.04029">
        <ele>1771.3685285488</ele>
        <time>2000-05-11T13:13:10.992</time>
      </trkpt>
      <trkpt lat="42.54412" lon="2.04029">
        <ele>1771.0809597101</ele>
        <time>2000-05-11T13:13:11.991</time>
      </trkpt>
      <trkpt lat="42.54412" lon="2.04029">
        <ele>1771.4725024074</ele>
        <time>2000-05-11T13:13:12.991</time>
      </trkpt>
      <trkpt lat="42.54414" lon="2.04028">
        <ele>1771.802481653</ele>
        <time>2000-05-11T13:13:13.991</time>
      </trkpt>
      <trkpt lat="42.54414" lon="2.04028">
        <ele>1772.1270162156</ele>
        <time>2000-05-11T13:13:14.991</time>
      </trkpt>
      <trkpt lat="42.54413" lon="2.04029">
        <ele>1772.2536693936</ele>
        <time>2000-05-11T13:13:15.988</time>
      </trkpt>
      <trkpt lat="42.54413" lon="2.04029">
        <ele>1772.3897512507</ele>
        <time>2000-05-11T13:13:16.988</time>
      </trkpt>
      <trkpt lat="42.54412" lon="2.04029">
        <ele>1772.516899696</ele>
        <time>2000-05-11T13:13:17.989</time>
      </trkpt>
      <trkpt lat="42.54412" lon="2.04029">
        <ele>1772.7056115931</ele>
        <time>2000-05-11T13:13:18.989</time>
      </trkpt>
      <trkpt lat="42.54411" lon="2.04031">
        <ele>1773.0058772663</ele>
        <time>2000-05-11T13:13:19.985</time>
      </trkpt>
      <trkpt lat="42.54411" lon="2.04031">
        <ele>1773.1084976306</ele>
        <time>2000-05-11T13:13:20.985</time>
      </trkpt>
      <trkpt lat="42.54412" lon="2.04031">
        <ele>1773.43811306</ele>
        <time>2000-05-11T13:13:21.984</time>
      </trkpt>
      <trkpt lat="42.54412" lon="2.04031">
        <ele>1773.7766619012</ele>
        <time>2000-05-11T13:13:22.984</time>
      </trkpt>
      <trkpt lat="42.54414" lon="2.04031">
        <ele>1773.8221788153</ele>
        <time>2000-05-11T13:13:23.983</time>
      </trkpt>
      <trkpt lat="42.54414" lon="2.04031">
        <ele>1773.7561419534</ele>
        <time>2000-05-11T13:13:24.983</time>
      </trkpt>
      <trkpt lat="42.54415" lon="2.04031">
        <ele>1773.7766389381</ele>
        <time>2000-05-11T13:13:25.984</time>
      </trkpt>
      <trkpt lat="42.54415" lon="2.04031">
        <ele>1773.5701408578</ele>
        <time>2000-05-11T13:13:26.984</time>
      </trkpt>
      <trkpt lat="42.54413" lon="2.0403">
        <ele>1773.0782916475</ele>
        <time>2000-05-11T13:13:27.987</time>
      </trkpt>
      <trkpt lat="42.54412" lon="2.04029">
        <ele>1772.5929230073</ele>
        <time>2000-05-11T13:13:28.987</time>
      </trkpt>
      <trkpt lat="42.54413" lon="2.04029">
        <ele>1772.2313112361</ele>
        <time>2000-05-11T13:13:29.985</time>
      </trkpt>
      <trkpt lat="42.54413" lon="2.04029">
        <ele>1771.7831656182</ele>
        <time>2000-05-11T13:13:30.985</time>
      </trkpt>
      <trkpt lat="42.54414" lon="2.04028">
        <ele>1771.2396205824</ele>
        <time>2000-05-11T13:13:31.986</time>
      </trkpt>
      <trkpt lat="42.54415" lon="2.04027">
        <ele>1770.8131350772</ele>
        <time>2000-05-11T13:13:32.986</time>
      </trkpt>
      <trkpt lat="42.54412" lon="2.04027">
        <ele>1771.5014940294</ele>
        <time>2000-05-11T13:13:33.986</time>
      </trkpt>
      <trkpt lat="42.54412" lon="2.04027">
        <ele>1772.0660961125</ele>
        <time>2000-05-11T13:13:34.986</time>
      </trkpt>
      <trkpt lat="42.54413" lon="2.04027">
        <ele>1772.6268757096</ele>
        <time>2000-05-11T13:13:35.986</time>
      </trkpt>
      <trkpt lat="42.54413" lon="2.04027">
        <ele>1773.2830547245</ele>
        <time>2000-05-11T13:13:36.986</time>
      </trkpt>
      <trkpt lat="42.54412" lon="2.04028">
        <ele>1774.1849893659</ele>
        <time>2000-05-11T13:13:37.986</time>
      </trkpt>
      <trkpt lat="42.54412" lon="2.04028">
        <ele>1774.258630907</ele>
        <time>2000-05-11T13:13:38.986</time>
      </trkpt>
      <trkpt lat="42.54411" lon="2.04029">
        <ele>1774.5060839744</ele>
        <time>2000-05-11T13:13:39.986</time>
      </trkpt>
      <trkpt lat="42.54409" lon="2.0403">
        <ele>1774.6503258063</ele>
        <time>2000-05-11T13:13:40.986</time>
      </trkpt>
      <trkpt lat="42.54409" lon="2.0403">
        <ele>1774.7945676381</ele>
        <time>2000-05-11T13:13:41.986</time>
      </trkpt>
      <trkpt lat="42.5441" lon="2.04029">
        <ele>1774.9745000064</ele>
        <time>2000-05-11T13:13:42.984</time>
      </trkpt>
      <trkpt lat="42.5441" lon="2.04029">
        <ele>1775.1544323748</ele>
        <time>2000-05-11T13:13:43.984</time>
      </trkpt>
      <trkpt lat="42.54411" lon="2.04029">
        <ele>1775.0432539621</ele>
        <time>2000-05-11T13:13:44.985</time>
      </trkpt>
      <trkpt lat="42.54411" lon="2.04029">
        <ele>1775.0391092712</ele>
        <time>2000-05-11T13:13:45.985</time>
      </trkpt>
      <trkpt lat="42.5441" lon="2.04028">
        <ele>1775.0507851589</ele>
        <time>2000-05-11T13:13:46.983</time>
      </trkpt>
      <trkpt lat="42.54411" lon="2.04027">
        <ele>1774.7730055008</ele>
        <time>2000-05-11T13:13:47.983</time>
      </trkpt>
      <trkpt lat="42.5441" lon="2.04027">
        <ele>1774.7009961827</ele>
        <time>2000-05-11T13:13:48.981</time>
      </trkpt>
      <trkpt lat="42.5441" lon="2.04027">
        <ele>1774.7462861191</ele>
        <time>2000-05-11T13:13:49.981</time>
      </trkpt>
      <trkpt lat="42.54409" lon="2.04028">
        <ele>1774.9450151734</ele>
        <time>2000-05-11T13:13:50.981</time>
      </trkpt>
      <trkpt lat="42.54409" lon="2.04028">
        <ele>1775.127923649</ele>
        <time>2000-05-11T13:13:51.981</time>
      </trkpt>
      <trkpt lat="42.54409" lon="2.04027">
        <ele>1775.4953596482</ele>
        <time>2000-05-11T13:13:52.982</time>
      </trkpt>
      <trkpt lat="42.54409" lon="2.04027">
        <ele>1775.6570253074</ele>
        <time>2000-05-11T13:13:53.982</time>
      </trkpt>
      <trkpt lat="42.5441" lon="2.04027">
        <ele>1775.7351608835</ele>
        <time>2000-05-11T13:13:54.982</time>
      </trkpt>
      <trkpt lat="42.5441" lon="2.04027">
        <ele>1775.6598573418</ele>
        <time>2000-05-11T13:13:55.982</time>
      </trkpt>
      <trkpt lat="42.54409" lon="2.04028">
        <ele>1775.9715959918</ele>
        <time>2000-05-11T13:13:56.982</time>
      </trkpt>
      <trkpt lat="42.54408" lon="2.04029">
        <ele>1776.8713614363</ele>
        <time>2000-05-11T13:13:57.982</time>
      </trkpt>
      <trkpt lat="42.54408" lon="2.04029">
        <ele>1777.7711268809</ele>
        <time>2000-05-11T13:13:58.982</time>
      </trkpt>
      <trkpt lat="42.54407" lon="2.04031">
        <ele>1778.9782098917</ele>
        <time>2000-05-11T13:13:59.982</time>
      </trkpt>
      <trkpt lat="42.54407" lon="2.04031">
        <ele>1780.1852929026</ele>
        <time>2000-05-11T13:14:00.982</time>
      </trkpt>
      <trkpt lat="42.54407" lon="2.04032">
        <ele>1781.0160720006</ele>
        <time>2000-05-11T13:14:01.982</time>
      </trkpt>
      <trkpt lat="42.54407" lon="2.04032">
        <ele>1781.2505977625</ele>
        <time>2000-05-11T13:14:02.982</time>
      </trkpt>
      <trkpt lat="42.5441" lon="2.04031">
        <ele>1780.9417098271</ele>
        <time>2000-05-11T13:14:03.984</time>
      </trkpt>
      <trkpt lat="42.54413" lon="2.04031">
        <ele>1779.6912048766</ele>
        <time>2000-05-11T13:14:04.984</time>
      </trkpt>
      <trkpt lat="42.54414" lon="2.04031">
        <ele>1778.6191109423</ele>
        <time>2000-05-11T13:14:05.984</time>
      </trkpt>
      <trkpt lat="42.54414" lon="2.04031">
        <ele>1777.5362787291</ele>
        <time>2000-05-11T13:14:06.984</time>
      </trkpt>
      <trkpt lat="42.54414" lon="2.04031">
        <ele>1776.453446516</ele>
        <time>2000-05-11T13:14:07.984</time>
      </trkpt>
      <trkpt lat="42.54413" lon="2.04031">
        <ele>1776.2547349645</ele>
        <time>2000-05-11T13:14:08.984</time>
      </trkpt>
      <trkpt lat="42.54412" lon="2.04031">
        <ele>1776.8556033026</ele>
        <time>2000-05-11T13:14:09.986</time>
      </trkpt>
      <trkpt lat="42.54412" lon="2.04031">
        <ele>1777.2780606247</ele>
        <time>2000-05-11T13:14:10.986</time>
      </trkpt>
      <trkpt lat="42.5441" lon="2.04031">
        <ele>1778.0199343577</ele>
        <time>2000-05-11T13:14:11.986</time>
      </trkpt>
      <trkpt lat="42.5441" lon="2.04031">
        <ele>1778.7618080907</ele>
        <time>2000-05-11T13:14:12.986</time>
      </trkpt>
      <trkpt lat="42.5441" lon="2.0403">
        <ele>1778.5429253865</ele>
        <time>2000-05-11T13:14:13.985</time>
      </trkpt>
      <trkpt lat="42.5441" lon="2.0403">
        <ele>1778.2422923245</ele>
        <time>2000-05-11T13:14:14.985</time>
      </trkpt>
      <trkpt lat="42.54411" lon="2.04029">
        <ele>1777.7325033072</ele>
        <time>2000-05-11T13:14:15.985</time>
      </trkpt>
      <trkpt lat="42.54411" lon="2.04029">
        <ele>1776.9032978792</ele>
        <time>2000-05-11T13:14:16.985</time>
      </trkpt>
      <trkpt lat="42.5441" lon="2.0403">
        <ele>1776.3401780937</ele>
        <time>2000-05-11T13:14:17.983</time>
      </trkpt>
      <trkpt lat="42.5441" lon="2.0403">
        <ele>1776.3971077811</ele>
        <time>2000-05-11T13:14:18.983</time>
      </trkpt>
      <trkpt lat="42.5441" lon="2.04031">
        <ele>1776.6637605255</ele>
        <time>2000-05-11T13:14:19.985</time>
      </trkpt>
      <trkpt lat="42.5441" lon="2.04031">
        <ele>1777.1395692252</ele>
        <time>2000-05-11T13:14:20.985</time>
      </trkpt>
      <trkpt lat="42.54411" lon="2.04031">
        <ele>1777.4553848568</ele>
        <time>2000-05-11T13:14:21.985</time>
      </trkpt>
      <trkpt lat="42.54411" lon="2.04031">
        <ele>1777.5051148459</ele>
        <time>2000-05-11T13:14:22.985</time>
      </trkpt>
      <trkpt lat="42.54411" lon="2.04031">
        <ele>1777.4018121451</ele>
        <time>2000-05-11T13:14:23.988</time>
      </trkpt>
      <trkpt lat="42.54411" lon="2.04031">
        <ele>1777.0887863873</ele>
        <time>2000-05-11T13:14:24.988</time>
      </trkpt>
      <trkpt lat="42.54411" lon="2.0403">
        <ele>1776.6176520206</ele>
        <time>2000-05-11T13:14:25.991</time>
      </trkpt>
      <trkpt lat="42.54411" lon="2.0403">
        <ele>1776.3065107219</ele>
        <time>2000-05-11T13:14:26.991</time>
      </trkpt>
      <trkpt lat="42.54412" lon="2.04029">
        <ele>1775.9211153159</ele>
        <time>2000-05-11T13:14:27.993</time>
      </trkpt>
      <trkpt lat="42.54412" lon="2.04029">
        <ele>1775.6887525998</ele>
        <time>2000-05-11T13:14:28.993</time>
      </trkpt>
      <trkpt lat="42.54412" lon="2.04028">
        <ele>1775.3310712168</ele>
        <time>2000-05-11T13:14:29.997</time>
      </trkpt>
      <trkpt lat="42.54412" lon="2.04028">
        <ele>1775.1314984426</ele>
        <time>2000-05-11T13:14:30.997</time>
      </trkpt>
      <trkpt lat="42.54413" lon="2.04028">
        <ele>1774.6170006242</ele>
        <time>2000-05-11T13:14:31.994</time>
      </trkpt>
      <trkpt lat="42.54413" lon="2.04028">
        <ele>1774.176756913</ele>
        <time>2000-05-11T13:14:32.994</time>
      </trkpt>
      <trkpt lat="42.54414" lon="2.04028">
        <ele>1773.5301861875</ele>
        <time>2000-05-11T13:14:33.992</time>
      </trkpt>
      <trkpt lat="42.54414" lon="2.04028">
        <ele>1773.0089341288</ele>
        <time>2000-05-11T13:14:34.992</time>
      </trkpt>
      <trkpt lat="42.54414" lon="2.04029">
        <ele>1772.2402068917</ele>
        <time>2000-05-11T13:14:35.995</time>
      </trkpt>
      <trkpt lat="42.54414" lon="2.04029">
        <ele>1771.7864046987</ele>
        <time>2000-05-11T13:14:36.995</time>
      </trkpt>
      <trkpt lat="42.54412" lon="2.04029">
        <ele>1771.5851699261</ele>
        <time>2000-05-11T13:14:37.997</time>
      </trkpt>
      <trkpt lat="42.54412" lon="2.04029">
        <ele>1771.5902621679</ele>
        <time>2000-05-11T13:14:38.997</time>
      </trkpt>
      <trkpt lat="42.54411" lon="2.04028">
        <ele>1771.4788464475</ele>
        <time>2000-05-11T13:14:39.993</time>
      </trkpt>
      <trkpt lat="42.54411" lon="2.04027">
        <ele>1771.7706813177</ele>
        <time>2000-05-11T13:14:40.993</time>
      </trkpt>
      <trkpt lat="42.54412" lon="2.04027">
        <ele>1771.6992837893</ele>
        <time>2000-05-11T13:14:41.996</time>
      </trkpt>
      <trkpt lat="42.54412" lon="2.04027">
        <ele>1771.3753188405</ele>
        <time>2000-05-11T13:14:42.996</time>
      </trkpt>
      <trkpt lat="42.54411" lon="2.04026">
        <ele>1771.112962609</ele>
        <time>2000-05-11T13:14:43.995</time>
      </trkpt>
      <trkpt lat="42.54411" lon="2.04026">
        <ele>1770.9671143396</ele>
        <time>2000-05-11T13:14:44.995</time>
      </trkpt>
      <trkpt lat="42.54411" lon="2.04026">
        <ele>1770.6727972131</ele>
        <time>2000-05-11T13:14:45.997</time>
      </trkpt>
      <trkpt lat="42.5441" lon="2.04025">
        <ele>1770.7043729631</ele>
        <time>2000-05-11T13:14:46.997</time>
      </trkpt>
      <trkpt lat="42.54409" lon="2.04024">
        <ele>1770.6086901683</ele>
        <time>2000-05-11T13:14:47.999</time>
      </trkpt>
      <trkpt lat="42.54409" lon="2.04024">
        <ele>1770.4513986563</ele>
        <time>2000-05-11T13:14:48.999</time>
      </trkpt>
      <trkpt lat="42.5441" lon="2.04025">
        <ele>1769.8057918318</ele>
        <time>2000-05-11T13:14:50</time>
      </trkpt>
      <trkpt lat="42.5441" lon="2.04025">
        <ele>1769.1528784523</ele>
        <time>2000-05-11T13:14:51</time>
      </trkpt>
      <trkpt lat="42.54411" lon="2.04024">
        <ele>1768.4997949332</ele>
        <time>2000-05-11T13:14:52.1</time>
      </trkpt>
      <trkpt lat="42.54411" lon="2.04024">
        <ele>1767.9739699589</ele>
        <time>2000-05-11T13:14:53.1</time>
      </trkpt>
      <trkpt lat="42.5441" lon="2.04024">
        <ele>1768.0032974938</ele>
        <time>2000-05-11T13:14:54.1</time>
      </trkpt>
      <trkpt lat="42.54409" lon="2.04025">
        <ele>1768.6092670312</ele>
        <time>2000-05-11T13:14:55.1</time>
      </trkpt>
      <trkpt lat="42.54408" lon="2.04025">
        <ele>1769.2900829161</ele>
        <time>2000-05-11T13:14:56.1</time>
      </trkpt>
      <trkpt lat="42.54408" lon="2.04025">
        <ele>1770.0084084626</ele>
        <time>2000-05-11T13:14:57.1</time>
      </trkpt>
      <trkpt lat="42.54407" lon="2.04025">
        <ele>1770.6463133775</ele>
        <time>2000-05-11T13:14:58.2</time>
      </trkpt>
      <trkpt lat="42.54407" lon="2.04025">
        <ele>1770.7290657831</ele>
        <time>2000-05-11T13:14:59.2</time>
      </trkpt>
      <trkpt lat="42.54409" lon="2.04024">
        <ele>1770.4122094005</ele>
        <time>2000-05-11T13:15:00.2</time>
      </trkpt>
      <trkpt lat="42.54409" lon="2.04024">
        <ele>1770.0205066705</ele>
        <time>2000-05-11T13:15:01.2</time>
      </trkpt>
      <trkpt lat="42.5441" lon="2.04024">
        <ele>1769.4651945999</ele>
        <time>2000-05-11T13:15:02.5</time>
      </trkpt>
      <trkpt lat="42.5441" lon="2.04024">
        <ele>1768.990303161</ele>
        <time>2000-05-11T13:15:03.5</time>
      </trkpt>
      <trkpt lat="42.54411" lon="2.04025">
        <ele>1768.2864916064</ele>
        <time>2000-05-11T13:15:04.6</time>
      </trkpt>
      <trkpt lat="42.54411" lon="2.04025">
        <ele>1767.8939621501</ele>
        <time>2000-05-11T13:15:05.6</time>
      </trkpt>
      <trkpt lat="42.5441" lon="2.04025">
        <ele>1767.6626210218</ele>
        <time>2000-05-11T13:15:06.7</time>
      </trkpt>
      <trkpt lat="42.5441" lon="2.04025">
        <ele>1767.5948892342</ele>
        <time>2000-05-11T13:15:07.7</time>
      </trkpt>
      <trkpt lat="42.54409" lon="2.04026">
        <ele>1767.8569374915</ele>
        <time>2000-05-11T13:15:08.8</time>
      </trkpt>
      <trkpt lat="42.54408" lon="2.04027">
        <ele>1768.5303734476</ele>
        <time>2000-05-11T13:15:09.8</time>
      </trkpt>
      <trkpt lat="42.54409" lon="2.04026">
        <ele>1769.1023204213</ele>
        <time>2000-05-11T13:15:10.7</time>
      </trkpt>
      <trkpt lat="42.54409" lon="2.04026">
        <ele>1769.5130790669</ele>
        <time>2000-05-11T13:15:11.7</time>
      </trkpt>
      <trkpt lat="42.54408" lon="2.04027">
        <ele>1769.9172300432</ele>
        <time>2000-05-11T13:15:12.9</time>
      </trkpt>
      <trkpt lat="42.54408" lon="2.04027">
        <ele>1769.9916009745</ele>
        <time>2000-05-11T13:15:13.9</time>
      </trkpt>
      <trkpt lat="42.5441" lon="2.04026">
        <ele>1769.560453403</ele>
        <time>2000-05-11T13:15:14.9</time>
      </trkpt>
      <trkpt lat="42.5441" lon="2.04026">
        <ele>1769.2307948139</ele>
        <time>2000-05-11T13:15:15.9</time>
      </trkpt>
      <trkpt lat="42.5441" lon="2.04026">
        <ele>1768.7543570809</ele>
        <time>2000-05-11T13:15:16.9</time>
      </trkpt>
      <trkpt lat="42.5441" lon="2.04026">
        <ele>1768.2845270174</ele>
        <time>2000-05-11T13:15:17.9</time>
      </trkpt>
      <trkpt lat="42.54411" lon="2.04025">
        <ele>1767.7397742534</ele>
        <time>2000-05-11T13:15:18.8</time>
      </trkpt>
      <trkpt lat="42.54411" lon="2.04025">
        <ele>1767.5180724092</ele>
        <time>2000-05-11T13:15:19.8</time>
      </trkpt>
      <trkpt lat="42.54413" lon="2.04025">
        <ele>1766.6736488564</ele>
        <time>2000-05-11T13:15:20.8</time>
      </trkpt>
      <trkpt lat="42.54412" lon="2.04025">
        <ele>1766.2187270083</ele>
        <time>2000-05-11T13:15:21.9</time>
      </trkpt>
      <trkpt lat="42.54412" lon="2.04025">
        <ele>1765.7638051601</ele>
        <time>2000-05-11T13:15:22.9</time>
      </trkpt>
      <trkpt lat="42.54413" lon="2.04024">
        <ele>1765.1245503237</ele>
        <time>2000-05-11T13:15:23.12</time>
      </trkpt>
      <trkpt lat="42.54413" lon="2.04024">
        <ele>1764.4852954874</ele>
        <time>2000-05-11T13:15:24.12</time>
      </trkpt>
      <trkpt lat="42.54412" lon="2.04024">
        <ele>1765.0005847288</ele>
        <time>2000-05-11T13:15:25.16</time>
      </trkpt>
      <trkpt lat="42.54412" lon="2.04024">
        <ele>1765.2731514094</ele>
        <time>2000-05-11T13:15:26.16</time>
      </trkpt>
      <trkpt lat="42.5441" lon="2.04025">
        <ele>1765.8252657628</ele>
        <time>2000-05-11T13:15:27.16</time>
      </trkpt>
      <trkpt lat="42.54409" lon="2.04025">
        <ele>1766.6887857916</ele>
        <time>2000-05-11T13:15:28.16</time>
      </trkpt>
      <trkpt lat="42.5441" lon="2.04025">
        <ele>1767.2851367736</ele>
        <time>2000-05-11T13:15:29.15</time>
      </trkpt>
      <trkpt lat="42.54411" lon="2.04025">
        <ele>1767.2470892942</ele>
        <time>2000-05-11T13:15:30.15</time>
      </trkpt>
      <trkpt lat="42.5441" lon="2.04026">
        <ele>1767.3730584741</ele>
        <time>2000-05-11T13:15:31.16</time>
      </trkpt>
      <trkpt lat="42.5441" lon="2.04026">
        <ele>1767.2194799813</ele>
        <time>2000-05-11T13:15:32.16</time>
      </trkpt>
      <trkpt lat="42.54409" lon="2.04028">
        <ele>1767.4724698182</ele>
        <time>2000-05-11T13:15:33.16</time>
      </trkpt>
      <trkpt lat="42.54408" lon="2.04029">
        <ele>1768.1067153934</ele>
        <time>2000-05-11T13:15:34.16</time>
      </trkpt>
      <trkpt lat="42.54407" lon="2.04029">
        <ele>1769.235461772</ele>
        <time>2000-05-11T13:15:35.16</time>
      </trkpt>
      <trkpt lat="42.54407" lon="2.04029">
        <ele>1770.2001914913</ele>
        <time>2000-05-11T13:15:36.16</time>
      </trkpt>
      <trkpt lat="42.54408" lon="2.04029">
        <ele>1770.9840280889</ele>
        <time>2000-05-11T13:15:37.14</time>
      </trkpt>
      <trkpt lat="42.54408" lon="2.04029">
        <ele>1771.3091463698</ele>
        <time>2000-05-11T13:15:38.14</time>
      </trkpt>
      <trkpt lat="42.54409" lon="2.04028">
        <ele>1771.270398872</ele>
        <time>2000-05-11T13:15:39.17</time>
      </trkpt>
      <trkpt lat="42.54409" lon="2.04028">
        <ele>1770.839726663</ele>
        <time>2000-05-11T13:15:40.17</time>
      </trkpt>
      <trkpt lat="42.54409" lon="2.0403">
        <ele>1770.1794780243</ele>
        <time>2000-05-11T13:15:41.19</time>
      </trkpt>
      <trkpt lat="42.54409" lon="2.04031">
        <ele>1769.55406681</ele>
        <time>2000-05-11T13:15:42.19</time>
      </trkpt>
      <trkpt lat="42.5441" lon="2.04032">
        <ele>1768.875596156</ele>
        <time>2000-05-11T13:15:43.18</time>
      </trkpt>
      <trkpt lat="42.5441" lon="2.04032">
        <ele>1768.4469045892</ele>
        <time>2000-05-11T13:15:44.18</time>
      </trkpt>
      <trkpt lat="42.54409" lon="2.04032">
        <ele>1768.2088586543</ele>
        <time>2000-05-11T13:15:45.21</time>
      </trkpt>
      <trkpt lat="42.54409" lon="2.04032">
        <ele>1768.200389149</ele>
        <time>2000-05-11T13:15:46.21</time>
      </trkpt>
      <trkpt lat="42.54408" lon="2.04032">
        <ele>1768.4739087936</ele>
        <time>2000-05-11T13:15:47.23</time>
      </trkpt>
      <trkpt lat="42.54408" lon="2.04032">
        <ele>1768.8004878778</ele>
        <time>2000-05-11T13:15:48.23</time>
      </trkpt>
      <trkpt lat="42.54409" lon="2.04032">
        <ele>1768.9429350605</ele>
        <time>2000-05-11T13:15:49.18</time>
      </trkpt>
      <trkpt lat="42.54409" lon="2.04032">
        <ele>1768.8947366115</ele>
        <time>2000-05-11T13:15:50.18</time>
      </trkpt>
      <trkpt lat="42.54407" lon="2.04033">
        <ele>1769.0777205102</ele>
        <time>2000-05-11T13:15:51.17</time>
      </trkpt>
      <trkpt lat="42.54407" lon="2.04033">
        <ele>1769.1946489612</ele>
        <time>2000-05-11T13:15:52.17</time>
      </trkpt>
      <trkpt lat="42.54406" lon="2.04032">
        <ele>1769.5646497292</ele>
        <time>2000-05-11T13:15:53.19</time>
      </trkpt>
      <trkpt lat="42.54406" lon="2.04032">
        <ele>1770.1187823988</ele>
        <time>2000-05-11T13:15:54.19</time>
      </trkpt>
      <trkpt lat="42.54405" lon="2.04032">
        <ele>1770.7553225836</ele>
        <time>2000-05-11T13:15:55.19</time>
      </trkpt>
      <trkpt lat="42.54405" lon="2.04032">
        <ele>1771.1606804205</ele>
        <time>2000-05-11T13:15:56.19</time>
      </trkpt>
      <trkpt lat="42.54406" lon="2.04031">
        <ele>1771.215750166</ele>
        <time>2000-05-11T13:15:57.16</time>
      </trkpt>
      <trkpt lat="42.54406" lon="2.04031">
        <ele>1771.0177475944</ele>
        <time>2000-05-11T13:15:58.16</time>
      </trkpt>
      <trkpt lat="42.54408" lon="2.0403">
        <ele>1770.4111268789</ele>
        <time>2000-05-11T13:15:59.16</time>
      </trkpt>
      <trkpt lat="42.54408" lon="2.0403">
        <ele>1769.7220986482</ele>
        <time>2000-05-11T13:16:00.16</time>
      </trkpt>
      <trkpt lat="42.5441" lon="2.0403">
        <ele>1768.7934317814</ele>
        <time>2000-05-11T13:16:01.15</time>
      </trkpt>
      <trkpt lat="42.5441" lon="2.0403">
        <ele>1768.1451750014</ele>
        <time>2000-05-11T13:16:02.15</time>
      </trkpt>
      <trkpt lat="42.54409" lon="2.0403">
        <ele>1767.5490747172</ele>
        <time>2000-05-11T13:16:03.15</time>
      </trkpt>
      <trkpt lat="42.54409" lon="2.0403">
        <ele>1767.361592577</ele>
        <time>2000-05-11T13:16:04.15</time>
      </trkpt>
      <trkpt lat="42.5441" lon="2.0403">
        <ele>1766.715807526</ele>
        <time>2000-05-11T13:16:05.15</time>
      </trkpt>
      <trkpt lat="42.5441" lon="2.0403">
        <ele>1766.309661111</ele>
        <time>2000-05-11T13:16:06.15</time>
      </trkpt>
      <trkpt lat="42.54412" lon="2.0403">
        <ele>1765.4786084393</ele>
        <time>2000-05-11T13:16:07.15</time>
      </trkpt>
      <trkpt lat="42.54413" lon="2.0403">
        <ele>1764.4863360677</ele>
        <time>2000-05-11T13:16:08.15</time>
      </trkpt>
      <trkpt lat="42.54413" lon="2.0403">
        <ele>1763.4940636961</ele>
        <time>2000-05-11T13:16:09.15</time>
      </trkpt>
      <trkpt lat="42.54414" lon="2.04029">
        <ele>1763.0337304786</ele>
        <time>2000-05-11T13:16:10.15</time>
      </trkpt>
      <trkpt lat="42.54413" lon="2.04028">
        <ele>1762.5592548449</ele>
        <time>2000-05-11T13:16:11.15</time>
      </trkpt>
      <trkpt lat="42.54414" lon="2.04026">
        <ele>1762.4331318725</ele>
        <time>2000-05-11T13:16:12.15</time>
      </trkpt>
      <trkpt lat="42.54414" lon="2.04026">
        <ele>1762.4160721041</ele>
        <time>2000-05-11T13:16:13.15</time>
      </trkpt>
      <trkpt lat="42.54415" lon="2.04026">
        <ele>1762.3482920546</ele>
        <time>2000-05-11T13:16:14.16</time>
      </trkpt>
      <trkpt lat="42.54415" lon="2.04026">
        <ele>1762.2068757618</ele>
        <time>2000-05-11T13:16:15.16</time>
      </trkpt>
      <trkpt lat="42.54414" lon="2.04027">
        <ele>1762.2804160312</ele>
        <time>2000-05-11T13:16:16.18</time>
      </trkpt>
      <trkpt lat="42.54414" lon="2.04027">
        <ele>1762.430509896</ele>
        <time>2000-05-11T13:16:17.18</time>
      </trkpt>
      <trkpt lat="42.54413" lon="2.04026">
        <ele>1762.5754717859</ele>
        <time>2000-05-11T13:16:18.16</time>
      </trkpt>
      <trkpt lat="42.54413" lon="2.04026">
        <ele>1762.7711539568</ele>
        <time>2000-05-11T13:16:19.16</time>
      </trkpt>
      <trkpt lat="42.54412" lon="2.04027">
        <ele>1763.423678844</ele>
        <time>2000-05-11T13:16:20.19</time>
      </trkpt>
      <trkpt lat="42.54412" lon="2.04027">
        <ele>1763.8753895853</ele>
        <time>2000-05-11T13:16:21.19</time>
      </trkpt>
      <trkpt lat="42.54412" lon="2.04026">
        <ele>1764.3177250704</ele>
        <time>2000-05-11T13:16:22.20</time>
      </trkpt>
      <trkpt lat="42.54411" lon="2.04024">
        <ele>1765.0532798391</ele>
        <time>2000-05-11T13:16:23.20</time>
      </trkpt>
      <trkpt lat="42.54413" lon="2.04026">
        <ele>1764.9035594996</ele>
        <time>2000-05-11T13:16:24.21</time>
      </trkpt>
      <trkpt lat="42.54415" lon="2.04025">
        <ele>1763.224223653</ele>
        <time>2000-05-11T13:16:25.21</time>
      </trkpt>
      <trkpt lat="42.54417" lon="2.04025">
        <ele>1761.1796430146</ele>
        <time>2000-05-11T13:16:26.21</time>
      </trkpt>
      <trkpt lat="42.54419" lon="2.04024">
        <ele>1758.1396220041</ele>
        <time>2000-05-11T13:16:27.21</time>
      </trkpt>
      <trkpt lat="42.5442" lon="2.04022">
        <ele>1754.0977827085</ele>
        <time>2000-05-11T13:16:28.21</time>
      </trkpt>
      <trkpt lat="42.54422" lon="2.04022">
        <ele>1750.9203000503</ele>
        <time>2000-05-11T13:16:29.21</time>
      </trkpt>
      <trkpt lat="42.54422" lon="2.04022">
        <ele>1748.9781115362</ele>
        <time>2000-05-11T13:16:30.21</time>
      </trkpt>
      <trkpt lat="42.54422" lon="2.04022">
        <ele>1747.4011678141</ele>
        <time>2000-05-11T13:16:31.21</time>
      </trkpt>
      <trkpt lat="42.54422" lon="2.04022">
        <ele>1746.8290397201</ele>
        <time>2000-05-11T13:16:32.21</time>
      </trkpt>
      <trkpt lat="42.54421" lon="2.04023">
        <ele>1747.2756069997</ele>
        <time>2000-05-11T13:16:33.20</time>
      </trkpt>
      <trkpt lat="42.54421" lon="2.04023">
        <ele>1747.7430927502</ele>
        <time>2000-05-11T13:16:34.20</time>
      </trkpt>
      <trkpt lat="42.54419" lon="2.04023">
        <ele>1748.4715888429</ele>
        <time>2000-05-11T13:16:35.20</time>
      </trkpt>
      <trkpt lat="42.54418" lon="2.04023">
        <ele>1749.704039247</ele>
        <time>2000-05-11T13:16:36.20</time>
      </trkpt>
      <trkpt lat="42.54418" lon="2.04023">
        <ele>1750.936489651</ele>
        <time>2000-05-11T13:16:37.20</time>
      </trkpt>
      <trkpt lat="42.54419" lon="2.04024">
        <ele>1752.5969229281</ele>
        <time>2000-05-11T13:16:38.17</time>
      </trkpt>
      <trkpt lat="42.54419" lon="2.04024">
        <ele>1754.2573562052</ele>
        <time>2000-05-11T13:16:39.17</time>
      </trkpt>
      <trkpt lat="42.54418" lon="2.04024">
        <ele>1755.3599458816</ele>
        <time>2000-05-11T13:16:40.21</time>
      </trkpt>
      <trkpt lat="42.54418" lon="2.04024">
        <ele>1755.9585812466</ele>
        <time>2000-05-11T13:16:41.21</time>
      </trkpt>
      <trkpt lat="42.54417" lon="2.04024">
        <ele>1756.5001642693</ele>
        <time>2000-05-11T13:16:42.24</time>
      </trkpt>
      <trkpt lat="42.54417" lon="2.04022">
        <ele>1755.8105766574</ele>
        <time>2000-05-11T13:16:43.24</time>
      </trkpt>
      <trkpt lat="42.54415" lon="2.04022">
        <ele>1755.118457914</ele>
        <time>2000-05-11T13:16:44.24</time>
      </trkpt>
      <trkpt lat="42.54415" lon="2.04022">
        <ele>1754.5606510757</ele>
        <time>2000-05-11T13:16:45.24</time>
      </trkpt>
      <trkpt lat="42.54415" lon="2.04022">
        <ele>1754.0028442374</ele>
        <time>2000-05-11T13:16:46.24</time>
      </trkpt>
      <trkpt lat="42.54416" lon="2.04023">
        <ele>1753.7388039956</ele>
        <time>2000-05-11T13:16:47.28</time>
      </trkpt>
      <trkpt lat="42.54416" lon="2.04023">
        <ele>1753.9729871182</ele>
        <time>2000-05-11T13:16:48.28</time>
      </trkpt>
      <trkpt lat="42.54417" lon="2.04024">
        <ele>1754.0431124767</ele>
        <time>2000-05-11T13:16:49.26</time>
      </trkpt>
      <trkpt lat="42.54417" lon="2.04025">
        <ele>1754.0587721033</ele>
        <time>2000-05-11T13:16:50.26</time>
      </trkpt>
      <trkpt lat="42.54415" lon="2.04027">
        <ele>1754.8201188935</ele>
        <time>2000-05-11T13:16:51.29</time>
      </trkpt>
      <trkpt lat="42.54415" lon="2.04027">
        <ele>1755.3447514296</ele>
        <time>2000-05-11T13:16:52.29</time>
      </trkpt>
      <trkpt lat="42.54413" lon="2.04027">
        <ele>1756.0930693388</ele>
        <time>2000-05-11T13:16:53.29</time>
      </trkpt>
      <trkpt lat="42.54413" lon="2.04027">
        <ele>1757.0079761436</ele>
        <time>2000-05-11T13:16:54.29</time>
      </trkpt>
      <trkpt lat="42.54413" lon="2.04026">
        <ele>1757.9717263145</ele>
        <time>2000-05-11T13:16:55.29</time>
      </trkpt>
      <trkpt lat="42.54413" lon="2.04025">
        <ele>1758.559847923</ele>
        <time>2000-05-11T13:16:56.28</time>
      </trkpt>
      <trkpt lat="42.54413" lon="2.04025">
        <ele>1759.1479695315</ele>
        <time>2000-05-11T13:16:57.28</time>
      </trkpt>
      <trkpt lat="42.54413" lon="2.04025">
        <ele>1759.7618275668</ele>
        <time>2000-05-11T13:16:58.28</time>
      </trkpt>
      <trkpt lat="42.54413" lon="2.04026">
        <ele>1761.028215727</ele>
        <time>2000-05-11T13:16:59.28</time>
      </trkpt>
      <trkpt lat="42.54412" lon="2.04026">
        <ele>1762.4971171614</ele>
        <time>2000-05-11T13:17:00.26</time>
      </trkpt>
      <trkpt lat="42.54412" lon="2.04026">
        <ele>1763.5959599946</ele>
        <time>2000-05-11T13:17:01.26</time>
      </trkpt>
      <trkpt lat="42.54412" lon="2.04025">
        <ele>1763.8826776631</ele>
        <time>2000-05-11T13:17:02.26</time>
      </trkpt>
      <trkpt lat="42.54412" lon="2.04025">
        <ele>1763.9199735316</ele>
        <time>2000-05-11T13:17:03.26</time>
      </trkpt>
      <trkpt lat="42.54412" lon="2.04024">
        <ele>1763.1581743162</ele>
        <time>2000-05-11T13:17:04.29</time>
      </trkpt>
      <trkpt lat="42.54412" lon="2.04024">
        <ele>1762.1994841926</ele>
        <time>2000-05-11T13:17:05.29</time>
      </trkpt>
      <trkpt lat="42.54413" lon="2.04026">
        <ele>1761.8033307524</ele>
        <time>2000-05-11T13:17:05.996</time>
      </trkpt>
      <trkpt lat="42.54413" lon="2.04026">
        <ele>1762.2193024769</ele>
        <time>2000-05-11T13:17:06.996</time>
      </trkpt>
      <trkpt lat="42.54412" lon="2.04026">
        <ele>1762.8532219501</ele>
        <time>2000-05-11T13:17:07.998</time>
      </trkpt>
      <trkpt lat="42.54412" lon="2.04026">
        <ele>1763.6337063823</ele>
        <time>2000-05-11T13:17:08.998</time>
      </trkpt>
      <trkpt lat="42.54412" lon="2.04026">
        <ele>1764.5829430168</ele>
        <time>2000-05-11T13:17:09.999</time>
      </trkpt>
      <trkpt lat="42.54412" lon="2.04026">
        <ele>1764.9696429679</ele>
        <time>2000-05-11T13:17:10.999</time>
      </trkpt>
      <trkpt lat="42.54413" lon="2.04026">
        <ele>1765.511981261</ele>
        <time>2000-05-11T13:17:12</time>
      </trkpt>
      <trkpt lat="42.54413" lon="2.04026">
        <ele>1765.8363718053</ele>
        <time>2000-05-11T13:17:13</time>
      </trkpt>
      <trkpt lat="42.54412" lon="2.04026">
        <ele>1766.3781864073</ele>
        <time>2000-05-11T13:17:13.997</time>
      </trkpt>
      <trkpt lat="42.54412" lon="2.04026">
        <ele>1766.7512488069</ele>
        <time>2000-05-11T13:17:14.997</time>
      </trkpt>
      <trkpt lat="42.5441" lon="2.04027">
        <ele>1767.5384432495</ele>
        <time>2000-05-11T13:17:15.997</time>
      </trkpt>
      <trkpt lat="42.5441" lon="2.04026">
        <ele>1767.7712410443</ele>
        <time>2000-05-11T13:17:16.997</time>
      </trkpt>
      <trkpt lat="42.5441" lon="2.04026">
        <ele>1768.004038839</ele>
        <time>2000-05-11T13:17:17.997</time>
      </trkpt>
      <trkpt lat="42.5441" lon="2.04027">
        <ele>1768.1530316129</ele>
        <time>2000-05-11T13:17:18.998</time>
      </trkpt>
      <trkpt lat="42.5441" lon="2.04027">
        <ele>1768.3020243868</ele>
        <time>2000-05-11T13:17:19.998</time>
      </trkpt>
      <trkpt lat="42.5441" lon="2.04026">
        <ele>1767.7804912329</ele>
        <time>2000-05-11T13:17:20.998</time>
      </trkpt>
      <trkpt lat="42.5441" lon="2.04026">
        <ele>1767.6577163847</ele>
        <time>2000-05-11T13:17:21.998</time>
      </trkpt>
      <trkpt lat="42.5441" lon="2.04023">
        <ele>1766.782228302</ele>
        <time>2000-05-11T13:17:22.996</time>
      </trkpt>
      <trkpt lat="42.5441" lon="2.04023">
        <ele>1765.7731211826</ele>
        <time>2000-05-11T13:17:23.996</time>
      </trkpt>
      <trkpt lat="42.54409" lon="2.04022">
        <ele>1764.8848819584</ele>
        <time>2000-05-11T13:17:24.993</time>
      </trkpt>
      <trkpt lat="42.54409" lon="2.04021">
        <ele>1764.3252333412</ele>
        <time>2000-05-11T13:17:25.993</time>
      </trkpt>
      <trkpt lat="42.5441" lon="2.04022">
        <ele>1764.1101090545</ele>
        <time>2000-05-11T13:17:26.994</time>
      </trkpt>
      <trkpt lat="42.54411" lon="2.04023">
        <ele>1764.2786391674</ele>
        <time>2000-05-11T13:17:27.994</time>
      </trkpt>
      <trkpt lat="42.54412" lon="2.04024">
        <ele>1764.6326905493</ele>
        <time>2000-05-11T13:17:28.993</time>
      </trkpt>
      <trkpt lat="42.54412" lon="2.04025">
        <ele>1765.0974319955</ele>
        <time>2000-05-11T13:17:29.993</time>
      </trkpt>
      <trkpt lat="42.54413" lon="2.04025">
        <ele>1765.2865389446</ele>
        <time>2000-05-11T13:17:30.992</time>
      </trkpt>
      <trkpt lat="42.54413" lon="2.04025">
        <ele>1765.1311215632</ele>
        <time>2000-05-11T13:17:31.992</time>
      </trkpt>
      <trkpt lat="42.54412" lon="2.04026">
        <ele>1765.3117948186</ele>
        <time>2000-05-11T13:17:32.993</time>
      </trkpt>
      <trkpt lat="42.54412" lon="2.04026">
        <ele>1765.3069468049</ele>
        <time>2000-05-11T13:17:33.993</time>
      </trkpt>
      <trkpt lat="42.54412" lon="2.04028">
        <ele>1765.8423053635</ele>
        <time>2000-05-11T13:17:34.992</time>
      </trkpt>
      <trkpt lat="42.54411" lon="2.04029">
        <ele>1766.8831737245</ele>
        <time>2000-05-11T13:17:35.992</time>
      </trkpt>
      <trkpt lat="42.5441" lon="2.04029">
        <ele>1767.8244815558</ele>
        <time>2000-05-11T13:17:36.990</time>
      </trkpt>
      <trkpt lat="42.54409" lon="2.0403">
        <ele>1768.7467738254</ele>
        <time>2000-05-11T13:17:37.990</time>
      </trkpt>
      <trkpt lat="42.54408" lon="2.04029">
        <ele>1769.3796896601</ele>
        <time>2000-05-11T13:17:38.990</time>
      </trkpt>
      <trkpt lat="42.54407" lon="2.04029">
        <ele>1769.0172360435</ele>
        <time>2000-05-11T13:17:39.990</time>
      </trkpt>
      <trkpt lat="42.54407" lon="2.04029">
        <ele>1768.3527103996</ele>
        <time>2000-05-11T13:17:40.990</time>
      </trkpt>
      <trkpt lat="42.54406" lon="2.04029">
        <ele>1767.7913620608</ele>
        <time>2000-05-11T13:17:41.989</time>
      </trkpt>
      <trkpt lat="42.54406" lon="2.04029">
        <ele>1767.2819974819</ele>
        <time>2000-05-11T13:17:42.989</time>
      </trkpt>
      <trkpt lat="42.54405" lon="2.04029">
        <ele>1767.2083121985</ele>
        <time>2000-05-11T13:17:43.991</time>
      </trkpt>
      <trkpt lat="42.54404" lon="2.04028">
        <ele>1767.2003560472</ele>
        <time>2000-05-11T13:17:44.991</time>
      </trkpt>
      <trkpt lat="42.54403" lon="2.04028">
        <ele>1766.3966324806</ele>
        <time>2000-05-11T13:17:45.991</time>
      </trkpt>
      <trkpt lat="42.54402" lon="2.04028">
        <ele>1765.3176261693</ele>
        <time>2000-05-11T13:17:46.991</time>
      </trkpt>
      <trkpt lat="42.54401" lon="2.04029">
        <ele>1764.0807466207</ele>
        <time>2000-05-11T13:17:47.991</time>
      </trkpt>
      <trkpt lat="42.54401" lon="2.0403">
        <ele>1762.6093782507</ele>
        <time>2000-05-11T13:17:48.991</time>
      </trkpt>
      <trkpt lat="42.54399" lon="2.0403">
        <ele>1761.3095205458</ele>
        <time>2000-05-11T13:17:49.991</time>
      </trkpt>
      <trkpt lat="42.54401" lon="2.04031">
        <ele>1760.4010196578</ele>
        <time>2000-05-11T13:17:50.991</time>
      </trkpt>
      <trkpt lat="42.54401" lon="2.04031">
        <ele>1759.7641847389</ele>
        <time>2000-05-11T13:17:51.991</time>
      </trkpt>
      <trkpt lat="42.54401" lon="2.04031">
        <ele>1759.2852230573</ele>
        <time>2000-05-11T13:17:52.991</time>
      </trkpt>
      <trkpt lat="42.54399" lon="2.0403">
        <ele>1758.9728095058</ele>
        <time>2000-05-11T13:17:53.990</time>
      </trkpt>
      <trkpt lat="42.54397" lon="2.0403">
        <ele>1759.05276017</ele>
        <time>2000-05-11T13:17:54.990</time>
      </trkpt>
      <trkpt lat="42.54395" lon="2.04029">
        <ele>1759.8264220942</ele>
        <time>2000-05-11T13:17:55.990</time>
      </trkpt>
      <trkpt lat="42.54394" lon="2.0403">
        <ele>1760.7812737798</ele>
        <time>2000-05-11T13:17:56.990</time>
      </trkpt>
      <trkpt lat="42.54394" lon="2.0403">
        <ele>1761.7361254655</ele>
        <time>2000-05-11T13:17:57.990</time>
      </trkpt>
      <trkpt lat="42.54393" lon="2.04031">
        <ele>1762.8069610851</ele>
        <time>2000-05-11T13:17:58.990</time>
      </trkpt>
      <trkpt lat="42.54392" lon="2.04032">
        <ele>1763.6976083513</ele>
        <time>2000-05-11T13:17:59.990</time>
      </trkpt>
      <trkpt lat="42.54391" lon="2.04033">
        <ele>1764.3816072632</ele>
        <time>2000-05-11T13:18:00.990</time>
      </trkpt>
      <trkpt lat="42.54391" lon="2.04034">
        <ele>1764.7611794993</ele>
        <time>2000-05-11T13:18:01.990</time>
      </trkpt>
      <trkpt lat="42.54391" lon="2.04035">
        <ele>1765.0638247782</ele>
        <time>2000-05-11T13:18:02.990</time>
      </trkpt>
      <trkpt lat="42.5439" lon="2.04035">
        <ele>1764.938736592</ele>
        <time>2000-05-11T13:18:03.990</time>
      </trkpt>
      <trkpt lat="42.5439" lon="2.04038">
        <ele>1764.6422247728</ele>
        <time>2000-05-11T13:18:04.990</time>
      </trkpt>
      <trkpt lat="42.54389" lon="2.04038">
        <ele>1764.3523431152</ele>
        <time>2000-05-11T13:18:05.990</time>
      </trkpt>
      <trkpt lat="42.54389" lon="2.0404">
        <ele>1764.364616248</ele>
        <time>2000-05-11T13:18:06.990</time>
      </trkpt>
      <trkpt lat="42.54388" lon="2.0404">
        <ele>1764.4831221877</ele>
        <time>2000-05-11T13:18:07.990</time>
      </trkpt>
      <trkpt lat="42.54387" lon="2.04041">
        <ele>1764.8368588533</ele>
        <time>2000-05-11T13:18:08.990</time>
      </trkpt>
      <trkpt lat="42.54387" lon="2.04042">
        <ele>1765.259731365</ele>
        <time>2000-05-11T13:18:09.990</time>
      </trkpt>
      <trkpt lat="42.54386" lon="2.04042">
        <ele>1765.7034925316</ele>
        <time>2000-05-11T13:18:10.990</time>
      </trkpt>
      <trkpt lat="42.54384" lon="2.04042">
        <ele>1765.9764613874</ele>
        <time>2000-05-11T13:18:11.992</time>
      </trkpt>
      <trkpt lat="42.54384" lon="2.04042">
        <ele>1766.2201243937</ele>
        <time>2000-05-11T13:18:12.992</time>
      </trkpt>
      <trkpt lat="42.54383" lon="2.04043">
        <ele>1766.5941261858</ele>
        <time>2000-05-11T13:18:13.993</time>
      </trkpt>
      <trkpt lat="42.54382" lon="2.04044">
        <ele>1766.8464104118</ele>
        <time>2000-05-11T13:18:14.993</time>
      </trkpt>
      <trkpt lat="42.54381" lon="2.04044">
        <ele>1766.7703744736</ele>
        <time>2000-05-11T13:18:15.993</time>
      </trkpt>
      <trkpt lat="42.5438" lon="2.04044">
        <ele>1766.4223035695</ele>
        <time>2000-05-11T13:18:16.992</time>
      </trkpt>
      <trkpt lat="42.5438" lon="2.04043">
        <ele>1765.8339690991</ele>
        <time>2000-05-11T13:18:17.992</time>
      </trkpt>
      <trkpt lat="42.54379" lon="2.04046">
        <ele>1765.3483188555</ele>
        <time>2000-05-11T13:18:18.993</time>
      </trkpt>
      <trkpt lat="42.54379" lon="2.04046">
        <ele>1764.860863225</ele>
        <time>2000-05-11T13:18:19.993</time>
      </trkpt>
      <trkpt lat="42.54377" lon="2.04046">
        <ele>1764.4798045326</ele>
        <time>2000-05-11T13:18:20.993</time>
      </trkpt>
      <trkpt lat="42.54375" lon="2.04046">
        <ele>1764.4579370348</ele>
        <time>2000-05-11T13:18:21.993</time>
      </trkpt>
      <trkpt lat="42.54372" lon="2.04047">
        <ele>1764.5101986391</ele>
        <time>2000-05-11T13:18:22.993</time>
      </trkpt>
      <trkpt lat="42.54371" lon="2.04049">
        <ele>1764.3251522765</ele>
        <time>2000-05-11T13:18:23.993</time>
      </trkpt>
      <trkpt lat="42.5437" lon="2.04051">
        <ele>1764.3006371407</ele>
        <time>2000-05-11T13:18:24.993</time>
      </trkpt>
      <trkpt lat="42.54369" lon="2.04053">
        <ele>1764.541957459</ele>
        <time>2000-05-11T13:18:25.993</time>
      </trkpt>
      <trkpt lat="42.54368" lon="2.04053">
        <ele>1764.4984921586</ele>
        <time>2000-05-11T13:18:26.993</time>
      </trkpt>
      <trkpt lat="42.54368" lon="2.04053">
        <ele>1764.3822487975</ele>
        <time>2000-05-11T13:18:27.993</time>
      </trkpt>
      <trkpt lat="42.54368" lon="2.04053">
        <ele>1764.0634457402</ele>
        <time>2000-05-11T13:18:28.993</time>
      </trkpt>
      <trkpt lat="42.54367" lon="2.04054">
        <ele>1763.6195458319</ele>
        <time>2000-05-11T13:18:29.993</time>
      </trkpt>
      <trkpt lat="42.54367" lon="2.04055">
        <ele>1763.1649273084</ele>
        <time>2000-05-11T13:18:30.993</time>
      </trkpt>
      <trkpt lat="42.54366" lon="2.04057">
        <ele>1762.9531059431</ele>
        <time>2000-05-11T13:18:31.993</time>
      </trkpt>
      <trkpt lat="42.54366" lon="2.04058">
        <ele>1763.0585252747</ele>
        <time>2000-05-11T13:18:32.993</time>
      </trkpt>
      <trkpt lat="42.54365" lon="2.0406">
        <ele>1763.6071481975</ele>
        <time>2000-05-11T13:18:33.993</time>
      </trkpt>
      <trkpt lat="42.54364" lon="2.04062">
        <ele>1764.1795845594</ele>
        <time>2000-05-11T13:18:34.993</time>
      </trkpt>
      <trkpt lat="42.54364" lon="2.04062">
        <ele>1764.6086561849</ele>
        <time>2000-05-11T13:18:35.993</time>
      </trkpt>
      <trkpt lat="42.54364" lon="2.04062">
        <ele>1764.9844344769</ele>
        <time>2000-05-11T13:18:36.993</time>
      </trkpt>
      <trkpt lat="42.54363" lon="2.04062">
        <ele>1765.2266343949</ele>
        <time>2000-05-11T13:18:37.993</time>
      </trkpt>
      <trkpt lat="42.54362" lon="2.04064">
        <ele>1765.3538360236</ele>
        <time>2000-05-11T13:18:38.993</time>
      </trkpt>
      <trkpt lat="42.54361" lon="2.04065">
        <ele>1765.4644964311</ele>
        <time>2000-05-11T13:18:39.993</time>
      </trkpt>
      <trkpt lat="42.54359" lon="2.04065">
        <ele>1765.5369702784</ele>
        <time>2000-05-11T13:18:40.993</time>
      </trkpt>
      <trkpt lat="42.54358" lon="2.04066">
        <ele>1765.4969575325</ele>
        <time>2000-05-11T13:18:41.993</time>
      </trkpt>
      <trkpt lat="42.54357" lon="2.04067">
        <ele>1765.6045918681</ele>
        <time>2000-05-11T13:18:42.993</time>
      </trkpt>
      <trkpt lat="42.54357" lon="2.04067">
        <ele>1765.4422270596</ele>
        <time>2000-05-11T13:18:43.993</time>
      </trkpt>
      <trkpt lat="42.54357" lon="2.04067">
        <ele>1765.2371556573</ele>
        <time>2000-05-11T13:18:44.993</time>
      </trkpt>
      <trkpt lat="42.54356" lon="2.04068">
        <ele>1765.1113426467</ele>
        <time>2000-05-11T13:18:45.993</time>
      </trkpt>
      <trkpt lat="42.54355" lon="2.04069">
        <ele>1765.1945548544</ele>
        <time>2000-05-11T13:18:46.993</time>
      </trkpt>
      <trkpt lat="42.54355" lon="2.0407">
        <ele>1765.1574604178</ele>
        <time>2000-05-11T13:18:47.993</time>
      </trkpt>
      <trkpt lat="42.54354" lon="2.04071">
        <ele>1765.3360016281</ele>
        <time>2000-05-11T13:18:48.993</time>
      </trkpt>
      <trkpt lat="42.54353" lon="2.04073">
        <ele>1765.6178846495</ele>
        <time>2000-05-11T13:18:49.993</time>
      </trkpt>
      <trkpt lat="42.54352" lon="2.04074">
        <ele>1765.8666987697</ele>
        <time>2000-05-11T13:18:50.993</time>
      </trkpt>
      <trkpt lat="42.54351" lon="2.04075">
        <ele>1765.8560862072</ele>
        <time>2000-05-11T13:18:51.993</time>
      </trkpt>
      <trkpt lat="42.5435" lon="2.04076">
        <ele>1765.9610844266</ele>
        <time>2000-05-11T13:18:52.993</time>
      </trkpt>
      <trkpt lat="42.5435" lon="2.04076">
        <ele>1765.9815112414</ele>
        <time>2000-05-11T13:18:53.993</time>
      </trkpt>
      <trkpt lat="42.5435" lon="2.04076">
        <ele>1765.894471281</ele>
        <time>2000-05-11T13:18:54.993</time>
      </trkpt>
      <trkpt lat="42.5435" lon="2.04078">
        <ele>1765.9138303086</ele>
        <time>2000-05-11T13:18:55.993</time>
      </trkpt>
      <trkpt lat="42.54349" lon="2.0408">
        <ele>1766.3927713582</ele>
        <time>2000-05-11T13:18:56.993</time>
      </trkpt>
      <trkpt lat="42.54349" lon="2.04081">
        <ele>1766.8333509108</ele>
        <time>2000-05-11T13:18:57.993</time>
      </trkpt>
      <trkpt lat="42.54348" lon="2.04081">
        <ele>1767.2583576573</ele>
        <time>2000-05-11T13:18:58.993</time>
      </trkpt>
      <trkpt lat="42.54348" lon="2.04082">
        <ele>1767.7426440349</ele>
        <time>2000-05-11T13:18:59.993</time>
      </trkpt>
      <trkpt lat="42.54347" lon="2.04081">
        <ele>1768.0662133396</ele>
        <time>2000-05-11T13:19:00.993</time>
      </trkpt>
      <trkpt lat="42.54345" lon="2.04082">
        <ele>1768.119712561</ele>
        <time>2000-05-11T13:19:01.993</time>
      </trkpt>
      <trkpt lat="42.54345" lon="2.04082">
        <ele>1768.0203644264</ele>
        <time>2000-05-11T13:19:02.993</time>
      </trkpt>
      <trkpt lat="42.54343" lon="2.04083">
        <ele>1767.6761838078</ele>
        <time>2000-05-11T13:19:03.994</time>
      </trkpt>
      <trkpt lat="42.54342" lon="2.04083">
        <ele>1767.2175825421</ele>
        <time>2000-05-11T13:19:04.994</time>
      </trkpt>
      <trkpt lat="42.54341" lon="2.04084">
        <ele>1766.7042151351</ele>
        <time>2000-05-11T13:19:05.994</time>
      </trkpt>
      <trkpt lat="42.54339" lon="2.04084">
        <ele>1766.0914912408</ele>
        <time>2000-05-11T13:19:06.994</time>
      </trkpt>
      <trkpt lat="42.54338" lon="2.04084">
        <ele>1765.4746026525</ele>
        <time>2000-05-11T13:19:07.994</time>
      </trkpt>
      <trkpt lat="42.54337" lon="2.04084">
        <ele>1765.1125339292</ele>
        <time>2000-05-11T13:19:08.994</time>
      </trkpt>
      <trkpt lat="42.54336" lon="2.04085">
        <ele>1764.8143729735</ele>
        <time>2000-05-11T13:19:09.994</time>
      </trkpt>
      <trkpt lat="42.54334" lon="2.04085">
        <ele>1764.6135507869</ele>
        <time>2000-05-11T13:19:10.994</time>
      </trkpt>
      <trkpt lat="42.54333" lon="2.04085">
        <ele>1764.4190733302</ele>
        <time>2000-05-11T13:19:11.994</time>
      </trkpt>
      <trkpt lat="42.54332" lon="2.04086">
        <ele>1764.4611174528</ele>
        <time>2000-05-11T13:19:12.994</time>
      </trkpt>
      <trkpt lat="42.54331" lon="2.04087">
        <ele>1764.6767371036</ele>
        <time>2000-05-11T13:19:13.994</time>
      </trkpt>
      <trkpt lat="42.5433" lon="2.04087">
        <ele>1764.9258070348</ele>
        <time>2000-05-11T13:19:14.994</time>
      </trkpt>
      <trkpt lat="42.54329" lon="2.04089">
        <ele>1765.2993931299</ele>
        <time>2000-05-11T13:19:15.994</time>
      </trkpt>
      <trkpt lat="42.54329" lon="2.0409">
        <ele>1765.7988789015</ele>
        <time>2000-05-11T13:19:16.994</time>
      </trkpt>
      <trkpt lat="42.54328" lon="2.04091">
        <ele>1766.1407368092</ele>
        <time>2000-05-11T13:19:17.994</time>
      </trkpt>
      <trkpt lat="42.54327" lon="2.04091">
        <ele>1766.1727735296</ele>
        <time>2000-05-11T13:19:18.994</time>
      </trkpt>
      <trkpt lat="42.54327" lon="2.04091">
        <ele>1766.1667181822</ele>
        <time>2000-05-11T13:19:19.994</time>
      </trkpt>
      <trkpt lat="42.54326" lon="2.0409">
        <ele>1765.5469482342</ele>
        <time>2000-05-11T13:19:20.993</time>
      </trkpt>
      <trkpt lat="42.54324" lon="2.0409">
        <ele>1764.5360797836</ele>
        <time>2000-05-11T13:19:21.993</time>
      </trkpt>
      <trkpt lat="42.54323" lon="2.04091">
        <ele>1763.6465880979</ele>
        <time>2000-05-11T13:19:22.992</time>
      </trkpt>
      <trkpt lat="42.54323" lon="2.04091">
        <ele>1762.9146583827</ele>
        <time>2000-05-11T13:19:23.992</time>
      </trkpt>
      <trkpt lat="42.5432" lon="2.0409">
        <ele>1762.1963008232</ele>
        <time>2000-05-11T13:19:24.992</time>
      </trkpt>
      <trkpt lat="42.5432" lon="2.04092">
        <ele>1762.0782307167</ele>
        <time>2000-05-11T13:19:25.992</time>
      </trkpt>
      <trkpt lat="42.5432" lon="2.04093">
        <ele>1762.3111692958</ele>
        <time>2000-05-11T13:19:26.992</time>
      </trkpt>
      <trkpt lat="42.5432" lon="2.04094">
        <ele>1762.3004147157</ele>
        <time>2000-05-11T13:19:27.992</time>
      </trkpt>
      <trkpt lat="42.5432" lon="2.04094">
        <ele>1762.2896601357</ele>
        <time>2000-05-11T13:19:28.992</time>
      </trkpt>
      <trkpt lat="42.54318" lon="2.04095">
        <ele>1762.2711869126</ele>
        <time>2000-05-11T13:19:29.992</time>
      </trkpt>
      <trkpt lat="42.54317" lon="2.04096">
        <ele>1762.085256388</ele>
        <time>2000-05-11T13:19:30.992</time>
      </trkpt>
      <trkpt lat="42.54316" lon="2.04097">
        <ele>1761.909934867</ele>
        <time>2000-05-11T13:19:31.992</time>
      </trkpt>
      <trkpt lat="42.54315" lon="2.04099">
        <ele>1762.1759043874</ele>
        <time>2000-05-11T13:19:32.992</time>
      </trkpt>
      <trkpt lat="42.54314" lon="2.04099">
        <ele>1762.4553626951</ele>
        <time>2000-05-11T13:19:33.992</time>
      </trkpt>
      <trkpt lat="42.54313" lon="2.04101">
        <ele>1762.8192014774</ele>
        <time>2000-05-11T13:19:34.992</time>
      </trkpt>
      <trkpt lat="42.54313" lon="2.04102">
        <ele>1763.274914372</ele>
        <time>2000-05-11T13:19:35.992</time>
      </trkpt>
      <trkpt lat="42.54313" lon="2.04102">
        <ele>1763.7005962797</ele>
        <time>2000-05-11T13:19:36.992</time>
      </trkpt>
      <trkpt lat="42.54312" lon="2.04103">
        <ele>1763.8721225098</ele>
        <time>2000-05-11T13:19:37.992</time>
      </trkpt>
      <trkpt lat="42.54311" lon="2.04104">
        <ele>1764.1412557419</ele>
        <time>2000-05-11T13:19:38.992</time>
      </trkpt>
      <trkpt lat="42.5431" lon="2.04105">
        <ele>1764.3501868069</ele>
        <time>2000-05-11T13:19:39.992</time>
      </trkpt>
      <trkpt lat="42.54309" lon="2.04106">
        <ele>1764.5958175521</ele>
        <time>2000-05-11T13:19:40.992</time>
      </trkpt>
      <trkpt lat="42.54308" lon="2.04106">
        <ele>1764.9033146072</ele>
        <time>2000-05-11T13:19:41.992</time>
      </trkpt>
      <trkpt lat="42.54306" lon="2.04106">
        <ele>1765.0230949339</ele>
        <time>2000-05-11T13:19:42.992</time>
      </trkpt>
      <trkpt lat="42.54306" lon="2.04106">
        <ele>1765.0317794712</ele>
        <time>2000-05-11T13:19:43.992</time>
      </trkpt>
      <trkpt lat="42.54305" lon="2.04108">
        <ele>1765.3881270047</ele>
        <time>2000-05-11T13:19:44.992</time>
      </trkpt>
      <trkpt lat="42.54304" lon="2.04109">
        <ele>1765.8044045068</ele>
        <time>2000-05-11T13:19:45.992</time>
      </trkpt>
      <trkpt lat="42.54303" lon="2.04109">
        <ele>1766.2745643385</ele>
        <time>2000-05-11T13:19:46.992</time>
      </trkpt>
      <trkpt lat="42.54303" lon="2.0411">
        <ele>1766.9933232827</ele>
        <time>2000-05-11T13:19:47.992</time>
      </trkpt>
      <trkpt lat="42.54303" lon="2.0411">
        <ele>1767.7120822269</ele>
        <time>2000-05-11T13:19:48.992</time>
      </trkpt>
      <trkpt lat="42.54302" lon="2.04111">
        <ele>1768.2443013731</ele>
        <time>2000-05-11T13:19:49.994</time>
      </trkpt>
      <trkpt lat="42.54301" lon="2.04112">
        <ele>1768.5935930252</ele>
        <time>2000-05-11T13:19:50.994</time>
      </trkpt>
      <trkpt lat="42.543" lon="2.04112">
        <ele>1769.0187230812</ele>
        <time>2000-05-11T13:19:51.993</time>
      </trkpt>
      <trkpt lat="42.54299" lon="2.04112">
        <ele>1769.4168668211</ele>
        <time>2000-05-11T13:19:52.993</time>
      </trkpt>
      <trkpt lat="42.54298" lon="2.04113">
        <ele>1769.7369574744</ele>
        <time>2000-05-11T13:19:53.992</time>
      </trkpt>
      <trkpt lat="42.54298" lon="2.04113">
        <ele>1769.8658931095</ele>
        <time>2000-05-11T13:19:54.992</time>
      </trkpt>
      <trkpt lat="42.54298" lon="2.0411">
        <ele>1769.5017449232</ele>
        <time>2000-05-11T13:19:55.992</time>
      </trkpt>
      <trkpt lat="42.54298" lon="2.0411">
        <ele>1768.9460096935</ele>
        <time>2000-05-11T13:19:56.992</time>
      </trkpt>
      <trkpt lat="42.54298" lon="2.04113">
        <ele>1768.6240394929</ele>
        <time>2000-05-11T13:19:57.991</time>
      </trkpt>
      <trkpt lat="42.54299" lon="2.04113">
        <ele>1768.1646343024</ele>
        <time>2000-05-11T13:19:58.991</time>
      </trkpt>
      <trkpt lat="42.54298" lon="2.04113">
        <ele>1767.6522255378</ele>
        <time>2000-05-11T13:19:59.991</time>
      </trkpt>
      <trkpt lat="42.54297" lon="2.04114">
        <ele>1767.7404614016</ele>
        <time>2000-05-11T13:20:00.991</time>
      </trkpt>
      <trkpt lat="42.54296" lon="2.04113">
        <ele>1767.5074508136</ele>
        <time>2000-05-11T13:20:01.991</time>
      </trkpt>
      <trkpt lat="42.54295" lon="2.04113">
        <ele>1766.9352695623</ele>
        <time>2000-05-11T13:20:02.991</time>
      </trkpt>
      <trkpt lat="42.54295" lon="2.04113">
        <ele>1766.5785763875</ele>
        <time>2000-05-11T13:20:03.991</time>
      </trkpt>
      <trkpt lat="42.54295" lon="2.04113">
        <ele>1766.2748867868</ele>
        <time>2000-05-11T13:20:04.991</time>
      </trkpt>
      <trkpt lat="42.54292" lon="2.04113">
        <ele>1765.8660481181</ele>
        <time>2000-05-11T13:20:05.993</time>
      </trkpt>
      <trkpt lat="42.54291" lon="2.04112">
        <ele>1765.6527397003</ele>
        <time>2000-05-11T13:20:06.993</time>
      </trkpt>
      <trkpt lat="42.54289" lon="2.04112">
        <ele>1765.394756807</ele>
        <time>2000-05-11T13:20:07.993</time>
      </trkpt>
      <trkpt lat="42.54288" lon="2.04113">
        <ele>1765.0998894257</ele>
        <time>2000-05-11T13:20:08.993</time>
      </trkpt>
      <trkpt lat="42.54287" lon="2.04112">
        <ele>1764.6086955531</ele>
        <time>2000-05-11T13:20:09.993</time>
      </trkpt>
      <trkpt lat="42.54286" lon="2.04112">
        <ele>1763.9886973031</ele>
        <time>2000-05-11T13:20:10.993</time>
      </trkpt>
      <trkpt lat="42.54285" lon="2.04111">
        <ele>1763.3719008153</ele>
        <time>2000-05-11T13:20:11.993</time>
      </trkpt>
      <trkpt lat="42.54283" lon="2.04111">
        <ele>1762.7379611032</ele>
        <time>2000-05-11T13:20:12.993</time>
      </trkpt>
      <trkpt lat="42.54282" lon="2.04112">
        <ele>1762.3035151737</ele>
        <time>2000-05-11T13:20:13.993</time>
      </trkpt>
      <trkpt lat="42.54281" lon="2.04115">
        <ele>1762.6616594374</ele>
        <time>2000-05-11T13:20:14.993</time>
      </trkpt>
      <trkpt lat="42.54281" lon="2.04115">
        <ele>1763.2007308844</ele>
        <time>2000-05-11T13:20:15.993</time>
      </trkpt>
      <trkpt lat="42.54281" lon="2.04115">
        <ele>1763.8623167703</ele>
        <time>2000-05-11T13:20:16.993</time>
      </trkpt>
      <trkpt lat="42.54281" lon="2.04115">
        <ele>1764.6211897667</ele>
        <time>2000-05-11T13:20:17.993</time>
      </trkpt>
      <trkpt lat="42.54279" lon="2.04116">
        <ele>1765.1715510307</ele>
        <time>2000-05-11T13:20:18.991</time>
      </trkpt>
      <trkpt lat="42.54278" lon="2.04117">
        <ele>1765.3971339809</ele>
        <time>2000-05-11T13:20:19.991</time>
      </trkpt>
      <trkpt lat="42.54277" lon="2.04117">
        <ele>1765.4839811737</ele>
        <time>2000-05-11T13:20:20.991</time>
      </trkpt>
      <trkpt lat="42.54275" lon="2.04117">
        <ele>1765.5115132807</ele>
        <time>2000-05-11T13:20:21.991</time>
      </trkpt>
      <trkpt lat="42.54274" lon="2.04117">
        <ele>1765.4905587053</ele>
        <time>2000-05-11T13:20:22.991</time>
      </trkpt>
      <trkpt lat="42.54274" lon="2.04117">
        <ele>1765.5155065678</ele>
        <time>2000-05-11T13:20:23.991</time>
      </trkpt>
      <trkpt lat="42.54274" lon="2.04119">
        <ele>1765.1465880122</ele>
        <time>2000-05-11T13:20:24.991</time>
      </trkpt>
      <trkpt lat="42.54274" lon="2.0412">
        <ele>1764.9609175958</ele>
        <time>2000-05-11T13:20:25.991</time>
      </trkpt>
      <trkpt lat="42.54273" lon="2.04121">
        <ele>1764.7852193981</ele>
        <time>2000-05-11T13:20:26.991</time>
      </trkpt>
      <trkpt lat="42.54272" lon="2.0412">
        <ele>1764.3741301788</ele>
        <time>2000-05-11T13:20:27.992</time>
      </trkpt>
      <trkpt lat="42.54271" lon="2.04119">
        <ele>1763.8796297949</ele>
        <time>2000-05-11T13:20:28.992</time>
      </trkpt>
      <trkpt lat="42.5427" lon="2.04121">
        <ele>1763.7463699028</ele>
        <time>2000-05-11T13:20:29.993</time>
      </trkpt>
      <trkpt lat="42.5427" lon="2.04122">
        <ele>1763.7081512876</ele>
        <time>2000-05-11T13:20:30.993</time>
      </trkpt>
      <trkpt lat="42.5427" lon="2.04124">
        <ele>1763.786557118</ele>
        <time>2000-05-11T13:20:31.993</time>
      </trkpt>
      <trkpt lat="42.54271" lon="2.04125">
        <ele>1764.1477791477</ele>
        <time>2000-05-11T13:20:32.993</time>
      </trkpt>
      <trkpt lat="42.54271" lon="2.04125">
        <ele>1764.5924123419</ele>
        <time>2000-05-11T13:20:33.993</time>
      </trkpt>
      <trkpt lat="42.54269" lon="2.04126">
        <ele>1764.812068264</ele>
        <time>2000-05-11T13:20:34.993</time>
      </trkpt>
      <trkpt lat="42.54269" lon="2.04126">
        <ele>1764.8921705274</ele>
        <time>2000-05-11T13:20:35.993</time>
      </trkpt>
      <trkpt lat="42.54269" lon="2.04127">
        <ele>1764.7737654049</ele>
        <time>2000-05-11T13:20:36.993</time>
      </trkpt>
      <trkpt lat="42.54269" lon="2.04129">
        <ele>1764.958741184</ele>
        <time>2000-05-11T13:20:37.993</time>
      </trkpt>
      <trkpt lat="42.54268" lon="2.0413">
        <ele>1765.1928951763</ele>
        <time>2000-05-11T13:20:38.993</time>
      </trkpt>
      <trkpt lat="42.54268" lon="2.04132">
        <ele>1765.761028195</ele>
        <time>2000-05-11T13:20:39.993</time>
      </trkpt>
      <trkpt lat="42.54268" lon="2.04133">
        <ele>1766.5226408923</ele>
        <time>2000-05-11T13:20:40.993</time>
      </trkpt>
      <trkpt lat="42.54268" lon="2.04135">
        <ele>1767.4880709922</ele>
        <time>2000-05-11T13:20:41.993</time>
      </trkpt>
      <trkpt lat="42.54267" lon="2.04136">
        <ele>1768.208982582</ele>
        <time>2000-05-11T13:20:42.993</time>
      </trkpt>
      <trkpt lat="42.54266" lon="2.04136">
        <ele>1768.7978513459</ele>
        <time>2000-05-11T13:20:43.993</time>
      </trkpt>
      <trkpt lat="42.54266" lon="2.04137">
        <ele>1769.1769200021</ele>
        <time>2000-05-11T13:20:44.993</time>
      </trkpt>
      <trkpt lat="42.54266" lon="2.04137">
        <ele>1769.3625089798</ele>
        <time>2000-05-11T13:20:45.993</time>
      </trkpt>
      <trkpt lat="42.54265" lon="2.04137">
        <ele>1769.4444512019</ele>
        <time>2000-05-11T13:20:46.990</time>
      </trkpt>
      <trkpt lat="42.54263" lon="2.04138">
        <ele>1769.7744833047</ele>
        <time>2000-05-11T13:20:47.990</time>
      </trkpt>
      <trkpt lat="42.54259" lon="2.04137">
        <ele>1770.5003273044</ele>
        <time>2000-05-11T13:20:48.990</time>
      </trkpt>
      <trkpt lat="42.54258" lon="2.04137">
        <ele>1771.3827334074</ele>
        <time>2000-05-11T13:20:49.990</time>
      </trkpt>
      <trkpt lat="42.54258" lon="2.04137">
        <ele>1772.2651395105</ele>
        <time>2000-05-11T13:20:50.990</time>
      </trkpt>
      <trkpt lat="42.54257" lon="2.04138">
        <ele>1773.4593736615</ele>
        <time>2000-05-11T13:20:51.990</time>
      </trkpt>
      <trkpt lat="42.54256" lon="2.04142">
        <ele>1775.3776172437</ele>
        <time>2000-05-11T13:20:52.990</time>
      </trkpt>
      <trkpt lat="42.54255" lon="2.04143">
        <ele>1777.3660960345</ele>
        <time>2000-05-11T13:20:53.990</time>
      </trkpt>
      <trkpt lat="42.54255" lon="2.04143">
        <ele>1779.0599516135</ele>
        <time>2000-05-11T13:20:54.990</time>
      </trkpt>
      <trkpt lat="42.54255" lon="2.04143">
        <ele>1780.7538071925</ele>
        <time>2000-05-11T13:20:55.990</time>
      </trkpt>
      <trkpt lat="42.54255" lon="2.04143">
        <ele>1782.1668898838</ele>
        <time>2000-05-11T13:20:56.990</time>
      </trkpt>
      <trkpt lat="42.54255" lon="2.04144">
        <ele>1782.125099369</ele>
        <time>2000-05-11T13:20:57.990</time>
      </trkpt>
      <trkpt lat="42.54255" lon="2.04145">
        <ele>1781.2991973681</ele>
        <time>2000-05-11T13:20:58.990</time>
      </trkpt>
      <trkpt lat="42.54255" lon="2.04146">
        <ele>1780.2795605212</ele>
        <time>2000-05-11T13:20:59.990</time>
      </trkpt>
      <trkpt lat="42.54254" lon="2.04147">
        <ele>1779.2645314772</ele>
        <time>2000-05-11T13:21:00.990</time>
      </trkpt>
      <trkpt lat="42.54255" lon="2.04147">
        <ele>1778.3466502657</ele>
        <time>2000-05-11T13:21:01.990</time>
      </trkpt>
      <trkpt lat="42.54255" lon="2.04147">
        <ele>1777.8537420619</ele>
        <time>2000-05-11T13:21:02.990</time>
      </trkpt>
      <trkpt lat="42.54255" lon="2.0415">
        <ele>1777.432068971</ele>
        <time>2000-05-11T13:21:03.991</time>
      </trkpt>
      <trkpt lat="42.54254" lon="2.0415">
        <ele>1777.005949603</ele>
        <time>2000-05-11T13:21:04.991</time>
      </trkpt>
      <trkpt lat="42.54253" lon="2.04151">
        <ele>1776.5223498801</ele>
        <time>2000-05-11T13:21:05.991</time>
      </trkpt>
      <trkpt lat="42.54252" lon="2.04152">
        <ele>1776.0663941285</ele>
        <time>2000-05-11T13:21:06.991</time>
      </trkpt>
      <trkpt lat="42.54252" lon="2.04153">
        <ele>1775.6926138528</ele>
        <time>2000-05-11T13:21:07.991</time>
      </trkpt>
      <trkpt lat="42.54252" lon="2.04154">
        <ele>1775.3906698313</ele>
        <time>2000-05-11T13:21:08.991</time>
      </trkpt>
      <trkpt lat="42.54251" lon="2.04155">
        <ele>1775.2594473122</ele>
        <time>2000-05-11T13:21:09.991</time>
      </trkpt>
      <trkpt lat="42.54251" lon="2.04156">
        <ele>1775.1482898761</ele>
        <time>2000-05-11T13:21:10.991</time>
      </trkpt>
      <trkpt lat="42.54253" lon="2.04158">
        <ele>1774.74955485</ele>
        <time>2000-05-11T13:21:11.987</time>
      </trkpt>
      <trkpt lat="42.54254" lon="2.04159">
        <ele>1774.1681944434</ele>
        <time>2000-05-11T13:21:12.987</time>
      </trkpt>
      <trkpt lat="42.54254" lon="2.04162">
        <ele>1774.2622651281</ele>
        <time>2000-05-11T13:21:13.987</time>
      </trkpt>
      <trkpt lat="42.54254" lon="2.04162">
        <ele>1774.360506223</ele>
        <time>2000-05-11T13:21:14.987</time>
      </trkpt>
      <trkpt lat="42.54254" lon="2.04162">
        <ele>1774.5918935755</ele>
        <time>2000-05-11T13:21:15.987</time>
      </trkpt>
      <trkpt lat="42.54254" lon="2.04162">
        <ele>1774.9860667141</ele>
        <time>2000-05-11T13:21:16.987</time>
      </trkpt>
      <trkpt lat="42.54255" lon="2.04166">
        <ele>1775.2456778128</ele>
        <time>2000-05-11T13:21:17.985</time>
      </trkpt>
      <trkpt lat="42.54254" lon="2.04168">
        <ele>1775.0188989853</ele>
        <time>2000-05-11T13:21:18.985</time>
      </trkpt>
      <trkpt lat="42.54254" lon="2.0417">
        <ele>1774.7602743294</ele>
        <time>2000-05-11T13:21:19.985</time>
      </trkpt>
      <trkpt lat="42.54255" lon="2.04171">
        <ele>1774.3614955023</ele>
        <time>2000-05-11T13:21:20.985</time>
      </trkpt>
      <trkpt lat="42.54255" lon="2.04171">
        <ele>1773.9627166752</ele>
        <time>2000-05-11T13:21:21.985</time>
      </trkpt>
      <trkpt lat="42.54256" lon="2.04173">
        <ele>1773.721167301</ele>
        <time>2000-05-11T13:21:22.986</time>
      </trkpt>
      <trkpt lat="42.54256" lon="2.04173">
        <ele>1773.5484343877</ele>
        <time>2000-05-11T13:21:23.986</time>
      </trkpt>
      <trkpt lat="42.54256" lon="2.04174">
        <ele>1773.3327743249</ele>
        <time>2000-05-11T13:21:24.987</time>
      </trkpt>
      <trkpt lat="42.54257" lon="2.04175">
        <ele>1773.0975907799</ele>
        <time>2000-05-11T13:21:25.987</time>
      </trkpt>
      <trkpt lat="42.54257" lon="2.04176">
        <ele>1772.9225267794</ele>
        <time>2000-05-11T13:21:26.987</time>
      </trkpt>
      <trkpt lat="42.54258" lon="2.04178">
        <ele>1772.639143222</ele>
        <time>2000-05-11T13:21:27.989</time>
      </trkpt>
      <trkpt lat="42.54258" lon="2.04179">
        <ele>1772.407144252</ele>
        <time>2000-05-11T13:21:28.989</time>
      </trkpt>
      <trkpt lat="42.54257" lon="2.04183">
        <ele>1772.4687458763</ele>
        <time>2000-05-11T13:21:29.988</time>
      </trkpt>
      <trkpt lat="42.54257" lon="2.04185">
        <ele>1772.7965214545</ele>
        <time>2000-05-11T13:21:30.988</time>
      </trkpt>
      <trkpt lat="42.54258" lon="2.04187">
        <ele>1773.5896087168</ele>
        <time>2000-05-11T13:21:31.988</time>
      </trkpt>
      <trkpt lat="42.54258" lon="2.04189">
        <ele>1774.4596722785</ele>
        <time>2000-05-11T13:21:32.988</time>
      </trkpt>
      <trkpt lat="42.5426" lon="2.04189">
        <ele>1775.1775873572</ele>
        <time>2000-05-11T13:21:33.988</time>
      </trkpt>
      <trkpt lat="42.5426" lon="2.04189">
        <ele>1775.6999640301</ele>
        <time>2000-05-11T13:21:34.988</time>
      </trkpt>
      <trkpt lat="42.54259" lon="2.04191">
        <ele>1776.159200657</ele>
        <time>2000-05-11T13:21:35.988</time>
      </trkpt>
      <trkpt lat="42.54258" lon="2.04192">
        <ele>1776.15602092</ele>
        <time>2000-05-11T13:21:36.988</time>
      </trkpt>
      <trkpt lat="42.54258" lon="2.04194">
        <ele>1776.6184813909</ele>
        <time>2000-05-11T13:21:37.988</time>
      </trkpt>
      <trkpt lat="42.54257" lon="2.04196">
        <ele>1777.1278949754</ele>
        <time>2000-05-11T13:21:38.988</time>
      </trkpt>
      <trkpt lat="42.54257" lon="2.04197">
        <ele>1777.7834601723</ele>
        <time>2000-05-11T13:21:39.988</time>
      </trkpt>
      <trkpt lat="42.54258" lon="2.04199">
        <ele>1778.1655422943</ele>
        <time>2000-05-11T13:21:40.988</time>
      </trkpt>
      <trkpt lat="42.54258" lon="2.04201">
        <ele>1778.7519579016</ele>
        <time>2000-05-11T13:21:41.988</time>
      </trkpt>
      <trkpt lat="42.54258" lon="2.04201">
        <ele>1778.9818590499</ele>
        <time>2000-05-11T13:21:42.988</time>
      </trkpt>
      <trkpt lat="42.54258" lon="2.04201">
        <ele>1779.2655709805</ele>
        <time>2000-05-11T13:21:43.988</time>
      </trkpt>
      <trkpt lat="42.54258" lon="2.04202">
        <ele>1779.3093381889</ele>
        <time>2000-05-11T13:21:44.991</time>
      </trkpt>
      <trkpt lat="42.54258" lon="2.04202">
        <ele>1779.4828934291</ele>
        <time>2000-05-11T13:21:45.991</time>
      </trkpt>
      <trkpt lat="42.5426" lon="2.04205">
        <ele>1779.3948636083</ele>
        <time>2000-05-11T13:21:46.991</time>
      </trkpt>
      <trkpt lat="42.54261" lon="2.04206">
        <ele>1779.0167807348</ele>
        <time>2000-05-11T13:21:47.991</time>
      </trkpt>
      <trkpt lat="42.5426" lon="2.04207">
        <ele>1778.180775868</ele>
        <time>2000-05-11T13:21:48.990</time>
      </trkpt>
      <trkpt lat="42.54259" lon="2.04208">
        <ele>1777.243549921</ele>
        <time>2000-05-11T13:21:49.990</time>
      </trkpt>
      <trkpt lat="42.54258" lon="2.0421">
        <ele>1776.2231590474</ele>
        <time>2000-05-11T13:21:50.990</time>
      </trkpt>
      <trkpt lat="42.54258" lon="2.0421">
        <ele>1775.1970048849</ele>
        <time>2000-05-11T13:21:51.990</time>
      </trkpt>
      <trkpt lat="42.54257" lon="2.04211">
        <ele>1774.5191931829</ele>
        <time>2000-05-11T13:21:52.989</time>
      </trkpt>
      <trkpt lat="42.54257" lon="2.04212">
        <ele>1774.4735762954</ele>
        <time>2000-05-11T13:21:53.989</time>
      </trkpt>
      <trkpt lat="42.54257" lon="2.04214">
        <ele>1774.475217366</ele>
        <time>2000-05-11T13:21:54.989</time>
      </trkpt>
      <trkpt lat="42.54254" lon="2.04216">
        <ele>1774.2654199451</ele>
        <time>2000-05-11T13:21:55.989</time>
      </trkpt>
      <trkpt lat="42.54253" lon="2.04218">
        <ele>1773.7940438267</ele>
        <time>2000-05-11T13:21:56.989</time>
      </trkpt>
      <trkpt lat="42.54252" lon="2.04219">
        <ele>1773.1536592199</ele>
        <time>2000-05-11T13:21:57.989</time>
      </trkpt>
      <trkpt lat="42.54251" lon="2.0422">
        <ele>1772.1915091397</ele>
        <time>2000-05-11T13:21:58.989</time>
      </trkpt>
      <trkpt lat="42.5425" lon="2.04221">
        <ele>1771.5605560536</ele>
        <time>2000-05-11T13:21:59.989</time>
      </trkpt>
      <trkpt lat="42.5425" lon="2.04223">
        <ele>1771.3092445416</ele>
        <time>2000-05-11T13:22:00.989</time>
      </trkpt>
      <trkpt lat="42.5425" lon="2.04224">
        <ele>1771.4766832041</ele>
        <time>2000-05-11T13:22:01.989</time>
      </trkpt>
      <trkpt lat="42.5425" lon="2.04224">
        <ele>1771.7548409469</ele>
        <time>2000-05-11T13:22:02.989</time>
      </trkpt>
      <trkpt lat="42.5425" lon="2.04225">
        <ele>1772.3385607596</ele>
        <time>2000-05-11T13:22:03.989</time>
      </trkpt>
      <trkpt lat="42.5425" lon="2.04228">
        <ele>1772.7404434202</ele>
        <time>2000-05-11T13:22:04.990</time>
      </trkpt>
      <trkpt lat="42.5425" lon="2.04228">
        <ele>1773.0572879247</ele>
        <time>2000-05-11T13:22:05.990</time>
      </trkpt>
      <trkpt lat="42.5425" lon="2.04232">
        <ele>1773.5484254822</ele>
        <time>2000-05-11T13:22:06.987</time>
      </trkpt>
      <trkpt lat="42.5425" lon="2.04232">
        <ele>1774.0395630397</ele>
        <time>2000-05-11T13:22:07.987</time>
      </trkpt>
      <trkpt lat="42.54249" lon="2.04235">
        <ele>1774.5007497884</ele>
        <time>2000-05-11T13:22:08.987</time>
      </trkpt>
      <trkpt lat="42.54249" lon="2.04236">
        <ele>1774.8306337014</ele>
        <time>2000-05-11T13:22:09.987</time>
      </trkpt>
      <trkpt lat="42.54248" lon="2.04237">
        <ele>1775.3514725404</ele>
        <time>2000-05-11T13:22:10.989</time>
      </trkpt>
      <trkpt lat="42.54249" lon="2.04238">
        <ele>1775.5120143302</ele>
        <time>2000-05-11T13:22:11.989</time>
      </trkpt>
      <trkpt lat="42.54249" lon="2.0424">
        <ele>1775.62753597</ele>
        <time>2000-05-11T13:22:12.989</time>
      </trkpt>
      <trkpt lat="42.54248" lon="2.04241">
        <ele>1775.4817170102</ele>
        <time>2000-05-11T13:22:13.989</time>
      </trkpt>
      <trkpt lat="42.54247" lon="2.04242">
        <ele>1775.442236287</ele>
        <time>2000-05-11T13:22:14.989</time>
      </trkpt>
      <trkpt lat="42.54247" lon="2.04244">
        <ele>1775.1640457368</ele>
        <time>2000-05-11T13:22:15.989</time>
      </trkpt>
      <trkpt lat="42.54247" lon="2.04245">
        <ele>1774.8345288999</ele>
        <time>2000-05-11T13:22:16.989</time>
      </trkpt>
      <trkpt lat="42.54247" lon="2.04246">
        <ele>1774.4536813332</ele>
        <time>2000-05-11T13:22:17.989</time>
      </trkpt>
      <trkpt lat="42.54246" lon="2.04247">
        <ele>1774.1979131211</ele>
        <time>2000-05-11T13:22:18.989</time>
      </trkpt>
      <trkpt lat="42.54246" lon="2.04248">
        <ele>1773.7535801295</ele>
        <time>2000-05-11T13:22:19.989</time>
      </trkpt>
      <trkpt lat="42.54246" lon="2.04249">
        <ele>1773.3554393759</ele>
        <time>2000-05-11T13:22:20.989</time>
      </trkpt>
      <trkpt lat="42.54244" lon="2.04251">
        <ele>1773.1642602663</ele>
        <time>2000-05-11T13:22:21.989</time>
      </trkpt>
      <trkpt lat="42.54244" lon="2.04251">
        <ele>1773.0694320368</ele>
        <time>2000-05-11T13:22:22.989</time>
      </trkpt>
      <trkpt lat="42.54245" lon="2.04252">
        <ele>1772.98208698</ele>
        <time>2000-05-11T13:22:23.988</time>
      </trkpt>
      <trkpt lat="42.54246" lon="2.04254">
        <ele>1772.7258396592</ele>
        <time>2000-05-11T13:22:24.988</time>
      </trkpt>
      <trkpt lat="42.54246" lon="2.04256">
        <ele>1772.4002175717</ele>
        <time>2000-05-11T13:22:25.988</time>
      </trkpt>
      <trkpt lat="42.54244" lon="2.04257">
        <ele>1771.8490170794</ele>
        <time>2000-05-11T13:22:26.988</time>
      </trkpt>
      <trkpt lat="42.54243" lon="2.04257">
        <ele>1771.4211949456</ele>
        <time>2000-05-11T13:22:27.988</time>
      </trkpt>
      <trkpt lat="42.54242" lon="2.04257">
        <ele>1771.1009393694</ele>
        <time>2000-05-11T13:22:28.988</time>
      </trkpt>
      <trkpt lat="42.54242" lon="2.04257">
        <ele>1771.1615118258</ele>
        <time>2000-05-11T13:22:29.988</time>
      </trkpt>
      <trkpt lat="42.54242" lon="2.04257">
        <ele>1771.2930217119</ele>
        <time>2000-05-11T13:22:30.988</time>
      </trkpt>
      <trkpt lat="42.54242" lon="2.04259">
        <ele>1771.3788847266</ele>
        <time>2000-05-11T13:22:31.987</time>
      </trkpt>
      <trkpt lat="42.54243" lon="2.0426">
        <ele>1771.3726211332</ele>
        <time>2000-05-11T13:22:32.987</time>
      </trkpt>
      <trkpt lat="42.54243" lon="2.04261">
        <ele>1771.4901602348</ele>
        <time>2000-05-11T13:22:33.986</time>
      </trkpt>
      <trkpt lat="42.54244" lon="2.04263">
        <ele>1771.3986423915</ele>
        <time>2000-05-11T13:22:34.986</time>
      </trkpt>
      <trkpt lat="42.54244" lon="2.04264">
        <ele>1771.1555982474</ele>
        <time>2000-05-11T13:22:35.986</time>
      </trkpt>
      <trkpt lat="42.54244" lon="2.04266">
        <ele>1770.9861725144</ele>
        <time>2000-05-11T13:22:36.986</time>
      </trkpt>
      <trkpt lat="42.54244" lon="2.04267">
        <ele>1770.9437792346</ele>
        <time>2000-05-11T13:22:37.986</time>
      </trkpt>
      <trkpt lat="42.54244" lon="2.04267">
        <ele>1770.6706761654</ele>
        <time>2000-05-11T13:22:38.986</time>
      </trkpt>
      <trkpt lat="42.54243" lon="2.04268">
        <ele>1770.7010906337</ele>
        <time>2000-05-11T13:22:39.986</time>
      </trkpt>
      <trkpt lat="42.54243" lon="2.04269">
        <ele>1770.9689742476</ele>
        <time>2000-05-11T13:22:40.986</time>
      </trkpt>
      <trkpt lat="42.54243" lon="2.04271">
        <ele>1771.2776123267</ele>
        <time>2000-05-11T13:22:41.986</time>
      </trkpt>
      <trkpt lat="42.54243" lon="2.0427">
        <ele>1771.0082397578</ele>
        <time>2000-05-11T13:22:42.986</time>
      </trkpt>
      <trkpt lat="42.54242" lon="2.0427">
        <ele>1770.7924699947</ele>
        <time>2000-05-11T13:22:43.986</time>
      </trkpt>
      <trkpt lat="42.54242" lon="2.04271">
        <ele>1770.4815097792</ele>
        <time>2000-05-11T13:22:44.988</time>
      </trkpt>
      <trkpt lat="42.54242" lon="2.04271">
        <ele>1770.0846067188</ele>
        <time>2000-05-11T13:22:45.988</time>
      </trkpt>
      <trkpt lat="42.54241" lon="2.04271">
        <ele>1769.1940530427</ele>
        <time>2000-05-11T13:22:46.986</time>
      </trkpt>
      <trkpt lat="42.54241" lon="2.04272">
        <ele>1768.518711932</ele>
        <time>2000-05-11T13:22:47.986</time>
      </trkpt>
      <trkpt lat="42.54241" lon="2.04274">
        <ele>1768.4290517656</ele>
        <time>2000-05-11T13:22:48.989</time>
      </trkpt>
      <trkpt lat="42.54241" lon="2.04274">
        <ele>1768.3401214592</ele>
        <time>2000-05-11T13:22:49.989</time>
      </trkpt>
      <trkpt lat="42.54241" lon="2.04275">
        <ele>1768.5344914038</ele>
        <time>2000-05-11T13:22:50.990</time>
      </trkpt>
      <trkpt lat="42.54239" lon="2.04276">
        <ele>1769.0416055972</ele>
        <time>2000-05-11T13:22:51.990</time>
      </trkpt>
      <trkpt lat="42.54238" lon="2.04278">
        <ele>1769.5235988319</ele>
        <time>2000-05-11T13:22:52.990</time>
      </trkpt>
      <trkpt lat="42.54238" lon="2.04279">
        <ele>1769.3626585796</ele>
        <time>2000-05-11T13:22:53.990</time>
      </trkpt>
      <trkpt lat="42.54238" lon="2.04279">
        <ele>1769.2017183274</ele>
        <time>2000-05-11T13:22:54.990</time>
      </trkpt>
      <trkpt lat="42.54238" lon="2.04279">
        <ele>1768.7574778242</ele>
        <time>2000-05-11T13:22:55.990</time>
      </trkpt>
      <trkpt lat="42.54237" lon="2.04279">
        <ele>1768.6977195105</ele>
        <time>2000-05-11T13:22:56.991</time>
      </trkpt>
      <trkpt lat="42.54237" lon="2.04279">
        <ele>1768.8675960341</ele>
        <time>2000-05-11T13:22:57.991</time>
      </trkpt>
      <trkpt lat="42.54237" lon="2.04281">
        <ele>1769.0443821231</ele>
        <time>2000-05-11T13:22:58.997</time>
      </trkpt>
      <trkpt lat="42.54238" lon="2.04283">
        <ele>1769.1625303304</ele>
        <time>2000-05-11T13:22:59.997</time>
      </trkpt>
      <trkpt lat="42.54238" lon="2.04285">
        <ele>1769.1890935952</ele>
        <time>2000-05-11T13:23:00.997</time>
      </trkpt>
      <trkpt lat="42.54238" lon="2.04286">
        <ele>1768.9119257573</ele>
        <time>2000-05-11T13:23:01.997</time>
      </trkpt>
      <trkpt lat="42.54238" lon="2.04286">
        <ele>1768.6347579194</ele>
        <time>2000-05-11T13:23:02.997</time>
      </trkpt>
      <trkpt lat="42.54238" lon="2.04286">
        <ele>1768.3543302532</ele>
        <time>2000-05-11T13:23:03.997</time>
      </trkpt>
      <trkpt lat="42.54238" lon="2.04288">
        <ele>1768.1411270209</ele>
        <time>2000-05-11T13:23:04.997</time>
      </trkpt>
      <trkpt lat="42.54238" lon="2.04288">
        <ele>1768.019508731</ele>
        <time>2000-05-11T13:23:05.997</time>
      </trkpt>
      <trkpt lat="42.54239" lon="2.04291">
        <ele>1768.4984894944</ele>
        <time>2000-05-11T13:23:06.999</time>
      </trkpt>
      <trkpt lat="42.54239" lon="2.04291">
        <ele>1768.9774702579</ele>
        <time>2000-05-11T13:23:07.999</time>
      </trkpt>
      <trkpt lat="42.54238" lon="2.04294">
        <ele>1770.184679682</ele>
        <time>2000-05-11T13:23:08.997</time>
      </trkpt>
      <trkpt lat="42.54237" lon="2.04295">
        <ele>1771.1754437808</ele>
        <time>2000-05-11T13:23:09.997</time>
      </trkpt>
      <trkpt lat="42.54236" lon="2.04295">
        <ele>1772.2976099839</ele>
        <time>2000-05-11T13:23:10.997</time>
      </trkpt>
      <trkpt lat="42.54236" lon="2.04295">
        <ele>1772.9493819758</ele>
        <time>2000-05-11T13:23:11.997</time>
      </trkpt>
      <trkpt lat="42.54235" lon="2.04297">
        <ele>1773.7772075644</ele>
        <time>2000-05-11T13:23:13</time>
      </trkpt>
      <trkpt lat="42.54235" lon="2.04297">
        <ele>1773.8768044923</ele>
        <time>2000-05-11T13:23:14</time>
      </trkpt>
      <trkpt lat="42.54236" lon="2.04299">
        <ele>1774.182642564</ele>
        <time>2000-05-11T13:23:14.999</time>
      </trkpt>
      <trkpt lat="42.54237" lon="2.04301">
        <ele>1774.4944311235</ele>
        <time>2000-05-11T13:23:15.999</time>
      </trkpt>
      <trkpt lat="42.54236" lon="2.04303">
        <ele>1774.9844901036</ele>
        <time>2000-05-11T13:23:16.999</time>
      </trkpt>
      <trkpt lat="42.54236" lon="2.04305">
        <ele>1775.450034287</ele>
        <time>2000-05-11T13:23:17.999</time>
      </trkpt>
      <trkpt lat="42.54235" lon="2.04306">
        <ele>1775.8541049711</ele>
        <time>2000-05-11T13:23:18.999</time>
      </trkpt>
      <trkpt lat="42.54235" lon="2.04307">
        <ele>1776.1410399402</ele>
        <time>2000-05-11T13:23:19.999</time>
      </trkpt>
      <trkpt lat="42.54235" lon="2.04308">
        <ele>1776.4258603161</ele>
        <time>2000-05-11T13:23:20.999</time>
      </trkpt>
      <trkpt lat="42.54235" lon="2.0431">
        <ele>1776.7367978752</ele>
        <time>2000-05-11T13:23:21.999</time>
      </trkpt>
      <trkpt lat="42.54235" lon="2.04311">
        <ele>1776.9977806743</ele>
        <time>2000-05-11T13:23:22.999</time>
      </trkpt>
      <trkpt lat="42.54235" lon="2.04313">
        <ele>1777.1698220227</ele>
        <time>2000-05-11T13:23:23.999</time>
      </trkpt>
      <trkpt lat="42.54235" lon="2.04314">
        <ele>1777.0838888383</ele>
        <time>2000-05-11T13:23:24.999</time>
      </trkpt>
      <trkpt lat="42.54235" lon="2.04314">
        <ele>1776.8627176547</ele>
        <time>2000-05-11T13:23:25.999</time>
      </trkpt>
      <trkpt lat="42.54234" lon="2.04315">
        <ele>1776.2302623203</ele>
        <time>2000-05-11T13:23:26.999</time>
      </trkpt>
      <trkpt lat="42.54233" lon="2.04316">
        <ele>1775.4122442603</ele>
        <time>2000-05-11T13:23:27.999</time>
      </trkpt>
      <trkpt lat="42.54234" lon="2.04317">
        <ele>1774.9000565015</ele>
        <time>2000-05-11T13:23:28.999</time>
      </trkpt>
      <trkpt lat="42.54234" lon="2.04317">
        <ele>1774.7645966198</ele>
        <time>2000-05-11T13:23:29.999</time>
      </trkpt>
      <trkpt lat="42.54234" lon="2.04318">
        <ele>1774.5218086924</ele>
        <time>2000-05-11T13:23:30.997</time>
      </trkpt>
      <trkpt lat="42.54234" lon="2.04318">
        <ele>1774.4859173123</ele>
        <time>2000-05-11T13:23:31.997</time>
      </trkpt>
      <trkpt lat="42.54234" lon="2.0432">
        <ele>1774.3933591967</ele>
        <time>2000-05-11T13:23:32.998</time>
      </trkpt>
      <trkpt lat="42.54232" lon="2.04322">
        <ele>1773.821240465</ele>
        <time>2000-05-11T13:23:33.998</time>
      </trkpt>
      <trkpt lat="42.54232" lon="2.04324">
        <ele>1773.2525754984</ele>
        <time>2000-05-11T13:23:34.998</time>
      </trkpt>
      <trkpt lat="42.54232" lon="2.04326">
        <ele>1773.1790430076</ele>
        <time>2000-05-11T13:23:35.998</time>
      </trkpt>
      <trkpt lat="42.54232" lon="2.04326">
        <ele>1773.1055105168</ele>
        <time>2000-05-11T13:23:36.998</time>
      </trkpt>
      <trkpt lat="42.54232" lon="2.04328">
        <ele>1773.315643419</ele>
        <time>2000-05-11T13:23:37.998</time>
      </trkpt>
      <trkpt lat="42.5423" lon="2.04329">
        <ele>1773.6015058652</ele>
        <time>2000-05-11T13:23:38.998</time>
      </trkpt>
      <trkpt lat="42.5423" lon="2.04329">
        <ele>1773.8839145461</ele>
        <time>2000-05-11T13:23:39.998</time>
      </trkpt>
      <trkpt lat="42.54229" lon="2.0433">
        <ele>1773.658354664</ele>
        <time>2000-05-11T13:23:40.998</time>
      </trkpt>
      <trkpt lat="42.54229" lon="2.04331">
        <ele>1773.6018768033</ele>
        <time>2000-05-11T13:23:41.998</time>
      </trkpt>
      <trkpt lat="42.54228" lon="2.04333">
        <ele>1773.6651852868</ele>
        <time>2000-05-11T13:23:42.998</time>
      </trkpt>
      <trkpt lat="42.54227" lon="2.04334">
        <ele>1774.3429673057</ele>
        <time>2000-05-11T13:23:43.998</time>
      </trkpt>
      <trkpt lat="42.54226" lon="2.04334">
        <ele>1775.0728802355</ele>
        <time>2000-05-11T13:23:44.998</time>
      </trkpt>
      <trkpt lat="42.54226" lon="2.04334">
        <ele>1775.9229572983</ele>
        <time>2000-05-11T13:23:45.998</time>
      </trkpt>
      <trkpt lat="42.54224" lon="2.04336">
        <ele>1776.4241695786</ele>
        <time>2000-05-11T13:23:46.998</time>
      </trkpt>
      <trkpt lat="42.54224" lon="2.04336">
        <ele>1776.6625755426</ele>
        <time>2000-05-11T13:23:47.998</time>
      </trkpt>
      <trkpt lat="42.54224" lon="2.04337">
        <ele>1776.4857852688</ele>
        <time>2000-05-11T13:23:48.999</time>
      </trkpt>
      <trkpt lat="42.54225" lon="2.04338">
        <ele>1775.9893974248</ele>
        <time>2000-05-11T13:23:49.999</time>
      </trkpt>
      <trkpt lat="42.54224" lon="2.0434">
        <ele>1775.3056986809</ele>
        <time>2000-05-11T13:23:50.999</time>
      </trkpt>
      <trkpt lat="42.54223" lon="2.04341">
        <ele>1774.7063081248</ele>
        <time>2000-05-11T13:23:51.999</time>
      </trkpt>
      <trkpt lat="42.54222" lon="2.04343">
        <ele>1774.0995661346</ele>
        <time>2000-05-11T13:23:52.999</time>
      </trkpt>
      <trkpt lat="42.54221" lon="2.04345">
        <ele>1773.5490502806</ele>
        <time>2000-05-11T13:23:53.999</time>
      </trkpt>
      <trkpt lat="42.54222" lon="2.04346">
        <ele>1773.3727819663</ele>
        <time>2000-05-11T13:23:54.999</time>
      </trkpt>
      <trkpt lat="42.54222" lon="2.04347">
        <ele>1773.4068895873</ele>
        <time>2000-05-11T13:23:55.999</time>
      </trkpt>
      <trkpt lat="42.54222" lon="2.04349">
        <ele>1773.4705564551</ele>
        <time>2000-05-11T13:23:56.999</time>
      </trkpt>
      <trkpt lat="42.54221" lon="2.0435">
        <ele>1773.4069196813</ele>
        <time>2000-05-11T13:23:57.999</time>
      </trkpt>
      <trkpt lat="42.54221" lon="2.04352">
        <ele>1773.292524836</ele>
        <time>2000-05-11T13:23:58.999</time>
      </trkpt>
      <trkpt lat="42.5422" lon="2.04354">
        <ele>1773.1137405338</ele>
        <time>2000-05-11T13:23:59.999</time>
      </trkpt>
      <trkpt lat="42.54219" lon="2.04355">
        <ele>1773.2400770601</ele>
        <time>2000-05-11T13:24:00.999</time>
      </trkpt>
      <trkpt lat="42.54218" lon="2.04356">
        <ele>1773.6692742033</ele>
        <time>2000-05-11T13:24:01.999</time>
      </trkpt>
      <trkpt lat="42.54217" lon="2.04357">
        <ele>1774.1246902045</ele>
        <time>2000-05-11T13:24:02.999</time>
      </trkpt>
      <trkpt lat="42.54217" lon="2.04358">
        <ele>1774.6862749666</ele>
        <time>2000-05-11T13:24:03.999</time>
      </trkpt>
      <trkpt lat="42.54216" lon="2.04359">
        <ele>1775.0215997471</ele>
        <time>2000-05-11T13:24:04.999</time>
      </trkpt>
      <trkpt lat="42.54215" lon="2.0436">
        <ele>1775.0070127655</ele>
        <time>2000-05-11T13:24:05.999</time>
      </trkpt>
      <trkpt lat="42.54215" lon="2.0436">
        <ele>1774.7554804936</ele>
        <time>2000-05-11T13:24:06.999</time>
      </trkpt>
      <trkpt lat="42.54215" lon="2.0436">
        <ele>1774.6123844394</ele>
        <time>2000-05-11T13:24:07.999</time>
      </trkpt>
      <trkpt lat="42.54215" lon="2.04361">
        <ele>1774.2941398896</ele>
        <time>2000-05-11T13:24:08.999</time>
      </trkpt>
      <trkpt lat="42.54214" lon="2.04363">
        <ele>1774.1107844329</ele>
        <time>2000-05-11T13:24:09.999</time>
      </trkpt>
      <trkpt lat="42.54214" lon="2.04365">
        <ele>1773.813952329</ele>
        <time>2000-05-11T13:24:10.999</time>
      </trkpt>
      <trkpt lat="42.54214" lon="2.04365">
        <ele>1773.5171202252</ele>
        <time>2000-05-11T13:24:11.999</time>
      </trkpt>
      <trkpt lat="42.54214" lon="2.04366">
        <ele>1773.1352744265</ele>
        <time>2000-05-11T13:24:12.999</time>
      </trkpt>
      <trkpt lat="42.54213" lon="2.04367">
        <ele>1772.8544144168</ele>
        <time>2000-05-11T13:24:13.999</time>
      </trkpt>
      <trkpt lat="42.54213" lon="2.04368">
        <ele>1772.6824381171</ele>
        <time>2000-05-11T13:24:14.999</time>
      </trkpt>
      <trkpt lat="42.54212" lon="2.04369">
        <ele>1772.4025633113</ele>
        <time>2000-05-11T13:24:15.998</time>
      </trkpt>
      <trkpt lat="42.54212" lon="2.0437">
        <ele>1771.9929394841</ele>
        <time>2000-05-11T13:24:16.998</time>
      </trkpt>
      <trkpt lat="42.54211" lon="2.04371">
        <ele>1771.5563440202</ele>
        <time>2000-05-11T13:24:17.998</time>
      </trkpt>
      <trkpt lat="42.54211" lon="2.04372">
        <ele>1771.1340433504</ele>
        <time>2000-05-11T13:24:18.999</time>
      </trkpt>
      <trkpt lat="42.5421" lon="2.04372">
        <ele>1770.6147733895</ele>
        <time>2000-05-11T13:24:19.999</time>
      </trkpt>
      <trkpt lat="42.54209" lon="2.04373">
        <ele>1770.0534855014</ele>
        <time>2000-05-11T13:24:21</time>
      </trkpt>
      <trkpt lat="42.54208" lon="2.04374">
        <ele>1769.4464037718</ele>
        <time>2000-05-11T13:24:22</time>
      </trkpt>
      <trkpt lat="42.54206" lon="2.04374">
        <ele>1768.8990493864</ele>
        <time>2000-05-11T13:24:23</time>
      </trkpt>
      <trkpt lat="42.54205" lon="2.04375">
        <ele>1768.3152310533</ele>
        <time>2000-05-11T13:24:24</time>
      </trkpt>
      <trkpt lat="42.54204" lon="2.04375">
        <ele>1767.7381340185</ele>
        <time>2000-05-11T13:24:25</time>
      </trkpt>
      <trkpt lat="42.54202" lon="2.04375">
        <ele>1767.6662778022</ele>
        <time>2000-05-11T13:24:26</time>
      </trkpt>
      <trkpt lat="42.54202" lon="2.04375">
        <ele>1767.7699644487</ele>
        <time>2000-05-11T13:24:27</time>
      </trkpt>
      <trkpt lat="42.54203" lon="2.04377">
        <ele>1768.2239114277</ele>
        <time>2000-05-11T13:24:28</time>
      </trkpt>
      <trkpt lat="42.54203" lon="2.04377">
        <ele>1768.7116918644</ele>
        <time>2000-05-11T13:24:29</time>
      </trkpt>
      <trkpt lat="42.54202" lon="2.04378">
        <ele>1768.708387286</ele>
        <time>2000-05-11T13:24:30.1</time>
      </trkpt>
      <trkpt lat="42.54202" lon="2.04378">
        <ele>1768.4849608675</ele>
        <time>2000-05-11T13:24:31.1</time>
      </trkpt>
      <trkpt lat="42.54202" lon="2.04379">
        <ele>1768.3028331235</ele>
        <time>2000-05-11T13:24:32.3</time>
      </trkpt>
      <trkpt lat="42.54202" lon="2.04379">
        <ele>1767.8227030346</ele>
        <time>2000-05-11T13:24:33.3</time>
      </trkpt>
      <trkpt lat="42.54201" lon="2.0438">
        <ele>1767.2095022978</ele>
        <time>2000-05-11T13:24:34.2</time>
      </trkpt>
      <trkpt lat="42.54201" lon="2.04381">
        <ele>1766.9841561848</ele>
        <time>2000-05-11T13:24:35.2</time>
      </trkpt>
      <trkpt lat="42.54201" lon="2.04383">
        <ele>1766.8235034918</ele>
        <time>2000-05-11T13:24:36</time>
      </trkpt>
      <trkpt lat="42.54201" lon="2.04384">
        <ele>1766.4566497322</ele>
        <time>2000-05-11T13:24:37</time>
      </trkpt>
      <trkpt lat="42.54201" lon="2.04384">
        <ele>1766.2838838952</ele>
        <time>2000-05-11T13:24:38</time>
      </trkpt>
      <trkpt lat="42.54201" lon="2.04386">
        <ele>1766.2975082334</ele>
        <time>2000-05-11T13:24:39</time>
      </trkpt>
      <trkpt lat="42.54201" lon="2.04386">
        <ele>1766.4447067114</ele>
        <time>2000-05-11T13:24:40</time>
      </trkpt>
      <trkpt lat="42.542" lon="2.04387">
        <ele>1766.7472485414</ele>
        <time>2000-05-11T13:24:41</time>
      </trkpt>
      <trkpt lat="42.542" lon="2.04389">
        <ele>1767.4065307917</ele>
        <time>2000-05-11T13:24:42</time>
      </trkpt>
      <trkpt lat="42.542" lon="2.0439">
        <ele>1767.8629343323</ele>
        <time>2000-05-11T13:24:43</time>
      </trkpt>
      <trkpt lat="42.54199" lon="2.04391">
        <ele>1768.4126558933</ele>
        <time>2000-05-11T13:24:44</time>
      </trkpt>
      <trkpt lat="42.54199" lon="2.04394">
        <ele>1768.9779318547</ele>
        <time>2000-05-11T13:24:44.998</time>
      </trkpt>
      <trkpt lat="42.54199" lon="2.04394">
        <ele>1769.323171044</ele>
        <time>2000-05-11T13:24:45.998</time>
      </trkpt>
      <trkpt lat="42.54198" lon="2.04395">
        <ele>1770.1191613544</ele>
        <time>2000-05-11T13:24:46.998</time>
      </trkpt>
      <trkpt lat="42.54197" lon="2.04395">
        <ele>1770.8839780638</ele>
        <time>2000-05-11T13:24:47.998</time>
      </trkpt>
      <trkpt lat="42.54196" lon="2.04396">
        <ele>1771.7977616722</ele>
        <time>2000-05-11T13:24:48.998</time>
      </trkpt>
      <trkpt lat="42.54195" lon="2.04397">
        <ele>1772.8057141349</ele>
        <time>2000-05-11T13:24:49.998</time>
      </trkpt>
      <trkpt lat="42.54194" lon="2.04398">
        <ele>1773.7923955854</ele>
        <time>2000-05-11T13:24:50.998</time>
      </trkpt>
      <trkpt lat="42.54193" lon="2.04401">
        <ele>1774.3610703034</ele>
        <time>2000-05-11T13:24:51.998</time>
      </trkpt>
      <trkpt lat="42.54193" lon="2.04403">
        <ele>1775.0732503533</ele>
        <time>2000-05-11T13:24:52.998</time>
      </trkpt>
      <trkpt lat="42.54193" lon="2.04404">
        <ele>1775.4244856834</ele>
        <time>2000-05-11T13:24:53.998</time>
      </trkpt>
      <trkpt lat="42.54193" lon="2.04404">
        <ele>1775.6659977589</ele>
        <time>2000-05-11T13:24:54.998</time>
      </trkpt>
      <trkpt lat="42.54193" lon="2.04404">
        <ele>1775.9287808465</ele>
        <time>2000-05-11T13:24:55.998</time>
      </trkpt>
      <trkpt lat="42.54192" lon="2.04405">
        <ele>1776.0619785434</ele>
        <time>2000-05-11T13:24:56.998</time>
      </trkpt>
      <trkpt lat="42.54192" lon="2.04405">
        <ele>1776.0916352965</ele>
        <time>2000-05-11T13:24:57.998</time>
      </trkpt>
      <trkpt lat="42.5419" lon="2.04406">
        <ele>1776.4495758593</ele>
        <time>2000-05-11T13:24:58.996</time>
      </trkpt>
      <trkpt lat="42.5419" lon="2.04407">
        <ele>1776.774131491</ele>
        <time>2000-05-11T13:24:59.996</time>
      </trkpt>
      <trkpt lat="42.54189" lon="2.04409">
        <ele>1776.9703416606</ele>
        <time>2000-05-11T13:25:00.996</time>
      </trkpt>
      <trkpt lat="42.54188" lon="2.04411">
        <ele>1776.9863160893</ele>
        <time>2000-05-11T13:25:01.996</time>
      </trkpt>
      <trkpt lat="42.54188" lon="2.04411">
        <ele>1777.002290518</ele>
        <time>2000-05-11T13:25:02.996</time>
      </trkpt>
      <trkpt lat="42.54188" lon="2.04411">
        <ele>1776.7553214101</ele>
        <time>2000-05-11T13:25:03.996</time>
      </trkpt>
      <trkpt lat="42.54188" lon="2.04411">
        <ele>1776.4418818394</ele>
        <time>2000-05-11T13:25:04.996</time>
      </trkpt>
      <trkpt lat="42.54187" lon="2.04411">
        <ele>1776.1420428758</ele>
        <time>2000-05-11T13:25:05.996</time>
      </trkpt>
      <trkpt lat="42.54186" lon="2.04411">
        <ele>1775.9500988469</ele>
        <time>2000-05-11T13:25:06.995</time>
      </trkpt>
      <trkpt lat="42.54184" lon="2.04411">
        <ele>1775.9501068104</ele>
        <time>2000-05-11T13:25:07.995</time>
      </trkpt>
      <trkpt lat="42.54184" lon="2.04412">
        <ele>1776.0255884193</ele>
        <time>2000-05-11T13:25:08.996</time>
      </trkpt>
      <trkpt lat="42.54184" lon="2.04412">
        <ele>1776.2009254221</ele>
        <time>2000-05-11T13:25:09.996</time>
      </trkpt>
      <trkpt lat="42.54183" lon="2.04413">
        <ele>1776.5643639781</ele>
        <time>2000-05-11T13:25:10.997</time>
      </trkpt>
      <trkpt lat="42.54183" lon="2.04415">
        <ele>1776.8948573275</ele>
        <time>2000-05-11T13:25:11.997</time>
      </trkpt>
      <trkpt lat="42.54182" lon="2.04416">
        <ele>1776.9930215018</ele>
        <time>2000-05-11T13:25:12.997</time>
      </trkpt>
      <trkpt lat="42.5418" lon="2.04415">
        <ele>1777.6022967199</ele>
        <time>2000-05-11T13:25:13.997</time>
      </trkpt>
      <trkpt lat="42.5418" lon="2.04415">
        <ele>1778.211571938</ele>
        <time>2000-05-11T13:25:14.997</time>
      </trkpt>
      <trkpt lat="42.5418" lon="2.04415">
        <ele>1778.7474904578</ele>
        <time>2000-05-11T13:25:15.997</time>
      </trkpt>
      <trkpt lat="42.54179" lon="2.04416">
        <ele>1779.1054555358</ele>
        <time>2000-05-11T13:25:16.997</time>
      </trkpt>
      <trkpt lat="42.54178" lon="2.04417">
        <ele>1779.3579889979</ele>
        <time>2000-05-11T13:25:17.997</time>
      </trkpt>
      <trkpt lat="42.54177" lon="2.04417">
        <ele>1778.7866268124</ele>
        <time>2000-05-11T13:25:18.997</time>
      </trkpt>
      <trkpt lat="42.54177" lon="2.04417">
        <ele>1778.215264627</ele>
        <time>2000-05-11T13:25:19.997</time>
      </trkpt>
      <trkpt lat="42.54177" lon="2.04419">
        <ele>1777.5302094508</ele>
        <time>2000-05-11T13:25:20.997</time>
      </trkpt>
      <trkpt lat="42.54176" lon="2.04419">
        <ele>1776.9074058542</ele>
        <time>2000-05-11T13:25:21.999</time>
      </trkpt>
      <trkpt lat="42.54175" lon="2.04421">
        <ele>1776.2881199051</ele>
        <time>2000-05-11T13:25:22.999</time>
      </trkpt>
      <trkpt lat="42.54174" lon="2.04423">
        <ele>1775.8126926832</ele>
        <time>2000-05-11T13:25:23.999</time>
      </trkpt>
      <trkpt lat="42.54174" lon="2.04424">
        <ele>1775.1830980768</ele>
        <time>2000-05-11T13:25:24.999</time>
      </trkpt>
      <trkpt lat="42.54173" lon="2.04425">
        <ele>1774.6323395697</ele>
        <time>2000-05-11T13:25:25.999</time>
      </trkpt>
      <trkpt lat="42.54172" lon="2.04425">
        <ele>1774.1217853233</ele>
        <time>2000-05-11T13:25:26.999</time>
      </trkpt>
      <trkpt lat="42.54171" lon="2.04425">
        <ele>1773.6122197188</ele>
        <time>2000-05-11T13:25:27.999</time>
      </trkpt>
      <trkpt lat="42.54171" lon="2.04425">
        <ele>1773.1961063456</ele>
        <time>2000-05-11T13:25:28.999</time>
      </trkpt>
      <trkpt lat="42.54171" lon="2.04426">
        <ele>1773.4282243932</ele>
        <time>2000-05-11T13:25:29.999</time>
      </trkpt>
      <trkpt lat="42.54171" lon="2.04426">
        <ele>1773.6951993322</ele>
        <time>2000-05-11T13:25:30.999</time>
      </trkpt>
      <trkpt lat="42.54171" lon="2.04424">
        <ele>1773.4851293206</ele>
        <time>2000-05-11T13:25:31.998</time>
      </trkpt>
      <trkpt lat="42.54171" lon="2.04424">
        <ele>1773.4163618181</ele>
        <time>2000-05-11T13:25:32.998</time>
      </trkpt>
      <trkpt lat="42.54169" lon="2.04425">
        <ele>1773.4679480111</ele>
        <time>2000-05-11T13:25:33.996</time>
      </trkpt>
      <trkpt lat="42.54169" lon="2.04425">
        <ele>1773.0254701678</ele>
        <time>2000-05-11T13:25:34.996</time>
      </trkpt>
      <trkpt lat="42.54168" lon="2.04424">
        <ele>1772.4419056289</ele>
        <time>2000-05-11T13:25:35.995</time>
      </trkpt>
      <trkpt lat="42.54168" lon="2.04424">
        <ele>1772.4211726289</ele>
        <time>2000-05-11T13:25:36.995</time>
      </trkpt>
      <trkpt lat="42.54167" lon="2.04427">
        <ele>1772.6618318161</ele>
        <time>2000-05-11T13:25:37.994</time>
      </trkpt>
      <trkpt lat="42.54167" lon="2.04429">
        <ele>1773.0542958435</ele>
        <time>2000-05-11T13:25:38.994</time>
      </trkpt>
      <trkpt lat="42.54166" lon="2.0443">
        <ele>1773.6999702487</ele>
        <time>2000-05-11T13:25:39.996</time>
      </trkpt>
      <trkpt lat="42.54164" lon="2.04432">
        <ele>1774.4608926792</ele>
        <time>2000-05-11T13:25:40.996</time>
      </trkpt>
      <trkpt lat="42.54163" lon="2.04432">
        <ele>1775.2163855268</ele>
        <time>2000-05-11T13:25:41.996</time>
      </trkpt>
      <trkpt lat="42.54162" lon="2.04433">
        <ele>1775.6767766377</ele>
        <time>2000-05-11T13:25:42.996</time>
      </trkpt>
      <trkpt lat="42.54161" lon="2.04434">
        <ele>1776.1756975543</ele>
        <time>2000-05-11T13:25:43.996</time>
      </trkpt>
      <trkpt lat="42.54161" lon="2.04434">
        <ele>1776.421408093</ele>
        <time>2000-05-11T13:25:44.996</time>
      </trkpt>
      <trkpt lat="42.54161" lon="2.04435">
        <ele>1776.9616831867</ele>
        <time>2000-05-11T13:25:45.996</time>
      </trkpt>
      <trkpt lat="42.5416" lon="2.04436">
        <ele>1777.4206037188</ele>
        <time>2000-05-11T13:25:46.996</time>
      </trkpt>
      <trkpt lat="42.5416" lon="2.04437">
        <ele>1778.1008642074</ele>
        <time>2000-05-11T13:25:47.995</time>
      </trkpt>
      <trkpt lat="42.54159" lon="2.04439">
        <ele>1778.4658668306</ele>
        <time>2000-05-11T13:25:48.995</time>
      </trkpt>
      <trkpt lat="42.54159" lon="2.0444">
        <ele>1778.7987128733</ele>
        <time>2000-05-11T13:25:49.995</time>
      </trkpt>
      <trkpt lat="42.54159" lon="2.04442">
        <ele>1778.8918154713</ele>
        <time>2000-05-11T13:25:50.995</time>
      </trkpt>
      <trkpt lat="42.54158" lon="2.04442">
        <ele>1779.1036196982</ele>
        <time>2000-05-11T13:25:51.995</time>
      </trkpt>
      <trkpt lat="42.54158" lon="2.04445">
        <ele>1779.051081837</ele>
        <time>2000-05-11T13:25:52.995</time>
      </trkpt>
      <trkpt lat="42.54157" lon="2.04447">
        <ele>1779.0601473041</ele>
        <time>2000-05-11T13:25:53.995</time>
      </trkpt>
      <trkpt lat="42.54156" lon="2.04448">
        <ele>1779.0558757525</ele>
        <time>2000-05-11T13:25:54.995</time>
      </trkpt>
      <trkpt lat="42.54155" lon="2.04447">
        <ele>1779.1811099991</ele>
        <time>2000-05-11T13:25:55.995</time>
      </trkpt>
      <trkpt lat="42.54153" lon="2.04447">
        <ele>1780.0128976718</ele>
        <time>2000-05-11T13:25:56.995</time>
      </trkpt>
      <trkpt lat="42.54152" lon="2.04447">
        <ele>1780.7805649912</ele>
        <time>2000-05-11T13:25:57.995</time>
      </trkpt>
      <trkpt lat="42.54152" lon="2.04447">
        <ele>1781.4911985062</ele>
        <time>2000-05-11T13:25:58.995</time>
      </trkpt>
      <trkpt lat="42.54152" lon="2.04447">
        <ele>1782.2473256204</ele>
        <time>2000-05-11T13:25:59.995</time>
      </trkpt>
      <trkpt lat="42.5415" lon="2.04448">
        <ele>1782.5040313583</ele>
        <time>2000-05-11T13:26:00.995</time>
      </trkpt>
      <trkpt lat="42.5415" lon="2.04449">
        <ele>1782.0442437595</ele>
        <time>2000-05-11T13:26:01.997</time>
      </trkpt>
      <trkpt lat="42.5415" lon="2.04449">
        <ele>1781.7252881952</ele>
        <time>2000-05-11T13:26:02.997</time>
      </trkpt>
      <trkpt lat="42.54149" lon="2.0445">
        <ele>1781.4572091985</ele>
        <time>2000-05-11T13:26:03.997</time>
      </trkpt>
      <trkpt lat="42.54149" lon="2.04451">
        <ele>1781.1070421295</ele>
        <time>2000-05-11T13:26:04.997</time>
      </trkpt>
      <trkpt lat="42.54148" lon="2.04452">
        <ele>1781.4859885886</ele>
        <time>2000-05-11T13:26:05.997</time>
      </trkpt>
      <trkpt lat="42.54148" lon="2.04452">
        <ele>1781.8429574739</ele>
        <time>2000-05-11T13:26:06.997</time>
      </trkpt>
      <trkpt lat="42.54148" lon="2.04453">
        <ele>1782.6356595764</ele>
        <time>2000-05-11T13:26:07.997</time>
      </trkpt>
      <trkpt lat="42.54148" lon="2.04453">
        <ele>1783.3774851112</ele>
        <time>2000-05-11T13:26:08.997</time>
      </trkpt>
      <trkpt lat="42.54147" lon="2.04455">
        <ele>1784.7358326344</ele>
        <time>2000-05-11T13:26:09.997</time>
      </trkpt>
      <trkpt lat="42.54146" lon="2.04456">
        <ele>1786.1805988727</ele>
        <time>2000-05-11T13:26:10.997</time>
      </trkpt>
      <trkpt lat="42.54146" lon="2.04456">
        <ele>1787.1468911618</ele>
        <time>2000-05-11T13:26:12</time>
      </trkpt>
      <trkpt lat="42.54145" lon="2.04456">
        <ele>1787.3690183995</ele>
        <time>2000-05-11T13:26:13</time>
      </trkpt>
      <trkpt lat="42.54144" lon="2.04458">
        <ele>1787.9223068869</ele>
        <time>2000-05-11T13:26:13.998</time>
      </trkpt>
      <trkpt lat="42.54144" lon="2.04458">
        <ele>1787.9411614582</ele>
        <time>2000-05-11T13:26:14.998</time>
      </trkpt>
      <trkpt lat="42.54142" lon="2.04461">
        <ele>1788.013791894</ele>
        <time>2000-05-11T13:26:15.997</time>
      </trkpt>
      <trkpt lat="42.5414" lon="2.04462">
        <ele>1788.542437843</ele>
        <time>2000-05-11T13:26:16.997</time>
      </trkpt>
      <trkpt lat="42.5414" lon="2.04464">
        <ele>1789.7266555844</ele>
        <time>2000-05-11T13:26:17.997</time>
      </trkpt>
      <trkpt lat="42.5414" lon="2.04464">
        <ele>1790.5797120761</ele>
        <time>2000-05-11T13:26:18.997</time>
      </trkpt>
      <trkpt lat="42.54138" lon="2.04466">
        <ele>1791.7545197723</ele>
        <time>2000-05-11T13:26:19.999</time>
      </trkpt>
      <trkpt lat="42.54138" lon="2.04466">
        <ele>1792.400952499</ele>
        <time>2000-05-11T13:26:20.999</time>
      </trkpt>
      <trkpt lat="42.54138" lon="2.04468">
        <ele>1792.6544282541</ele>
        <time>2000-05-11T13:26:21.998</time>
      </trkpt>
      <trkpt lat="42.54136" lon="2.04469">
        <ele>1792.2522704806</ele>
        <time>2000-05-11T13:26:22.998</time>
      </trkpt>
      <trkpt lat="42.54135" lon="2.0447">
        <ele>1791.4949750386</ele>
        <time>2000-05-11T13:26:23.998</time>
      </trkpt>
      <trkpt lat="42.54134" lon="2.0447">
        <ele>1790.4227463808</ele>
        <time>2000-05-11T13:26:24.998</time>
      </trkpt>
      <trkpt lat="42.54133" lon="2.0447">
        <ele>1789.5018910039</ele>
        <time>2000-05-11T13:26:25.998</time>
      </trkpt>
      <trkpt lat="42.54132" lon="2.04471">
        <ele>1789.1034171296</ele>
        <time>2000-05-11T13:26:26.998</time>
      </trkpt>
      <trkpt lat="42.54131" lon="2.04471">
        <ele>1788.8130743191</ele>
        <time>2000-05-11T13:26:27.998</time>
      </trkpt>
      <trkpt lat="42.5413" lon="2.04472">
        <ele>1788.9671128463</ele>
        <time>2000-05-11T13:26:28.998</time>
      </trkpt>
      <trkpt lat="42.54129" lon="2.04473">
        <ele>1789.0353138611</ele>
        <time>2000-05-11T13:26:29.998</time>
      </trkpt>
      <trkpt lat="42.54128" lon="2.04473">
        <ele>1788.9255029678</ele>
        <time>2000-05-11T13:26:30.998</time>
      </trkpt>
      <trkpt lat="42.54127" lon="2.04475">
        <ele>1788.660570953</ele>
        <time>2000-05-11T13:26:31.998</time>
      </trkpt>
      <trkpt lat="42.54125" lon="2.04476">
        <ele>1788.4940861559</ele>
        <time>2000-05-11T13:26:32.998</time>
      </trkpt>
      <trkpt lat="42.54125" lon="2.04476">
        <ele>1788.0344605546</ele>
        <time>2000-05-11T13:26:33.998</time>
      </trkpt>
      <trkpt lat="42.54124" lon="2.04477">
        <ele>1787.5732382687</ele>
        <time>2000-05-11T13:26:34.998</time>
      </trkpt>
      <trkpt lat="42.54124" lon="2.04479">
        <ele>1787.6846226374</ele>
        <time>2000-05-11T13:26:35.998</time>
      </trkpt>
      <trkpt lat="42.54124" lon="2.04481">
        <ele>1787.605625725</ele>
        <time>2000-05-11T13:26:36.998</time>
      </trkpt>
      <trkpt lat="42.54125" lon="2.04482">
        <ele>1787.1285608709</ele>
        <time>2000-05-11T13:26:37.998</time>
      </trkpt>
      <trkpt lat="42.54125" lon="2.04482">
        <ele>1786.8553931516</ele>
        <time>2000-05-11T13:26:38.998</time>
      </trkpt>
      <trkpt lat="42.54125" lon="2.04482">
        <ele>1786.6628416408</ele>
        <time>2000-05-11T13:26:39.998</time>
      </trkpt>
      <trkpt lat="42.54123" lon="2.04483">
        <ele>1785.9868726071</ele>
        <time>2000-05-11T13:26:40.996</time>
      </trkpt>
      <trkpt lat="42.54122" lon="2.04484">
        <ele>1785.3688882977</ele>
        <time>2000-05-11T13:26:41.996</time>
      </trkpt>
      <trkpt lat="42.54121" lon="2.04484">
        <ele>1785.0839586116</ele>
        <time>2000-05-11T13:26:42.996</time>
      </trkpt>
      <trkpt lat="42.5412" lon="2.04485">
        <ele>1784.5933837852</ele>
        <time>2000-05-11T13:26:43.996</time>
      </trkpt>
      <trkpt lat="42.54119" lon="2.04485">
        <ele>1783.5377337229</ele>
        <time>2000-05-11T13:26:44.996</time>
      </trkpt>
      <trkpt lat="42.54117" lon="2.04485">
        <ele>1782.1606344445</ele>
        <time>2000-05-11T13:26:45.996</time>
      </trkpt>
      <trkpt lat="42.54117" lon="2.04485">
        <ele>1780.9640867494</ele>
        <time>2000-05-11T13:26:46.996</time>
      </trkpt>
      <trkpt lat="42.54117" lon="2.04486">
        <ele>1779.4709121175</ele>
        <time>2000-05-11T13:26:47.997</time>
      </trkpt>
      <trkpt lat="42.54115" lon="2.04486">
        <ele>1778.2542202935</ele>
        <time>2000-05-11T13:26:48.997</time>
      </trkpt>
      <trkpt lat="42.54115" lon="2.04487">
        <ele>1777.5684597654</ele>
        <time>2000-05-11T13:26:49.997</time>
      </trkpt>
      <trkpt lat="42.54115" lon="2.04487">
        <ele>1777.1415979488</ele>
        <time>2000-05-11T13:26:50.997</time>
      </trkpt>
      <trkpt lat="42.54113" lon="2.04489">
        <ele>1776.6487053536</ele>
        <time>2000-05-11T13:26:51.999</time>
      </trkpt>
      <trkpt lat="42.54112" lon="2.04491">
        <ele>1776.5881811731</ele>
        <time>2000-05-11T13:26:52.999</time>
      </trkpt>
      <trkpt lat="42.54111" lon="2.04492">
        <ele>1776.6631448511</ele>
        <time>2000-05-11T13:26:53.999</time>
      </trkpt>
      <trkpt lat="42.5411" lon="2.04492">
        <ele>1776.8751113819</ele>
        <time>2000-05-11T13:26:54.999</time>
      </trkpt>
      <trkpt lat="42.54109" lon="2.04493">
        <ele>1777.6469321486</ele>
        <time>2000-05-11T13:26:55.999</time>
      </trkpt>
      <trkpt lat="42.54108" lon="2.04493">
        <ele>1778.4568698477</ele>
        <time>2000-05-11T13:26:56.999</time>
      </trkpt>
      <trkpt lat="42.54107" lon="2.04494">
        <ele>1779.1581562465</ele>
        <time>2000-05-11T13:26:57.999</time>
      </trkpt>
      <trkpt lat="42.54107" lon="2.04495">
        <ele>1779.7293651486</ele>
        <time>2000-05-11T13:26:58.999</time>
      </trkpt>
      <trkpt lat="42.54107" lon="2.04495">
        <ele>1780.1977151377</ele>
        <time>2000-05-11T13:26:59.999</time>
      </trkpt>
      <trkpt lat="42.54107" lon="2.04496">
        <ele>1780.0240296461</ele>
        <time>2000-05-11T13:27:00.999</time>
      </trkpt>
      <trkpt lat="42.54107" lon="2.04498">
        <ele>1779.0037404081</ele>
        <time>2000-05-11T13:27:01.999</time>
      </trkpt>
      <trkpt lat="42.54107" lon="2.045">
        <ele>1778.0397984533</ele>
        <time>2000-05-11T13:27:02.999</time>
      </trkpt>
      <trkpt lat="42.54106" lon="2.04502">
        <ele>1776.678792494</ele>
        <time>2000-05-11T13:27:03.999</time>
      </trkpt>
      <trkpt lat="42.54106" lon="2.04503">
        <ele>1775.2022392888</ele>
        <time>2000-05-11T13:27:04.999</time>
      </trkpt>
      <trkpt lat="42.54105" lon="2.04504">
        <ele>1773.8721960753</ele>
        <time>2000-05-11T13:27:05.999</time>
      </trkpt>
      <trkpt lat="42.54105" lon="2.04504">
        <ele>1773.4166704543</ele>
        <time>2000-05-11T13:27:06.999</time>
      </trkpt>
      <trkpt lat="42.54104" lon="2.04505">
        <ele>1772.871221233</ele>
        <time>2000-05-11T13:27:07.999</time>
      </trkpt>
      <trkpt lat="42.54104" lon="2.04506">
        <ele>1772.420144674</ele>
        <time>2000-05-11T13:27:08.999</time>
      </trkpt>
      <trkpt lat="42.54103" lon="2.04508">
        <ele>1771.2550781067</ele>
        <time>2000-05-11T13:27:09.998</time>
      </trkpt>
      <trkpt lat="42.54102" lon="2.04508">
        <ele>1770.0080652641</ele>
        <time>2000-05-11T13:27:10.998</time>
      </trkpt>
      <trkpt lat="42.54101" lon="2.0451">
        <ele>1768.6268028984</ele>
        <time>2000-05-11T13:27:11.998</time>
      </trkpt>
      <trkpt lat="42.54101" lon="2.04512">
        <ele>1767.4499327321</ele>
        <time>2000-05-11T13:27:12.998</time>
      </trkpt>
      <trkpt lat="42.54101" lon="2.04513">
        <ele>1766.6371395677</ele>
        <time>2000-05-11T13:27:13.998</time>
      </trkpt>
      <trkpt lat="42.541" lon="2.04515">
        <ele>1766.9323460229</ele>
        <time>2000-05-11T13:27:14.998</time>
      </trkpt>
      <trkpt lat="42.541" lon="2.04516">
        <ele>1767.1390123405</ele>
        <time>2000-05-11T13:27:15.998</time>
      </trkpt>
      <trkpt lat="42.541" lon="2.04517">
        <ele>1768.3369976819</ele>
        <time>2000-05-11T13:27:16.998</time>
      </trkpt>
      <trkpt lat="42.54099" lon="2.04519">
        <ele>1769.9355957294</ele>
        <time>2000-05-11T13:27:17.998</time>
      </trkpt>
      <trkpt lat="42.54099" lon="2.0452">
        <ele>1771.3681928759</ele>
        <time>2000-05-11T13:27:18.998</time>
      </trkpt>
      <trkpt lat="42.54098" lon="2.04521">
        <ele>1772.5888575751</ele>
        <time>2000-05-11T13:27:19.998</time>
      </trkpt>
      <trkpt lat="42.54097" lon="2.04522">
        <ele>1773.8183057107</ele>
        <time>2000-05-11T13:27:20.998</time>
      </trkpt>
      <trkpt lat="42.54096" lon="2.04523">
        <ele>1774.3662619118</ele>
        <time>2000-05-11T13:27:21.998</time>
      </trkpt>
      <trkpt lat="42.54095" lon="2.04524">
        <ele>1774.573841266</ele>
        <time>2000-05-11T13:27:22.998</time>
      </trkpt>
      <trkpt lat="42.54095" lon="2.04526">
        <ele>1775.0063751705</ele>
        <time>2000-05-11T13:27:23.998</time>
      </trkpt>
      <trkpt lat="42.54095" lon="2.04527">
        <ele>1775.4229210204</ele>
        <time>2000-05-11T13:27:24.998</time>
      </trkpt>
      <trkpt lat="42.54094" lon="2.04528">
        <ele>1775.8174025171</ele>
        <time>2000-05-11T13:27:25.998</time>
      </trkpt>
      <trkpt lat="42.54094" lon="2.0453">
        <ele>1775.8977931175</ele>
        <time>2000-05-11T13:27:26.998</time>
      </trkpt>
      <trkpt lat="42.54093" lon="2.0453">
        <ele>1775.6633885276</ele>
        <time>2000-05-11T13:27:27.998</time>
      </trkpt>
      <trkpt lat="42.54093" lon="2.04532">
        <ele>1775.1689123504</ele>
        <time>2000-05-11T13:27:28.998</time>
      </trkpt>
      <trkpt lat="42.54092" lon="2.04532">
        <ele>1774.5074649343</ele>
        <time>2000-05-11T13:27:29.998</time>
      </trkpt>
      <trkpt lat="42.54091" lon="2.04533">
        <ele>1773.9272252476</ele>
        <time>2000-05-11T13:27:30.998</time>
      </trkpt>
      <trkpt lat="42.54091" lon="2.04534">
        <ele>1773.5509545701</ele>
        <time>2000-05-11T13:27:31.998</time>
      </trkpt>
      <trkpt lat="42.54091" lon="2.04534">
        <ele>1773.3982657714</ele>
        <time>2000-05-11T13:27:32.998</time>
      </trkpt>
      <trkpt lat="42.5409" lon="2.04535">
        <ele>1773.6413084816</ele>
        <time>2000-05-11T13:27:33.996</time>
      </trkpt>
      <trkpt lat="42.54089" lon="2.04536">
        <ele>1774.205859038</ele>
        <time>2000-05-11T13:27:34.996</time>
      </trkpt>
      <trkpt lat="42.54088" lon="2.04539">
        <ele>1775.2824442351</ele>
        <time>2000-05-11T13:27:35.996</time>
      </trkpt>
      <trkpt lat="42.54088" lon="2.04539">
        <ele>1776.5419148389</ele>
        <time>2000-05-11T13:27:36.996</time>
      </trkpt>
      <trkpt lat="42.54086" lon="2.0454">
        <ele>1777.8750920331</ele>
        <time>2000-05-11T13:27:37.996</time>
      </trkpt>
      <trkpt lat="42.54086" lon="2.04541">
        <ele>1778.8321724948</ele>
        <time>2000-05-11T13:27:38.996</time>
      </trkpt>
      <trkpt lat="42.54086" lon="2.04542">
        <ele>1779.7096168805</ele>
        <time>2000-05-11T13:27:39.996</time>
      </trkpt>
      <trkpt lat="42.54085" lon="2.04543">
        <ele>1780.0648176102</ele>
        <time>2000-05-11T13:27:40.996</time>
      </trkpt>
      <trkpt lat="42.54084" lon="2.04544">
        <ele>1780.1606685348</ele>
        <time>2000-05-11T13:27:41.996</time>
      </trkpt>
      <trkpt lat="42.54083" lon="2.04545">
        <ele>1780.1266634516</ele>
        <time>2000-05-11T13:27:42.996</time>
      </trkpt>
      <trkpt lat="42.54083" lon="2.04545">
        <ele>1780.1365078408</ele>
        <time>2000-05-11T13:27:43.996</time>
      </trkpt>
      <trkpt lat="42.54083" lon="2.04547">
        <ele>1780.4091239501</ele>
        <time>2000-05-11T13:27:44.996</time>
      </trkpt>
      <trkpt lat="42.54082" lon="2.04548">
        <ele>1780.9897468004</ele>
        <time>2000-05-11T13:27:45.996</time>
      </trkpt>
      <trkpt lat="42.54082" lon="2.04549">
        <ele>1781.858578055</ele>
        <time>2000-05-11T13:27:46.996</time>
      </trkpt>
      <trkpt lat="42.54081" lon="2.0455">
        <ele>1782.7277142625</ele>
        <time>2000-05-11T13:27:47.995</time>
      </trkpt>
      <trkpt lat="42.5408" lon="2.04552">
        <ele>1783.7602134187</ele>
        <time>2000-05-11T13:27:48.995</time>
      </trkpt>
      <trkpt lat="42.5408" lon="2.04552">
        <ele>1784.4044984601</ele>
        <time>2000-05-11T13:27:49.995</time>
      </trkpt>
      <trkpt lat="42.5408" lon="2.04553">
        <ele>1784.5456057863</ele>
        <time>2000-05-11T13:27:50.995</time>
      </trkpt>
      <trkpt lat="42.54079" lon="2.04553">
        <ele>1783.9276964441</ele>
        <time>2000-05-11T13:27:51.995</time>
      </trkpt>
      <trkpt lat="42.54078" lon="2.04554">
        <ele>1783.5224919904</ele>
        <time>2000-05-11T13:27:52.995</time>
      </trkpt>
      <trkpt lat="42.54077" lon="2.04555">
        <ele>1782.6779790148</ele>
        <time>2000-05-11T13:27:53.995</time>
      </trkpt>
      <trkpt lat="42.54077" lon="2.04556">
        <ele>1781.406184095</ele>
        <time>2000-05-11T13:27:54.995</time>
      </trkpt>
      <trkpt lat="42.54077" lon="2.04557">
        <ele>1779.8879155401</ele>
        <time>2000-05-11T13:27:55.998</time>
      </trkpt>
      <trkpt lat="42.54077" lon="2.04557">
        <ele>1778.8514639687</ele>
        <time>2000-05-11T13:27:56.998</time>
      </trkpt>
      <trkpt lat="42.54075" lon="2.04559">
        <ele>1777.6553652998</ele>
        <time>2000-05-11T13:27:58</time>
      </trkpt>
      <trkpt lat="42.54075" lon="2.0456">
        <ele>1776.6829301549</ele>
        <time>2000-05-11T13:27:59</time>
      </trkpt>
      <trkpt lat="42.54073" lon="2.04562">
        <ele>1776.4112962369</ele>
        <time>2000-05-11T13:28:00</time>
      </trkpt>
      <trkpt lat="42.54072" lon="2.04563">
        <ele>1776.1860516928</ele>
        <time>2000-05-11T13:28:01</time>
      </trkpt>
      <trkpt lat="42.54071" lon="2.04564">
        <ele>1775.9485585395</ele>
        <time>2000-05-11T13:28:02</time>
      </trkpt>
      <trkpt lat="42.5407" lon="2.04565">
        <ele>1775.8311945461</ele>
        <time>2000-05-11T13:28:03</time>
      </trkpt>
      <trkpt lat="42.54069" lon="2.04566">
        <ele>1775.9588822262</ele>
        <time>2000-05-11T13:28:04</time>
      </trkpt>
      <trkpt lat="42.54068" lon="2.04568">
        <ele>1776.1578961834</ele>
        <time>2000-05-11T13:28:05</time>
      </trkpt>
      <trkpt lat="42.54068" lon="2.04568">
        <ele>1776.8006052447</ele>
        <time>2000-05-11T13:28:06</time>
      </trkpt>
      <trkpt lat="42.54068" lon="2.0457">
        <ele>1777.5733679727</ele>
        <time>2000-05-11T13:28:07</time>
      </trkpt>
      <trkpt lat="42.54068" lon="2.0457">
        <ele>1778.228788214</ele>
        <time>2000-05-11T13:28:08</time>
      </trkpt>
      <trkpt lat="42.54067" lon="2.04571">
        <ele>1778.8590790382</ele>
        <time>2000-05-11T13:28:09</time>
      </trkpt>
      <trkpt lat="42.54066" lon="2.04573">
        <ele>1779.1027400995</ele>
        <time>2000-05-11T13:28:10</time>
      </trkpt>
      <trkpt lat="42.54065" lon="2.04573">
        <ele>1779.0807261158</ele>
        <time>2000-05-11T13:28:11</time>
      </trkpt>
      <trkpt lat="42.54064" lon="2.04575">
        <ele>1778.5886499139</ele>
        <time>2000-05-11T13:28:12</time>
      </trkpt>
      <trkpt lat="42.54064" lon="2.04576">
        <ele>1777.8156425223</ele>
        <time>2000-05-11T13:28:13</time>
      </trkpt>
      <trkpt lat="42.54064" lon="2.04577">
        <ele>1776.533108736</ele>
        <time>2000-05-11T13:28:14</time>
      </trkpt>
      <trkpt lat="42.54063" lon="2.04579">
        <ele>1774.9829228787</ele>
        <time>2000-05-11T13:28:15</time>
      </trkpt>
      <trkpt lat="42.54063" lon="2.0458">
        <ele>1773.4883489503</ele>
        <time>2000-05-11T13:28:16</time>
      </trkpt>
      <trkpt lat="42.54063" lon="2.0458">
        <ele>1772.0677874668</ele>
        <time>2000-05-11T13:28:17</time>
      </trkpt>
      <trkpt lat="42.54063" lon="2.04581">
        <ele>1771.4775253927</ele>
        <time>2000-05-11T13:28:18</time>
      </trkpt>
      <trkpt lat="42.54063" lon="2.04582">
        <ele>1771.159760605</ele>
        <time>2000-05-11T13:28:19</time>
      </trkpt>
      <trkpt lat="42.54063" lon="2.04586">
        <ele>1770.4892951893</ele>
        <time>2000-05-11T13:28:20.1</time>
      </trkpt>
      <trkpt lat="42.54062" lon="2.04588">
        <ele>1770.2245553955</ele>
        <time>2000-05-11T13:28:21.1</time>
      </trkpt>
      <trkpt lat="42.54061" lon="2.04589">
        <ele>1770.3699134858</ele>
        <time>2000-05-11T13:28:22.1</time>
      </trkpt>
      <trkpt lat="42.5406" lon="2.0459">
        <ele>1770.0587706162</ele>
        <time>2000-05-11T13:28:23.1</time>
      </trkpt>
      <trkpt lat="42.5406" lon="2.0459">
        <ele>1769.8170166478</ele>
        <time>2000-05-11T13:28:24.1</time>
      </trkpt>
      <trkpt lat="42.5406" lon="2.0459">
        <ele>1770.2373995816</ele>
        <time>2000-05-11T13:28:25.1</time>
      </trkpt>
      <trkpt lat="42.54059" lon="2.04592">
        <ele>1770.7715687228</ele>
        <time>2000-05-11T13:28:25.999</time>
      </trkpt>
      <trkpt lat="42.54059" lon="2.04592">
        <ele>1771.173884696</ele>
        <time>2000-05-11T13:28:26.999</time>
      </trkpt>
      <trkpt lat="42.54057" lon="2.04595">
        <ele>1771.6440814642</ele>
        <time>2000-05-11T13:28:27.997</time>
      </trkpt>
      <trkpt lat="42.54056" lon="2.04596">
        <ele>1771.9168502018</ele>
        <time>2000-05-11T13:28:28.997</time>
      </trkpt>
      <trkpt lat="42.54055" lon="2.04598">
        <ele>1772.5209314168</ele>
        <time>2000-05-11T13:28:29.997</time>
      </trkpt>
      <trkpt lat="42.54054" lon="2.046">
        <ele>1773.1498074856</ele>
        <time>2000-05-11T13:28:30.997</time>
      </trkpt>
      <trkpt lat="42.54054" lon="2.046">
        <ele>1773.7055698192</ele>
        <time>2000-05-11T13:28:31.997</time>
      </trkpt>
      <trkpt lat="42.54054" lon="2.046">
        <ele>1773.9810920799</ele>
        <time>2000-05-11T13:28:32.997</time>
      </trkpt>
      <trkpt lat="42.54053" lon="2.04602">
        <ele>1774.4932925086</ele>
        <time>2000-05-11T13:28:33.997</time>
      </trkpt>
      <trkpt lat="42.54052" lon="2.04603">
        <ele>1774.8697093207</ele>
        <time>2000-05-11T13:28:34.997</time>
      </trkpt>
      <trkpt lat="42.54052" lon="2.04606">
        <ele>1775.3435940634</ele>
        <time>2000-05-11T13:28:35.997</time>
      </trkpt>
      <trkpt lat="42.54052" lon="2.04607">
        <ele>1775.9373459192</ele>
        <time>2000-05-11T13:28:36.997</time>
      </trkpt>
      <trkpt lat="42.54052" lon="2.04607">
        <ele>1776.6505897928</ele>
        <time>2000-05-11T13:28:37.997</time>
      </trkpt>
      <trkpt lat="42.54052" lon="2.04607">
        <ele>1777.3245835291</ele>
        <time>2000-05-11T13:28:38.997</time>
      </trkpt>
      <trkpt lat="42.54051" lon="2.04609">
        <ele>1778.3635081833</ele>
        <time>2000-05-11T13:28:39.996</time>
      </trkpt>
      <trkpt lat="42.5405" lon="2.0461">
        <ele>1779.0139466653</ele>
        <time>2000-05-11T13:28:40.996</time>
      </trkpt>
      <trkpt lat="42.54049" lon="2.0461">
        <ele>1779.3958912037</ele>
        <time>2000-05-11T13:28:41.996</time>
      </trkpt>
      <trkpt lat="42.54049" lon="2.0461">
        <ele>1779.7778357422</ele>
        <time>2000-05-11T13:28:42.996</time>
      </trkpt>
      <trkpt lat="42.54048" lon="2.04611">
        <ele>1779.8219685169</ele>
        <time>2000-05-11T13:28:43.996</time>
      </trkpt>
      <trkpt lat="42.54048" lon="2.04612">
        <ele>1779.04471775</ele>
        <time>2000-05-11T13:28:44.996</time>
      </trkpt>
      <trkpt lat="42.54047" lon="2.04615">
        <ele>1778.5705459565</ele>
        <time>2000-05-11T13:28:45.996</time>
      </trkpt>
      <trkpt lat="42.54047" lon="2.04616">
        <ele>1778.5683103133</ele>
        <time>2000-05-11T13:28:46.996</time>
      </trkpt>
      <trkpt lat="42.54047" lon="2.04616">
        <ele>1778.5660746701</ele>
        <time>2000-05-11T13:28:47.996</time>
      </trkpt>
      <trkpt lat="42.54046" lon="2.04617">
        <ele>1778.7323095672</ele>
        <time>2000-05-11T13:28:48.996</time>
      </trkpt>
      <trkpt lat="42.54046" lon="2.04618">
        <ele>1778.8703415684</ele>
        <time>2000-05-11T13:28:49.996</time>
      </trkpt>
      <trkpt lat="42.54044" lon="2.0462">
        <ele>1778.2419073183</ele>
        <time>2000-05-11T13:28:50.995</time>
      </trkpt>
      <trkpt lat="42.54044" lon="2.0462">
        <ele>1777.2175912499</ele>
        <time>2000-05-11T13:28:51.995</time>
      </trkpt>
      <trkpt lat="42.54043" lon="2.04621">
        <ele>1776.3678282514</ele>
        <time>2000-05-11T13:28:52.995</time>
      </trkpt>
      <trkpt lat="42.54043" lon="2.04624">
        <ele>1776.0594853157</ele>
        <time>2000-05-11T13:28:53.995</time>
      </trkpt>
      <trkpt lat="42.54043" lon="2.04624">
        <ele>1776.0402690388</ele>
        <time>2000-05-11T13:28:54.995</time>
      </trkpt>
      <trkpt lat="42.54042" lon="2.04625">
        <ele>1776.137696702</ele>
        <time>2000-05-11T13:28:55.995</time>
      </trkpt>
      <trkpt lat="42.54042" lon="2.04625">
        <ele>1776.3808105988</ele>
        <time>2000-05-11T13:28:56.995</time>
      </trkpt>
      <trkpt lat="42.54041" lon="2.04626">
        <ele>1776.2195989288</ele>
        <time>2000-05-11T13:28:57.995</time>
      </trkpt>
      <trkpt lat="42.54039" lon="2.0463">
        <ele>1776.1983627109</ele>
        <time>2000-05-11T13:28:58.995</time>
      </trkpt>
      <trkpt lat="42.54038" lon="2.04632">
        <ele>1776.0087421371</ele>
        <time>2000-05-11T13:28:59.995</time>
      </trkpt>
      <trkpt lat="42.54037" lon="2.04633">
        <ele>1776.2270393234</ele>
        <time>2000-05-11T13:29:00.995</time>
      </trkpt>
      <trkpt lat="42.54037" lon="2.04634">
        <ele>1776.2535563009</ele>
        <time>2000-05-11T13:29:01.995</time>
      </trkpt>
      <trkpt lat="42.54037" lon="2.04634">
        <ele>1776.5098457754</ele>
        <time>2000-05-11T13:29:02.995</time>
      </trkpt>
      <trkpt lat="42.54037" lon="2.04634">
        <ele>1776.2540809585</ele>
        <time>2000-05-11T13:29:03.995</time>
      </trkpt>
      <trkpt lat="42.54036" lon="2.04637">
        <ele>1775.2759765843</ele>
        <time>2000-05-11T13:29:04.995</time>
      </trkpt>
      <trkpt lat="42.54035" lon="2.04639">
        <ele>1774.3597433273</ele>
        <time>2000-05-11T13:29:05.995</time>
      </trkpt>
      <trkpt lat="42.54034" lon="2.04642">
        <ele>1773.6277594501</ele>
        <time>2000-05-11T13:29:06.995</time>
      </trkpt>
      <trkpt lat="42.54034" lon="2.04644">
        <ele>1772.911274579</ele>
        <time>2000-05-11T13:29:07.995</time>
      </trkpt>
      <trkpt lat="42.54031" lon="2.04644">
        <ele>1772.1593954612</ele>
        <time>2000-05-11T13:29:08.995</time>
      </trkpt>
      <trkpt lat="42.54031" lon="2.04648">
        <ele>1772.4972653268</ele>
        <time>2000-05-11T13:29:09.995</time>
      </trkpt>
      <trkpt lat="42.54031" lon="2.04649">
        <ele>1772.7246793689</ele>
        <time>2000-05-11T13:29:10.995</time>
      </trkpt>
      <trkpt lat="42.5403" lon="2.0465">
        <ele>1772.9146447122</ele>
        <time>2000-05-11T13:29:11.995</time>
      </trkpt>
      <trkpt lat="42.5403" lon="2.04651">
        <ele>1773.1136807756</ele>
        <time>2000-05-11T13:29:12.995</time>
      </trkpt>
      <trkpt lat="42.5403" lon="2.04652">
        <ele>1773.3271007581</ele>
        <time>2000-05-11T13:29:13.995</time>
      </trkpt>
      <trkpt lat="42.5403" lon="2.04653">
        <ele>1773.2308610942</ele>
        <time>2000-05-11T13:29:14.995</time>
      </trkpt>
      <trkpt lat="42.54029" lon="2.04654">
        <ele>1773.0580713345</ele>
        <time>2000-05-11T13:29:15.995</time>
      </trkpt>
      <trkpt lat="42.54028" lon="2.04655">
        <ele>1773.1632240141</ele>
        <time>2000-05-11T13:29:16.995</time>
      </trkpt>
      <trkpt lat="42.54028" lon="2.04656">
        <ele>1773.177625045</ele>
        <time>2000-05-11T13:29:17.995</time>
      </trkpt>
      <trkpt lat="42.54027" lon="2.04656">
        <ele>1773.204835991</ele>
        <time>2000-05-11T13:29:18.995</time>
      </trkpt>
      <trkpt lat="42.54027" lon="2.04657">
        <ele>1773.3016487749</ele>
        <time>2000-05-11T13:29:19.995</time>
      </trkpt>
      <trkpt lat="42.54027" lon="2.04658">
        <ele>1773.2897677811</ele>
        <time>2000-05-11T13:29:20.995</time>
      </trkpt>
      <trkpt lat="42.54027" lon="2.0466">
        <ele>1772.5613124939</ele>
        <time>2000-05-11T13:29:21.995</time>
      </trkpt>
      <trkpt lat="42.54026" lon="2.04662">
        <ele>1771.8506092189</ele>
        <time>2000-05-11T13:29:22.996</time>
      </trkpt>
      <trkpt lat="42.54026" lon="2.04664">
        <ele>1770.852705279</ele>
        <time>2000-05-11T13:29:23.996</time>
      </trkpt>
      <trkpt lat="42.54025" lon="2.04665">
        <ele>1770.0613668438</ele>
        <time>2000-05-11T13:29:24.996</time>
      </trkpt>
      <trkpt lat="42.54024" lon="2.04665">
        <ele>1769.3942806495</ele>
        <time>2000-05-11T13:29:25.996</time>
      </trkpt>
      <trkpt lat="42.54024" lon="2.04665">
        <ele>1769.2108058371</ele>
        <time>2000-05-11T13:29:26.996</time>
      </trkpt>
      <trkpt lat="42.54024" lon="2.04667">
        <ele>1768.5046439746</ele>
        <time>2000-05-11T13:29:27.997</time>
      </trkpt>
      <trkpt lat="42.54023" lon="2.04667">
        <ele>1768.0410125278</ele>
        <time>2000-05-11T13:29:28.997</time>
      </trkpt>
      <trkpt lat="42.54023" lon="2.04668">
        <ele>1767.1008448336</ele>
        <time>2000-05-11T13:29:29.996</time>
      </trkpt>
      <trkpt lat="42.54023" lon="2.04669">
        <ele>1766.1888702087</ele>
        <time>2000-05-11T13:29:30.996</time>
      </trkpt>
      <trkpt lat="42.54022" lon="2.0467">
        <ele>1765.3865834292</ele>
        <time>2000-05-11T13:29:31.996</time>
      </trkpt>
      <trkpt lat="42.54021" lon="2.04671">
        <ele>1765.3558763959</ele>
        <time>2000-05-11T13:29:32.996</time>
      </trkpt>
      <trkpt lat="42.5402" lon="2.04673">
        <ele>1765.4261820735</ele>
        <time>2000-05-11T13:29:33.996</time>
      </trkpt>
      <trkpt lat="42.54019" lon="2.04674">
        <ele>1765.8133698957</ele>
        <time>2000-05-11T13:29:34.996</time>
      </trkpt>
      <trkpt lat="42.54019" lon="2.04677">
        <ele>1766.5350709995</ele>
        <time>2000-05-11T13:29:35.996</time>
      </trkpt>
      <trkpt lat="42.54019" lon="2.04678">
        <ele>1767.3513337638</ele>
        <time>2000-05-11T13:29:36.996</time>
      </trkpt>
      <trkpt lat="42.54019" lon="2.04679">
        <ele>1767.9620570006</ele>
        <time>2000-05-11T13:29:37.996</time>
      </trkpt>
      <trkpt lat="42.54019" lon="2.0468">
        <ele>1768.2691233169</ele>
        <time>2000-05-11T13:29:38.996</time>
      </trkpt>
      <trkpt lat="42.54019" lon="2.0468">
        <ele>1768.5703109695</ele>
        <time>2000-05-11T13:29:39.996</time>
      </trkpt>
      <trkpt lat="42.54018" lon="2.04682">
        <ele>1768.9256397679</ele>
        <time>2000-05-11T13:29:40.996</time>
      </trkpt>
      <trkpt lat="42.54018" lon="2.04683">
        <ele>1769.2291637488</ele>
        <time>2000-05-11T13:29:41.996</time>
      </trkpt>
      <trkpt lat="42.54018" lon="2.04684">
        <ele>1769.7420875266</ele>
        <time>2000-05-11T13:29:42.996</time>
      </trkpt>
      <trkpt lat="42.54018" lon="2.04687">
        <ele>1770.4735683007</ele>
        <time>2000-05-11T13:29:43.996</time>
      </trkpt>
      <trkpt lat="42.54018" lon="2.04687">
        <ele>1771.2050490748</ele>
        <time>2000-05-11T13:29:44.996</time>
      </trkpt>
      <trkpt lat="42.54018" lon="2.04688">
        <ele>1771.4844946409</ele>
        <time>2000-05-11T13:29:45.996</time>
      </trkpt>
      <trkpt lat="42.54017" lon="2.04688">
        <ele>1771.9372190237</ele>
        <time>2000-05-11T13:29:46.996</time>
      </trkpt>
      <trkpt lat="42.54016" lon="2.0469">
        <ele>1772.4030410089</ele>
        <time>2000-05-11T13:29:47.996</time>
      </trkpt>
      <trkpt lat="42.54016" lon="2.04691">
        <ele>1773.3209894776</ele>
        <time>2000-05-11T13:29:48.996</time>
      </trkpt>
      <trkpt lat="42.54016" lon="2.04692">
        <ele>1774.276132682</ele>
        <time>2000-05-11T13:29:49.996</time>
      </trkpt>
      <trkpt lat="42.54015" lon="2.04694">
        <ele>1775.4872327182</ele>
        <time>2000-05-11T13:29:50.996</time>
      </trkpt>
      <trkpt lat="42.54015" lon="2.04695">
        <ele>1776.7044408917</ele>
        <time>2000-05-11T13:29:51.996</time>
      </trkpt>
      <trkpt lat="42.54016" lon="2.04698">
        <ele>1777.700586025</ele>
        <time>2000-05-11T13:29:52.996</time>
      </trkpt>
      <trkpt lat="42.54015" lon="2.047">
        <ele>1778.2979161372</ele>
        <time>2000-05-11T13:29:53.996</time>
      </trkpt>
      <trkpt lat="42.54015" lon="2.04702">
        <ele>1778.7577935351</ele>
        <time>2000-05-11T13:29:54.996</time>
      </trkpt>
      <trkpt lat="42.54015" lon="2.04703">
        <ele>1779.0645941604</ele>
        <time>2000-05-11T13:29:55.996</time>
      </trkpt>
      <trkpt lat="42.54015" lon="2.04703">
        <ele>1779.0395631434</ele>
        <time>2000-05-11T13:29:56.996</time>
      </trkpt>
      <trkpt lat="42.54015" lon="2.04703">
        <ele>1779.018174509</ele>
        <time>2000-05-11T13:29:57.996</time>
      </trkpt>
      <trkpt lat="42.54015" lon="2.04704">
        <ele>1778.6640519092</ele>
        <time>2000-05-11T13:29:58.994</time>
      </trkpt>
      <trkpt lat="42.54014" lon="2.04704">
        <ele>1778.5393035613</ele>
        <time>2000-05-11T13:29:59.994</time>
      </trkpt>
      <trkpt lat="42.54013" lon="2.04706">
        <ele>1778.6514680853</ele>
        <time>2000-05-11T13:30:00.994</time>
      </trkpt>
      <trkpt lat="42.54013" lon="2.04708">
        <ele>1779.1751340562</ele>
        <time>2000-05-11T13:30:01.994</time>
      </trkpt>
      <trkpt lat="42.54012" lon="2.04709">
        <ele>1779.5427137632</ele>
        <time>2000-05-11T13:30:02.994</time>
      </trkpt>
      <trkpt lat="42.54011" lon="2.04711">
        <ele>1780.1584371464</ele>
        <time>2000-05-11T13:30:03.994</time>
      </trkpt>
      <trkpt lat="42.54009" lon="2.04712">
        <ele>1779.9989984097</ele>
        <time>2000-05-11T13:30:04.994</time>
      </trkpt>
      <trkpt lat="42.54008" lon="2.04713">
        <ele>1779.65854386</ele>
        <time>2000-05-11T13:30:05.994</time>
      </trkpt>
      <trkpt lat="42.54008" lon="2.04713">
        <ele>1778.9065878633</ele>
        <time>2000-05-11T13:30:06.994</time>
      </trkpt>
      <trkpt lat="42.54008" lon="2.04715">
        <ele>1778.7162411693</ele>
        <time>2000-05-11T13:30:07.994</time>
      </trkpt>
      <trkpt lat="42.54008" lon="2.04716">
        <ele>1778.7378296807</ele>
        <time>2000-05-11T13:30:08.994</time>
      </trkpt>
      <trkpt lat="42.54008" lon="2.04717">
        <ele>1779.4007801125</ele>
        <time>2000-05-11T13:30:09.994</time>
      </trkpt>
      <trkpt lat="42.54007" lon="2.04719">
        <ele>1779.7289975768</ele>
        <time>2000-05-11T13:30:10.994</time>
      </trkpt>
      <trkpt lat="42.54007" lon="2.0472">
        <ele>1779.7812549172</ele>
        <time>2000-05-11T13:30:11.994</time>
      </trkpt>
      <trkpt lat="42.54006" lon="2.04722">
        <ele>1779.2854513478</ele>
        <time>2000-05-11T13:30:12.994</time>
      </trkpt>
      <trkpt lat="42.54006" lon="2.04725">
        <ele>1779.0269324325</ele>
        <time>2000-05-11T13:30:13.994</time>
      </trkpt>
      <trkpt lat="42.54006" lon="2.04727">
        <ele>1779.4515301997</ele>
        <time>2000-05-11T13:30:14.994</time>
      </trkpt>
      <trkpt lat="42.54006" lon="2.04729">
        <ele>1779.8468860345</ele>
        <time>2000-05-11T13:30:15.994</time>
      </trkpt>
      <trkpt lat="42.54005" lon="2.0473">
        <ele>1780.2969315924</ele>
        <time>2000-05-11T13:30:16.994</time>
      </trkpt>
      <trkpt lat="42.54005" lon="2.04731">
        <ele>1780.8726847952</ele>
        <time>2000-05-11T13:30:17.994</time>
      </trkpt>
      <trkpt lat="42.54003" lon="2.04733">
        <ele>1781.1687081868</ele>
        <time>2000-05-11T13:30:18.994</time>
      </trkpt>
      <trkpt lat="42.54002" lon="2.04734">
        <ele>1780.5870601423</ele>
        <time>2000-05-11T13:30:19.994</time>
      </trkpt>
      <trkpt lat="42.54001" lon="2.04734">
        <ele>1780.0415992089</ele>
        <time>2000-05-11T13:30:20.994</time>
      </trkpt>
      <trkpt lat="42.53999" lon="2.04734">
        <ele>1780.2489969891</ele>
        <time>2000-05-11T13:30:21.994</time>
      </trkpt>
      <trkpt lat="42.53998" lon="2.04735">
        <ele>1780.8143622765</ele>
        <time>2000-05-11T13:30:22.994</time>
      </trkpt>
      <trkpt lat="42.53997" lon="2.04736">
        <ele>1781.4207793007</ele>
        <time>2000-05-11T13:30:23.994</time>
      </trkpt>
      <trkpt lat="42.53996" lon="2.04737">
        <ele>1782.3465105172</ele>
        <time>2000-05-11T13:30:24.994</time>
      </trkpt>
      <trkpt lat="42.53996" lon="2.04738">
        <ele>1783.5370661454</ele>
        <time>2000-05-11T13:30:25.994</time>
      </trkpt>
      <trkpt lat="42.53995" lon="2.04739">
        <ele>1784.0269670408</ele>
        <time>2000-05-11T13:30:26.994</time>
      </trkpt>
      <trkpt lat="42.53995" lon="2.0474">
        <ele>1783.9389490016</ele>
        <time>2000-05-11T13:30:27.994</time>
      </trkpt>
      <trkpt lat="42.53995" lon="2.0474">
        <ele>1783.708625879</ele>
        <time>2000-05-11T13:30:28.994</time>
      </trkpt>
      <trkpt lat="42.53996" lon="2.04741">
        <ele>1783.4511335425</ele>
        <time>2000-05-11T13:30:29.994</time>
      </trkpt>
      <trkpt lat="42.53997" lon="2.04741">
        <ele>1783.1821684236</ele>
        <time>2000-05-11T13:30:30.994</time>
      </trkpt>
      <trkpt lat="42.53998" lon="2.04742">
        <ele>1782.8226566816</ele>
        <time>2000-05-11T13:30:31.994</time>
      </trkpt>
      <trkpt lat="42.53997" lon="2.04743">
        <ele>1782.6351125941</ele>
        <time>2000-05-11T13:30:32.993</time>
      </trkpt>
      <trkpt lat="42.53996" lon="2.04743">
        <ele>1782.3159912867</ele>
        <time>2000-05-11T13:30:33.993</time>
      </trkpt>
      <trkpt lat="42.53995" lon="2.04744">
        <ele>1781.638487649</ele>
        <time>2000-05-11T13:30:34.993</time>
      </trkpt>
      <trkpt lat="42.53994" lon="2.04745">
        <ele>1781.2489077697</ele>
        <time>2000-05-11T13:30:35.993</time>
      </trkpt>
      <trkpt lat="42.53994" lon="2.04745">
        <ele>1781.1189409334</ele>
        <time>2000-05-11T13:30:36.993</time>
      </trkpt>
      <trkpt lat="42.53993" lon="2.04746">
        <ele>1781.1123253245</ele>
        <time>2000-05-11T13:30:37.993</time>
      </trkpt>
      <trkpt lat="42.53993" lon="2.04748">
        <ele>1781.0877507662</ele>
        <time>2000-05-11T13:30:38.993</time>
      </trkpt>
      <trkpt lat="42.53992" lon="2.04749">
        <ele>1781.3325012157</ele>
        <time>2000-05-11T13:30:39.993</time>
      </trkpt>
      <trkpt lat="42.5399" lon="2.0475">
        <ele>1780.5065947954</ele>
        <time>2000-05-11T13:30:40.995</time>
      </trkpt>
      <trkpt lat="42.53989" lon="2.04752">
        <ele>1779.4643192222</ele>
        <time>2000-05-11T13:30:41.995</time>
      </trkpt>
      <trkpt lat="42.53989" lon="2.04752">
        <ele>1778.1880892809</ele>
        <time>2000-05-11T13:30:42.995</time>
      </trkpt>
      <trkpt lat="42.53988" lon="2.04753">
        <ele>1776.8744782157</ele>
        <time>2000-05-11T13:30:43.995</time>
      </trkpt>
      <trkpt lat="42.53989" lon="2.04755">
        <ele>1775.6241425494</ele>
        <time>2000-05-11T13:30:44.995</time>
      </trkpt>
      <trkpt lat="42.53989" lon="2.04755">
        <ele>1775.1125633381</ele>
        <time>2000-05-11T13:30:45.995</time>
      </trkpt>
      <trkpt lat="42.53986" lon="2.04755">
        <ele>1775.3401184464</ele>
        <time>2000-05-11T13:30:46.992</time>
      </trkpt>
      <trkpt lat="42.53986" lon="2.04755">
        <ele>1775.7430906946</ele>
        <time>2000-05-11T13:30:47.992</time>
      </trkpt>
      <trkpt lat="42.53984" lon="2.04754">
        <ele>1776.4580577197</ele>
        <time>2000-05-11T13:30:48.992</time>
      </trkpt>
      <trkpt lat="42.53984" lon="2.04755">
        <ele>1777.2648786239</ele>
        <time>2000-05-11T13:30:49.993</time>
      </trkpt>
      <trkpt lat="42.53984" lon="2.04755">
        <ele>1778.0716995282</ele>
        <time>2000-05-11T13:30:50.993</time>
      </trkpt>
      <trkpt lat="42.53983" lon="2.04756">
        <ele>1778.548363906</ele>
        <time>2000-05-11T13:30:51.990</time>
      </trkpt>
      <trkpt lat="42.53982" lon="2.04757">
        <ele>1779.1128643569</ele>
        <time>2000-05-11T13:30:52.990</time>
      </trkpt>
      <trkpt lat="42.53981" lon="2.04758">
        <ele>1779.4280267149</ele>
        <time>2000-05-11T13:30:53.990</time>
      </trkpt>
      <trkpt lat="42.5398" lon="2.0476">
        <ele>1779.4212251028</ele>
        <time>2000-05-11T13:30:54.990</time>
      </trkpt>
      <trkpt lat="42.5398" lon="2.0476">
        <ele>1779.2141879784</ele>
        <time>2000-05-11T13:30:55.990</time>
      </trkpt>
      <trkpt lat="42.5398" lon="2.0476">
        <ele>1778.8145422138</ele>
        <time>2000-05-11T13:30:56.990</time>
      </trkpt>
      <trkpt lat="42.53978" lon="2.0476">
        <ele>1778.3329769548</ele>
        <time>2000-05-11T13:30:57.990</time>
      </trkpt>
      <trkpt lat="42.53977" lon="2.04761">
        <ele>1778.0301253416</ele>
        <time>2000-05-11T13:30:58.990</time>
      </trkpt>
      <trkpt lat="42.53976" lon="2.04762">
        <ele>1777.8150929878</ele>
        <time>2000-05-11T13:30:59.989</time>
      </trkpt>
      <trkpt lat="42.53975" lon="2.04763">
        <ele>1777.8500286641</ele>
        <time>2000-05-11T13:31:00.989</time>
      </trkpt>
      <trkpt lat="42.53974" lon="2.04765">
        <ele>1778.5550801992</ele>
        <time>2000-05-11T13:31:01.989</time>
      </trkpt>
      <trkpt lat="42.53974" lon="2.04765">
        <ele>1779.2542151557</ele>
        <time>2000-05-11T13:31:02.989</time>
      </trkpt>
      <trkpt lat="42.53973" lon="2.04766">
        <ele>1780.0344955098</ele>
        <time>2000-05-11T13:31:03.989</time>
      </trkpt>
      <trkpt lat="42.53972" lon="2.04767">
        <ele>1781.08890831</ele>
        <time>2000-05-11T13:31:04.989</time>
      </trkpt>
      <trkpt lat="42.53973" lon="2.04769">
        <ele>1781.8828004206</ele>
        <time>2000-05-11T13:31:05.989</time>
      </trkpt>
      <trkpt lat="42.53972" lon="2.0477">
        <ele>1782.1829567064</ele>
        <time>2000-05-11T13:31:06.989</time>
      </trkpt>
      <trkpt lat="42.53972" lon="2.0477">
        <ele>1782.4831129922</ele>
        <time>2000-05-11T13:31:07.989</time>
      </trkpt>
      <trkpt lat="42.53972" lon="2.0477">
        <ele>1782.3986147787</ele>
        <time>2000-05-11T13:31:08.989</time>
      </trkpt>
      <trkpt lat="42.53972" lon="2.0477">
        <ele>1782.1151505761</ele>
        <time>2000-05-11T13:31:09.989</time>
      </trkpt>
      <trkpt lat="42.53969" lon="2.04773">
        <ele>1782.1758087995</ele>
        <time>2000-05-11T13:31:10.989</time>
      </trkpt>
      <trkpt lat="42.53967" lon="2.04774">
        <ele>1782.094297741</ele>
        <time>2000-05-11T13:31:11.989</time>
      </trkpt>
      <trkpt lat="42.53966" lon="2.04776">
        <ele>1782.1623463117</ele>
        <time>2000-05-11T13:31:12.989</time>
      </trkpt>
      <trkpt lat="42.53965" lon="2.04777">
        <ele>1782.4664928265</ele>
        <time>2000-05-11T13:31:13.989</time>
      </trkpt>
      <trkpt lat="42.53965" lon="2.04779">
        <ele>1783.1689135987</ele>
        <time>2000-05-11T13:31:14.989</time>
      </trkpt>
      <trkpt lat="42.53964" lon="2.04781">
        <ele>1783.8522853052</ele>
        <time>2000-05-11T13:31:15.989</time>
      </trkpt>
      <trkpt lat="42.53964" lon="2.04781">
        <ele>1784.5014462594</ele>
        <time>2000-05-11T13:31:16.989</time>
      </trkpt>
      <trkpt lat="42.53964" lon="2.04781">
        <ele>1784.9732583968</ele>
        <time>2000-05-11T13:31:17.989</time>
      </trkpt>
      <trkpt lat="42.53962" lon="2.04781">
        <ele>1785.6113497099</ele>
        <time>2000-05-11T13:31:18.989</time>
      </trkpt>
      <trkpt lat="42.53961" lon="2.04782">
        <ele>1786.0330916811</ele>
        <time>2000-05-11T13:31:19.989</time>
      </trkpt>
      <trkpt lat="42.5396" lon="2.04783">
        <ele>1786.3355983227</ele>
        <time>2000-05-11T13:31:20.989</time>
      </trkpt>
      <trkpt lat="42.53958" lon="2.04784">
        <ele>1787.0441736311</ele>
        <time>2000-05-11T13:31:21.989</time>
      </trkpt>
      <trkpt lat="42.53957" lon="2.04785">
        <ele>1787.6387279818</ele>
        <time>2000-05-11T13:31:22.989</time>
      </trkpt>
      <trkpt lat="42.53955" lon="2.04786">
        <ele>1788.2567578819</ele>
        <time>2000-05-11T13:31:23.989</time>
      </trkpt>
      <trkpt lat="42.53955" lon="2.04786">
        <ele>1788.6928628664</ele>
        <time>2000-05-11T13:31:24.989</time>
      </trkpt>
      <trkpt lat="42.53955" lon="2.04787">
        <ele>1789.320212863</ele>
        <time>2000-05-11T13:31:25.989</time>
      </trkpt>
      <trkpt lat="42.53955" lon="2.04787">
        <ele>1789.5414941929</ele>
        <time>2000-05-11T13:31:26.989</time>
      </trkpt>
      <trkpt lat="42.53953" lon="2.04789">
        <ele>1790.1573218826</ele>
        <time>2000-05-11T13:31:27.989</time>
      </trkpt>
      <trkpt lat="42.53953" lon="2.0479">
        <ele>1790.6092693429</ele>
        <time>2000-05-11T13:31:28.989</time>
      </trkpt>
      <trkpt lat="42.53952" lon="2.04791">
        <ele>1790.9440226944</ele>
        <time>2000-05-11T13:31:29.988</time>
      </trkpt>
      <trkpt lat="42.53952" lon="2.04791">
        <ele>1791.0924811751</ele>
        <time>2000-05-11T13:31:30.988</time>
      </trkpt>
      <trkpt lat="42.53951" lon="2.04794">
        <ele>1791.121896822</ele>
        <time>2000-05-11T13:31:31.988</time>
      </trkpt>
      <trkpt lat="42.5395" lon="2.04795">
        <ele>1790.7535327623</ele>
        <time>2000-05-11T13:31:32.988</time>
      </trkpt>
      <trkpt lat="42.53949" lon="2.04796">
        <ele>1790.054145951</ele>
        <time>2000-05-11T13:31:33.988</time>
      </trkpt>
      <trkpt lat="42.53949" lon="2.04797">
        <ele>1789.3874604113</ele>
        <time>2000-05-11T13:31:34.988</time>
      </trkpt>
      <trkpt lat="42.53948" lon="2.04798">
        <ele>1788.5741224358</ele>
        <time>2000-05-11T13:31:35.988</time>
      </trkpt>
      <trkpt lat="42.53947" lon="2.04799">
        <ele>1787.620605626</ele>
        <time>2000-05-11T13:31:36.988</time>
      </trkpt>
      <trkpt lat="42.53947" lon="2.04799">
        <ele>1786.8121323083</ele>
        <time>2000-05-11T13:31:37.988</time>
      </trkpt>
      <trkpt lat="42.53946" lon="2.04799">
        <ele>1786.4202698421</ele>
        <time>2000-05-11T13:31:38.988</time>
      </trkpt>
      <trkpt lat="42.53945" lon="2.04799">
        <ele>1786.1867064508</ele>
        <time>2000-05-11T13:31:39.988</time>
      </trkpt>
      <trkpt lat="42.53945" lon="2.04801">
        <ele>1786.2215793792</ele>
        <time>2000-05-11T13:31:40.988</time>
      </trkpt>
      <trkpt lat="42.53945" lon="2.04801">
        <ele>1786.5156739756</ele>
        <time>2000-05-11T13:31:41.988</time>
      </trkpt>
      <trkpt lat="42.53943" lon="2.04802">
        <ele>1786.5764046073</ele>
        <time>2000-05-11T13:31:42.987</time>
      </trkpt>
      <trkpt lat="42.53943" lon="2.04804">
        <ele>1786.4827291634</ele>
        <time>2000-05-11T13:31:43.987</time>
      </trkpt>
      <trkpt lat="42.53942" lon="2.04805">
        <ele>1785.9358690966</ele>
        <time>2000-05-11T13:31:44.987</time>
      </trkpt>
      <trkpt lat="42.5394" lon="2.04805">
        <ele>1785.105868566</ele>
        <time>2000-05-11T13:31:45.987</time>
      </trkpt>
      <trkpt lat="42.53939" lon="2.04806">
        <ele>1784.2038951645</ele>
        <time>2000-05-11T13:31:46.987</time>
      </trkpt>
      <trkpt lat="42.53938" lon="2.04807">
        <ele>1783.8279342836</ele>
        <time>2000-05-11T13:31:47.985</time>
      </trkpt>
      <trkpt lat="42.53937" lon="2.04809">
        <ele>1783.5795882951</ele>
        <time>2000-05-11T13:31:48.985</time>
      </trkpt>
      <trkpt lat="42.53936" lon="2.04811">
        <ele>1783.8182488019</ele>
        <time>2000-05-11T13:31:49.985</time>
      </trkpt>
      <trkpt lat="42.53935" lon="2.04812">
        <ele>1784.3999996452</ele>
        <time>2000-05-11T13:31:50.985</time>
      </trkpt>
      <trkpt lat="42.53935" lon="2.04813">
        <ele>1784.9859007237</ele>
        <time>2000-05-11T13:31:51.985</time>
      </trkpt>
      <trkpt lat="42.53935" lon="2.04814">
        <ele>1785.1739976212</ele>
        <time>2000-05-11T13:31:52.985</time>
      </trkpt>
      <trkpt lat="42.53934" lon="2.04815">
        <ele>1785.1649230266</ele>
        <time>2000-05-11T13:31:53.985</time>
      </trkpt>
      <trkpt lat="42.53933" lon="2.04815">
        <ele>1784.840070756</ele>
        <time>2000-05-11T13:31:54.985</time>
      </trkpt>
      <trkpt lat="42.53932" lon="2.04816">
        <ele>1784.1116452307</ele>
        <time>2000-05-11T13:31:55.985</time>
      </trkpt>
      <trkpt lat="42.53931" lon="2.04816">
        <ele>1783.5347230596</ele>
        <time>2000-05-11T13:31:56.985</time>
      </trkpt>
      <trkpt lat="42.53931" lon="2.04816">
        <ele>1783.0629565138</ele>
        <time>2000-05-11T13:31:57.985</time>
      </trkpt>
      <trkpt lat="42.53931" lon="2.04817">
        <ele>1782.6628534045</ele>
        <time>2000-05-11T13:31:58.985</time>
      </trkpt>
      <trkpt lat="42.5393" lon="2.04818">
        <ele>1782.4874799559</ele>
        <time>2000-05-11T13:31:59.985</time>
      </trkpt>
      <trkpt lat="42.53929" lon="2.04818">
        <ele>1782.6386202075</ele>
        <time>2000-05-11T13:32:00.982</time>
      </trkpt>
      <trkpt lat="42.53928" lon="2.04817">
        <ele>1782.4685975969</ele>
        <time>2000-05-11T13:32:01.982</time>
      </trkpt>
      <trkpt lat="42.53927" lon="2.04817">
        <ele>1782.242843602</ele>
        <time>2000-05-11T13:32:02.982</time>
      </trkpt>
      <trkpt lat="42.53926" lon="2.04819">
        <ele>1782.0960429121</ele>
        <time>2000-05-11T13:32:03.982</time>
      </trkpt>
      <trkpt lat="42.53926" lon="2.0482">
        <ele>1781.7277970081</ele>
        <time>2000-05-11T13:32:04.982</time>
      </trkpt>
      <trkpt lat="42.53925" lon="2.04821">
        <ele>1781.2047836887</ele>
        <time>2000-05-11T13:32:05.982</time>
      </trkpt>
      <trkpt lat="42.53924" lon="2.04821">
        <ele>1781.2565972582</ele>
        <time>2000-05-11T13:32:06.982</time>
      </trkpt>
      <trkpt lat="42.53923" lon="2.04822">
        <ele>1781.1863486478</ele>
        <time>2000-05-11T13:32:07.982</time>
      </trkpt>
      <trkpt lat="42.53922" lon="2.04823">
        <ele>1780.9554880228</ele>
        <time>2000-05-11T13:32:08.982</time>
      </trkpt>
      <trkpt lat="42.5392" lon="2.04826">
        <ele>1781.6062261717</ele>
        <time>2000-05-11T13:32:09.982</time>
      </trkpt>
      <trkpt lat="42.53919" lon="2.04827">
        <ele>1782.6472637724</ele>
        <time>2000-05-11T13:32:10.982</time>
      </trkpt>
      <trkpt lat="42.53919" lon="2.04827">
        <ele>1783.3509566277</ele>
        <time>2000-05-11T13:32:11.982</time>
      </trkpt>
      <trkpt lat="42.53919" lon="2.04827">
        <ele>1784.2324430471</ele>
        <time>2000-05-11T13:32:12.982</time>
      </trkpt>
      <trkpt lat="42.53918" lon="2.04828">
        <ele>1785.331339696</ele>
        <time>2000-05-11T13:32:13.982</time>
      </trkpt>
      <trkpt lat="42.53916" lon="2.04828">
        <ele>1786.1579159511</ele>
        <time>2000-05-11T13:32:14.982</time>
      </trkpt>
      <trkpt lat="42.53916" lon="2.04829">
        <ele>1786.5221408863</ele>
        <time>2000-05-11T13:32:15.983</time>
      </trkpt>
      <trkpt lat="42.53915" lon="2.0483">
        <ele>1786.5188042605</ele>
        <time>2000-05-11T13:32:16.983</time>
      </trkpt>
      <trkpt lat="42.53913" lon="2.04831">
        <ele>1786.2080960859</ele>
        <time>2000-05-11T13:32:17.983</time>
      </trkpt>
      <trkpt lat="42.53912" lon="2.04832">
        <ele>1785.8225361446</ele>
        <time>2000-05-11T13:32:18.983</time>
      </trkpt>
      <trkpt lat="42.53911" lon="2.04833">
        <ele>1785.3460175058</ele>
        <time>2000-05-11T13:32:19.983</time>
      </trkpt>
      <trkpt lat="42.5391" lon="2.04833">
        <ele>1785.1649487233</ele>
        <time>2000-05-11T13:32:20.983</time>
      </trkpt>
      <trkpt lat="42.5391" lon="2.04835">
        <ele>1785.5771317951</ele>
        <time>2000-05-11T13:32:21.983</time>
      </trkpt>
      <trkpt lat="42.5391" lon="2.04836">
        <ele>1786.2212743329</ele>
        <time>2000-05-11T13:32:22.983</time>
      </trkpt>
      <trkpt lat="42.5391" lon="2.04836">
        <ele>1786.8583118813</ele>
        <time>2000-05-11T13:32:23.983</time>
      </trkpt>
      <trkpt lat="42.53909" lon="2.04836">
        <ele>1786.9852496929</ele>
        <time>2000-05-11T13:32:24.981</time>
      </trkpt>
      <trkpt lat="42.53909" lon="2.04836">
        <ele>1786.9388827298</ele>
        <time>2000-05-11T13:32:25.981</time>
      </trkpt>
      <trkpt lat="42.53907" lon="2.04835">
        <ele>1786.419231404</ele>
        <time>2000-05-11T13:32:26.981</time>
      </trkpt>
      <trkpt lat="42.53905" lon="2.04834">
        <ele>1786.2085431866</ele>
        <time>2000-05-11T13:32:27.981</time>
      </trkpt>
      <trkpt lat="42.53904" lon="2.04835">
        <ele>1786.2723167254</ele>
        <time>2000-05-11T13:32:28.981</time>
      </trkpt>
      <trkpt lat="42.53904" lon="2.04835">
        <ele>1786.5327354377</ele>
        <time>2000-05-11T13:32:29.981</time>
      </trkpt>
      <trkpt lat="42.53904" lon="2.04835">
        <ele>1786.7931541501</ele>
        <time>2000-05-11T13:32:30.981</time>
      </trkpt>
      <trkpt lat="42.53905" lon="2.04836">
        <ele>1786.8175769063</ele>
        <time>2000-05-11T13:32:31.981</time>
      </trkpt>
      <trkpt lat="42.53904" lon="2.04839">
        <ele>1785.9919217264</ele>
        <time>2000-05-11T13:32:32.983</time>
      </trkpt>
      <trkpt lat="42.53904" lon="2.04839">
        <ele>1784.8918047905</ele>
        <time>2000-05-11T13:32:33.983</time>
      </trkpt>
      <trkpt lat="42.53904" lon="2.0484">
        <ele>1783.4143979335</ele>
        <time>2000-05-11T13:32:34.983</time>
      </trkpt>
      <trkpt lat="42.53904" lon="2.04842">
        <ele>1782.1954507438</ele>
        <time>2000-05-11T13:32:35.983</time>
      </trkpt>
      <trkpt lat="42.53903" lon="2.04844">
        <ele>1781.925634902</ele>
        <time>2000-05-11T13:32:36.983</time>
      </trkpt>
      <trkpt lat="42.53903" lon="2.04844">
        <ele>1782.2723459708</ele>
        <time>2000-05-11T13:32:37.983</time>
      </trkpt>
      <trkpt lat="42.53903" lon="2.04845">
        <ele>1782.2838346986</ele>
        <time>2000-05-11T13:32:38.983</time>
      </trkpt>
      <trkpt lat="42.53901" lon="2.04848">
        <ele>1782.6979957215</ele>
        <time>2000-05-11T13:32:39.983</time>
      </trkpt>
      <trkpt lat="42.539" lon="2.0485">
        <ele>1783.0951732168</ele>
        <time>2000-05-11T13:32:40.983</time>
      </trkpt>
      <trkpt lat="42.53899" lon="2.0485">
        <ele>1783.4194554118</ele>
        <time>2000-05-11T13:32:41.983</time>
      </trkpt>
      <trkpt lat="42.53898" lon="2.04851">
        <ele>1783.7956500931</ele>
        <time>2000-05-11T13:32:42.983</time>
      </trkpt>
      <trkpt lat="42.53898" lon="2.04852">
        <ele>1784.4240604034</ele>
        <time>2000-05-11T13:32:43.983</time>
      </trkpt>
      <trkpt lat="42.53897" lon="2.04853">
        <ele>1785.1787421906</ele>
        <time>2000-05-11T13:32:44.983</time>
      </trkpt>
      <trkpt lat="42.53897" lon="2.04854">
        <ele>1785.8121902246</ele>
        <time>2000-05-11T13:32:45.983</time>
      </trkpt>
      <trkpt lat="42.53896" lon="2.04854">
        <ele>1786.3657547666</ele>
        <time>2000-05-11T13:32:46.983</time>
      </trkpt>
      <trkpt lat="42.53894" lon="2.04856">
        <ele>1786.5682115911</ele>
        <time>2000-05-11T13:32:47.983</time>
      </trkpt>
      <trkpt lat="42.53894" lon="2.04857">
        <ele>1786.6143581778</ele>
        <time>2000-05-11T13:32:48.983</time>
      </trkpt>
      <trkpt lat="42.53893" lon="2.04857">
        <ele>1786.3356360538</ele>
        <time>2000-05-11T13:32:49.983</time>
      </trkpt>
      <trkpt lat="42.53893" lon="2.04857">
        <ele>1785.9366715435</ele>
        <time>2000-05-11T13:32:50.983</time>
      </trkpt>
      <trkpt lat="42.53894" lon="2.04859">
        <ele>1785.299828974</ele>
        <time>2000-05-11T13:32:51.983</time>
      </trkpt>
      <trkpt lat="42.53894" lon="2.0486">
        <ele>1784.7506602187</ele>
        <time>2000-05-11T13:32:52.983</time>
      </trkpt>
      <trkpt lat="42.53894" lon="2.04862">
        <ele>1784.450382022</ele>
        <time>2000-05-11T13:32:53.983</time>
      </trkpt>
      <trkpt lat="42.53894" lon="2.04863">
        <ele>1784.1999765744</ele>
        <time>2000-05-11T13:32:54.983</time>
      </trkpt>
      <trkpt lat="42.53894" lon="2.04863">
        <ele>1783.9495711269</ele>
        <time>2000-05-11T13:32:55.983</time>
      </trkpt>
      <trkpt lat="42.53896" lon="2.04865">
        <ele>1782.7816006513</ele>
        <time>2000-05-11T13:32:56.982</time>
      </trkpt>
      <trkpt lat="42.53896" lon="2.04867">
        <ele>1781.6226631712</ele>
        <time>2000-05-11T13:32:57.982</time>
      </trkpt>
      <trkpt lat="42.53896" lon="2.04868">
        <ele>1780.3330686707</ele>
        <time>2000-05-11T13:32:58.982</time>
      </trkpt>
      <trkpt lat="42.53896" lon="2.04869">
        <ele>1779.1788613459</ele>
        <time>2000-05-11T13:32:59.982</time>
      </trkpt>
      <trkpt lat="42.53896" lon="2.04869">
        <ele>1778.0246540211</ele>
        <time>2000-05-11T13:33:00.982</time>
      </trkpt>
      <trkpt lat="42.53895" lon="2.04871">
        <ele>1777.6955235371</ele>
        <time>2000-05-11T13:33:01.982</time>
      </trkpt>
      <trkpt lat="42.53894" lon="2.04873">
        <ele>1777.5056712598</ele>
        <time>2000-05-11T13:33:02.982</time>
      </trkpt>
      <trkpt lat="42.53893" lon="2.04874">
        <ele>1777.4849381629</ele>
        <time>2000-05-11T13:33:03.982</time>
      </trkpt>
      <trkpt lat="42.53893" lon="2.04875">
        <ele>1777.7526569417</ele>
        <time>2000-05-11T13:33:04.982</time>
      </trkpt>
      <trkpt lat="42.53892" lon="2.04875">
        <ele>1778.153265373</ele>
        <time>2000-05-11T13:33:05.982</time>
      </trkpt>
      <trkpt lat="42.53892" lon="2.04875">
        <ele>1778.5714775205</ele>
        <time>2000-05-11T13:33:06.982</time>
      </trkpt>
      <trkpt lat="42.53892" lon="2.04877">
        <ele>1779.4654914809</ele>
        <time>2000-05-11T13:33:07.982</time>
      </trkpt>
      <trkpt lat="42.53892" lon="2.04879">
        <ele>1780.3926773027</ele>
        <time>2000-05-11T13:33:08.982</time>
      </trkpt>
      <trkpt lat="42.53892" lon="2.0488">
        <ele>1781.0850246208</ele>
        <time>2000-05-11T13:33:09.982</time>
      </trkpt>
      <trkpt lat="42.53891" lon="2.04881">
        <ele>1781.4691599511</ele>
        <time>2000-05-11T13:33:10.982</time>
      </trkpt>
      <trkpt lat="42.5389" lon="2.04883">
        <ele>1782.0241636321</ele>
        <time>2000-05-11T13:33:11.982</time>
      </trkpt>
      <trkpt lat="42.5389" lon="2.04885">
        <ele>1781.8161555048</ele>
        <time>2000-05-11T13:33:12.984</time>
      </trkpt>
      <trkpt lat="42.5389" lon="2.04886">
        <ele>1781.3363756839</ele>
        <time>2000-05-11T13:33:13.984</time>
      </trkpt>
      <trkpt lat="42.53889" lon="2.04887">
        <ele>1780.9986579107</ele>
        <time>2000-05-11T13:33:14.984</time>
      </trkpt>
      <trkpt lat="42.53889" lon="2.04888">
        <ele>1781.0249194393</ele>
        <time>2000-05-11T13:33:15.984</time>
      </trkpt>
      <trkpt lat="42.53888" lon="2.0489">
        <ele>1781.2874129886</ele>
        <time>2000-05-11T13:33:16.984</time>
      </trkpt>
      <trkpt lat="42.53888" lon="2.0489">
        <ele>1781.9003267482</ele>
        <time>2000-05-11T13:33:17.984</time>
      </trkpt>
      <trkpt lat="42.53888" lon="2.04891">
        <ele>1783.021492481</ele>
        <time>2000-05-11T13:33:18.984</time>
      </trkpt>
      <trkpt lat="42.53888" lon="2.04891">
        <ele>1783.9349377291</ele>
        <time>2000-05-11T13:33:19.984</time>
      </trkpt>
      <trkpt lat="42.53888" lon="2.04893">
        <ele>1784.317293434</ele>
        <time>2000-05-11T13:33:20.984</time>
      </trkpt>
      <trkpt lat="42.53887" lon="2.04895">
        <ele>1784.4726233194</ele>
        <time>2000-05-11T13:33:21.984</time>
      </trkpt>
      <trkpt lat="42.53887" lon="2.04897">
        <ele>1784.4522124246</ele>
        <time>2000-05-11T13:33:22.984</time>
      </trkpt>
      <trkpt lat="42.53885" lon="2.04899">
        <ele>1783.7522772579</ele>
        <time>2000-05-11T13:33:23.984</time>
      </trkpt>
      <trkpt lat="42.53884" lon="2.049">
        <ele>1782.8419230761</ele>
        <time>2000-05-11T13:33:24.984</time>
      </trkpt>
      <trkpt lat="42.53884" lon="2.04901">
        <ele>1782.1153279211</ele>
        <time>2000-05-11T13:33:25.984</time>
      </trkpt>
      <trkpt lat="42.53883" lon="2.04903">
        <ele>1781.2304804379</ele>
        <time>2000-05-11T13:33:26.984</time>
      </trkpt>
      <trkpt lat="42.53883" lon="2.04904">
        <ele>1780.886306675</ele>
        <time>2000-05-11T13:33:27.984</time>
      </trkpt>
      <trkpt lat="42.53883" lon="2.04906">
        <ele>1781.1590616565</ele>
        <time>2000-05-11T13:33:28.984</time>
      </trkpt>
      <trkpt lat="42.53883" lon="2.04907">
        <ele>1781.7893172009</ele>
        <time>2000-05-11T13:33:29.984</time>
      </trkpt>
      <trkpt lat="42.53883" lon="2.04907">
        <ele>1782.5782462951</ele>
        <time>2000-05-11T13:33:30.984</time>
      </trkpt>
      <trkpt lat="42.53882" lon="2.04908">
        <ele>1783.5547138194</ele>
        <time>2000-05-11T13:33:31.983</time>
      </trkpt>
      <trkpt lat="42.53882" lon="2.04909">
        <ele>1784.0432307798</ele>
        <time>2000-05-11T13:33:32.983</time>
      </trkpt>
      <trkpt lat="42.53881" lon="2.0491">
        <ele>1784.4136091355</ele>
        <time>2000-05-11T13:33:33.983</time>
      </trkpt>
      <trkpt lat="42.53881" lon="2.04911">
        <ele>1784.8192449218</ele>
        <time>2000-05-11T13:33:34.983</time>
      </trkpt>
      <trkpt lat="42.53881" lon="2.04912">
        <ele>1785.3063318051</ele>
        <time>2000-05-11T13:33:35.983</time>
      </trkpt>
      <trkpt lat="42.5388" lon="2.04913">
        <ele>1785.8463491861</ele>
        <time>2000-05-11T13:33:36.983</time>
      </trkpt>
      <trkpt lat="42.5388" lon="2.04915">
        <ele>1786.5835593004</ele>
        <time>2000-05-11T13:33:37.983</time>
      </trkpt>
      <trkpt lat="42.53879" lon="2.04916">
        <ele>1787.0832363222</ele>
        <time>2000-05-11T13:33:38.983</time>
      </trkpt>
      <trkpt lat="42.53878" lon="2.04916">
        <ele>1787.4406301789</ele>
        <time>2000-05-11T13:33:39.983</time>
      </trkpt>
      <trkpt lat="42.53878" lon="2.04918">
        <ele>1787.7598003345</ele>
        <time>2000-05-11T13:33:40.983</time>
      </trkpt>
      <trkpt lat="42.53876" lon="2.04918">
        <ele>1787.4431775389</ele>
        <time>2000-05-11T13:33:41.983</time>
      </trkpt>
      <trkpt lat="42.53876" lon="2.04919">
        <ele>1787.0580825193</ele>
        <time>2000-05-11T13:33:42.983</time>
      </trkpt>
      <trkpt lat="42.53876" lon="2.0492">
        <ele>1786.8756920408</ele>
        <time>2000-05-11T13:33:43.983</time>
      </trkpt>
      <trkpt lat="42.53876" lon="2.04922">
        <ele>1786.2400581129</ele>
        <time>2000-05-11T13:33:44.983</time>
      </trkpt>
      <trkpt lat="42.53876" lon="2.04924">
        <ele>1785.311445279</ele>
        <time>2000-05-11T13:33:45.983</time>
      </trkpt>
      <trkpt lat="42.53875" lon="2.04925">
        <ele>1784.9290510524</ele>
        <time>2000-05-11T13:33:46.983</time>
      </trkpt>
      <trkpt lat="42.53874" lon="2.04926">
        <ele>1784.6196590379</ele>
        <time>2000-05-11T13:33:47.983</time>
      </trkpt>
      <trkpt lat="42.53874" lon="2.04925">
        <ele>1783.501683131</ele>
        <time>2000-05-11T13:33:48.983</time>
      </trkpt>
      <trkpt lat="42.53873" lon="2.04926">
        <ele>1782.5622829678</ele>
        <time>2000-05-11T13:33:49.983</time>
      </trkpt>
      <trkpt lat="42.53873" lon="2.04927">
        <ele>1782.0694229594</ele>
        <time>2000-05-11T13:33:50.983</time>
      </trkpt>
      <trkpt lat="42.53873" lon="2.04929">
        <ele>1781.5413484503</ele>
        <time>2000-05-11T13:33:51.983</time>
      </trkpt>
      <trkpt lat="42.53872" lon="2.04929">
        <ele>1780.7403803553</ele>
        <time>2000-05-11T13:33:52.983</time>
      </trkpt>
      <trkpt lat="42.53872" lon="2.0493">
        <ele>1780.5549595805</ele>
        <time>2000-05-11T13:33:53.983</time>
      </trkpt>
      <trkpt lat="42.53871" lon="2.04931">
        <ele>1780.6585631076</ele>
        <time>2000-05-11T13:33:54.983</time>
      </trkpt>
      <trkpt lat="42.5387" lon="2.04932">
        <ele>1780.4574806679</ele>
        <time>2000-05-11T13:33:55.983</time>
      </trkpt>
      <trkpt lat="42.5387" lon="2.04933">
        <ele>1779.8875753889</ele>
        <time>2000-05-11T13:33:56.983</time>
      </trkpt>
      <trkpt lat="42.5387" lon="2.04934">
        <ele>1779.5079659197</ele>
        <time>2000-05-11T13:33:57.983</time>
      </trkpt>
      <trkpt lat="42.5387" lon="2.04934">
        <ele>1779.2192677964</ele>
        <time>2000-05-11T13:33:58.983</time>
      </trkpt>
      <trkpt lat="42.53871" lon="2.04936">
        <ele>1778.9515270149</ele>
        <time>2000-05-11T13:33:59.983</time>
      </trkpt>
      <trkpt lat="42.53871" lon="2.04937">
        <ele>1779.0996560283</ele>
        <time>2000-05-11T13:34:00.983</time>
      </trkpt>
      <trkpt lat="42.53872" lon="2.04939">
        <ele>1779.6486198818</ele>
        <time>2000-05-11T13:34:01.981</time>
      </trkpt>
      <trkpt lat="42.53871" lon="2.04941">
        <ele>1779.8408580029</ele>
        <time>2000-05-11T13:34:02.981</time>
      </trkpt>
      <trkpt lat="42.53871" lon="2.04944">
        <ele>1779.839018365</ele>
        <time>2000-05-11T13:34:03.981</time>
      </trkpt>
      <trkpt lat="42.5387" lon="2.04946">
        <ele>1779.783524074</ele>
        <time>2000-05-11T13:34:04.981</time>
      </trkpt>
      <trkpt lat="42.53869" lon="2.04948">
        <ele>1779.4671021072</ele>
        <time>2000-05-11T13:34:05.981</time>
      </trkpt>
      <trkpt lat="42.53867" lon="2.0495">
        <ele>1778.9907618996</ele>
        <time>2000-05-11T13:34:06.981</time>
      </trkpt>
      <trkpt lat="42.53865" lon="2.04951">
        <ele>1778.8974962793</ele>
        <time>2000-05-11T13:34:07.981</time>
      </trkpt>
      <trkpt lat="42.53865" lon="2.04951">
        <ele>1778.923047917</ele>
        <time>2000-05-11T13:34:08.981</time>
      </trkpt>
      <trkpt lat="42.53865" lon="2.04951">
        <ele>1779.1124921618</ele>
        <time>2000-05-11T13:34:09.981</time>
      </trkpt>
      <trkpt lat="42.53865" lon="2.04952">
        <ele>1779.1046434816</ele>
        <time>2000-05-11T13:34:10.981</time>
      </trkpt>
      <trkpt lat="42.53865" lon="2.04956">
        <ele>1779.5418959722</ele>
        <time>2000-05-11T13:34:11.983</time>
      </trkpt>
      <trkpt lat="42.53865" lon="2.04957">
        <ele>1779.8704200737</ele>
        <time>2000-05-11T13:34:12.983</time>
      </trkpt>
      <trkpt lat="42.53864" lon="2.04958">
        <ele>1780.5617582751</ele>
        <time>2000-05-11T13:34:13.983</time>
      </trkpt>
      <trkpt lat="42.53863" lon="2.0496">
        <ele>1781.2903564185</ele>
        <time>2000-05-11T13:34:14.984</time>
      </trkpt>
      <trkpt lat="42.53862" lon="2.04961">
        <ele>1782.0872123709</ele>
        <time>2000-05-11T13:34:15.984</time>
      </trkpt>
      <trkpt lat="42.53862" lon="2.04963">
        <ele>1782.4737965524</ele>
        <time>2000-05-11T13:34:16.984</time>
      </trkpt>
      <trkpt lat="42.53861" lon="2.04964">
        <ele>1782.9638430379</ele>
        <time>2000-05-11T13:34:17.984</time>
      </trkpt>
      <trkpt lat="42.5386" lon="2.04965">
        <ele>1783.205391952</ele>
        <time>2000-05-11T13:34:18.984</time>
      </trkpt>
      <trkpt lat="42.5386" lon="2.04965">
        <ele>1783.2762830434</ele>
        <time>2000-05-11T13:34:19.984</time>
      </trkpt>
      <trkpt lat="42.53859" lon="2.04967">
        <ele>1783.1090651875</ele>
        <time>2000-05-11T13:34:20.984</time>
      </trkpt>
      <trkpt lat="42.53859" lon="2.04969">
        <ele>1783.1438380521</ele>
        <time>2000-05-11T13:34:21.984</time>
      </trkpt>
      <trkpt lat="42.5386" lon="2.0497">
        <ele>1783.4136142902</ele>
        <time>2000-05-11T13:34:22.984</time>
      </trkpt>
      <trkpt lat="42.5386" lon="2.0497">
        <ele>1783.644334501</ele>
        <time>2000-05-11T13:34:23.984</time>
      </trkpt>
      <trkpt lat="42.53859" lon="2.04971">
        <ele>1784.2007100426</ele>
        <time>2000-05-11T13:34:24.984</time>
      </trkpt>
      <trkpt lat="42.53858" lon="2.04972">
        <ele>1785.0103769777</ele>
        <time>2000-05-11T13:34:25.984</time>
      </trkpt>
      <trkpt lat="42.53858" lon="2.04976">
        <ele>1786.0807376008</ele>
        <time>2000-05-11T13:34:26.985</time>
      </trkpt>
      <trkpt lat="42.53859" lon="2.04977">
        <ele>1786.9412497891</ele>
        <time>2000-05-11T13:34:27.985</time>
      </trkpt>
      <trkpt lat="42.53858" lon="2.04978">
        <ele>1787.6865553712</ele>
        <time>2000-05-11T13:34:28.985</time>
      </trkpt>
      <trkpt lat="42.53858" lon="2.0498">
        <ele>1788.112012957</ele>
        <time>2000-05-11T13:34:29.985</time>
      </trkpt>
      <trkpt lat="42.53858" lon="2.04981">
        <ele>1788.74228175</ele>
        <time>2000-05-11T13:34:30.985</time>
      </trkpt>
      <trkpt lat="42.53858" lon="2.04981">
        <ele>1788.865440668</ele>
        <time>2000-05-11T13:34:31.985</time>
      </trkpt>
      <trkpt lat="42.53856" lon="2.04983">
        <ele>1789.0203363486</ele>
        <time>2000-05-11T13:34:32.987</time>
      </trkpt>
      <trkpt lat="42.53855" lon="2.04984">
        <ele>1789.3709096748</ele>
        <time>2000-05-11T13:34:33.987</time>
      </trkpt>
      <trkpt lat="42.53854" lon="2.04985">
        <ele>1789.5658027859</ele>
        <time>2000-05-11T13:34:34.987</time>
      </trkpt>
      <trkpt lat="42.53853" lon="2.04986">
        <ele>1789.3632596852</ele>
        <time>2000-05-11T13:34:35.987</time>
      </trkpt>
      <trkpt lat="42.53851" lon="2.04988">
        <ele>1788.7647786351</ele>
        <time>2000-05-11T13:34:36.987</time>
      </trkpt>
      <trkpt lat="42.53851" lon="2.0499">
        <ele>1787.823535507</ele>
        <time>2000-05-11T13:34:37.987</time>
      </trkpt>
      <trkpt lat="42.5385" lon="2.04991">
        <ele>1786.847778929</ele>
        <time>2000-05-11T13:34:38.987</time>
      </trkpt>
      <trkpt lat="42.5385" lon="2.04991">
        <ele>1785.9696854072</ele>
        <time>2000-05-11T13:34:39.987</time>
      </trkpt>
      <trkpt lat="42.5385" lon="2.04992">
        <ele>1785.1585631732</ele>
        <time>2000-05-11T13:34:40.987</time>
      </trkpt>
      <trkpt lat="42.5385" lon="2.04993">
        <ele>1784.5356849644</ele>
        <time>2000-05-11T13:34:41.987</time>
      </trkpt>
      <trkpt lat="42.53848" lon="2.04994">
        <ele>1784.1992608508</ele>
        <time>2000-05-11T13:34:42.984</time>
      </trkpt>
      <trkpt lat="42.53846" lon="2.04994">
        <ele>1784.027480098</ele>
        <time>2000-05-11T13:34:43.984</time>
      </trkpt>
      <trkpt lat="42.53845" lon="2.04994">
        <ele>1783.8972558597</ele>
        <time>2000-05-11T13:34:44.984</time>
      </trkpt>
      <trkpt lat="42.53845" lon="2.04994">
        <ele>1783.9594932107</ele>
        <time>2000-05-11T13:34:45.984</time>
      </trkpt>
      <trkpt lat="42.53845" lon="2.04996">
        <ele>1784.128848983</ele>
        <time>2000-05-11T13:34:46.984</time>
      </trkpt>
      <trkpt lat="42.53845" lon="2.04997">
        <ele>1784.4531576948</ele>
        <time>2000-05-11T13:34:47.984</time>
      </trkpt>
      <trkpt lat="42.53843" lon="2.04997">
        <ele>1784.5689762156</ele>
        <time>2000-05-11T13:34:48.973</time>
      </trkpt>
      <trkpt lat="42.53842" lon="2.04997">
        <ele>1784.9069394007</ele>
        <time>2000-05-11T13:34:49.973</time>
      </trkpt>
      <trkpt lat="42.53841" lon="2.04997">
        <ele>1785.6287876498</ele>
        <time>2000-05-11T13:34:50.973</time>
      </trkpt>
      <trkpt lat="42.53841" lon="2.04997">
        <ele>1786.4512114018</ele>
        <time>2000-05-11T13:34:51.973</time>
      </trkpt>
      <trkpt lat="42.5384" lon="2.04998">
        <ele>1786.6370692488</ele>
        <time>2000-05-11T13:34:52.973</time>
      </trkpt>
      <trkpt lat="42.5384" lon="2.04998">
        <ele>1786.8208163362</ele>
        <time>2000-05-11T13:34:53.973</time>
      </trkpt>
      <trkpt lat="42.53839" lon="2.05002">
        <ele>1786.795966834</ele>
        <time>2000-05-11T13:34:54.973</time>
      </trkpt>
      <trkpt lat="42.53838" lon="2.05002">
        <ele>1786.1560840895</ele>
        <time>2000-05-11T13:34:55.973</time>
      </trkpt>
      <trkpt lat="42.53837" lon="2.05005">
        <ele>1785.4044365941</ele>
        <time>2000-05-11T13:34:56.976</time>
      </trkpt>
      <trkpt lat="42.53836" lon="2.05006">
        <ele>1784.936197703</ele>
        <time>2000-05-11T13:34:57.976</time>
      </trkpt>
      <trkpt lat="42.53835" lon="2.05007">
        <ele>1784.4503147464</ele>
        <time>2000-05-11T13:34:58.976</time>
      </trkpt>
      <trkpt lat="42.53835" lon="2.05009">
        <ele>1784.3199773379</ele>
        <time>2000-05-11T13:34:59.976</time>
      </trkpt>
      <trkpt lat="42.53834" lon="2.0501">
        <ele>1784.8811540835</ele>
        <time>2000-05-11T13:35:00.976</time>
      </trkpt>
      <trkpt lat="42.53834" lon="2.0501">
        <ele>1785.5450774183</ele>
        <time>2000-05-11T13:35:01.976</time>
      </trkpt>
      <trkpt lat="42.53833" lon="2.05011">
        <ele>1786.2584496828</ele>
        <time>2000-05-11T13:35:02.976</time>
      </trkpt>
      <trkpt lat="42.53833" lon="2.05011">
        <ele>1786.9894660126</ele>
        <time>2000-05-11T13:35:03.976</time>
      </trkpt>
      <trkpt lat="42.53831" lon="2.05011">
        <ele>1786.7627143515</ele>
        <time>2000-05-11T13:35:04.977</time>
      </trkpt>
      <trkpt lat="42.5383" lon="2.05012">
        <ele>1785.6417995567</ele>
        <time>2000-05-11T13:35:05.977</time>
      </trkpt>
      <trkpt lat="42.53829" lon="2.05013">
        <ele>1784.3071820164</ele>
        <time>2000-05-11T13:35:06.977</time>
      </trkpt>
      <trkpt lat="42.53829" lon="2.05014">
        <ele>1782.5913007945</ele>
        <time>2000-05-11T13:35:07.977</time>
      </trkpt>
      <trkpt lat="42.53828" lon="2.05014">
        <ele>1780.9086078698</ele>
        <time>2000-05-11T13:35:08.977</time>
      </trkpt>
      <trkpt lat="42.53827" lon="2.05015">
        <ele>1779.4755041203</ele>
        <time>2000-05-11T13:35:09.977</time>
      </trkpt>
      <trkpt lat="42.53825" lon="2.05016">
        <ele>1777.8386593858</ele>
        <time>2000-05-11T13:35:10.977</time>
      </trkpt>
      <trkpt lat="42.53825" lon="2.05017">
        <ele>1776.3432593511</ele>
        <time>2000-05-11T13:35:11.977</time>
      </trkpt>
      <trkpt lat="42.53825" lon="2.05017">
        <ele>1775.3601046195</ele>
        <time>2000-05-11T13:35:12.977</time>
      </trkpt>
      <trkpt lat="42.53824" lon="2.05019">
        <ele>1774.2472649392</ele>
        <time>2000-05-11T13:35:13.977</time>
      </trkpt>
      <trkpt lat="42.53823" lon="2.0502">
        <ele>1774.0395445989</ele>
        <time>2000-05-11T13:35:14.977</time>
      </trkpt>
      <trkpt lat="42.53822" lon="2.05021">
        <ele>1774.8201171787</ele>
        <time>2000-05-11T13:35:15.977</time>
      </trkpt>
      <trkpt lat="42.53821" lon="2.05022">
        <ele>1775.6397634476</ele>
        <time>2000-05-11T13:35:16.977</time>
      </trkpt>
      <trkpt lat="42.5382" lon="2.05024">
        <ele>1776.4085379463</ele>
        <time>2000-05-11T13:35:17.977</time>
      </trkpt>
      <trkpt lat="42.53818" lon="2.05026">
        <ele>1777.6095781315</ele>
        <time>2000-05-11T13:35:18.977</time>
      </trkpt>
      <trkpt lat="42.53818" lon="2.05026">
        <ele>1778.2030276554</ele>
        <time>2000-05-11T13:35:19.977</time>
      </trkpt>
      <trkpt lat="42.53817" lon="2.05026">
        <ele>1778.198042904</ele>
        <time>2000-05-11T13:35:20.977</time>
      </trkpt>
      <trkpt lat="42.53816" lon="2.05028">
        <ele>1777.8900497023</ele>
        <time>2000-05-11T13:35:21.977</time>
      </trkpt>
      <trkpt lat="42.53814" lon="2.05027">
        <ele>1777.6298556367</ele>
        <time>2000-05-11T13:35:22.977</time>
      </trkpt>
      <trkpt lat="42.53813" lon="2.05026">
        <ele>1777.1251437919</ele>
        <time>2000-05-11T13:35:23.977</time>
      </trkpt>
      <trkpt lat="42.53812" lon="2.05026">
        <ele>1776.8982876826</ele>
        <time>2000-05-11T13:35:24.977</time>
      </trkpt>
      <trkpt lat="42.53812" lon="2.05027">
        <ele>1777.131801815</ele>
        <time>2000-05-11T13:35:25.977</time>
      </trkpt>
      <trkpt lat="42.53811" lon="2.05028">
        <ele>1778.0739738608</ele>
        <time>2000-05-11T13:35:26.977</time>
      </trkpt>
      <trkpt lat="42.5381" lon="2.05029">
        <ele>1779.7461087873</ele>
        <time>2000-05-11T13:35:27.977</time>
      </trkpt>
      <trkpt lat="42.5381" lon="2.05029">
        <ele>1781.3269924579</ele>
        <time>2000-05-11T13:35:28.977</time>
      </trkpt>
      <trkpt lat="42.53809" lon="2.05028">
        <ele>1782.9585123505</ele>
        <time>2000-05-11T13:35:29.977</time>
      </trkpt>
      <trkpt lat="42.53809" lon="2.05027">
        <ele>1784.4253907584</ele>
        <time>2000-05-11T13:35:30.977</time>
      </trkpt>
      <trkpt lat="42.53808" lon="2.05026">
        <ele>1785.3836757505</ele>
        <time>2000-05-11T13:35:31.976</time>
      </trkpt>
      <trkpt lat="42.53808" lon="2.05026">
        <ele>1785.6150704961</ele>
        <time>2000-05-11T13:35:32.976</time>
      </trkpt>
      <trkpt lat="42.53808" lon="2.05028">
        <ele>1786.1613328654</ele>
        <time>2000-05-11T13:35:33.976</time>
      </trkpt>
      <trkpt lat="42.53808" lon="2.05028">
        <ele>1786.3791032773</ele>
        <time>2000-05-11T13:35:34.976</time>
      </trkpt>
      <trkpt lat="42.53807" lon="2.05027">
        <ele>1787.1112478275</ele>
        <time>2000-05-11T13:35:35.976</time>
      </trkpt>
      <trkpt lat="42.53807" lon="2.05027">
        <ele>1787.9885388484</ele>
        <time>2000-05-11T13:35:36.976</time>
      </trkpt>
      <trkpt lat="42.53806" lon="2.05027">
        <ele>1789.0945527229</ele>
        <time>2000-05-11T13:35:37.978</time>
      </trkpt>
      <trkpt lat="42.53806" lon="2.05027">
        <ele>1789.8856989738</ele>
        <time>2000-05-11T13:35:38.978</time>
      </trkpt>
      <trkpt lat="42.53806" lon="2.05026">
        <ele>1790.4748467749</ele>
        <time>2000-05-11T13:35:39.979</time>
      </trkpt>
      <trkpt lat="42.53806" lon="2.05026">
        <ele>1790.5015711788</ele>
        <time>2000-05-11T13:35:40.979</time>
      </trkpt>
      <trkpt lat="42.53806" lon="2.05027">
        <ele>1790.5098313769</ele>
        <time>2000-05-11T13:35:41.978</time>
      </trkpt>
      <trkpt lat="42.53806" lon="2.05027">
        <ele>1790.2893687215</ele>
        <time>2000-05-11T13:35:42.978</time>
      </trkpt>
      <trkpt lat="42.53805" lon="2.05027">
        <ele>1790.2653858336</ele>
        <time>2000-05-11T13:35:43.974</time>
      </trkpt>
      <trkpt lat="42.53805" lon="2.05027">
        <ele>1790.4434013953</ele>
        <time>2000-05-11T13:35:44.974</time>
      </trkpt>
      <trkpt lat="42.53806" lon="2.05027">
        <ele>1790.8949001435</ele>
        <time>2000-05-11T13:35:45.976</time>
      </trkpt>
      <trkpt lat="42.53806" lon="2.05027">
        <ele>1791.3648630975</ele>
        <time>2000-05-11T13:35:46.976</time>
      </trkpt>
      <trkpt lat="42.53805" lon="2.05025">
        <ele>1791.1993394375</ele>
        <time>2000-05-11T13:35:47.977</time>
      </trkpt>
      <trkpt lat="42.53805" lon="2.05025">
        <ele>1790.8373360099</ele>
        <time>2000-05-11T13:35:48.977</time>
      </trkpt>
      <trkpt lat="42.53806" lon="2.05027">
        <ele>1791.6155567592</ele>
        <time>2000-05-11T13:35:49.976</time>
      </trkpt>
      <trkpt lat="42.53806" lon="2.05027">
        <ele>1792.1202943221</ele>
        <time>2000-05-11T13:35:50.976</time>
      </trkpt>
      <trkpt lat="42.53805" lon="2.05026">
        <ele>1792.6194233198</ele>
        <time>2000-05-11T13:35:51.975</time>
      </trkpt>
      <trkpt lat="42.53805" lon="2.05026">
        <ele>1793.7540389314</ele>
        <time>2000-05-11T13:35:52.975</time>
      </trkpt>
      <trkpt lat="42.53806" lon="2.05027">
        <ele>1794.8541027576</ele>
        <time>2000-05-11T13:35:53.974</time>
      </trkpt>
      <trkpt lat="42.53806" lon="2.05027">
        <ele>1794.8139424069</ele>
        <time>2000-05-11T13:35:54.974</time>
      </trkpt>
      <trkpt lat="42.53805" lon="2.05029">
        <ele>1794.9187169245</ele>
        <time>2000-05-11T13:35:55.974</time>
      </trkpt>
      <trkpt lat="42.53804" lon="2.0503">
        <ele>1794.6641010312</ele>
        <time>2000-05-11T13:35:56.974</time>
      </trkpt>
      <trkpt lat="42.53804" lon="2.05031">
        <ele>1794.070484571</ele>
        <time>2000-05-11T13:35:57.974</time>
      </trkpt>
      <trkpt lat="42.53804" lon="2.05032">
        <ele>1793.0749899736</ele>
        <time>2000-05-11T13:35:58.974</time>
      </trkpt>
      <trkpt lat="42.53802" lon="2.05033">
        <ele>1791.7024907626</ele>
        <time>2000-05-11T13:35:59.973</time>
      </trkpt>
      <trkpt lat="42.53802" lon="2.05033">
        <ele>1790.1850566834</ele>
        <time>2000-05-11T13:36:00.973</time>
      </trkpt>
      <trkpt lat="42.53801" lon="2.05034">
        <ele>1789.062531746</ele>
        <time>2000-05-11T13:36:01.974</time>
      </trkpt>
      <trkpt lat="42.53801" lon="2.05034">
        <ele>1788.2790073756</ele>
        <time>2000-05-11T13:36:02.974</time>
      </trkpt>
      <trkpt lat="42.53798" lon="2.05036">
        <ele>1787.7268426588</ele>
        <time>2000-05-11T13:36:03.975</time>
      </trkpt>
      <trkpt lat="42.53798" lon="2.05036">
        <ele>1787.5516825555</ele>
        <time>2000-05-11T13:36:04.975</time>
      </trkpt>
      <trkpt lat="42.53798" lon="2.05038">
        <ele>1787.3405718992</ele>
        <time>2000-05-11T13:36:05.975</time>
      </trkpt>
      <trkpt lat="42.53798" lon="2.05039">
        <ele>1787.1217573795</ele>
        <time>2000-05-11T13:36:06.975</time>
      </trkpt>
      <trkpt lat="42.53797" lon="2.05041">
        <ele>1786.8874553632</ele>
        <time>2000-05-11T13:36:07.975</time>
      </trkpt>
      <trkpt lat="42.53795" lon="2.05042">
        <ele>1786.595719986</ele>
        <time>2000-05-11T13:36:08.975</time>
      </trkpt>
      <trkpt lat="42.53794" lon="2.05043">
        <ele>1786.1374879347</ele>
        <time>2000-05-11T13:36:09.975</time>
      </trkpt>
      <trkpt lat="42.53792" lon="2.05045">
        <ele>1785.8452701269</ele>
        <time>2000-05-11T13:36:10.975</time>
      </trkpt>
      <trkpt lat="42.53792" lon="2.05046">
        <ele>1785.2279943006</ele>
        <time>2000-05-11T13:36:11.975</time>
      </trkpt>
      <trkpt lat="42.53792" lon="2.05046">
        <ele>1784.6262059711</ele>
        <time>2000-05-11T13:36:12.975</time>
      </trkpt>
      <trkpt lat="42.53792" lon="2.05046">
        <ele>1784.3858470723</ele>
        <time>2000-05-11T13:36:13.975</time>
      </trkpt>
      <trkpt lat="42.53791" lon="2.05047">
        <ele>1784.3547411049</ele>
        <time>2000-05-11T13:36:14.975</time>
      </trkpt>
      <trkpt lat="42.5379" lon="2.0505">
        <ele>1783.9855393076</ele>
        <time>2000-05-11T13:36:15.975</time>
      </trkpt>
      <trkpt lat="42.5379" lon="2.0505">
        <ele>1783.9191892263</ele>
        <time>2000-05-11T13:36:16.975</time>
      </trkpt>
      <trkpt lat="42.5379" lon="2.05051">
        <ele>1784.0234483724</ele>
        <time>2000-05-11T13:36:17.977</time>
      </trkpt>
      <trkpt lat="42.53789" lon="2.05052">
        <ele>1783.8742583593</ele>
        <time>2000-05-11T13:36:18.977</time>
      </trkpt>
      <trkpt lat="42.53788" lon="2.05054">
        <ele>1783.897534027</ele>
        <time>2000-05-11T13:36:19.977</time>
      </trkpt>
      <trkpt lat="42.53788" lon="2.05056">
        <ele>1784.2309219701</ele>
        <time>2000-05-11T13:36:20.977</time>
      </trkpt>
      <trkpt lat="42.53787" lon="2.05059">
        <ele>1784.4460174829</ele>
        <time>2000-05-11T13:36:21.977</time>
      </trkpt>
      <trkpt lat="42.53786" lon="2.05061">
        <ele>1784.1566583119</ele>
        <time>2000-05-11T13:36:22.977</time>
      </trkpt>
      <trkpt lat="42.53786" lon="2.05062">
        <ele>1784.1429929951</ele>
        <time>2000-05-11T13:36:23.977</time>
      </trkpt>
      <trkpt lat="42.53786" lon="2.05062">
        <ele>1783.9141057404</ele>
        <time>2000-05-11T13:36:24.977</time>
      </trkpt>
      <trkpt lat="42.53786" lon="2.05063">
        <ele>1783.053091535</ele>
        <time>2000-05-11T13:36:25.977</time>
      </trkpt>
      <trkpt lat="42.53786" lon="2.05062">
        <ele>1782.0424091257</ele>
        <time>2000-05-11T13:36:26.976</time>
      </trkpt>
      <trkpt lat="42.53786" lon="2.05062">
        <ele>1781.3655721726</ele>
        <time>2000-05-11T13:36:27.976</time>
      </trkpt>
      <trkpt lat="42.53787" lon="2.05062">
        <ele>1780.4909084387</ele>
        <time>2000-05-11T13:36:28.975</time>
      </trkpt>
      <trkpt lat="42.53787" lon="2.05062">
        <ele>1779.6162447048</ele>
        <time>2000-05-11T13:36:29.975</time>
      </trkpt>
      <trkpt lat="42.53786" lon="2.05063">
        <ele>1779.8057760773</ele>
        <time>2000-05-11T13:36:30.971</time>
      </trkpt>
      <trkpt lat="42.53786" lon="2.05063">
        <ele>1780.2632680841</ele>
        <time>2000-05-11T13:36:31.971</time>
      </trkpt>
      <trkpt lat="42.53785" lon="2.05064">
        <ele>1780.6467718732</ele>
        <time>2000-05-11T13:36:32.971</time>
      </trkpt>
      <trkpt lat="42.53784" lon="2.05064">
        <ele>1781.3472305842</ele>
        <time>2000-05-11T13:36:33.971</time>
      </trkpt>
      <trkpt lat="42.53782" lon="2.05064">
        <ele>1782.1617642451</ele>
        <time>2000-05-11T13:36:34.971</time>
      </trkpt>
      <trkpt lat="42.53781" lon="2.05065">
        <ele>1782.5553975556</ele>
        <time>2000-05-11T13:36:35.971</time>
      </trkpt>
      <trkpt lat="42.5378" lon="2.05065">
        <ele>1783.0379301066</ele>
        <time>2000-05-11T13:36:36.971</time>
      </trkpt>
      <trkpt lat="42.53779" lon="2.05065">
        <ele>1783.6814175565</ele>
        <time>2000-05-11T13:36:37.971</time>
      </trkpt>
      <trkpt lat="42.53779" lon="2.05066">
        <ele>1784.09270318</ele>
        <time>2000-05-11T13:36:38.971</time>
      </trkpt>
      <trkpt lat="42.53777" lon="2.05068">
        <ele>1784.622285118</ele>
        <time>2000-05-11T13:36:39.971</time>
      </trkpt>
      <trkpt lat="42.53776" lon="2.05069">
        <ele>1785.2073770253</ele>
        <time>2000-05-11T13:36:40.971</time>
      </trkpt>
      <trkpt lat="42.53775" lon="2.05071">
        <ele>1785.9675461682</ele>
        <time>2000-05-11T13:36:41.971</time>
      </trkpt>
      <trkpt lat="42.53774" lon="2.05073">
        <ele>1786.8719937729</ele>
        <time>2000-05-11T13:36:42.971</time>
      </trkpt>
      <trkpt lat="42.53774" lon="2.05073">
        <ele>1787.6628627595</ele>
        <time>2000-05-11T13:36:43.971</time>
      </trkpt>
      <trkpt lat="42.53773" lon="2.05076">
        <ele>1788.3539066833</ele>
        <time>2000-05-11T13:36:44.971</time>
      </trkpt>
      <trkpt lat="42.53772" lon="2.05077">
        <ele>1789.0110246673</ele>
        <time>2000-05-11T13:36:45.971</time>
      </trkpt>
      <trkpt lat="42.53771" lon="2.05079">
        <ele>1789.7605857188</ele>
        <time>2000-05-11T13:36:46.971</time>
      </trkpt>
      <trkpt lat="42.5377" lon="2.05079">
        <ele>1790.2823194927</ele>
        <time>2000-05-11T13:36:47.971</time>
      </trkpt>
      <trkpt lat="42.53769" lon="2.0508">
        <ele>1791.1931951504</ele>
        <time>2000-05-11T13:36:48.971</time>
      </trkpt>
      <trkpt lat="42.53769" lon="2.05082">
        <ele>1792.0303177204</ele>
        <time>2000-05-11T13:36:49.971</time>
      </trkpt>
      <trkpt lat="42.53769" lon="2.05082">
        <ele>1792.7326083193</ele>
        <time>2000-05-11T13:36:50.971</time>
      </trkpt>
      <trkpt lat="42.53768" lon="2.05082">
        <ele>1793.1346988706</ele>
        <time>2000-05-11T13:36:51.971</time>
      </trkpt>
      <trkpt lat="42.53767" lon="2.05083">
        <ele>1793.2719822405</ele>
        <time>2000-05-11T13:36:52.969</time>
      </trkpt>
      <trkpt lat="42.53766" lon="2.05084">
        <ele>1793.3780199572</ele>
        <time>2000-05-11T13:36:53.969</time>
      </trkpt>
      <trkpt lat="42.53765" lon="2.05085">
        <ele>1793.547444102</ele>
        <time>2000-05-11T13:36:54.969</time>
      </trkpt>
      <trkpt lat="42.53765" lon="2.05086">
        <ele>1793.6939649474</ele>
        <time>2000-05-11T13:36:55.969</time>
      </trkpt>
      <trkpt lat="42.53764" lon="2.05087">
        <ele>1793.6505920792</ele>
        <time>2000-05-11T13:36:56.969</time>
      </trkpt>
      <trkpt lat="42.53762" lon="2.05088">
        <ele>1793.7316076266</ele>
        <time>2000-05-11T13:36:57.969</time>
      </trkpt>
      <trkpt lat="42.53762" lon="2.05089">
        <ele>1793.3995345416</ele>
        <time>2000-05-11T13:36:58.969</time>
      </trkpt>
      <trkpt lat="42.53762" lon="2.05089">
        <ele>1792.9452819148</ele>
        <time>2000-05-11T13:36:59.969</time>
      </trkpt>
      <trkpt lat="42.53761" lon="2.05089">
        <ele>1792.3853389157</ele>
        <time>2000-05-11T13:37:00.969</time>
      </trkpt>
      <trkpt lat="42.5376" lon="2.05089">
        <ele>1791.8790228272</ele>
        <time>2000-05-11T13:37:01.969</time>
      </trkpt>
      <trkpt lat="42.53759" lon="2.0509">
        <ele>1791.4705883086</ele>
        <time>2000-05-11T13:37:02.971</time>
      </trkpt>
      <trkpt lat="42.53759" lon="2.05091">
        <ele>1791.0365243915</ele>
        <time>2000-05-11T13:37:03.971</time>
      </trkpt>
      <trkpt lat="42.53758" lon="2.05093">
        <ele>1790.8145892957</ele>
        <time>2000-05-11T13:37:04.971</time>
      </trkpt>
      <trkpt lat="42.53757" lon="2.05094">
        <ele>1790.8504941685</ele>
        <time>2000-05-11T13:37:05.971</time>
      </trkpt>
      <trkpt lat="42.53757" lon="2.05095">
        <ele>1791.0467773428</ele>
        <time>2000-05-11T13:37:06.971</time>
      </trkpt>
      <trkpt lat="42.53757" lon="2.05096">
        <ele>1791.4306064559</ele>
        <time>2000-05-11T13:37:07.971</time>
      </trkpt>
      <trkpt lat="42.53756" lon="2.05098">
        <ele>1792.0823049292</ele>
        <time>2000-05-11T13:37:08.971</time>
      </trkpt>
      <trkpt lat="42.53755" lon="2.05097">
        <ele>1792.2180778475</ele>
        <time>2000-05-11T13:37:09.971</time>
      </trkpt>
      <trkpt lat="42.53754" lon="2.05098">
        <ele>1792.1020727249</ele>
        <time>2000-05-11T13:37:10.971</time>
      </trkpt>
      <trkpt lat="42.53753" lon="2.05098">
        <ele>1791.8546818603</ele>
        <time>2000-05-11T13:37:11.971</time>
      </trkpt>
      <trkpt lat="42.53752" lon="2.05099">
        <ele>1791.8473774156</ele>
        <time>2000-05-11T13:37:12.971</time>
      </trkpt>
      <trkpt lat="42.53751" lon="2.05099">
        <ele>1791.8113387542</ele>
        <time>2000-05-11T13:37:13.971</time>
      </trkpt>
      <trkpt lat="42.53751" lon="2.05099">
        <ele>1792.0790968265</ele>
        <time>2000-05-11T13:37:14.971</time>
      </trkpt>
      <trkpt lat="42.5375" lon="2.051">
        <ele>1792.3752330877</ele>
        <time>2000-05-11T13:37:15.971</time>
      </trkpt>
      <trkpt lat="42.5375" lon="2.051">
        <ele>1792.7224240964</ele>
        <time>2000-05-11T13:37:16.971</time>
      </trkpt>
      <trkpt lat="42.53748" lon="2.05101">
        <ele>1792.8119264772</ele>
        <time>2000-05-11T13:37:17.971</time>
      </trkpt>
      <trkpt lat="42.53748" lon="2.05102">
        <ele>1793.3395775346</ele>
        <time>2000-05-11T13:37:18.971</time>
      </trkpt>
      <trkpt lat="42.53747" lon="2.05103">
        <ele>1794.0487144966</ele>
        <time>2000-05-11T13:37:19.971</time>
      </trkpt>
      <trkpt lat="42.53746" lon="2.05104">
        <ele>1794.8458389347</ele>
        <time>2000-05-11T13:37:20.971</time>
      </trkpt>
      <trkpt lat="42.53746" lon="2.05105">
        <ele>1795.640286376</ele>
        <time>2000-05-11T13:37:21.971</time>
      </trkpt>
      <trkpt lat="42.53746" lon="2.05106">
        <ele>1796.0715847695</ele>
        <time>2000-05-11T13:37:22.971</time>
      </trkpt>
      <trkpt lat="42.53745" lon="2.05107">
        <ele>1795.7416887403</ele>
        <time>2000-05-11T13:37:23.971</time>
      </trkpt>
      <trkpt lat="42.53744" lon="2.05108">
        <ele>1795.2997102205</ele>
        <time>2000-05-11T13:37:24.971</time>
      </trkpt>
      <trkpt lat="42.53744" lon="2.05108">
        <ele>1794.8638977798</ele>
        <time>2000-05-11T13:37:25.971</time>
      </trkpt>
      <trkpt lat="42.53743" lon="2.05109">
        <ele>1794.6385991467</ele>
        <time>2000-05-11T13:37:26.969</time>
      </trkpt>
      <trkpt lat="42.53742" lon="2.05109">
        <ele>1794.9872786567</ele>
        <time>2000-05-11T13:37:27.969</time>
      </trkpt>
      <trkpt lat="42.53741" lon="2.0511">
        <ele>1795.4222847885</ele>
        <time>2000-05-11T13:37:28.967</time>
      </trkpt>
      <trkpt lat="42.5374" lon="2.05111">
        <ele>1796.0077079711</ele>
        <time>2000-05-11T13:37:29.967</time>
      </trkpt>
      <trkpt lat="42.5374" lon="2.05113">
        <ele>1797.1055732867</ele>
        <time>2000-05-11T13:37:30.967</time>
      </trkpt>
      <trkpt lat="42.53739" lon="2.05114">
        <ele>1797.8201879663</ele>
        <time>2000-05-11T13:37:31.968</time>
      </trkpt>
      <trkpt lat="42.53739" lon="2.05115">
        <ele>1798.3719024058</ele>
        <time>2000-05-11T13:37:32.968</time>
      </trkpt>
      <trkpt lat="42.53738" lon="2.05116">
        <ele>1799.3380437316</ele>
        <time>2000-05-11T13:37:33.968</time>
      </trkpt>
      <trkpt lat="42.53737" lon="2.05117">
        <ele>1800.034743811</ele>
        <time>2000-05-11T13:37:34.968</time>
      </trkpt>
      <trkpt lat="42.53737" lon="2.05117">
        <ele>1800.0603943665</ele>
        <time>2000-05-11T13:37:35.968</time>
      </trkpt>
      <trkpt lat="42.53736" lon="2.05118">
        <ele>1800.3742140558</ele>
        <time>2000-05-11T13:37:36.968</time>
      </trkpt>
      <trkpt lat="42.53736" lon="2.05118">
        <ele>1800.5092804896</ele>
        <time>2000-05-11T13:37:37.968</time>
      </trkpt>
      <trkpt lat="42.53735" lon="2.05119">
        <ele>1800.1318785468</ele>
        <time>2000-05-11T13:37:38.970</time>
      </trkpt>
      <trkpt lat="42.53735" lon="2.05121">
        <ele>1800.02937409</ele>
        <time>2000-05-11T13:37:39.970</time>
      </trkpt>
      <trkpt lat="42.53735" lon="2.05122">
        <ele>1799.7582414342</ele>
        <time>2000-05-11T13:37:40.970</time>
      </trkpt>
      <trkpt lat="42.53735" lon="2.05122">
        <ele>1799.3743534697</ele>
        <time>2000-05-11T13:37:41.970</time>
      </trkpt>
      <trkpt lat="42.53734" lon="2.05122">
        <ele>1798.748274895</ele>
        <time>2000-05-11T13:37:42.969</time>
      </trkpt>
      <trkpt lat="42.53733" lon="2.05123">
        <ele>1798.1045376742</ele>
        <time>2000-05-11T13:37:43.969</time>
      </trkpt>
      <trkpt lat="42.53732" lon="2.05125">
        <ele>1796.7651407609</ele>
        <time>2000-05-11T13:37:44.969</time>
      </trkpt>
      <trkpt lat="42.53731" lon="2.05126">
        <ele>1795.3492564181</ele>
        <time>2000-05-11T13:37:45.969</time>
      </trkpt>
      <trkpt lat="42.5373" lon="2.05127">
        <ele>1793.7725229315</ele>
        <time>2000-05-11T13:37:46.969</time>
      </trkpt>
      <trkpt lat="42.53729" lon="2.05128">
        <ele>1792.7838151984</ele>
        <time>2000-05-11T13:37:47.969</time>
      </trkpt>
      <trkpt lat="42.53729" lon="2.05128">
        <ele>1792.0946951902</ele>
        <time>2000-05-11T13:37:48.969</time>
      </trkpt>
      <trkpt lat="42.53728" lon="2.05129">
        <ele>1791.7558097851</ele>
        <time>2000-05-11T13:37:49.969</time>
      </trkpt>
      <trkpt lat="42.53728" lon="2.0513">
        <ele>1791.7200633805</ele>
        <time>2000-05-11T13:37:50.972</time>
      </trkpt>
      <trkpt lat="42.53728" lon="2.0513">
        <ele>1791.8451661197</ele>
        <time>2000-05-11T13:37:51.972</time>
      </trkpt>
      <trkpt lat="42.53727" lon="2.05131">
        <ele>1791.7169378791</ele>
        <time>2000-05-11T13:37:52.970</time>
      </trkpt>
      <trkpt lat="42.53725" lon="2.05131">
        <ele>1791.0355080767</ele>
        <time>2000-05-11T13:37:53.970</time>
      </trkpt>
      <trkpt lat="42.53725" lon="2.05131">
        <ele>1790.4742266592</ele>
        <time>2000-05-11T13:37:54.970</time>
      </trkpt>
      <trkpt lat="42.53725" lon="2.05133">
        <ele>1790.2543841984</ele>
        <time>2000-05-11T13:37:55.968</time>
      </trkpt>
      <trkpt lat="42.53724" lon="2.05134">
        <ele>1789.7841176674</ele>
        <time>2000-05-11T13:37:56.968</time>
      </trkpt>
      <trkpt lat="42.53724" lon="2.05135">
        <ele>1789.2106060648</ele>
        <time>2000-05-11T13:37:57.968</time>
      </trkpt>
      <trkpt lat="42.53723" lon="2.05136">
        <ele>1789.660026994</ele>
        <time>2000-05-11T13:37:58.968</time>
      </trkpt>
      <trkpt lat="42.53724" lon="2.05137">
        <ele>1789.9684543351</ele>
        <time>2000-05-11T13:37:59.968</time>
      </trkpt>
      <trkpt lat="42.53721" lon="2.05138">
        <ele>1789.9129813291</ele>
        <time>2000-05-11T13:38:00.968</time>
      </trkpt>
      <trkpt lat="42.5372" lon="2.05139">
        <ele>1790.1881254731</ele>
        <time>2000-05-11T13:38:01.968</time>
      </trkpt>
      <trkpt lat="42.53718" lon="2.0514">
        <ele>1790.8077526907</ele>
        <time>2000-05-11T13:38:02.968</time>
      </trkpt>
      <trkpt lat="42.53718" lon="2.0514">
        <ele>1790.9576489383</ele>
        <time>2000-05-11T13:38:03.968</time>
      </trkpt>
      <trkpt lat="42.53718" lon="2.0514">
        <ele>1791.2485387741</ele>
        <time>2000-05-11T13:38:04.968</time>
      </trkpt>
      <trkpt lat="42.53718" lon="2.0514">
        <ele>1791.6624740191</ele>
        <time>2000-05-11T13:38:05.968</time>
      </trkpt>
      <trkpt lat="42.53717" lon="2.05141">
        <ele>1792.1839598052</ele>
        <time>2000-05-11T13:38:06.965</time>
      </trkpt>
      <trkpt lat="42.53715" lon="2.05142">
        <ele>1792.4187825769</ele>
        <time>2000-05-11T13:38:07.965</time>
      </trkpt>
      <trkpt lat="42.53713" lon="2.05142">
        <ele>1792.8215065239</ele>
        <time>2000-05-11T13:38:08.965</time>
      </trkpt>
      <trkpt lat="42.53711" lon="2.05143">
        <ele>1793.0282170344</ele>
        <time>2000-05-11T13:38:09.965</time>
      </trkpt>
      <trkpt lat="42.53711" lon="2.05143">
        <ele>1793.2349275449</ele>
        <time>2000-05-11T13:38:10.965</time>
      </trkpt>
      <trkpt lat="42.53711" lon="2.05143">
        <ele>1793.5916666752</ele>
        <time>2000-05-11T13:38:11.965</time>
      </trkpt>
      <trkpt lat="42.53709" lon="2.05144">
        <ele>1794.3251168316</ele>
        <time>2000-05-11T13:38:12.965</time>
      </trkpt>
      <trkpt lat="42.53709" lon="2.05145">
        <ele>1795.2857630992</ele>
        <time>2000-05-11T13:38:13.965</time>
      </trkpt>
      <trkpt lat="42.53708" lon="2.05145">
        <ele>1796.3572221037</ele>
        <time>2000-05-11T13:38:14.965</time>
      </trkpt>
      <trkpt lat="42.53707" lon="2.05146">
        <ele>1797.4661352141</ele>
        <time>2000-05-11T13:38:15.965</time>
      </trkpt>
      <trkpt lat="42.53707" lon="2.05146">
        <ele>1798.237276084</ele>
        <time>2000-05-11T13:38:16.965</time>
      </trkpt>
      <trkpt lat="42.53705" lon="2.05149">
        <ele>1799.1487261485</ele>
        <time>2000-05-11T13:38:17.965</time>
      </trkpt>
      <trkpt lat="42.53704" lon="2.05152">
        <ele>1799.7162801525</ele>
        <time>2000-05-11T13:38:18.965</time>
      </trkpt>
      <trkpt lat="42.53703" lon="2.05154">
        <ele>1800.7118785771</ele>
        <time>2000-05-11T13:38:19.965</time>
      </trkpt>
      <trkpt lat="42.53702" lon="2.05155">
        <ele>1801.8987249704</ele>
        <time>2000-05-11T13:38:20.965</time>
      </trkpt>
      <trkpt lat="42.537" lon="2.05156">
        <ele>1803.0409117814</ele>
        <time>2000-05-11T13:38:21.965</time>
      </trkpt>
      <trkpt lat="42.53699" lon="2.05158">
        <ele>1803.5533719281</ele>
        <time>2000-05-11T13:38:22.965</time>
      </trkpt>
      <trkpt lat="42.53697" lon="2.05157">
        <ele>1803.8414293405</ele>
        <time>2000-05-11T13:38:23.965</time>
      </trkpt>
      <trkpt lat="42.53697" lon="2.05157">
        <ele>1803.7866430318</ele>
        <time>2000-05-11T13:38:24.965</time>
      </trkpt>
      <trkpt lat="42.53696" lon="2.05157">
        <ele>1803.3447160801</ele>
        <time>2000-05-11T13:38:25.965</time>
      </trkpt>
      <trkpt lat="42.53695" lon="2.05157">
        <ele>1802.9036829617</ele>
        <time>2000-05-11T13:38:26.965</time>
      </trkpt>
      <trkpt lat="42.53695" lon="2.05159">
        <ele>1802.7520436222</ele>
        <time>2000-05-11T13:38:27.963</time>
      </trkpt>
      <trkpt lat="42.53695" lon="2.0516">
        <ele>1802.1849287279</ele>
        <time>2000-05-11T13:38:28.963</time>
      </trkpt>
      <trkpt lat="42.53695" lon="2.05162">
        <ele>1801.417044105</ele>
        <time>2000-05-11T13:38:29.963</time>
      </trkpt>
      <trkpt lat="42.53695" lon="2.05163">
        <ele>1800.8519569086</ele>
        <time>2000-05-11T13:38:30.963</time>
      </trkpt>
      <trkpt lat="42.53695" lon="2.05163">
        <ele>1800.3306354612</ele>
        <time>2000-05-11T13:38:31.963</time>
      </trkpt>
      <trkpt lat="42.53694" lon="2.05164">
        <ele>1799.7475908685</ele>
        <time>2000-05-11T13:38:32.963</time>
      </trkpt>
      <trkpt lat="42.53693" lon="2.05164">
        <ele>1799.7421974819</ele>
        <time>2000-05-11T13:38:33.963</time>
      </trkpt>
      <trkpt lat="42.53692" lon="2.05164">
        <ele>1799.7122928819</ele>
        <time>2000-05-11T13:38:34.963</time>
      </trkpt>
      <trkpt lat="42.53692" lon="2.05164">
        <ele>1799.6380294237</ele>
        <time>2000-05-11T13:38:35.963</time>
      </trkpt>
      <trkpt lat="42.53691" lon="2.05165">
        <ele>1799.1955610767</ele>
        <time>2000-05-11T13:38:36.962</time>
      </trkpt>
      <trkpt lat="42.53691" lon="2.05165">
        <ele>1798.5910493886</ele>
        <time>2000-05-11T13:38:37.962</time>
      </trkpt>
      <trkpt lat="42.5369" lon="2.05165">
        <ele>1798.2761643482</ele>
        <time>2000-05-11T13:38:38.962</time>
      </trkpt>
      <trkpt lat="42.53689" lon="2.05166">
        <ele>1798.6277070986</ele>
        <time>2000-05-11T13:38:39.962</time>
      </trkpt>
      <trkpt lat="42.53688" lon="2.05168">
        <ele>1799.2548025912</ele>
        <time>2000-05-11T13:38:40.962</time>
      </trkpt>
      <trkpt lat="42.53687" lon="2.0517">
        <ele>1799.993411951</ele>
        <time>2000-05-11T13:38:41.962</time>
      </trkpt>
      <trkpt lat="42.53687" lon="2.0517">
        <ele>1800.4032360623</ele>
        <time>2000-05-11T13:38:42.962</time>
      </trkpt>
      <trkpt lat="42.53686" lon="2.05171">
        <ele>1800.3381314537</ele>
        <time>2000-05-11T13:38:43.962</time>
      </trkpt>
      <trkpt lat="42.53686" lon="2.05172">
        <ele>1799.8238248831</ele>
        <time>2000-05-11T13:38:44.962</time>
      </trkpt>
      <trkpt lat="42.53685" lon="2.05174">
        <ele>1798.5970940294</ele>
        <time>2000-05-11T13:38:45.962</time>
      </trkpt>
      <trkpt lat="42.53684" lon="2.05176">
        <ele>1798.3785462845</ele>
        <time>2000-05-11T13:38:46.962</time>
      </trkpt>
      <trkpt lat="42.53683" lon="2.05177">
        <ele>1799.2433766533</ele>
        <time>2000-05-11T13:38:47.962</time>
      </trkpt>
      <trkpt lat="42.53683" lon="2.05177">
        <ele>1800.3045349514</ele>
        <time>2000-05-11T13:38:48.962</time>
      </trkpt>
      <trkpt lat="42.53683" lon="2.05177">
        <ele>1801.3737483628</ele>
        <time>2000-05-11T13:38:49.962</time>
      </trkpt>
      <trkpt lat="42.53682" lon="2.0518">
        <ele>1802.5051346133</ele>
        <time>2000-05-11T13:38:50.960</time>
      </trkpt>
      <trkpt lat="42.53681" lon="2.0518">
        <ele>1802.2705181831</ele>
        <time>2000-05-11T13:38:51.960</time>
      </trkpt>
      <trkpt lat="42.53679" lon="2.05181">
        <ele>1801.609204196</ele>
        <time>2000-05-11T13:38:52.960</time>
      </trkpt>
      <trkpt lat="42.53678" lon="2.05182">
        <ele>1800.9922405194</ele>
        <time>2000-05-11T13:38:53.960</time>
      </trkpt>
      <trkpt lat="42.53677" lon="2.05183">
        <ele>1800.5064253874</ele>
        <time>2000-05-11T13:38:54.960</time>
      </trkpt>
      <trkpt lat="42.53677" lon="2.05184">
        <ele>1800.8924123522</ele>
        <time>2000-05-11T13:38:55.960</time>
      </trkpt>
      <trkpt lat="42.53675" lon="2.05184">
        <ele>1801.6211473407</ele>
        <time>2000-05-11T13:38:56.960</time>
      </trkpt>
      <trkpt lat="42.53673" lon="2.05185">
        <ele>1802.1130350873</ele>
        <time>2000-05-11T13:38:57.960</time>
      </trkpt>
      <trkpt lat="42.53673" lon="2.05186">
        <ele>1802.4952448927</ele>
        <time>2000-05-11T13:38:58.960</time>
      </trkpt>
      <trkpt lat="42.53673" lon="2.05188">
        <ele>1802.7889852708</ele>
        <time>2000-05-11T13:38:59.960</time>
      </trkpt>
      <trkpt lat="42.53673" lon="2.05189">
        <ele>1802.4250424057</ele>
        <time>2000-05-11T13:39:00.960</time>
      </trkpt>
      <trkpt lat="42.53673" lon="2.05189">
        <ele>1802.3328621102</ele>
        <time>2000-05-11T13:39:01.960</time>
      </trkpt>
      <trkpt lat="42.53672" lon="2.05191">
        <ele>1802.297790543</ele>
        <time>2000-05-11T13:39:02.960</time>
      </trkpt>
      <trkpt lat="42.53672" lon="2.05192">
        <ele>1802.3271415671</ele>
        <time>2000-05-11T13:39:03.960</time>
      </trkpt>
      <trkpt lat="42.53672" lon="2.05194">
        <ele>1802.1616974995</ele>
        <time>2000-05-11T13:39:04.960</time>
      </trkpt>
      <trkpt lat="42.53672" lon="2.05195">
        <ele>1802.0299954586</ele>
        <time>2000-05-11T13:39:05.960</time>
      </trkpt>
      <trkpt lat="42.53672" lon="2.05196">
        <ele>1802.1266950296</ele>
        <time>2000-05-11T13:39:06.960</time>
      </trkpt>
      <trkpt lat="42.53672" lon="2.05196">
        <ele>1802.0752378063</ele>
        <time>2000-05-11T13:39:07.960</time>
      </trkpt>
      <trkpt lat="42.53671" lon="2.05197">
        <ele>1802.1275689615</ele>
        <time>2000-05-11T13:39:08.960</time>
      </trkpt>
      <trkpt lat="42.5367" lon="2.05198">
        <ele>1802.7158858767</ele>
        <time>2000-05-11T13:39:09.960</time>
      </trkpt>
      <trkpt lat="42.53668" lon="2.05199">
        <ele>1803.720612981</ele>
        <time>2000-05-11T13:39:10.960</time>
      </trkpt>
      <trkpt lat="42.53667" lon="2.052">
        <ele>1804.8456602048</ele>
        <time>2000-05-11T13:39:11.960</time>
      </trkpt>
      <trkpt lat="42.53666" lon="2.05201">
        <ele>1805.7545292739</ele>
        <time>2000-05-11T13:39:12.960</time>
      </trkpt>
      <trkpt lat="42.53665" lon="2.05201">
        <ele>1806.3958036613</ele>
        <time>2000-05-11T13:39:13.960</time>
      </trkpt>
      <trkpt lat="42.53665" lon="2.052">
        <ele>1806.831082808</ele>
        <time>2000-05-11T13:39:14.960</time>
      </trkpt>
      <trkpt lat="42.53664" lon="2.05201">
        <ele>1806.8841355961</ele>
        <time>2000-05-11T13:39:15.960</time>
      </trkpt>
      <trkpt lat="42.53665" lon="2.05202">
        <ele>1806.6516311238</ele>
        <time>2000-05-11T13:39:16.960</time>
      </trkpt>
      <trkpt lat="42.53663" lon="2.05202">
        <ele>1806.8153713617</ele>
        <time>2000-05-11T13:39:17.960</time>
      </trkpt>
      <trkpt lat="42.53663" lon="2.05203">
        <ele>1807.143633035</ele>
        <time>2000-05-11T13:39:18.960</time>
      </trkpt>
      <trkpt lat="42.53663" lon="2.05205">
        <ele>1806.9850817978</ele>
        <time>2000-05-11T13:39:19.960</time>
      </trkpt>
      <trkpt lat="42.53663" lon="2.05205">
        <ele>1806.9813359549</ele>
        <time>2000-05-11T13:39:20.960</time>
      </trkpt>
      <trkpt lat="42.53663" lon="2.05205">
        <ele>1806.9144256409</ele>
        <time>2000-05-11T13:39:21.960</time>
      </trkpt>
      <trkpt lat="42.53663" lon="2.05206">
        <ele>1806.6925298845</ele>
        <time>2000-05-11T13:39:22.958</time>
      </trkpt>
      <trkpt lat="42.53662" lon="2.05207">
        <ele>1806.4278938346</ele>
        <time>2000-05-11T13:39:23.958</time>
      </trkpt>
      <trkpt lat="42.53661" lon="2.05208">
        <ele>1806.2719648831</ele>
        <time>2000-05-11T13:39:24.958</time>
      </trkpt>
      <trkpt lat="42.53661" lon="2.05209">
        <ele>1806.1686506119</ele>
        <time>2000-05-11T13:39:25.958</time>
      </trkpt>
      <trkpt lat="42.53661" lon="2.05209">
        <ele>1806.0653363407</ele>
        <time>2000-05-11T13:39:26.958</time>
      </trkpt>
      <trkpt lat="42.53661" lon="2.0521">
        <ele>1806.0799815161</ele>
        <time>2000-05-11T13:39:27.958</time>
      </trkpt>
      <trkpt lat="42.5366" lon="2.05212">
        <ele>1806.1505775509</ele>
        <time>2000-05-11T13:39:28.958</time>
      </trkpt>
      <trkpt lat="42.5366" lon="2.05212">
        <ele>1806.2629507186</ele>
        <time>2000-05-11T13:39:29.958</time>
      </trkpt>
      <trkpt lat="42.53659" lon="2.05214">
        <ele>1806.1819574788</ele>
        <time>2000-05-11T13:39:30.957</time>
      </trkpt>
      <trkpt lat="42.53658" lon="2.05215">
        <ele>1806.0157531809</ele>
        <time>2000-05-11T13:39:31.957</time>
      </trkpt>
      <trkpt lat="42.53657" lon="2.05216">
        <ele>1805.5980861582</ele>
        <time>2000-05-11T13:39:32.957</time>
      </trkpt>
      <trkpt lat="42.53656" lon="2.05217">
        <ele>1805.1115202567</ele>
        <time>2000-05-11T13:39:33.957</time>
      </trkpt>
      <trkpt lat="42.53656" lon="2.05217">
        <ele>1804.7834084895</ele>
        <time>2000-05-11T13:39:34.957</time>
      </trkpt>
      <trkpt lat="42.53657" lon="2.05218">
        <ele>1804.6488176206</ele>
        <time>2000-05-11T13:39:35.957</time>
      </trkpt>
      <trkpt lat="42.53656" lon="2.05219">
        <ele>1804.3468090264</ele>
        <time>2000-05-11T13:39:36.957</time>
      </trkpt>
      <trkpt lat="42.53655" lon="2.0522">
        <ele>1804.0882891173</ele>
        <time>2000-05-11T13:39:37.957</time>
      </trkpt>
      <trkpt lat="42.53654" lon="2.05222">
        <ele>1804.0634972824</ele>
        <time>2000-05-11T13:39:38.959</time>
      </trkpt>
      <trkpt lat="42.53655" lon="2.05224">
        <ele>1804.4067997858</ele>
        <time>2000-05-11T13:39:39.959</time>
      </trkpt>
      <trkpt lat="42.53656" lon="2.05225">
        <ele>1804.6356729539</ele>
        <time>2000-05-11T13:39:40.959</time>
      </trkpt>
      <trkpt lat="42.53656" lon="2.05226">
        <ele>1805.1398325559</ele>
        <time>2000-05-11T13:39:41.959</time>
      </trkpt>
      <trkpt lat="42.53656" lon="2.05228">
        <ele>1805.7592518212</ele>
        <time>2000-05-11T13:39:42.959</time>
      </trkpt>
      <trkpt lat="42.53657" lon="2.0523">
        <ele>1806.266893542</ele>
        <time>2000-05-11T13:39:43.959</time>
      </trkpt>
      <trkpt lat="42.53657" lon="2.05231">
        <ele>1806.0631262412</ele>
        <time>2000-05-11T13:39:44.959</time>
      </trkpt>
      <trkpt lat="42.53657" lon="2.05232">
        <ele>1805.754016424</ele>
        <time>2000-05-11T13:39:45.959</time>
      </trkpt>
      <trkpt lat="42.53657" lon="2.05232">
        <ele>1805.3956259167</ele>
        <time>2000-05-11T13:39:46.959</time>
      </trkpt>
      <trkpt lat="42.53656" lon="2.05233">
        <ele>1805.0647007262</ele>
        <time>2000-05-11T13:39:47.959</time>
      </trkpt>
      <trkpt lat="42.53655" lon="2.05234">
        <ele>1804.5913534421</ele>
        <time>2000-05-11T13:39:48.959</time>
      </trkpt>
      <trkpt lat="42.53654" lon="2.05235">
        <ele>1804.2822003748</ele>
        <time>2000-05-11T13:39:49.959</time>
      </trkpt>
      <trkpt lat="42.53653" lon="2.05236">
        <ele>1804.3371899281</ele>
        <time>2000-05-11T13:39:50.959</time>
      </trkpt>
      <trkpt lat="42.53652" lon="2.05237">
        <ele>1804.5219728313</ele>
        <time>2000-05-11T13:39:51.959</time>
      </trkpt>
      <trkpt lat="42.53651" lon="2.05237">
        <ele>1804.7992516899</ele>
        <time>2000-05-11T13:39:52.959</time>
      </trkpt>
      <trkpt lat="42.53651" lon="2.05239">
        <ele>1804.8065957658</ele>
        <time>2000-05-11T13:39:53.959</time>
      </trkpt>
      <trkpt lat="42.5365" lon="2.0524">
        <ele>1804.7781854425</ele>
        <time>2000-05-11T13:39:54.959</time>
      </trkpt>
      <trkpt lat="42.5365" lon="2.05242">
        <ele>1804.5608994788</ele>
        <time>2000-05-11T13:39:55.959</time>
      </trkpt>
      <trkpt lat="42.53651" lon="2.05243">
        <ele>1804.4649031002</ele>
        <time>2000-05-11T13:39:56.959</time>
      </trkpt>
      <trkpt lat="42.53651" lon="2.05243">
        <ele>1804.198619266</ele>
        <time>2000-05-11T13:39:57.959</time>
      </trkpt>
      <trkpt lat="42.5365" lon="2.05244">
        <ele>1804.5241707524</ele>
        <time>2000-05-11T13:39:58.957</time>
      </trkpt>
      <trkpt lat="42.53649" lon="2.05245">
        <ele>1805.2017963862</ele>
        <time>2000-05-11T13:39:59.957</time>
      </trkpt>
      <trkpt lat="42.53648" lon="2.05246">
        <ele>1805.5705479829</ele>
        <time>2000-05-11T13:40:00.957</time>
      </trkpt>
      <trkpt lat="42.53648" lon="2.05247">
        <ele>1805.7744345875</ele>
        <time>2000-05-11T13:40:01.957</time>
      </trkpt>
      <trkpt lat="42.53648" lon="2.05248">
        <ele>1806.0494289849</ele>
        <time>2000-05-11T13:40:02.957</time>
      </trkpt>
      <trkpt lat="42.53647" lon="2.0525">
        <ele>1806.2137074068</ele>
        <time>2000-05-11T13:40:03.957</time>
      </trkpt>
      <trkpt lat="42.53647" lon="2.05251">
        <ele>1806.5122954657</ele>
        <time>2000-05-11T13:40:04.957</time>
      </trkpt>
      <trkpt lat="42.53647" lon="2.05252">
        <ele>1807.1442412257</ele>
        <time>2000-05-11T13:40:05.957</time>
      </trkpt>
      <trkpt lat="42.53647" lon="2.05254">
        <ele>1807.86098198</ele>
        <time>2000-05-11T13:40:06.957</time>
      </trkpt>
      <trkpt lat="42.53646" lon="2.05255">
        <ele>1808.49582856</ele>
        <time>2000-05-11T13:40:07.957</time>
      </trkpt>
      <trkpt lat="42.53645" lon="2.05256">
        <ele>1808.7243887402</ele>
        <time>2000-05-11T13:40:08.957</time>
      </trkpt>
      <trkpt lat="42.53645" lon="2.05257">
        <ele>1809.0558155976</ele>
        <time>2000-05-11T13:40:09.957</time>
      </trkpt>
      <trkpt lat="42.53644" lon="2.05257">
        <ele>1809.4594030222</ele>
        <time>2000-05-11T13:40:10.957</time>
      </trkpt>
      <trkpt lat="42.53644" lon="2.05257">
        <ele>1809.718600549</ele>
        <time>2000-05-11T13:40:11.957</time>
      </trkpt>
      <trkpt lat="42.53643" lon="2.05259">
        <ele>1809.3413872568</ele>
        <time>2000-05-11T13:40:12.958</time>
      </trkpt>
      <trkpt lat="42.53642" lon="2.0526">
        <ele>1809.3842483306</ele>
        <time>2000-05-11T13:40:13.958</time>
      </trkpt>
      <trkpt lat="42.53641" lon="2.05261">
        <ele>1808.634935727</ele>
        <time>2000-05-11T13:40:14.956</time>
      </trkpt>
      <trkpt lat="42.53641" lon="2.05262">
        <ele>1807.5187359821</ele>
        <time>2000-05-11T13:40:15.956</time>
      </trkpt>
      <trkpt lat="42.5364" lon="2.05264">
        <ele>1806.3047034051</ele>
        <time>2000-05-11T13:40:16.956</time>
      </trkpt>
      <trkpt lat="42.5364" lon="2.05265">
        <ele>1805.9955709757</ele>
        <time>2000-05-11T13:40:17.956</time>
      </trkpt>
      <trkpt lat="42.5364" lon="2.05265">
        <ele>1805.5378158018</ele>
        <time>2000-05-11T13:40:18.956</time>
      </trkpt>
      <trkpt lat="42.53639" lon="2.05265">
        <ele>1805.2924499692</ele>
        <time>2000-05-11T13:40:19.956</time>
      </trkpt>
      <trkpt lat="42.53638" lon="2.05266">
        <ele>1805.5311372973</ele>
        <time>2000-05-11T13:40:20.956</time>
      </trkpt>
      <trkpt lat="42.53637" lon="2.05268">
        <ele>1805.9969893087</ele>
        <time>2000-05-11T13:40:21.956</time>
      </trkpt>
      <trkpt lat="42.53637" lon="2.05268">
        <ele>1806.0773155281</ele>
        <time>2000-05-11T13:40:22.956</time>
      </trkpt>
      <trkpt lat="42.53636" lon="2.05269">
        <ele>1805.9651475292</ele>
        <time>2000-05-11T13:40:23.956</time>
      </trkpt>
      <trkpt lat="42.53635" lon="2.05269">
        <ele>1805.7957089676</ele>
        <time>2000-05-11T13:40:24.956</time>
      </trkpt>
      <trkpt lat="42.53635" lon="2.05269">
        <ele>1805.3420444526</ele>
        <time>2000-05-11T13:40:25.956</time>
      </trkpt>
      <trkpt lat="42.53634" lon="2.0527">
        <ele>1804.4546179015</ele>
        <time>2000-05-11T13:40:26.956</time>
      </trkpt>
      <trkpt lat="42.53634" lon="2.05272">
        <ele>1803.8742111273</ele>
        <time>2000-05-11T13:40:27.956</time>
      </trkpt>
      <trkpt lat="42.53634" lon="2.05274">
        <ele>1803.2900643367</ele>
        <time>2000-05-11T13:40:28.957</time>
      </trkpt>
      <trkpt lat="42.53633" lon="2.05276">
        <ele>1802.864953889</ele>
        <time>2000-05-11T13:40:29.957</time>
      </trkpt>
      <trkpt lat="42.53633" lon="2.05278">
        <ele>1803.357779439</ele>
        <time>2000-05-11T13:40:30.957</time>
      </trkpt>
      <trkpt lat="42.53633" lon="2.05278">
        <ele>1804.1550351739</ele>
        <time>2000-05-11T13:40:31.957</time>
      </trkpt>
      <trkpt lat="42.53633" lon="2.05279">
        <ele>1804.8618460668</ele>
        <time>2000-05-11T13:40:32.957</time>
      </trkpt>
      <trkpt lat="42.53632" lon="2.0528">
        <ele>1805.6082490005</ele>
        <time>2000-05-11T13:40:33.957</time>
      </trkpt>
      <trkpt lat="42.53631" lon="2.0528">
        <ele>1806.1039027363</ele>
        <time>2000-05-11T13:40:34.956</time>
      </trkpt>
      <trkpt lat="42.5363" lon="2.0528">
        <ele>1805.490964997</ele>
        <time>2000-05-11T13:40:35.956</time>
      </trkpt>
      <trkpt lat="42.53629" lon="2.0528">
        <ele>1804.7794144288</ele>
        <time>2000-05-11T13:40:36.956</time>
      </trkpt>
      <trkpt lat="42.53629" lon="2.05281">
        <ele>1803.544155225</ele>
        <time>2000-05-11T13:40:37.956</time>
      </trkpt>
      <trkpt lat="42.53628" lon="2.05282">
        <ele>1802.4257885771</ele>
        <time>2000-05-11T13:40:38.956</time>
      </trkpt>
      <trkpt lat="42.53628" lon="2.05283">
        <ele>1801.7991221858</ele>
        <time>2000-05-11T13:40:39.956</time>
      </trkpt>
      <trkpt lat="42.53626" lon="2.05284">
        <ele>1801.4015627336</ele>
        <time>2000-05-11T13:40:40.956</time>
      </trkpt>
      <trkpt lat="42.53624" lon="2.05284">
        <ele>1800.5925900102</ele>
        <time>2000-05-11T13:40:41.956</time>
      </trkpt>
      <trkpt lat="42.53624" lon="2.05286">
        <ele>1800.3548178883</ele>
        <time>2000-05-11T13:40:42.956</time>
      </trkpt>
      <trkpt lat="42.53624" lon="2.05288">
        <ele>1800.3548937563</ele>
        <time>2000-05-11T13:40:43.956</time>
      </trkpt>
      <trkpt lat="42.53624" lon="2.05288">
        <ele>1800.2176615255</ele>
        <time>2000-05-11T13:40:44.956</time>
      </trkpt>
      <trkpt lat="42.53623" lon="2.05289">
        <ele>1799.4949773153</ele>
        <time>2000-05-11T13:40:45.956</time>
      </trkpt>
      <trkpt lat="42.53622" lon="2.0529">
        <ele>1799.6264287157</ele>
        <time>2000-05-11T13:40:46.956</time>
      </trkpt>
      <trkpt lat="42.53621" lon="2.0529">
        <ele>1799.4830869721</ele>
        <time>2000-05-11T13:40:47.956</time>
      </trkpt>
      <trkpt lat="42.5362" lon="2.0529">
        <ele>1798.2956872383</ele>
        <time>2000-05-11T13:40:48.956</time>
      </trkpt>
      <trkpt lat="42.53619" lon="2.05291">
        <ele>1797.0550999805</ele>
        <time>2000-05-11T13:40:49.956</time>
      </trkpt>
      <trkpt lat="42.53619" lon="2.05292">
        <ele>1796.2007875429</ele>
        <time>2000-05-11T13:40:50.956</time>
      </trkpt>
      <trkpt lat="42.53619" lon="2.05294">
        <ele>1795.1704623507</ele>
        <time>2000-05-11T13:40:51.956</time>
      </trkpt>
      <trkpt lat="42.53619" lon="2.05296">
        <ele>1794.0459607331</ele>
        <time>2000-05-11T13:40:52.956</time>
      </trkpt>
      <trkpt lat="42.53619" lon="2.053">
        <ele>1794.7276957242</ele>
        <time>2000-05-11T13:40:53.956</time>
      </trkpt>
      <trkpt lat="42.53618" lon="2.05301">
        <ele>1796.3580810806</ele>
        <time>2000-05-11T13:40:54.956</time>
      </trkpt>
      <trkpt lat="42.53617" lon="2.05302">
        <ele>1798.5276259687</ele>
        <time>2000-05-11T13:40:55.956</time>
      </trkpt>
      <trkpt lat="42.53617" lon="2.05303">
        <ele>1800.9906423595</ele>
        <time>2000-05-11T13:40:56.956</time>
      </trkpt>
      <trkpt lat="42.53617" lon="2.05304">
        <ele>1803.801575991</ele>
        <time>2000-05-11T13:40:57.956</time>
      </trkpt>
      <trkpt lat="42.53617" lon="2.05306">
        <ele>1805.8352167347</ele>
        <time>2000-05-11T13:40:58.956</time>
      </trkpt>
      <trkpt lat="42.53616" lon="2.05308">
        <ele>1806.9876712767</ele>
        <time>2000-05-11T13:40:59.956</time>
      </trkpt>
      <trkpt lat="42.53615" lon="2.05309">
        <ele>1807.635029169</ele>
        <time>2000-05-11T13:41:00.956</time>
      </trkpt>
      <trkpt lat="42.53615" lon="2.05311">
        <ele>1807.9800129814</ele>
        <time>2000-05-11T13:41:01.956</time>
      </trkpt>
      <trkpt lat="42.53615" lon="2.05312">
        <ele>1808.2536631141</ele>
        <time>2000-05-11T13:41:02.956</time>
      </trkpt>
      <trkpt lat="42.53615" lon="2.05314">
        <ele>1808.5396515567</ele>
        <time>2000-05-11T13:41:03.956</time>
      </trkpt>
      <trkpt lat="42.53614" lon="2.05315">
        <ele>1808.8717140809</ele>
        <time>2000-05-11T13:41:04.956</time>
      </trkpt>
      <trkpt lat="42.53614" lon="2.05317">
        <ele>1809.5900898112</ele>
        <time>2000-05-11T13:41:05.956</time>
      </trkpt>
      <trkpt lat="42.53614" lon="2.05319">
        <ele>1810.9716559814</ele>
        <time>2000-05-11T13:41:06.956</time>
      </trkpt>
      <trkpt lat="42.53614" lon="2.05322">
        <ele>1812.4306973506</ele>
        <time>2000-05-11T13:41:07.956</time>
      </trkpt>
      <trkpt lat="42.53614" lon="2.05323">
        <ele>1813.3785071418</ele>
        <time>2000-05-11T13:41:08.956</time>
      </trkpt>
      <trkpt lat="42.53614" lon="2.05323">
        <ele>1814.2659662118</ele>
        <time>2000-05-11T13:41:09.956</time>
      </trkpt>
      <trkpt lat="42.53614" lon="2.05323">
        <ele>1814.8937748913</ele>
        <time>2000-05-11T13:41:10.956</time>
      </trkpt>
      <trkpt lat="42.53613" lon="2.05325">
        <ele>1814.6801223755</ele>
        <time>2000-05-11T13:41:11.958</time>
      </trkpt>
      <trkpt lat="42.53613" lon="2.05325">
        <ele>1814.5252205113</ele>
        <time>2000-05-11T13:41:12.958</time>
      </trkpt>
      <trkpt lat="42.53612" lon="2.05326">
        <ele>1814.3999141142</ele>
        <time>2000-05-11T13:41:13.958</time>
      </trkpt>
      <trkpt lat="42.53611" lon="2.05326">
        <ele>1814.0925400475</ele>
        <time>2000-05-11T13:41:14.958</time>
      </trkpt>
      <trkpt lat="42.53611" lon="2.05329">
        <ele>1813.501027552</ele>
        <time>2000-05-11T13:41:15.955</time>
      </trkpt>
      <trkpt lat="42.53611" lon="2.0533">
        <ele>1812.8805651583</ele>
        <time>2000-05-11T13:41:16.955</time>
      </trkpt>
      <trkpt lat="42.53611" lon="2.05332">
        <ele>1812.4807472862</ele>
        <time>2000-05-11T13:41:17.955</time>
      </trkpt>
      <trkpt lat="42.53611" lon="2.05333">
        <ele>1812.440528651</ele>
        <time>2000-05-11T13:41:18.955</time>
      </trkpt>
      <trkpt lat="42.53611" lon="2.05334">
        <ele>1812.631163772</ele>
        <time>2000-05-11T13:41:19.955</time>
      </trkpt>
      <trkpt lat="42.53611" lon="2.05336">
        <ele>1813.0426283887</ele>
        <time>2000-05-11T13:41:20.955</time>
      </trkpt>
      <trkpt lat="42.53611" lon="2.05337">
        <ele>1813.7695252072</ele>
        <time>2000-05-11T13:41:21.955</time>
      </trkpt>
      <trkpt lat="42.53611" lon="2.05339">
        <ele>1814.2030016158</ele>
        <time>2000-05-11T13:41:22.955</time>
      </trkpt>
      <trkpt lat="42.53611" lon="2.05339">
        <ele>1814.4058878342</ele>
        <time>2000-05-11T13:41:23.955</time>
      </trkpt>
      <trkpt lat="42.53611" lon="2.05339">
        <ele>1814.5599879658</ele>
        <time>2000-05-11T13:41:24.955</time>
      </trkpt>
      <trkpt lat="42.53611" lon="2.05341">
        <ele>1814.3710763125</ele>
        <time>2000-05-11T13:41:25.955</time>
      </trkpt>
      <trkpt lat="42.53611" lon="2.05342">
        <ele>1813.527221545</ele>
        <time>2000-05-11T13:41:26.955</time>
      </trkpt>
      <trkpt lat="42.53609" lon="2.05344">
        <ele>1812.5473554902</ele>
        <time>2000-05-11T13:41:27.955</time>
      </trkpt>
      <trkpt lat="42.53609" lon="2.05345">
        <ele>1811.855118221</ele>
        <time>2000-05-11T13:41:28.955</time>
      </trkpt>
      <trkpt lat="42.53609" lon="2.05347">
        <ele>1811.4352210395</ele>
        <time>2000-05-11T13:41:29.955</time>
      </trkpt>
      <trkpt lat="42.53609" lon="2.05347">
        <ele>1811.4216445761</ele>
        <time>2000-05-11T13:41:30.955</time>
      </trkpt>
      <trkpt lat="42.53609" lon="2.05348">
        <ele>1811.9907729218</ele>
        <time>2000-05-11T13:41:31.955</time>
      </trkpt>
      <trkpt lat="42.53607" lon="2.0535">
        <ele>1812.4987669112</ele>
        <time>2000-05-11T13:41:32.955</time>
      </trkpt>
      <trkpt lat="42.53607" lon="2.0535">
        <ele>1812.8764367869</ele>
        <time>2000-05-11T13:41:33.955</time>
      </trkpt>
      <trkpt lat="42.53607" lon="2.05351">
        <ele>1812.9765663721</ele>
        <time>2000-05-11T13:41:34.953</time>
      </trkpt>
      <trkpt lat="42.53608" lon="2.05353">
        <ele>1813.2143195376</ele>
        <time>2000-05-11T13:41:35.953</time>
      </trkpt>
      <trkpt lat="42.53608" lon="2.05355">
        <ele>1813.2044766331</ele>
        <time>2000-05-11T13:41:36.953</time>
      </trkpt>
      <trkpt lat="42.53607" lon="2.05356">
        <ele>1812.9743863206</ele>
        <time>2000-05-11T13:41:37.953</time>
      </trkpt>
      <trkpt lat="42.53607" lon="2.05357">
        <ele>1812.4088186601</ele>
        <time>2000-05-11T13:41:38.953</time>
      </trkpt>
      <trkpt lat="42.53607" lon="2.05359">
        <ele>1811.6158641011</ele>
        <time>2000-05-11T13:41:39.953</time>
      </trkpt>
      <trkpt lat="42.53607" lon="2.0536">
        <ele>1810.5683457127</ele>
        <time>2000-05-11T13:41:40.953</time>
      </trkpt>
      <trkpt lat="42.53608" lon="2.05362">
        <ele>1809.9208978843</ele>
        <time>2000-05-11T13:41:41.953</time>
      </trkpt>
      <trkpt lat="42.53608" lon="2.05362">
        <ele>1809.5835350977</ele>
        <time>2000-05-11T13:41:42.953</time>
      </trkpt>
      <trkpt lat="42.53608" lon="2.05363">
        <ele>1809.9280497856</ele>
        <time>2000-05-11T13:41:43.952</time>
      </trkpt>
      <trkpt lat="42.53608" lon="2.05365">
        <ele>1810.7033021798</ele>
        <time>2000-05-11T13:41:44.952</time>
      </trkpt>
      <trkpt lat="42.53608" lon="2.05366">
        <ele>1811.5396860817</ele>
        <time>2000-05-11T13:41:45.952</time>
      </trkpt>
      <trkpt lat="42.53608" lon="2.05368">
        <ele>1811.7461677592</ele>
        <time>2000-05-11T13:41:46.952</time>
      </trkpt>
      <trkpt lat="42.53607" lon="2.0537">
        <ele>1812.0118681375</ele>
        <time>2000-05-11T13:41:47.952</time>
      </trkpt>
      <trkpt lat="42.53607" lon="2.0537">
        <ele>1811.9311683893</ele>
        <time>2000-05-11T13:41:48.952</time>
      </trkpt>
      <trkpt lat="42.53605" lon="2.05371">
        <ele>1811.5146017427</ele>
        <time>2000-05-11T13:41:49.952</time>
      </trkpt>
      <trkpt lat="42.53604" lon="2.05374">
        <ele>1811.2784789573</ele>
        <time>2000-05-11T13:41:50.952</time>
      </trkpt>
      <trkpt lat="42.53603" lon="2.05376">
        <ele>1811.2074352266</ele>
        <time>2000-05-11T13:41:51.952</time>
      </trkpt>
      <trkpt lat="42.53603" lon="2.05378">
        <ele>1810.9603832314</ele>
        <time>2000-05-11T13:41:52.952</time>
      </trkpt>
      <trkpt lat="42.53604" lon="2.05381">
        <ele>1810.6773890186</ele>
        <time>2000-05-11T13:41:53.952</time>
      </trkpt>
      <trkpt lat="42.53604" lon="2.05383">
        <ele>1810.1456280837</ele>
        <time>2000-05-11T13:41:54.952</time>
      </trkpt>
      <trkpt lat="42.53604" lon="2.05384">
        <ele>1809.1131722281</ele>
        <time>2000-05-11T13:41:55.952</time>
      </trkpt>
      <trkpt lat="42.53604" lon="2.05385">
        <ele>1808.1766965915</ele>
        <time>2000-05-11T13:41:56.952</time>
      </trkpt>
      <trkpt lat="42.53604" lon="2.05385">
        <ele>1807.2298458096</ele>
        <time>2000-05-11T13:41:57.952</time>
      </trkpt>
      <trkpt lat="42.53604" lon="2.05386">
        <ele>1806.2080124307</ele>
        <time>2000-05-11T13:41:58.952</time>
      </trkpt>
      <trkpt lat="42.53603" lon="2.05388">
        <ele>1805.3827476066</ele>
        <time>2000-05-11T13:41:59.952</time>
      </trkpt>
      <trkpt lat="42.53602" lon="2.05389">
        <ele>1805.1855214771</ele>
        <time>2000-05-11T13:42:00.952</time>
      </trkpt>
      <trkpt lat="42.53602" lon="2.0539">
        <ele>1805.0186427129</ele>
        <time>2000-05-11T13:42:01.952</time>
      </trkpt>
      <trkpt lat="42.53601" lon="2.05392">
        <ele>1805.011330411</ele>
        <time>2000-05-11T13:42:02.952</time>
      </trkpt>
      <trkpt lat="42.53601" lon="2.05395">
        <ele>1805.2842421634</ele>
        <time>2000-05-11T13:42:03.952</time>
      </trkpt>
      <trkpt lat="42.53601" lon="2.05397">
        <ele>1805.6004905252</ele>
        <time>2000-05-11T13:42:04.952</time>
      </trkpt>
      <trkpt lat="42.536" lon="2.05398">
        <ele>1805.6977280328</ele>
        <time>2000-05-11T13:42:05.952</time>
      </trkpt>
      <trkpt lat="42.536" lon="2.05398">
        <ele>1805.907321221</ele>
        <time>2000-05-11T13:42:06.952</time>
      </trkpt>
      <trkpt lat="42.53601" lon="2.05399">
        <ele>1806.3125296686</ele>
        <time>2000-05-11T13:42:07.952</time>
      </trkpt>
      <trkpt lat="42.53599" lon="2.05401">
        <ele>1806.3762747733</ele>
        <time>2000-05-11T13:42:08.951</time>
      </trkpt>
      <trkpt lat="42.53599" lon="2.05402">
        <ele>1806.7412312651</ele>
        <time>2000-05-11T13:42:09.951</time>
      </trkpt>
      <trkpt lat="42.53599" lon="2.05404">
        <ele>1807.0310047088</ele>
        <time>2000-05-11T13:42:10.951</time>
      </trkpt>
      <trkpt lat="42.53599" lon="2.05406">
        <ele>1807.5526561508</ele>
        <time>2000-05-11T13:42:11.951</time>
      </trkpt>
      <trkpt lat="42.53599" lon="2.05408">
        <ele>1807.7757147007</ele>
        <time>2000-05-11T13:42:12.951</time>
      </trkpt>
      <trkpt lat="42.53599" lon="2.05409">
        <ele>1808.7761410663</ele>
        <time>2000-05-11T13:42:13.951</time>
      </trkpt>
      <trkpt lat="42.53599" lon="2.05411">
        <ele>1809.7589404952</ele>
        <time>2000-05-11T13:42:14.951</time>
      </trkpt>
      <trkpt lat="42.53599" lon="2.05412">
        <ele>1810.9268033167</ele>
        <time>2000-05-11T13:42:15.951</time>
      </trkpt>
      <trkpt lat="42.53599" lon="2.05413">
        <ele>1811.8427941343</ele>
        <time>2000-05-11T13:42:16.951</time>
      </trkpt>
      <trkpt lat="42.53599" lon="2.05414">
        <ele>1812.6802687857</ele>
        <time>2000-05-11T13:42:17.951</time>
      </trkpt>
      <trkpt lat="42.53598" lon="2.05415">
        <ele>1812.644686489</ele>
        <time>2000-05-11T13:42:18.951</time>
      </trkpt>
      <trkpt lat="42.53598" lon="2.05416">
        <ele>1812.367579033</ele>
        <time>2000-05-11T13:42:19.951</time>
      </trkpt>
      <trkpt lat="42.53597" lon="2.05417">
        <ele>1811.8801251585</ele>
        <time>2000-05-11T13:42:20.951</time>
      </trkpt>
      <trkpt lat="42.53597" lon="2.05418">
        <ele>1811.3865974108</ele>
        <time>2000-05-11T13:42:21.951</time>
      </trkpt>
      <trkpt lat="42.53597" lon="2.05419">
        <ele>1810.6100153465</ele>
        <time>2000-05-11T13:42:22.951</time>
      </trkpt>
      <trkpt lat="42.53598" lon="2.05421">
        <ele>1809.7917200705</ele>
        <time>2000-05-11T13:42:23.951</time>
      </trkpt>
      <trkpt lat="42.53597" lon="2.05422">
        <ele>1808.8092627108</ele>
        <time>2000-05-11T13:42:24.951</time>
      </trkpt>
      <trkpt lat="42.53597" lon="2.05424">
        <ele>1808.140419518</ele>
        <time>2000-05-11T13:42:25.951</time>
      </trkpt>
      <trkpt lat="42.53596" lon="2.05425">
        <ele>1807.2558657374</ele>
        <time>2000-05-11T13:42:26.951</time>
      </trkpt>
      <trkpt lat="42.53596" lon="2.05425">
        <ele>1806.7265681963</ele>
        <time>2000-05-11T13:42:27.951</time>
      </trkpt>
      <trkpt lat="42.53596" lon="2.05427">
        <ele>1806.5867876193</ele>
        <time>2000-05-11T13:42:28.951</time>
      </trkpt>
      <trkpt lat="42.53597" lon="2.05428">
        <ele>1807.0719208913</ele>
        <time>2000-05-11T13:42:29.951</time>
      </trkpt>
      <trkpt lat="42.53598" lon="2.05429">
        <ele>1807.6075457009</ele>
        <time>2000-05-11T13:42:30.951</time>
      </trkpt>
      <trkpt lat="42.53598" lon="2.0543">
        <ele>1808.8067595746</ele>
        <time>2000-05-11T13:42:31.951</time>
      </trkpt>
      <trkpt lat="42.53597" lon="2.05432">
        <ele>1810.1818897577</ele>
        <time>2000-05-11T13:42:32.951</time>
      </trkpt>
      <trkpt lat="42.53596" lon="2.05434">
        <ele>1811.6038555048</ele>
        <time>2000-05-11T13:42:33.951</time>
      </trkpt>
      <trkpt lat="42.53595" lon="2.05436">
        <ele>1812.8273738725</ele>
        <time>2000-05-11T13:42:34.951</time>
      </trkpt>
      <trkpt lat="42.53594" lon="2.05437">
        <ele>1813.5440340452</ele>
        <time>2000-05-11T13:42:35.951</time>
      </trkpt>
      <trkpt lat="42.53594" lon="2.05438">
        <ele>1813.4847176068</ele>
        <time>2000-05-11T13:42:36.951</time>
      </trkpt>
      <trkpt lat="42.53593" lon="2.05439">
        <ele>1813.3880736532</ele>
        <time>2000-05-11T13:42:37.951</time>
      </trkpt>
      <trkpt lat="42.53593" lon="2.0544">
        <ele>1813.197408472</ele>
        <time>2000-05-11T13:42:38.951</time>
      </trkpt>
      <trkpt lat="42.53593" lon="2.05442">
        <ele>1813.0092763813</ele>
        <time>2000-05-11T13:42:39.951</time>
      </trkpt>
      <trkpt lat="42.53593" lon="2.05443">
        <ele>1813.2839106562</ele>
        <time>2000-05-11T13:42:40.951</time>
      </trkpt>
      <trkpt lat="42.53593" lon="2.05444">
        <ele>1814.0351440502</ele>
        <time>2000-05-11T13:42:41.951</time>
      </trkpt>
      <trkpt lat="42.53593" lon="2.05445">
        <ele>1815.0067387404</ele>
        <time>2000-05-11T13:42:42.951</time>
      </trkpt>
      <trkpt lat="42.53591" lon="2.05446">
        <ele>1815.6304076361</ele>
        <time>2000-05-11T13:42:43.951</time>
      </trkpt>
      <trkpt lat="42.53591" lon="2.05448">
        <ele>1816.4013357054</ele>
        <time>2000-05-11T13:42:44.951</time>
      </trkpt>
      <trkpt lat="42.53591" lon="2.05451">
        <ele>1817.3549791779</ele>
        <time>2000-05-11T13:42:45.951</time>
      </trkpt>
      <trkpt lat="42.53591" lon="2.05454">
        <ele>1818.6869287686</ele>
        <time>2000-05-11T13:42:46.951</time>
      </trkpt>
      <trkpt lat="42.53591" lon="2.05455">
        <ele>1819.9338406755</ele>
        <time>2000-05-11T13:42:47.951</time>
      </trkpt>
      <trkpt lat="42.53591" lon="2.05455">
        <ele>1821.4959135234</ele>
        <time>2000-05-11T13:42:48.951</time>
      </trkpt>
      <trkpt lat="42.53591" lon="2.05456">
        <ele>1822.8196974581</ele>
        <time>2000-05-11T13:42:49.951</time>
      </trkpt>
      <trkpt lat="42.53592" lon="2.05457">
        <ele>1823.991574578</ele>
        <time>2000-05-11T13:42:50.951</time>
      </trkpt>
      <trkpt lat="42.53592" lon="2.05459">
        <ele>1824.3496579388</ele>
        <time>2000-05-11T13:42:51.951</time>
      </trkpt>
      <trkpt lat="42.53591" lon="2.05461">
        <ele>1824.3076111015</ele>
        <time>2000-05-11T13:42:52.951</time>
      </trkpt>
      <trkpt lat="42.53592" lon="2.05461">
        <ele>1824.1747288471</ele>
        <time>2000-05-11T13:42:53.951</time>
      </trkpt>
      <trkpt lat="42.53592" lon="2.05463">
        <ele>1823.3629909644</ele>
        <time>2000-05-11T13:42:54.951</time>
      </trkpt>
      <trkpt lat="42.53591" lon="2.05465">
        <ele>1821.9189777367</ele>
        <time>2000-05-11T13:42:55.951</time>
      </trkpt>
      <trkpt lat="42.5359" lon="2.05466">
        <ele>1820.4408751559</ele>
        <time>2000-05-11T13:42:56.951</time>
      </trkpt>
      <trkpt lat="42.53588" lon="2.05467">
        <ele>1818.9795351081</ele>
        <time>2000-05-11T13:42:57.951</time>
      </trkpt>
      <trkpt lat="42.53587" lon="2.05467">
        <ele>1817.305473523</ele>
        <time>2000-05-11T13:42:58.951</time>
      </trkpt>
      <trkpt lat="42.53586" lon="2.05468">
        <ele>1815.9137152657</ele>
        <time>2000-05-11T13:42:59.951</time>
      </trkpt>
      <trkpt lat="42.53586" lon="2.05469">
        <ele>1814.9284727275</ele>
        <time>2000-05-11T13:43:00.951</time>
      </trkpt>
      <trkpt lat="42.53586" lon="2.0547">
        <ele>1813.9042744037</ele>
        <time>2000-05-11T13:43:01.951</time>
      </trkpt>
      <trkpt lat="42.53585" lon="2.05471">
        <ele>1812.8733907197</ele>
        <time>2000-05-11T13:43:02.951</time>
      </trkpt>
      <trkpt lat="42.53584" lon="2.05471">
        <ele>1812.2040185053</ele>
        <time>2000-05-11T13:43:03.951</time>
      </trkpt>
      <trkpt lat="42.53583" lon="2.05472">
        <ele>1812.2310551677</ele>
        <time>2000-05-11T13:43:04.951</time>
      </trkpt>
      <trkpt lat="42.53582" lon="2.05473">
        <ele>1812.0225752452</ele>
        <time>2000-05-11T13:43:05.951</time>
      </trkpt>
      <trkpt lat="42.53582" lon="2.05475">
        <ele>1812.0243952457</ele>
        <time>2000-05-11T13:43:06.951</time>
      </trkpt>
      <trkpt lat="42.53582" lon="2.05476">
        <ele>1812.1082270045</ele>
        <time>2000-05-11T13:43:07.951</time>
      </trkpt>
      <trkpt lat="42.53581" lon="2.05477">
        <ele>1811.9317280199</ele>
        <time>2000-05-11T13:43:08.951</time>
      </trkpt>
      <trkpt lat="42.5358" lon="2.05478">
        <ele>1811.3895587264</ele>
        <time>2000-05-11T13:43:09.951</time>
      </trkpt>
      <trkpt lat="42.53578" lon="2.05479">
        <ele>1811.0689573195</ele>
        <time>2000-05-11T13:43:10.951</time>
      </trkpt>
      <trkpt lat="42.53578" lon="2.05481">
        <ele>1811.0834201837</ele>
        <time>2000-05-11T13:43:11.951</time>
      </trkpt>
      <trkpt lat="42.53578" lon="2.05482">
        <ele>1811.6912322933</ele>
        <time>2000-05-11T13:43:12.951</time>
      </trkpt>
      <trkpt lat="42.53578" lon="2.05483">
        <ele>1812.9278269103</ele>
        <time>2000-05-11T13:43:13.951</time>
      </trkpt>
      <trkpt lat="42.53577" lon="2.05484">
        <ele>1814.4607415723</ele>
        <time>2000-05-11T13:43:14.951</time>
      </trkpt>
      <trkpt lat="42.53577" lon="2.05485">
        <ele>1816.2335451622</ele>
        <time>2000-05-11T13:43:15.951</time>
      </trkpt>
      <trkpt lat="42.53576" lon="2.05486">
        <ele>1817.7479109306</ele>
        <time>2000-05-11T13:43:16.951</time>
      </trkpt>
      <trkpt lat="42.53575" lon="2.05487">
        <ele>1818.8733356873</ele>
        <time>2000-05-11T13:43:17.951</time>
      </trkpt>
      <trkpt lat="42.53574" lon="2.05487">
        <ele>1819.3012602698</ele>
        <time>2000-05-11T13:43:18.951</time>
      </trkpt>
      <trkpt lat="42.53573" lon="2.0549">
        <ele>1819.9911065219</ele>
        <time>2000-05-11T13:43:19.951</time>
      </trkpt>
      <trkpt lat="42.53573" lon="2.0549">
        <ele>1820.3974477408</ele>
        <time>2000-05-11T13:43:20.951</time>
      </trkpt>
      <trkpt lat="42.53573" lon="2.05491">
        <ele>1820.9122162649</ele>
        <time>2000-05-11T13:43:21.951</time>
      </trkpt>
      <trkpt lat="42.53573" lon="2.05491">
        <ele>1821.3335955387</ele>
        <time>2000-05-11T13:43:22.951</time>
      </trkpt>
      <trkpt lat="42.53573" lon="2.05492">
        <ele>1821.8122336682</ele>
        <time>2000-05-11T13:43:23.951</time>
      </trkpt>
      <trkpt lat="42.53572" lon="2.05494">
        <ele>1820.7630033184</ele>
        <time>2000-05-11T13:43:24.951</time>
      </trkpt>
      <trkpt lat="42.53571" lon="2.05494">
        <ele>1819.5171752919</ele>
        <time>2000-05-11T13:43:25.951</time>
      </trkpt>
      <trkpt lat="42.5357" lon="2.05495">
        <ele>1818.1778734131</ele>
        <time>2000-05-11T13:43:26.952</time>
      </trkpt>
      <trkpt lat="42.5357" lon="2.05496">
        <ele>1816.8847294329</ele>
        <time>2000-05-11T13:43:27.952</time>
      </trkpt>
      <trkpt lat="42.53568" lon="2.05496">
        <ele>1816.2057900142</ele>
        <time>2000-05-11T13:43:28.952</time>
      </trkpt>
      <trkpt lat="42.53568" lon="2.05496">
        <ele>1816.493001917</ele>
        <time>2000-05-11T13:43:29.952</time>
      </trkpt>
      <trkpt lat="42.53567" lon="2.05497">
        <ele>1816.5194990776</ele>
        <time>2000-05-11T13:43:30.953</time>
      </trkpt>
      <trkpt lat="42.53566" lon="2.05497">
        <ele>1816.0070949744</ele>
        <time>2000-05-11T13:43:31.953</time>
      </trkpt>
      <trkpt lat="42.53566" lon="2.05499">
        <ele>1815.4009475438</ele>
        <time>2000-05-11T13:43:32.952</time>
      </trkpt>
      <trkpt lat="42.53565" lon="2.05502">
        <ele>1814.6658164129</ele>
        <time>2000-05-11T13:43:33.952</time>
      </trkpt>
      <trkpt lat="42.53564" lon="2.05503">
        <ele>1813.8470598314</ele>
        <time>2000-05-11T13:43:34.952</time>
      </trkpt>
      <trkpt lat="42.53563" lon="2.05504">
        <ele>1813.7707168056</ele>
        <time>2000-05-11T13:43:35.952</time>
      </trkpt>
      <trkpt lat="42.53562" lon="2.05506">
        <ele>1814.4607237274</ele>
        <time>2000-05-11T13:43:36.952</time>
      </trkpt>
      <trkpt lat="42.53561" lon="2.05507">
        <ele>1815.1293323522</ele>
        <time>2000-05-11T13:43:37.952</time>
      </trkpt>
      <trkpt lat="42.5356" lon="2.05509">
        <ele>1816.0296285136</ele>
        <time>2000-05-11T13:43:38.952</time>
      </trkpt>
      <trkpt lat="42.5356" lon="2.05509">
        <ele>1816.7663798839</ele>
        <time>2000-05-11T13:43:39.952</time>
      </trkpt>
      <trkpt lat="42.53558" lon="2.0551">
        <ele>1817.0535282901</ele>
        <time>2000-05-11T13:43:40.952</time>
      </trkpt>
      <trkpt lat="42.53557" lon="2.05511">
        <ele>1817.0694442019</ele>
        <time>2000-05-11T13:43:41.952</time>
      </trkpt>
      <trkpt lat="42.53557" lon="2.05512">
        <ele>1816.9207924476</ele>
        <time>2000-05-11T13:43:42.952</time>
      </trkpt>
      <trkpt lat="42.53557" lon="2.05513">
        <ele>1815.6861986589</ele>
        <time>2000-05-11T13:43:43.952</time>
      </trkpt>
      <trkpt lat="42.53557" lon="2.05513">
        <ele>1814.6987751117</ele>
        <time>2000-05-11T13:43:44.952</time>
      </trkpt>
      <trkpt lat="42.53557" lon="2.05514">
        <ele>1813.7082000908</ele>
        <time>2000-05-11T13:43:45.952</time>
      </trkpt>
      <trkpt lat="42.53556" lon="2.05517">
        <ele>1812.7178803988</ele>
        <time>2000-05-11T13:43:46.952</time>
      </trkpt>
      <trkpt lat="42.53555" lon="2.05517">
        <ele>1811.7431518221</ele>
        <time>2000-05-11T13:43:47.952</time>
      </trkpt>
      <trkpt lat="42.53555" lon="2.05519">
        <ele>1811.6451915532</ele>
        <time>2000-05-11T13:43:48.952</time>
      </trkpt>
      <trkpt lat="42.53554" lon="2.05521">
        <ele>1811.9859811056</ele>
        <time>2000-05-11T13:43:49.952</time>
      </trkpt>
      <trkpt lat="42.53553" lon="2.05521">
        <ele>1812.6056052675</ele>
        <time>2000-05-11T13:43:50.952</time>
      </trkpt>
      <trkpt lat="42.53553" lon="2.05521">
        <ele>1813.2314757526</ele>
        <time>2000-05-11T13:43:51.952</time>
      </trkpt>
      <trkpt lat="42.53552" lon="2.0552">
        <ele>1814.3732473813</ele>
        <time>2000-05-11T13:43:52.952</time>
      </trkpt>
      <trkpt lat="42.53551" lon="2.0552">
        <ele>1815.031372425</ele>
        <time>2000-05-11T13:43:53.952</time>
      </trkpt>
      <trkpt lat="42.5355" lon="2.05519">
        <ele>1814.9746381324</ele>
        <time>2000-05-11T13:43:54.952</time>
      </trkpt>
      <trkpt lat="42.5355" lon="2.0552">
        <ele>1814.8884863863</ele>
        <time>2000-05-11T13:43:55.952</time>
      </trkpt>
      <trkpt lat="42.53548" lon="2.05521">
        <ele>1815.0082232963</ele>
        <time>2000-05-11T13:43:56.952</time>
      </trkpt>
      <trkpt lat="42.53548" lon="2.05521">
        <ele>1814.8300193394</ele>
        <time>2000-05-11T13:43:57.952</time>
      </trkpt>
      <trkpt lat="42.53549" lon="2.05522">
        <ele>1814.9514498048</ele>
        <time>2000-05-11T13:43:58.951</time>
      </trkpt>
      <trkpt lat="42.53548" lon="2.05523">
        <ele>1815.5322864806</ele>
        <time>2000-05-11T13:43:59.951</time>
      </trkpt>
      <trkpt lat="42.5355" lon="2.05523">
        <ele>1815.0255315084</ele>
        <time>2000-05-11T13:44:00.954</time>
      </trkpt>
      <trkpt lat="42.5355" lon="2.05524">
        <ele>1814.0637568934</ele>
        <time>2000-05-11T13:44:01.954</time>
      </trkpt>
      <trkpt lat="42.53549" lon="2.05525">
        <ele>1812.7075756922</ele>
        <time>2000-05-11T13:44:02.951</time>
      </trkpt>
      <trkpt lat="42.53548" lon="2.05526">
        <ele>1811.1133721862</ele>
        <time>2000-05-11T13:44:03.951</time>
      </trkpt>
      <trkpt lat="42.53547" lon="2.05526">
        <ele>1809.2630122418</ele>
        <time>2000-05-11T13:44:04.951</time>
      </trkpt>
      <trkpt lat="42.53546" lon="2.05527">
        <ele>1808.4312764963</ele>
        <time>2000-05-11T13:44:05.952</time>
      </trkpt>
      <trkpt lat="42.53546" lon="2.05527">
        <ele>1807.8486717375</ele>
        <time>2000-05-11T13:44:06.952</time>
      </trkpt>
      <trkpt lat="42.53545" lon="2.05529">
        <ele>1808.2322013853</ele>
        <time>2000-05-11T13:44:07.955</time>
      </trkpt>
      <trkpt lat="42.53545" lon="2.05529">
        <ele>1808.7438658686</ele>
        <time>2000-05-11T13:44:08.955</time>
      </trkpt>
      <trkpt lat="42.53545" lon="2.0553">
        <ele>1809.7499333236</ele>
        <time>2000-05-11T13:44:09.955</time>
      </trkpt>
      <trkpt lat="42.53545" lon="2.0553">
        <ele>1810.7432043729</ele>
        <time>2000-05-11T13:44:10.955</time>
      </trkpt>
      <trkpt lat="42.53544" lon="2.0553">
        <ele>1811.3396093162</ele>
        <time>2000-05-11T13:44:11.955</time>
      </trkpt>
      <trkpt lat="42.53542" lon="2.05531">
        <ele>1811.2567053137</ele>
        <time>2000-05-11T13:44:12.955</time>
      </trkpt>
      <trkpt lat="42.53541" lon="2.05532">
        <ele>1810.9343726393</ele>
        <time>2000-05-11T13:44:13.957</time>
      </trkpt>
      <trkpt lat="42.53541" lon="2.05532">
        <ele>1810.190496736</ele>
        <time>2000-05-11T13:44:14.957</time>
      </trkpt>
      <trkpt lat="42.5354" lon="2.05533">
        <ele>1809.5728048488</ele>
        <time>2000-05-11T13:44:15.957</time>
      </trkpt>
      <trkpt lat="42.5354" lon="2.05533">
        <ele>1809.3519790677</ele>
        <time>2000-05-11T13:44:16.957</time>
      </trkpt>
      <trkpt lat="42.5354" lon="2.05535">
        <ele>1808.7717499539</ele>
        <time>2000-05-11T13:44:17.957</time>
      </trkpt>
      <trkpt lat="42.5354" lon="2.05536">
        <ele>1808.5972385848</ele>
        <time>2000-05-11T13:44:18.959</time>
      </trkpt>
      <trkpt lat="42.5354" lon="2.05536">
        <ele>1808.4227272157</ele>
        <time>2000-05-11T13:44:19.959</time>
      </trkpt>
      <trkpt lat="42.53538" lon="2.05537">
        <ele>1807.902912827</ele>
        <time>2000-05-11T13:44:20.961</time>
      </trkpt>
      <trkpt lat="42.53538" lon="2.05538">
        <ele>1807.2834546361</ele>
        <time>2000-05-11T13:44:21.961</time>
      </trkpt>
      <trkpt lat="42.53537" lon="2.05538">
        <ele>1807.0264195312</ele>
        <time>2000-05-11T13:44:22.960</time>
      </trkpt>
      <trkpt lat="42.53536" lon="2.05538">
        <ele>1806.8827029578</ele>
        <time>2000-05-11T13:44:23.960</time>
      </trkpt>
      <trkpt lat="42.53536" lon="2.0554">
        <ele>1807.1743256398</ele>
        <time>2000-05-11T13:44:24.961</time>
      </trkpt>
      <trkpt lat="42.53536" lon="2.05541">
        <ele>1807.6310785137</ele>
        <time>2000-05-11T13:44:25.961</time>
      </trkpt>
      <trkpt lat="42.53535" lon="2.05541">
        <ele>1808.0918077569</ele>
        <time>2000-05-11T13:44:26.961</time>
      </trkpt>
      <trkpt lat="42.53534" lon="2.05541">
        <ele>1808.6161149302</ele>
        <time>2000-05-11T13:44:27.961</time>
      </trkpt>
      <trkpt lat="42.53532" lon="2.0554">
        <ele>1809.1253577514</ele>
        <time>2000-05-11T13:44:28.963</time>
      </trkpt>
      <trkpt lat="42.53531" lon="2.05539">
        <ele>1808.9629566865</ele>
        <time>2000-05-11T13:44:29.963</time>
      </trkpt>
      <trkpt lat="42.53532" lon="2.05536">
        <ele>1808.8602579329</ele>
        <time>2000-05-11T13:44:30.961</time>
      </trkpt>
      <trkpt lat="42.53533" lon="2.05535">
        <ele>1809.1264595276</ele>
        <time>2000-05-11T13:44:31.961</time>
      </trkpt>
      <trkpt lat="42.53533" lon="2.05534">
        <ele>1809.5364396324</ele>
        <time>2000-05-11T13:44:32.961</time>
      </trkpt>
      <trkpt lat="42.53533" lon="2.05535">
        <ele>1809.5976557054</ele>
        <time>2000-05-11T13:44:33.961</time>
      </trkpt>
      <trkpt lat="42.53532" lon="2.05534">
        <ele>1810.2363371374</ele>
        <time>2000-05-11T13:44:34.961</time>
      </trkpt>
      <trkpt lat="42.53529" lon="2.05533">
        <ele>1810.3245167077</ele>
        <time>2000-05-11T13:44:35.961</time>
      </trkpt>
      <trkpt lat="42.53528" lon="2.05533">
        <ele>1809.5652379116</ele>
        <time>2000-05-11T13:44:36.961</time>
      </trkpt>
      <trkpt lat="42.53528" lon="2.05533">
        <ele>1808.7031640472</ele>
        <time>2000-05-11T13:44:37.961</time>
      </trkpt>
      <trkpt lat="42.53528" lon="2.05533">
        <ele>1807.9253109626</ele>
        <time>2000-05-11T13:44:38.961</time>
      </trkpt>
      <trkpt lat="42.53528" lon="2.05532">
        <ele>1806.3459839826</ele>
        <time>2000-05-11T13:44:39.961</time>
      </trkpt>
      <trkpt lat="42.53527" lon="2.05531">
        <ele>1804.903856368</ele>
        <time>2000-05-11T13:44:40.960</time>
      </trkpt>
      <trkpt lat="42.53525" lon="2.05531">
        <ele>1803.5148110457</ele>
        <time>2000-05-11T13:44:41.960</time>
      </trkpt>
      <trkpt lat="42.53525" lon="2.05531">
        <ele>1802.1257657234</ele>
        <time>2000-05-11T13:44:42.960</time>
      </trkpt>
      <trkpt lat="42.53525" lon="2.05531">
        <ele>1800.736720401</ele>
        <time>2000-05-11T13:44:43.960</time>
      </trkpt>
      <trkpt lat="42.53525" lon="2.0553">
        <ele>1800.1187296517</ele>
        <time>2000-05-11T13:44:44.958</time>
      </trkpt>
      <trkpt lat="42.53525" lon="2.05529">
        <ele>1800.1181686312</ele>
        <time>2000-05-11T13:44:45.958</time>
      </trkpt>
      <trkpt lat="42.53526" lon="2.05529">
        <ele>1801.0860612176</ele>
        <time>2000-05-11T13:44:46.957</time>
      </trkpt>
      <trkpt lat="42.53526" lon="2.05529">
        <ele>1802.0539538041</ele>
        <time>2000-05-11T13:44:47.957</time>
      </trkpt>
      <trkpt lat="42.53527" lon="2.05529">
        <ele>1803.5774757685</ele>
        <time>2000-05-11T13:44:48.958</time>
      </trkpt>
      <trkpt lat="42.53527" lon="2.05529">
        <ele>1804.790256327</ele>
        <time>2000-05-11T13:44:49.958</time>
      </trkpt>
      <trkpt lat="42.53524" lon="2.0553">
        <ele>1805.1227408813</ele>
        <time>2000-05-11T13:44:50.954</time>
      </trkpt>
      <trkpt lat="42.53523" lon="2.0553">
        <ele>1804.6241231749</ele>
        <time>2000-05-11T13:44:51.954</time>
      </trkpt>
      <trkpt lat="42.53521" lon="2.05531">
        <ele>1804.5432654453</ele>
        <time>2000-05-11T13:44:52.954</time>
      </trkpt>
      <trkpt lat="42.5352" lon="2.0553">
        <ele>1804.1301991954</ele>
        <time>2000-05-11T13:44:53.954</time>
      </trkpt>
      <trkpt lat="42.5352" lon="2.0553">
        <ele>1803.7171329455</ele>
        <time>2000-05-11T13:44:54.954</time>
      </trkpt>
      <trkpt lat="42.5352" lon="2.0553">
        <ele>1803.9745219676</ele>
        <time>2000-05-11T13:44:55.954</time>
      </trkpt>
      <trkpt lat="42.53521" lon="2.05528">
        <ele>1803.9384930678</ele>
        <time>2000-05-11T13:44:56.956</time>
      </trkpt>
      <trkpt lat="42.53522" lon="2.05528">
        <ele>1803.2573938025</ele>
        <time>2000-05-11T13:44:57.956</time>
      </trkpt>
      <trkpt lat="42.53522" lon="2.05526">
        <ele>1802.3128366798</ele>
        <time>2000-05-11T13:44:58.956</time>
      </trkpt>
      <trkpt lat="42.53522" lon="2.05526">
        <ele>1801.3682795571</ele>
        <time>2000-05-11T13:44:59.956</time>
      </trkpt>
      <trkpt lat="42.53523" lon="2.05528">
        <ele>1800.4075119385</ele>
        <time>2000-05-11T13:45:00.956</time>
      </trkpt>
      <trkpt lat="42.53524" lon="2.05529">
        <ele>1800.0387978353</ele>
        <time>2000-05-11T13:45:01.956</time>
      </trkpt>
      <trkpt lat="42.53525" lon="2.05532">
        <ele>1799.765210849</ele>
        <time>2000-05-11T13:45:02.956</time>
      </trkpt>
      <trkpt lat="42.53525" lon="2.05533">
        <ele>1799.5517728494</ele>
        <time>2000-05-11T13:45:03.956</time>
      </trkpt>
      <trkpt lat="42.53526" lon="2.05536">
        <ele>1800.1736945506</ele>
        <time>2000-05-11T13:45:04.956</time>
      </trkpt>
      <trkpt lat="42.53526" lon="2.05537">
        <ele>1801.1688669905</ele>
        <time>2000-05-11T13:45:05.956</time>
      </trkpt>
      <trkpt lat="42.53526" lon="2.05539">
        <ele>1802.7904627386</ele>
        <time>2000-05-11T13:45:06.956</time>
      </trkpt>
      <trkpt lat="42.53526" lon="2.0554">
        <ele>1804.9309010308</ele>
        <time>2000-05-11T13:45:07.956</time>
      </trkpt>
      <trkpt lat="42.53526" lon="2.05542">
        <ele>1807.2569149837</ele>
        <time>2000-05-11T13:45:08.956</time>
      </trkpt>
      <trkpt lat="42.53527" lon="2.05543">
        <ele>1808.8514606323</ele>
        <time>2000-05-11T13:45:09.956</time>
      </trkpt>
      <trkpt lat="42.53526" lon="2.05544">
        <ele>1809.9508854663</ele>
        <time>2000-05-11T13:45:10.956</time>
      </trkpt>
      <trkpt lat="42.53525" lon="2.05545">
        <ele>1810.4693444185</ele>
        <time>2000-05-11T13:45:11.956</time>
      </trkpt>
      <trkpt lat="42.53525" lon="2.05546">
        <ele>1810.6969691098</ele>
        <time>2000-05-11T13:45:12.956</time>
      </trkpt>
      <trkpt lat="42.53525" lon="2.05546">
        <ele>1810.7189061536</ele>
        <time>2000-05-11T13:45:13.956</time>
      </trkpt>
      <trkpt lat="42.53524" lon="2.05547">
        <ele>1810.5476205986</ele>
        <time>2000-05-11T13:45:14.956</time>
      </trkpt>
      <trkpt lat="42.53524" lon="2.05548">
        <ele>1810.7092556246</ele>
        <time>2000-05-11T13:45:15.956</time>
      </trkpt>
      <trkpt lat="42.53524" lon="2.0555">
        <ele>1810.9800504548</ele>
        <time>2000-05-11T13:45:16.957</time>
      </trkpt>
      <trkpt lat="42.53523" lon="2.05551">
        <ele>1811.2494707206</ele>
        <time>2000-05-11T13:45:17.957</time>
      </trkpt>
      <trkpt lat="42.53522" lon="2.05551">
        <ele>1812.0266649799</ele>
        <time>2000-05-11T13:45:18.957</time>
      </trkpt>
      <trkpt lat="42.53521" lon="2.05551">
        <ele>1812.7806457773</ele>
        <time>2000-05-11T13:45:19.957</time>
      </trkpt>
      <trkpt lat="42.5352" lon="2.05552">
        <ele>1813.4066186456</ele>
        <time>2000-05-11T13:45:20.957</time>
      </trkpt>
      <trkpt lat="42.53519" lon="2.05553">
        <ele>1813.7963193791</ele>
        <time>2000-05-11T13:45:21.957</time>
      </trkpt>
      <trkpt lat="42.53519" lon="2.05555">
        <ele>1814.2218948582</ele>
        <time>2000-05-11T13:45:22.957</time>
      </trkpt>
      <trkpt lat="42.53519" lon="2.05556">
        <ele>1814.375756155</ele>
        <time>2000-05-11T13:45:23.957</time>
      </trkpt>
      <trkpt lat="42.5352" lon="2.05558">
        <ele>1814.9545207748</ele>
        <time>2000-05-11T13:45:24.957</time>
      </trkpt>
      <trkpt lat="42.5352" lon="2.0556">
        <ele>1815.9837380867</ele>
        <time>2000-05-11T13:45:25.957</time>
      </trkpt>
      <trkpt lat="42.5352" lon="2.05561">
        <ele>1817.569816269</ele>
        <time>2000-05-11T13:45:26.957</time>
      </trkpt>
      <trkpt lat="42.5352" lon="2.05561">
        <ele>1819.0255692584</ele>
        <time>2000-05-11T13:45:27.957</time>
      </trkpt>
      <trkpt lat="42.53519" lon="2.05561">
        <ele>1820.4086933382</ele>
        <time>2000-05-11T13:45:28.957</time>
      </trkpt>
      <trkpt lat="42.53518" lon="2.05562">
        <ele>1821.4177154209</ele>
        <time>2000-05-11T13:45:29.957</time>
      </trkpt>
      <trkpt lat="42.53517" lon="2.05564">
        <ele>1821.9088524209</ele>
        <time>2000-05-11T13:45:30.955</time>
      </trkpt>
      <trkpt lat="42.53516" lon="2.05565">
        <ele>1821.883567097</ele>
        <time>2000-05-11T13:45:31.955</time>
      </trkpt>
      <trkpt lat="42.53516" lon="2.05566">
        <ele>1821.7363256516</ele>
        <time>2000-05-11T13:45:32.955</time>
      </trkpt>
      <trkpt lat="42.53516" lon="2.05567">
        <ele>1821.2960009385</ele>
        <time>2000-05-11T13:45:33.955</time>
      </trkpt>
      <trkpt lat="42.53516" lon="2.05567">
        <ele>1820.9174195634</ele>
        <time>2000-05-11T13:45:34.955</time>
      </trkpt>
      <trkpt lat="42.53515" lon="2.05568">
        <ele>1820.7854082929</ele>
        <time>2000-05-11T13:45:35.955</time>
      </trkpt>
      <trkpt lat="42.53515" lon="2.0557">
        <ele>1820.9025017366</ele>
        <time>2000-05-11T13:45:36.955</time>
      </trkpt>
      <trkpt lat="42.53514" lon="2.05571">
        <ele>1821.2341060875</ele>
        <time>2000-05-11T13:45:37.954</time>
      </trkpt>
      <trkpt lat="42.53514" lon="2.05571">
        <ele>1821.6953628046</ele>
        <time>2000-05-11T13:45:38.954</time>
      </trkpt>
      <trkpt lat="42.53513" lon="2.05573">
        <ele>1822.0567703126</ele>
        <time>2000-05-11T13:45:39.950</time>
      </trkpt>
      <trkpt lat="42.53512" lon="2.05573">
        <ele>1821.9957234215</ele>
        <time>2000-05-11T13:45:40.950</time>
      </trkpt>
      <trkpt lat="42.53511" lon="2.05574">
        <ele>1821.5736888789</ele>
        <time>2000-05-11T13:45:41.950</time>
      </trkpt>
      <trkpt lat="42.53508" lon="2.05574">
        <ele>1821.0789273979</ele>
        <time>2000-05-11T13:45:42.950</time>
      </trkpt>
      <trkpt lat="42.53508" lon="2.05576">
        <ele>1820.9191633407</ele>
        <time>2000-05-11T13:45:43.950</time>
      </trkpt>
      <trkpt lat="42.53507" lon="2.05577">
        <ele>1820.7838887839</ele>
        <time>2000-05-11T13:45:44.950</time>
      </trkpt>
      <trkpt lat="42.53507" lon="2.05577">
        <ele>1820.8250988321</ele>
        <time>2000-05-11T13:45:45.950</time>
      </trkpt>
      <trkpt lat="42.53506" lon="2.05577">
        <ele>1820.4375459369</ele>
        <time>2000-05-11T13:45:46.950</time>
      </trkpt>
      <trkpt lat="42.53506" lon="2.05579">
        <ele>1820.1159573818</ele>
        <time>2000-05-11T13:45:47.950</time>
      </trkpt>
      <trkpt lat="42.53506" lon="2.05579">
        <ele>1819.4593714029</ele>
        <time>2000-05-11T13:45:48.950</time>
      </trkpt>
      <trkpt lat="42.53506" lon="2.05581">
        <ele>1819.0590006733</ele>
        <time>2000-05-11T13:45:49.951</time>
      </trkpt>
      <trkpt lat="42.53505" lon="2.05582">
        <ele>1818.4334643079</ele>
        <time>2000-05-11T13:45:50.951</time>
      </trkpt>
      <trkpt lat="42.53504" lon="2.05583">
        <ele>1818.3385640411</ele>
        <time>2000-05-11T13:45:51.951</time>
      </trkpt>
      <trkpt lat="42.53503" lon="2.05585">
        <ele>1818.1090408066</ele>
        <time>2000-05-11T13:45:52.951</time>
      </trkpt>
      <trkpt lat="42.53502" lon="2.05586">
        <ele>1817.6690029288</ele>
        <time>2000-05-11T13:45:53.951</time>
      </trkpt>
      <trkpt lat="42.53501" lon="2.05587">
        <ele>1816.9548956228</ele>
        <time>2000-05-11T13:45:54.951</time>
      </trkpt>
      <trkpt lat="42.535" lon="2.05587">
        <ele>1816.6142329181</ele>
        <time>2000-05-11T13:45:55.951</time>
      </trkpt>
      <trkpt lat="42.535" lon="2.05588">
        <ele>1816.5532875177</ele>
        <time>2000-05-11T13:45:56.951</time>
      </trkpt>
      <trkpt lat="42.53499" lon="2.05589">
        <ele>1816.8304761466</ele>
        <time>2000-05-11T13:45:57.951</time>
      </trkpt>
      <trkpt lat="42.53499" lon="2.0559">
        <ele>1817.3045113921</ele>
        <time>2000-05-11T13:45:58.950</time>
      </trkpt>
      <trkpt lat="42.53498" lon="2.05592">
        <ele>1818.0978297736</ele>
        <time>2000-05-11T13:45:59.950</time>
      </trkpt>
      <trkpt lat="42.53497" lon="2.05594">
        <ele>1819.0109508885</ele>
        <time>2000-05-11T13:46:00.950</time>
      </trkpt>
      <trkpt lat="42.53497" lon="2.05594">
        <ele>1819.7807370579</ele>
        <time>2000-05-11T13:46:01.950</time>
      </trkpt>
      <trkpt lat="42.53497" lon="2.05594">
        <ele>1820.2612199781</ele>
        <time>2000-05-11T13:46:02.950</time>
      </trkpt>
      <trkpt lat="42.53498" lon="2.05595">
        <ele>1821.6335340535</ele>
        <time>2000-05-11T13:46:03.958</time>
      </trkpt>
      <trkpt lat="42.53498" lon="2.05595">
        <ele>1822.7797788804</ele>
        <time>2000-05-11T13:46:04.958</time>
      </trkpt>
      <trkpt lat="42.53497" lon="2.05596">
        <ele>1823.6168860925</ele>
        <time>2000-05-11T13:46:05.961</time>
      </trkpt>
      <trkpt lat="42.53497" lon="2.05597">
        <ele>1824.2055688454</ele>
        <time>2000-05-11T13:46:06.961</time>
      </trkpt>
      <trkpt lat="42.53496" lon="2.05598">
        <ele>1824.7710314659</ele>
        <time>2000-05-11T13:46:07.961</time>
      </trkpt>
      <trkpt lat="42.53496" lon="2.05599">
        <ele>1824.6500517905</ele>
        <time>2000-05-11T13:46:08.961</time>
      </trkpt>
      <trkpt lat="42.53496" lon="2.056">
        <ele>1824.7809318844</ele>
        <time>2000-05-11T13:46:09.961</time>
      </trkpt>
      <trkpt lat="42.53495" lon="2.05601">
        <ele>1825.3029332692</ele>
        <time>2000-05-11T13:46:10.961</time>
      </trkpt>
      <trkpt lat="42.53494" lon="2.05602">
        <ele>1826.0241305852</ele>
        <time>2000-05-11T13:46:11.961</time>
      </trkpt>
      <trkpt lat="42.53494" lon="2.05603">
        <ele>1826.5520786893</ele>
        <time>2000-05-11T13:46:12.961</time>
      </trkpt>
      <trkpt lat="42.53493" lon="2.05603">
        <ele>1826.8330804795</ele>
        <time>2000-05-11T13:46:13.961</time>
      </trkpt>
      <trkpt lat="42.53492" lon="2.05604">
        <ele>1826.8785790358</ele>
        <time>2000-05-11T13:46:14.961</time>
      </trkpt>
      <trkpt lat="42.53492" lon="2.05606">
        <ele>1826.6708145771</ele>
        <time>2000-05-11T13:46:15.957</time>
      </trkpt>
      <trkpt lat="42.53492" lon="2.05607">
        <ele>1826.7600776551</ele>
        <time>2000-05-11T13:46:16.957</time>
      </trkpt>
      <trkpt lat="42.53493" lon="2.05609">
        <ele>1826.9378998376</ele>
        <time>2000-05-11T13:46:17.953</time>
      </trkpt>
      <trkpt lat="42.53493" lon="2.0561">
        <ele>1827.3294840103</ele>
        <time>2000-05-11T13:46:18.953</time>
      </trkpt>
      <trkpt lat="42.53494" lon="2.05611">
        <ele>1827.756324414</ele>
        <time>2000-05-11T13:46:19.953</time>
      </trkpt>
      <trkpt lat="42.53495" lon="2.05612">
        <ele>1828.0475339407</ele>
        <time>2000-05-11T13:46:20.953</time>
      </trkpt>
      <trkpt lat="42.53495" lon="2.05614">
        <ele>1828.3750792019</ele>
        <time>2000-05-11T13:46:21.953</time>
      </trkpt>
      <trkpt lat="42.53495" lon="2.05615">
        <ele>1829.0006206233</ele>
        <time>2000-05-11T13:46:22.953</time>
      </trkpt>
      <trkpt lat="42.53494" lon="2.05616">
        <ele>1829.4489136174</ele>
        <time>2000-05-11T13:46:23.953</time>
      </trkpt>
      <trkpt lat="42.53493" lon="2.05617">
        <ele>1829.7146952558</ele>
        <time>2000-05-11T13:46:24.953</time>
      </trkpt>
      <trkpt lat="42.53493" lon="2.05617">
        <ele>1830.0193054115</ele>
        <time>2000-05-11T13:46:25.953</time>
      </trkpt>
      <trkpt lat="42.53494" lon="2.05619">
        <ele>1830.3211495021</ele>
        <time>2000-05-11T13:46:26.952</time>
      </trkpt>
      <trkpt lat="42.53494" lon="2.0562">
        <ele>1830.2299116855</ele>
        <time>2000-05-11T13:46:27.952</time>
      </trkpt>
      <trkpt lat="42.53495" lon="2.05621">
        <ele>1830.0440832706</ele>
        <time>2000-05-11T13:46:28.953</time>
      </trkpt>
      <trkpt lat="42.53494" lon="2.05622">
        <ele>1829.6486994499</ele>
        <time>2000-05-11T13:46:29.953</time>
      </trkpt>
      <trkpt lat="42.53494" lon="2.05624">
        <ele>1829.0260378927</ele>
        <time>2000-05-11T13:46:30.953</time>
      </trkpt>
      <trkpt lat="42.53494" lon="2.05627">
        <ele>1827.8664875215</ele>
        <time>2000-05-11T13:46:31.953</time>
      </trkpt>
      <trkpt lat="42.53495" lon="2.05628">
        <ele>1827.2155544259</ele>
        <time>2000-05-11T13:46:32.953</time>
      </trkpt>
      <trkpt lat="42.53495" lon="2.05628">
        <ele>1826.6779238472</ele>
        <time>2000-05-11T13:46:33.953</time>
      </trkpt>
      <trkpt lat="42.53495" lon="2.05629">
        <ele>1826.6125998804</ele>
        <time>2000-05-11T13:46:34.953</time>
      </trkpt>
      <trkpt lat="42.53496" lon="2.0563">
        <ele>1826.7886157224</ele>
        <time>2000-05-11T13:46:35.953</time>
      </trkpt>
      <trkpt lat="42.53496" lon="2.05632">
        <ele>1826.9991532382</ele>
        <time>2000-05-11T13:46:36.953</time>
      </trkpt>
      <trkpt lat="42.53495" lon="2.05633">
        <ele>1826.7388174992</ele>
        <time>2000-05-11T13:46:37.952</time>
      </trkpt>
      <trkpt lat="42.53494" lon="2.05634">
        <ele>1826.4584634192</ele>
        <time>2000-05-11T13:46:38.952</time>
      </trkpt>
      <trkpt lat="42.53494" lon="2.05635">
        <ele>1825.9837080419</ele>
        <time>2000-05-11T13:46:39.953</time>
      </trkpt>
      <trkpt lat="42.53494" lon="2.05635">
        <ele>1825.4948905924</ele>
        <time>2000-05-11T13:46:40.953</time>
      </trkpt>
      <trkpt lat="42.53495" lon="2.05637">
        <ele>1825.0198117878</ele>
        <time>2000-05-11T13:46:41.957</time>
      </trkpt>
      <trkpt lat="42.53494" lon="2.05638">
        <ele>1824.3613490995</ele>
        <time>2000-05-11T13:46:42.957</time>
      </trkpt>
      <trkpt lat="42.53494" lon="2.0564">
        <ele>1823.7672150947</ele>
        <time>2000-05-11T13:46:43.957</time>
      </trkpt>
      <trkpt lat="42.53494" lon="2.05642">
        <ele>1822.9356681127</ele>
        <time>2000-05-11T13:46:44.956</time>
      </trkpt>
      <trkpt lat="42.53493" lon="2.05643">
        <ele>1822.1884889882</ele>
        <time>2000-05-11T13:46:45.956</time>
      </trkpt>
      <trkpt lat="42.53493" lon="2.05644">
        <ele>1821.3529648384</ele>
        <time>2000-05-11T13:46:46.956</time>
      </trkpt>
      <trkpt lat="42.53493" lon="2.05645">
        <ele>1821.220430924</ele>
        <time>2000-05-11T13:46:47.956</time>
      </trkpt>
      <trkpt lat="42.53495" lon="2.05646">
        <ele>1820.8370363994</ele>
        <time>2000-05-11T13:46:48.956</time>
      </trkpt>
      <trkpt lat="42.53495" lon="2.05647">
        <ele>1820.4775217913</ele>
        <time>2000-05-11T13:46:49.956</time>
      </trkpt>
      <trkpt lat="42.53495" lon="2.05648">
        <ele>1819.7605814682</ele>
        <time>2000-05-11T13:46:50.956</time>
      </trkpt>
      <trkpt lat="42.53496" lon="2.05649">
        <ele>1819.4032842932</ele>
        <time>2000-05-11T13:46:51.956</time>
      </trkpt>
      <trkpt lat="42.53496" lon="2.0565">
        <ele>1819.0645558624</ele>
        <time>2000-05-11T13:46:52.956</time>
      </trkpt>
      <trkpt lat="42.53496" lon="2.05651">
        <ele>1818.832214823</ele>
        <time>2000-05-11T13:46:53.956</time>
      </trkpt>
      <trkpt lat="42.53496" lon="2.05652">
        <ele>1818.7969420303</ele>
        <time>2000-05-11T13:46:54.956</time>
      </trkpt>
      <trkpt lat="42.53497" lon="2.05654">
        <ele>1819.3195037326</ele>
        <time>2000-05-11T13:46:55.956</time>
      </trkpt>
      <trkpt lat="42.53497" lon="2.05656">
        <ele>1819.7160142418</ele>
        <time>2000-05-11T13:46:56.956</time>
      </trkpt>
      <trkpt lat="42.53497" lon="2.05658">
        <ele>1819.6282052152</ele>
        <time>2000-05-11T13:46:57.956</time>
      </trkpt>
      <trkpt lat="42.53497" lon="2.0566">
        <ele>1819.9572198082</ele>
        <time>2000-05-11T13:46:58.956</time>
      </trkpt>
      <trkpt lat="42.53496" lon="2.05662">
        <ele>1820.3865318188</ele>
        <time>2000-05-11T13:46:59.956</time>
      </trkpt>
      <trkpt lat="42.53496" lon="2.05663">
        <ele>1820.4952743383</ele>
        <time>2000-05-11T13:47:00.956</time>
      </trkpt>
      <trkpt lat="42.53496" lon="2.05663">
        <ele>1820.6660297453</ele>
        <time>2000-05-11T13:47:01.956</time>
      </trkpt>
      <trkpt lat="42.53496" lon="2.05665">
        <ele>1821.2600387555</ele>
        <time>2000-05-11T13:47:02.956</time>
      </trkpt>
      <trkpt lat="42.53495" lon="2.05666">
        <ele>1821.6088261098</ele>
        <time>2000-05-11T13:47:03.956</time>
      </trkpt>
      <trkpt lat="42.53495" lon="2.05668">
        <ele>1821.7871605219</ele>
        <time>2000-05-11T13:47:04.956</time>
      </trkpt>
      <trkpt lat="42.53495" lon="2.0567">
        <ele>1822.008612016</ele>
        <time>2000-05-11T13:47:05.956</time>
      </trkpt>
      <trkpt lat="42.53494" lon="2.05671">
        <ele>1822.4065517334</ele>
        <time>2000-05-11T13:47:06.956</time>
      </trkpt>
      <trkpt lat="42.53493" lon="2.05672">
        <ele>1822.4910517611</ele>
        <time>2000-05-11T13:47:07.956</time>
      </trkpt>
      <trkpt lat="42.53492" lon="2.05673">
        <ele>1822.6319147622</ele>
        <time>2000-05-11T13:47:08.956</time>
      </trkpt>
      <trkpt lat="42.53491" lon="2.05675">
        <ele>1823.264172304</ele>
        <time>2000-05-11T13:47:09.956</time>
      </trkpt>
      <trkpt lat="42.5349" lon="2.05677">
        <ele>1824.4850771472</ele>
        <time>2000-05-11T13:47:10.956</time>
      </trkpt>
      <trkpt lat="42.53489" lon="2.05678">
        <ele>1825.6399159059</ele>
        <time>2000-05-11T13:47:11.956</time>
      </trkpt>
      <trkpt lat="42.53488" lon="2.05681">
        <ele>1827.2242208157</ele>
        <time>2000-05-11T13:47:12.956</time>
      </trkpt>
      <trkpt lat="42.53488" lon="2.05681">
        <ele>1828.6807236644</ele>
        <time>2000-05-11T13:47:13.956</time>
      </trkpt>
      <trkpt lat="42.53488" lon="2.05682">
        <ele>1829.6480463054</ele>
        <time>2000-05-11T13:47:14.956</time>
      </trkpt>
      <trkpt lat="42.53488" lon="2.05682">
        <ele>1830.0193974169</ele>
        <time>2000-05-11T13:47:15.956</time>
      </trkpt>
      <trkpt lat="42.53487" lon="2.05682">
        <ele>1830.2860688874</ele>
        <time>2000-05-11T13:47:16.958</time>
      </trkpt>
      <trkpt lat="42.53486" lon="2.05684">
        <ele>1830.3413541352</ele>
        <time>2000-05-11T13:47:17.958</time>
      </trkpt>
      <trkpt lat="42.53485" lon="2.05683">
        <ele>1830.6084877556</ele>
        <time>2000-05-11T13:47:18.957</time>
      </trkpt>
      <trkpt lat="42.53485" lon="2.05683">
        <ele>1831.0225760618</ele>
        <time>2000-05-11T13:47:19.957</time>
      </trkpt>
      <trkpt lat="42.53484" lon="2.05684">
        <ele>1831.6874649173</ele>
        <time>2000-05-11T13:47:20.957</time>
      </trkpt>
      <trkpt lat="42.53483" lon="2.05684">
        <ele>1832.6222166421</ele>
        <time>2000-05-11T13:47:21.957</time>
      </trkpt>
      <trkpt lat="42.53481" lon="2.05686">
        <ele>1833.4923710434</ele>
        <time>2000-05-11T13:47:22.957</time>
      </trkpt>
      <trkpt lat="42.5348" lon="2.05686">
        <ele>1834.0257830864</ele>
        <time>2000-05-11T13:47:23.957</time>
      </trkpt>
      <trkpt lat="42.53478" lon="2.05686">
        <ele>1834.1542133756</ele>
        <time>2000-05-11T13:47:24.957</time>
      </trkpt>
      <trkpt lat="42.53478" lon="2.05686">
        <ele>1834.0318431156</ele>
        <time>2000-05-11T13:47:25.957</time>
      </trkpt>
      <trkpt lat="42.53478" lon="2.05686">
        <ele>1833.6338674882</ele>
        <time>2000-05-11T13:47:26.957</time>
      </trkpt>
      <trkpt lat="42.53478" lon="2.05687">
        <ele>1833.3089285478</ele>
        <time>2000-05-11T13:47:27.957</time>
      </trkpt>
      <trkpt lat="42.53477" lon="2.05688">
        <ele>1832.9371593451</ele>
        <time>2000-05-11T13:47:28.957</time>
      </trkpt>
      <trkpt lat="42.53477" lon="2.05689">
        <ele>1833.1432939123</ele>
        <time>2000-05-11T13:47:29.956</time>
      </trkpt>
      <trkpt lat="42.53477" lon="2.05689">
        <ele>1833.3494284796</ele>
        <time>2000-05-11T13:47:30.956</time>
      </trkpt>
      <trkpt lat="42.53476" lon="2.0569">
        <ele>1833.7288866468</ele>
        <time>2000-05-11T13:47:31.956</time>
      </trkpt>
      <trkpt lat="42.53476" lon="2.0569">
        <ele>1833.903408015</ele>
        <time>2000-05-11T13:47:32.956</time>
      </trkpt>
      <trkpt lat="42.53474" lon="2.05691">
        <ele>1834.1533761658</ele>
        <time>2000-05-11T13:47:33.956</time>
      </trkpt>
      <trkpt lat="42.53474" lon="2.05691">
        <ele>1834.2304223005</ele>
        <time>2000-05-11T13:47:34.956</time>
      </trkpt>
      <trkpt lat="42.53472" lon="2.05692">
        <ele>1834.1316956811</ele>
        <time>2000-05-11T13:47:35.956</time>
      </trkpt>
      <trkpt lat="42.53472" lon="2.05693">
        <ele>1834.112860235</ele>
        <time>2000-05-11T13:47:36.953</time>
      </trkpt>
      <trkpt lat="42.53471" lon="2.05693">
        <ele>1833.8445953891</ele>
        <time>2000-05-11T13:47:37.953</time>
      </trkpt>
      <trkpt lat="42.5347" lon="2.05693">
        <ele>1833.535113064</ele>
        <time>2000-05-11T13:47:38.953</time>
      </trkpt>
      <trkpt lat="42.5347" lon="2.05694">
        <ele>1833.6860669058</ele>
        <time>2000-05-11T13:47:39.953</time>
      </trkpt>
      <trkpt lat="42.53469" lon="2.05694">
        <ele>1834.3081950612</ele>
        <time>2000-05-11T13:47:40.957</time>
      </trkpt>
      <trkpt lat="42.53469" lon="2.05694">
        <ele>1834.6771084433</ele>
        <time>2000-05-11T13:47:41.957</time>
      </trkpt>
      <trkpt lat="42.53468" lon="2.05696">
        <ele>1835.8951507788</ele>
        <time>2000-05-11T13:47:42.957</time>
      </trkpt>
      <trkpt lat="42.53468" lon="2.05696">
        <ele>1837.2506880587</ele>
        <time>2000-05-11T13:47:43.957</time>
      </trkpt>
      <trkpt lat="42.53465" lon="2.05696">
        <ele>1837.7486227026</ele>
        <time>2000-05-11T13:47:44.959</time>
      </trkpt>
      <trkpt lat="42.53465" lon="2.05698">
        <ele>1838.2865380645</ele>
        <time>2000-05-11T13:47:45.959</time>
      </trkpt>
      <trkpt lat="42.53464" lon="2.05698">
        <ele>1838.8824422456</ele>
        <time>2000-05-11T13:47:46.959</time>
      </trkpt>
      <trkpt lat="42.53463" lon="2.05699">
        <ele>1839.0532506822</ele>
        <time>2000-05-11T13:47:47.959</time>
      </trkpt>
      <trkpt lat="42.53462" lon="2.057">
        <ele>1839.4360063536</ele>
        <time>2000-05-11T13:47:48.959</time>
      </trkpt>
      <trkpt lat="42.53461" lon="2.057">
        <ele>1839.8486594789</ele>
        <time>2000-05-11T13:47:49.959</time>
      </trkpt>
      <trkpt lat="42.53458" lon="2.057">
        <ele>1839.3942708636</ele>
        <time>2000-05-11T13:47:50.959</time>
      </trkpt>
      <trkpt lat="42.53459" lon="2.05702">
        <ele>1839.2764486445</ele>
        <time>2000-05-11T13:47:51.959</time>
      </trkpt>
      <trkpt lat="42.53459" lon="2.05702">
        <ele>1838.9840226166</ele>
        <time>2000-05-11T13:47:52.959</time>
      </trkpt>
      <trkpt lat="42.53458" lon="2.05703">
        <ele>1838.852064779</ele>
        <time>2000-05-11T13:47:53.959</time>
      </trkpt>
      <trkpt lat="42.53458" lon="2.05704">
        <ele>1838.8442223646</ele>
        <time>2000-05-11T13:47:54.959</time>
      </trkpt>
      <trkpt lat="42.53457" lon="2.05707">
        <ele>1839.7876701519</ele>
        <time>2000-05-11T13:47:55.958</time>
      </trkpt>
      <trkpt lat="42.53456" lon="2.05708">
        <ele>1840.1915356658</ele>
        <time>2000-05-11T13:47:56.958</time>
      </trkpt>
      <trkpt lat="42.53455" lon="2.05707">
        <ele>1840.9020507285</ele>
        <time>2000-05-11T13:47:57.959</time>
      </trkpt>
      <trkpt lat="42.53453" lon="2.05707">
        <ele>1840.7589599214</ele>
        <time>2000-05-11T13:47:58.959</time>
      </trkpt>
      <trkpt lat="42.53452" lon="2.05707">
        <ele>1840.5531764129</ele>
        <time>2000-05-11T13:47:59.959</time>
      </trkpt>
      <trkpt lat="42.53451" lon="2.05708">
        <ele>1839.8884649999</ele>
        <time>2000-05-11T13:48:00.959</time>
      </trkpt>
      <trkpt lat="42.53451" lon="2.05708">
        <ele>1839.3687806448</ele>
        <time>2000-05-11T13:48:01.959</time>
      </trkpt>
      <trkpt lat="42.53451" lon="2.05708">
        <ele>1838.5424467409</ele>
        <time>2000-05-11T13:48:02.959</time>
      </trkpt>
      <trkpt lat="42.5345" lon="2.05707">
        <ele>1839.004788309</ele>
        <time>2000-05-11T13:48:03.958</time>
      </trkpt>
      <trkpt lat="42.53449" lon="2.05708">
        <ele>1839.8699527944</ele>
        <time>2000-05-11T13:48:04.958</time>
      </trkpt>
      <trkpt lat="42.53449" lon="2.05709">
        <ele>1840.5771439798</ele>
        <time>2000-05-11T13:48:05.958</time>
      </trkpt>
      <trkpt lat="42.53448" lon="2.0571">
        <ele>1841.1000448687</ele>
        <time>2000-05-11T13:48:06.958</time>
      </trkpt>
      <trkpt lat="42.53447" lon="2.05711">
        <ele>1841.5871594017</ele>
        <time>2000-05-11T13:48:07.958</time>
      </trkpt>
      <trkpt lat="42.53447" lon="2.05711">
        <ele>1841.2667889073</ele>
        <time>2000-05-11T13:48:08.958</time>
      </trkpt>
      <trkpt lat="42.53446" lon="2.05712">
        <ele>1840.3562799055</ele>
        <time>2000-05-11T13:48:09.958</time>
      </trkpt>
      <trkpt lat="42.53445" lon="2.05712">
        <ele>1839.5942116804</ele>
        <time>2000-05-11T13:48:10.958</time>
      </trkpt>
      <trkpt lat="42.53444" lon="2.05713">
        <ele>1838.9565822756</ele>
        <time>2000-05-11T13:48:11.958</time>
      </trkpt>
      <trkpt lat="42.53444" lon="2.05713">
        <ele>1838.3547392266</ele>
        <time>2000-05-11T13:48:12.958</time>
      </trkpt>
      <trkpt lat="42.53442" lon="2.05714">
        <ele>1837.4682646571</ele>
        <time>2000-05-11T13:48:13.955</time>
      </trkpt>
      <trkpt lat="42.53441" lon="2.05714">
        <ele>1836.860961224</ele>
        <time>2000-05-11T13:48:14.955</time>
      </trkpt>
      <trkpt lat="42.53438" lon="2.05713">
        <ele>1835.7081168849</ele>
        <time>2000-05-11T13:48:15.955</time>
      </trkpt>
      <trkpt lat="42.53437" lon="2.05714">
        <ele>1835.3191954631</ele>
        <time>2000-05-11T13:48:16.955</time>
      </trkpt>
      <trkpt lat="42.53436" lon="2.05716">
        <ele>1835.3375110213</ele>
        <time>2000-05-11T13:48:17.955</time>
      </trkpt>
      <trkpt lat="42.53436" lon="2.05718">
        <ele>1835.9513488729</ele>
        <time>2000-05-11T13:48:18.955</time>
      </trkpt>
      <trkpt lat="42.53436" lon="2.05718">
        <ele>1836.7527897419</ele>
        <time>2000-05-11T13:48:19.955</time>
      </trkpt>
      <trkpt lat="42.53437" lon="2.05721">
        <ele>1838.4880236644</ele>
        <time>2000-05-11T13:48:20.955</time>
      </trkpt>
      <trkpt lat="42.53436" lon="2.05722">
        <ele>1839.4298725195</ele>
        <time>2000-05-11T13:48:21.955</time>
      </trkpt>
      <trkpt lat="42.53436" lon="2.05724">
        <ele>1840.2066465309</ele>
        <time>2000-05-11T13:48:22.955</time>
      </trkpt>
      <trkpt lat="42.53436" lon="2.05724">
        <ele>1840.6725297693</ele>
        <time>2000-05-11T13:48:23.955</time>
      </trkpt>
      <trkpt lat="42.53435" lon="2.05724">
        <ele>1841.1040022708</ele>
        <time>2000-05-11T13:48:24.955</time>
      </trkpt>
      <trkpt lat="42.53434" lon="2.05725">
        <ele>1841.3191090735</ele>
        <time>2000-05-11T13:48:25.955</time>
      </trkpt>
      <trkpt lat="42.53434" lon="2.05726">
        <ele>1841.7976875287</ele>
        <time>2000-05-11T13:48:26.955</time>
      </trkpt>
      <trkpt lat="42.53433" lon="2.05728">
        <ele>1842.3925352767</ele>
        <time>2000-05-11T13:48:27.955</time>
      </trkpt>
      <trkpt lat="42.53433" lon="2.05728">
        <ele>1842.9873830248</ele>
        <time>2000-05-11T13:48:28.955</time>
      </trkpt>
      <trkpt lat="42.53432" lon="2.05728">
        <ele>1843.4336931096</ele>
        <time>2000-05-11T13:48:29.953</time>
      </trkpt>
      <trkpt lat="42.53431" lon="2.05729">
        <ele>1843.8437453602</ele>
        <time>2000-05-11T13:48:30.953</time>
      </trkpt>
      <trkpt lat="42.5343" lon="2.05731">
        <ele>1844.0648018409</ele>
        <time>2000-05-11T13:48:31.952</time>
      </trkpt>
      <trkpt lat="42.5343" lon="2.05732">
        <ele>1844.0688277394</ele>
        <time>2000-05-11T13:48:32.952</time>
      </trkpt>
      <trkpt lat="42.53429" lon="2.05734">
        <ele>1844.4268626019</ele>
        <time>2000-05-11T13:48:33.952</time>
      </trkpt>
      <trkpt lat="42.53429" lon="2.05734">
        <ele>1844.9942335945</ele>
        <time>2000-05-11T13:48:34.952</time>
      </trkpt>
      <trkpt lat="42.53428" lon="2.05735">
        <ele>1845.3062580232</ele>
        <time>2000-05-11T13:48:35.952</time>
      </trkpt>
      <trkpt lat="42.53427" lon="2.05736">
        <ele>1845.2481128352</ele>
        <time>2000-05-11T13:48:36.952</time>
      </trkpt>
      <trkpt lat="42.53426" lon="2.05735">
        <ele>1844.5438811772</ele>
        <time>2000-05-11T13:48:37.952</time>
      </trkpt>
      <trkpt lat="42.53424" lon="2.05737">
        <ele>1843.6813453613</ele>
        <time>2000-05-11T13:48:38.952</time>
      </trkpt>
      <trkpt lat="42.53422" lon="2.05739">
        <ele>1842.7146540502</ele>
        <time>2000-05-11T13:48:39.952</time>
      </trkpt>
      <trkpt lat="42.5342" lon="2.0574">
        <ele>1841.6361462494</ele>
        <time>2000-05-11T13:48:40.952</time>
      </trkpt>
      <trkpt lat="42.5342" lon="2.0574">
        <ele>1841.0016821049</ele>
        <time>2000-05-11T13:48:41.952</time>
      </trkpt>
      <trkpt lat="42.5342" lon="2.0574">
        <ele>1840.8719035836</ele>
        <time>2000-05-11T13:48:42.952</time>
      </trkpt>
      <trkpt lat="42.5342" lon="2.0574">
        <ele>1840.546420256</ele>
        <time>2000-05-11T13:48:43.952</time>
      </trkpt>
      <trkpt lat="42.53418" lon="2.0574">
        <ele>1839.6155540323</ele>
        <time>2000-05-11T13:48:44.951</time>
      </trkpt>
      <trkpt lat="42.53416" lon="2.0574">
        <ele>1838.5404008759</ele>
        <time>2000-05-11T13:48:45.951</time>
      </trkpt>
      <trkpt lat="42.53414" lon="2.05741">
        <ele>1837.2122588234</ele>
        <time>2000-05-11T13:48:46.951</time>
      </trkpt>
      <trkpt lat="42.53412" lon="2.05742">
        <ele>1835.6870799039</ele>
        <time>2000-05-11T13:48:47.951</time>
      </trkpt>
      <trkpt lat="42.53411" lon="2.05743">
        <ele>1834.2506711081</ele>
        <time>2000-05-11T13:48:48.951</time>
      </trkpt>
      <trkpt lat="42.5341" lon="2.05743">
        <ele>1833.4816198461</ele>
        <time>2000-05-11T13:48:49.951</time>
      </trkpt>
      <trkpt lat="42.53409" lon="2.05743">
        <ele>1832.5500483418</ele>
        <time>2000-05-11T13:48:50.951</time>
      </trkpt>
      <trkpt lat="42.53408" lon="2.05744">
        <ele>1831.5613676418</ele>
        <time>2000-05-11T13:48:51.951</time>
      </trkpt>
      <trkpt lat="42.53408" lon="2.05745">
        <ele>1830.8219980208</ele>
        <time>2000-05-11T13:48:52.951</time>
      </trkpt>
      <trkpt lat="42.53407" lon="2.05746">
        <ele>1830.393200192</ele>
        <time>2000-05-11T13:48:53.951</time>
      </trkpt>
      <trkpt lat="42.53407" lon="2.05747">
        <ele>1829.9730447164</ele>
        <time>2000-05-11T13:48:54.951</time>
      </trkpt>
      <trkpt lat="42.53406" lon="2.05748">
        <ele>1830.0285722457</ele>
        <time>2000-05-11T13:48:55.951</time>
      </trkpt>
      <trkpt lat="42.53405" lon="2.05747">
        <ele>1830.1084891891</ele>
        <time>2000-05-11T13:48:56.951</time>
      </trkpt>
      <trkpt lat="42.53403" lon="2.05747">
        <ele>1830.2443512352</ele>
        <time>2000-05-11T13:48:57.951</time>
      </trkpt>
      <trkpt lat="42.53402" lon="2.05747">
        <ele>1830.5386246221</ele>
        <time>2000-05-11T13:48:58.951</time>
      </trkpt>
      <trkpt lat="42.53402" lon="2.05748">
        <ele>1831.6054746812</ele>
        <time>2000-05-11T13:48:59.951</time>
      </trkpt>
      <trkpt lat="42.53402" lon="2.05752">
        <ele>1833.3589993916</ele>
        <time>2000-05-11T13:49:00.951</time>
      </trkpt>
      <trkpt lat="42.53401" lon="2.05753">
        <ele>1835.3486820888</ele>
        <time>2000-05-11T13:49:01.951</time>
      </trkpt>
      <trkpt lat="42.534" lon="2.05755">
        <ele>1837.1592643283</ele>
        <time>2000-05-11T13:49:02.951</time>
      </trkpt>
      <trkpt lat="42.534" lon="2.05757">
        <ele>1839.3578423748</ele>
        <time>2000-05-11T13:49:03.951</time>
      </trkpt>
      <trkpt lat="42.534" lon="2.05758">
        <ele>1840.9170807522</ele>
        <time>2000-05-11T13:49:04.951</time>
      </trkpt>
      <trkpt lat="42.534" lon="2.05758">
        <ele>1841.9011327764</ele>
        <time>2000-05-11T13:49:05.951</time>
      </trkpt>
      <trkpt lat="42.534" lon="2.05758">
        <ele>1842.8756991958</ele>
        <time>2000-05-11T13:49:06.951</time>
      </trkpt>
      <trkpt lat="42.53399" lon="2.05758">
        <ele>1843.6923087906</ele>
        <time>2000-05-11T13:49:07.952</time>
      </trkpt>
      <trkpt lat="42.53397" lon="2.05758">
        <ele>1843.7099345867</ele>
        <time>2000-05-11T13:49:08.952</time>
      </trkpt>
      <trkpt lat="42.53396" lon="2.05758">
        <ele>1843.2101757333</ele>
        <time>2000-05-11T13:49:09.952</time>
      </trkpt>
      <trkpt lat="42.53395" lon="2.05758">
        <ele>1842.541695795</ele>
        <time>2000-05-11T13:49:10.952</time>
      </trkpt>
      <trkpt lat="42.53393" lon="2.05758">
        <ele>1841.8954049936</ele>
        <time>2000-05-11T13:49:11.952</time>
      </trkpt>
      <trkpt lat="42.53393" lon="2.05758">
        <ele>1841.4779521596</ele>
        <time>2000-05-11T13:49:12.952</time>
      </trkpt>
      <trkpt lat="42.53392" lon="2.0576">
        <ele>1841.4475830754</ele>
        <time>2000-05-11T13:49:13.952</time>
      </trkpt>
      <trkpt lat="42.53392" lon="2.0576">
        <ele>1841.8349001421</ele>
        <time>2000-05-11T13:49:14.952</time>
      </trkpt>
      <trkpt lat="42.53391" lon="2.05761">
        <ele>1842.6715400374</ele>
        <time>2000-05-11T13:49:15.950</time>
      </trkpt>
      <trkpt lat="42.5339" lon="2.05761">
        <ele>1843.1155962767</ele>
        <time>2000-05-11T13:49:16.950</time>
      </trkpt>
      <trkpt lat="42.53389" lon="2.0576">
        <ele>1843.2233151648</ele>
        <time>2000-05-11T13:49:17.950</time>
      </trkpt>
      <trkpt lat="42.53388" lon="2.05761">
        <ele>1842.751883686</ele>
        <time>2000-05-11T13:49:18.950</time>
      </trkpt>
      <trkpt lat="42.53385" lon="2.05763">
        <ele>1842.1898362216</ele>
        <time>2000-05-11T13:49:19.950</time>
      </trkpt>
      <trkpt lat="42.53383" lon="2.05764">
        <ele>1841.326214835</ele>
        <time>2000-05-11T13:49:20.950</time>
      </trkpt>
      <trkpt lat="42.53382" lon="2.05765">
        <ele>1841.3132598883</ele>
        <time>2000-05-11T13:49:21.950</time>
      </trkpt>
      <trkpt lat="42.53381" lon="2.05765">
        <ele>1841.441020767</ele>
        <time>2000-05-11T13:49:22.950</time>
      </trkpt>
      <trkpt lat="42.53379" lon="2.05763">
        <ele>1842.2457895007</ele>
        <time>2000-05-11T13:49:23.950</time>
      </trkpt>
      <trkpt lat="42.53378" lon="2.05763">
        <ele>1843.2804696577</ele>
        <time>2000-05-11T13:49:24.950</time>
      </trkpt>
      <trkpt lat="42.53378" lon="2.05764">
        <ele>1844.8377513377</ele>
        <time>2000-05-11T13:49:25.950</time>
      </trkpt>
      <trkpt lat="42.53378" lon="2.05764">
        <ele>1845.9147610972</ele>
        <time>2000-05-11T13:49:26.950</time>
      </trkpt>
      <trkpt lat="42.53378" lon="2.05766">
        <ele>1847.2085761139</ele>
        <time>2000-05-11T13:49:27.950</time>
      </trkpt>
      <trkpt lat="42.53376" lon="2.05765">
        <ele>1847.6517247673</ele>
        <time>2000-05-11T13:49:28.950</time>
      </trkpt>
      <trkpt lat="42.53376" lon="2.05765">
        <ele>1847.8478910083</ele>
        <time>2000-05-11T13:49:29.950</time>
      </trkpt>
      <trkpt lat="42.53375" lon="2.05765">
        <ele>1847.1302150883</ele>
        <time>2000-05-11T13:49:30.950</time>
      </trkpt>
      <trkpt lat="42.53375" lon="2.05765">
        <ele>1846.2984856118</ele>
        <time>2000-05-11T13:49:31.950</time>
      </trkpt>
      <trkpt lat="42.53374" lon="2.05765">
        <ele>1845.3257612508</ele>
        <time>2000-05-11T13:49:32.950</time>
      </trkpt>
      <trkpt lat="42.53373" lon="2.05765">
        <ele>1844.512692361</ele>
        <time>2000-05-11T13:49:33.950</time>
      </trkpt>
      <trkpt lat="42.53371" lon="2.05764">
        <ele>1844.1303922256</ele>
        <time>2000-05-11T13:49:34.950</time>
      </trkpt>
      <trkpt lat="42.53369" lon="2.05764">
        <ele>1844.1181337398</ele>
        <time>2000-05-11T13:49:35.950</time>
      </trkpt>
      <trkpt lat="42.53368" lon="2.05765">
        <ele>1844.1294607442</ele>
        <time>2000-05-11T13:49:36.950</time>
      </trkpt>
      <trkpt lat="42.53368" lon="2.05764">
        <ele>1844.1624166816</ele>
        <time>2000-05-11T13:49:37.950</time>
      </trkpt>
      <trkpt lat="42.53368" lon="2.05764">
        <ele>1844.2546770087</ele>
        <time>2000-05-11T13:49:38.950</time>
      </trkpt>
      <trkpt lat="42.53367" lon="2.05764">
        <ele>1843.9950220708</ele>
        <time>2000-05-11T13:49:39.948</time>
      </trkpt>
      <trkpt lat="42.53366" lon="2.05764">
        <ele>1843.3231454244</ele>
        <time>2000-05-11T13:49:40.948</time>
      </trkpt>
      <trkpt lat="42.53365" lon="2.05764">
        <ele>1842.5238569418</ele>
        <time>2000-05-11T13:49:41.948</time>
      </trkpt>
      <trkpt lat="42.53364" lon="2.05764">
        <ele>1842.0342418171</ele>
        <time>2000-05-11T13:49:42.948</time>
      </trkpt>
      <trkpt lat="42.53363" lon="2.05764">
        <ele>1841.6290626768</ele>
        <time>2000-05-11T13:49:43.948</time>
      </trkpt>
      <trkpt lat="42.53362" lon="2.05764">
        <ele>1841.3214988114</ele>
        <time>2000-05-11T13:49:44.948</time>
      </trkpt>
      <trkpt lat="42.53361" lon="2.05765">
        <ele>1841.9230714601</ele>
        <time>2000-05-11T13:49:45.948</time>
      </trkpt>
      <trkpt lat="42.53361" lon="2.05765">
        <ele>1842.7425240111</ele>
        <time>2000-05-11T13:49:46.948</time>
      </trkpt>
      <trkpt lat="42.5336" lon="2.05764">
        <ele>1842.9934645757</ele>
        <time>2000-05-11T13:49:47.946</time>
      </trkpt>
      <trkpt lat="42.53359" lon="2.05764">
        <ele>1843.1565065056</ele>
        <time>2000-05-11T13:49:48.946</time>
      </trkpt>
      <trkpt lat="42.53357" lon="2.05763">
        <ele>1843.3083286308</ele>
        <time>2000-05-11T13:49:49.948</time>
      </trkpt>
      <trkpt lat="42.53357" lon="2.05763">
        <ele>1843.0054071173</ele>
        <time>2000-05-11T13:49:50.948</time>
      </trkpt>
      <trkpt lat="42.53356" lon="2.05763">
        <ele>1842.7864069635</ele>
        <time>2000-05-11T13:49:51.945</time>
      </trkpt>
      <trkpt lat="42.53355" lon="2.05763">
        <ele>1843.4756366022</ele>
        <time>2000-05-11T13:49:52.945</time>
      </trkpt>
      <trkpt lat="42.53353" lon="2.05764">
        <ele>1844.1477166742</ele>
        <time>2000-05-11T13:49:53.945</time>
      </trkpt>
      <trkpt lat="42.53351" lon="2.05765">
        <ele>1844.2653468112</ele>
        <time>2000-05-11T13:49:54.945</time>
      </trkpt>
      <trkpt lat="42.53351" lon="2.05765">
        <ele>1844.3829769481</ele>
        <time>2000-05-11T13:49:55.945</time>
      </trkpt>
      <trkpt lat="42.53351" lon="2.05765">
        <ele>1844.4166857254</ele>
        <time>2000-05-11T13:49:56.945</time>
      </trkpt>
      <trkpt lat="42.53351" lon="2.05764">
        <ele>1843.9517579079</ele>
        <time>2000-05-11T13:49:57.945</time>
      </trkpt>
      <trkpt lat="42.5335" lon="2.05764">
        <ele>1843.2415442431</ele>
        <time>2000-05-11T13:49:58.945</time>
      </trkpt>
      <trkpt lat="42.53347" lon="2.05764">
        <ele>1842.7843023054</ele>
        <time>2000-05-11T13:49:59.945</time>
      </trkpt>
      <trkpt lat="42.53347" lon="2.05765">
        <ele>1842.6913153673</ele>
        <time>2000-05-11T13:50:00.945</time>
      </trkpt>
      <trkpt lat="42.53346" lon="2.05766">
        <ele>1842.7647475781</ele>
        <time>2000-05-11T13:50:01.945</time>
      </trkpt>
      <trkpt lat="42.53346" lon="2.05766">
        <ele>1842.7856074395</ele>
        <time>2000-05-11T13:50:02.945</time>
      </trkpt>
      <trkpt lat="42.53345" lon="2.05767">
        <ele>1843.236160576</ele>
        <time>2000-05-11T13:50:03.945</time>
      </trkpt>
      <trkpt lat="42.53344" lon="2.05769">
        <ele>1843.9015335768</ele>
        <time>2000-05-11T13:50:04.945</time>
      </trkpt>
      <trkpt lat="42.53342" lon="2.0577">
        <ele>1844.1384977402</ele>
        <time>2000-05-11T13:50:05.945</time>
      </trkpt>
      <trkpt lat="42.53339" lon="2.0577">
        <ele>1843.6460408824</ele>
        <time>2000-05-11T13:50:06.945</time>
      </trkpt>
      <trkpt lat="42.53336" lon="2.05771">
        <ele>1842.4851587834</ele>
        <time>2000-05-11T13:50:07.945</time>
      </trkpt>
      <trkpt lat="42.53335" lon="2.05773">
        <ele>1840.3620408123</ele>
        <time>2000-05-11T13:50:08.945</time>
      </trkpt>
      <trkpt lat="42.53335" lon="2.05773">
        <ele>1838.2680191997</ele>
        <time>2000-05-11T13:50:09.945</time>
      </trkpt>
      <trkpt lat="42.53334" lon="2.05775">
        <ele>1836.7720009902</ele>
        <time>2000-05-11T13:50:10.945</time>
      </trkpt>
      <trkpt lat="42.53334" lon="2.05777">
        <ele>1836.4394553931</ele>
        <time>2000-05-11T13:50:11.945</time>
      </trkpt>
      <trkpt lat="42.53332" lon="2.05777">
        <ele>1836.2920446988</ele>
        <time>2000-05-11T13:50:12.945</time>
      </trkpt>
      <trkpt lat="42.53332" lon="2.05777">
        <ele>1836.9430746658</ele>
        <time>2000-05-11T13:50:13.945</time>
      </trkpt>
      <trkpt lat="42.53332" lon="2.05778">
        <ele>1837.5288226444</ele>
        <time>2000-05-11T13:50:14.945</time>
      </trkpt>
      <trkpt lat="42.53332" lon="2.05778">
        <ele>1837.580721058</ele>
        <time>2000-05-11T13:50:15.945</time>
      </trkpt>
      <trkpt lat="42.53331" lon="2.0578">
        <ele>1837.3401912229</ele>
        <time>2000-05-11T13:50:16.941</time>
      </trkpt>
      <trkpt lat="42.5333" lon="2.0578">
        <ele>1837.4365584332</ele>
        <time>2000-05-11T13:50:17.941</time>
      </trkpt>
      <trkpt lat="42.53329" lon="2.05781">
        <ele>1837.426754646</ele>
        <time>2000-05-11T13:50:18.941</time>
      </trkpt>
      <trkpt lat="42.53329" lon="2.05781">
        <ele>1837.4822328471</ele>
        <time>2000-05-11T13:50:19.941</time>
      </trkpt>
      <trkpt lat="42.53327" lon="2.05782">
        <ele>1837.2207429372</ele>
        <time>2000-05-11T13:50:20.941</time>
      </trkpt>
      <trkpt lat="42.53326" lon="2.05783">
        <ele>1836.5800741838</ele>
        <time>2000-05-11T13:50:21.941</time>
      </trkpt>
      <trkpt lat="42.53326" lon="2.05783">
        <ele>1836.0857987234</ele>
        <time>2000-05-11T13:50:22.941</time>
      </trkpt>
      <trkpt lat="42.53325" lon="2.05785">
        <ele>1836.1200480063</ele>
        <time>2000-05-11T13:50:23.941</time>
      </trkpt>
      <trkpt lat="42.53325" lon="2.05786">
        <ele>1836.6810546834</ele>
        <time>2000-05-11T13:50:24.941</time>
      </trkpt>
      <trkpt lat="42.53324" lon="2.05787">
        <ele>1837.5803109249</ele>
        <time>2000-05-11T13:50:25.943</time>
      </trkpt>
      <trkpt lat="42.53324" lon="2.05787">
        <ele>1838.5507035183</ele>
        <time>2000-05-11T13:50:26.943</time>
      </trkpt>
      <trkpt lat="42.53323" lon="2.0579">
        <ele>1840.0588681435</ele>
        <time>2000-05-11T13:50:27.946</time>
      </trkpt>
      <trkpt lat="42.53321" lon="2.0579">
        <ele>1840.697678748</ele>
        <time>2000-05-11T13:50:28.946</time>
      </trkpt>
      <trkpt lat="42.53319" lon="2.05791">
        <ele>1840.6652572382</ele>
        <time>2000-05-11T13:50:29.946</time>
      </trkpt>
      <trkpt lat="42.53317" lon="2.05792">
        <ele>1840.2749685694</ele>
        <time>2000-05-11T13:50:30.946</time>
      </trkpt>
      <trkpt lat="42.53315" lon="2.05793">
        <ele>1839.3632311255</ele>
        <time>2000-05-11T13:50:31.946</time>
      </trkpt>
      <trkpt lat="42.53315" lon="2.05793">
        <ele>1837.9137216497</ele>
        <time>2000-05-11T13:50:32.946</time>
      </trkpt>
      <trkpt lat="42.53315" lon="2.05795">
        <ele>1837.5568288388</ele>
        <time>2000-05-11T13:50:33.946</time>
      </trkpt>
      <trkpt lat="42.53313" lon="2.05796">
        <ele>1836.741909059</ele>
        <time>2000-05-11T13:50:34.946</time>
      </trkpt>
      <trkpt lat="42.53313" lon="2.05797">
        <ele>1836.1885253083</ele>
        <time>2000-05-11T13:50:35.946</time>
      </trkpt>
      <trkpt lat="42.53312" lon="2.05798">
        <ele>1836.3027074868</ele>
        <time>2000-05-11T13:50:36.946</time>
      </trkpt>
      <trkpt lat="42.5331" lon="2.05799">
        <ele>1836.2257140536</ele>
        <time>2000-05-11T13:50:37.946</time>
      </trkpt>
      <trkpt lat="42.5331" lon="2.058">
        <ele>1835.1898341117</ele>
        <time>2000-05-11T13:50:38.946</time>
      </trkpt>
      <trkpt lat="42.53311" lon="2.05801">
        <ele>1835.2414014796</ele>
        <time>2000-05-11T13:50:39.946</time>
      </trkpt>
      <trkpt lat="42.53311" lon="2.05802">
        <ele>1835.4921207674</ele>
        <time>2000-05-11T13:50:40.946</time>
      </trkpt>
      <trkpt lat="42.5331" lon="2.05803">
        <ele>1835.8357152315</ele>
        <time>2000-05-11T13:50:41.946</time>
      </trkpt>
      <trkpt lat="42.53309" lon="2.05805">
        <ele>1836.5126901574</ele>
        <time>2000-05-11T13:50:42.946</time>
      </trkpt>
      <trkpt lat="42.53308" lon="2.05807">
        <ele>1837.9089357613</ele>
        <time>2000-05-11T13:50:43.946</time>
      </trkpt>
      <trkpt lat="42.53308" lon="2.05808">
        <ele>1838.8643707762</ele>
        <time>2000-05-11T13:50:44.946</time>
      </trkpt>
      <trkpt lat="42.53307" lon="2.05808">
        <ele>1839.2967846412</ele>
        <time>2000-05-11T13:50:45.946</time>
      </trkpt>
      <trkpt lat="42.53307" lon="2.05808">
        <ele>1839.4902061759</ele>
        <time>2000-05-11T13:50:46.946</time>
      </trkpt>
      <trkpt lat="42.53306" lon="2.05809">
        <ele>1839.7773239832</ele>
        <time>2000-05-11T13:50:47.946</time>
      </trkpt>
      <trkpt lat="42.53304" lon="2.0581">
        <ele>1839.6426290274</ele>
        <time>2000-05-11T13:50:48.946</time>
      </trkpt>
      <trkpt lat="42.53303" lon="2.05811">
        <ele>1839.5074070819</ele>
        <time>2000-05-11T13:50:49.946</time>
      </trkpt>
      <trkpt lat="42.53302" lon="2.05812">
        <ele>1839.7324728824</ele>
        <time>2000-05-11T13:50:50.946</time>
      </trkpt>
      <trkpt lat="42.533" lon="2.05812">
        <ele>1839.3101919699</ele>
        <time>2000-05-11T13:50:51.946</time>
      </trkpt>
      <trkpt lat="42.53299" lon="2.05814">
        <ele>1839.0432098601</ele>
        <time>2000-05-11T13:50:52.946</time>
      </trkpt>
      <trkpt lat="42.53298" lon="2.05815">
        <ele>1839.0299109109</ele>
        <time>2000-05-11T13:50:53.946</time>
      </trkpt>
      <trkpt lat="42.53298" lon="2.05816">
        <ele>1839.1550821619</ele>
        <time>2000-05-11T13:50:54.946</time>
      </trkpt>
      <trkpt lat="42.53297" lon="2.05818">
        <ele>1839.4782572076</ele>
        <time>2000-05-11T13:50:55.946</time>
      </trkpt>
      <trkpt lat="42.53296" lon="2.05818">
        <ele>1840.2139799483</ele>
        <time>2000-05-11T13:50:56.946</time>
      </trkpt>
      <trkpt lat="42.53295" lon="2.0582">
        <ele>1840.7180384586</ele>
        <time>2000-05-11T13:50:57.946</time>
      </trkpt>
      <trkpt lat="42.53295" lon="2.05821">
        <ele>1841.6013135416</ele>
        <time>2000-05-11T13:50:58.946</time>
      </trkpt>
      <trkpt lat="42.53295" lon="2.05823">
        <ele>1842.8248553261</ele>
        <time>2000-05-11T13:50:59.946</time>
      </trkpt>
      <trkpt lat="42.53295" lon="2.05823">
        <ele>1843.8890244763</ele>
        <time>2000-05-11T13:51:00.946</time>
      </trkpt>
      <trkpt lat="42.53293" lon="2.05822">
        <ele>1845.3467801671</ele>
        <time>2000-05-11T13:51:01.947</time>
      </trkpt>
      <trkpt lat="42.53292" lon="2.05824">
        <ele>1846.9177214365</ele>
        <time>2000-05-11T13:51:02.947</time>
      </trkpt>
      <trkpt lat="42.5329" lon="2.05824">
        <ele>1847.5605836639</ele>
        <time>2000-05-11T13:51:03.947</time>
      </trkpt>
      <trkpt lat="42.53289" lon="2.05825">
        <ele>1847.8832938673</ele>
        <time>2000-05-11T13:51:04.947</time>
      </trkpt>
      <trkpt lat="42.53287" lon="2.05825">
        <ele>1848.1411263682</ele>
        <time>2000-05-11T13:51:05.947</time>
      </trkpt>
      <trkpt lat="42.53286" lon="2.05826">
        <ele>1848.0217163185</ele>
        <time>2000-05-11T13:51:06.947</time>
      </trkpt>
      <trkpt lat="42.53286" lon="2.05826">
        <ele>1847.6295849951</ele>
        <time>2000-05-11T13:51:07.947</time>
      </trkpt>
      <trkpt lat="42.53286" lon="2.05826">
        <ele>1847.5484451847</ele>
        <time>2000-05-11T13:51:08.947</time>
      </trkpt>
      <trkpt lat="42.53284" lon="2.05828">
        <ele>1847.0181445047</ele>
        <time>2000-05-11T13:51:09.946</time>
      </trkpt>
      <trkpt lat="42.53282" lon="2.05828">
        <ele>1846.2133529732</ele>
        <time>2000-05-11T13:51:10.946</time>
      </trkpt>
      <trkpt lat="42.53282" lon="2.05828">
        <ele>1845.6270164697</ele>
        <time>2000-05-11T13:51:11.946</time>
      </trkpt>
      <trkpt lat="42.53281" lon="2.05829">
        <ele>1845.369033085</ele>
        <time>2000-05-11T13:51:12.947</time>
      </trkpt>
      <trkpt lat="42.53282" lon="2.05831">
        <ele>1844.8687726026</ele>
        <time>2000-05-11T13:51:13.947</time>
      </trkpt>
      <trkpt lat="42.53281" lon="2.05832">
        <ele>1844.5565427475</ele>
        <time>2000-05-11T13:51:14.947</time>
      </trkpt>
      <trkpt lat="42.53281" lon="2.05832">
        <ele>1844.5836814463</ele>
        <time>2000-05-11T13:51:15.947</time>
      </trkpt>
      <trkpt lat="42.5328" lon="2.05832">
        <ele>1844.5309756069</ele>
        <time>2000-05-11T13:51:16.950</time>
      </trkpt>
      <trkpt lat="42.53279" lon="2.05832">
        <ele>1844.0481259819</ele>
        <time>2000-05-11T13:51:17.950</time>
      </trkpt>
      <trkpt lat="42.53278" lon="2.05833">
        <ele>1843.7070673918</ele>
        <time>2000-05-11T13:51:18.950</time>
      </trkpt>
      <trkpt lat="42.53277" lon="2.05834">
        <ele>1843.3853159375</ele>
        <time>2000-05-11T13:51:19.950</time>
      </trkpt>
      <trkpt lat="42.53277" lon="2.05834">
        <ele>1843.0635644833</ele>
        <time>2000-05-11T13:51:20.950</time>
      </trkpt>
      <trkpt lat="42.53277" lon="2.05834">
        <ele>1842.8216575673</ele>
        <time>2000-05-11T13:51:21.950</time>
      </trkpt>
      <trkpt lat="42.53275" lon="2.05834">
        <ele>1842.6482189206</ele>
        <time>2000-05-11T13:51:22.950</time>
      </trkpt>
      <trkpt lat="42.53274" lon="2.05836">
        <ele>1842.6963596342</ele>
        <time>2000-05-11T13:51:23.950</time>
      </trkpt>
      <trkpt lat="42.53274" lon="2.05836">
        <ele>1842.7841305343</ele>
        <time>2000-05-11T13:51:24.950</time>
      </trkpt>
      <trkpt lat="42.53273" lon="2.05836">
        <ele>1842.5757058106</ele>
        <time>2000-05-11T13:51:25.949</time>
      </trkpt>
      <trkpt lat="42.53272" lon="2.05836">
        <ele>1842.3928527528</ele>
        <time>2000-05-11T13:51:26.949</time>
      </trkpt>
      <trkpt lat="42.53272" lon="2.05837">
        <ele>1842.6617342291</ele>
        <time>2000-05-11T13:51:27.948</time>
      </trkpt>
      <trkpt lat="42.53272" lon="2.05837">
        <ele>1842.8095224081</ele>
        <time>2000-05-11T13:51:28.948</time>
      </trkpt>
      <trkpt lat="42.5327" lon="2.05838">
        <ele>1842.4950865889</ele>
        <time>2000-05-11T13:51:29.949</time>
      </trkpt>
      <trkpt lat="42.53268" lon="2.05839">
        <ele>1841.9449958488</ele>
        <time>2000-05-11T13:51:30.949</time>
      </trkpt>
      <trkpt lat="42.53266" lon="2.05841">
        <ele>1841.5667853776</ele>
        <time>2000-05-11T13:51:31.949</time>
      </trkpt>
      <trkpt lat="42.53264" lon="2.05843">
        <ele>1840.8997238297</ele>
        <time>2000-05-11T13:51:32.949</time>
      </trkpt>
      <trkpt lat="42.53263" lon="2.05844">
        <ele>1840.5069655711</ele>
        <time>2000-05-11T13:51:33.949</time>
      </trkpt>
      <trkpt lat="42.53262" lon="2.05844">
        <ele>1840.2950654149</ele>
        <time>2000-05-11T13:51:34.949</time>
      </trkpt>
      <trkpt lat="42.5326" lon="2.05845">
        <ele>1840.2519715976</ele>
        <time>2000-05-11T13:51:35.949</time>
      </trkpt>
      <trkpt lat="42.53259" lon="2.05845">
        <ele>1839.5709042709</ele>
        <time>2000-05-11T13:51:36.949</time>
      </trkpt>
      <trkpt lat="42.53258" lon="2.05847">
        <ele>1839.0278440582</ele>
        <time>2000-05-11T13:51:37.949</time>
      </trkpt>
      <trkpt lat="42.53258" lon="2.05848">
        <ele>1838.6078667639</ele>
        <time>2000-05-11T13:51:38.949</time>
      </trkpt>
      <trkpt lat="42.53257" lon="2.05849">
        <ele>1838.63868639</ele>
        <time>2000-05-11T13:51:39.949</time>
      </trkpt>
      <trkpt lat="42.53257" lon="2.05851">
        <ele>1839.3213501044</ele>
        <time>2000-05-11T13:51:40.949</time>
      </trkpt>
      <trkpt lat="42.53256" lon="2.05852">
        <ele>1841.2702618914</ele>
        <time>2000-05-11T13:51:41.949</time>
      </trkpt>
      <trkpt lat="42.53256" lon="2.05852">
        <ele>1842.9516055044</ele>
        <time>2000-05-11T13:51:42.949</time>
      </trkpt>
      <trkpt lat="42.53256" lon="2.05852">
        <ele>1844.2355629096</ele>
        <time>2000-05-11T13:51:43.949</time>
      </trkpt>
      <trkpt lat="42.53255" lon="2.05853">
        <ele>1845.397968884</ele>
        <time>2000-05-11T13:51:44.949</time>
      </trkpt>
      <trkpt lat="42.53255" lon="2.05854">
        <ele>1846.8974804953</ele>
        <time>2000-05-11T13:51:45.948</time>
      </trkpt>
      <trkpt lat="42.53255" lon="2.05854">
        <ele>1847.5712656084</ele>
        <time>2000-05-11T13:51:46.948</time>
      </trkpt>
      <trkpt lat="42.53253" lon="2.05856">
        <ele>1848.50857276</ele>
        <time>2000-05-11T13:51:47.948</time>
      </trkpt>
      <trkpt lat="42.53253" lon="2.05856">
        <ele>1849.4458799116</ele>
        <time>2000-05-11T13:51:48.948</time>
      </trkpt>
      <trkpt lat="42.53251" lon="2.05857">
        <ele>1850.6089995706</ele>
        <time>2000-05-11T13:51:49.951</time>
      </trkpt>
      <trkpt lat="42.53249" lon="2.05857">
        <ele>1850.5418426942</ele>
        <time>2000-05-11T13:51:50.951</time>
      </trkpt>
      <trkpt lat="42.53248" lon="2.05857">
        <ele>1850.1767339623</ele>
        <time>2000-05-11T13:51:51.951</time>
      </trkpt>
      <trkpt lat="42.53247" lon="2.05857">
        <ele>1849.6749206828</ele>
        <time>2000-05-11T13:51:52.951</time>
      </trkpt>
      <trkpt lat="42.53245" lon="2.05856">
        <ele>1848.9976059482</ele>
        <time>2000-05-11T13:51:53.951</time>
      </trkpt>
      <trkpt lat="42.53243" lon="2.05857">
        <ele>1847.4870528217</ele>
        <time>2000-05-11T13:51:54.951</time>
      </trkpt>
      <trkpt lat="42.53242" lon="2.05858">
        <ele>1846.5777789019</ele>
        <time>2000-05-11T13:51:55.951</time>
      </trkpt>
      <trkpt lat="42.53241" lon="2.05858">
        <ele>1845.9411857931</ele>
        <time>2000-05-11T13:51:56.951</time>
      </trkpt>
      <trkpt lat="42.53241" lon="2.05858">
        <ele>1845.1777751934</ele>
        <time>2000-05-11T13:51:57.951</time>
      </trkpt>
      <trkpt lat="42.5324" lon="2.05858">
        <ele>1844.262066333</ele>
        <time>2000-05-11T13:51:58.951</time>
      </trkpt>
      <trkpt lat="42.53238" lon="2.05858">
        <ele>1843.589089442</ele>
        <time>2000-05-11T13:51:59.951</time>
      </trkpt>
      <trkpt lat="42.53238" lon="2.05859">
        <ele>1843.263823675</ele>
        <time>2000-05-11T13:52:00.951</time>
      </trkpt>
      <trkpt lat="42.53238" lon="2.0586">
        <ele>1843.3385058634</ele>
        <time>2000-05-11T13:52:01.955</time>
      </trkpt>
      <trkpt lat="42.53238" lon="2.0586">
        <ele>1843.4131880518</ele>
        <time>2000-05-11T13:52:02.955</time>
      </trkpt>
      <trkpt lat="42.53238" lon="2.05862">
        <ele>1844.1390872194</ele>
        <time>2000-05-11T13:52:03.954</time>
      </trkpt>
      <trkpt lat="42.53236" lon="2.05862">
        <ele>1845.1145914422</ele>
        <time>2000-05-11T13:52:04.954</time>
      </trkpt>
      <trkpt lat="42.53236" lon="2.05862">
        <ele>1845.7800902393</ele>
        <time>2000-05-11T13:52:05.954</time>
      </trkpt>
      <trkpt lat="42.53234" lon="2.05863">
        <ele>1846.1868007977</ele>
        <time>2000-05-11T13:52:06.954</time>
      </trkpt>
      <trkpt lat="42.53234" lon="2.05864">
        <ele>1846.4733725525</ele>
        <time>2000-05-11T13:52:07.954</time>
      </trkpt>
      <trkpt lat="42.53233" lon="2.05864">
        <ele>1846.2412629222</ele>
        <time>2000-05-11T13:52:08.954</time>
      </trkpt>
      <trkpt lat="42.53233" lon="2.05865">
        <ele>1845.9226112733</ele>
        <time>2000-05-11T13:52:09.954</time>
      </trkpt>
      <trkpt lat="42.53232" lon="2.05866">
        <ele>1845.7230248597</ele>
        <time>2000-05-11T13:52:10.954</time>
      </trkpt>
      <trkpt lat="42.5323" lon="2.05867">
        <ele>1845.1168420531</ele>
        <time>2000-05-11T13:52:11.954</time>
      </trkpt>
      <trkpt lat="42.53228" lon="2.05868">
        <ele>1844.829650663</ele>
        <time>2000-05-11T13:52:12.954</time>
      </trkpt>
      <trkpt lat="42.53227" lon="2.05869">
        <ele>1844.6651829511</ele>
        <time>2000-05-11T13:52:13.954</time>
      </trkpt>
      <trkpt lat="42.53226" lon="2.05869">
        <ele>1844.7483103605</ele>
        <time>2000-05-11T13:52:14.954</time>
      </trkpt>
      <trkpt lat="42.53225" lon="2.05869">
        <ele>1844.7938595073</ele>
        <time>2000-05-11T13:52:15.954</time>
      </trkpt>
      <trkpt lat="42.53224" lon="2.05868">
        <ele>1844.9228643525</ele>
        <time>2000-05-11T13:52:16.954</time>
      </trkpt>
      <trkpt lat="42.53223" lon="2.05868">
        <ele>1844.7925884007</ele>
        <time>2000-05-11T13:52:17.954</time>
      </trkpt>
      <trkpt lat="42.53222" lon="2.05869">
        <ele>1844.6458819957</ele>
        <time>2000-05-11T13:52:18.954</time>
      </trkpt>
      <trkpt lat="42.5322" lon="2.0587">
        <ele>1844.6614216043</ele>
        <time>2000-05-11T13:52:19.954</time>
      </trkpt>
      <trkpt lat="42.53219" lon="2.05871">
        <ele>1844.6478669733</ele>
        <time>2000-05-11T13:52:20.954</time>
      </trkpt>
      <trkpt lat="42.53218" lon="2.05871">
        <ele>1844.7067760859</ele>
        <time>2000-05-11T13:52:21.954</time>
      </trkpt>
      <trkpt lat="42.53218" lon="2.05871">
        <ele>1845.0009157084</ele>
        <time>2000-05-11T13:52:22.954</time>
      </trkpt>
      <trkpt lat="42.53218" lon="2.05872">
        <ele>1845.5492462194</ele>
        <time>2000-05-11T13:52:23.954</time>
      </trkpt>
      <trkpt lat="42.53217" lon="2.05871">
        <ele>1846.2372945109</ele>
        <time>2000-05-11T13:52:24.955</time>
      </trkpt>
      <trkpt lat="42.53216" lon="2.0587">
        <ele>1846.6549382895</ele>
        <time>2000-05-11T13:52:25.955</time>
      </trkpt>
      <trkpt lat="42.53215" lon="2.05869">
        <ele>1847.0908361789</ele>
        <time>2000-05-11T13:52:26.955</time>
      </trkpt>
      <trkpt lat="42.53215" lon="2.0587">
        <ele>1847.5752154462</ele>
        <time>2000-05-11T13:52:27.955</time>
      </trkpt>
      <trkpt lat="42.53213" lon="2.05871">
        <ele>1847.937736669</ele>
        <time>2000-05-11T13:52:28.955</time>
      </trkpt>
      <trkpt lat="42.53211" lon="2.0587">
        <ele>1847.639352998</ele>
        <time>2000-05-11T13:52:29.955</time>
      </trkpt>
      <trkpt lat="42.53211" lon="2.05871">
        <ele>1847.7063973991</ele>
        <time>2000-05-11T13:52:30.955</time>
      </trkpt>
      <trkpt lat="42.53209" lon="2.05871">
        <ele>1848.1792189507</ele>
        <time>2000-05-11T13:52:31.955</time>
      </trkpt>
      <trkpt lat="42.53208" lon="2.05872">
        <ele>1848.6563867675</ele>
        <time>2000-05-11T13:52:32.955</time>
      </trkpt>
      <trkpt lat="42.53208" lon="2.05873">
        <ele>1848.9761876106</ele>
        <time>2000-05-11T13:52:33.955</time>
      </trkpt>
      <trkpt lat="42.53207" lon="2.05874">
        <ele>1849.6352332229</ele>
        <time>2000-05-11T13:52:34.955</time>
      </trkpt>
      <trkpt lat="42.53206" lon="2.05875">
        <ele>1849.9263097581</ele>
        <time>2000-05-11T13:52:35.955</time>
      </trkpt>
      <trkpt lat="42.53205" lon="2.05875">
        <ele>1849.7149569502</ele>
        <time>2000-05-11T13:52:36.955</time>
      </trkpt>
      <trkpt lat="42.53204" lon="2.05876">
        <ele>1849.3241030939</ele>
        <time>2000-05-11T13:52:37.955</time>
      </trkpt>
      <trkpt lat="42.53203" lon="2.05877">
        <ele>1849.3336752109</ele>
        <time>2000-05-11T13:52:38.955</time>
      </trkpt>
      <trkpt lat="42.53202" lon="2.05878">
        <ele>1849.1862700906</ele>
        <time>2000-05-11T13:52:39.955</time>
      </trkpt>
      <trkpt lat="42.53202" lon="2.05878">
        <ele>1849.2248038664</ele>
        <time>2000-05-11T13:52:40.955</time>
      </trkpt>
      <trkpt lat="42.53201" lon="2.05878">
        <ele>1849.4556310462</ele>
        <time>2000-05-11T13:52:41.955</time>
      </trkpt>
      <trkpt lat="42.532" lon="2.05877">
        <ele>1849.451623874</ele>
        <time>2000-05-11T13:52:42.955</time>
      </trkpt>
      <trkpt lat="42.53199" lon="2.05876">
        <ele>1848.5898322934</ele>
        <time>2000-05-11T13:52:43.954</time>
      </trkpt>
      <trkpt lat="42.53197" lon="2.05876">
        <ele>1847.810472304</ele>
        <time>2000-05-11T13:52:44.954</time>
      </trkpt>
      <trkpt lat="42.53196" lon="2.05876">
        <ele>1846.8468657341</ele>
        <time>2000-05-11T13:52:45.954</time>
      </trkpt>
      <trkpt lat="42.53194" lon="2.05875">
        <ele>1845.7106256386</ele>
        <time>2000-05-11T13:52:46.954</time>
      </trkpt>
      <trkpt lat="42.53193" lon="2.05876">
        <ele>1845.0351089142</ele>
        <time>2000-05-11T13:52:47.954</time>
      </trkpt>
      <trkpt lat="42.53193" lon="2.05876">
        <ele>1844.9309556514</ele>
        <time>2000-05-11T13:52:48.954</time>
      </trkpt>
      <trkpt lat="42.53192" lon="2.05877">
        <ele>1844.8004263757</ele>
        <time>2000-05-11T13:52:49.954</time>
      </trkpt>
      <trkpt lat="42.53191" lon="2.05877">
        <ele>1844.7817662643</ele>
        <time>2000-05-11T13:52:50.954</time>
      </trkpt>
      <trkpt lat="42.5319" lon="2.05878">
        <ele>1844.7933434069</ele>
        <time>2000-05-11T13:52:51.954</time>
      </trkpt>
      <trkpt lat="42.53189" lon="2.05879">
        <ele>1844.8632748762</ele>
        <time>2000-05-11T13:52:52.954</time>
      </trkpt>
      <trkpt lat="42.53187" lon="2.0588">
        <ele>1845.3778123232</ele>
        <time>2000-05-11T13:52:53.954</time>
      </trkpt>
      <trkpt lat="42.53186" lon="2.0588">
        <ele>1845.8215949863</ele>
        <time>2000-05-11T13:52:54.954</time>
      </trkpt>
      <trkpt lat="42.53186" lon="2.0588">
        <ele>1846.3377550656</ele>
        <time>2000-05-11T13:52:55.954</time>
      </trkpt>
      <trkpt lat="42.53186" lon="2.0588">
        <ele>1847.0172043731</ele>
        <time>2000-05-11T13:52:56.954</time>
      </trkpt>
      <trkpt lat="42.53185" lon="2.05881">
        <ele>1847.6025767645</ele>
        <time>2000-05-11T13:52:57.951</time>
      </trkpt>
      <trkpt lat="42.53184" lon="2.05881">
        <ele>1847.6018602246</ele>
        <time>2000-05-11T13:52:58.951</time>
      </trkpt>
      <trkpt lat="42.53182" lon="2.05882">
        <ele>1848.4503140379</ele>
        <time>2000-05-11T13:52:59.951</time>
      </trkpt>
      <trkpt lat="42.53182" lon="2.05882">
        <ele>1849.2392807955</ele>
        <time>2000-05-11T13:53:00.951</time>
      </trkpt>
      <trkpt lat="42.5318" lon="2.05882">
        <ele>1849.8635414129</ele>
        <time>2000-05-11T13:53:01.951</time>
      </trkpt>
      <trkpt lat="42.53179" lon="2.05882">
        <ele>1850.1967270315</ele>
        <time>2000-05-11T13:53:02.951</time>
      </trkpt>
      <trkpt lat="42.53179" lon="2.05884">
        <ele>1850.9513862859</ele>
        <time>2000-05-11T13:53:03.951</time>
      </trkpt>
      <trkpt lat="42.5318" lon="2.05885">
        <ele>1851.5559448728</ele>
        <time>2000-05-11T13:53:04.951</time>
      </trkpt>
      <trkpt lat="42.5318" lon="2.05885">
        <ele>1852.2199905153</ele>
        <time>2000-05-11T13:53:05.951</time>
      </trkpt>
      <trkpt lat="42.53179" lon="2.05886">
        <ele>1853.1760144543</ele>
        <time>2000-05-11T13:53:06.952</time>
      </trkpt>
      <trkpt lat="42.53179" lon="2.05887">
        <ele>1854.4328218026</ele>
        <time>2000-05-11T13:53:07.952</time>
      </trkpt>
      <trkpt lat="42.53176" lon="2.05888">
        <ele>1854.6163155571</ele>
        <time>2000-05-11T13:53:08.952</time>
      </trkpt>
      <trkpt lat="42.53175" lon="2.05889">
        <ele>1853.7013874158</ele>
        <time>2000-05-11T13:53:09.952</time>
      </trkpt>
      <trkpt lat="42.53173" lon="2.05889">
        <ele>1852.2668685598</ele>
        <time>2000-05-11T13:53:10.952</time>
      </trkpt>
      <trkpt lat="42.53172" lon="2.05888">
        <ele>1850.736252691</ele>
        <time>2000-05-11T13:53:11.952</time>
      </trkpt>
      <trkpt lat="42.53171" lon="2.05888">
        <ele>1848.848208599</ele>
        <time>2000-05-11T13:53:12.952</time>
      </trkpt>
      <trkpt lat="42.5317" lon="2.05889">
        <ele>1847.9968550153</ele>
        <time>2000-05-11T13:53:13.952</time>
      </trkpt>
      <trkpt lat="42.53169" lon="2.05889">
        <ele>1847.3910304001</ele>
        <time>2000-05-11T13:53:14.952</time>
      </trkpt>
      <trkpt lat="42.53168" lon="2.05889">
        <ele>1847.1323136834</ele>
        <time>2000-05-11T13:53:15.952</time>
      </trkpt>
      <trkpt lat="42.53167" lon="2.0589">
        <ele>1846.8369024873</ele>
        <time>2000-05-11T13:53:16.952</time>
      </trkpt>
      <trkpt lat="42.53167" lon="2.05889">
        <ele>1846.4985166844</ele>
        <time>2000-05-11T13:53:17.952</time>
      </trkpt>
      <trkpt lat="42.53166" lon="2.05889">
        <ele>1845.8476366511</ele>
        <time>2000-05-11T13:53:18.952</time>
      </trkpt>
      <trkpt lat="42.53164" lon="2.05889">
        <ele>1845.1961191822</ele>
        <time>2000-05-11T13:53:19.952</time>
      </trkpt>
      <trkpt lat="42.53163" lon="2.05889">
        <ele>1844.2186153814</ele>
        <time>2000-05-11T13:53:20.952</time>
      </trkpt>
      <trkpt lat="42.53161" lon="2.05888">
        <ele>1842.9012892066</ele>
        <time>2000-05-11T13:53:21.952</time>
      </trkpt>
      <trkpt lat="42.53161" lon="2.05888">
        <ele>1841.7851704411</ele>
        <time>2000-05-11T13:53:22.952</time>
      </trkpt>
      <trkpt lat="42.53159" lon="2.05888">
        <ele>1840.5833001979</ele>
        <time>2000-05-11T13:53:23.952</time>
      </trkpt>
      <trkpt lat="42.53157" lon="2.05888">
        <ele>1839.0470714198</ele>
        <time>2000-05-11T13:53:24.952</time>
      </trkpt>
      <trkpt lat="42.53156" lon="2.05887">
        <ele>1838.0840754906</ele>
        <time>2000-05-11T13:53:25.952</time>
      </trkpt>
      <trkpt lat="42.53155" lon="2.05886">
        <ele>1837.3353718713</ele>
        <time>2000-05-11T13:53:26.952</time>
      </trkpt>
      <trkpt lat="42.53154" lon="2.05886">
        <ele>1836.7927958202</ele>
        <time>2000-05-11T13:53:27.952</time>
      </trkpt>
      <trkpt lat="42.53153" lon="2.05886">
        <ele>1836.229475758</ele>
        <time>2000-05-11T13:53:28.952</time>
      </trkpt>
      <trkpt lat="42.53153" lon="2.05886">
        <ele>1836.2918272691</ele>
        <time>2000-05-11T13:53:29.952</time>
      </trkpt>
      <trkpt lat="42.53152" lon="2.05886">
        <ele>1836.0776171528</ele>
        <time>2000-05-11T13:53:30.952</time>
      </trkpt>
      <trkpt lat="42.53151" lon="2.05888">
        <ele>1836.3261103068</ele>
        <time>2000-05-11T13:53:31.952</time>
      </trkpt>
      <trkpt lat="42.5315" lon="2.05889">
        <ele>1836.6696391126</ele>
        <time>2000-05-11T13:53:32.952</time>
      </trkpt>
      <trkpt lat="42.53149" lon="2.05889">
        <ele>1837.2556148898</ele>
        <time>2000-05-11T13:53:33.952</time>
      </trkpt>
      <trkpt lat="42.53148" lon="2.0589">
        <ele>1838.4022411313</ele>
        <time>2000-05-11T13:53:34.952</time>
      </trkpt>
      <trkpt lat="42.53147" lon="2.05891">
        <ele>1839.9940366486</ele>
        <time>2000-05-11T13:53:35.952</time>
      </trkpt>
      <trkpt lat="42.53147" lon="2.05892">
        <ele>1841.0204151154</ele>
        <time>2000-05-11T13:53:36.952</time>
      </trkpt>
      <trkpt lat="42.53149" lon="2.05893">
        <ele>1841.8432071606</ele>
        <time>2000-05-11T13:53:37.952</time>
      </trkpt>
      <trkpt lat="42.53149" lon="2.05894">
        <ele>1842.9109220786</ele>
        <time>2000-05-11T13:53:38.952</time>
      </trkpt>
      <trkpt lat="42.53149" lon="2.05895">
        <ele>1843.7094588043</ele>
        <time>2000-05-11T13:53:39.952</time>
      </trkpt>
      <trkpt lat="42.53148" lon="2.05895">
        <ele>1844.5566686662</ele>
        <time>2000-05-11T13:53:40.952</time>
      </trkpt>
      <trkpt lat="42.53148" lon="2.05895">
        <ele>1845.6376417086</ele>
        <time>2000-05-11T13:53:41.952</time>
      </trkpt>
      <trkpt lat="42.53147" lon="2.05896">
        <ele>1846.7262427464</ele>
        <time>2000-05-11T13:53:42.951</time>
      </trkpt>
      <trkpt lat="42.53146" lon="2.05896">
        <ele>1847.2330270112</ele>
        <time>2000-05-11T13:53:43.951</time>
      </trkpt>
      <trkpt lat="42.53145" lon="2.05897">
        <ele>1847.380685615</ele>
        <time>2000-05-11T13:53:44.951</time>
      </trkpt>
      <trkpt lat="42.53144" lon="2.05898">
        <ele>1847.5382233208</ele>
        <time>2000-05-11T13:53:45.951</time>
      </trkpt>
      <trkpt lat="42.53143" lon="2.05899">
        <ele>1847.8990094949</ele>
        <time>2000-05-11T13:53:46.951</time>
      </trkpt>
      <trkpt lat="42.53143" lon="2.05899">
        <ele>1848.1057825347</ele>
        <time>2000-05-11T13:53:47.951</time>
      </trkpt>
      <trkpt lat="42.53142" lon="2.059">
        <ele>1849.0741226053</ele>
        <time>2000-05-11T13:53:48.951</time>
      </trkpt>
      <trkpt lat="42.5314" lon="2.05901">
        <ele>1849.5602820354</ele>
        <time>2000-05-11T13:53:49.951</time>
      </trkpt>
      <trkpt lat="42.5314" lon="2.05901">
        <ele>1849.7445178781</ele>
        <time>2000-05-11T13:53:50.951</time>
      </trkpt>
      <trkpt lat="42.53139" lon="2.059">
        <ele>1849.745089047</ele>
        <time>2000-05-11T13:53:51.949</time>
      </trkpt>
      <trkpt lat="42.53139" lon="2.059">
        <ele>1849.821090637</ele>
        <time>2000-05-11T13:53:52.949</time>
      </trkpt>
      <trkpt lat="42.53137" lon="2.059">
        <ele>1849.6483839279</ele>
        <time>2000-05-11T13:53:53.951</time>
      </trkpt>
      <trkpt lat="42.53136" lon="2.059">
        <ele>1849.8705218211</ele>
        <time>2000-05-11T13:53:54.951</time>
      </trkpt>
      <trkpt lat="42.53134" lon="2.059">
        <ele>1849.7623426523</ele>
        <time>2000-05-11T13:53:55.951</time>
      </trkpt>
      <trkpt lat="42.53132" lon="2.059">
        <ele>1849.0827662604</ele>
        <time>2000-05-11T13:53:56.951</time>
      </trkpt>
      <trkpt lat="42.5313" lon="2.05899">
        <ele>1847.5990211641</ele>
        <time>2000-05-11T13:53:57.951</time>
      </trkpt>
      <trkpt lat="42.53129" lon="2.05899">
        <ele>1845.829634849</ele>
        <time>2000-05-11T13:53:58.951</time>
      </trkpt>
      <trkpt lat="42.53128" lon="2.05899">
        <ele>1844.3802139327</ele>
        <time>2000-05-11T13:53:59.951</time>
      </trkpt>
      <trkpt lat="42.53128" lon="2.05899">
        <ele>1843.4679319134</ele>
        <time>2000-05-11T13:54:00.951</time>
      </trkpt>
      <trkpt lat="42.53127" lon="2.05899">
        <ele>1843.2159654723</ele>
        <time>2000-05-11T13:54:01.951</time>
      </trkpt>
      <trkpt lat="42.53126" lon="2.05899">
        <ele>1843.5821415743</ele>
        <time>2000-05-11T13:54:02.951</time>
      </trkpt>
      <trkpt lat="42.53125" lon="2.05899">
        <ele>1843.9236116854</ele>
        <time>2000-05-11T13:54:03.951</time>
      </trkpt>
      <trkpt lat="42.53123" lon="2.05898">
        <ele>1843.8941639334</ele>
        <time>2000-05-11T13:54:04.951</time>
      </trkpt>
      <trkpt lat="42.53122" lon="2.05899">
        <ele>1843.8326629369</ele>
        <time>2000-05-11T13:54:05.951</time>
      </trkpt>
      <trkpt lat="42.53121" lon="2.059">
        <ele>1844.2120574797</ele>
        <time>2000-05-11T13:54:06.951</time>
      </trkpt>
      <trkpt lat="42.5312" lon="2.059">
        <ele>1844.7398162847</ele>
        <time>2000-05-11T13:54:07.951</time>
      </trkpt>
      <trkpt lat="42.5312" lon="2.059">
        <ele>1845.3351326192</ele>
        <time>2000-05-11T13:54:08.951</time>
      </trkpt>
      <trkpt lat="42.5312" lon="2.05901">
        <ele>1846.2552793982</ele>
        <time>2000-05-11T13:54:09.951</time>
      </trkpt>
      <trkpt lat="42.53119" lon="2.05902">
        <ele>1847.38551109</ele>
        <time>2000-05-11T13:54:10.951</time>
      </trkpt>
      <trkpt lat="42.53118" lon="2.05902">
        <ele>1848.3533348264</ele>
        <time>2000-05-11T13:54:11.951</time>
      </trkpt>
      <trkpt lat="42.53117" lon="2.05902">
        <ele>1849.3391259763</ele>
        <time>2000-05-11T13:54:12.951</time>
      </trkpt>
      <trkpt lat="42.53116" lon="2.05902">
        <ele>1850.2178746719</ele>
        <time>2000-05-11T13:54:13.951</time>
      </trkpt>
      <trkpt lat="42.53116" lon="2.05904">
        <ele>1851.4494700203</ele>
        <time>2000-05-11T13:54:14.951</time>
      </trkpt>
      <trkpt lat="42.53115" lon="2.05904">
        <ele>1852.4941354237</ele>
        <time>2000-05-11T13:54:15.951</time>
      </trkpt>
      <trkpt lat="42.53115" lon="2.05904">
        <ele>1853.1518110938</ele>
        <time>2000-05-11T13:54:16.951</time>
      </trkpt>
      <trkpt lat="42.53114" lon="2.05905">
        <ele>1853.9094837133</ele>
        <time>2000-05-11T13:54:17.951</time>
      </trkpt>
      <trkpt lat="42.53113" lon="2.05904">
        <ele>1854.5646867823</ele>
        <time>2000-05-11T13:54:18.951</time>
      </trkpt>
      <trkpt lat="42.53111" lon="2.05904">
        <ele>1854.4005420811</ele>
        <time>2000-05-11T13:54:19.951</time>
      </trkpt>
      <trkpt lat="42.5311" lon="2.05904">
        <ele>1853.7971705323</ele>
        <time>2000-05-11T13:54:20.951</time>
      </trkpt>
      <trkpt lat="42.53109" lon="2.05904">
        <ele>1852.6523181245</ele>
        <time>2000-05-11T13:54:21.951</time>
      </trkpt>
      <trkpt lat="42.53109" lon="2.05904">
        <ele>1851.3517328318</ele>
        <time>2000-05-11T13:54:22.951</time>
      </trkpt>
      <trkpt lat="42.53109" lon="2.05904">
        <ele>1850.260659544</ele>
        <time>2000-05-11T13:54:23.951</time>
      </trkpt>
      <trkpt lat="42.53106" lon="2.05905">
        <ele>1849.6632384809</ele>
        <time>2000-05-11T13:54:24.952</time>
      </trkpt>
      <trkpt lat="42.53105" lon="2.05907">
        <ele>1849.8613966843</ele>
        <time>2000-05-11T13:54:25.952</time>
      </trkpt>
      <trkpt lat="42.53104" lon="2.05907">
        <ele>1850.3810802743</ele>
        <time>2000-05-11T13:54:26.952</time>
      </trkpt>
      <trkpt lat="42.53103" lon="2.05907">
        <ele>1850.7387789605</ele>
        <time>2000-05-11T13:54:27.952</time>
      </trkpt>
      <trkpt lat="42.53102" lon="2.05907">
        <ele>1851.0173377151</ele>
        <time>2000-05-11T13:54:28.952</time>
      </trkpt>
      <trkpt lat="42.53101" lon="2.05907">
        <ele>1851.0892989365</ele>
        <time>2000-05-11T13:54:29.952</time>
      </trkpt>
      <trkpt lat="42.53101" lon="2.05907">
        <ele>1850.6069841806</ele>
        <time>2000-05-11T13:54:30.952</time>
      </trkpt>
      <trkpt lat="42.531" lon="2.05906">
        <ele>1849.8879589444</ele>
        <time>2000-05-11T13:54:31.952</time>
      </trkpt>
      <trkpt lat="42.53099" lon="2.05906">
        <ele>1848.5435616311</ele>
        <time>2000-05-11T13:54:32.952</time>
      </trkpt>
      <trkpt lat="42.53099" lon="2.05906">
        <ele>1847.2783042494</ele>
        <time>2000-05-11T13:54:33.952</time>
      </trkpt>
      <trkpt lat="42.53096" lon="2.05907">
        <ele>1845.8832259862</ele>
        <time>2000-05-11T13:54:34.950</time>
      </trkpt>
      <trkpt lat="42.53095" lon="2.05907">
        <ele>1844.5061140394</ele>
        <time>2000-05-11T13:54:35.950</time>
      </trkpt>
      <trkpt lat="42.53094" lon="2.05908">
        <ele>1843.5176023765</ele>
        <time>2000-05-11T13:54:36.950</time>
      </trkpt>
      <trkpt lat="42.53093" lon="2.05908">
        <ele>1843.0832788775</ele>
        <time>2000-05-11T13:54:37.950</time>
      </trkpt>
      <trkpt lat="42.53091" lon="2.0591">
        <ele>1842.2336055053</ele>
        <time>2000-05-11T13:54:38.950</time>
      </trkpt>
      <trkpt lat="42.5309" lon="2.05911">
        <ele>1841.7881738259</ele>
        <time>2000-05-11T13:54:39.950</time>
      </trkpt>
      <trkpt lat="42.53089" lon="2.05912">
        <ele>1841.7620863182</ele>
        <time>2000-05-11T13:54:40.950</time>
      </trkpt>
      <trkpt lat="42.53088" lon="2.05913">
        <ele>1841.9092255145</ele>
        <time>2000-05-11T13:54:41.950</time>
      </trkpt>
      <trkpt lat="42.53088" lon="2.05914">
        <ele>1842.2756773863</ele>
        <time>2000-05-11T13:54:42.950</time>
      </trkpt>
      <trkpt lat="42.53088" lon="2.05915">
        <ele>1843.3969232015</ele>
        <time>2000-05-11T13:54:43.950</time>
      </trkpt>
      <trkpt lat="42.53087" lon="2.05916">
        <ele>1844.5597220851</ele>
        <time>2000-05-11T13:54:44.950</time>
      </trkpt>
      <trkpt lat="42.53087" lon="2.05918">
        <ele>1845.5687787846</ele>
        <time>2000-05-11T13:54:45.950</time>
      </trkpt>
      <trkpt lat="42.53087" lon="2.05919">
        <ele>1846.3140750227</ele>
        <time>2000-05-11T13:54:46.950</time>
      </trkpt>
      <trkpt lat="42.53085" lon="2.0592">
        <ele>1846.6743840927</ele>
        <time>2000-05-11T13:54:47.950</time>
      </trkpt>
      <trkpt lat="42.53084" lon="2.05921">
        <ele>1846.1012190649</ele>
        <time>2000-05-11T13:54:48.950</time>
      </trkpt>
      <trkpt lat="42.53083" lon="2.05921">
        <ele>1845.1483264785</ele>
        <time>2000-05-11T13:54:49.950</time>
      </trkpt>
      <trkpt lat="42.53083" lon="2.05922">
        <ele>1844.2388770098</ele>
        <time>2000-05-11T13:54:50.950</time>
      </trkpt>
      <trkpt lat="42.53083" lon="2.05924">
        <ele>1843.8032470854</ele>
        <time>2000-05-11T13:54:51.950</time>
      </trkpt>
      <trkpt lat="42.53082" lon="2.05926">
        <ele>1843.8511604384</ele>
        <time>2000-05-11T13:54:52.950</time>
      </trkpt>
      <trkpt lat="42.53081" lon="2.05927">
        <ele>1844.3012957847</ele>
        <time>2000-05-11T13:54:53.950</time>
      </trkpt>
      <trkpt lat="42.5308" lon="2.0593">
        <ele>1845.1552175492</ele>
        <time>2000-05-11T13:54:54.950</time>
      </trkpt>
      <trkpt lat="42.5308" lon="2.05932">
        <ele>1846.1900326926</ele>
        <time>2000-05-11T13:54:55.950</time>
      </trkpt>
      <trkpt lat="42.5308" lon="2.05933">
        <ele>1847.1011043685</ele>
        <time>2000-05-11T13:54:56.950</time>
      </trkpt>
      <trkpt lat="42.5308" lon="2.05933">
        <ele>1847.9274760766</ele>
        <time>2000-05-11T13:54:57.950</time>
      </trkpt>
      <trkpt lat="42.53079" lon="2.05934">
        <ele>1848.9036838869</ele>
        <time>2000-05-11T13:54:58.950</time>
      </trkpt>
      <trkpt lat="42.5308" lon="2.05935">
        <ele>1849.2447146775</ele>
        <time>2000-05-11T13:54:59.952</time>
      </trkpt>
      <trkpt lat="42.53079" lon="2.05937">
        <ele>1849.0464057442</ele>
        <time>2000-05-11T13:55:00.952</time>
      </trkpt>
      <trkpt lat="42.53078" lon="2.05937">
        <ele>1848.6349502524</ele>
        <time>2000-05-11T13:55:01.952</time>
      </trkpt>
      <trkpt lat="42.53077" lon="2.05938">
        <ele>1847.9468919069</ele>
        <time>2000-05-11T13:55:02.952</time>
      </trkpt>
      <trkpt lat="42.53077" lon="2.05939">
        <ele>1847.4327796046</ele>
        <time>2000-05-11T13:55:03.952</time>
      </trkpt>
      <trkpt lat="42.53077" lon="2.05941">
        <ele>1847.2953326732</ele>
        <time>2000-05-11T13:55:04.952</time>
      </trkpt>
      <trkpt lat="42.53076" lon="2.05941">
        <ele>1846.9532479316</ele>
        <time>2000-05-11T13:55:05.952</time>
      </trkpt>
      <trkpt lat="42.53076" lon="2.05943">
        <ele>1846.6443122355</ele>
        <time>2000-05-11T13:55:06.952</time>
      </trkpt>
      <trkpt lat="42.53074" lon="2.05944">
        <ele>1846.2417107204</ele>
        <time>2000-05-11T13:55:07.952</time>
      </trkpt>
      <trkpt lat="42.53073" lon="2.05945">
        <ele>1845.4667392418</ele>
        <time>2000-05-11T13:55:08.952</time>
      </trkpt>
      <trkpt lat="42.53071" lon="2.05946">
        <ele>1844.1733098941</ele>
        <time>2000-05-11T13:55:09.952</time>
      </trkpt>
      <trkpt lat="42.53071" lon="2.05947">
        <ele>1843.1027588896</ele>
        <time>2000-05-11T13:55:10.952</time>
      </trkpt>
      <trkpt lat="42.53071" lon="2.05947">
        <ele>1842.0207287475</ele>
        <time>2000-05-11T13:55:11.952</time>
      </trkpt>
      <trkpt lat="42.5307" lon="2.05949">
        <ele>1841.4066503815</ele>
        <time>2000-05-11T13:55:12.952</time>
      </trkpt>
      <trkpt lat="42.5307" lon="2.05951">
        <ele>1841.1535367088</ele>
        <time>2000-05-11T13:55:13.952</time>
      </trkpt>
      <trkpt lat="42.53069" lon="2.05952">
        <ele>1841.4347999115</ele>
        <time>2000-05-11T13:55:14.952</time>
      </trkpt>
      <trkpt lat="42.53069" lon="2.05954">
        <ele>1842.0084354624</ele>
        <time>2000-05-11T13:55:15.952</time>
      </trkpt>
      <trkpt lat="42.5307" lon="2.05958">
        <ele>1842.5442052789</ele>
        <time>2000-05-11T13:55:16.952</time>
      </trkpt>
      <trkpt lat="42.5307" lon="2.05959">
        <ele>1843.061871114</ele>
        <time>2000-05-11T13:55:17.952</time>
      </trkpt>
      <trkpt lat="42.53069" lon="2.0596">
        <ele>1843.2671533082</ele>
        <time>2000-05-11T13:55:18.952</time>
      </trkpt>
      <trkpt lat="42.53066" lon="2.0596">
        <ele>1842.7228492197</ele>
        <time>2000-05-11T13:55:19.952</time>
      </trkpt>
      <trkpt lat="42.53066" lon="2.0596">
        <ele>1841.899367173</ele>
        <time>2000-05-11T13:55:20.952</time>
      </trkpt>
      <trkpt lat="42.53066" lon="2.0596">
        <ele>1841.1137508608</ele>
        <time>2000-05-11T13:55:21.952</time>
      </trkpt>
      <trkpt lat="42.53066" lon="2.0596">
        <ele>1840.2485554269</ele>
        <time>2000-05-11T13:55:22.952</time>
      </trkpt>
      <trkpt lat="42.53065" lon="2.0596">
        <ele>1839.294754344</ele>
        <time>2000-05-11T13:55:23.953</time>
      </trkpt>
      <trkpt lat="42.53065" lon="2.05961">
        <ele>1838.9940548196</ele>
        <time>2000-05-11T13:55:24.953</time>
      </trkpt>
      <trkpt lat="42.53063" lon="2.05961">
        <ele>1838.2463156223</ele>
        <time>2000-05-11T13:55:25.953</time>
      </trkpt>
      <trkpt lat="42.53062" lon="2.05961">
        <ele>1837.3606992263</ele>
        <time>2000-05-11T13:55:26.953</time>
      </trkpt>
      <trkpt lat="42.53061" lon="2.0596">
        <ele>1836.3327661509</ele>
        <time>2000-05-11T13:55:27.953</time>
      </trkpt>
      <trkpt lat="42.5306" lon="2.05962">
        <ele>1836.3425809031</ele>
        <time>2000-05-11T13:55:28.953</time>
      </trkpt>
      <trkpt lat="42.5306" lon="2.05961">
        <ele>1836.4054581739</ele>
        <time>2000-05-11T13:55:29.953</time>
      </trkpt>
      <trkpt lat="42.53058" lon="2.0596">
        <ele>1836.6668771764</ele>
        <time>2000-05-11T13:55:30.953</time>
      </trkpt>
      <trkpt lat="42.53058" lon="2.0596">
        <ele>1837.0661733776</ele>
        <time>2000-05-11T13:55:31.953</time>
      </trkpt>
      <trkpt lat="42.53057" lon="2.05961">
        <ele>1837.1063263822</ele>
        <time>2000-05-11T13:55:32.953</time>
      </trkpt>
      <trkpt lat="42.53056" lon="2.05961">
        <ele>1836.2421595046</ele>
        <time>2000-05-11T13:55:33.953</time>
      </trkpt>
      <trkpt lat="42.53055" lon="2.05962">
        <ele>1835.2261486791</ele>
        <time>2000-05-11T13:55:34.953</time>
      </trkpt>
      <trkpt lat="42.53053" lon="2.05963">
        <ele>1834.4368993083</ele>
        <time>2000-05-11T13:55:35.953</time>
      </trkpt>
      <trkpt lat="42.53053" lon="2.05964">
        <ele>1833.6969112875</ele>
        <time>2000-05-11T13:55:36.953</time>
      </trkpt>
      <trkpt lat="42.53051" lon="2.05964">
        <ele>1834.0281475795</ele>
        <time>2000-05-11T13:55:37.953</time>
      </trkpt>
      <trkpt lat="42.5305" lon="2.05965">
        <ele>1834.40406655</ele>
        <time>2000-05-11T13:55:38.953</time>
      </trkpt>
      <trkpt lat="42.5305" lon="2.05967">
        <ele>1835.1355361763</ele>
        <time>2000-05-11T13:55:39.953</time>
      </trkpt>
      <trkpt lat="42.5305" lon="2.05967">
        <ele>1835.6751546815</ele>
        <time>2000-05-11T13:55:40.953</time>
      </trkpt>
      <trkpt lat="42.53048" lon="2.05966">
        <ele>1835.9068619674</ele>
        <time>2000-05-11T13:55:41.953</time>
      </trkpt>
      <trkpt lat="42.53047" lon="2.05967">
        <ele>1835.360391666</ele>
        <time>2000-05-11T13:55:42.953</time>
      </trkpt>
      <trkpt lat="42.53045" lon="2.05967">
        <ele>1834.4357167674</ele>
        <time>2000-05-11T13:55:43.953</time>
      </trkpt>
      <trkpt lat="42.53043" lon="2.05968">
        <ele>1832.7409420175</ele>
        <time>2000-05-11T13:55:44.953</time>
      </trkpt>
      <trkpt lat="42.53043" lon="2.05968">
        <ele>1831.861001523</ele>
        <time>2000-05-11T13:55:45.953</time>
      </trkpt>
      <trkpt lat="42.53042" lon="2.05969">
        <ele>1831.4410511591</ele>
        <time>2000-05-11T13:55:46.953</time>
      </trkpt>
      <trkpt lat="42.53042" lon="2.05972">
        <ele>1832.1972993597</ele>
        <time>2000-05-11T13:55:47.953</time>
      </trkpt>
      <trkpt lat="42.53041" lon="2.05974">
        <ele>1835.3077260438</ele>
        <time>2000-05-11T13:55:48.953</time>
      </trkpt>
      <trkpt lat="42.53041" lon="2.05974">
        <ele>1838.9517624285</ele>
        <time>2000-05-11T13:55:49.953</time>
      </trkpt>
      <trkpt lat="42.53039" lon="2.05975">
        <ele>1842.1083846286</ele>
        <time>2000-05-11T13:55:50.953</time>
      </trkpt>
      <trkpt lat="42.53037" lon="2.05975">
        <ele>1844.3628692985</ele>
        <time>2000-05-11T13:55:51.953</time>
      </trkpt>
      <trkpt lat="42.53037" lon="2.05976">
        <ele>1845.9669691332</ele>
        <time>2000-05-11T13:55:52.953</time>
      </trkpt>
      <trkpt lat="42.53037" lon="2.05976">
        <ele>1845.6974049063</ele>
        <time>2000-05-11T13:55:53.953</time>
      </trkpt>
      <trkpt lat="42.53035" lon="2.05977">
        <ele>1844.7943143826</ele>
        <time>2000-05-11T13:55:54.953</time>
      </trkpt>
      <trkpt lat="42.53035" lon="2.05977">
        <ele>1843.7773913957</ele>
        <time>2000-05-11T13:55:55.953</time>
      </trkpt>
      <trkpt lat="42.53034" lon="2.05977">
        <ele>1843.4927092653</ele>
        <time>2000-05-11T13:55:56.953</time>
      </trkpt>
      <trkpt lat="42.53033" lon="2.05977">
        <ele>1842.654987165</ele>
        <time>2000-05-11T13:55:57.953</time>
      </trkpt>
      <trkpt lat="42.53031" lon="2.05977">
        <ele>1841.1542444715</ele>
        <time>2000-05-11T13:55:58.953</time>
      </trkpt>
      <trkpt lat="42.53029" lon="2.05977">
        <ele>1840.168475554</ele>
        <time>2000-05-11T13:55:59.953</time>
      </trkpt>
      <trkpt lat="42.53029" lon="2.05977">
        <ele>1839.1827066364</ele>
        <time>2000-05-11T13:56:00.953</time>
      </trkpt>
      <trkpt lat="42.53028" lon="2.05978">
        <ele>1838.1797994411</ele>
        <time>2000-05-11T13:56:01.953</time>
      </trkpt>
      <trkpt lat="42.53028" lon="2.05979">
        <ele>1837.3672365304</ele>
        <time>2000-05-11T13:56:02.953</time>
      </trkpt>
      <trkpt lat="42.53029" lon="2.0598">
        <ele>1836.9763630759</ele>
        <time>2000-05-11T13:56:03.953</time>
      </trkpt>
      <trkpt lat="42.53029" lon="2.05982">
        <ele>1836.3438424801</ele>
        <time>2000-05-11T13:56:04.953</time>
      </trkpt>
      <trkpt lat="42.53029" lon="2.05982">
        <ele>1835.7113218844</ele>
        <time>2000-05-11T13:56:05.953</time>
      </trkpt>
      <trkpt lat="42.53029" lon="2.05985">
        <ele>1835.226878598</ele>
        <time>2000-05-11T13:56:06.953</time>
      </trkpt>
      <trkpt lat="42.53028" lon="2.05987">
        <ele>1834.734957999</ele>
        <time>2000-05-11T13:56:07.953</time>
      </trkpt>
      <trkpt lat="42.53028" lon="2.05989">
        <ele>1834.598492598</ele>
        <time>2000-05-11T13:56:08.953</time>
      </trkpt>
      <trkpt lat="42.53027" lon="2.05991">
        <ele>1835.1077168779</ele>
        <time>2000-05-11T13:56:09.953</time>
      </trkpt>
      <trkpt lat="42.53026" lon="2.05995">
        <ele>1835.9932280401</ele>
        <time>2000-05-11T13:56:10.953</time>
      </trkpt>
      <trkpt lat="42.53025" lon="2.05997">
        <ele>1837.0408129008</ele>
        <time>2000-05-11T13:56:11.953</time>
      </trkpt>
      <trkpt lat="42.53026" lon="2.05997">
        <ele>1838.1518312743</ele>
        <time>2000-05-11T13:56:12.953</time>
      </trkpt>
      <trkpt lat="42.53026" lon="2.05998">
        <ele>1839.1993034149</ele>
        <time>2000-05-11T13:56:13.953</time>
      </trkpt>
      <trkpt lat="42.53026" lon="2.05998">
        <ele>1839.9612855367</ele>
        <time>2000-05-11T13:56:14.953</time>
      </trkpt>
      <trkpt lat="42.53026" lon="2.05999">
        <ele>1840.1165857397</ele>
        <time>2000-05-11T13:56:15.953</time>
      </trkpt>
      <trkpt lat="42.53024" lon="2.06002">
        <ele>1840.0363041513</ele>
        <time>2000-05-11T13:56:16.953</time>
      </trkpt>
      <trkpt lat="42.53024" lon="2.06003">
        <ele>1839.6390138468</ele>
        <time>2000-05-11T13:56:17.953</time>
      </trkpt>
      <trkpt lat="42.53023" lon="2.06005">
        <ele>1839.4791101659</ele>
        <time>2000-05-11T13:56:18.945</time>
      </trkpt>
      <trkpt lat="42.53024" lon="2.06007">
        <ele>1839.8615423404</ele>
        <time>2000-05-11T13:56:19.945</time>
      </trkpt>
      <trkpt lat="42.53024" lon="2.06008">
        <ele>1840.2512025841</ele>
        <time>2000-05-11T13:56:20.945</time>
      </trkpt>
      <trkpt lat="42.53024" lon="2.0601">
        <ele>1840.8450224603</ele>
        <time>2000-05-11T13:56:21.945</time>
      </trkpt>
      <trkpt lat="42.53024" lon="2.06012">
        <ele>1842.1009099538</ele>
        <time>2000-05-11T13:56:22.945</time>
      </trkpt>
      <trkpt lat="42.53024" lon="2.06012">
        <ele>1843.0688329956</ele>
        <time>2000-05-11T13:56:23.945</time>
      </trkpt>
      <trkpt lat="42.53024" lon="2.06013">
        <ele>1843.7339076953</ele>
        <time>2000-05-11T13:56:24.945</time>
      </trkpt>
      <trkpt lat="42.53023" lon="2.06015">
        <ele>1844.5402651524</ele>
        <time>2000-05-11T13:56:25.945</time>
      </trkpt>
      <trkpt lat="42.53022" lon="2.06015">
        <ele>1845.1000926798</ele>
        <time>2000-05-11T13:56:26.945</time>
      </trkpt>
      <trkpt lat="42.53021" lon="2.06016">
        <ele>1845.3377178965</ele>
        <time>2000-05-11T13:56:27.945</time>
      </trkpt>
      <trkpt lat="42.53021" lon="2.06017">
        <ele>1845.603483939</ele>
        <time>2000-05-11T13:56:28.945</time>
      </trkpt>
      <trkpt lat="42.53021" lon="2.06017">
        <ele>1845.6297624681</ele>
        <time>2000-05-11T13:56:29.945</time>
      </trkpt>
      <trkpt lat="42.5302" lon="2.06019">
        <ele>1845.6431497455</ele>
        <time>2000-05-11T13:56:30.945</time>
      </trkpt>
      <trkpt lat="42.53018" lon="2.0602">
        <ele>1845.2584840875</ele>
        <time>2000-05-11T13:56:31.945</time>
      </trkpt>
      <trkpt lat="42.53018" lon="2.06021">
        <ele>1844.7944181029</ele>
        <time>2000-05-11T13:56:32.945</time>
      </trkpt>
      <trkpt lat="42.53017" lon="2.06023">
        <ele>1844.2439859105</ele>
        <time>2000-05-11T13:56:33.945</time>
      </trkpt>
      <trkpt lat="42.53017" lon="2.06024">
        <ele>1843.7031659015</ele>
        <time>2000-05-11T13:56:34.945</time>
      </trkpt>
      <trkpt lat="42.53017" lon="2.06025">
        <ele>1843.1178518835</ele>
        <time>2000-05-11T13:56:35.945</time>
      </trkpt>
      <trkpt lat="42.53017" lon="2.06025">
        <ele>1842.8840865718</ele>
        <time>2000-05-11T13:56:36.945</time>
      </trkpt>
      <trkpt lat="42.53016" lon="2.06025">
        <ele>1842.3625470892</ele>
        <time>2000-05-11T13:56:37.944</time>
      </trkpt>
      <trkpt lat="42.53014" lon="2.06026">
        <ele>1841.2084658897</ele>
        <time>2000-05-11T13:56:38.944</time>
      </trkpt>
      <trkpt lat="42.53013" lon="2.06027">
        <ele>1839.8526269222</ele>
        <time>2000-05-11T13:56:39.944</time>
      </trkpt>
      <trkpt lat="42.53013" lon="2.06029">
        <ele>1838.6165605517</ele>
        <time>2000-05-11T13:56:40.944</time>
      </trkpt>
      <trkpt lat="42.53012" lon="2.06029">
        <ele>1836.9689201223</ele>
        <time>2000-05-11T13:56:41.944</time>
      </trkpt>
      <trkpt lat="42.5301" lon="2.0603">
        <ele>1835.254096039</ele>
        <time>2000-05-11T13:56:42.944</time>
      </trkpt>
      <trkpt lat="42.5301" lon="2.0603">
        <ele>1834.2300390545</ele>
        <time>2000-05-11T13:56:43.944</time>
      </trkpt>
      <trkpt lat="42.53009" lon="2.06031">
        <ele>1833.4086960468</ele>
        <time>2000-05-11T13:56:44.944</time>
      </trkpt>
      <trkpt lat="42.53009" lon="2.06033">
        <ele>1832.9424873771</ele>
        <time>2000-05-11T13:56:45.944</time>
      </trkpt>
      <trkpt lat="42.53009" lon="2.06033">
        <ele>1832.8878527664</ele>
        <time>2000-05-11T13:56:46.944</time>
      </trkpt>
      <trkpt lat="42.53007" lon="2.06034">
        <ele>1832.9204771269</ele>
        <time>2000-05-11T13:56:47.944</time>
      </trkpt>
      <trkpt lat="42.53006" lon="2.06035">
        <ele>1832.7946089787</ele>
        <time>2000-05-11T13:56:48.944</time>
      </trkpt>
      <trkpt lat="42.53005" lon="2.06036">
        <ele>1832.82938511</ele>
        <time>2000-05-11T13:56:49.944</time>
      </trkpt>
      <trkpt lat="42.53005" lon="2.06038">
        <ele>1833.1342377145</ele>
        <time>2000-05-11T13:56:50.944</time>
      </trkpt>
      <trkpt lat="42.53005" lon="2.06038">
        <ele>1833.439090319</ele>
        <time>2000-05-11T13:56:51.944</time>
      </trkpt>
      <trkpt lat="42.53004" lon="2.06039">
        <ele>1833.8411612522</ele>
        <time>2000-05-11T13:56:52.944</time>
      </trkpt>
      <trkpt lat="42.53004" lon="2.06039">
        <ele>1834.3324290903</ele>
        <time>2000-05-11T13:56:53.944</time>
      </trkpt>
      <trkpt lat="42.53003" lon="2.0604">
        <ele>1834.646554466</ele>
        <time>2000-05-11T13:56:54.944</time>
      </trkpt>
      <trkpt lat="42.53002" lon="2.06041">
        <ele>1834.7088561723</ele>
        <time>2000-05-11T13:56:55.944</time>
      </trkpt>
      <trkpt lat="42.53001" lon="2.06042">
        <ele>1834.6407182559</ele>
        <time>2000-05-11T13:56:56.944</time>
      </trkpt>
      <trkpt lat="42.53001" lon="2.06042">
        <ele>1834.7889435066</ele>
        <time>2000-05-11T13:56:57.944</time>
      </trkpt>
      <trkpt lat="42.53" lon="2.06043">
        <ele>1834.8691290019</ele>
        <time>2000-05-11T13:56:58.944</time>
      </trkpt>
      <trkpt lat="42.52999" lon="2.06044">
        <ele>1834.7298332615</ele>
        <time>2000-05-11T13:56:59.944</time>
      </trkpt>
      <trkpt lat="42.52998" lon="2.06045">
        <ele>1834.1282274209</ele>
        <time>2000-05-11T13:57:00.944</time>
      </trkpt>
      <trkpt lat="42.52997" lon="2.06046">
        <ele>1833.626360712</ele>
        <time>2000-05-11T13:57:01.944</time>
      </trkpt>
      <trkpt lat="42.52996" lon="2.06048">
        <ele>1832.9558138389</ele>
        <time>2000-05-11T13:57:02.944</time>
      </trkpt>
      <trkpt lat="42.52995" lon="2.06049">
        <ele>1832.5590468781</ele>
        <time>2000-05-11T13:57:03.944</time>
      </trkpt>
      <trkpt lat="42.52995" lon="2.06049">
        <ele>1832.387690944</ele>
        <time>2000-05-11T13:57:04.944</time>
      </trkpt>
      <trkpt lat="42.52995" lon="2.06049">
        <ele>1832.536607758</ele>
        <time>2000-05-11T13:57:05.944</time>
      </trkpt>
      <trkpt lat="42.52994" lon="2.06049">
        <ele>1832.6984821459</ele>
        <time>2000-05-11T13:57:06.944</time>
      </trkpt>
      <trkpt lat="42.52994" lon="2.0605">
        <ele>1832.9640703155</ele>
        <time>2000-05-11T13:57:07.950</time>
      </trkpt>
      <trkpt lat="42.52993" lon="2.06051">
        <ele>1832.8285119748</ele>
        <time>2000-05-11T13:57:08.950</time>
      </trkpt>
      <trkpt lat="42.52992" lon="2.06053">
        <ele>1832.7524405651</ele>
        <time>2000-05-11T13:57:09.950</time>
      </trkpt>
      <trkpt lat="42.52992" lon="2.06053">
        <ele>1832.4645162394</ele>
        <time>2000-05-11T13:57:10.950</time>
      </trkpt>
      <trkpt lat="42.52991" lon="2.06053">
        <ele>1832.1448284831</ele>
        <time>2000-05-11T13:57:11.950</time>
      </trkpt>
      <trkpt lat="42.5299" lon="2.06056">
        <ele>1831.6171635566</ele>
        <time>2000-05-11T13:57:12.950</time>
      </trkpt>
      <trkpt lat="42.52989" lon="2.06058">
        <ele>1831.6836435856</ele>
        <time>2000-05-11T13:57:13.950</time>
      </trkpt>
      <trkpt lat="42.52989" lon="2.06059">
        <ele>1831.8227649761</ele>
        <time>2000-05-11T13:57:14.950</time>
      </trkpt>
      <trkpt lat="42.52989" lon="2.06061">
        <ele>1832.1303151688</ele>
        <time>2000-05-11T13:57:15.950</time>
      </trkpt>
      <trkpt lat="42.52988" lon="2.06062">
        <ele>1832.4421063533</ele>
        <time>2000-05-11T13:57:16.950</time>
      </trkpt>
      <trkpt lat="42.52987" lon="2.06062">
        <ele>1832.8393793955</ele>
        <time>2000-05-11T13:57:17.950</time>
      </trkpt>
      <trkpt lat="42.52987" lon="2.06064">
        <ele>1832.9116132397</ele>
        <time>2000-05-11T13:57:18.950</time>
      </trkpt>
      <trkpt lat="42.52986" lon="2.06065">
        <ele>1833.2093292225</ele>
        <time>2000-05-11T13:57:19.950</time>
      </trkpt>
      <trkpt lat="42.52986" lon="2.06066">
        <ele>1833.4902584601</ele>
        <time>2000-05-11T13:57:20.950</time>
      </trkpt>
      <trkpt lat="42.52985" lon="2.06067">
        <ele>1833.9731157647</ele>
        <time>2000-05-11T13:57:21.950</time>
      </trkpt>
      <trkpt lat="42.52985" lon="2.06067">
        <ele>1834.6434347644</ele>
        <time>2000-05-11T13:57:22.950</time>
      </trkpt>
      <trkpt lat="42.52985" lon="2.06068">
        <ele>1835.3294764603</ele>
        <time>2000-05-11T13:57:23.950</time>
      </trkpt>
      <trkpt lat="42.52984" lon="2.06069">
        <ele>1835.2442786956</ele>
        <time>2000-05-11T13:57:24.950</time>
      </trkpt>
      <trkpt lat="42.52983" lon="2.0607">
        <ele>1834.9969836781</ele>
        <time>2000-05-11T13:57:25.950</time>
      </trkpt>
      <trkpt lat="42.52982" lon="2.06072">
        <ele>1834.3753246827</ele>
        <time>2000-05-11T13:57:26.950</time>
      </trkpt>
      <trkpt lat="42.52981" lon="2.06073">
        <ele>1833.7919562811</ele>
        <time>2000-05-11T13:57:27.950</time>
      </trkpt>
      <trkpt lat="42.52981" lon="2.06074">
        <ele>1832.865934494</ele>
        <time>2000-05-11T13:57:28.950</time>
      </trkpt>
      <trkpt lat="42.5298" lon="2.06075">
        <ele>1832.367067546</ele>
        <time>2000-05-11T13:57:29.950</time>
      </trkpt>
      <trkpt lat="42.5298" lon="2.06075">
        <ele>1831.8786557941</ele>
        <time>2000-05-11T13:57:30.950</time>
      </trkpt>
      <trkpt lat="42.52978" lon="2.06075">
        <ele>1831.5646854265</ele>
        <time>2000-05-11T13:57:31.950</time>
      </trkpt>
      <trkpt lat="42.52977" lon="2.06076">
        <ele>1831.0765957739</ele>
        <time>2000-05-11T13:57:32.950</time>
      </trkpt>
      <trkpt lat="42.52977" lon="2.06077">
        <ele>1831.2353925837</ele>
        <time>2000-05-11T13:57:33.950</time>
      </trkpt>
      <trkpt lat="42.52977" lon="2.06078">
        <ele>1831.5772212546</ele>
        <time>2000-05-11T13:57:34.950</time>
      </trkpt>
      <trkpt lat="42.52977" lon="2.06079">
        <ele>1831.8748833992</ele>
        <time>2000-05-11T13:57:35.950</time>
      </trkpt>
      <trkpt lat="42.52977" lon="2.0608">
        <ele>1832.3137226803</ele>
        <time>2000-05-11T13:57:36.947</time>
      </trkpt>
      <trkpt lat="42.52976" lon="2.06081">
        <ele>1832.8544706693</ele>
        <time>2000-05-11T13:57:37.947</time>
      </trkpt>
      <trkpt lat="42.52975" lon="2.06082">
        <ele>1832.9069291484</ele>
        <time>2000-05-11T13:57:38.947</time>
      </trkpt>
      <trkpt lat="42.52975" lon="2.06083">
        <ele>1832.6249330232</ele>
        <time>2000-05-11T13:57:39.947</time>
      </trkpt>
      <trkpt lat="42.52975" lon="2.06084">
        <ele>1832.1905321337</ele>
        <time>2000-05-11T13:57:40.947</time>
      </trkpt>
      <trkpt lat="42.52974" lon="2.06086">
        <ele>1831.8962441614</ele>
        <time>2000-05-11T13:57:41.947</time>
      </trkpt>
      <trkpt lat="42.52974" lon="2.06088">
        <ele>1831.8428302219</ele>
        <time>2000-05-11T13:57:42.947</time>
      </trkpt>
      <trkpt lat="42.52974" lon="2.0609">
        <ele>1832.3426760832</ele>
        <time>2000-05-11T13:57:43.947</time>
      </trkpt>
      <trkpt lat="42.52974" lon="2.0609">
        <ele>1832.9804188777</ele>
        <time>2000-05-11T13:57:44.947</time>
      </trkpt>
      <trkpt lat="42.52974" lon="2.06091">
        <ele>1833.9418376151</ele>
        <time>2000-05-11T13:57:45.947</time>
      </trkpt>
      <trkpt lat="42.52975" lon="2.06093">
        <ele>1835.0547383908</ele>
        <time>2000-05-11T13:57:46.947</time>
      </trkpt>
      <trkpt lat="42.52974" lon="2.06093">
        <ele>1836.0785375187</ele>
        <time>2000-05-11T13:57:47.947</time>
      </trkpt>
      <trkpt lat="42.52974" lon="2.06094">
        <ele>1836.9208220134</ele>
        <time>2000-05-11T13:57:48.947</time>
      </trkpt>
      <trkpt lat="42.52974" lon="2.06094">
        <ele>1837.763106508</ele>
        <time>2000-05-11T13:57:49.947</time>
      </trkpt>
      <trkpt lat="42.52973" lon="2.06095">
        <ele>1838.6902113548</ele>
        <time>2000-05-11T13:57:50.947</time>
      </trkpt>
      <trkpt lat="42.52972" lon="2.06098">
        <ele>1839.4328871237</ele>
        <time>2000-05-11T13:57:51.947</time>
      </trkpt>
      <trkpt lat="42.52972" lon="2.06099">
        <ele>1840.2163321324</ele>
        <time>2000-05-11T13:57:52.947</time>
      </trkpt>
      <trkpt lat="42.52973" lon="2.06102">
        <ele>1840.792438801</ele>
        <time>2000-05-11T13:57:53.947</time>
      </trkpt>
      <trkpt lat="42.52973" lon="2.06103">
        <ele>1841.2610029202</ele>
        <time>2000-05-11T13:57:54.947</time>
      </trkpt>
      <trkpt lat="42.52972" lon="2.06105">
        <ele>1841.5041905938</ele>
        <time>2000-05-11T13:57:55.947</time>
      </trkpt>
      <trkpt lat="42.52971" lon="2.06106">
        <ele>1841.3656802621</ele>
        <time>2000-05-11T13:57:56.947</time>
      </trkpt>
      <trkpt lat="42.52972" lon="2.06108">
        <ele>1841.7333367959</ele>
        <time>2000-05-11T13:57:57.947</time>
      </trkpt>
      <trkpt lat="42.52971" lon="2.06109">
        <ele>1841.925688944</ele>
        <time>2000-05-11T13:57:58.947</time>
      </trkpt>
      <trkpt lat="42.5297" lon="2.06109">
        <ele>1842.0282656768</ele>
        <time>2000-05-11T13:57:59.947</time>
      </trkpt>
      <trkpt lat="42.5297" lon="2.0611">
        <ele>1841.9770194856</ele>
        <time>2000-05-11T13:58:00.947</time>
      </trkpt>
      <trkpt lat="42.5297" lon="2.0611">
        <ele>1842.1023881678</ele>
        <time>2000-05-11T13:58:01.947</time>
      </trkpt>
      <trkpt lat="42.5297" lon="2.06111">
        <ele>1841.7256135864</ele>
        <time>2000-05-11T13:58:02.947</time>
      </trkpt>
      <trkpt lat="42.52971" lon="2.06113">
        <ele>1841.7141293842</ele>
        <time>2000-05-11T13:58:03.947</time>
      </trkpt>
      <trkpt lat="42.5297" lon="2.06114">
        <ele>1842.1305424884</ele>
        <time>2000-05-11T13:58:04.947</time>
      </trkpt>
      <trkpt lat="42.5297" lon="2.06116">
        <ele>1842.7903402688</ele>
        <time>2000-05-11T13:58:05.947</time>
      </trkpt>
      <trkpt lat="42.5297" lon="2.06116">
        <ele>1843.3477588058</ele>
        <time>2000-05-11T13:58:06.947</time>
      </trkpt>
      <trkpt lat="42.52969" lon="2.06118">
        <ele>1843.6351389783</ele>
        <time>2000-05-11T13:58:07.947</time>
      </trkpt>
      <trkpt lat="42.52968" lon="2.06119">
        <ele>1843.5878018226</ele>
        <time>2000-05-11T13:58:08.947</time>
      </trkpt>
      <trkpt lat="42.52967" lon="2.06122">
        <ele>1843.353748166</ele>
        <time>2000-05-11T13:58:09.947</time>
      </trkpt>
      <trkpt lat="42.52967" lon="2.06123">
        <ele>1843.0815990893</ele>
        <time>2000-05-11T13:58:10.947</time>
      </trkpt>
      <trkpt lat="42.52967" lon="2.06123">
        <ele>1842.9118292561</ele>
        <time>2000-05-11T13:58:11.947</time>
      </trkpt>
      <trkpt lat="42.52967" lon="2.06123">
        <ele>1842.8494525438</ele>
        <time>2000-05-11T13:58:12.947</time>
      </trkpt>
      <trkpt lat="42.52966" lon="2.06123">
        <ele>1842.6179304697</ele>
        <time>2000-05-11T13:58:13.944</time>
      </trkpt>
      <trkpt lat="42.52965" lon="2.06124">
        <ele>1842.4162065629</ele>
        <time>2000-05-11T13:58:14.944</time>
      </trkpt>
      <trkpt lat="42.52963" lon="2.06124">
        <ele>1841.7616715388</ele>
        <time>2000-05-11T13:58:15.944</time>
      </trkpt>
      <trkpt lat="42.52962" lon="2.06124">
        <ele>1841.4796582483</ele>
        <time>2000-05-11T13:58:16.944</time>
      </trkpt>
      <trkpt lat="42.52961" lon="2.06123">
        <ele>1840.9734882517</ele>
        <time>2000-05-11T13:58:17.944</time>
      </trkpt>
      <trkpt lat="42.52961" lon="2.06123">
        <ele>1840.7807180608</ele>
        <time>2000-05-11T13:58:18.944</time>
      </trkpt>
      <trkpt lat="42.52961" lon="2.06123">
        <ele>1840.5142868619</ele>
        <time>2000-05-11T13:58:19.944</time>
      </trkpt>
      <trkpt lat="42.52962" lon="2.06125">
        <ele>1840.6827525215</ele>
        <time>2000-05-11T13:58:20.945</time>
      </trkpt>
      <trkpt lat="42.52963" lon="2.06126">
        <ele>1840.8577542424</ele>
        <time>2000-05-11T13:58:21.945</time>
      </trkpt>
      <trkpt lat="42.52963" lon="2.06127">
        <ele>1841.4347144417</ele>
        <time>2000-05-11T13:58:22.945</time>
      </trkpt>
      <trkpt lat="42.52962" lon="2.06128">
        <ele>1842.1800691424</ele>
        <time>2000-05-11T13:58:23.945</time>
      </trkpt>
      <trkpt lat="42.52962" lon="2.0613">
        <ele>1843.1603895647</ele>
        <time>2000-05-11T13:58:24.945</time>
      </trkpt>
      <trkpt lat="42.52961" lon="2.06131">
        <ele>1843.8055261752</ele>
        <time>2000-05-11T13:58:25.946</time>
      </trkpt>
      <trkpt lat="42.52961" lon="2.06132">
        <ele>1843.7446198152</ele>
        <time>2000-05-11T13:58:26.946</time>
      </trkpt>
      <trkpt lat="42.5296" lon="2.06133">
        <ele>1843.4786772557</ele>
        <time>2000-05-11T13:58:27.946</time>
      </trkpt>
      <trkpt lat="42.5296" lon="2.06134">
        <ele>1843.0818825413</ele>
        <time>2000-05-11T13:58:28.946</time>
      </trkpt>
      <trkpt lat="42.5296" lon="2.06134">
        <ele>1842.4501221051</ele>
        <time>2000-05-11T13:58:29.946</time>
      </trkpt>
      <trkpt lat="42.52958" lon="2.06135">
        <ele>1842.138014926</ele>
        <time>2000-05-11T13:58:30.946</time>
      </trkpt>
      <trkpt lat="42.52957" lon="2.06136">
        <ele>1842.1161494182</ele>
        <time>2000-05-11T13:58:31.946</time>
      </trkpt>
      <trkpt lat="42.52955" lon="2.06137">
        <ele>1841.8592688121</ele>
        <time>2000-05-11T13:58:32.946</time>
      </trkpt>
      <trkpt lat="42.52955" lon="2.06137">
        <ele>1841.5648458594</ele>
        <time>2000-05-11T13:58:33.946</time>
      </trkpt>
      <trkpt lat="42.52955" lon="2.06137">
        <ele>1841.2704229068</ele>
        <time>2000-05-11T13:58:34.946</time>
      </trkpt>
      <trkpt lat="42.52956" lon="2.06138">
        <ele>1841.3737268837</ele>
        <time>2000-05-11T13:58:35.947</time>
      </trkpt>
      <trkpt lat="42.52958" lon="2.06138">
        <ele>1842.0640172519</ele>
        <time>2000-05-11T13:58:36.947</time>
      </trkpt>
      <trkpt lat="42.52958" lon="2.06138">
        <ele>1843.0165571457</ele>
        <time>2000-05-11T13:58:37.947</time>
      </trkpt>
      <trkpt lat="42.52957" lon="2.06139">
        <ele>1843.8157110276</ele>
        <time>2000-05-11T13:58:38.947</time>
      </trkpt>
      <trkpt lat="42.52956" lon="2.0614">
        <ele>1844.8059970111</ele>
        <time>2000-05-11T13:58:39.947</time>
      </trkpt>
      <trkpt lat="42.52956" lon="2.06141">
        <ele>1845.4142238716</ele>
        <time>2000-05-11T13:58:40.947</time>
      </trkpt>
      <trkpt lat="42.52955" lon="2.06142">
        <ele>1845.5847490704</ele>
        <time>2000-05-11T13:58:41.947</time>
      </trkpt>
      <trkpt lat="42.52954" lon="2.06143">
        <ele>1845.7673712285</ele>
        <time>2000-05-11T13:58:42.947</time>
      </trkpt>
      <trkpt lat="42.52954" lon="2.06144">
        <ele>1846.1785298374</ele>
        <time>2000-05-11T13:58:43.947</time>
      </trkpt>
      <trkpt lat="42.52952" lon="2.06145">
        <ele>1846.3902654136</ele>
        <time>2000-05-11T13:58:44.947</time>
      </trkpt>
      <trkpt lat="42.52952" lon="2.06146">
        <ele>1846.3961637165</ele>
        <time>2000-05-11T13:58:45.947</time>
      </trkpt>
      <trkpt lat="42.52951" lon="2.06147">
        <ele>1846.4586486151</ele>
        <time>2000-05-11T13:58:46.947</time>
      </trkpt>
      <trkpt lat="42.52951" lon="2.06147">
        <ele>1846.5090365544</ele>
        <time>2000-05-11T13:58:47.947</time>
      </trkpt>
      <trkpt lat="42.52952" lon="2.06148">
        <ele>1846.8146711847</ele>
        <time>2000-05-11T13:58:48.947</time>
      </trkpt>
      <trkpt lat="42.52952" lon="2.06149">
        <ele>1847.3267962568</ele>
        <time>2000-05-11T13:58:49.947</time>
      </trkpt>
      <trkpt lat="42.52952" lon="2.06151">
        <ele>1848.3618775604</ele>
        <time>2000-05-11T13:58:50.947</time>
      </trkpt>
      <trkpt lat="42.52951" lon="2.06152">
        <ele>1849.3955741337</ele>
        <time>2000-05-11T13:58:51.947</time>
      </trkpt>
      <trkpt lat="42.52949" lon="2.06153">
        <ele>1850.1787410088</ele>
        <time>2000-05-11T13:58:52.947</time>
      </trkpt>
      <trkpt lat="42.52948" lon="2.06153">
        <ele>1850.6590276321</ele>
        <time>2000-05-11T13:58:53.947</time>
      </trkpt>
      <trkpt lat="42.52947" lon="2.06153">
        <ele>1850.599709912</ele>
        <time>2000-05-11T13:58:54.947</time>
      </trkpt>
      <trkpt lat="42.52947" lon="2.06153">
        <ele>1850.2030353498</ele>
        <time>2000-05-11T13:58:55.947</time>
      </trkpt>
      <trkpt lat="42.52947" lon="2.06153">
        <ele>1849.638617697</ele>
        <time>2000-05-11T13:58:56.947</time>
      </trkpt>
      <trkpt lat="42.52946" lon="2.06155">
        <ele>1849.4203229053</ele>
        <time>2000-05-11T13:58:57.947</time>
      </trkpt>
      <trkpt lat="42.52945" lon="2.06156">
        <ele>1849.0433652543</ele>
        <time>2000-05-11T13:58:58.947</time>
      </trkpt>
      <trkpt lat="42.52945" lon="2.06157">
        <ele>1849.0283801254</ele>
        <time>2000-05-11T13:58:59.947</time>
      </trkpt>
      <trkpt lat="42.52945" lon="2.06159">
        <ele>1849.2430279976</ele>
        <time>2000-05-11T13:59:00.947</time>
      </trkpt>
      <trkpt lat="42.52946" lon="2.0616">
        <ele>1849.5277918208</ele>
        <time>2000-05-11T13:59:01.947</time>
      </trkpt>
      <trkpt lat="42.52945" lon="2.06161">
        <ele>1849.4100062594</ele>
        <time>2000-05-11T13:59:02.947</time>
      </trkpt>
      <trkpt lat="42.52945" lon="2.06161">
        <ele>1849.4233666793</ele>
        <time>2000-05-11T13:59:03.947</time>
      </trkpt>
      <trkpt lat="42.52945" lon="2.06161">
        <ele>1849.4161594097</ele>
        <time>2000-05-11T13:59:04.947</time>
      </trkpt>
      <trkpt lat="42.52943" lon="2.06163">
        <ele>1848.5716695352</ele>
        <time>2000-05-11T13:59:05.946</time>
      </trkpt>
      <trkpt lat="42.52944" lon="2.06163">
        <ele>1847.9816972407</ele>
        <time>2000-05-11T13:59:06.946</time>
      </trkpt>
      <trkpt lat="42.52943" lon="2.06164">
        <ele>1847.5745245693</ele>
        <time>2000-05-11T13:59:07.946</time>
      </trkpt>
      <trkpt lat="42.52943" lon="2.06165">
        <ele>1847.0832794087</ele>
        <time>2000-05-11T13:59:08.946</time>
      </trkpt>
      <trkpt lat="42.52942" lon="2.06166">
        <ele>1846.5060718657</ele>
        <time>2000-05-11T13:59:09.948</time>
      </trkpt>
      <trkpt lat="42.52941" lon="2.06167">
        <ele>1846.3320606889</ele>
        <time>2000-05-11T13:59:10.948</time>
      </trkpt>
      <trkpt lat="42.52939" lon="2.06168">
        <ele>1845.2188434271</ele>
        <time>2000-05-11T13:59:11.948</time>
      </trkpt>
      <trkpt lat="42.52937" lon="2.06168">
        <ele>1843.6400599601</ele>
        <time>2000-05-11T13:59:12.948</time>
      </trkpt>
      <trkpt lat="42.52935" lon="2.06168">
        <ele>1841.3850059645</ele>
        <time>2000-05-11T13:59:13.948</time>
      </trkpt>
      <trkpt lat="42.52932" lon="2.06167">
        <ele>1838.7022015227</ele>
        <time>2000-05-11T13:59:14.948</time>
      </trkpt>
      <trkpt lat="42.52931" lon="2.06166">
        <ele>1835.968052334</ele>
        <time>2000-05-11T13:59:15.948</time>
      </trkpt>
      <trkpt lat="42.52931" lon="2.06166">
        <ele>1833.8484756991</ele>
        <time>2000-05-11T13:59:16.948</time>
      </trkpt>
      <trkpt lat="42.52931" lon="2.06167">
        <ele>1832.666519632</ele>
        <time>2000-05-11T13:59:17.948</time>
      </trkpt>
      <trkpt lat="42.52931" lon="2.06167">
        <ele>1832.2449065827</ele>
        <time>2000-05-11T13:59:18.948</time>
      </trkpt>
      <trkpt lat="42.52931" lon="2.06168">
        <ele>1832.5071041899</ele>
        <time>2000-05-11T13:59:19.947</time>
      </trkpt>
      <trkpt lat="42.5293" lon="2.0617">
        <ele>1833.3041828942</ele>
        <time>2000-05-11T13:59:20.947</time>
      </trkpt>
      <trkpt lat="42.5293" lon="2.06171">
        <ele>1834.5028880406</ele>
        <time>2000-05-11T13:59:21.947</time>
      </trkpt>
      <trkpt lat="42.5293" lon="2.06173">
        <ele>1835.6959339943</ele>
        <time>2000-05-11T13:59:22.947</time>
      </trkpt>
      <trkpt lat="42.5293" lon="2.06173">
        <ele>1836.8889799479</ele>
        <time>2000-05-11T13:59:23.947</time>
      </trkpt>
      <trkpt lat="42.52929" lon="2.06174">
        <ele>1838.1459076757</ele>
        <time>2000-05-11T13:59:24.946</time>
      </trkpt>
      <trkpt lat="42.52929" lon="2.06175">
        <ele>1839.5589140916</ele>
        <time>2000-05-11T13:59:25.946</time>
      </trkpt>
      <trkpt lat="42.52928" lon="2.06177">
        <ele>1840.8563281449</ele>
        <time>2000-05-11T13:59:26.945</time>
      </trkpt>
      <trkpt lat="42.52927" lon="2.06178">
        <ele>1842.2150326019</ele>
        <time>2000-05-11T13:59:27.945</time>
      </trkpt>
      <trkpt lat="42.52927" lon="2.0618">
        <ele>1843.9120237201</ele>
        <time>2000-05-11T13:59:28.945</time>
      </trkpt>
      <trkpt lat="42.52926" lon="2.06181">
        <ele>1845.7380789125</ele>
        <time>2000-05-11T13:59:29.945</time>
      </trkpt>
      <trkpt lat="42.52926" lon="2.06181">
        <ele>1847.1289723042</ele>
        <time>2000-05-11T13:59:30.945</time>
      </trkpt>
      <trkpt lat="42.52927" lon="2.06182">
        <ele>1848.5533190776</ele>
        <time>2000-05-11T13:59:31.945</time>
      </trkpt>
      <trkpt lat="42.52926" lon="2.06183">
        <ele>1849.4426835466</ele>
        <time>2000-05-11T13:59:32.945</time>
      </trkpt>
      <trkpt lat="42.52927" lon="2.06184">
        <ele>1849.9800512685</ele>
        <time>2000-05-11T13:59:33.945</time>
      </trkpt>
      <trkpt lat="42.52925" lon="2.06185">
        <ele>1850.1263186999</ele>
        <time>2000-05-11T13:59:34.945</time>
      </trkpt>
      <trkpt lat="42.52924" lon="2.06185">
        <ele>1850.1252976825</ele>
        <time>2000-05-11T13:59:35.945</time>
      </trkpt>
      <trkpt lat="42.52924" lon="2.06185">
        <ele>1849.8047892042</ele>
        <time>2000-05-11T13:59:36.945</time>
      </trkpt>
      <trkpt lat="42.52923" lon="2.06185">
        <ele>1849.37850642</ele>
        <time>2000-05-11T13:59:37.940</time>
      </trkpt>
      <trkpt lat="42.52922" lon="2.06186">
        <ele>1849.0705364268</ele>
        <time>2000-05-11T13:59:38.940</time>
      </trkpt>
      <trkpt lat="42.52921" lon="2.06186">
        <ele>1848.75461687</ele>
        <time>2000-05-11T13:59:39.940</time>
      </trkpt>
      <trkpt lat="42.5292" lon="2.06186">
        <ele>1848.3639554406</ele>
        <time>2000-05-11T13:59:40.940</time>
      </trkpt>
      <trkpt lat="42.5292" lon="2.06186">
        <ele>1847.9732940111</ele>
        <time>2000-05-11T13:59:41.940</time>
      </trkpt>
      <trkpt lat="42.52918" lon="2.06187">
        <ele>1847.9119705955</ele>
        <time>2000-05-11T13:59:42.940</time>
      </trkpt>
      <trkpt lat="42.52916" lon="2.06188">
        <ele>1847.7310547762</ele>
        <time>2000-05-11T13:59:43.940</time>
      </trkpt>
      <trkpt lat="42.52915" lon="2.06188">
        <ele>1847.5641725656</ele>
        <time>2000-05-11T13:59:44.940</time>
      </trkpt>
      <trkpt lat="42.52914" lon="2.06188">
        <ele>1847.8910548743</ele>
        <time>2000-05-11T13:59:45.940</time>
      </trkpt>
      <trkpt lat="42.52914" lon="2.06188">
        <ele>1848.3159634421</ele>
        <time>2000-05-11T13:59:46.940</time>
      </trkpt>
      <trkpt lat="42.52913" lon="2.06187">
        <ele>1848.5182877524</ele>
        <time>2000-05-11T13:59:47.940</time>
      </trkpt>
      <trkpt lat="42.52912" lon="2.06187">
        <ele>1848.7064351255</ele>
        <time>2000-05-11T13:59:48.940</time>
      </trkpt>
      <trkpt lat="42.5291" lon="2.06187">
        <ele>1848.5968286173</ele>
        <time>2000-05-11T13:59:49.942</time>
      </trkpt>
      <trkpt lat="42.52909" lon="2.06188">
        <ele>1848.1742930125</ele>
        <time>2000-05-11T13:59:50.942</time>
      </trkpt>
      <trkpt lat="42.52907" lon="2.06188">
        <ele>1847.5709406797</ele>
        <time>2000-05-11T13:59:51.942</time>
      </trkpt>
      <trkpt lat="42.52906" lon="2.06188">
        <ele>1847.2486701405</ele>
        <time>2000-05-11T13:59:52.942</time>
      </trkpt>
      <trkpt lat="42.52905" lon="2.06187">
        <ele>1846.9155103134</ele>
        <time>2000-05-11T13:59:53.942</time>
      </trkpt>
      <trkpt lat="42.52905" lon="2.06187">
        <ele>1846.9020769369</ele>
        <time>2000-05-11T13:59:54.942</time>
      </trkpt>
      <trkpt lat="42.52904" lon="2.06186">
        <ele>1846.6630889874</ele>
        <time>2000-05-11T13:59:55.941</time>
      </trkpt>
      <trkpt lat="42.52904" lon="2.06186">
        <ele>1846.5068915069</ele>
        <time>2000-05-11T13:59:56.941</time>
      </trkpt>
      <trkpt lat="42.52902" lon="2.06187">
        <ele>1845.6599391678</ele>
        <time>2000-05-11T13:59:57.941</time>
      </trkpt>
      <trkpt lat="42.52902" lon="2.06187">
        <ele>1844.8530427525</ele>
        <time>2000-05-11T13:59:58.941</time>
      </trkpt>
      <trkpt lat="42.52903" lon="2.06183">
        <ele>1844.351183448</ele>
        <time>2000-05-11T13:59:59.941</time>
      </trkpt>
      <trkpt lat="42.52903" lon="2.06183">
        <ele>1844.1160736151</ele>
        <time>2000-05-11T14:00:00.941</time>
      </trkpt>
      <trkpt lat="42.52902" lon="2.06182">
        <ele>1843.769568594</ele>
        <time>2000-05-11T14:00:01.941</time>
      </trkpt>
      <trkpt lat="42.52901" lon="2.06181">
        <ele>1843.8363491219</ele>
        <time>2000-05-11T14:00:02.941</time>
      </trkpt>
      <trkpt lat="42.529" lon="2.06181">
        <ele>1843.763222459</ele>
        <time>2000-05-11T14:00:03.941</time>
      </trkpt>
      <trkpt lat="42.52898" lon="2.0618">
        <ele>1843.1678450594</ele>
        <time>2000-05-11T14:00:04.941</time>
      </trkpt>
      <trkpt lat="42.52897" lon="2.06179">
        <ele>1842.2899132112</ele>
        <time>2000-05-11T14:00:05.941</time>
      </trkpt>
      <trkpt lat="42.52896" lon="2.06178">
        <ele>1841.1983523922</ele>
        <time>2000-05-11T14:00:06.941</time>
      </trkpt>
      <trkpt lat="42.52895" lon="2.06177">
        <ele>1840.0041206868</ele>
        <time>2000-05-11T14:00:07.941</time>
      </trkpt>
      <trkpt lat="42.52894" lon="2.06177">
        <ele>1838.703347867</ele>
        <time>2000-05-11T14:00:08.941</time>
      </trkpt>
      <trkpt lat="42.52894" lon="2.06177">
        <ele>1837.619788673</ele>
        <time>2000-05-11T14:00:09.941</time>
      </trkpt>
      <trkpt lat="42.52894" lon="2.06177">
        <ele>1836.8187839275</ele>
        <time>2000-05-11T14:00:10.941</time>
      </trkpt>
      <trkpt lat="42.52891" lon="2.06175">
        <ele>1835.677152436</ele>
        <time>2000-05-11T14:00:11.940</time>
      </trkpt>
      <trkpt lat="42.52891" lon="2.06175">
        <ele>1834.7650532257</ele>
        <time>2000-05-11T14:00:12.940</time>
      </trkpt>
      <trkpt lat="42.52888" lon="2.06176">
        <ele>1833.8841315228</ele>
        <time>2000-05-11T14:00:13.943</time>
      </trkpt>
      <trkpt lat="42.52887" lon="2.06176">
        <ele>1833.2230151072</ele>
        <time>2000-05-11T14:00:14.943</time>
      </trkpt>
      <trkpt lat="42.52886" lon="2.06177">
        <ele>1832.8705738153</ele>
        <time>2000-05-11T14:00:15.943</time>
      </trkpt>
      <trkpt lat="42.52885" lon="2.06176">
        <ele>1832.7955547344</ele>
        <time>2000-05-11T14:00:16.943</time>
      </trkpt>
      <trkpt lat="42.52882" lon="2.06178">
        <ele>1832.9732485097</ele>
        <time>2000-05-11T14:00:17.943</time>
      </trkpt>
      <trkpt lat="42.52882" lon="2.06178">
        <ele>1833.5034782834</ele>
        <time>2000-05-11T14:00:18.943</time>
      </trkpt>
      <trkpt lat="42.52881" lon="2.06177">
        <ele>1834.4682116859</ele>
        <time>2000-05-11T14:00:19.943</time>
      </trkpt>
      <trkpt lat="42.52881" lon="2.06177">
        <ele>1834.4086742522</ele>
        <time>2000-05-11T14:00:20.943</time>
      </trkpt>
      <trkpt lat="42.52879" lon="2.06179">
        <ele>1835.0850038823</ele>
        <time>2000-05-11T14:00:21.943</time>
      </trkpt>
      <trkpt lat="42.52878" lon="2.0618">
        <ele>1835.9193541195</ele>
        <time>2000-05-11T14:00:22.943</time>
      </trkpt>
      <trkpt lat="42.52876" lon="2.0618">
        <ele>1837.0680128686</ele>
        <time>2000-05-11T14:00:23.943</time>
      </trkpt>
      <trkpt lat="42.52876" lon="2.0618">
        <ele>1837.5623627018</ele>
        <time>2000-05-11T14:00:24.943</time>
      </trkpt>
      <trkpt lat="42.52876" lon="2.0618">
        <ele>1838.7723082474</ele>
        <time>2000-05-11T14:00:25.943</time>
      </trkpt>
      <trkpt lat="42.52875" lon="2.06179">
        <ele>1839.4874803105</ele>
        <time>2000-05-11T14:00:26.943</time>
      </trkpt>
      <trkpt lat="42.52874" lon="2.06179">
        <ele>1839.4413789395</ele>
        <time>2000-05-11T14:00:27.943</time>
      </trkpt>
      <trkpt lat="42.52872" lon="2.0618">
        <ele>1839.5660398051</ele>
        <time>2000-05-11T14:00:28.943</time>
      </trkpt>
      <trkpt lat="42.52871" lon="2.06179">
        <ele>1840.0010892693</ele>
        <time>2000-05-11T14:00:29.943</time>
      </trkpt>
      <trkpt lat="42.52871" lon="2.06178">
        <ele>1840.9407908507</ele>
        <time>2000-05-11T14:00:30.943</time>
      </trkpt>
      <trkpt lat="42.5287" lon="2.06177">
        <ele>1841.9618192857</ele>
        <time>2000-05-11T14:00:31.943</time>
      </trkpt>
      <trkpt lat="42.52869" lon="2.06176">
        <ele>1843.1851950895</ele>
        <time>2000-05-11T14:00:32.943</time>
      </trkpt>
      <trkpt lat="42.52869" lon="2.06176">
        <ele>1843.7862349441</ele>
        <time>2000-05-11T14:00:33.943</time>
      </trkpt>
      <trkpt lat="42.52868" lon="2.06175">
        <ele>1844.3146305909</ele>
        <time>2000-05-11T14:00:34.943</time>
      </trkpt>
      <trkpt lat="42.52866" lon="2.06175">
        <ele>1844.3359977337</ele>
        <time>2000-05-11T14:00:35.943</time>
      </trkpt>
      <trkpt lat="42.52865" lon="2.06175">
        <ele>1844.6026271138</ele>
        <time>2000-05-11T14:00:36.943</time>
      </trkpt>
      <trkpt lat="42.52864" lon="2.06174">
        <ele>1845.1311535569</ele>
        <time>2000-05-11T14:00:37.943</time>
      </trkpt>
      <trkpt lat="42.52863" lon="2.06175">
        <ele>1846.1760119222</ele>
        <time>2000-05-11T14:00:38.943</time>
      </trkpt>
      <trkpt lat="42.52862" lon="2.06174">
        <ele>1847.5117647262</ele>
        <time>2000-05-11T14:00:39.942</time>
      </trkpt>
      <trkpt lat="42.52861" lon="2.06176">
        <ele>1848.9723206744</ele>
        <time>2000-05-11T14:00:40.942</time>
      </trkpt>
      <trkpt lat="42.52859" lon="2.06176">
        <ele>1850.4713186771</ele>
        <time>2000-05-11T14:00:41.942</time>
      </trkpt>
      <trkpt lat="42.52857" lon="2.06176">
        <ele>1851.7562890368</ele>
        <time>2000-05-11T14:00:42.942</time>
      </trkpt>
      <trkpt lat="42.52853" lon="2.06175">
        <ele>1852.427498115</ele>
        <time>2000-05-11T14:00:43.942</time>
      </trkpt>
      <trkpt lat="42.52852" lon="2.06175">
        <ele>1852.6401277605</ele>
        <time>2000-05-11T14:00:44.942</time>
      </trkpt>
      <trkpt lat="42.52852" lon="2.06175">
        <ele>1852.7303306488</ele>
        <time>2000-05-11T14:00:45.942</time>
      </trkpt>
      <trkpt lat="42.52851" lon="2.06176">
        <ele>1852.868447764</ele>
        <time>2000-05-11T14:00:46.942</time>
      </trkpt>
      <trkpt lat="42.52852" lon="2.06176">
        <ele>1853.7671158239</ele>
        <time>2000-05-11T14:00:47.942</time>
      </trkpt>
      <trkpt lat="42.52852" lon="2.06176">
        <ele>1854.763213243</ele>
        <time>2000-05-11T14:00:48.942</time>
      </trkpt>
      <trkpt lat="42.52853" lon="2.06177">
        <ele>1855.8841360912</ele>
        <time>2000-05-11T14:00:49.939</time>
      </trkpt>
      <trkpt lat="42.52853" lon="2.06176">
        <ele>1856.8786441369</ele>
        <time>2000-05-11T14:00:50.939</time>
      </trkpt>
      <trkpt lat="42.52852" lon="2.06175">
        <ele>1857.0357084572</ele>
        <time>2000-05-11T14:00:51.939</time>
      </trkpt>
      <trkpt lat="42.52851" lon="2.06175">
        <ele>1856.2083747823</ele>
        <time>2000-05-11T14:00:52.939</time>
      </trkpt>
      <trkpt lat="42.52851" lon="2.06175">
        <ele>1855.3810411073</ele>
        <time>2000-05-11T14:00:53.939</time>
      </trkpt>
      <trkpt lat="42.5285" lon="2.06174">
        <ele>1853.9986596936</ele>
        <time>2000-05-11T14:00:54.941</time>
      </trkpt>
      <trkpt lat="42.52849" lon="2.06174">
        <ele>1852.5542305255</ele>
        <time>2000-05-11T14:00:55.941</time>
      </trkpt>
      <trkpt lat="42.52848" lon="2.06173">
        <ele>1851.6573634166</ele>
        <time>2000-05-11T14:00:56.941</time>
      </trkpt>
      <trkpt lat="42.52848" lon="2.06173">
        <ele>1851.0846665405</ele>
        <time>2000-05-11T14:00:57.941</time>
      </trkpt>
      <trkpt lat="42.52847" lon="2.06173">
        <ele>1850.3690828208</ele>
        <time>2000-05-11T14:00:58.941</time>
      </trkpt>
      <trkpt lat="42.52846" lon="2.06174">
        <ele>1849.9489766859</ele>
        <time>2000-05-11T14:00:59.941</time>
      </trkpt>
      <trkpt lat="42.52845" lon="2.06175">
        <ele>1849.7213213546</ele>
        <time>2000-05-11T14:01:00.941</time>
      </trkpt>
      <trkpt lat="42.52844" lon="2.06176">
        <ele>1848.9343433933</ele>
        <time>2000-05-11T14:01:01.941</time>
      </trkpt>
      <trkpt lat="42.52844" lon="2.06176">
        <ele>1848.147365432</ele>
        <time>2000-05-11T14:01:02.941</time>
      </trkpt>
      <trkpt lat="42.52843" lon="2.06176">
        <ele>1847.6014162274</ele>
        <time>2000-05-11T14:01:03.938</time>
      </trkpt>
      <trkpt lat="42.52842" lon="2.06177">
        <ele>1847.4967788961</ele>
        <time>2000-05-11T14:01:04.938</time>
      </trkpt>
      <trkpt lat="42.52842" lon="2.06179">
        <ele>1848.0858917091</ele>
        <time>2000-05-11T14:01:05.938</time>
      </trkpt>
      <trkpt lat="42.5284" lon="2.0618">
        <ele>1849.2315216159</ele>
        <time>2000-05-11T14:01:06.935</time>
      </trkpt>
      <trkpt lat="42.52839" lon="2.06181">
        <ele>1850.3948117744</ele>
        <time>2000-05-11T14:01:07.935</time>
      </trkpt>
      <trkpt lat="42.52838" lon="2.06182">
        <ele>1851.4441927506</ele>
        <time>2000-05-11T14:01:08.935</time>
      </trkpt>
      <trkpt lat="42.52837" lon="2.06183">
        <ele>1852.270264698</ele>
        <time>2000-05-11T14:01:09.935</time>
      </trkpt>
      <trkpt lat="42.52835" lon="2.06182">
        <ele>1852.1912573367</ele>
        <time>2000-05-11T14:01:10.935</time>
      </trkpt>
      <trkpt lat="42.52834" lon="2.06182">
        <ele>1852.1574475782</ele>
        <time>2000-05-11T14:01:11.935</time>
      </trkpt>
      <trkpt lat="42.52834" lon="2.06182">
        <ele>1852.105977568</ele>
        <time>2000-05-11T14:01:12.935</time>
      </trkpt>
      <trkpt lat="42.52834" lon="2.06182">
        <ele>1852.0702748271</ele>
        <time>2000-05-11T14:01:13.935</time>
      </trkpt>
      <trkpt lat="42.52833" lon="2.06183">
        <ele>1851.6965120863</ele>
        <time>2000-05-11T14:01:14.936</time>
      </trkpt>
      <trkpt lat="42.52832" lon="2.06184">
        <ele>1851.7740993939</ele>
        <time>2000-05-11T14:01:15.936</time>
      </trkpt>
      <trkpt lat="42.52831" lon="2.06184">
        <ele>1851.7952983556</ele>
        <time>2000-05-11T14:01:16.935</time>
      </trkpt>
      <trkpt lat="42.5283" lon="2.06185">
        <ele>1851.495147994</ele>
        <time>2000-05-11T14:01:17.935</time>
      </trkpt>
      <trkpt lat="42.52829" lon="2.06187">
        <ele>1851.1865601826</ele>
        <time>2000-05-11T14:01:18.935</time>
      </trkpt>
      <trkpt lat="42.52828" lon="2.06188">
        <ele>1851.0289849648</ele>
        <time>2000-05-11T14:01:19.935</time>
      </trkpt>
      <trkpt lat="42.52828" lon="2.06189">
        <ele>1850.615052506</ele>
        <time>2000-05-11T14:01:20.935</time>
      </trkpt>
      <trkpt lat="42.52826" lon="2.06189">
        <ele>1850.5081138425</ele>
        <time>2000-05-11T14:01:21.935</time>
      </trkpt>
      <trkpt lat="42.52826" lon="2.06189">
        <ele>1850.7225245023</ele>
        <time>2000-05-11T14:01:22.935</time>
      </trkpt>
      <trkpt lat="42.52827" lon="2.0619">
        <ele>1850.9342334682</ele>
        <time>2000-05-11T14:01:23.935</time>
      </trkpt>
      <trkpt lat="42.52827" lon="2.06193">
        <ele>1851.5472309707</ele>
        <time>2000-05-11T14:01:24.935</time>
      </trkpt>
      <trkpt lat="42.52826" lon="2.06195">
        <ele>1852.5618085723</ele>
        <time>2000-05-11T14:01:25.935</time>
      </trkpt>
      <trkpt lat="42.52825" lon="2.06196">
        <ele>1853.3924633196</ele>
        <time>2000-05-11T14:01:26.935</time>
      </trkpt>
      <trkpt lat="42.52821" lon="2.06198">
        <ele>1853.5734946376</ele>
        <time>2000-05-11T14:01:27.935</time>
      </trkpt>
      <trkpt lat="42.5282" lon="2.06198">
        <ele>1853.4400025023</ele>
        <time>2000-05-11T14:01:28.935</time>
      </trkpt>
      <trkpt lat="42.52819" lon="2.06198">
        <ele>1852.8624211507</ele>
        <time>2000-05-11T14:01:29.935</time>
      </trkpt>
      <trkpt lat="42.52818" lon="2.06199">
        <ele>1851.6564607488</ele>
        <time>2000-05-11T14:01:30.935</time>
      </trkpt>
      <trkpt lat="42.52818" lon="2.062">
        <ele>1850.498471267</ele>
        <time>2000-05-11T14:01:31.935</time>
      </trkpt>
      <trkpt lat="42.52818" lon="2.06202">
        <ele>1850.2120023856</ele>
        <time>2000-05-11T14:01:32.935</time>
      </trkpt>
      <trkpt lat="42.52818" lon="2.06203">
        <ele>1850.6377122942</ele>
        <time>2000-05-11T14:01:33.935</time>
      </trkpt>
      <trkpt lat="42.52817" lon="2.06204">
        <ele>1851.4213083822</ele>
        <time>2000-05-11T14:01:34.935</time>
      </trkpt>
      <trkpt lat="42.52817" lon="2.06205">
        <ele>1852.6563166495</ele>
        <time>2000-05-11T14:01:35.935</time>
      </trkpt>
      <trkpt lat="42.52816" lon="2.06206">
        <ele>1853.6532995706</ele>
        <time>2000-05-11T14:01:36.935</time>
      </trkpt>
      <trkpt lat="42.52815" lon="2.06207">
        <ele>1854.4488174256</ele>
        <time>2000-05-11T14:01:37.935</time>
      </trkpt>
      <trkpt lat="42.52814" lon="2.06209">
        <ele>1855.0567190064</ele>
        <time>2000-05-11T14:01:38.935</time>
      </trkpt>
      <trkpt lat="42.52815" lon="2.0621">
        <ele>1855.6577374235</ele>
        <time>2000-05-11T14:01:39.935</time>
      </trkpt>
      <trkpt lat="42.52816" lon="2.06214">
        <ele>1857.5533251062</ele>
        <time>2000-05-11T14:01:40.935</time>
      </trkpt>
      <trkpt lat="42.52816" lon="2.06214">
        <ele>1859.55396396</ele>
        <time>2000-05-11T14:01:41.935</time>
      </trkpt>
      <trkpt lat="42.52816" lon="2.06214">
        <ele>1861.5341707086</ele>
        <time>2000-05-11T14:01:42.935</time>
      </trkpt>
      <trkpt lat="42.52816" lon="2.06214">
        <ele>1863.3154775383</ele>
        <time>2000-05-11T14:01:43.935</time>
      </trkpt>
      <trkpt lat="42.52816" lon="2.06214">
        <ele>1864.822311922</ele>
        <time>2000-05-11T14:01:44.935</time>
      </trkpt>
      <trkpt lat="42.52815" lon="2.06219">
        <ele>1865.9549371293</ele>
        <time>2000-05-11T14:01:45.936</time>
      </trkpt>
      <trkpt lat="42.52815" lon="2.06219">
        <ele>1867.0875623366</ele>
        <time>2000-05-11T14:01:46.936</time>
      </trkpt>
      <trkpt lat="42.52814" lon="2.06219">
        <ele>1868.1377676332</ele>
        <time>2000-05-11T14:01:47.935</time>
      </trkpt>
      <trkpt lat="42.52814" lon="2.06219">
        <ele>1869.1879729299</ele>
        <time>2000-05-11T14:01:48.935</time>
      </trkpt>
      <trkpt lat="42.52813" lon="2.06219">
        <ele>1870.1666444458</ele>
        <time>2000-05-11T14:01:49.935</time>
      </trkpt>
      <trkpt lat="42.52811" lon="2.06218">
        <ele>1869.3714139141</ele>
        <time>2000-05-11T14:01:50.935</time>
      </trkpt>
      <trkpt lat="42.52811" lon="2.06218">
        <ele>1868.5761833824</ele>
        <time>2000-05-11T14:01:51.935</time>
      </trkpt>
      <trkpt lat="42.52811" lon="2.06218">
        <ele>1867.8633727614</ele>
        <time>2000-05-11T14:01:52.935</time>
      </trkpt>
      <trkpt lat="42.5281" lon="2.06219">
        <ele>1867.0975521442</ele>
        <time>2000-05-11T14:01:53.934</time>
      </trkpt>
      <trkpt lat="42.52809" lon="2.06219">
        <ele>1866.2609876813</ele>
        <time>2000-05-11T14:01:54.934</time>
      </trkpt>
      <trkpt lat="42.52808" lon="2.06219">
        <ele>1865.779850027</ele>
        <time>2000-05-11T14:01:55.934</time>
      </trkpt>
      <trkpt lat="42.52807" lon="2.06219">
        <ele>1865.0266726812</ele>
        <time>2000-05-11T14:01:56.933</time>
      </trkpt>
      <trkpt lat="42.52805" lon="2.06219">
        <ele>1863.8621789167</ele>
        <time>2000-05-11T14:01:57.933</time>
      </trkpt>
      <trkpt lat="42.52804" lon="2.06219">
        <ele>1862.4195018593</ele>
        <time>2000-05-11T14:01:58.933</time>
      </trkpt>
      <trkpt lat="42.52802" lon="2.0622">
        <ele>1860.5624270692</ele>
        <time>2000-05-11T14:01:59.933</time>
      </trkpt>
      <trkpt lat="42.52801" lon="2.06222">
        <ele>1858.9122493153</ele>
        <time>2000-05-11T14:02:00.933</time>
      </trkpt>
      <trkpt lat="42.52801" lon="2.06222">
        <ele>1857.5341112528</ele>
        <time>2000-05-11T14:02:01.933</time>
      </trkpt>
      <trkpt lat="42.52801" lon="2.06222">
        <ele>1856.5672896091</ele>
        <time>2000-05-11T14:02:02.933</time>
      </trkpt>
      <trkpt lat="42.52801" lon="2.06222">
        <ele>1855.9316612544</ele>
        <time>2000-05-11T14:02:03.933</time>
      </trkpt>
      <trkpt lat="42.52797" lon="2.06222">
        <ele>1855.5037527261</ele>
        <time>2000-05-11T14:02:04.933</time>
      </trkpt>
      <trkpt lat="42.52797" lon="2.06222">
        <ele>1855.1547971936</ele>
        <time>2000-05-11T14:02:05.933</time>
      </trkpt>
      <trkpt lat="42.52796" lon="2.06223">
        <ele>1854.9170192186</ele>
        <time>2000-05-11T14:02:06.932</time>
      </trkpt>
      <trkpt lat="42.52795" lon="2.06224">
        <ele>1854.7602858812</ele>
        <time>2000-05-11T14:02:07.932</time>
      </trkpt>
      <trkpt lat="42.52794" lon="2.06225">
        <ele>1854.6372636495</ele>
        <time>2000-05-11T14:02:08.932</time>
      </trkpt>
      <trkpt lat="42.52794" lon="2.06225">
        <ele>1854.8631969504</ele>
        <time>2000-05-11T14:02:09.932</time>
      </trkpt>
      <trkpt lat="42.52793" lon="2.06226">
        <ele>1855.4957335465</ele>
        <time>2000-05-11T14:02:10.932</time>
      </trkpt>
      <trkpt lat="42.52791" lon="2.06227">
        <ele>1855.8717042927</ele>
        <time>2000-05-11T14:02:11.932</time>
      </trkpt>
      <trkpt lat="42.52791" lon="2.06227">
        <ele>1856.1666304013</ele>
        <time>2000-05-11T14:02:12.932</time>
      </trkpt>
      <trkpt lat="42.52791" lon="2.06228">
        <ele>1856.4442439897</ele>
        <time>2000-05-11T14:02:13.932</time>
      </trkpt>
      <trkpt lat="42.5279" lon="2.06228">
        <ele>1856.6851110829</ele>
        <time>2000-05-11T14:02:14.932</time>
      </trkpt>
      <trkpt lat="42.52789" lon="2.06229">
        <ele>1856.2791928504</ele>
        <time>2000-05-11T14:02:15.931</time>
      </trkpt>
      <trkpt lat="42.52789" lon="2.0623">
        <ele>1855.874339669</ele>
        <time>2000-05-11T14:02:16.931</time>
      </trkpt>
      <trkpt lat="42.52788" lon="2.06232">
        <ele>1855.5076534215</ele>
        <time>2000-05-11T14:02:17.931</time>
      </trkpt>
      <trkpt lat="42.52786" lon="2.06233">
        <ele>1855.0597092131</ele>
        <time>2000-05-11T14:02:18.931</time>
      </trkpt>
      <trkpt lat="42.52785" lon="2.06234">
        <ele>1854.709633643</ele>
        <time>2000-05-11T14:02:19.931</time>
      </trkpt>
      <trkpt lat="42.52785" lon="2.06235">
        <ele>1854.7912956294</ele>
        <time>2000-05-11T14:02:20.931</time>
      </trkpt>
      <trkpt lat="42.52785" lon="2.06235">
        <ele>1855.0172808569</ele>
        <time>2000-05-11T14:02:21.931</time>
      </trkpt>
      <trkpt lat="42.52785" lon="2.06235">
        <ele>1855.2050991505</ele>
        <time>2000-05-11T14:02:22.931</time>
      </trkpt>
      <trkpt lat="42.52784" lon="2.06237">
        <ele>1855.6273306638</ele>
        <time>2000-05-11T14:02:23.930</time>
      </trkpt>
      <trkpt lat="42.52783" lon="2.06238">
        <ele>1855.8841094328</ele>
        <time>2000-05-11T14:02:24.930</time>
      </trkpt>
      <trkpt lat="42.52782" lon="2.06238">
        <ele>1855.3955200054</ele>
        <time>2000-05-11T14:02:25.930</time>
      </trkpt>
      <trkpt lat="42.52782" lon="2.06238">
        <ele>1854.1337148268</ele>
        <time>2000-05-11T14:02:26.930</time>
      </trkpt>
      <trkpt lat="42.52782" lon="2.06238">
        <ele>1853.4965006787</ele>
        <time>2000-05-11T14:02:27.930</time>
      </trkpt>
      <trkpt lat="42.52782" lon="2.06239">
        <ele>1852.7613069188</ele>
        <time>2000-05-11T14:02:28.931</time>
      </trkpt>
      <trkpt lat="42.52782" lon="2.0624">
        <ele>1852.2955151465</ele>
        <time>2000-05-11T14:02:29.931</time>
      </trkpt>
      <trkpt lat="42.52781" lon="2.0624">
        <ele>1852.1893167183</ele>
        <time>2000-05-11T14:02:30.931</time>
      </trkpt>
      <trkpt lat="42.5278" lon="2.06241">
        <ele>1852.6433858281</ele>
        <time>2000-05-11T14:02:31.931</time>
      </trkpt>
      <trkpt lat="42.52777" lon="2.06242">
        <ele>1852.4701383488</ele>
        <time>2000-05-11T14:02:32.931</time>
      </trkpt>
      <trkpt lat="42.52775" lon="2.06243">
        <ele>1852.1266685322</ele>
        <time>2000-05-11T14:02:33.931</time>
      </trkpt>
      <trkpt lat="42.52774" lon="2.06244">
        <ele>1851.5691123271</ele>
        <time>2000-05-11T14:02:34.931</time>
      </trkpt>
      <trkpt lat="42.52773" lon="2.06245">
        <ele>1851.3370519631</ele>
        <time>2000-05-11T14:02:35.931</time>
      </trkpt>
      <trkpt lat="42.52771" lon="2.06247">
        <ele>1851.4654828051</ele>
        <time>2000-05-11T14:02:36.931</time>
      </trkpt>
      <trkpt lat="42.52771" lon="2.06248">
        <ele>1851.8262814097</ele>
        <time>2000-05-11T14:02:37.931</time>
      </trkpt>
      <trkpt lat="42.52771" lon="2.06248">
        <ele>1852.2857281193</ele>
        <time>2000-05-11T14:02:38.931</time>
      </trkpt>
      <trkpt lat="42.52771" lon="2.06248">
        <ele>1852.7941898309</ele>
        <time>2000-05-11T14:02:39.931</time>
      </trkpt>
      <trkpt lat="42.5277" lon="2.06248">
        <ele>1853.099604493</ele>
        <time>2000-05-11T14:02:40.931</time>
      </trkpt>
      <trkpt lat="42.5277" lon="2.06248">
        <ele>1853.2574761622</ele>
        <time>2000-05-11T14:02:41.931</time>
      </trkpt>
      <trkpt lat="42.52769" lon="2.06249">
        <ele>1852.8712071903</ele>
        <time>2000-05-11T14:02:42.931</time>
      </trkpt>
      <trkpt lat="42.52768" lon="2.0625">
        <ele>1852.3157122288</ele>
        <time>2000-05-11T14:02:43.931</time>
      </trkpt>
      <trkpt lat="42.52767" lon="2.06252">
        <ele>1851.9129518071</ele>
        <time>2000-05-11T14:02:44.931</time>
      </trkpt>
      <trkpt lat="42.52765" lon="2.06254">
        <ele>1851.3190043608</ele>
        <time>2000-05-11T14:02:45.931</time>
      </trkpt>
      <trkpt lat="42.52763" lon="2.06256">
        <ele>1851.1323141007</ele>
        <time>2000-05-11T14:02:46.931</time>
      </trkpt>
      <trkpt lat="42.52761" lon="2.06258">
        <ele>1851.6055152565</ele>
        <time>2000-05-11T14:02:47.931</time>
      </trkpt>
      <trkpt lat="42.52759" lon="2.06259">
        <ele>1852.1593594415</ele>
        <time>2000-05-11T14:02:48.931</time>
      </trkpt>
      <trkpt lat="42.52758" lon="2.0626">
        <ele>1852.6415995911</ele>
        <time>2000-05-11T14:02:49.931</time>
      </trkpt>
      <trkpt lat="42.52758" lon="2.0626">
        <ele>1853.3867973002</ele>
        <time>2000-05-11T14:02:50.931</time>
      </trkpt>
      <trkpt lat="42.52758" lon="2.0626">
        <ele>1853.724737823</ele>
        <time>2000-05-11T14:02:51.931</time>
      </trkpt>
      <trkpt lat="42.52758" lon="2.06262">
        <ele>1853.8877608454</ele>
        <time>2000-05-11T14:02:52.931</time>
      </trkpt>
      <trkpt lat="42.52757" lon="2.06262">
        <ele>1854.1262494836</ele>
        <time>2000-05-11T14:02:53.931</time>
      </trkpt>
      <trkpt lat="42.52756" lon="2.06264">
        <ele>1854.5006811524</ele>
        <time>2000-05-11T14:02:54.931</time>
      </trkpt>
      <trkpt lat="42.52756" lon="2.06264">
        <ele>1854.8751128212</ele>
        <time>2000-05-11T14:02:55.931</time>
      </trkpt>
      <trkpt lat="42.52755" lon="2.06264">
        <ele>1855.6051026501</ele>
        <time>2000-05-11T14:02:56.930</time>
      </trkpt>
      <trkpt lat="42.52754" lon="2.06266">
        <ele>1856.4508482315</ele>
        <time>2000-05-11T14:02:57.930</time>
      </trkpt>
      <trkpt lat="42.52753" lon="2.06268">
        <ele>1857.4204681093</ele>
        <time>2000-05-11T14:02:58.930</time>
      </trkpt>
      <trkpt lat="42.52752" lon="2.06268">
        <ele>1858.0180235213</ele>
        <time>2000-05-11T14:02:59.930</time>
      </trkpt>
      <trkpt lat="42.52751" lon="2.06269">
        <ele>1858.742182494</ele>
        <time>2000-05-11T14:03:00.930</time>
      </trkpt>
      <trkpt lat="42.52749" lon="2.0627">
        <ele>1859.1724662239</ele>
        <time>2000-05-11T14:03:01.930</time>
      </trkpt>
      <trkpt lat="42.52749" lon="2.06271">
        <ele>1859.2537672414</ele>
        <time>2000-05-11T14:03:02.930</time>
      </trkpt>
      <trkpt lat="42.52748" lon="2.06272">
        <ele>1859.2387695707</ele>
        <time>2000-05-11T14:03:03.930</time>
      </trkpt>
      <trkpt lat="42.52747" lon="2.06273">
        <ele>1859.4320635905</ele>
        <time>2000-05-11T14:03:04.930</time>
      </trkpt>
      <trkpt lat="42.52746" lon="2.06274">
        <ele>1859.698315247</ele>
        <time>2000-05-11T14:03:05.930</time>
      </trkpt>
      <trkpt lat="42.52746" lon="2.06275">
        <ele>1859.8580811415</ele>
        <time>2000-05-11T14:03:06.930</time>
      </trkpt>
      <trkpt lat="42.52745" lon="2.06276">
        <ele>1860.2067938944</ele>
        <time>2000-05-11T14:03:07.930</time>
      </trkpt>
      <trkpt lat="42.52745" lon="2.06277">
        <ele>1860.569815846</ele>
        <time>2000-05-11T14:03:08.930</time>
      </trkpt>
      <trkpt lat="42.52744" lon="2.06278">
        <ele>1860.5021385578</ele>
        <time>2000-05-11T14:03:09.929</time>
      </trkpt>
      <trkpt lat="42.52742" lon="2.06279">
        <ele>1859.7893968659</ele>
        <time>2000-05-11T14:03:10.929</time>
      </trkpt>
      <trkpt lat="42.52742" lon="2.0628">
        <ele>1859.1527338974</ele>
        <time>2000-05-11T14:03:11.929</time>
      </trkpt>
      <trkpt lat="42.5274" lon="2.06279">
        <ele>1857.944864451</ele>
        <time>2000-05-11T14:03:12.929</time>
      </trkpt>
      <trkpt lat="42.52739" lon="2.0628">
        <ele>1856.7921840496</ele>
        <time>2000-05-11T14:03:13.929</time>
      </trkpt>
      <trkpt lat="42.52738" lon="2.0628">
        <ele>1856.073489986</ele>
        <time>2000-05-11T14:03:14.929</time>
      </trkpt>
      <trkpt lat="42.52737" lon="2.0628">
        <ele>1855.7702647964</ele>
        <time>2000-05-11T14:03:15.929</time>
      </trkpt>
      <trkpt lat="42.52737" lon="2.0628">
        <ele>1855.4357637277</ele>
        <time>2000-05-11T14:03:16.929</time>
      </trkpt>
      <trkpt lat="42.52736" lon="2.06281">
        <ele>1855.4765397783</ele>
        <time>2000-05-11T14:03:17.929</time>
      </trkpt>
      <trkpt lat="42.52736" lon="2.06281">
        <ele>1855.4333593216</ele>
        <time>2000-05-11T14:03:18.929</time>
      </trkpt>
      <trkpt lat="42.52735" lon="2.0628">
        <ele>1854.9070071165</ele>
        <time>2000-05-11T14:03:19.929</time>
      </trkpt>
      <trkpt lat="42.52733" lon="2.0628">
        <ele>1854.150472836</ele>
        <time>2000-05-11T14:03:20.929</time>
      </trkpt>
      <trkpt lat="42.52733" lon="2.0628">
        <ele>1853.3939385556</ele>
        <time>2000-05-11T14:03:21.929</time>
      </trkpt>
      <trkpt lat="42.52733" lon="2.0628">
        <ele>1852.1083298746</ele>
        <time>2000-05-11T14:03:22.930</time>
      </trkpt>
      <trkpt lat="42.52732" lon="2.0628">
        <ele>1850.70254995</ele>
        <time>2000-05-11T14:03:23.930</time>
      </trkpt>
      <trkpt lat="42.5273" lon="2.06282">
        <ele>1849.9852863541</ele>
        <time>2000-05-11T14:03:24.930</time>
      </trkpt>
      <trkpt lat="42.52728" lon="2.06284">
        <ele>1849.5129659319</ele>
        <time>2000-05-11T14:03:25.930</time>
      </trkpt>
      <trkpt lat="42.52727" lon="2.06284">
        <ele>1848.6019156219</ele>
        <time>2000-05-11T14:03:26.930</time>
      </trkpt>
      <trkpt lat="42.52726" lon="2.06283">
        <ele>1847.7446926633</ele>
        <time>2000-05-11T14:03:27.930</time>
      </trkpt>
      <trkpt lat="42.52724" lon="2.06284">
        <ele>1846.6498433052</ele>
        <time>2000-05-11T14:03:28.930</time>
      </trkpt>
      <trkpt lat="42.52723" lon="2.06284">
        <ele>1845.2132388188</ele>
        <time>2000-05-11T14:03:29.930</time>
      </trkpt>
      <trkpt lat="42.52723" lon="2.06285">
        <ele>1843.8516434543</ele>
        <time>2000-05-11T14:03:30.930</time>
      </trkpt>
      <trkpt lat="42.52722" lon="2.06286">
        <ele>1842.8973147878</ele>
        <time>2000-05-11T14:03:31.930</time>
      </trkpt>
      <trkpt lat="42.52721" lon="2.06288">
        <ele>1842.6818291407</ele>
        <time>2000-05-11T14:03:32.930</time>
      </trkpt>
      <trkpt lat="42.5272" lon="2.06288">
        <ele>1842.7630595008</ele>
        <time>2000-05-11T14:03:33.930</time>
      </trkpt>
      <trkpt lat="42.5272" lon="2.06289">
        <ele>1842.6204263721</ele>
        <time>2000-05-11T14:03:34.930</time>
      </trkpt>
      <trkpt lat="42.52719" lon="2.06289">
        <ele>1841.9001377406</ele>
        <time>2000-05-11T14:03:35.930</time>
      </trkpt>
      <trkpt lat="42.52718" lon="2.0629">
        <ele>1841.1898032915</ele>
        <time>2000-05-11T14:03:36.930</time>
      </trkpt>
      <trkpt lat="42.52717" lon="2.06291">
        <ele>1840.3157388423</ele>
        <time>2000-05-11T14:03:37.930</time>
      </trkpt>
      <trkpt lat="42.52716" lon="2.06292">
        <ele>1839.7766599901</ele>
        <time>2000-05-11T14:03:38.930</time>
      </trkpt>
      <trkpt lat="42.52716" lon="2.06292">
        <ele>1839.5412673172</ele>
        <time>2000-05-11T14:03:39.930</time>
      </trkpt>
      <trkpt lat="42.52716" lon="2.06293">
        <ele>1839.9684170404</ele>
        <time>2000-05-11T14:03:40.930</time>
      </trkpt>
      <trkpt lat="42.52715" lon="2.06295">
        <ele>1840.7008546935</ele>
        <time>2000-05-11T14:03:41.930</time>
      </trkpt>
      <trkpt lat="42.52714" lon="2.06297">
        <ele>1841.9006444132</ele>
        <time>2000-05-11T14:03:42.930</time>
      </trkpt>
      <trkpt lat="42.52713" lon="2.06298">
        <ele>1843.1808387462</ele>
        <time>2000-05-11T14:03:43.930</time>
      </trkpt>
      <trkpt lat="42.52711" lon="2.06298">
        <ele>1844.1135806628</ele>
        <time>2000-05-11T14:03:44.930</time>
      </trkpt>
      <trkpt lat="42.5271" lon="2.06299">
        <ele>1844.9700537708</ele>
        <time>2000-05-11T14:03:45.930</time>
      </trkpt>
      <trkpt lat="42.52708" lon="2.063">
        <ele>1845.6418333037</ele>
        <time>2000-05-11T14:03:46.930</time>
      </trkpt>
      <trkpt lat="42.52707" lon="2.063">
        <ele>1845.8281872751</ele>
        <time>2000-05-11T14:03:47.930</time>
      </trkpt>
      <trkpt lat="42.52707" lon="2.063">
        <ele>1845.6602326721</ele>
        <time>2000-05-11T14:03:48.930</time>
      </trkpt>
      <trkpt lat="42.52707" lon="2.063">
        <ele>1845.8397304855</ele>
        <time>2000-05-11T14:03:49.930</time>
      </trkpt>
      <trkpt lat="42.52706" lon="2.06301">
        <ele>1846.032548275</ele>
        <time>2000-05-11T14:03:50.932</time>
      </trkpt>
      <trkpt lat="42.52705" lon="2.06301">
        <ele>1846.028844613</ele>
        <time>2000-05-11T14:03:51.932</time>
      </trkpt>
      <trkpt lat="42.52704" lon="2.06301">
        <ele>1846.2942309173</ele>
        <time>2000-05-11T14:03:52.932</time>
      </trkpt>
      <trkpt lat="42.52703" lon="2.06302">
        <ele>1846.7088533914</ele>
        <time>2000-05-11T14:03:53.932</time>
      </trkpt>
      <trkpt lat="42.52701" lon="2.06305">
        <ele>1847.1698773291</ele>
        <time>2000-05-11T14:03:54.932</time>
      </trkpt>
      <trkpt lat="42.52699" lon="2.06308">
        <ele>1847.9963819044</ele>
        <time>2000-05-11T14:03:55.932</time>
      </trkpt>
      <trkpt lat="42.52698" lon="2.06308">
        <ele>1848.8854387118</ele>
        <time>2000-05-11T14:03:56.932</time>
      </trkpt>
      <trkpt lat="42.52696" lon="2.06309">
        <ele>1849.3824760111</ele>
        <time>2000-05-11T14:03:57.932</time>
      </trkpt>
      <trkpt lat="42.52695" lon="2.0631">
        <ele>1849.8985104036</ele>
        <time>2000-05-11T14:03:58.932</time>
      </trkpt>
      <trkpt lat="42.52694" lon="2.0631">
        <ele>1850.3772837771</ele>
        <time>2000-05-11T14:03:59.932</time>
      </trkpt>
      <trkpt lat="42.52694" lon="2.0631">
        <ele>1850.6712289277</ele>
        <time>2000-05-11T14:04:00.932</time>
      </trkpt>
      <trkpt lat="42.52693" lon="2.0631">
        <ele>1850.632618936</ele>
        <time>2000-05-11T14:04:01.932</time>
      </trkpt>
      <trkpt lat="42.52692" lon="2.0631">
        <ele>1850.5129865749</ele>
        <time>2000-05-11T14:04:02.932</time>
      </trkpt>
      <trkpt lat="42.52691" lon="2.0631">
        <ele>1850.143628432</ele>
        <time>2000-05-11T14:04:03.932</time>
      </trkpt>
      <trkpt lat="42.52691" lon="2.06311">
        <ele>1849.8518893661</ele>
        <time>2000-05-11T14:04:04.932</time>
      </trkpt>
      <trkpt lat="42.52689" lon="2.06311">
        <ele>1848.963940662</ele>
        <time>2000-05-11T14:04:05.932</time>
      </trkpt>
      <trkpt lat="42.52687" lon="2.06312">
        <ele>1848.2133410836</ele>
        <time>2000-05-11T14:04:06.932</time>
      </trkpt>
      <trkpt lat="42.52687" lon="2.06313">
        <ele>1847.7721751837</ele>
        <time>2000-05-11T14:04:07.932</time>
      </trkpt>
      <trkpt lat="42.52687" lon="2.06313">
        <ele>1847.4125018027</ele>
        <time>2000-05-11T14:04:08.932</time>
      </trkpt>
      <trkpt lat="42.52687" lon="2.06313">
        <ele>1846.9660689</ele>
        <time>2000-05-11T14:04:09.932</time>
      </trkpt>
      <trkpt lat="42.52686" lon="2.06314">
        <ele>1846.7473904306</ele>
        <time>2000-05-11T14:04:10.930</time>
      </trkpt>
      <trkpt lat="42.52685" lon="2.06314">
        <ele>1846.5287644014</ele>
        <time>2000-05-11T14:04:11.930</time>
      </trkpt>
      <trkpt lat="42.52684" lon="2.06314">
        <ele>1845.9967746863</ele>
        <time>2000-05-11T14:04:12.930</time>
      </trkpt>
      <trkpt lat="42.52683" lon="2.06314">
        <ele>1845.3834709907</ele>
        <time>2000-05-11T14:04:13.928</time>
      </trkpt>
      <trkpt lat="42.52681" lon="2.06316">
        <ele>1845.3779258888</ele>
        <time>2000-05-11T14:04:14.928</time>
      </trkpt>
      <trkpt lat="42.5268" lon="2.06316">
        <ele>1845.8627506336</ele>
        <time>2000-05-11T14:04:15.928</time>
      </trkpt>
      <trkpt lat="42.52679" lon="2.06317">
        <ele>1846.8381304005</ele>
        <time>2000-05-11T14:04:16.928</time>
      </trkpt>
      <trkpt lat="42.52677" lon="2.06318">
        <ele>1847.9645759704</ele>
        <time>2000-05-11T14:04:17.928</time>
      </trkpt>
      <trkpt lat="42.52676" lon="2.06319">
        <ele>1849.3596705586</ele>
        <time>2000-05-11T14:04:18.928</time>
      </trkpt>
      <trkpt lat="42.52675" lon="2.0632">
        <ele>1850.5302767418</ele>
        <time>2000-05-11T14:04:19.928</time>
      </trkpt>
      <trkpt lat="42.52675" lon="2.0632">
        <ele>1851.3166419199</ele>
        <time>2000-05-11T14:04:20.928</time>
      </trkpt>
      <trkpt lat="42.52675" lon="2.0632">
        <ele>1851.8424895244</ele>
        <time>2000-05-11T14:04:21.928</time>
      </trkpt>
      <trkpt lat="42.52673" lon="2.0632">
        <ele>1851.8536160018</ele>
        <time>2000-05-11T14:04:22.927</time>
      </trkpt>
      <trkpt lat="42.52672" lon="2.0632">
        <ele>1851.262980455</ele>
        <time>2000-05-11T14:04:23.927</time>
      </trkpt>
      <trkpt lat="42.52671" lon="2.0632">
        <ele>1850.6994880296</ele>
        <time>2000-05-11T14:04:24.929</time>
      </trkpt>
      <trkpt lat="42.52669" lon="2.0632">
        <ele>1849.9411194716</ele>
        <time>2000-05-11T14:04:25.929</time>
      </trkpt>
      <trkpt lat="42.52668" lon="2.06319">
        <ele>1848.98730895</ele>
        <time>2000-05-11T14:04:26.929</time>
      </trkpt>
      <trkpt lat="42.52668" lon="2.06319">
        <ele>1848.5929771775</ele>
        <time>2000-05-11T14:04:27.929</time>
      </trkpt>
      <trkpt lat="42.52667" lon="2.0632">
        <ele>1848.3056163328</ele>
        <time>2000-05-11T14:04:28.928</time>
      </trkpt>
      <trkpt lat="42.52666" lon="2.06321">
        <ele>1847.6068508986</ele>
        <time>2000-05-11T14:04:29.928</time>
      </trkpt>
      <trkpt lat="42.52665" lon="2.06322">
        <ele>1847.3627089765</ele>
        <time>2000-05-11T14:04:30.928</time>
      </trkpt>
      <trkpt lat="42.52665" lon="2.06324">
        <ele>1847.5625946581</ele>
        <time>2000-05-11T14:04:31.928</time>
      </trkpt>
      <trkpt lat="42.52665" lon="2.06326">
        <ele>1848.0720715065</ele>
        <time>2000-05-11T14:04:32.928</time>
      </trkpt>
      <trkpt lat="42.52662" lon="2.06326">
        <ele>1848.373353108</ele>
        <time>2000-05-11T14:04:33.928</time>
      </trkpt>
      <trkpt lat="42.52661" lon="2.06327">
        <ele>1848.7568814946</ele>
        <time>2000-05-11T14:04:34.928</time>
      </trkpt>
      <trkpt lat="42.52661" lon="2.06327">
        <ele>1848.880662502</ele>
        <time>2000-05-11T14:04:35.928</time>
      </trkpt>
      <trkpt lat="42.52661" lon="2.06327">
        <ele>1848.7558578691</ele>
        <time>2000-05-11T14:04:36.928</time>
      </trkpt>
      <trkpt lat="42.52661" lon="2.06327">
        <ele>1848.3214620695</ele>
        <time>2000-05-11T14:04:37.928</time>
      </trkpt>
      <trkpt lat="42.5266" lon="2.06326">
        <ele>1848.0622295765</ele>
        <time>2000-05-11T14:04:38.927</time>
      </trkpt>
      <trkpt lat="42.5266" lon="2.06326">
        <ele>1847.7217415776</ele>
        <time>2000-05-11T14:04:39.927</time>
      </trkpt>
      <trkpt lat="42.52659" lon="2.06327">
        <ele>1847.4171725163</ele>
        <time>2000-05-11T14:04:40.927</time>
      </trkpt>
      <trkpt lat="42.52658" lon="2.06328">
        <ele>1847.1147607043</ele>
        <time>2000-05-11T14:04:41.927</time>
      </trkpt>
      <trkpt lat="42.52659" lon="2.06332">
        <ele>1847.553007482</ele>
        <time>2000-05-11T14:04:42.927</time>
      </trkpt>
      <trkpt lat="42.52659" lon="2.06333">
        <ele>1848.376585657</ele>
        <time>2000-05-11T14:04:43.927</time>
      </trkpt>
      <trkpt lat="42.52658" lon="2.06334">
        <ele>1849.0441441936</ele>
        <time>2000-05-11T14:04:44.927</time>
      </trkpt>
      <trkpt lat="42.52656" lon="2.06335">
        <ele>1849.5586617004</ele>
        <time>2000-05-11T14:04:45.927</time>
      </trkpt>
      <trkpt lat="42.52654" lon="2.06336">
        <ele>1850.2704339102</ele>
        <time>2000-05-11T14:04:46.927</time>
      </trkpt>
      <trkpt lat="42.52654" lon="2.06337">
        <ele>1850.4586242596</ele>
        <time>2000-05-11T14:04:47.927</time>
      </trkpt>
      <trkpt lat="42.52654" lon="2.06338">
        <ele>1851.0027695648</ele>
        <time>2000-05-11T14:04:48.927</time>
      </trkpt>
      <trkpt lat="42.52654" lon="2.06339">
        <ele>1851.9923156461</ele>
        <time>2000-05-11T14:04:49.927</time>
      </trkpt>
      <trkpt lat="42.52653" lon="2.0634">
        <ele>1853.1985876868</ele>
        <time>2000-05-11T14:04:50.927</time>
      </trkpt>
      <trkpt lat="42.52652" lon="2.0634">
        <ele>1854.45515434</ele>
        <time>2000-05-11T14:04:51.927</time>
      </trkpt>
      <trkpt lat="42.52652" lon="2.0634">
        <ele>1855.4946442639</ele>
        <time>2000-05-11T14:04:52.927</time>
      </trkpt>
      <trkpt lat="42.52651" lon="2.06341">
        <ele>1856.0809803344</ele>
        <time>2000-05-11T14:04:53.927</time>
      </trkpt>
      <trkpt lat="42.52651" lon="2.06342">
        <ele>1856.6008085741</ele>
        <time>2000-05-11T14:04:54.927</time>
      </trkpt>
      <trkpt lat="42.5265" lon="2.06344">
        <ele>1856.8448290147</ele>
        <time>2000-05-11T14:04:55.927</time>
      </trkpt>
      <trkpt lat="42.52649" lon="2.06345">
        <ele>1856.7348905522</ele>
        <time>2000-05-11T14:04:56.927</time>
      </trkpt>
      <trkpt lat="42.52649" lon="2.06345">
        <ele>1856.6249520898</ele>
        <time>2000-05-11T14:04:57.927</time>
      </trkpt>
      <trkpt lat="42.52649" lon="2.06345">
        <ele>1856.5673691265</ele>
        <time>2000-05-11T14:04:58.927</time>
      </trkpt>
      <trkpt lat="42.52649" lon="2.06346">
        <ele>1856.3516066875</ele>
        <time>2000-05-11T14:04:59.927</time>
      </trkpt>
      <trkpt lat="42.52647" lon="2.06348">
        <ele>1856.1801019151</ele>
        <time>2000-05-11T14:05:00.927</time>
      </trkpt>
      <trkpt lat="42.52646" lon="2.06348">
        <ele>1856.1147985825</ele>
        <time>2000-05-11T14:05:01.927</time>
      </trkpt>
      <trkpt lat="42.52645" lon="2.06349">
        <ele>1856.3685435522</ele>
        <time>2000-05-11T14:05:02.927</time>
      </trkpt>
      <trkpt lat="42.52646" lon="2.06351">
        <ele>1856.9583117841</ele>
        <time>2000-05-11T14:05:03.927</time>
      </trkpt>
      <trkpt lat="42.52645" lon="2.06351">
        <ele>1857.6001255037</ele>
        <time>2000-05-11T14:05:04.927</time>
      </trkpt>
      <trkpt lat="42.52644" lon="2.06352">
        <ele>1858.3058071028</ele>
        <time>2000-05-11T14:05:05.927</time>
      </trkpt>
      <trkpt lat="42.52645" lon="2.06354">
        <ele>1859.3244205266</ele>
        <time>2000-05-11T14:05:06.927</time>
      </trkpt>
      <trkpt lat="42.52645" lon="2.06354">
        <ele>1860.0239856482</ele>
        <time>2000-05-11T14:05:07.927</time>
      </trkpt>
      <trkpt lat="42.52644" lon="2.06355">
        <ele>1860.355690214</ele>
        <time>2000-05-11T14:05:08.927</time>
      </trkpt>
      <trkpt lat="42.52643" lon="2.06355">
        <ele>1860.4623555969</ele>
        <time>2000-05-11T14:05:09.927</time>
      </trkpt>
      <trkpt lat="42.52642" lon="2.06356">
        <ele>1860.8360514099</ele>
        <time>2000-05-11T14:05:10.927</time>
      </trkpt>
      <trkpt lat="42.5264" lon="2.06358">
        <ele>1860.7752044585</ele>
        <time>2000-05-11T14:05:11.928</time>
      </trkpt>
      <trkpt lat="42.5264" lon="2.0636">
        <ele>1860.9397654729</ele>
        <time>2000-05-11T14:05:12.928</time>
      </trkpt>
      <trkpt lat="42.52639" lon="2.06361">
        <ele>1861.1605460351</ele>
        <time>2000-05-11T14:05:13.928</time>
      </trkpt>
      <trkpt lat="42.52638" lon="2.06362">
        <ele>1861.3881797358</ele>
        <time>2000-05-11T14:05:14.928</time>
      </trkpt>
      <trkpt lat="42.52637" lon="2.06362">
        <ele>1861.3125612106</ele>
        <time>2000-05-11T14:05:15.928</time>
      </trkpt>
      <trkpt lat="42.52636" lon="2.06362">
        <ele>1861.8402984114</ele>
        <time>2000-05-11T14:05:16.928</time>
      </trkpt>
      <trkpt lat="42.52635" lon="2.06363">
        <ele>1862.3158299103</ele>
        <time>2000-05-11T14:05:17.928</time>
      </trkpt>
      <trkpt lat="42.52635" lon="2.06364">
        <ele>1862.7143684031</ele>
        <time>2000-05-11T14:05:18.928</time>
      </trkpt>
      <trkpt lat="42.52634" lon="2.06364">
        <ele>1863.0488733299</ele>
        <time>2000-05-11T14:05:19.928</time>
      </trkpt>
      <trkpt lat="42.52633" lon="2.06365">
        <ele>1863.453423764</ele>
        <time>2000-05-11T14:05:20.928</time>
      </trkpt>
      <trkpt lat="42.52633" lon="2.06366">
        <ele>1863.4262608789</ele>
        <time>2000-05-11T14:05:21.928</time>
      </trkpt>
      <trkpt lat="42.52632" lon="2.06367">
        <ele>1863.3002264351</ele>
        <time>2000-05-11T14:05:22.928</time>
      </trkpt>
      <trkpt lat="42.52631" lon="2.06368">
        <ele>1863.2045840753</ele>
        <time>2000-05-11T14:05:23.928</time>
      </trkpt>
      <trkpt lat="42.5263" lon="2.06369">
        <ele>1863.2096554624</ele>
        <time>2000-05-11T14:05:24.928</time>
      </trkpt>
      <trkpt lat="42.5263" lon="2.06369">
        <ele>1863.2489815239</ele>
        <time>2000-05-11T14:05:25.928</time>
      </trkpt>
      <trkpt lat="42.52629" lon="2.0637">
        <ele>1863.3702354768</ele>
        <time>2000-05-11T14:05:26.928</time>
      </trkpt>
      <trkpt lat="42.52629" lon="2.06372">
        <ele>1863.6116100734</ele>
        <time>2000-05-11T14:05:27.928</time>
      </trkpt>
      <trkpt lat="42.52629" lon="2.0637">
        <ele>1863.7390840622</ele>
        <time>2000-05-11T14:05:28.929</time>
      </trkpt>
      <trkpt lat="42.52629" lon="2.0637">
        <ele>1863.9313245958</ele>
        <time>2000-05-11T14:05:29.929</time>
      </trkpt>
      <trkpt lat="42.52629" lon="2.06372">
        <ele>1864.5429195648</ele>
        <time>2000-05-11T14:05:30.928</time>
      </trkpt>
      <trkpt lat="42.52629" lon="2.06373">
        <ele>1865.3997125274</ele>
        <time>2000-05-11T14:05:31.928</time>
      </trkpt>
      <trkpt lat="42.52628" lon="2.06374">
        <ele>1865.9534971319</ele>
        <time>2000-05-11T14:05:32.925</time>
      </trkpt>
      <trkpt lat="42.52627" lon="2.06375">
        <ele>1866.5975014834</ele>
        <time>2000-05-11T14:05:33.925</time>
      </trkpt>
      <trkpt lat="42.52626" lon="2.06376">
        <ele>1867.200572863</ele>
        <time>2000-05-11T14:05:34.925</time>
      </trkpt>
      <trkpt lat="42.52625" lon="2.06378">
        <ele>1867.3383114817</ele>
        <time>2000-05-11T14:05:35.925</time>
      </trkpt>
      <trkpt lat="42.52625" lon="2.06379">
        <ele>1867.133679926</ele>
        <time>2000-05-11T14:05:36.925</time>
      </trkpt>
      <trkpt lat="42.52625" lon="2.06382">
        <ele>1867.3091150451</ele>
        <time>2000-05-11T14:05:37.925</time>
      </trkpt>
      <trkpt lat="42.52623" lon="2.06382">
        <ele>1867.0477238268</ele>
        <time>2000-05-11T14:05:38.925</time>
      </trkpt>
      <trkpt lat="42.52623" lon="2.06383">
        <ele>1866.7461505178</ele>
        <time>2000-05-11T14:05:39.925</time>
      </trkpt>
      <trkpt lat="42.52622" lon="2.06384">
        <ele>1866.1395791993</ele>
        <time>2000-05-11T14:05:40.925</time>
      </trkpt>
      <trkpt lat="42.52621" lon="2.06384">
        <ele>1865.1201034043</ele>
        <time>2000-05-11T14:05:41.925</time>
      </trkpt>
      <trkpt lat="42.5262" lon="2.06385">
        <ele>1863.6110047251</ele>
        <time>2000-05-11T14:05:42.925</time>
      </trkpt>
      <trkpt lat="42.5262" lon="2.06385">
        <ele>1862.584631912</ele>
        <time>2000-05-11T14:05:43.925</time>
      </trkpt>
      <trkpt lat="42.52618" lon="2.06385">
        <ele>1861.585258002</ele>
        <time>2000-05-11T14:05:44.925</time>
      </trkpt>
      <trkpt lat="42.52616" lon="2.06386">
        <ele>1860.9803519243</ele>
        <time>2000-05-11T14:05:45.925</time>
      </trkpt>
      <trkpt lat="42.52615" lon="2.06387">
        <ele>1860.4612716541</ele>
        <time>2000-05-11T14:05:46.925</time>
      </trkpt>
      <trkpt lat="42.52614" lon="2.06388">
        <ele>1859.7787377933</ele>
        <time>2000-05-11T14:05:47.925</time>
      </trkpt>
      <trkpt lat="42.52613" lon="2.06389">
        <ele>1858.8364771115</ele>
        <time>2000-05-11T14:05:48.925</time>
      </trkpt>
      <trkpt lat="42.52613" lon="2.0639">
        <ele>1858.1881273055</ele>
        <time>2000-05-11T14:05:49.925</time>
      </trkpt>
      <trkpt lat="42.52614" lon="2.06391">
        <ele>1858.253835316</ele>
        <time>2000-05-11T14:05:50.925</time>
      </trkpt>
      <trkpt lat="42.52613" lon="2.06392">
        <ele>1858.8508472266</ele>
        <time>2000-05-11T14:05:51.925</time>
      </trkpt>
      <trkpt lat="42.52612" lon="2.06392">
        <ele>1859.6215807283</ele>
        <time>2000-05-11T14:05:52.925</time>
      </trkpt>
      <trkpt lat="42.52611" lon="2.06393">
        <ele>1860.3110836778</ele>
        <time>2000-05-11T14:05:53.925</time>
      </trkpt>
      <trkpt lat="42.52611" lon="2.06393">
        <ele>1860.7607919106</ele>
        <time>2000-05-11T14:05:54.925</time>
      </trkpt>
      <trkpt lat="42.52611" lon="2.06394">
        <ele>1860.7121042313</ele>
        <time>2000-05-11T14:05:55.925</time>
      </trkpt>
      <trkpt lat="42.5261" lon="2.06395">
        <ele>1860.5713343712</ele>
        <time>2000-05-11T14:05:56.925</time>
      </trkpt>
      <trkpt lat="42.5261" lon="2.06395">
        <ele>1860.6384097289</ele>
        <time>2000-05-11T14:05:57.925</time>
      </trkpt>
      <trkpt lat="42.52609" lon="2.06396">
        <ele>1861.2022833563</ele>
        <time>2000-05-11T14:05:58.925</time>
      </trkpt>
      <trkpt lat="42.52609" lon="2.06397">
        <ele>1862.1508541225</ele>
        <time>2000-05-11T14:05:59.925</time>
      </trkpt>
      <trkpt lat="42.52608" lon="2.06399">
        <ele>1862.9399761653</ele>
        <time>2000-05-11T14:06:00.925</time>
      </trkpt>
      <trkpt lat="42.52608" lon="2.064">
        <ele>1863.4107114743</ele>
        <time>2000-05-11T14:06:01.925</time>
      </trkpt>
      <trkpt lat="42.52609" lon="2.064">
        <ele>1864.0220395835</ele>
        <time>2000-05-11T14:06:02.925</time>
      </trkpt>
      <trkpt lat="42.52609" lon="2.064">
        <ele>1864.4775267964</ele>
        <time>2000-05-11T14:06:03.925</time>
      </trkpt>
      <trkpt lat="42.52608" lon="2.06402">
        <ele>1864.7820831561</ele>
        <time>2000-05-11T14:06:04.928</time>
      </trkpt>
      <trkpt lat="42.52608" lon="2.06402">
        <ele>1864.9869348379</ele>
        <time>2000-05-11T14:06:05.928</time>
      </trkpt>
      <trkpt lat="42.52606" lon="2.06402">
        <ele>1864.9408411901</ele>
        <time>2000-05-11T14:06:06.928</time>
      </trkpt>
      <trkpt lat="42.52605" lon="2.06403">
        <ele>1864.5113950672</ele>
        <time>2000-05-11T14:06:07.928</time>
      </trkpt>
      <trkpt lat="42.52604" lon="2.06405">
        <ele>1864.0740563108</ele>
        <time>2000-05-11T14:06:08.928</time>
      </trkpt>
      <trkpt lat="42.52603" lon="2.06406">
        <ele>1863.3402018011</ele>
        <time>2000-05-11T14:06:09.928</time>
      </trkpt>
      <trkpt lat="42.52603" lon="2.06407">
        <ele>1862.4246907305</ele>
        <time>2000-05-11T14:06:10.928</time>
      </trkpt>
      <trkpt lat="42.52602" lon="2.06409">
        <ele>1861.7667457229</ele>
        <time>2000-05-11T14:06:11.928</time>
      </trkpt>
      <trkpt lat="42.52602" lon="2.06409">
        <ele>1861.3515603904</ele>
        <time>2000-05-11T14:06:12.928</time>
      </trkpt>
      <trkpt lat="42.52601" lon="2.06409">
        <ele>1860.6837028736</ele>
        <time>2000-05-11T14:06:13.928</time>
      </trkpt>
      <trkpt lat="42.526" lon="2.06411">
        <ele>1859.7767574798</ele>
        <time>2000-05-11T14:06:14.928</time>
      </trkpt>
      <trkpt lat="42.52599" lon="2.06412">
        <ele>1859.3155959951</ele>
        <time>2000-05-11T14:06:15.926</time>
      </trkpt>
      <trkpt lat="42.52598" lon="2.06414">
        <ele>1858.9695304304</ele>
        <time>2000-05-11T14:06:16.926</time>
      </trkpt>
      <trkpt lat="42.52596" lon="2.06416">
        <ele>1858.7106821232</ele>
        <time>2000-05-11T14:06:17.926</time>
      </trkpt>
      <trkpt lat="42.52595" lon="2.06418">
        <ele>1858.8429710416</ele>
        <time>2000-05-11T14:06:18.926</time>
      </trkpt>
      <trkpt lat="42.52594" lon="2.06419">
        <ele>1858.9761113722</ele>
        <time>2000-05-11T14:06:19.926</time>
      </trkpt>
      <trkpt lat="42.52593" lon="2.0642">
        <ele>1858.6033464896</ele>
        <time>2000-05-11T14:06:20.926</time>
      </trkpt>
      <trkpt lat="42.52593" lon="2.0642">
        <ele>1858.0321921792</ele>
        <time>2000-05-11T14:06:21.926</time>
      </trkpt>
      <trkpt lat="42.52593" lon="2.06423">
        <ele>1857.6115658883</ele>
        <time>2000-05-11T14:06:22.926</time>
      </trkpt>
      <trkpt lat="42.52592" lon="2.06424">
        <ele>1856.9651562421</ele>
        <time>2000-05-11T14:06:23.926</time>
      </trkpt>
      <trkpt lat="42.52592" lon="2.06424">
        <ele>1856.6197325286</ele>
        <time>2000-05-11T14:06:24.926</time>
      </trkpt>
      <trkpt lat="42.52592" lon="2.06424">
        <ele>1856.5160866801</ele>
        <time>2000-05-11T14:06:25.926</time>
      </trkpt>
      <trkpt lat="42.52591" lon="2.06425">
        <ele>1856.5425048806</ele>
        <time>2000-05-11T14:06:26.922</time>
      </trkpt>
      <trkpt lat="42.5259" lon="2.06426">
        <ele>1856.4321093576</ele>
        <time>2000-05-11T14:06:27.922</time>
      </trkpt>
      <trkpt lat="42.52589" lon="2.06428">
        <ele>1856.5543836635</ele>
        <time>2000-05-11T14:06:28.922</time>
      </trkpt>
      <trkpt lat="42.52588" lon="2.06429">
        <ele>1856.7289897399</ele>
        <time>2000-05-11T14:06:29.922</time>
      </trkpt>
      <trkpt lat="42.52587" lon="2.0643">
        <ele>1857.0810030181</ele>
        <time>2000-05-11T14:06:30.922</time>
      </trkpt>
      <trkpt lat="42.52587" lon="2.06431">
        <ele>1857.4941719573</ele>
        <time>2000-05-11T14:06:31.922</time>
      </trkpt>
      <trkpt lat="42.52586" lon="2.06431">
        <ele>1857.6770042483</ele>
        <time>2000-05-11T14:06:32.922</time>
      </trkpt>
      <trkpt lat="42.52585" lon="2.06432">
        <ele>1857.6696162121</ele>
        <time>2000-05-11T14:06:33.922</time>
      </trkpt>
      <trkpt lat="42.52585" lon="2.06434">
        <ele>1857.6525837716</ele>
        <time>2000-05-11T14:06:34.922</time>
      </trkpt>
      <trkpt lat="42.52585" lon="2.06436">
        <ele>1857.6643735306</ele>
        <time>2000-05-11T14:06:35.922</time>
      </trkpt>
      <trkpt lat="42.52585" lon="2.06437">
        <ele>1857.7869980056</ele>
        <time>2000-05-11T14:06:36.922</time>
      </trkpt>
      <trkpt lat="42.52585" lon="2.06437">
        <ele>1858.0390275754</ele>
        <time>2000-05-11T14:06:37.922</time>
      </trkpt>
      <trkpt lat="42.52585" lon="2.0644">
        <ele>1858.9771226142</ele>
        <time>2000-05-11T14:06:38.925</time>
      </trkpt>
      <trkpt lat="42.52585" lon="2.06442">
        <ele>1860.0900444297</ele>
        <time>2000-05-11T14:06:39.925</time>
      </trkpt>
      <trkpt lat="42.52585" lon="2.06445">
        <ele>1861.7987212893</ele>
        <time>2000-05-11T14:06:40.925</time>
      </trkpt>
      <trkpt lat="42.52585" lon="2.06447">
        <ele>1864.2144882603</ele>
        <time>2000-05-11T14:06:41.925</time>
      </trkpt>
      <trkpt lat="42.52583" lon="2.0645">
        <ele>1866.5669369012</ele>
        <time>2000-05-11T14:06:42.925</time>
      </trkpt>
      <trkpt lat="42.52582" lon="2.06452">
        <ele>1868.1861664653</ele>
        <time>2000-05-11T14:06:43.925</time>
      </trkpt>
      <trkpt lat="42.52582" lon="2.06454">
        <ele>1869.3629122561</ele>
        <time>2000-05-11T14:06:44.925</time>
      </trkpt>
      <trkpt lat="42.52581" lon="2.06455">
        <ele>1869.6260358712</ele>
        <time>2000-05-11T14:06:45.925</time>
      </trkpt>
      <trkpt lat="42.52581" lon="2.06455">
        <ele>1868.9092393422</ele>
        <time>2000-05-11T14:06:46.925</time>
      </trkpt>
      <trkpt lat="42.5258" lon="2.06457">
        <ele>1867.9585342608</ele>
        <time>2000-05-11T14:06:47.925</time>
      </trkpt>
      <trkpt lat="42.5258" lon="2.06458">
        <ele>1867.0649163153</ele>
        <time>2000-05-11T14:06:48.925</time>
      </trkpt>
      <trkpt lat="42.52579" lon="2.06459">
        <ele>1866.0388986969</ele>
        <time>2000-05-11T14:06:49.925</time>
      </trkpt>
      <trkpt lat="42.52578" lon="2.06463">
        <ele>1865.279157882</ele>
        <time>2000-05-11T14:06:50.925</time>
      </trkpt>
      <trkpt lat="42.52579" lon="2.06464">
        <ele>1864.7205712438</ele>
        <time>2000-05-11T14:06:51.925</time>
      </trkpt>
      <trkpt lat="42.52579" lon="2.06464">
        <ele>1864.4592114881</ele>
        <time>2000-05-11T14:06:52.925</time>
      </trkpt>
      <trkpt lat="42.52578" lon="2.06466">
        <ele>1863.982036736</ele>
        <time>2000-05-11T14:06:53.925</time>
      </trkpt>
      <trkpt lat="42.52577" lon="2.06466">
        <ele>1863.6749240831</ele>
        <time>2000-05-11T14:06:54.925</time>
      </trkpt>
      <trkpt lat="42.52577" lon="2.06467">
        <ele>1863.1637716394</ele>
        <time>2000-05-11T14:06:55.925</time>
      </trkpt>
      <trkpt lat="42.52576" lon="2.06469">
        <ele>1862.5263912711</ele>
        <time>2000-05-11T14:06:56.925</time>
      </trkpt>
      <trkpt lat="42.52575" lon="2.0647">
        <ele>1861.7813625341</ele>
        <time>2000-05-11T14:06:57.925</time>
      </trkpt>
      <trkpt lat="42.52575" lon="2.0647">
        <ele>1861.2949767111</ele>
        <time>2000-05-11T14:06:58.925</time>
      </trkpt>
      <trkpt lat="42.52575" lon="2.06471">
        <ele>1861.7517834183</ele>
        <time>2000-05-11T14:06:59.926</time>
      </trkpt>
      <trkpt lat="42.52575" lon="2.06474">
        <ele>1862.765291464</ele>
        <time>2000-05-11T14:07:00.926</time>
      </trkpt>
      <trkpt lat="42.52574" lon="2.06475">
        <ele>1863.8313479668</ele>
        <time>2000-05-11T14:07:01.926</time>
      </trkpt>
      <trkpt lat="42.52573" lon="2.06477">
        <ele>1864.551726542</ele>
        <time>2000-05-11T14:07:02.926</time>
      </trkpt>
      <trkpt lat="42.52572" lon="2.06479">
        <ele>1864.9627775662</ele>
        <time>2000-05-11T14:07:03.926</time>
      </trkpt>
      <trkpt lat="42.52572" lon="2.06479">
        <ele>1864.6179432642</ele>
        <time>2000-05-11T14:07:04.926</time>
      </trkpt>
      <trkpt lat="42.52572" lon="2.0648">
        <ele>1863.6690536769</ele>
        <time>2000-05-11T14:07:05.926</time>
      </trkpt>
      <trkpt lat="42.52572" lon="2.0648">
        <ele>1862.8891985757</ele>
        <time>2000-05-11T14:07:06.926</time>
      </trkpt>
      <trkpt lat="42.52572" lon="2.06482">
        <ele>1863.1901089877</ele>
        <time>2000-05-11T14:07:07.927</time>
      </trkpt>
      <trkpt lat="42.52572" lon="2.06484">
        <ele>1863.7139737615</ele>
        <time>2000-05-11T14:07:08.927</time>
      </trkpt>
      <trkpt lat="42.52571" lon="2.06485">
        <ele>1864.1599001134</ele>
        <time>2000-05-11T14:07:09.927</time>
      </trkpt>
      <trkpt lat="42.52571" lon="2.06486">
        <ele>1864.6441030061</ele>
        <time>2000-05-11T14:07:10.927</time>
      </trkpt>
      <trkpt lat="42.5257" lon="2.06488">
        <ele>1865.0213379258</ele>
        <time>2000-05-11T14:07:11.927</time>
      </trkpt>
      <trkpt lat="42.52569" lon="2.0649">
        <ele>1864.9595561007</ele>
        <time>2000-05-11T14:07:12.927</time>
      </trkpt>
      <trkpt lat="42.52569" lon="2.06491">
        <ele>1865.0082776688</ele>
        <time>2000-05-11T14:07:13.927</time>
      </trkpt>
      <trkpt lat="42.52569" lon="2.06491">
        <ele>1865.1349376589</ele>
        <time>2000-05-11T14:07:14.927</time>
      </trkpt>
      <trkpt lat="42.52569" lon="2.06491">
        <ele>1865.1682444695</ele>
        <time>2000-05-11T14:07:15.927</time>
      </trkpt>
      <trkpt lat="42.52568" lon="2.06493">
        <ele>1864.8977367107</ele>
        <time>2000-05-11T14:07:16.927</time>
      </trkpt>
      <trkpt lat="42.52567" lon="2.06494">
        <ele>1864.4218022721</ele>
        <time>2000-05-11T14:07:17.927</time>
      </trkpt>
      <trkpt lat="42.52566" lon="2.06496">
        <ele>1863.9842542581</ele>
        <time>2000-05-11T14:07:18.927</time>
      </trkpt>
      <trkpt lat="42.52565" lon="2.06497">
        <ele>1863.5943468491</ele>
        <time>2000-05-11T14:07:19.927</time>
      </trkpt>
      <trkpt lat="42.52565" lon="2.06498">
        <ele>1863.5511933729</ele>
        <time>2000-05-11T14:07:20.927</time>
      </trkpt>
      <trkpt lat="42.52565" lon="2.06499">
        <ele>1864.1386207746</ele>
        <time>2000-05-11T14:07:21.927</time>
      </trkpt>
      <trkpt lat="42.52564" lon="2.06501">
        <ele>1864.5734656978</ele>
        <time>2000-05-11T14:07:22.927</time>
      </trkpt>
      <trkpt lat="42.52564" lon="2.06502">
        <ele>1864.8473952398</ele>
        <time>2000-05-11T14:07:23.927</time>
      </trkpt>
      <trkpt lat="42.52563" lon="2.06503">
        <ele>1864.6618035721</ele>
        <time>2000-05-11T14:07:24.927</time>
      </trkpt>
      <trkpt lat="42.52563" lon="2.06504">
        <ele>1864.131096768</ele>
        <time>2000-05-11T14:07:25.927</time>
      </trkpt>
      <trkpt lat="42.52562" lon="2.06505">
        <ele>1863.2234942745</ele>
        <time>2000-05-11T14:07:26.927</time>
      </trkpt>
      <trkpt lat="42.52562" lon="2.06505">
        <ele>1862.4306604952</ele>
        <time>2000-05-11T14:07:27.927</time>
      </trkpt>
      <trkpt lat="42.52562" lon="2.06506">
        <ele>1861.6928883573</ele>
        <time>2000-05-11T14:07:28.927</time>
      </trkpt>
      <trkpt lat="42.52561" lon="2.06507">
        <ele>1861.4815091092</ele>
        <time>2000-05-11T14:07:29.927</time>
      </trkpt>
      <trkpt lat="42.52559" lon="2.06511">
        <ele>1861.4494432403</ele>
        <time>2000-05-11T14:07:30.927</time>
      </trkpt>
      <trkpt lat="42.52559" lon="2.06511">
        <ele>1861.4949213147</ele>
        <time>2000-05-11T14:07:31.927</time>
      </trkpt>
      <trkpt lat="42.52557" lon="2.06512">
        <ele>1861.2503873011</ele>
        <time>2000-05-11T14:07:32.931</time>
      </trkpt>
      <trkpt lat="42.52556" lon="2.06514">
        <ele>1860.9903552964</ele>
        <time>2000-05-11T14:07:33.931</time>
      </trkpt>
      <trkpt lat="42.52556" lon="2.06515">
        <ele>1860.6094310336</ele>
        <time>2000-05-11T14:07:34.931</time>
      </trkpt>
      <trkpt lat="42.52555" lon="2.06516">
        <ele>1860.3705936391</ele>
        <time>2000-05-11T14:07:35.931</time>
      </trkpt>
      <trkpt lat="42.52555" lon="2.06517">
        <ele>1860.1940725645</ele>
        <time>2000-05-11T14:07:36.931</time>
      </trkpt>
      <trkpt lat="42.52553" lon="2.06517">
        <ele>1860.2029904386</ele>
        <time>2000-05-11T14:07:37.931</time>
      </trkpt>
      <trkpt lat="42.52552" lon="2.06517">
        <ele>1860.1842018805</ele>
        <time>2000-05-11T14:07:38.931</time>
      </trkpt>
      <trkpt lat="42.52552" lon="2.06519">
        <ele>1860.1533439536</ele>
        <time>2000-05-11T14:07:39.931</time>
      </trkpt>
      <trkpt lat="42.52551" lon="2.06519">
        <ele>1859.8430662885</ele>
        <time>2000-05-11T14:07:40.931</time>
      </trkpt>
      <trkpt lat="42.52551" lon="2.0652">
        <ele>1859.423343719</ele>
        <time>2000-05-11T14:07:41.931</time>
      </trkpt>
      <trkpt lat="42.52551" lon="2.06521">
        <ele>1859.1668849757</ele>
        <time>2000-05-11T14:07:42.931</time>
      </trkpt>
      <trkpt lat="42.5255" lon="2.06522">
        <ele>1858.8516801994</ele>
        <time>2000-05-11T14:07:43.931</time>
      </trkpt>
      <trkpt lat="42.52549" lon="2.06523">
        <ele>1858.5372308834</ele>
        <time>2000-05-11T14:07:44.931</time>
      </trkpt>
      <trkpt lat="42.52547" lon="2.06524">
        <ele>1858.3240302803</ele>
        <time>2000-05-11T14:07:45.931</time>
      </trkpt>
      <trkpt lat="42.52546" lon="2.06525">
        <ele>1858.1675550556</ele>
        <time>2000-05-11T14:07:46.931</time>
      </trkpt>
      <trkpt lat="42.52545" lon="2.06526">
        <ele>1858.0373754967</ele>
        <time>2000-05-11T14:07:47.931</time>
      </trkpt>
      <trkpt lat="42.52545" lon="2.06527">
        <ele>1857.9375802433</ele>
        <time>2000-05-11T14:07:48.931</time>
      </trkpt>
      <trkpt lat="42.52544" lon="2.06528">
        <ele>1857.7190608041</ele>
        <time>2000-05-11T14:07:49.931</time>
      </trkpt>
      <trkpt lat="42.52544" lon="2.06529">
        <ele>1857.541999317</ele>
        <time>2000-05-11T14:07:50.931</time>
      </trkpt>
      <trkpt lat="42.52543" lon="2.0653">
        <ele>1857.3812195452</ele>
        <time>2000-05-11T14:07:51.931</time>
      </trkpt>
      <trkpt lat="42.52543" lon="2.06531">
        <ele>1857.4329433199</ele>
        <time>2000-05-11T14:07:52.931</time>
      </trkpt>
      <trkpt lat="42.52542" lon="2.06533">
        <ele>1857.8259046715</ele>
        <time>2000-05-11T14:07:53.931</time>
      </trkpt>
      <trkpt lat="42.52542" lon="2.06535">
        <ele>1858.9121919794</ele>
        <time>2000-05-11T14:07:54.931</time>
      </trkpt>
      <trkpt lat="42.52542" lon="2.06536">
        <ele>1860.2163299955</ele>
        <time>2000-05-11T14:07:55.931</time>
      </trkpt>
      <trkpt lat="42.52542" lon="2.06536">
        <ele>1861.4945895026</ele>
        <time>2000-05-11T14:07:56.931</time>
      </trkpt>
      <trkpt lat="42.52542" lon="2.06536">
        <ele>1862.5301770825</ele>
        <time>2000-05-11T14:07:57.931</time>
      </trkpt>
      <trkpt lat="42.52541" lon="2.06539">
        <ele>1863.5158621708</ele>
        <time>2000-05-11T14:07:58.941</time>
      </trkpt>
      <trkpt lat="42.52541" lon="2.0654">
        <ele>1863.9978720631</ele>
        <time>2000-05-11T14:07:59.941</time>
      </trkpt>
      <trkpt lat="42.5254" lon="2.06541">
        <ele>1864.1857516745</ele>
        <time>2000-05-11T14:08:00.941</time>
      </trkpt>
      <trkpt lat="42.52539" lon="2.06541">
        <ele>1864.3806999426</ele>
        <time>2000-05-11T14:08:01.941</time>
      </trkpt>
      <trkpt lat="42.52538" lon="2.06541">
        <ele>1864.3116814397</ele>
        <time>2000-05-11T14:08:02.942</time>
      </trkpt>
      <trkpt lat="42.52538" lon="2.06541">
        <ele>1864.0662311135</ele>
        <time>2000-05-11T14:08:03.942</time>
      </trkpt>
      <trkpt lat="42.52536" lon="2.06543">
        <ele>1863.6102362413</ele>
        <time>2000-05-11T14:08:04.942</time>
      </trkpt>
      <trkpt lat="42.52535" lon="2.06544">
        <ele>1862.9303994397</ele>
        <time>2000-05-11T14:08:05.942</time>
      </trkpt>
      <trkpt lat="42.52535" lon="2.06546">
        <ele>1862.3460541598</ele>
        <time>2000-05-11T14:08:06.942</time>
      </trkpt>
      <trkpt lat="42.52533" lon="2.06547">
        <ele>1861.8728083</ele>
        <time>2000-05-11T14:08:07.942</time>
      </trkpt>
      <trkpt lat="42.52533" lon="2.06548">
        <ele>1861.6348086843</ele>
        <time>2000-05-11T14:08:08.942</time>
      </trkpt>
      <trkpt lat="42.52533" lon="2.06549">
        <ele>1861.9842964632</ele>
        <time>2000-05-11T14:08:09.942</time>
      </trkpt>
      <trkpt lat="42.52533" lon="2.06549">
        <ele>1862.5994110763</ele>
        <time>2000-05-11T14:08:10.942</time>
      </trkpt>
      <trkpt lat="42.52533" lon="2.06551">
        <ele>1863.6796203826</ele>
        <time>2000-05-11T14:08:11.942</time>
      </trkpt>
      <trkpt lat="42.52532" lon="2.06552">
        <ele>1864.7165485982</ele>
        <time>2000-05-11T14:08:12.942</time>
      </trkpt>
      <trkpt lat="42.52532" lon="2.06552">
        <ele>1865.5182305695</ele>
        <time>2000-05-11T14:08:13.942</time>
      </trkpt>
      <trkpt lat="42.52531" lon="2.06555">
        <ele>1866.1278510651</ele>
        <time>2000-05-11T14:08:14.940</time>
      </trkpt>
      <trkpt lat="42.52531" lon="2.06555">
        <ele>1866.7374715606</ele>
        <time>2000-05-11T14:08:15.940</time>
      </trkpt>
      <trkpt lat="42.5253" lon="2.06558">
        <ele>1866.7446705904</ele>
        <time>2000-05-11T14:08:16.941</time>
      </trkpt>
      <trkpt lat="42.5253" lon="2.06561">
        <ele>1867.2041641215</ele>
        <time>2000-05-11T14:08:17.941</time>
      </trkpt>
      <trkpt lat="42.52529" lon="2.06562">
        <ele>1867.6832711363</ele>
        <time>2000-05-11T14:08:18.941</time>
      </trkpt>
      <trkpt lat="42.52529" lon="2.06564">
        <ele>1868.0509250611</ele>
        <time>2000-05-11T14:08:19.941</time>
      </trkpt>
      <trkpt lat="42.52528" lon="2.06565">
        <ele>1868.5101463092</ele>
        <time>2000-05-11T14:08:20.941</time>
      </trkpt>
      <trkpt lat="42.52527" lon="2.06566">
        <ele>1869.1672920223</ele>
        <time>2000-05-11T14:08:21.941</time>
      </trkpt>
      <trkpt lat="42.52526" lon="2.06567">
        <ele>1869.5116238499</ele>
        <time>2000-05-11T14:08:22.941</time>
      </trkpt>
      <trkpt lat="42.52524" lon="2.06568">
        <ele>1869.6570481542</ele>
        <time>2000-05-11T14:08:23.941</time>
      </trkpt>
      <trkpt lat="42.52524" lon="2.06568">
        <ele>1869.6758114832</ele>
        <time>2000-05-11T14:08:24.941</time>
      </trkpt>
      <trkpt lat="42.52524" lon="2.06568">
        <ele>1869.6030074887</ele>
        <time>2000-05-11T14:08:25.941</time>
      </trkpt>
      <trkpt lat="42.52523" lon="2.0657">
        <ele>1869.3796778953</ele>
        <time>2000-05-11T14:08:26.942</time>
      </trkpt>
      <trkpt lat="42.52522" lon="2.06571">
        <ele>1869.1885308839</ele>
        <time>2000-05-11T14:08:27.942</time>
      </trkpt>
      <trkpt lat="42.52521" lon="2.06572">
        <ele>1869.1224012638</ele>
        <time>2000-05-11T14:08:28.942</time>
      </trkpt>
      <trkpt lat="42.52521" lon="2.06574">
        <ele>1869.1101177035</ele>
        <time>2000-05-11T14:08:29.942</time>
      </trkpt>
      <trkpt lat="42.52521" lon="2.06575">
        <ele>1869.1281675009</ele>
        <time>2000-05-11T14:08:30.942</time>
      </trkpt>
      <trkpt lat="42.52519" lon="2.06577">
        <ele>1868.9069124358</ele>
        <time>2000-05-11T14:08:31.942</time>
      </trkpt>
      <trkpt lat="42.52519" lon="2.06578">
        <ele>1868.6572772805</ele>
        <time>2000-05-11T14:08:32.942</time>
      </trkpt>
      <trkpt lat="42.52518" lon="2.06579">
        <ele>1868.7655142378</ele>
        <time>2000-05-11T14:08:33.942</time>
      </trkpt>
      <trkpt lat="42.52518" lon="2.0658">
        <ele>1868.7845050702</ele>
        <time>2000-05-11T14:08:34.942</time>
      </trkpt>
      <trkpt lat="42.52517" lon="2.06582">
        <ele>1868.8096218826</ele>
        <time>2000-05-11T14:08:35.942</time>
      </trkpt>
      <trkpt lat="42.52516" lon="2.06583">
        <ele>1869.1633197187</ele>
        <time>2000-05-11T14:08:36.942</time>
      </trkpt>
      <trkpt lat="42.52516" lon="2.06584">
        <ele>1869.6647294978</ele>
        <time>2000-05-11T14:08:37.942</time>
      </trkpt>
      <trkpt lat="42.52514" lon="2.06584">
        <ele>1869.6357440559</ele>
        <time>2000-05-11T14:08:38.942</time>
      </trkpt>
      <trkpt lat="42.52514" lon="2.06586">
        <ele>1869.5505134387</ele>
        <time>2000-05-11T14:08:39.942</time>
      </trkpt>
      <trkpt lat="42.52512" lon="2.06587">
        <ele>1869.2116027566</ele>
        <time>2000-05-11T14:08:40.942</time>
      </trkpt>
      <trkpt lat="42.52512" lon="2.06589">
        <ele>1868.8084335318</ele>
        <time>2000-05-11T14:08:41.942</time>
      </trkpt>
      <trkpt lat="42.52511" lon="2.0659">
        <ele>1868.2109988814</ele>
        <time>2000-05-11T14:08:42.942</time>
      </trkpt>
      <trkpt lat="42.5251" lon="2.06591">
        <ele>1867.9117817404</ele>
        <time>2000-05-11T14:08:43.942</time>
      </trkpt>
      <trkpt lat="42.5251" lon="2.06592">
        <ele>1867.5896545162</ele>
        <time>2000-05-11T14:08:44.942</time>
      </trkpt>
      <trkpt lat="42.5251" lon="2.06592">
        <ele>1867.4847480193</ele>
        <time>2000-05-11T14:08:45.942</time>
      </trkpt>
      <trkpt lat="42.52509" lon="2.06593">
        <ele>1867.2042084724</ele>
        <time>2000-05-11T14:08:46.942</time>
      </trkpt>
      <trkpt lat="42.52507" lon="2.06594">
        <ele>1866.9752681103</ele>
        <time>2000-05-11T14:08:47.942</time>
      </trkpt>
      <trkpt lat="42.52505" lon="2.06595">
        <ele>1866.3440065442</ele>
        <time>2000-05-11T14:08:48.942</time>
      </trkpt>
      <trkpt lat="42.52505" lon="2.06597">
        <ele>1866.3199021764</ele>
        <time>2000-05-11T14:08:49.942</time>
      </trkpt>
      <trkpt lat="42.52505" lon="2.06597">
        <ele>1866.2957978087</ele>
        <time>2000-05-11T14:08:50.942</time>
      </trkpt>
      <trkpt lat="42.52504" lon="2.06597">
        <ele>1866.2020122791</ele>
        <time>2000-05-11T14:08:51.942</time>
      </trkpt>
      <trkpt lat="42.52504" lon="2.06599">
        <ele>1866.141579367</ele>
        <time>2000-05-11T14:08:52.942</time>
      </trkpt>
      <trkpt lat="42.52503" lon="2.066">
        <ele>1866.2540230135</ele>
        <time>2000-05-11T14:08:53.942</time>
      </trkpt>
      <trkpt lat="42.52503" lon="2.066">
        <ele>1865.873864785</ele>
        <time>2000-05-11T14:08:54.942</time>
      </trkpt>
      <trkpt lat="42.52502" lon="2.06601">
        <ele>1865.5665288368</ele>
        <time>2000-05-11T14:08:55.942</time>
      </trkpt>
      <trkpt lat="42.52501" lon="2.06602">
        <ele>1865.5019502087</ele>
        <time>2000-05-11T14:08:56.942</time>
      </trkpt>
      <trkpt lat="42.525" lon="2.06603">
        <ele>1865.4736914769</ele>
        <time>2000-05-11T14:08:57.940</time>
      </trkpt>
      <trkpt lat="42.52499" lon="2.06604">
        <ele>1865.8524275051</ele>
        <time>2000-05-11T14:08:58.940</time>
      </trkpt>
      <trkpt lat="42.52499" lon="2.06605">
        <ele>1866.2325347532</ele>
        <time>2000-05-11T14:08:59.940</time>
      </trkpt>
      <trkpt lat="42.52498" lon="2.06606">
        <ele>1866.4273626072</ele>
        <time>2000-05-11T14:09:00.937</time>
      </trkpt>
      <trkpt lat="42.52497" lon="2.06606">
        <ele>1866.3754048401</ele>
        <time>2000-05-11T14:09:01.937</time>
      </trkpt>
      <trkpt lat="42.52496" lon="2.06607">
        <ele>1866.108250696</ele>
        <time>2000-05-11T14:09:02.937</time>
      </trkpt>
      <trkpt lat="42.52496" lon="2.06609">
        <ele>1865.5377463769</ele>
        <time>2000-05-11T14:09:03.937</time>
      </trkpt>
      <trkpt lat="42.52496" lon="2.06611">
        <ele>1864.9737307383</ele>
        <time>2000-05-11T14:09:04.937</time>
      </trkpt>
      <trkpt lat="42.52496" lon="2.06611">
        <ele>1864.5221722133</ele>
        <time>2000-05-11T14:09:05.937</time>
      </trkpt>
      <trkpt lat="42.52495" lon="2.06612">
        <ele>1863.9663120668</ele>
        <time>2000-05-11T14:09:06.937</time>
      </trkpt>
      <trkpt lat="42.52494" lon="2.06614">
        <ele>1863.5774688177</ele>
        <time>2000-05-11T14:09:07.937</time>
      </trkpt>
      <trkpt lat="42.52493" lon="2.06615">
        <ele>1863.4429910567</ele>
        <time>2000-05-11T14:09:08.937</time>
      </trkpt>
      <trkpt lat="42.52492" lon="2.06617">
        <ele>1863.4385615954</ele>
        <time>2000-05-11T14:09:09.937</time>
      </trkpt>
      <trkpt lat="42.52491" lon="2.06619">
        <ele>1863.5114938291</ele>
        <time>2000-05-11T14:09:10.937</time>
      </trkpt>
      <trkpt lat="42.52491" lon="2.0662">
        <ele>1863.9161632335</ele>
        <time>2000-05-11T14:09:11.937</time>
      </trkpt>
      <trkpt lat="42.52491" lon="2.0662">
        <ele>1864.3471592354</ele>
        <time>2000-05-11T14:09:12.937</time>
      </trkpt>
      <trkpt lat="42.52491" lon="2.0662">
        <ele>1864.5196439961</ele>
        <time>2000-05-11T14:09:13.937</time>
      </trkpt>
      <trkpt lat="42.52489" lon="2.06623">
        <ele>1864.1529328501</ele>
        <time>2000-05-11T14:09:14.935</time>
      </trkpt>
      <trkpt lat="42.52488" lon="2.06624">
        <ele>1863.7692913616</ele>
        <time>2000-05-11T14:09:15.935</time>
      </trkpt>
      <trkpt lat="42.52487" lon="2.06625">
        <ele>1863.4192724569</ele>
        <time>2000-05-11T14:09:16.935</time>
      </trkpt>
      <trkpt lat="42.52486" lon="2.06626">
        <ele>1863.1643454412</ele>
        <time>2000-05-11T14:09:17.935</time>
      </trkpt>
      <trkpt lat="42.52486" lon="2.06627">
        <ele>1863.1764373643</ele>
        <time>2000-05-11T14:09:18.935</time>
      </trkpt>
      <trkpt lat="42.52485" lon="2.06628">
        <ele>1863.6880687855</ele>
        <time>2000-05-11T14:09:19.935</time>
      </trkpt>
      <trkpt lat="42.52485" lon="2.0663">
        <ele>1864.1572518643</ele>
        <time>2000-05-11T14:09:20.935</time>
      </trkpt>
      <trkpt lat="42.52485" lon="2.0663">
        <ele>1864.5770694327</ele>
        <time>2000-05-11T14:09:21.935</time>
      </trkpt>
      <trkpt lat="42.52483" lon="2.06631">
        <ele>1864.3548474321</ele>
        <time>2000-05-11T14:09:22.935</time>
      </trkpt>
      <trkpt lat="42.52481" lon="2.06633">
        <ele>1863.4739308478</ele>
        <time>2000-05-11T14:09:23.935</time>
      </trkpt>
      <trkpt lat="42.5248" lon="2.06634">
        <ele>1862.4650622388</ele>
        <time>2000-05-11T14:09:24.935</time>
      </trkpt>
      <trkpt lat="42.52479" lon="2.06637">
        <ele>1861.5636539016</ele>
        <time>2000-05-11T14:09:25.935</time>
      </trkpt>
      <trkpt lat="42.52478" lon="2.06639">
        <ele>1860.9313561851</ele>
        <time>2000-05-11T14:09:26.935</time>
      </trkpt>
      <trkpt lat="42.52477" lon="2.06639">
        <ele>1860.6945984639</ele>
        <time>2000-05-11T14:09:27.935</time>
      </trkpt>
      <trkpt lat="42.52477" lon="2.06639">
        <ele>1860.9080444485</ele>
        <time>2000-05-11T14:09:28.935</time>
      </trkpt>
      <trkpt lat="42.52477" lon="2.06639">
        <ele>1861.1511906665</ele>
        <time>2000-05-11T14:09:29.935</time>
      </trkpt>
      <trkpt lat="42.52476" lon="2.0664">
        <ele>1861.2600293379</ele>
        <time>2000-05-11T14:09:30.935</time>
      </trkpt>
      <trkpt lat="42.52476" lon="2.06643">
        <ele>1861.5856454402</ele>
        <time>2000-05-11T14:09:31.935</time>
      </trkpt>
      <trkpt lat="42.52475" lon="2.06644">
        <ele>1861.7289618209</ele>
        <time>2000-05-11T14:09:32.935</time>
      </trkpt>
      <trkpt lat="42.52474" lon="2.06646">
        <ele>1862.0855789574</ele>
        <time>2000-05-11T14:09:33.935</time>
      </trkpt>
      <trkpt lat="42.52473" lon="2.06646">
        <ele>1862.4202706829</ele>
        <time>2000-05-11T14:09:34.935</time>
      </trkpt>
      <trkpt lat="42.52472" lon="2.06648">
        <ele>1862.4989122419</ele>
        <time>2000-05-11T14:09:35.935</time>
      </trkpt>
      <trkpt lat="42.52471" lon="2.06649">
        <ele>1861.964053835</ele>
        <time>2000-05-11T14:09:36.935</time>
      </trkpt>
      <trkpt lat="42.5247" lon="2.0665">
        <ele>1861.9998875523</ele>
        <time>2000-05-11T14:09:37.935</time>
      </trkpt>
      <trkpt lat="42.52469" lon="2.06652">
        <ele>1861.9951915732</ele>
        <time>2000-05-11T14:09:38.935</time>
      </trkpt>
      <trkpt lat="42.52468" lon="2.06653">
        <ele>1862.2511718232</ele>
        <time>2000-05-11T14:09:39.935</time>
      </trkpt>
      <trkpt lat="42.52468" lon="2.06653">
        <ele>1862.7720665045</ele>
        <time>2000-05-11T14:09:40.935</time>
      </trkpt>
      <trkpt lat="42.52468" lon="2.06653">
        <ele>1863.4205731001</ele>
        <time>2000-05-11T14:09:41.935</time>
      </trkpt>
      <trkpt lat="42.52467" lon="2.06654">
        <ele>1863.8628625015</ele>
        <time>2000-05-11T14:09:42.934</time>
      </trkpt>
      <trkpt lat="42.52466" lon="2.06655">
        <ele>1863.7869667005</ele>
        <time>2000-05-11T14:09:43.934</time>
      </trkpt>
      <trkpt lat="42.52464" lon="2.06654">
        <ele>1862.8420755206</ele>
        <time>2000-05-11T14:09:44.934</time>
      </trkpt>
      <trkpt lat="42.52462" lon="2.06654">
        <ele>1861.3107707584</ele>
        <time>2000-05-11T14:09:45.934</time>
      </trkpt>
      <trkpt lat="42.5246" lon="2.06653">
        <ele>1859.358364098</ele>
        <time>2000-05-11T14:09:46.934</time>
      </trkpt>
      <trkpt lat="42.5246" lon="2.06652">
        <ele>1857.7869756626</ele>
        <time>2000-05-11T14:09:47.934</time>
      </trkpt>
      <trkpt lat="42.5246" lon="2.06652">
        <ele>1856.5610013703</ele>
        <time>2000-05-11T14:09:48.934</time>
      </trkpt>
      <trkpt lat="42.5246" lon="2.06652">
        <ele>1855.9652716387</ele>
        <time>2000-05-11T14:09:49.934</time>
      </trkpt>
      <trkpt lat="42.52459" lon="2.06653">
        <ele>1856.353732598</ele>
        <time>2000-05-11T14:09:50.935</time>
      </trkpt>
      <trkpt lat="42.52458" lon="2.06656">
        <ele>1857.6377324106</ele>
        <time>2000-05-11T14:09:51.935</time>
      </trkpt>
      <trkpt lat="42.52457" lon="2.06657">
        <ele>1859.1025416147</ele>
        <time>2000-05-11T14:09:52.935</time>
      </trkpt>
      <trkpt lat="42.52456" lon="2.06658">
        <ele>1860.7620564936</ele>
        <time>2000-05-11T14:09:53.935</time>
      </trkpt>
      <trkpt lat="42.52454" lon="2.06658">
        <ele>1862.3064318059</ele>
        <time>2000-05-11T14:09:54.935</time>
      </trkpt>
      <trkpt lat="42.52453" lon="2.06659">
        <ele>1863.2726262545</ele>
        <time>2000-05-11T14:09:55.935</time>
      </trkpt>
      <trkpt lat="42.52451" lon="2.06661">
        <ele>1863.4805245128</ele>
        <time>2000-05-11T14:09:56.935</time>
      </trkpt>
      <trkpt lat="42.52451" lon="2.06663">
        <ele>1863.4760508703</ele>
        <time>2000-05-11T14:09:57.935</time>
      </trkpt>
      <trkpt lat="42.52451" lon="2.06664">
        <ele>1863.4815250352</ele>
        <time>2000-05-11T14:09:58.935</time>
      </trkpt>
      <trkpt lat="42.5245" lon="2.06666">
        <ele>1863.8529570395</ele>
        <time>2000-05-11T14:09:59.935</time>
      </trkpt>
      <trkpt lat="42.5245" lon="2.06666">
        <ele>1864.4047927989</ele>
        <time>2000-05-11T14:10:00.935</time>
      </trkpt>
      <trkpt lat="42.5245" lon="2.06666">
        <ele>1865.2046341829</ele>
        <time>2000-05-11T14:10:01.935</time>
      </trkpt>
      <trkpt lat="42.52449" lon="2.06667">
        <ele>1865.5864059694</ele>
        <time>2000-05-11T14:10:02.935</time>
      </trkpt>
      <trkpt lat="42.52448" lon="2.06669">
        <ele>1865.8309766045</ele>
        <time>2000-05-11T14:10:03.935</time>
      </trkpt>
      <trkpt lat="42.52446" lon="2.0667">
        <ele>1865.7591370367</ele>
        <time>2000-05-11T14:10:04.935</time>
      </trkpt>
      <trkpt lat="42.52444" lon="2.0667">
        <ele>1865.4587370748</ele>
        <time>2000-05-11T14:10:05.935</time>
      </trkpt>
      <trkpt lat="42.52442" lon="2.0667">
        <ele>1865.1217765555</ele>
        <time>2000-05-11T14:10:06.935</time>
      </trkpt>
      <trkpt lat="42.52442" lon="2.0667">
        <ele>1864.6769519998</ele>
        <time>2000-05-11T14:10:07.935</time>
      </trkpt>
      <trkpt lat="42.5244" lon="2.06671">
        <ele>1864.1135485815</ele>
        <time>2000-05-11T14:10:08.935</time>
      </trkpt>
      <trkpt lat="42.5244" lon="2.06671">
        <ele>1863.6157370932</ele>
        <time>2000-05-11T14:10:09.935</time>
      </trkpt>
      <trkpt lat="42.5244" lon="2.06671">
        <ele>1863.346485999</ele>
        <time>2000-05-11T14:10:10.935</time>
      </trkpt>
      <trkpt lat="42.52439" lon="2.06672">
        <ele>1863.2446043473</ele>
        <time>2000-05-11T14:10:11.935</time>
      </trkpt>
      <trkpt lat="42.52438" lon="2.06673">
        <ele>1863.245001895</ele>
        <time>2000-05-11T14:10:12.937</time>
      </trkpt>
      <trkpt lat="42.52438" lon="2.06673">
        <ele>1863.2131821459</ele>
        <time>2000-05-11T14:10:13.937</time>
      </trkpt>
      <trkpt lat="42.52437" lon="2.06675">
        <ele>1863.2186894497</ele>
        <time>2000-05-11T14:10:14.935</time>
      </trkpt>
      <trkpt lat="42.52437" lon="2.06677">
        <ele>1863.3915054774</ele>
        <time>2000-05-11T14:10:15.935</time>
      </trkpt>
      <trkpt lat="42.52436" lon="2.06678">
        <ele>1863.632456422</ele>
        <time>2000-05-11T14:10:16.935</time>
      </trkpt>
      <trkpt lat="42.52436" lon="2.06678">
        <ele>1863.8018764257</ele>
        <time>2000-05-11T14:10:17.935</time>
      </trkpt>
      <trkpt lat="42.52435" lon="2.06676">
        <ele>1863.3770035461</ele>
        <time>2000-05-11T14:10:18.935</time>
      </trkpt>
      <trkpt lat="42.52434" lon="2.06676">
        <ele>1862.515177023</ele>
        <time>2000-05-11T14:10:19.935</time>
      </trkpt>
      <trkpt lat="42.52434" lon="2.06676">
        <ele>1861.4860417761</ele>
        <time>2000-05-11T14:10:20.935</time>
      </trkpt>
      <trkpt lat="42.52433" lon="2.06677">
        <ele>1859.9441523436</ele>
        <time>2000-05-11T14:10:21.932</time>
      </trkpt>
      <trkpt lat="42.52433" lon="2.06677">
        <ele>1858.6742381994</ele>
        <time>2000-05-11T14:10:22.932</time>
      </trkpt>
      <trkpt lat="42.52433" lon="2.06679">
        <ele>1858.7297866864</ele>
        <time>2000-05-11T14:10:23.933</time>
      </trkpt>
      <trkpt lat="42.52432" lon="2.06681">
        <ele>1859.3401124047</ele>
        <time>2000-05-11T14:10:24.933</time>
      </trkpt>
      <trkpt lat="42.52432" lon="2.06683">
        <ele>1860.1509853983</ele>
        <time>2000-05-11T14:10:25.933</time>
      </trkpt>
      <trkpt lat="42.52431" lon="2.06684">
        <ele>1861.5219110955</ele>
        <time>2000-05-11T14:10:26.933</time>
      </trkpt>
      <trkpt lat="42.5243" lon="2.06685">
        <ele>1863.0716203948</ele>
        <time>2000-05-11T14:10:27.933</time>
      </trkpt>
      <trkpt lat="42.5243" lon="2.06685">
        <ele>1863.973503775</ele>
        <time>2000-05-11T14:10:28.933</time>
      </trkpt>
      <trkpt lat="42.52429" lon="2.06687">
        <ele>1864.4497628268</ele>
        <time>2000-05-11T14:10:29.933</time>
      </trkpt>
      <trkpt lat="42.52428" lon="2.06689">
        <ele>1864.517494709</ele>
        <time>2000-05-11T14:10:30.933</time>
      </trkpt>
      <trkpt lat="42.52426" lon="2.0669">
        <ele>1864.4113133825</ele>
        <time>2000-05-11T14:10:31.933</time>
      </trkpt>
      <trkpt lat="42.52424" lon="2.06691">
        <ele>1864.0122740211</ele>
        <time>2000-05-11T14:10:32.933</time>
      </trkpt>
      <trkpt lat="42.52423" lon="2.06691">
        <ele>1863.4327288058</ele>
        <time>2000-05-11T14:10:33.933</time>
      </trkpt>
      <trkpt lat="42.52423" lon="2.06691">
        <ele>1863.123657278</ele>
        <time>2000-05-11T14:10:34.933</time>
      </trkpt>
      <trkpt lat="42.52423" lon="2.06691">
        <ele>1863.0225656444</ele>
        <time>2000-05-11T14:10:35.933</time>
      </trkpt>
      <trkpt lat="42.52423" lon="2.06693">
        <ele>1862.2914944338</ele>
        <time>2000-05-11T14:10:36.932</time>
      </trkpt>
      <trkpt lat="42.52422" lon="2.06693">
        <ele>1861.4611171635</ele>
        <time>2000-05-11T14:10:37.932</time>
      </trkpt>
      <trkpt lat="42.52421" lon="2.06694">
        <ele>1860.3456311306</ele>
        <time>2000-05-11T14:10:38.932</time>
      </trkpt>
      <trkpt lat="42.5242" lon="2.06695">
        <ele>1859.1189193713</ele>
        <time>2000-05-11T14:10:39.932</time>
      </trkpt>
      <trkpt lat="42.52419" lon="2.06696">
        <ele>1857.6671349239</ele>
        <time>2000-05-11T14:10:40.932</time>
      </trkpt>
      <trkpt lat="42.52417" lon="2.06696">
        <ele>1856.7508045686</ele>
        <time>2000-05-11T14:10:41.932</time>
      </trkpt>
      <trkpt lat="42.52417" lon="2.06697">
        <ele>1855.9328689283</ele>
        <time>2000-05-11T14:10:42.932</time>
      </trkpt>
      <trkpt lat="42.52416" lon="2.06698">
        <ele>1855.8099615188</ele>
        <time>2000-05-11T14:10:43.932</time>
      </trkpt>
      <trkpt lat="42.52416" lon="2.067">
        <ele>1855.990878672</ele>
        <time>2000-05-11T14:10:44.932</time>
      </trkpt>
      <trkpt lat="42.52415" lon="2.067">
        <ele>1856.4996566217</ele>
        <time>2000-05-11T14:10:45.932</time>
      </trkpt>
      <trkpt lat="42.52415" lon="2.06701">
        <ele>1857.2033540783</ele>
        <time>2000-05-11T14:10:46.932</time>
      </trkpt>
      <trkpt lat="42.52414" lon="2.06703">
        <ele>1858.0968151404</ele>
        <time>2000-05-11T14:10:47.932</time>
      </trkpt>
      <trkpt lat="42.52415" lon="2.06704">
        <ele>1859.0233701659</ele>
        <time>2000-05-11T14:10:48.932</time>
      </trkpt>
      <trkpt lat="42.52415" lon="2.06705">
        <ele>1859.7160393322</ele>
        <time>2000-05-11T14:10:49.932</time>
      </trkpt>
      <trkpt lat="42.52415" lon="2.06705">
        <ele>1860.3059203899</ele>
        <time>2000-05-11T14:10:50.932</time>
      </trkpt>
      <trkpt lat="42.52414" lon="2.06706">
        <ele>1860.9043180015</ele>
        <time>2000-05-11T14:10:51.932</time>
      </trkpt>
      <trkpt lat="42.52414" lon="2.06706">
        <ele>1861.2709246326</ele>
        <time>2000-05-11T14:10:52.932</time>
      </trkpt>
      <trkpt lat="42.52412" lon="2.06709">
        <ele>1861.532061303</ele>
        <time>2000-05-11T14:10:53.932</time>
      </trkpt>
      <trkpt lat="42.52411" lon="2.06708">
        <ele>1861.3490243191</ele>
        <time>2000-05-11T14:10:54.932</time>
      </trkpt>
      <trkpt lat="42.52411" lon="2.06708">
        <ele>1861.1659873351</ele>
        <time>2000-05-11T14:10:55.932</time>
      </trkpt>
      <trkpt lat="42.5241" lon="2.0671">
        <ele>1860.9978499791</ele>
        <time>2000-05-11T14:10:56.932</time>
      </trkpt>
      <trkpt lat="42.52409" lon="2.06711">
        <ele>1860.912317891</ele>
        <time>2000-05-11T14:10:57.932</time>
      </trkpt>
      <trkpt lat="42.52408" lon="2.06711">
        <ele>1860.7421979582</ele>
        <time>2000-05-11T14:10:58.932</time>
      </trkpt>
      <trkpt lat="42.52407" lon="2.06712">
        <ele>1861.2254868489</ele>
        <time>2000-05-11T14:10:59.932</time>
      </trkpt>
      <trkpt lat="42.52406" lon="2.06713">
        <ele>1861.6991874157</ele>
        <time>2000-05-11T14:11:00.932</time>
      </trkpt>
      <trkpt lat="42.52405" lon="2.06713">
        <ele>1862.0194628604</ele>
        <time>2000-05-11T14:11:01.932</time>
      </trkpt>
      <trkpt lat="42.52404" lon="2.06714">
        <ele>1862.7010113398</ele>
        <time>2000-05-11T14:11:02.932</time>
      </trkpt>
      <trkpt lat="42.52404" lon="2.06714">
        <ele>1863.3101100467</ele>
        <time>2000-05-11T14:11:03.932</time>
      </trkpt>
      <trkpt lat="42.52403" lon="2.06715">
        <ele>1863.5252225226</ele>
        <time>2000-05-11T14:11:04.932</time>
      </trkpt>
      <trkpt lat="42.52402" lon="2.06716">
        <ele>1863.5976647563</ele>
        <time>2000-05-11T14:11:05.932</time>
      </trkpt>
      <trkpt lat="42.52402" lon="2.06716">
        <ele>1863.734962718</ele>
        <time>2000-05-11T14:11:06.932</time>
      </trkpt>
      <trkpt lat="42.52401" lon="2.06717">
        <ele>1863.2634041101</ele>
        <time>2000-05-11T14:11:07.933</time>
      </trkpt>
      <trkpt lat="42.524" lon="2.06718">
        <ele>1862.8094154852</ele>
        <time>2000-05-11T14:11:08.933</time>
      </trkpt>
      <trkpt lat="42.52398" lon="2.0672">
        <ele>1862.750422895</ele>
        <time>2000-05-11T14:11:09.933</time>
      </trkpt>
      <trkpt lat="42.52397" lon="2.06721">
        <ele>1862.8521856401</ele>
        <time>2000-05-11T14:11:10.933</time>
      </trkpt>
      <trkpt lat="42.52397" lon="2.06722">
        <ele>1863.2458952468</ele>
        <time>2000-05-11T14:11:11.933</time>
      </trkpt>
      <trkpt lat="42.52396" lon="2.06723">
        <ele>1863.8427562645</ele>
        <time>2000-05-11T14:11:12.933</time>
      </trkpt>
      <trkpt lat="42.52395" lon="2.06724">
        <ele>1864.445085481</ele>
        <time>2000-05-11T14:11:13.933</time>
      </trkpt>
      <trkpt lat="42.52395" lon="2.06726">
        <ele>1865.0146143736</ele>
        <time>2000-05-11T14:11:14.933</time>
      </trkpt>
      <trkpt lat="42.52393" lon="2.06726">
        <ele>1865.569013837</ele>
        <time>2000-05-11T14:11:15.933</time>
      </trkpt>
      <trkpt lat="42.52393" lon="2.06728">
        <ele>1866.1523192137</ele>
        <time>2000-05-11T14:11:16.933</time>
      </trkpt>
      <trkpt lat="42.52393" lon="2.06728">
        <ele>1866.6974514464</ele>
        <time>2000-05-11T14:11:17.933</time>
      </trkpt>
      <trkpt lat="42.52393" lon="2.06728">
        <ele>1867.2195454972</ele>
        <time>2000-05-11T14:11:18.933</time>
      </trkpt>
      <trkpt lat="42.52392" lon="2.06729">
        <ele>1867.3164151335</ele>
        <time>2000-05-11T14:11:19.933</time>
      </trkpt>
      <trkpt lat="42.52391" lon="2.06731">
        <ele>1867.5500241438</ele>
        <time>2000-05-11T14:11:20.930</time>
      </trkpt>
      <trkpt lat="42.52389" lon="2.06732">
        <ele>1867.3458443962</ele>
        <time>2000-05-11T14:11:21.930</time>
      </trkpt>
      <trkpt lat="42.52389" lon="2.06734">
        <ele>1867.4874455204</ele>
        <time>2000-05-11T14:11:22.930</time>
      </trkpt>
      <trkpt lat="42.52389" lon="2.06735">
        <ele>1867.8339393016</ele>
        <time>2000-05-11T14:11:23.930</time>
      </trkpt>
      <trkpt lat="42.52389" lon="2.06735">
        <ele>1868.4694998715</ele>
        <time>2000-05-11T14:11:24.930</time>
      </trkpt>
      <trkpt lat="42.52388" lon="2.06736">
        <ele>1868.985282292</ele>
        <time>2000-05-11T14:11:25.930</time>
      </trkpt>
      <trkpt lat="42.52386" lon="2.06737">
        <ele>1869.5147689357</ele>
        <time>2000-05-11T14:11:26.930</time>
      </trkpt>
      <trkpt lat="42.52385" lon="2.06738">
        <ele>1869.4617235379</ele>
        <time>2000-05-11T14:11:27.930</time>
      </trkpt>
      <trkpt lat="42.52383" lon="2.06739">
        <ele>1869.2083346251</ele>
        <time>2000-05-11T14:11:28.930</time>
      </trkpt>
      <trkpt lat="42.52382" lon="2.06739">
        <ele>1868.9084189467</ele>
        <time>2000-05-11T14:11:29.930</time>
      </trkpt>
      <trkpt lat="42.52381" lon="2.0674">
        <ele>1868.5058111127</ele>
        <time>2000-05-11T14:11:30.930</time>
      </trkpt>
      <trkpt lat="42.5238" lon="2.06741">
        <ele>1867.9400202975</ele>
        <time>2000-05-11T14:11:31.930</time>
      </trkpt>
      <trkpt lat="42.52379" lon="2.06742">
        <ele>1867.8075798675</ele>
        <time>2000-05-11T14:11:32.930</time>
      </trkpt>
      <trkpt lat="42.52379" lon="2.06743">
        <ele>1867.7749214804</ele>
        <time>2000-05-11T14:11:33.930</time>
      </trkpt>
      <trkpt lat="42.52378" lon="2.06744">
        <ele>1868.4772028599</ele>
        <time>2000-05-11T14:11:34.930</time>
      </trkpt>
      <trkpt lat="42.52378" lon="2.06745">
        <ele>1869.4071972692</ele>
        <time>2000-05-11T14:11:35.930</time>
      </trkpt>
      <trkpt lat="42.52378" lon="2.06745">
        <ele>1870.5896395339</ele>
        <time>2000-05-11T14:11:36.930</time>
      </trkpt>
      <trkpt lat="42.52377" lon="2.06746">
        <ele>1871.9436623123</ele>
        <time>2000-05-11T14:11:37.930</time>
      </trkpt>
      <trkpt lat="42.52376" lon="2.06748">
        <ele>1873.2890934031</ele>
        <time>2000-05-11T14:11:38.933</time>
      </trkpt>
      <trkpt lat="42.52375" lon="2.06748">
        <ele>1874.1461435642</ele>
        <time>2000-05-11T14:11:39.933</time>
      </trkpt>
      <trkpt lat="42.52375" lon="2.06749">
        <ele>1874.9276591228</ele>
        <time>2000-05-11T14:11:40.933</time>
      </trkpt>
      <trkpt lat="42.52374" lon="2.06751">
        <ele>1875.910241746</ele>
        <time>2000-05-11T14:11:41.933</time>
      </trkpt>
      <trkpt lat="42.52374" lon="2.06751">
        <ele>1876.5344083067</ele>
        <time>2000-05-11T14:11:42.933</time>
      </trkpt>
      <trkpt lat="42.52373" lon="2.06752">
        <ele>1876.9769724241</ele>
        <time>2000-05-11T14:11:43.933</time>
      </trkpt>
      <trkpt lat="42.52371" lon="2.06752">
        <ele>1877.1564135844</ele>
        <time>2000-05-11T14:11:44.933</time>
      </trkpt>
      <trkpt lat="42.52369" lon="2.06753">
        <ele>1877.0986303734</ele>
        <time>2000-05-11T14:11:45.933</time>
      </trkpt>
      <trkpt lat="42.52368" lon="2.06754">
        <ele>1876.5889699934</ele>
        <time>2000-05-11T14:11:46.933</time>
      </trkpt>
      <trkpt lat="42.52368" lon="2.06755">
        <ele>1875.8176629044</ele>
        <time>2000-05-11T14:11:47.933</time>
      </trkpt>
      <trkpt lat="42.52367" lon="2.06756">
        <ele>1874.9136396209</ele>
        <time>2000-05-11T14:11:48.933</time>
      </trkpt>
      <trkpt lat="42.52365" lon="2.06757">
        <ele>1873.7401131166</ele>
        <time>2000-05-11T14:11:49.933</time>
      </trkpt>
      <trkpt lat="42.52364" lon="2.06758">
        <ele>1872.4505513821</ele>
        <time>2000-05-11T14:11:50.933</time>
      </trkpt>
      <trkpt lat="42.52363" lon="2.06759">
        <ele>1871.0860014712</ele>
        <time>2000-05-11T14:11:51.933</time>
      </trkpt>
      <trkpt lat="42.52362" lon="2.0676">
        <ele>1869.8525731131</ele>
        <time>2000-05-11T14:11:52.933</time>
      </trkpt>
      <trkpt lat="42.52362" lon="2.06761">
        <ele>1868.5170961089</ele>
        <time>2000-05-11T14:11:53.933</time>
      </trkpt>
      <trkpt lat="42.52362" lon="2.06761">
        <ele>1867.5142132113</ele>
        <time>2000-05-11T14:11:54.933</time>
      </trkpt>
      <trkpt lat="42.52362" lon="2.06762">
        <ele>1867.0550495312</ele>
        <time>2000-05-11T14:11:55.934</time>
      </trkpt>
      <trkpt lat="42.52363" lon="2.06763">
        <ele>1867.124932399</ele>
        <time>2000-05-11T14:11:56.934</time>
      </trkpt>
      <trkpt lat="42.52362" lon="2.06764">
        <ele>1867.3082992723</ele>
        <time>2000-05-11T14:11:57.932</time>
      </trkpt>
      <trkpt lat="42.52362" lon="2.06765">
        <ele>1867.8182756543</ele>
        <time>2000-05-11T14:11:58.932</time>
      </trkpt>
      <trkpt lat="42.52361" lon="2.06766">
        <ele>1868.1687844144</ele>
        <time>2000-05-11T14:11:59.928</time>
      </trkpt>
      <trkpt lat="42.5236" lon="2.06766">
        <ele>1868.0107140435</ele>
        <time>2000-05-11T14:12:00.928</time>
      </trkpt>
      <trkpt lat="42.52358" lon="2.06766">
        <ele>1867.1841297258</ele>
        <time>2000-05-11T14:12:01.928</time>
      </trkpt>
      <trkpt lat="42.52358" lon="2.06767">
        <ele>1866.2968741631</ele>
        <time>2000-05-11T14:12:02.928</time>
      </trkpt>
      <trkpt lat="42.52358" lon="2.06767">
        <ele>1865.4036368785</ele>
        <time>2000-05-11T14:12:03.928</time>
      </trkpt>
      <trkpt lat="42.52357" lon="2.06768">
        <ele>1864.5779334549</ele>
        <time>2000-05-11T14:12:04.928</time>
      </trkpt>
      <trkpt lat="42.52356" lon="2.06769">
        <ele>1863.9792382216</ele>
        <time>2000-05-11T14:12:05.928</time>
      </trkpt>
      <trkpt lat="42.52355" lon="2.06769">
        <ele>1863.5026609136</ele>
        <time>2000-05-11T14:12:06.928</time>
      </trkpt>
      <trkpt lat="42.52354" lon="2.0677">
        <ele>1863.0986339089</ele>
        <time>2000-05-11T14:12:07.928</time>
      </trkpt>
      <trkpt lat="42.52353" lon="2.06771">
        <ele>1863.2265525013</ele>
        <time>2000-05-11T14:12:08.928</time>
      </trkpt>
      <trkpt lat="42.52352" lon="2.06772">
        <ele>1863.4742991397</ele>
        <time>2000-05-11T14:12:09.928</time>
      </trkpt>
      <trkpt lat="42.52351" lon="2.06774">
        <ele>1863.7282033222</ele>
        <time>2000-05-11T14:12:10.928</time>
      </trkpt>
      <trkpt lat="42.5235" lon="2.06776">
        <ele>1864.0511471001</ele>
        <time>2000-05-11T14:12:11.928</time>
      </trkpt>
      <trkpt lat="42.5235" lon="2.06777">
        <ele>1864.4050457025</ele>
        <time>2000-05-11T14:12:12.928</time>
      </trkpt>
      <trkpt lat="42.52349" lon="2.06779">
        <ele>1864.3659576753</ele>
        <time>2000-05-11T14:12:13.928</time>
      </trkpt>
      <trkpt lat="42.52348" lon="2.06782">
        <ele>1864.6201463727</ele>
        <time>2000-05-11T14:12:14.928</time>
      </trkpt>
      <trkpt lat="42.52348" lon="2.06785">
        <ele>1865.5846742302</ele>
        <time>2000-05-11T14:12:15.928</time>
      </trkpt>
      <trkpt lat="42.52348" lon="2.06788">
        <ele>1867.205334533</ele>
        <time>2000-05-11T14:12:16.928</time>
      </trkpt>
      <trkpt lat="42.52347" lon="2.06789">
        <ele>1869.0234567907</ele>
        <time>2000-05-11T14:12:17.928</time>
      </trkpt>
      <trkpt lat="42.52346" lon="2.0679">
        <ele>1870.7525489742</ele>
        <time>2000-05-11T14:12:18.928</time>
      </trkpt>
      <trkpt lat="42.52345" lon="2.0679">
        <ele>1871.8893549327</ele>
        <time>2000-05-11T14:12:19.928</time>
      </trkpt>
      <trkpt lat="42.52345" lon="2.0679">
        <ele>1872.3409606753</ele>
        <time>2000-05-11T14:12:20.928</time>
      </trkpt>
      <trkpt lat="42.52344" lon="2.06791">
        <ele>1872.1959915653</ele>
        <time>2000-05-11T14:12:21.929</time>
      </trkpt>
      <trkpt lat="42.52344" lon="2.06792">
        <ele>1871.4925916629</ele>
        <time>2000-05-11T14:12:22.929</time>
      </trkpt>
      <trkpt lat="42.52343" lon="2.06793">
        <ele>1870.8792218147</ele>
        <time>2000-05-11T14:12:23.926</time>
      </trkpt>
      <trkpt lat="42.52343" lon="2.06793">
        <ele>1870.536967182</ele>
        <time>2000-05-11T14:12:24.926</time>
      </trkpt>
      <trkpt lat="42.52341" lon="2.06795">
        <ele>1870.2217311168</ele>
        <time>2000-05-11T14:12:25.929</time>
      </trkpt>
      <trkpt lat="42.5234" lon="2.06796">
        <ele>1870.218816313</ele>
        <time>2000-05-11T14:12:26.929</time>
      </trkpt>
      <trkpt lat="42.5234" lon="2.06796">
        <ele>1870.5413139477</ele>
        <time>2000-05-11T14:12:27.929</time>
      </trkpt>
      <trkpt lat="42.52338" lon="2.06796">
        <ele>1870.3784489367</ele>
        <time>2000-05-11T14:12:28.931</time>
      </trkpt>
      <trkpt lat="42.52338" lon="2.06796">
        <ele>1870.2155839257</ele>
        <time>2000-05-11T14:12:29.931</time>
      </trkpt>
      <trkpt lat="42.52337" lon="2.06797">
        <ele>1870.0477397187</ele>
        <time>2000-05-11T14:12:30.931</time>
      </trkpt>
      <trkpt lat="42.52336" lon="2.06798">
        <ele>1869.8718386365</ele>
        <time>2000-05-11T14:12:31.931</time>
      </trkpt>
      <trkpt lat="42.52335" lon="2.06799">
        <ele>1869.7994180402</ele>
        <time>2000-05-11T14:12:32.928</time>
      </trkpt>
      <trkpt lat="42.52333" lon="2.068">
        <ele>1869.9910597885</ele>
        <time>2000-05-11T14:12:33.928</time>
      </trkpt>
      <trkpt lat="42.52331" lon="2.06801">
        <ele>1869.9577993676</ele>
        <time>2000-05-11T14:12:34.928</time>
      </trkpt>
      <trkpt lat="42.52331" lon="2.06801">
        <ele>1869.9024995752</ele>
        <time>2000-05-11T14:12:35.928</time>
      </trkpt>
      <trkpt lat="42.5233" lon="2.06802">
        <ele>1869.0451625986</ele>
        <time>2000-05-11T14:12:36.928</time>
      </trkpt>
      <trkpt lat="42.52329" lon="2.06803">
        <ele>1868.0469876066</ele>
        <time>2000-05-11T14:12:37.928</time>
      </trkpt>
      <trkpt lat="42.52328" lon="2.06804">
        <ele>1867.105652879</ele>
        <time>2000-05-11T14:12:38.928</time>
      </trkpt>
      <trkpt lat="42.52327" lon="2.06806">
        <ele>1866.4462925024</ele>
        <time>2000-05-11T14:12:39.928</time>
      </trkpt>
      <trkpt lat="42.52325" lon="2.06807">
        <ele>1865.6410087906</ele>
        <time>2000-05-11T14:12:40.928</time>
      </trkpt>
      <trkpt lat="42.52324" lon="2.06806">
        <ele>1865.2470843051</ele>
        <time>2000-05-11T14:12:41.928</time>
      </trkpt>
      <trkpt lat="42.52323" lon="2.06806">
        <ele>1864.7666199962</ele>
        <time>2000-05-11T14:12:42.928</time>
      </trkpt>
      <trkpt lat="42.52322" lon="2.06808">
        <ele>1864.4649444021</ele>
        <time>2000-05-11T14:12:43.928</time>
      </trkpt>
      <trkpt lat="42.52322" lon="2.06808">
        <ele>1864.1061966263</ele>
        <time>2000-05-11T14:12:44.928</time>
      </trkpt>
      <trkpt lat="42.52321" lon="2.06809">
        <ele>1864.3331487957</ele>
        <time>2000-05-11T14:12:45.928</time>
      </trkpt>
      <trkpt lat="42.52321" lon="2.06809">
        <ele>1864.8033156786</ele>
        <time>2000-05-11T14:12:46.928</time>
      </trkpt>
      <trkpt lat="42.5232" lon="2.0681">
        <ele>1865.603967184</ele>
        <time>2000-05-11T14:12:47.928</time>
      </trkpt>
      <trkpt lat="42.52319" lon="2.06811">
        <ele>1866.1528636435</ele>
        <time>2000-05-11T14:12:48.928</time>
      </trkpt>
      <trkpt lat="42.52319" lon="2.06811">
        <ele>1866.701760103</ele>
        <time>2000-05-11T14:12:49.928</time>
      </trkpt>
      <trkpt lat="42.52318" lon="2.06811">
        <ele>1866.3506592533</ele>
        <time>2000-05-11T14:12:50.930</time>
      </trkpt>
      <trkpt lat="42.52317" lon="2.0681">
        <ele>1865.5400620628</ele>
        <time>2000-05-11T14:12:51.930</time>
      </trkpt>
      <trkpt lat="42.52316" lon="2.06809">
        <ele>1864.589782583</ele>
        <time>2000-05-11T14:12:52.930</time>
      </trkpt>
      <trkpt lat="42.52316" lon="2.06809">
        <ele>1863.7367715785</ele>
        <time>2000-05-11T14:12:53.930</time>
      </trkpt>
      <trkpt lat="42.52315" lon="2.06809">
        <ele>1862.8390886664</ele>
        <time>2000-05-11T14:12:54.930</time>
      </trkpt>
      <trkpt lat="42.52315" lon="2.0681">
        <ele>1862.5058148138</ele>
        <time>2000-05-11T14:12:55.930</time>
      </trkpt>
      <trkpt lat="42.52314" lon="2.06811">
        <ele>1862.9661048571</ele>
        <time>2000-05-11T14:12:56.930</time>
      </trkpt>
      <trkpt lat="42.52313" lon="2.06811">
        <ele>1863.4053967947</ele>
        <time>2000-05-11T14:12:57.930</time>
      </trkpt>
      <trkpt lat="42.52312" lon="2.06812">
        <ele>1863.833994766</ele>
        <time>2000-05-11T14:12:58.930</time>
      </trkpt>
      <trkpt lat="42.5231" lon="2.06812">
        <ele>1864.2670976674</ele>
        <time>2000-05-11T14:12:59.930</time>
      </trkpt>
      <trkpt lat="42.5231" lon="2.06812">
        <ele>1864.5960122086</ele>
        <time>2000-05-11T14:13:00.930</time>
      </trkpt>
      <trkpt lat="42.52309" lon="2.06812">
        <ele>1864.2863151303</ele>
        <time>2000-05-11T14:13:01.930</time>
      </trkpt>
      <trkpt lat="42.52308" lon="2.06812">
        <ele>1863.926765446</ele>
        <time>2000-05-11T14:13:02.930</time>
      </trkpt>
      <trkpt lat="42.52307" lon="2.06812">
        <ele>1863.3948972033</ele>
        <time>2000-05-11T14:13:03.930</time>
      </trkpt>
      <trkpt lat="42.52305" lon="2.06814">
        <ele>1863.1275382772</ele>
        <time>2000-05-11T14:13:04.930</time>
      </trkpt>
      <trkpt lat="42.52303" lon="2.06814">
        <ele>1862.6420717405</ele>
        <time>2000-05-11T14:13:05.930</time>
      </trkpt>
      <trkpt lat="42.52302" lon="2.06815">
        <ele>1862.302860504</ele>
        <time>2000-05-11T14:13:06.930</time>
      </trkpt>
      <trkpt lat="42.52301" lon="2.06815">
        <ele>1861.9629055427</ele>
        <time>2000-05-11T14:13:07.930</time>
      </trkpt>
      <trkpt lat="42.52301" lon="2.06816">
        <ele>1862.0113943586</ele>
        <time>2000-05-11T14:13:08.930</time>
      </trkpt>
      <trkpt lat="42.523" lon="2.06818">
        <ele>1862.165790494</ele>
        <time>2000-05-11T14:13:09.930</time>
      </trkpt>
      <trkpt lat="42.523" lon="2.06818">
        <ele>1862.5382942399</ele>
        <time>2000-05-11T14:13:10.930</time>
      </trkpt>
      <trkpt lat="42.52299" lon="2.06819">
        <ele>1862.7895442288</ele>
        <time>2000-05-11T14:13:11.930</time>
      </trkpt>
      <trkpt lat="42.52297" lon="2.0682">
        <ele>1862.6846813822</ele>
        <time>2000-05-11T14:13:12.930</time>
      </trkpt>
      <trkpt lat="42.52296" lon="2.06821">
        <ele>1862.2721361222</ele>
        <time>2000-05-11T14:13:13.930</time>
      </trkpt>
      <trkpt lat="42.52296" lon="2.0682">
        <ele>1861.4640376598</ele>
        <time>2000-05-11T14:13:14.930</time>
      </trkpt>
      <trkpt lat="42.52296" lon="2.06821">
        <ele>1860.9733454047</ele>
        <time>2000-05-11T14:13:15.930</time>
      </trkpt>
      <trkpt lat="42.52295" lon="2.06822">
        <ele>1860.9388917092</ele>
        <time>2000-05-11T14:13:16.930</time>
      </trkpt>
      <trkpt lat="42.52294" lon="2.06823">
        <ele>1861.2852223406</ele>
        <time>2000-05-11T14:13:17.928</time>
      </trkpt>
      <trkpt lat="42.52294" lon="2.06823">
        <ele>1861.7340030776</ele>
        <time>2000-05-11T14:13:18.928</time>
      </trkpt>
      <trkpt lat="42.52293" lon="2.06824">
        <ele>1862.3659945754</ele>
        <time>2000-05-11T14:13:19.931</time>
      </trkpt>
      <trkpt lat="42.52292" lon="2.06824">
        <ele>1862.4413823836</ele>
        <time>2000-05-11T14:13:20.931</time>
      </trkpt>
      <trkpt lat="42.5229" lon="2.06825">
        <ele>1862.4031290697</ele>
        <time>2000-05-11T14:13:21.931</time>
      </trkpt>
      <trkpt lat="42.52289" lon="2.06826">
        <ele>1862.4399098767</ele>
        <time>2000-05-11T14:13:22.931</time>
      </trkpt>
      <trkpt lat="42.52287" lon="2.06826">
        <ele>1862.5612795385</ele>
        <time>2000-05-11T14:13:23.931</time>
      </trkpt>
      <trkpt lat="42.52287" lon="2.06826">
        <ele>1862.5647419833</ele>
        <time>2000-05-11T14:13:24.931</time>
      </trkpt>
      <trkpt lat="42.52287" lon="2.06826">
        <ele>1862.8074019104</ele>
        <time>2000-05-11T14:13:25.931</time>
      </trkpt>
      <trkpt lat="42.52286" lon="2.06828">
        <ele>1863.3711785138</ele>
        <time>2000-05-11T14:13:26.931</time>
      </trkpt>
      <trkpt lat="42.52286" lon="2.06828">
        <ele>1863.8399389612</ele>
        <time>2000-05-11T14:13:27.931</time>
      </trkpt>
      <trkpt lat="42.52285" lon="2.06828">
        <ele>1864.0981396215</ele>
        <time>2000-05-11T14:13:28.928</time>
      </trkpt>
      <trkpt lat="42.52283" lon="2.06831">
        <ele>1864.4588369494</ele>
        <time>2000-05-11T14:13:29.928</time>
      </trkpt>
      <trkpt lat="42.52282" lon="2.06833">
        <ele>1865.0048211126</ele>
        <time>2000-05-11T14:13:30.928</time>
      </trkpt>
      <trkpt lat="42.52282" lon="2.06835">
        <ele>1865.5223259306</ele>
        <time>2000-05-11T14:13:31.928</time>
      </trkpt>
      <trkpt lat="42.52281" lon="2.06837">
        <ele>1866.543605064</ele>
        <time>2000-05-11T14:13:32.928</time>
      </trkpt>
      <trkpt lat="42.5228" lon="2.06838">
        <ele>1867.8518174216</ele>
        <time>2000-05-11T14:13:33.928</time>
      </trkpt>
      <trkpt lat="42.52279" lon="2.0684">
        <ele>1869.4069434658</ele>
        <time>2000-05-11T14:13:34.928</time>
      </trkpt>
      <trkpt lat="42.52277" lon="2.06843">
        <ele>1870.8663694389</ele>
        <time>2000-05-11T14:13:35.928</time>
      </trkpt>
      <trkpt lat="42.52275" lon="2.06844">
        <ele>1872.2701513186</ele>
        <time>2000-05-11T14:13:36.928</time>
      </trkpt>
      <trkpt lat="42.52275" lon="2.06845">
        <ele>1873.638879044</ele>
        <time>2000-05-11T14:13:37.928</time>
      </trkpt>
      <trkpt lat="42.52274" lon="2.06846">
        <ele>1874.7461898636</ele>
        <time>2000-05-11T14:13:38.928</time>
      </trkpt>
      <trkpt lat="42.52272" lon="2.06848">
        <ele>1875.762991664</ele>
        <time>2000-05-11T14:13:39.928</time>
      </trkpt>
      <trkpt lat="42.52271" lon="2.06849">
        <ele>1876.6941416569</ele>
        <time>2000-05-11T14:13:40.928</time>
      </trkpt>
      <trkpt lat="42.5227" lon="2.0685">
        <ele>1877.2515285769</ele>
        <time>2000-05-11T14:13:41.928</time>
      </trkpt>
      <trkpt lat="42.52268" lon="2.06849">
        <ele>1877.1856653756</ele>
        <time>2000-05-11T14:13:42.928</time>
      </trkpt>
      <trkpt lat="42.52268" lon="2.06849">
        <ele>1877.2202567881</ele>
        <time>2000-05-11T14:13:43.928</time>
      </trkpt>
      <trkpt lat="42.52268" lon="2.06848">
        <ele>1876.7629326217</ele>
        <time>2000-05-11T14:13:44.928</time>
      </trkpt>
      <trkpt lat="42.52267" lon="2.06849">
        <ele>1875.9924936298</ele>
        <time>2000-05-11T14:13:45.928</time>
      </trkpt>
      <trkpt lat="42.52266" lon="2.06849">
        <ele>1874.8972537925</ele>
        <time>2000-05-11T14:13:46.928</time>
      </trkpt>
      <trkpt lat="42.52264" lon="2.0685">
        <ele>1873.5286265964</ele>
        <time>2000-05-11T14:13:47.928</time>
      </trkpt>
      <trkpt lat="42.52261" lon="2.06854">
        <ele>1872.9031936064</ele>
        <time>2000-05-11T14:13:48.928</time>
      </trkpt>
      <trkpt lat="42.52261" lon="2.06854">
        <ele>1872.5107748605</ele>
        <time>2000-05-11T14:13:49.928</time>
      </trkpt>
      <trkpt lat="42.52261" lon="2.06854">
        <ele>1872.4275359834</ele>
        <time>2000-05-11T14:13:50.928</time>
      </trkpt>
      <trkpt lat="42.5226" lon="2.06853">
        <ele>1872.5794688946</ele>
        <time>2000-05-11T14:13:51.928</time>
      </trkpt>
      <trkpt lat="42.52259" lon="2.06854">
        <ele>1873.367686603</ele>
        <time>2000-05-11T14:13:52.928</time>
      </trkpt>
      <trkpt lat="42.52257" lon="2.06854">
        <ele>1873.3741580416</ele>
        <time>2000-05-11T14:13:53.928</time>
      </trkpt>
      <trkpt lat="42.52257" lon="2.06854">
        <ele>1873.3806294801</ele>
        <time>2000-05-11T14:13:54.928</time>
      </trkpt>
      <trkpt lat="42.52256" lon="2.06855">
        <ele>1873.2131734805</ele>
        <time>2000-05-11T14:13:55.926</time>
      </trkpt>
      <trkpt lat="42.52255" lon="2.06856">
        <ele>1873.1695429515</ele>
        <time>2000-05-11T14:13:56.926</time>
      </trkpt>
      <trkpt lat="42.52254" lon="2.06857">
        <ele>1872.8916832292</ele>
        <time>2000-05-11T14:13:57.926</time>
      </trkpt>
      <trkpt lat="42.52253" lon="2.06857">
        <ele>1872.6353688819</ele>
        <time>2000-05-11T14:13:58.926</time>
      </trkpt>
      <trkpt lat="42.52252" lon="2.06858">
        <ele>1872.4986015035</ele>
        <time>2000-05-11T14:13:59.926</time>
      </trkpt>
      <trkpt lat="42.52251" lon="2.0686">
        <ele>1872.7862210562</ele>
        <time>2000-05-11T14:14:00.926</time>
      </trkpt>
      <trkpt lat="42.5225" lon="2.06861">
        <ele>1873.1644068738</ele>
        <time>2000-05-11T14:14:01.926</time>
      </trkpt>
      <trkpt lat="42.52248" lon="2.0686">
        <ele>1873.2557507785</ele>
        <time>2000-05-11T14:14:02.926</time>
      </trkpt>
      <trkpt lat="42.52247" lon="2.06861">
        <ele>1873.2623606309</ele>
        <time>2000-05-11T14:14:03.926</time>
      </trkpt>
      <trkpt lat="42.52246" lon="2.06862">
        <ele>1873.7678100564</ele>
        <time>2000-05-11T14:14:04.926</time>
      </trkpt>
      <trkpt lat="42.52245" lon="2.06864">
        <ele>1874.3772395689</ele>
        <time>2000-05-11T14:14:05.926</time>
      </trkpt>
      <trkpt lat="42.52245" lon="2.06865">
        <ele>1875.0913230734</ele>
        <time>2000-05-11T14:14:06.926</time>
      </trkpt>
      <trkpt lat="42.52245" lon="2.06865">
        <ele>1876.118110206</ele>
        <time>2000-05-11T14:14:07.926</time>
      </trkpt>
      <trkpt lat="42.52245" lon="2.06867">
        <ele>1877.4089212909</ele>
        <time>2000-05-11T14:14:08.926</time>
      </trkpt>
      <trkpt lat="42.52244" lon="2.06868">
        <ele>1877.9763081621</ele>
        <time>2000-05-11T14:14:09.926</time>
      </trkpt>
      <trkpt lat="42.52244" lon="2.06869">
        <ele>1877.9878780207</ele>
        <time>2000-05-11T14:14:10.926</time>
      </trkpt>
      <trkpt lat="42.52243" lon="2.06869">
        <ele>1877.3576816907</ele>
        <time>2000-05-11T14:14:11.926</time>
      </trkpt>
      <trkpt lat="42.52242" lon="2.0687">
        <ele>1876.4035103802</ele>
        <time>2000-05-11T14:14:12.926</time>
      </trkpt>
      <trkpt lat="42.52242" lon="2.0687">
        <ele>1875.2495308733</ele>
        <time>2000-05-11T14:14:13.926</time>
      </trkpt>
      <trkpt lat="42.52241" lon="2.06871">
        <ele>1874.2278982446</ele>
        <time>2000-05-11T14:14:14.927</time>
      </trkpt>
      <trkpt lat="42.52239" lon="2.06871">
        <ele>1873.2802345436</ele>
        <time>2000-05-11T14:14:15.927</time>
      </trkpt>
      <trkpt lat="42.52238" lon="2.06871">
        <ele>1872.7905917175</ele>
        <time>2000-05-11T14:14:16.927</time>
      </trkpt>
      <trkpt lat="42.52236" lon="2.06872">
        <ele>1872.7299222257</ele>
        <time>2000-05-11T14:14:17.927</time>
      </trkpt>
      <trkpt lat="42.52235" lon="2.06873">
        <ele>1872.9277992472</ele>
        <time>2000-05-11T14:14:18.927</time>
      </trkpt>
      <trkpt lat="42.52234" lon="2.06872">
        <ele>1873.6527813338</ele>
        <time>2000-05-11T14:14:19.927</time>
      </trkpt>
      <trkpt lat="42.52234" lon="2.06872">
        <ele>1874.505171925</ele>
        <time>2000-05-11T14:14:20.927</time>
      </trkpt>
      <trkpt lat="42.52233" lon="2.06873">
        <ele>1875.4869895302</ele>
        <time>2000-05-11T14:14:21.927</time>
      </trkpt>
      <trkpt lat="42.52232" lon="2.06874">
        <ele>1876.6288020857</ele>
        <time>2000-05-11T14:14:22.927</time>
      </trkpt>
      <trkpt lat="42.52231" lon="2.06875">
        <ele>1877.9853556421</ele>
        <time>2000-05-11T14:14:23.927</time>
      </trkpt>
      <trkpt lat="42.52231" lon="2.06876">
        <ele>1878.8383836035</ele>
        <time>2000-05-11T14:14:24.927</time>
      </trkpt>
      <trkpt lat="42.52229" lon="2.06877">
        <ele>1879.6424195604</ele>
        <time>2000-05-11T14:14:25.927</time>
      </trkpt>
      <trkpt lat="42.52229" lon="2.06877">
        <ele>1880.3450720657</ele>
        <time>2000-05-11T14:14:26.927</time>
      </trkpt>
      <trkpt lat="42.52228" lon="2.06878">
        <ele>1880.7246452857</ele>
        <time>2000-05-11T14:14:27.927</time>
      </trkpt>
      <trkpt lat="42.52227" lon="2.06878">
        <ele>1880.643156442</ele>
        <time>2000-05-11T14:14:28.927</time>
      </trkpt>
      <trkpt lat="42.52226" lon="2.06879">
        <ele>1880.5072727779</ele>
        <time>2000-05-11T14:14:29.927</time>
      </trkpt>
      <trkpt lat="42.52226" lon="2.0688">
        <ele>1880.3781024855</ele>
        <time>2000-05-11T14:14:30.927</time>
      </trkpt>
      <trkpt lat="42.52225" lon="2.06881">
        <ele>1880.1370131353</ele>
        <time>2000-05-11T14:14:31.927</time>
      </trkpt>
      <trkpt lat="42.52224" lon="2.06881">
        <ele>1879.862415415</ele>
        <time>2000-05-11T14:14:32.927</time>
      </trkpt>
      <trkpt lat="42.52224" lon="2.06881">
        <ele>1879.6131172292</ele>
        <time>2000-05-11T14:14:33.927</time>
      </trkpt>
      <trkpt lat="42.52223" lon="2.06882">
        <ele>1879.3602298165</ele>
        <time>2000-05-11T14:14:34.927</time>
      </trkpt>
      <trkpt lat="42.52221" lon="2.06883">
        <ele>1879.1029920751</ele>
        <time>2000-05-11T14:14:35.927</time>
      </trkpt>
      <trkpt lat="42.5222" lon="2.06883">
        <ele>1878.7786521271</ele>
        <time>2000-05-11T14:14:36.927</time>
      </trkpt>
      <trkpt lat="42.5222" lon="2.06883">
        <ele>1878.5459065303</ele>
        <time>2000-05-11T14:14:37.927</time>
      </trkpt>
      <trkpt lat="42.5222" lon="2.06883">
        <ele>1878.3131609336</ele>
        <time>2000-05-11T14:14:38.927</time>
      </trkpt>
      <trkpt lat="42.52219" lon="2.06884">
        <ele>1878.3744631493</ele>
        <time>2000-05-11T14:14:39.927</time>
      </trkpt>
      <trkpt lat="42.52218" lon="2.06885">
        <ele>1878.4272187883</ele>
        <time>2000-05-11T14:14:40.925</time>
      </trkpt>
      <trkpt lat="42.52217" lon="2.06886">
        <ele>1878.5059838083</ele>
        <time>2000-05-11T14:14:41.925</time>
      </trkpt>
      <trkpt lat="42.52216" lon="2.06888">
        <ele>1878.272496249</ele>
        <time>2000-05-11T14:14:42.925</time>
      </trkpt>
      <trkpt lat="42.52217" lon="2.0689">
        <ele>1877.9099158797</ele>
        <time>2000-05-11T14:14:43.925</time>
      </trkpt>
      <trkpt lat="42.52216" lon="2.06891">
        <ele>1877.0530733144</ele>
        <time>2000-05-11T14:14:44.925</time>
      </trkpt>
      <trkpt lat="42.52215" lon="2.06892">
        <ele>1876.1352502646</ele>
        <time>2000-05-11T14:14:45.925</time>
      </trkpt>
      <trkpt lat="42.52213" lon="2.06894">
        <ele>1874.6568921292</ele>
        <time>2000-05-11T14:14:46.925</time>
      </trkpt>
      <trkpt lat="42.52211" lon="2.06897">
        <ele>1873.6100431643</ele>
        <time>2000-05-11T14:14:47.925</time>
      </trkpt>
      <trkpt lat="42.52211" lon="2.06897">
        <ele>1872.6922870094</ele>
        <time>2000-05-11T14:14:48.925</time>
      </trkpt>
      <trkpt lat="42.5221" lon="2.06897">
        <ele>1871.5098230261</ele>
        <time>2000-05-11T14:14:49.925</time>
      </trkpt>
      <trkpt lat="42.52209" lon="2.06899">
        <ele>1870.2755100731</ele>
        <time>2000-05-11T14:14:50.925</time>
      </trkpt>
      <trkpt lat="42.52208" lon="2.06901">
        <ele>1869.9306431754</ele>
        <time>2000-05-11T14:14:51.925</time>
      </trkpt>
      <trkpt lat="42.52207" lon="2.06901">
        <ele>1869.5362461399</ele>
        <time>2000-05-11T14:14:52.925</time>
      </trkpt>
      <trkpt lat="42.52206" lon="2.06901">
        <ele>1869.0263361692</ele>
        <time>2000-05-11T14:14:53.925</time>
      </trkpt>
      <trkpt lat="42.52206" lon="2.06901">
        <ele>1868.9884437814</ele>
        <time>2000-05-11T14:14:54.925</time>
      </trkpt>
      <trkpt lat="42.52205" lon="2.06902">
        <ele>1868.7028185489</ele>
        <time>2000-05-11T14:14:55.926</time>
      </trkpt>
      <trkpt lat="42.52205" lon="2.06903">
        <ele>1868.3953809794</ele>
        <time>2000-05-11T14:14:56.926</time>
      </trkpt>
      <trkpt lat="42.52205" lon="2.06905">
        <ele>1868.0050906699</ele>
        <time>2000-05-11T14:14:57.926</time>
      </trkpt>
      <trkpt lat="42.52205" lon="2.06905">
        <ele>1867.7303132957</ele>
        <time>2000-05-11T14:14:58.926</time>
      </trkpt>
      <trkpt lat="42.52204" lon="2.06905">
        <ele>1867.1636525819</ele>
        <time>2000-05-11T14:14:59.926</time>
      </trkpt>
      <trkpt lat="42.52203" lon="2.06906">
        <ele>1866.6291568002</ele>
        <time>2000-05-11T14:15:00.926</time>
      </trkpt>
      <trkpt lat="42.52202" lon="2.06908">
        <ele>1865.6669684377</ele>
        <time>2000-05-11T14:15:01.926</time>
      </trkpt>
      <trkpt lat="42.52201" lon="2.0691">
        <ele>1865.3840982221</ele>
        <time>2000-05-11T14:15:02.926</time>
      </trkpt>
      <trkpt lat="42.52199" lon="2.06913">
        <ele>1865.4942832874</ele>
        <time>2000-05-11T14:15:03.926</time>
      </trkpt>
      <trkpt lat="42.52198" lon="2.06916">
        <ele>1865.9624506034</ele>
        <time>2000-05-11T14:15:04.926</time>
      </trkpt>
      <trkpt lat="42.52198" lon="2.06917">
        <ele>1866.6820257649</ele>
        <time>2000-05-11T14:15:05.926</time>
      </trkpt>
      <trkpt lat="42.52197" lon="2.06918">
        <ele>1867.4619792104</ele>
        <time>2000-05-11T14:15:06.926</time>
      </trkpt>
      <trkpt lat="42.52197" lon="2.06918">
        <ele>1867.2323985811</ele>
        <time>2000-05-11T14:15:07.926</time>
      </trkpt>
      <trkpt lat="42.52196" lon="2.06919">
        <ele>1866.3886005679</ele>
        <time>2000-05-11T14:15:08.926</time>
      </trkpt>
      <trkpt lat="42.52195" lon="2.06921">
        <ele>1865.5728331679</ele>
        <time>2000-05-11T14:15:09.926</time>
      </trkpt>
      <trkpt lat="42.52196" lon="2.06924">
        <ele>1865.6891699376</ele>
        <time>2000-05-11T14:15:10.926</time>
      </trkpt>
      <trkpt lat="42.52197" lon="2.06927">
        <ele>1866.4063802283</ele>
        <time>2000-05-11T14:15:11.926</time>
      </trkpt>
      <trkpt lat="42.52197" lon="2.06927">
        <ele>1867.4166515265</ele>
        <time>2000-05-11T14:15:12.926</time>
      </trkpt>
      <trkpt lat="42.52196" lon="2.06927">
        <ele>1868.4721607883</ele>
        <time>2000-05-11T14:15:13.926</time>
      </trkpt>
      <trkpt lat="42.52196" lon="2.06928">
        <ele>1869.6437002636</ele>
        <time>2000-05-11T14:15:14.926</time>
      </trkpt>
      <trkpt lat="42.52196" lon="2.06929">
        <ele>1869.9106519766</ele>
        <time>2000-05-11T14:15:15.926</time>
      </trkpt>
      <trkpt lat="42.52195" lon="2.06931">
        <ele>1869.8895181751</ele>
        <time>2000-05-11T14:15:16.926</time>
      </trkpt>
      <trkpt lat="42.52194" lon="2.06934">
        <ele>1870.0509209778</ele>
        <time>2000-05-11T14:15:17.926</time>
      </trkpt>
      <trkpt lat="42.52193" lon="2.06936">
        <ele>1870.3300741615</ele>
        <time>2000-05-11T14:15:18.926</time>
      </trkpt>
      <trkpt lat="42.52192" lon="2.06937">
        <ele>1870.5942328304</ele>
        <time>2000-05-11T14:15:19.926</time>
      </trkpt>
      <trkpt lat="42.52192" lon="2.06938">
        <ele>1870.9354629941</ele>
        <time>2000-05-11T14:15:20.926</time>
      </trkpt>
      <trkpt lat="42.5219" lon="2.06938">
        <ele>1870.7858470315</ele>
        <time>2000-05-11T14:15:21.926</time>
      </trkpt>
      <trkpt lat="42.5219" lon="2.06939">
        <ele>1870.5268844672</ele>
        <time>2000-05-11T14:15:22.926</time>
      </trkpt>
      <trkpt lat="42.52189" lon="2.0694">
        <ele>1870.2633055756</ele>
        <time>2000-05-11T14:15:23.926</time>
      </trkpt>
      <trkpt lat="42.52189" lon="2.0694">
        <ele>1869.8045614608</ele>
        <time>2000-05-11T14:15:24.926</time>
      </trkpt>
      <trkpt lat="42.52188" lon="2.06942">
        <ele>1869.5334384721</ele>
        <time>2000-05-11T14:15:25.925</time>
      </trkpt>
      <trkpt lat="42.52188" lon="2.06942">
        <ele>1869.6536011504</ele>
        <time>2000-05-11T14:15:26.925</time>
      </trkpt>
      <trkpt lat="42.52187" lon="2.06942">
        <ele>1869.4277101899</ele>
        <time>2000-05-11T14:15:27.923</time>
      </trkpt>
      <trkpt lat="42.52185" lon="2.06943">
        <ele>1868.910166857</ele>
        <time>2000-05-11T14:15:28.923</time>
      </trkpt>
      <trkpt lat="42.52184" lon="2.06943">
        <ele>1868.0495063184</ele>
        <time>2000-05-11T14:15:29.923</time>
      </trkpt>
      <trkpt lat="42.52183" lon="2.06945">
        <ele>1867.0146606121</ele>
        <time>2000-05-11T14:15:30.923</time>
      </trkpt>
      <trkpt lat="42.5218" lon="2.06947">
        <ele>1866.1180862587</ele>
        <time>2000-05-11T14:15:31.923</time>
      </trkpt>
      <trkpt lat="42.52178" lon="2.06948">
        <ele>1865.6496810984</ele>
        <time>2000-05-11T14:15:32.923</time>
      </trkpt>
      <trkpt lat="42.52178" lon="2.06948">
        <ele>1865.5357183961</ele>
        <time>2000-05-11T14:15:33.923</time>
      </trkpt>
      <trkpt lat="42.52177" lon="2.0695">
        <ele>1865.9782262038</ele>
        <time>2000-05-11T14:15:34.923</time>
      </trkpt>
      <trkpt lat="42.52175" lon="2.06951">
        <ele>1866.3270478435</ele>
        <time>2000-05-11T14:15:35.923</time>
      </trkpt>
      <trkpt lat="42.52174" lon="2.06951">
        <ele>1866.2454783279</ele>
        <time>2000-05-11T14:15:36.923</time>
      </trkpt>
      <trkpt lat="42.52173" lon="2.0695">
        <ele>1865.8277814046</ele>
        <time>2000-05-11T14:15:37.923</time>
      </trkpt>
      <trkpt lat="42.52172" lon="2.0695">
        <ele>1865.2105121825</ele>
        <time>2000-05-11T14:15:38.923</time>
      </trkpt>
      <trkpt lat="42.52171" lon="2.0695">
        <ele>1864.0711376052</ele>
        <time>2000-05-11T14:15:39.923</time>
      </trkpt>
      <trkpt lat="42.5217" lon="2.06951">
        <ele>1862.9944510132</ele>
        <time>2000-05-11T14:15:40.923</time>
      </trkpt>
      <trkpt lat="42.52168" lon="2.06953">
        <ele>1862.3542520346</ele>
        <time>2000-05-11T14:15:41.923</time>
      </trkpt>
      <trkpt lat="42.52167" lon="2.06955">
        <ele>1862.117721579</ele>
        <time>2000-05-11T14:15:42.923</time>
      </trkpt>
      <trkpt lat="42.52167" lon="2.06955">
        <ele>1862.0807634221</ele>
        <time>2000-05-11T14:15:43.923</time>
      </trkpt>
      <trkpt lat="42.52167" lon="2.06955">
        <ele>1862.3525573162</ele>
        <time>2000-05-11T14:15:44.923</time>
      </trkpt>
      <trkpt lat="42.52166" lon="2.06955">
        <ele>1862.5884740127</ele>
        <time>2000-05-11T14:15:45.923</time>
      </trkpt>
      <trkpt lat="42.52165" lon="2.06958">
        <ele>1863.1765466698</ele>
        <time>2000-05-11T14:15:46.923</time>
      </trkpt>
      <trkpt lat="42.52164" lon="2.06958">
        <ele>1864.1443079788</ele>
        <time>2000-05-11T14:15:47.923</time>
      </trkpt>
      <trkpt lat="42.52163" lon="2.06959">
        <ele>1865.2049790131</ele>
        <time>2000-05-11T14:15:48.927</time>
      </trkpt>
      <trkpt lat="42.52163" lon="2.06961">
        <ele>1866.5469309894</ele>
        <time>2000-05-11T14:15:49.927</time>
      </trkpt>
      <trkpt lat="42.52164" lon="2.06963">
        <ele>1868.3631175933</ele>
        <time>2000-05-11T14:15:50.927</time>
      </trkpt>
      <trkpt lat="42.52163" lon="2.06964">
        <ele>1869.4625815134</ele>
        <time>2000-05-11T14:15:51.927</time>
      </trkpt>
      <trkpt lat="42.52162" lon="2.06966">
        <ele>1870.0707644025</ele>
        <time>2000-05-11T14:15:52.927</time>
      </trkpt>
      <trkpt lat="42.52161" lon="2.06967">
        <ele>1870.2917679053</ele>
        <time>2000-05-11T14:15:53.927</time>
      </trkpt>
      <trkpt lat="42.52161" lon="2.06967">
        <ele>1870.231490466</ele>
        <time>2000-05-11T14:15:54.927</time>
      </trkpt>
      <trkpt lat="42.5216" lon="2.06967">
        <ele>1869.6555892069</ele>
        <time>2000-05-11T14:15:55.927</time>
      </trkpt>
      <trkpt lat="42.52159" lon="2.06968">
        <ele>1869.3184050048</ele>
        <time>2000-05-11T14:15:56.927</time>
      </trkpt>
      <trkpt lat="42.52158" lon="2.06969">
        <ele>1868.8136746258</ele>
        <time>2000-05-11T14:15:57.927</time>
      </trkpt>
      <trkpt lat="42.52158" lon="2.0697">
        <ele>1868.792457974</ele>
        <time>2000-05-11T14:15:58.927</time>
      </trkpt>
      <trkpt lat="42.52157" lon="2.06971">
        <ele>1868.979730102</ele>
        <time>2000-05-11T14:15:59.927</time>
      </trkpt>
      <trkpt lat="42.52157" lon="2.06972">
        <ele>1869.3589120558</ele>
        <time>2000-05-11T14:16:00.927</time>
      </trkpt>
      <trkpt lat="42.52156" lon="2.06974">
        <ele>1870.0120519042</ele>
        <time>2000-05-11T14:16:01.927</time>
      </trkpt>
      <trkpt lat="42.52155" lon="2.06975">
        <ele>1870.9952427976</ele>
        <time>2000-05-11T14:16:02.927</time>
      </trkpt>
      <trkpt lat="42.52153" lon="2.06976">
        <ele>1871.0375003938</ele>
        <time>2000-05-11T14:16:03.927</time>
      </trkpt>
      <trkpt lat="42.52153" lon="2.06976">
        <ele>1870.8712692101</ele>
        <time>2000-05-11T14:16:04.927</time>
      </trkpt>
      <trkpt lat="42.52153" lon="2.06978">
        <ele>1870.7252163695</ele>
        <time>2000-05-11T14:16:05.927</time>
      </trkpt>
      <trkpt lat="42.52153" lon="2.06978">
        <ele>1870.2866874894</ele>
        <time>2000-05-11T14:16:06.927</time>
      </trkpt>
      <trkpt lat="42.52152" lon="2.06978">
        <ele>1869.4014921229</ele>
        <time>2000-05-11T14:16:07.929</time>
      </trkpt>
      <trkpt lat="42.52152" lon="2.0698">
        <ele>1869.3030893555</ele>
        <time>2000-05-11T14:16:08.929</time>
      </trkpt>
      <trkpt lat="42.52152" lon="2.06981">
        <ele>1869.0983608475</ele>
        <time>2000-05-11T14:16:09.929</time>
      </trkpt>
      <trkpt lat="42.52152" lon="2.06982">
        <ele>1868.8807206245</ele>
        <time>2000-05-11T14:16:10.929</time>
      </trkpt>
      <trkpt lat="42.52152" lon="2.06982">
        <ele>1868.6630804015</ele>
        <time>2000-05-11T14:16:11.929</time>
      </trkpt>
      <trkpt lat="42.52151" lon="2.06983">
        <ele>1868.2614720976</ele>
        <time>2000-05-11T14:16:12.929</time>
      </trkpt>
      <trkpt lat="42.52149" lon="2.06986">
        <ele>1867.4441193538</ele>
        <time>2000-05-11T14:16:13.929</time>
      </trkpt>
      <trkpt lat="42.52148" lon="2.06989">
        <ele>1866.7329059463</ele>
        <time>2000-05-11T14:16:14.929</time>
      </trkpt>
      <trkpt lat="42.52147" lon="2.0699">
        <ele>1865.7853404526</ele>
        <time>2000-05-11T14:16:15.929</time>
      </trkpt>
      <trkpt lat="42.52147" lon="2.06991">
        <ele>1864.7161534108</ele>
        <time>2000-05-11T14:16:16.929</time>
      </trkpt>
      <trkpt lat="42.52147" lon="2.06991">
        <ele>1864.0541229824</ele>
        <time>2000-05-11T14:16:17.929</time>
      </trkpt>
      <trkpt lat="42.52146" lon="2.06991">
        <ele>1863.6030416559</ele>
        <time>2000-05-11T14:16:18.929</time>
      </trkpt>
      <trkpt lat="42.52145" lon="2.06992">
        <ele>1863.1021116178</ele>
        <time>2000-05-11T14:16:19.929</time>
      </trkpt>
      <trkpt lat="42.52144" lon="2.06994">
        <ele>1862.2033914998</ele>
        <time>2000-05-11T14:16:20.929</time>
      </trkpt>
      <trkpt lat="42.52142" lon="2.06995">
        <ele>1861.2708694275</ele>
        <time>2000-05-11T14:16:21.929</time>
      </trkpt>
      <trkpt lat="42.52142" lon="2.06996">
        <ele>1860.4137332588</ele>
        <time>2000-05-11T14:16:22.929</time>
      </trkpt>
      <trkpt lat="42.52141" lon="2.06998">
        <ele>1859.7997003751</ele>
        <time>2000-05-11T14:16:23.929</time>
      </trkpt>
      <trkpt lat="42.5214" lon="2.06999">
        <ele>1859.2471734792</ele>
        <time>2000-05-11T14:16:24.929</time>
      </trkpt>
      <trkpt lat="42.52141" lon="2.07">
        <ele>1859.5633418791</ele>
        <time>2000-05-11T14:16:25.929</time>
      </trkpt>
      <trkpt lat="42.52141" lon="2.07002">
        <ele>1859.972543584</ele>
        <time>2000-05-11T14:16:26.929</time>
      </trkpt>
      <trkpt lat="42.5214" lon="2.07003">
        <ele>1860.3772593422</ele>
        <time>2000-05-11T14:16:27.929</time>
      </trkpt>
      <trkpt lat="42.52138" lon="2.07004">
        <ele>1860.5350216191</ele>
        <time>2000-05-11T14:16:28.929</time>
      </trkpt>
      <trkpt lat="42.52137" lon="2.07005">
        <ele>1860.6895258136</ele>
        <time>2000-05-11T14:16:29.929</time>
      </trkpt>
      <trkpt lat="42.52137" lon="2.07006">
        <ele>1860.4910865813</ele>
        <time>2000-05-11T14:16:30.929</time>
      </trkpt>
      <trkpt lat="42.52136" lon="2.07007">
        <ele>1860.3459309623</ele>
        <time>2000-05-11T14:16:31.929</time>
      </trkpt>
      <trkpt lat="42.52136" lon="2.07007">
        <ele>1860.1298753863</ele>
        <time>2000-05-11T14:16:32.929</time>
      </trkpt>
      <trkpt lat="42.52135" lon="2.07008">
        <ele>1859.723276997</ele>
        <time>2000-05-11T14:16:33.929</time>
      </trkpt>
      <trkpt lat="42.52134" lon="2.07008">
        <ele>1858.9578091078</ele>
        <time>2000-05-11T14:16:34.930</time>
      </trkpt>
      <trkpt lat="42.52133" lon="2.07008">
        <ele>1857.9716845168</ele>
        <time>2000-05-11T14:16:35.930</time>
      </trkpt>
      <trkpt lat="42.52132" lon="2.07009">
        <ele>1856.61741268</ele>
        <time>2000-05-11T14:16:36.930</time>
      </trkpt>
      <trkpt lat="42.52132" lon="2.0701">
        <ele>1855.1900697391</ele>
        <time>2000-05-11T14:16:37.930</time>
      </trkpt>
      <trkpt lat="42.52132" lon="2.07011">
        <ele>1854.0933525367</ele>
        <time>2000-05-11T14:16:38.930</time>
      </trkpt>
      <trkpt lat="42.52132" lon="2.07012">
        <ele>1853.3940643487</ele>
        <time>2000-05-11T14:16:39.930</time>
      </trkpt>
      <trkpt lat="42.52132" lon="2.07014">
        <ele>1853.0507449366</ele>
        <time>2000-05-11T14:16:40.930</time>
      </trkpt>
      <trkpt lat="42.52131" lon="2.07015">
        <ele>1853.1955541482</ele>
        <time>2000-05-11T14:16:41.930</time>
      </trkpt>
      <trkpt lat="42.5213" lon="2.07017">
        <ele>1852.994625771</ele>
        <time>2000-05-11T14:16:42.930</time>
      </trkpt>
      <trkpt lat="42.52129" lon="2.07017">
        <ele>1852.9681380199</ele>
        <time>2000-05-11T14:16:43.930</time>
      </trkpt>
      <trkpt lat="42.52128" lon="2.07019">
        <ele>1853.1487988723</ele>
        <time>2000-05-11T14:16:44.930</time>
      </trkpt>
      <trkpt lat="42.52128" lon="2.07019">
        <ele>1853.235767266</ele>
        <time>2000-05-11T14:16:45.930</time>
      </trkpt>
      <trkpt lat="42.52128" lon="2.07019">
        <ele>1853.2118608657</ele>
        <time>2000-05-11T14:16:46.930</time>
      </trkpt>
      <trkpt lat="42.52128" lon="2.07021">
        <ele>1853.8881877186</ele>
        <time>2000-05-11T14:16:47.930</time>
      </trkpt>
      <trkpt lat="42.52128" lon="2.07023">
        <ele>1855.2405990992</ele>
        <time>2000-05-11T14:16:48.930</time>
      </trkpt>
      <trkpt lat="42.52128" lon="2.07026">
        <ele>1856.6335453987</ele>
        <time>2000-05-11T14:16:49.930</time>
      </trkpt>
      <trkpt lat="42.52127" lon="2.07027">
        <ele>1858.2231641635</ele>
        <time>2000-05-11T14:16:50.930</time>
      </trkpt>
      <trkpt lat="42.52126" lon="2.07029">
        <ele>1859.947669859</ele>
        <time>2000-05-11T14:16:51.930</time>
      </trkpt>
      <trkpt lat="42.52125" lon="2.0703">
        <ele>1861.1812885405</ele>
        <time>2000-05-11T14:16:52.930</time>
      </trkpt>
      <trkpt lat="42.52123" lon="2.07032">
        <ele>1861.2574777251</ele>
        <time>2000-05-11T14:16:53.930</time>
      </trkpt>
      <trkpt lat="42.52121" lon="2.07034">
        <ele>1860.8958640032</ele>
        <time>2000-05-11T14:16:54.930</time>
      </trkpt>
      <trkpt lat="42.52121" lon="2.07036">
        <ele>1860.7015452556</ele>
        <time>2000-05-11T14:16:55.930</time>
      </trkpt>
      <trkpt lat="42.5212" lon="2.07037">
        <ele>1860.4871447241</ele>
        <time>2000-05-11T14:16:56.930</time>
      </trkpt>
      <trkpt lat="42.52119" lon="2.07038">
        <ele>1860.5606102301</ele>
        <time>2000-05-11T14:16:57.930</time>
      </trkpt>
      <trkpt lat="42.52118" lon="2.07039">
        <ele>1860.9421718448</ele>
        <time>2000-05-11T14:16:58.930</time>
      </trkpt>
      <trkpt lat="42.52118" lon="2.0704">
        <ele>1861.4786720388</ele>
        <time>2000-05-11T14:16:59.930</time>
      </trkpt>
      <trkpt lat="42.52118" lon="2.0704">
        <ele>1861.651204793</ele>
        <time>2000-05-11T14:17:00.930</time>
      </trkpt>
      <trkpt lat="42.52116" lon="2.0704">
        <ele>1861.383091633</ele>
        <time>2000-05-11T14:17:01.930</time>
      </trkpt>
      <trkpt lat="42.52115" lon="2.07042">
        <ele>1860.7694410015</ele>
        <time>2000-05-11T14:17:02.929</time>
      </trkpt>
      <trkpt lat="42.52115" lon="2.07042">
        <ele>1860.1880578455</ele>
        <time>2000-05-11T14:17:03.929</time>
      </trkpt>
      <trkpt lat="42.52115" lon="2.07043">
        <ele>1859.8747296449</ele>
        <time>2000-05-11T14:17:04.930</time>
      </trkpt>
      <trkpt lat="42.52115" lon="2.07043">
        <ele>1859.5614014443</ele>
        <time>2000-05-11T14:17:05.930</time>
      </trkpt>
      <trkpt lat="42.52113" lon="2.07046">
        <ele>1860.0367364006</ele>
        <time>2000-05-11T14:17:06.928</time>
      </trkpt>
      <trkpt lat="42.52112" lon="2.07048">
        <ele>1860.6992725186</ele>
        <time>2000-05-11T14:17:07.928</time>
      </trkpt>
      <trkpt lat="42.52112" lon="2.07047">
        <ele>1861.0264288096</ele>
        <time>2000-05-11T14:17:08.927</time>
      </trkpt>
      <trkpt lat="42.52112" lon="2.07046">
        <ele>1860.8052982362</ele>
        <time>2000-05-11T14:17:09.927</time>
      </trkpt>
      <trkpt lat="42.5211" lon="2.07047">
        <ele>1860.5228606883</ele>
        <time>2000-05-11T14:17:10.927</time>
      </trkpt>
      <trkpt lat="42.52109" lon="2.07046">
        <ele>1859.6100837471</ele>
        <time>2000-05-11T14:17:11.927</time>
      </trkpt>
      <trkpt lat="42.52107" lon="2.07047">
        <ele>1858.748250572</ele>
        <time>2000-05-11T14:17:12.927</time>
      </trkpt>
      <trkpt lat="42.52107" lon="2.07047">
        <ele>1858.2217972239</ele>
        <time>2000-05-11T14:17:13.927</time>
      </trkpt>
      <trkpt lat="42.52106" lon="2.07047">
        <ele>1857.8590161663</ele>
        <time>2000-05-11T14:17:14.927</time>
      </trkpt>
      <trkpt lat="42.52106" lon="2.07047">
        <ele>1857.557542083</ele>
        <time>2000-05-11T14:17:15.927</time>
      </trkpt>
      <trkpt lat="42.52104" lon="2.07049">
        <ele>1857.0925129054</ele>
        <time>2000-05-11T14:17:16.931</time>
      </trkpt>
      <trkpt lat="42.52103" lon="2.0705">
        <ele>1856.5579965319</ele>
        <time>2000-05-11T14:17:17.931</time>
      </trkpt>
      <trkpt lat="42.52102" lon="2.07051">
        <ele>1855.7106979497</ele>
        <time>2000-05-11T14:17:18.931</time>
      </trkpt>
      <trkpt lat="42.521" lon="2.07052">
        <ele>1854.8397210531</ele>
        <time>2000-05-11T14:17:19.931</time>
      </trkpt>
      <trkpt lat="42.52099" lon="2.07052">
        <ele>1853.8320408272</ele>
        <time>2000-05-11T14:17:20.931</time>
      </trkpt>
      <trkpt lat="42.52097" lon="2.07054">
        <ele>1853.0956193253</ele>
        <time>2000-05-11T14:17:21.931</time>
      </trkpt>
      <trkpt lat="42.52096" lon="2.07056">
        <ele>1852.4353701415</ele>
        <time>2000-05-11T14:17:22.931</time>
      </trkpt>
      <trkpt lat="42.52094" lon="2.07057">
        <ele>1851.8000148021</ele>
        <time>2000-05-11T14:17:23.931</time>
      </trkpt>
      <trkpt lat="42.52092" lon="2.07059">
        <ele>1851.4634380646</ele>
        <time>2000-05-11T14:17:24.931</time>
      </trkpt>
      <trkpt lat="42.5209" lon="2.07059">
        <ele>1850.926998893</ele>
        <time>2000-05-11T14:17:25.931</time>
      </trkpt>
      <trkpt lat="42.52089" lon="2.07058">
        <ele>1850.0843238151</ele>
        <time>2000-05-11T14:17:26.931</time>
      </trkpt>
      <trkpt lat="42.52087" lon="2.07058">
        <ele>1849.1979271526</ele>
        <time>2000-05-11T14:17:27.931</time>
      </trkpt>
      <trkpt lat="42.52086" lon="2.07058">
        <ele>1848.7087408086</ele>
        <time>2000-05-11T14:17:28.931</time>
      </trkpt>
      <trkpt lat="42.52086" lon="2.07059">
        <ele>1847.5775325533</ele>
        <time>2000-05-11T14:17:29.931</time>
      </trkpt>
      <trkpt lat="42.52085" lon="2.07059">
        <ele>1846.5301456606</ele>
        <time>2000-05-11T14:17:30.931</time>
      </trkpt>
      <trkpt lat="42.52085" lon="2.07058">
        <ele>1845.6984833803</ele>
        <time>2000-05-11T14:17:31.931</time>
      </trkpt>
      <trkpt lat="42.52083" lon="2.07057">
        <ele>1844.7979417514</ele>
        <time>2000-05-11T14:17:32.931</time>
      </trkpt>
      <trkpt lat="42.52083" lon="2.07057">
        <ele>1843.7880781682</ele>
        <time>2000-05-11T14:17:33.931</time>
      </trkpt>
      <trkpt lat="42.52081" lon="2.07058">
        <ele>1842.718912974</ele>
        <time>2000-05-11T14:17:34.924</time>
      </trkpt>
      <trkpt lat="42.52079" lon="2.07057">
        <ele>1841.3773789978</ele>
        <time>2000-05-11T14:17:35.924</time>
      </trkpt>
      <trkpt lat="42.52079" lon="2.07057">
        <ele>1840.1861696897</ele>
        <time>2000-05-11T14:17:36.924</time>
      </trkpt>
      <trkpt lat="42.52078" lon="2.07058">
        <ele>1839.412515286</ele>
        <time>2000-05-11T14:17:37.924</time>
      </trkpt>
      <trkpt lat="42.52077" lon="2.07058">
        <ele>1839.4238877553</ele>
        <time>2000-05-11T14:17:38.924</time>
      </trkpt>
      <trkpt lat="42.52076" lon="2.07059">
        <ele>1840.0038925292</ele>
        <time>2000-05-11T14:17:39.924</time>
      </trkpt>
      <trkpt lat="42.52076" lon="2.0706">
        <ele>1841.2025883516</ele>
        <time>2000-05-11T14:17:40.924</time>
      </trkpt>
      <trkpt lat="42.52075" lon="2.07061">
        <ele>1842.6339354295</ele>
        <time>2000-05-11T14:17:41.924</time>
      </trkpt>
      <trkpt lat="42.52075" lon="2.07061">
        <ele>1843.7993328251</ele>
        <time>2000-05-11T14:17:42.924</time>
      </trkpt>
      <trkpt lat="42.52074" lon="2.07061">
        <ele>1844.159058373</ele>
        <time>2000-05-11T14:17:43.924</time>
      </trkpt>
      <trkpt lat="42.52073" lon="2.07062">
        <ele>1844.5916307876</ele>
        <time>2000-05-11T14:17:44.924</time>
      </trkpt>
      <trkpt lat="42.52072" lon="2.07063">
        <ele>1844.8101697454</ele>
        <time>2000-05-11T14:17:45.924</time>
      </trkpt>
      <trkpt lat="42.52071" lon="2.07063">
        <ele>1844.940490319</ele>
        <time>2000-05-11T14:17:46.924</time>
      </trkpt>
      <trkpt lat="42.52071" lon="2.07063">
        <ele>1845.0541104417</ele>
        <time>2000-05-11T14:17:47.924</time>
      </trkpt>
      <trkpt lat="42.5207" lon="2.07064">
        <ele>1845.2596325696</ele>
        <time>2000-05-11T14:17:48.924</time>
      </trkpt>
      <trkpt lat="42.52068" lon="2.07064">
        <ele>1844.8611751722</ele>
        <time>2000-05-11T14:17:49.924</time>
      </trkpt>
      <trkpt lat="42.52067" lon="2.07065">
        <ele>1844.7953639641</ele>
        <time>2000-05-11T14:17:50.924</time>
      </trkpt>
      <trkpt lat="42.52066" lon="2.07068">
        <ele>1845.0598816825</ele>
        <time>2000-05-11T14:17:51.924</time>
      </trkpt>
      <trkpt lat="42.52065" lon="2.07069">
        <ele>1845.4996178014</ele>
        <time>2000-05-11T14:17:52.924</time>
      </trkpt>
      <trkpt lat="42.52065" lon="2.07069">
        <ele>1845.8680968897</ele>
        <time>2000-05-11T14:17:53.924</time>
      </trkpt>
      <trkpt lat="42.52064" lon="2.07071">
        <ele>1847.2745828362</ele>
        <time>2000-05-11T14:17:54.924</time>
      </trkpt>
      <trkpt lat="42.52064" lon="2.07072">
        <ele>1848.9679801174</ele>
        <time>2000-05-11T14:17:55.924</time>
      </trkpt>
      <trkpt lat="42.52063" lon="2.07072">
        <ele>1850.3857837304</ele>
        <time>2000-05-11T14:17:56.924</time>
      </trkpt>
      <trkpt lat="42.52062" lon="2.07073">
        <ele>1851.4879062703</ele>
        <time>2000-05-11T14:17:57.924</time>
      </trkpt>
      <trkpt lat="42.52061" lon="2.07073">
        <ele>1852.4559702937</ele>
        <time>2000-05-11T14:17:58.924</time>
      </trkpt>
      <trkpt lat="42.52061" lon="2.07073">
        <ele>1852.9340543678</ele>
        <time>2000-05-11T14:17:59.924</time>
      </trkpt>
      <trkpt lat="42.5206" lon="2.07073">
        <ele>1853.065078654</ele>
        <time>2000-05-11T14:18:00.924</time>
      </trkpt>
      <trkpt lat="42.52059" lon="2.07073">
        <ele>1852.9661985988</ele>
        <time>2000-05-11T14:18:01.924</time>
      </trkpt>
      <trkpt lat="42.52057" lon="2.07075">
        <ele>1853.0767520562</ele>
        <time>2000-05-11T14:18:02.924</time>
      </trkpt>
      <trkpt lat="42.52057" lon="2.07075">
        <ele>1853.3213640301</ele>
        <time>2000-05-11T14:18:03.924</time>
      </trkpt>
      <trkpt lat="42.52055" lon="2.07076">
        <ele>1853.0416332914</ele>
        <time>2000-05-11T14:18:04.924</time>
      </trkpt>
      <trkpt lat="42.52054" lon="2.07075">
        <ele>1852.1486140201</ele>
        <time>2000-05-11T14:18:05.924</time>
      </trkpt>
      <trkpt lat="42.52053" lon="2.07074">
        <ele>1851.0237821497</ele>
        <time>2000-05-11T14:18:06.924</time>
      </trkpt>
      <trkpt lat="42.5205" lon="2.07074">
        <ele>1849.401315124</ele>
        <time>2000-05-11T14:18:07.924</time>
      </trkpt>
      <trkpt lat="42.52049" lon="2.07075">
        <ele>1847.6220945667</ele>
        <time>2000-05-11T14:18:08.924</time>
      </trkpt>
      <trkpt lat="42.52049" lon="2.07076">
        <ele>1846.5080341797</ele>
        <time>2000-05-11T14:18:09.924</time>
      </trkpt>
      <trkpt lat="42.52049" lon="2.07076">
        <ele>1845.8552201804</ele>
        <time>2000-05-11T14:18:10.924</time>
      </trkpt>
      <trkpt lat="42.52049" lon="2.07076">
        <ele>1845.4649549918</ele>
        <time>2000-05-11T14:18:11.924</time>
      </trkpt>
      <trkpt lat="42.52047" lon="2.07076">
        <ele>1845.8677523721</ele>
        <time>2000-05-11T14:18:12.925</time>
      </trkpt>
      <trkpt lat="42.52047" lon="2.07076">
        <ele>1846.4273032838</ele>
        <time>2000-05-11T14:18:13.925</time>
      </trkpt>
      <trkpt lat="42.52047" lon="2.07077">
        <ele>1847.0288887437</ele>
        <time>2000-05-11T14:18:14.927</time>
      </trkpt>
      <trkpt lat="42.52046" lon="2.07078">
        <ele>1847.744953444</ele>
        <time>2000-05-11T14:18:15.927</time>
      </trkpt>
      <trkpt lat="42.52044" lon="2.07079">
        <ele>1848.819180453</ele>
        <time>2000-05-11T14:18:16.928</time>
      </trkpt>
      <trkpt lat="42.52043" lon="2.0708">
        <ele>1849.8086671691</ele>
        <time>2000-05-11T14:18:17.928</time>
      </trkpt>
      <trkpt lat="42.52042" lon="2.0708">
        <ele>1850.8184427589</ele>
        <time>2000-05-11T14:18:18.928</time>
      </trkpt>
      <trkpt lat="42.52041" lon="2.0708">
        <ele>1851.4250251912</ele>
        <time>2000-05-11T14:18:19.928</time>
      </trkpt>
      <trkpt lat="42.5204" lon="2.07081">
        <ele>1852.0336221049</ele>
        <time>2000-05-11T14:18:20.928</time>
      </trkpt>
      <trkpt lat="42.52039" lon="2.07081">
        <ele>1852.1284854706</ele>
        <time>2000-05-11T14:18:21.928</time>
      </trkpt>
      <trkpt lat="42.52039" lon="2.07081">
        <ele>1851.9436908759</ele>
        <time>2000-05-11T14:18:22.928</time>
      </trkpt>
      <trkpt lat="42.52039" lon="2.07081">
        <ele>1851.7386074075</ele>
        <time>2000-05-11T14:18:23.928</time>
      </trkpt>
      <trkpt lat="42.52037" lon="2.07081">
        <ele>1851.8066321362</ele>
        <time>2000-05-11T14:18:24.928</time>
      </trkpt>
      <trkpt lat="42.52036" lon="2.07083">
        <ele>1852.0062573103</ele>
        <time>2000-05-11T14:18:25.928</time>
      </trkpt>
      <trkpt lat="42.52034" lon="2.07083">
        <ele>1852.0095068743</ele>
        <time>2000-05-11T14:18:26.928</time>
      </trkpt>
      <trkpt lat="42.52032" lon="2.07083">
        <ele>1851.4675539074</ele>
        <time>2000-05-11T14:18:27.928</time>
      </trkpt>
      <trkpt lat="42.5203" lon="2.07083">
        <ele>1850.5644507291</ele>
        <time>2000-05-11T14:18:28.928</time>
      </trkpt>
      <trkpt lat="42.5203" lon="2.07084">
        <ele>1849.7535776401</ele>
        <time>2000-05-11T14:18:29.928</time>
      </trkpt>
      <trkpt lat="42.52029" lon="2.07084">
        <ele>1848.7833147118</ele>
        <time>2000-05-11T14:18:30.928</time>
      </trkpt>
      <trkpt lat="42.52029" lon="2.07084">
        <ele>1847.8599141663</ele>
        <time>2000-05-11T14:18:31.928</time>
      </trkpt>
      <trkpt lat="42.52029" lon="2.07084">
        <ele>1847.4817161517</ele>
        <time>2000-05-11T14:18:32.928</time>
      </trkpt>
      <trkpt lat="42.52028" lon="2.07085">
        <ele>1847.8781545846</ele>
        <time>2000-05-11T14:18:33.926</time>
      </trkpt>
      <trkpt lat="42.52028" lon="2.07085">
        <ele>1848.075260682</ele>
        <time>2000-05-11T14:18:34.926</time>
      </trkpt>
      <trkpt lat="42.52027" lon="2.07085">
        <ele>1848.2778414743</ele>
        <time>2000-05-11T14:18:35.925</time>
      </trkpt>
      <trkpt lat="42.52026" lon="2.07085">
        <ele>1849.0496497499</ele>
        <time>2000-05-11T14:18:36.925</time>
      </trkpt>
      <trkpt lat="42.52024" lon="2.07086">
        <ele>1849.8289140061</ele>
        <time>2000-05-11T14:18:37.925</time>
      </trkpt>
      <trkpt lat="42.52023" lon="2.07089">
        <ele>1850.3444345606</ele>
        <time>2000-05-11T14:18:38.925</time>
      </trkpt>
      <trkpt lat="42.52021" lon="2.0709">
        <ele>1851.3509738754</ele>
        <time>2000-05-11T14:18:39.925</time>
      </trkpt>
      <trkpt lat="42.52021" lon="2.0709">
        <ele>1852.4203108001</ele>
        <time>2000-05-11T14:18:40.925</time>
      </trkpt>
      <trkpt lat="42.5202" lon="2.07089">
        <ele>1853.0655143442</ele>
        <time>2000-05-11T14:18:41.925</time>
      </trkpt>
      <trkpt lat="42.52019" lon="2.07089">
        <ele>1853.3723303981</ele>
        <time>2000-05-11T14:18:42.925</time>
      </trkpt>
      <trkpt lat="42.52018" lon="2.07089">
        <ele>1853.3381299956</ele>
        <time>2000-05-11T14:18:43.925</time>
      </trkpt>
      <trkpt lat="42.52017" lon="2.07088">
        <ele>1852.9354904896</ele>
        <time>2000-05-11T14:18:44.925</time>
      </trkpt>
      <trkpt lat="42.52017" lon="2.07088">
        <ele>1852.4088744368</ele>
        <time>2000-05-11T14:18:45.925</time>
      </trkpt>
      <trkpt lat="42.52016" lon="2.07087">
        <ele>1851.9202559849</ele>
        <time>2000-05-11T14:18:46.925</time>
      </trkpt>
      <trkpt lat="42.52015" lon="2.07087">
        <ele>1851.549197348</ele>
        <time>2000-05-11T14:18:47.925</time>
      </trkpt>
      <trkpt lat="42.52014" lon="2.07088">
        <ele>1851.0518299803</ele>
        <time>2000-05-11T14:18:48.925</time>
      </trkpt>
      <trkpt lat="42.52013" lon="2.07087">
        <ele>1850.4110479433</ele>
        <time>2000-05-11T14:18:49.925</time>
      </trkpt>
      <trkpt lat="42.52013" lon="2.07087">
        <ele>1849.5910009164</ele>
        <time>2000-05-11T14:18:50.925</time>
      </trkpt>
      <trkpt lat="42.52012" lon="2.07087">
        <ele>1848.6239344902</ele>
        <time>2000-05-11T14:18:51.925</time>
      </trkpt>
      <trkpt lat="42.52011" lon="2.07086">
        <ele>1847.7308298958</ele>
        <time>2000-05-11T14:18:52.925</time>
      </trkpt>
      <trkpt lat="42.52011" lon="2.07085">
        <ele>1846.8844724163</ele>
        <time>2000-05-11T14:18:53.925</time>
      </trkpt>
      <trkpt lat="42.5201" lon="2.07085">
        <ele>1846.1080837514</ele>
        <time>2000-05-11T14:18:54.925</time>
      </trkpt>
      <trkpt lat="42.5201" lon="2.07085">
        <ele>1845.486628283</ele>
        <time>2000-05-11T14:18:55.925</time>
      </trkpt>
      <trkpt lat="42.52009" lon="2.07085">
        <ele>1845.4124625545</ele>
        <time>2000-05-11T14:18:56.925</time>
      </trkpt>
      <trkpt lat="42.52008" lon="2.07083">
        <ele>1845.5220882399</ele>
        <time>2000-05-11T14:18:57.924</time>
      </trkpt>
      <trkpt lat="42.52008" lon="2.07083">
        <ele>1845.9025494633</ele>
        <time>2000-05-11T14:18:58.924</time>
      </trkpt>
      <trkpt lat="42.52008" lon="2.07082">
        <ele>1845.8861936271</ele>
        <time>2000-05-11T14:18:59.923</time>
      </trkpt>
      <trkpt lat="42.52007" lon="2.07082">
        <ele>1845.7516151987</ele>
        <time>2000-05-11T14:19:00.923</time>
      </trkpt>
      <trkpt lat="42.52007" lon="2.07081">
        <ele>1844.907826248</ele>
        <time>2000-05-11T14:19:01.923</time>
      </trkpt>
      <trkpt lat="42.52007" lon="2.0708">
        <ele>1843.830152351</ele>
        <time>2000-05-11T14:19:02.923</time>
      </trkpt>
      <trkpt lat="42.52006" lon="2.07079">
        <ele>1842.4323766494</ele>
        <time>2000-05-11T14:19:03.923</time>
      </trkpt>
      <trkpt lat="42.52006" lon="2.07078">
        <ele>1841.1431808788</ele>
        <time>2000-05-11T14:19:04.923</time>
      </trkpt>
      <trkpt lat="42.52005" lon="2.07077">
        <ele>1839.8814734878</ele>
        <time>2000-05-11T14:19:05.923</time>
      </trkpt>
      <trkpt lat="42.52004" lon="2.07076">
        <ele>1838.6164201537</ele>
        <time>2000-05-11T14:19:06.931</time>
      </trkpt>
      <trkpt lat="42.52003" lon="2.07075">
        <ele>1837.3021663053</ele>
        <time>2000-05-11T14:19:07.931</time>
      </trkpt>
      <trkpt lat="42.52002" lon="2.07073">
        <ele>1836.3037104499</ele>
        <time>2000-05-11T14:19:08.931</time>
      </trkpt>
      <trkpt lat="42.52002" lon="2.07072">
        <ele>1835.0565729698</ele>
        <time>2000-05-11T14:19:09.931</time>
      </trkpt>
      <trkpt lat="42.52001" lon="2.07071">
        <ele>1833.4775281955</ele>
        <time>2000-05-11T14:19:10.931</time>
      </trkpt>
      <trkpt lat="42.52001" lon="2.0707">
        <ele>1832.1011241902</ele>
        <time>2000-05-11T14:19:11.931</time>
      </trkpt>
      <trkpt lat="42.52001" lon="2.07069">
        <ele>1831.0545572951</ele>
        <time>2000-05-11T14:19:12.931</time>
      </trkpt>
      <trkpt lat="42.52001" lon="2.07067">
        <ele>1830.8067808751</ele>
        <time>2000-05-11T14:19:13.931</time>
      </trkpt>
      <trkpt lat="42.52001" lon="2.07065">
        <ele>1831.0997857282</ele>
        <time>2000-05-11T14:19:14.931</time>
      </trkpt>
      <trkpt lat="42.52" lon="2.07064">
        <ele>1831.5241592238</ele>
        <time>2000-05-11T14:19:15.931</time>
      </trkpt>
      <trkpt lat="42.52" lon="2.07063">
        <ele>1832.318287072</ele>
        <time>2000-05-11T14:19:16.931</time>
      </trkpt>
      <trkpt lat="42.52" lon="2.07063">
        <ele>1833.0212817192</ele>
        <time>2000-05-11T14:19:17.931</time>
      </trkpt>
      <trkpt lat="42.52" lon="2.07062">
        <ele>1833.355427443</ele>
        <time>2000-05-11T14:19:18.931</time>
      </trkpt>
      <trkpt lat="42.52" lon="2.07059">
        <ele>1833.70584637</ele>
        <time>2000-05-11T14:19:19.930</time>
      </trkpt>
      <trkpt lat="42.51999" lon="2.07058">
        <ele>1834.5971063031</ele>
        <time>2000-05-11T14:19:20.930</time>
      </trkpt>
      <trkpt lat="42.51999" lon="2.07057">
        <ele>1834.8338938741</ele>
        <time>2000-05-11T14:19:21.930</time>
      </trkpt>
      <trkpt lat="42.51999" lon="2.07055">
        <ele>1835.0454087939</ele>
        <time>2000-05-11T14:19:22.930</time>
      </trkpt>
      <trkpt lat="42.51999" lon="2.07055">
        <ele>1834.8312859738</ele>
        <time>2000-05-11T14:19:23.930</time>
      </trkpt>
      <trkpt lat="42.52" lon="2.07054">
        <ele>1834.649606258</ele>
        <time>2000-05-11T14:19:24.930</time>
      </trkpt>
      <trkpt lat="42.52" lon="2.07053">
        <ele>1834.0516814996</ele>
        <time>2000-05-11T14:19:25.930</time>
      </trkpt>
      <trkpt lat="42.52" lon="2.07051">
        <ele>1834.138028213</ele>
        <time>2000-05-11T14:19:26.930</time>
      </trkpt>
      <trkpt lat="42.52001" lon="2.07049">
        <ele>1834.1319460191</ele>
        <time>2000-05-11T14:19:27.930</time>
      </trkpt>
      <trkpt lat="42.52" lon="2.07047">
        <ele>1834.6011929994</ele>
        <time>2000-05-11T14:19:28.930</time>
      </trkpt>
      <trkpt lat="42.52" lon="2.07047">
        <ele>1834.9687273504</ele>
        <time>2000-05-11T14:19:29.930</time>
      </trkpt>
      <trkpt lat="42.52" lon="2.07047">
        <ele>1835.4942703098</ele>
        <time>2000-05-11T14:19:30.930</time>
      </trkpt>
      <trkpt lat="42.52" lon="2.07045">
        <ele>1835.8574008577</ele>
        <time>2000-05-11T14:19:31.930</time>
      </trkpt>
      <trkpt lat="42.52" lon="2.07044">
        <ele>1836.3920353951</ele>
        <time>2000-05-11T14:19:32.925</time>
      </trkpt>
      <trkpt lat="42.52" lon="2.07043">
        <ele>1836.5294420106</ele>
        <time>2000-05-11T14:19:33.925</time>
      </trkpt>
      <trkpt lat="42.52001" lon="2.07041">
        <ele>1836.6086513495</ele>
        <time>2000-05-11T14:19:34.925</time>
      </trkpt>
      <trkpt lat="42.52001" lon="2.0704">
        <ele>1836.7639893424</ele>
        <time>2000-05-11T14:19:35.925</time>
      </trkpt>
      <trkpt lat="42.52001" lon="2.0704">
        <ele>1836.9138244031</ele>
        <time>2000-05-11T14:19:36.925</time>
      </trkpt>
      <trkpt lat="42.52001" lon="2.0704">
        <ele>1836.8917337587</ele>
        <time>2000-05-11T14:19:37.923</time>
      </trkpt>
      <trkpt lat="42.52" lon="2.0704">
        <ele>1836.7686332464</ele>
        <time>2000-05-11T14:19:38.923</time>
      </trkpt>
      <trkpt lat="42.51998" lon="2.07041">
        <ele>1836.8450485695</ele>
        <time>2000-05-11T14:19:39.923</time>
      </trkpt>
      <trkpt lat="42.51997" lon="2.0704">
        <ele>1836.9398827508</ele>
        <time>2000-05-11T14:19:40.923</time>
      </trkpt>
      <trkpt lat="42.51996" lon="2.0704">
        <ele>1837.260598846</ele>
        <time>2000-05-11T14:19:41.923</time>
      </trkpt>
      <trkpt lat="42.51996" lon="2.0704">
        <ele>1837.6994382152</ele>
        <time>2000-05-11T14:19:42.923</time>
      </trkpt>
      <trkpt lat="42.51996" lon="2.0704">
        <ele>1838.1611862</ele>
        <time>2000-05-11T14:19:43.923</time>
      </trkpt>
      <trkpt lat="42.51993" lon="2.07039">
        <ele>1838.9478592573</ele>
        <time>2000-05-11T14:19:44.924</time>
      </trkpt>
      <trkpt lat="42.51992" lon="2.07038">
        <ele>1839.9231614426</ele>
        <time>2000-05-11T14:19:45.924</time>
      </trkpt>
      <trkpt lat="42.51992" lon="2.07036">
        <ele>1840.7145067362</ele>
        <time>2000-05-11T14:19:46.924</time>
      </trkpt>
      <trkpt lat="42.51992" lon="2.07035">
        <ele>1841.502707113</ele>
        <time>2000-05-11T14:19:47.924</time>
      </trkpt>
      <trkpt lat="42.51992" lon="2.07033">
        <ele>1841.9750469128</ele>
        <time>2000-05-11T14:19:48.924</time>
      </trkpt>
      <trkpt lat="42.51992" lon="2.07032">
        <ele>1842.3647435345</ele>
        <time>2000-05-11T14:19:49.924</time>
      </trkpt>
      <trkpt lat="42.51991" lon="2.07031">
        <ele>1842.42974282</ele>
        <time>2000-05-11T14:19:50.924</time>
      </trkpt>
      <trkpt lat="42.51991" lon="2.07031">
        <ele>1842.650711469</ele>
        <time>2000-05-11T14:19:51.924</time>
      </trkpt>
      <trkpt lat="42.5199" lon="2.07031">
        <ele>1843.0668806937</ele>
        <time>2000-05-11T14:19:52.924</time>
      </trkpt>
      <trkpt lat="42.5199" lon="2.07029">
        <ele>1844.4427092383</ele>
        <time>2000-05-11T14:19:53.924</time>
      </trkpt>
      <trkpt lat="42.5199" lon="2.07027">
        <ele>1844.750198474</ele>
        <time>2000-05-11T14:19:54.924</time>
      </trkpt>
      <trkpt lat="42.51989" lon="2.07027">
        <ele>1843.7856454834</ele>
        <time>2000-05-11T14:19:55.924</time>
      </trkpt>
      <trkpt lat="42.51988" lon="2.07027">
        <ele>1842.4765834274</ele>
        <time>2000-05-11T14:19:56.924</time>
      </trkpt>
      <trkpt lat="42.51987" lon="2.07026">
        <ele>1840.9806081187</ele>
        <time>2000-05-11T14:19:57.924</time>
      </trkpt>
      <trkpt lat="42.51987" lon="2.07026">
        <ele>1838.8140361011</ele>
        <time>2000-05-11T14:19:58.924</time>
      </trkpt>
      <trkpt lat="42.51986" lon="2.07024">
        <ele>1837.8092693184</ele>
        <time>2000-05-11T14:19:59.924</time>
      </trkpt>
      <trkpt lat="42.51985" lon="2.07023">
        <ele>1838.2943807801</ele>
        <time>2000-05-11T14:20:00.924</time>
      </trkpt>
      <trkpt lat="42.51985" lon="2.07022">
        <ele>1838.9257563263</ele>
        <time>2000-05-11T14:20:01.924</time>
      </trkpt>
      <trkpt lat="42.51984" lon="2.07021">
        <ele>1839.6314812824</ele>
        <time>2000-05-11T14:20:02.924</time>
      </trkpt>
      <trkpt lat="42.51983" lon="2.07021">
        <ele>1840.1371068381</ele>
        <time>2000-05-11T14:20:03.924</time>
      </trkpt>
      <trkpt lat="42.51982" lon="2.0702">
        <ele>1840.1035867205</ele>
        <time>2000-05-11T14:20:04.924</time>
      </trkpt>
      <trkpt lat="42.51981" lon="2.07019">
        <ele>1839.8475852793</ele>
        <time>2000-05-11T14:20:05.924</time>
      </trkpt>
      <trkpt lat="42.5198" lon="2.07019">
        <ele>1839.5584751142</ele>
        <time>2000-05-11T14:20:06.924</time>
      </trkpt>
      <trkpt lat="42.5198" lon="2.07018">
        <ele>1839.2006934823</ele>
        <time>2000-05-11T14:20:07.924</time>
      </trkpt>
      <trkpt lat="42.51979" lon="2.07018">
        <ele>1839.1380999558</ele>
        <time>2000-05-11T14:20:08.924</time>
      </trkpt>
      <trkpt lat="42.51978" lon="2.07017">
        <ele>1839.115807124</ele>
        <time>2000-05-11T14:20:09.924</time>
      </trkpt>
      <trkpt lat="42.51977" lon="2.07017">
        <ele>1838.9215147194</ele>
        <time>2000-05-11T14:20:10.924</time>
      </trkpt>
      <trkpt lat="42.51976" lon="2.07017">
        <ele>1838.5645099321</ele>
        <time>2000-05-11T14:20:11.924</time>
      </trkpt>
      <trkpt lat="42.51975" lon="2.07018">
        <ele>1838.0017318757</ele>
        <time>2000-05-11T14:20:12.924</time>
      </trkpt>
      <trkpt lat="42.51974" lon="2.07019">
        <ele>1837.2295185795</ele>
        <time>2000-05-11T14:20:13.924</time>
      </trkpt>
      <trkpt lat="42.51973" lon="2.07019">
        <ele>1836.6845324868</ele>
        <time>2000-05-11T14:20:14.924</time>
      </trkpt>
      <trkpt lat="42.51972" lon="2.07018">
        <ele>1836.3528796686</ele>
        <time>2000-05-11T14:20:15.924</time>
      </trkpt>
      <trkpt lat="42.51972" lon="2.07018">
        <ele>1836.2173985522</ele>
        <time>2000-05-11T14:20:16.924</time>
      </trkpt>
      <trkpt lat="42.51971" lon="2.07019">
        <ele>1836.4892677991</ele>
        <time>2000-05-11T14:20:17.924</time>
      </trkpt>
      <trkpt lat="42.5197" lon="2.07018">
        <ele>1837.1395067785</ele>
        <time>2000-05-11T14:20:18.923</time>
      </trkpt>
      <trkpt lat="42.5197" lon="2.07018">
        <ele>1837.5842971537</ele>
        <time>2000-05-11T14:20:19.923</time>
      </trkpt>
      <trkpt lat="42.51969" lon="2.07018">
        <ele>1838.1491002347</ele>
        <time>2000-05-11T14:20:20.925</time>
      </trkpt>
      <trkpt lat="42.51968" lon="2.07019">
        <ele>1838.7257543551</ele>
        <time>2000-05-11T14:20:21.925</time>
      </trkpt>
      <trkpt lat="42.51967" lon="2.0702">
        <ele>1839.0361267868</ele>
        <time>2000-05-11T14:20:22.925</time>
      </trkpt>
      <trkpt lat="42.51966" lon="2.0702">
        <ele>1839.0528468087</ele>
        <time>2000-05-11T14:20:23.925</time>
      </trkpt>
      <trkpt lat="42.51966" lon="2.07021">
        <ele>1839.1604777845</ele>
        <time>2000-05-11T14:20:24.925</time>
      </trkpt>
      <trkpt lat="42.51965" lon="2.07021">
        <ele>1839.1191451054</ele>
        <time>2000-05-11T14:20:25.924</time>
      </trkpt>
      <trkpt lat="42.51965" lon="2.07021">
        <ele>1839.065961387</ele>
        <time>2000-05-11T14:20:26.924</time>
      </trkpt>
      <trkpt lat="42.51962" lon="2.07022">
        <ele>1838.814863725</ele>
        <time>2000-05-11T14:20:27.923</time>
      </trkpt>
      <trkpt lat="42.51962" lon="2.07022">
        <ele>1838.6201932412</ele>
        <time>2000-05-11T14:20:28.923</time>
      </trkpt>
      <trkpt lat="42.51961" lon="2.07022">
        <ele>1839.014862743</ele>
        <time>2000-05-11T14:20:29.923</time>
      </trkpt>
      <trkpt lat="42.51959" lon="2.07023">
        <ele>1839.4417111041</ele>
        <time>2000-05-11T14:20:30.923</time>
      </trkpt>
      <trkpt lat="42.51959" lon="2.07023">
        <ele>1839.8685594652</ele>
        <time>2000-05-11T14:20:31.923</time>
      </trkpt>
      <trkpt lat="42.51958" lon="2.07025">
        <ele>1840.6737874663</ele>
        <time>2000-05-11T14:20:32.926</time>
      </trkpt>
      <trkpt lat="42.51957" lon="2.07025">
        <ele>1841.4757228643</ele>
        <time>2000-05-11T14:20:33.926</time>
      </trkpt>
      <trkpt lat="42.51956" lon="2.07026">
        <ele>1841.6235648304</ele>
        <time>2000-05-11T14:20:34.926</time>
      </trkpt>
      <trkpt lat="42.51955" lon="2.07027">
        <ele>1842.1200154947</ele>
        <time>2000-05-11T14:20:35.926</time>
      </trkpt>
      <trkpt lat="42.51953" lon="2.07028">
        <ele>1843.0070897879</ele>
        <time>2000-05-11T14:20:36.926</time>
      </trkpt>
      <trkpt lat="42.51953" lon="2.07029">
        <ele>1844.2259606583</ele>
        <time>2000-05-11T14:20:37.926</time>
      </trkpt>
      <trkpt lat="42.51952" lon="2.07029">
        <ele>1845.4431432733</ele>
        <time>2000-05-11T14:20:38.926</time>
      </trkpt>
      <trkpt lat="42.51951" lon="2.0703">
        <ele>1846.9474282594</ele>
        <time>2000-05-11T14:20:39.926</time>
      </trkpt>
      <trkpt lat="42.51951" lon="2.0703">
        <ele>1848.104708937</ele>
        <time>2000-05-11T14:20:40.926</time>
      </trkpt>
      <trkpt lat="42.51949" lon="2.07032">
        <ele>1848.6274925979</ele>
        <time>2000-05-11T14:20:41.927</time>
      </trkpt>
      <trkpt lat="42.51948" lon="2.07034">
        <ele>1848.7654380769</ele>
        <time>2000-05-11T14:20:42.927</time>
      </trkpt>
      <trkpt lat="42.51946" lon="2.07037">
        <ele>1848.8722723441</ele>
        <time>2000-05-11T14:20:43.927</time>
      </trkpt>
      <trkpt lat="42.51944" lon="2.0704">
        <ele>1848.9420286885</ele>
        <time>2000-05-11T14:20:44.927</time>
      </trkpt>
      <trkpt lat="42.51943" lon="2.07042">
        <ele>1849.3386026762</ele>
        <time>2000-05-11T14:20:45.927</time>
      </trkpt>
      <trkpt lat="42.51941" lon="2.07044">
        <ele>1849.9988314435</ele>
        <time>2000-05-11T14:20:46.927</time>
      </trkpt>
      <trkpt lat="42.51941" lon="2.07045">
        <ele>1850.5573530737</ele>
        <time>2000-05-11T14:20:47.927</time>
      </trkpt>
      <trkpt lat="42.5194" lon="2.07046">
        <ele>1851.3462143166</ele>
        <time>2000-05-11T14:20:48.927</time>
      </trkpt>
      <trkpt lat="42.5194" lon="2.07046">
        <ele>1851.8627527975</ele>
        <time>2000-05-11T14:20:49.927</time>
      </trkpt>
      <trkpt lat="42.5194" lon="2.07046">
        <ele>1852.1138169482</ele>
        <time>2000-05-11T14:20:50.927</time>
      </trkpt>
      <trkpt lat="42.51938" lon="2.07047">
        <ele>1851.9037202079</ele>
        <time>2000-05-11T14:20:51.927</time>
      </trkpt>
      <trkpt lat="42.51938" lon="2.07048">
        <ele>1851.2398790775</ele>
        <time>2000-05-11T14:20:52.927</time>
      </trkpt>
      <trkpt lat="42.51937" lon="2.07049">
        <ele>1850.5003474342</ele>
        <time>2000-05-11T14:20:53.925</time>
      </trkpt>
      <trkpt lat="42.51937" lon="2.07049">
        <ele>1849.756956597</ele>
        <time>2000-05-11T14:20:54.925</time>
      </trkpt>
      <trkpt lat="42.51934" lon="2.07051">
        <ele>1849.0617665507</ele>
        <time>2000-05-11T14:20:55.925</time>
      </trkpt>
      <trkpt lat="42.51933" lon="2.07052">
        <ele>1848.8439413184</ele>
        <time>2000-05-11T14:20:56.925</time>
      </trkpt>
      <trkpt lat="42.51932" lon="2.07053">
        <ele>1848.4509515593</ele>
        <time>2000-05-11T14:20:57.925</time>
      </trkpt>
      <trkpt lat="42.51932" lon="2.07053">
        <ele>1847.9394047705</ele>
        <time>2000-05-11T14:20:58.925</time>
      </trkpt>
      <trkpt lat="42.51932" lon="2.07054">
        <ele>1847.087666342</ele>
        <time>2000-05-11T14:20:59.925</time>
      </trkpt>
      <trkpt lat="42.51931" lon="2.07056">
        <ele>1845.9008758871</ele>
        <time>2000-05-11T14:21:00.925</time>
      </trkpt>
      <trkpt lat="42.51931" lon="2.07057">
        <ele>1844.4217035346</ele>
        <time>2000-05-11T14:21:01.925</time>
      </trkpt>
      <trkpt lat="42.5193" lon="2.07058">
        <ele>1843.2562025052</ele>
        <time>2000-05-11T14:21:02.924</time>
      </trkpt>
      <trkpt lat="42.51928" lon="2.07059">
        <ele>1841.7502205573</ele>
        <time>2000-05-11T14:21:03.924</time>
      </trkpt>
      <trkpt lat="42.51926" lon="2.0706">
        <ele>1840.8755869238</ele>
        <time>2000-05-11T14:21:04.924</time>
      </trkpt>
      <trkpt lat="42.51925" lon="2.07061">
        <ele>1840.4309065301</ele>
        <time>2000-05-11T14:21:05.924</time>
      </trkpt>
      <trkpt lat="42.51924" lon="2.07061">
        <ele>1840.2634509312</ele>
        <time>2000-05-11T14:21:06.924</time>
      </trkpt>
      <trkpt lat="42.51924" lon="2.07062">
        <ele>1840.1912505627</ele>
        <time>2000-05-11T14:21:07.924</time>
      </trkpt>
      <trkpt lat="42.51923" lon="2.07063">
        <ele>1840.3556052813</ele>
        <time>2000-05-11T14:21:08.924</time>
      </trkpt>
      <trkpt lat="42.51922" lon="2.07064">
        <ele>1839.9982712256</ele>
        <time>2000-05-11T14:21:09.924</time>
      </trkpt>
      <trkpt lat="42.51922" lon="2.07064">
        <ele>1839.4364918523</ele>
        <time>2000-05-11T14:21:10.924</time>
      </trkpt>
      <trkpt lat="42.51921" lon="2.07065">
        <ele>1839.2489748346</ele>
        <time>2000-05-11T14:21:11.926</time>
      </trkpt>
      <trkpt lat="42.51921" lon="2.07065">
        <ele>1839.309607471</ele>
        <time>2000-05-11T14:21:12.926</time>
      </trkpt>
      <trkpt lat="42.51919" lon="2.07066">
        <ele>1839.3496549889</ele>
        <time>2000-05-11T14:21:13.926</time>
      </trkpt>
      <trkpt lat="42.51918" lon="2.07067">
        <ele>1840.0066095436</ele>
        <time>2000-05-11T14:21:14.926</time>
      </trkpt>
      <trkpt lat="42.51917" lon="2.07068">
        <ele>1840.6778068999</ele>
        <time>2000-05-11T14:21:15.926</time>
      </trkpt>
      <trkpt lat="42.51916" lon="2.0707">
        <ele>1841.0852850528</ele>
        <time>2000-05-11T14:21:16.926</time>
      </trkpt>
      <trkpt lat="42.51914" lon="2.0707">
        <ele>1841.832210972</ele>
        <time>2000-05-11T14:21:17.926</time>
      </trkpt>
      <trkpt lat="42.51913" lon="2.07071">
        <ele>1843.2714900123</ele>
        <time>2000-05-11T14:21:18.926</time>
      </trkpt>
      <trkpt lat="42.51912" lon="2.07073">
        <ele>1844.3645474833</ele>
        <time>2000-05-11T14:21:19.926</time>
      </trkpt>
      <trkpt lat="42.51912" lon="2.07074">
        <ele>1845.4800223004</ele>
        <time>2000-05-11T14:21:20.926</time>
      </trkpt>
      <trkpt lat="42.51912" lon="2.07076">
        <ele>1846.4924809393</ele>
        <time>2000-05-11T14:21:21.926</time>
      </trkpt>
      <trkpt lat="42.51912" lon="2.07076">
        <ele>1847.1654918119</ele>
        <time>2000-05-11T14:21:22.926</time>
      </trkpt>
      <trkpt lat="42.51912" lon="2.07076">
        <ele>1847.2706605131</ele>
        <time>2000-05-11T14:21:23.926</time>
      </trkpt>
      <trkpt lat="42.51909" lon="2.07076">
        <ele>1847.1512278823</ele>
        <time>2000-05-11T14:21:24.926</time>
      </trkpt>
      <trkpt lat="42.51908" lon="2.07079">
        <ele>1846.8800319269</ele>
        <time>2000-05-11T14:21:25.926</time>
      </trkpt>
      <trkpt lat="42.51907" lon="2.07081">
        <ele>1846.762270724</ele>
        <time>2000-05-11T14:21:26.926</time>
      </trkpt>
      <trkpt lat="42.51907" lon="2.07082">
        <ele>1847.0135140641</ele>
        <time>2000-05-11T14:21:27.926</time>
      </trkpt>
      <trkpt lat="42.51907" lon="2.07082">
        <ele>1847.2647574041</ele>
        <time>2000-05-11T14:21:28.926</time>
      </trkpt>
      <trkpt lat="42.51907" lon="2.07083">
        <ele>1848.1225652173</ele>
        <time>2000-05-11T14:21:29.926</time>
      </trkpt>
      <trkpt lat="42.51907" lon="2.07084">
        <ele>1849.2392437197</ele>
        <time>2000-05-11T14:21:30.926</time>
      </trkpt>
      <trkpt lat="42.51906" lon="2.07086">
        <ele>1850.0589191128</ele>
        <time>2000-05-11T14:21:31.926</time>
      </trkpt>
      <trkpt lat="42.51907" lon="2.07087">
        <ele>1850.3636542238</ele>
        <time>2000-05-11T14:21:32.926</time>
      </trkpt>
      <trkpt lat="42.51907" lon="2.07087">
        <ele>1850.6463627156</ele>
        <time>2000-05-11T14:21:33.926</time>
      </trkpt>
      <trkpt lat="42.51908" lon="2.07088">
        <ele>1850.8245648012</ele>
        <time>2000-05-11T14:21:34.926</time>
      </trkpt>
      <trkpt lat="42.51909" lon="2.07089">
        <ele>1851.4948005119</ele>
        <time>2000-05-11T14:21:35.926</time>
      </trkpt>
      <trkpt lat="42.51908" lon="2.0709">
        <ele>1852.1545110974</ele>
        <time>2000-05-11T14:21:36.926</time>
      </trkpt>
      <trkpt lat="42.51907" lon="2.07091">
        <ele>1852.9874162273</ele>
        <time>2000-05-11T14:21:37.926</time>
      </trkpt>
      <trkpt lat="42.51905" lon="2.07092">
        <ele>1853.6894811861</ele>
        <time>2000-05-11T14:21:38.926</time>
      </trkpt>
      <trkpt lat="42.51903" lon="2.07091">
        <ele>1853.6370590372</ele>
        <time>2000-05-11T14:21:39.926</time>
      </trkpt>
      <trkpt lat="42.51901" lon="2.07092">
        <ele>1852.107160146</ele>
        <time>2000-05-11T14:21:40.926</time>
      </trkpt>
      <trkpt lat="42.51899" lon="2.07091">
        <ele>1850.2645494925</ele>
        <time>2000-05-11T14:21:41.926</time>
      </trkpt>
      <trkpt lat="42.51899" lon="2.07091">
        <ele>1848.3946800336</ele>
        <time>2000-05-11T14:21:42.926</time>
      </trkpt>
      <trkpt lat="42.51898" lon="2.07091">
        <ele>1846.1490937132</ele>
        <time>2000-05-11T14:21:43.926</time>
      </trkpt>
      <trkpt lat="42.51898" lon="2.07091">
        <ele>1844.340384398</ele>
        <time>2000-05-11T14:21:44.926</time>
      </trkpt>
      <trkpt lat="42.51897" lon="2.07092">
        <ele>1843.3788151756</ele>
        <time>2000-05-11T14:21:45.926</time>
      </trkpt>
      <trkpt lat="42.51897" lon="2.07092">
        <ele>1842.8556960117</ele>
        <time>2000-05-11T14:21:46.926</time>
      </trkpt>
      <trkpt lat="42.51896" lon="2.07092">
        <ele>1842.2811326137</ele>
        <time>2000-05-11T14:21:47.924</time>
      </trkpt>
      <trkpt lat="42.51895" lon="2.07093">
        <ele>1842.1266118973</ele>
        <time>2000-05-11T14:21:48.924</time>
      </trkpt>
      <trkpt lat="42.51893" lon="2.07094">
        <ele>1842.0111693485</ele>
        <time>2000-05-11T14:21:49.924</time>
      </trkpt>
      <trkpt lat="42.51891" lon="2.07094">
        <ele>1841.9164767811</ele>
        <time>2000-05-11T14:21:50.924</time>
      </trkpt>
      <trkpt lat="42.51889" lon="2.07096">
        <ele>1841.9568058353</ele>
        <time>2000-05-11T14:21:51.924</time>
      </trkpt>
      <trkpt lat="42.51888" lon="2.07096">
        <ele>1842.5089834169</ele>
        <time>2000-05-11T14:21:52.924</time>
      </trkpt>
      <trkpt lat="42.51887" lon="2.07097">
        <ele>1843.7421130959</ele>
        <time>2000-05-11T14:21:53.924</time>
      </trkpt>
      <trkpt lat="42.51885" lon="2.07099">
        <ele>1844.5692725156</ele>
        <time>2000-05-11T14:21:54.924</time>
      </trkpt>
      <trkpt lat="42.51885" lon="2.071">
        <ele>1845.1592031527</ele>
        <time>2000-05-11T14:21:55.924</time>
      </trkpt>
      <trkpt lat="42.51885" lon="2.07101">
        <ele>1845.1590602022</ele>
        <time>2000-05-11T14:21:56.924</time>
      </trkpt>
      <trkpt lat="42.51885" lon="2.07101">
        <ele>1844.6985129584</ele>
        <time>2000-05-11T14:21:57.924</time>
      </trkpt>
      <trkpt lat="42.51884" lon="2.07102">
        <ele>1843.6179783644</ele>
        <time>2000-05-11T14:21:58.927</time>
      </trkpt>
      <trkpt lat="42.51884" lon="2.071">
        <ele>1842.5812592017</ele>
        <time>2000-05-11T14:21:59.927</time>
      </trkpt>
      <trkpt lat="42.51882" lon="2.07099">
        <ele>1841.6378946563</ele>
        <time>2000-05-11T14:22:00.927</time>
      </trkpt>
      <trkpt lat="42.51881" lon="2.07099">
        <ele>1841.2910232851</ele>
        <time>2000-05-11T14:22:01.927</time>
      </trkpt>
      <trkpt lat="42.5188" lon="2.07101">
        <ele>1841.0341384208</ele>
        <time>2000-05-11T14:22:02.927</time>
      </trkpt>
      <trkpt lat="42.51878" lon="2.07103">
        <ele>1840.7532810761</ele>
        <time>2000-05-11T14:22:03.927</time>
      </trkpt>
      <trkpt lat="42.5188" lon="2.07106">
        <ele>1841.1337089952</ele>
        <time>2000-05-11T14:22:04.927</time>
      </trkpt>
      <trkpt lat="42.5188" lon="2.07106">
        <ele>1841.6317966098</ele>
        <time>2000-05-11T14:22:05.927</time>
      </trkpt>
      <trkpt lat="42.5188" lon="2.07107">
        <ele>1841.6859818675</ele>
        <time>2000-05-11T14:22:06.927</time>
      </trkpt>
      <trkpt lat="42.51879" lon="2.07109">
        <ele>1841.689405874</ele>
        <time>2000-05-11T14:22:07.927</time>
      </trkpt>
      <trkpt lat="42.51879" lon="2.0711">
        <ele>1842.2085009879</ele>
        <time>2000-05-11T14:22:08.927</time>
      </trkpt>
      <trkpt lat="42.51879" lon="2.07113">
        <ele>1842.6372266738</ele>
        <time>2000-05-11T14:22:09.927</time>
      </trkpt>
      <trkpt lat="42.51879" lon="2.07114">
        <ele>1843.3673276765</ele>
        <time>2000-05-11T14:22:10.927</time>
      </trkpt>
      <trkpt lat="42.51879" lon="2.07115">
        <ele>1844.8973726496</ele>
        <time>2000-05-11T14:22:11.927</time>
      </trkpt>
      <trkpt lat="42.51879" lon="2.07115">
        <ele>1846.388192367</ele>
        <time>2000-05-11T14:22:12.927</time>
      </trkpt>
      <trkpt lat="42.51879" lon="2.07116">
        <ele>1846.9677886238</ele>
        <time>2000-05-11T14:22:13.927</time>
      </trkpt>
      <trkpt lat="42.51878" lon="2.07119">
        <ele>1847.7243912857</ele>
        <time>2000-05-11T14:22:14.927</time>
      </trkpt>
      <trkpt lat="42.51878" lon="2.07119">
        <ele>1848.1796186307</ele>
        <time>2000-05-11T14:22:15.927</time>
      </trkpt>
      <trkpt lat="42.51877" lon="2.07121">
        <ele>1848.360341404</ele>
        <time>2000-05-11T14:22:16.929</time>
      </trkpt>
      <trkpt lat="42.51877" lon="2.07122">
        <ele>1848.5724510979</ele>
        <time>2000-05-11T14:22:17.929</time>
      </trkpt>
      <trkpt lat="42.51876" lon="2.07123">
        <ele>1849.5037693605</ele>
        <time>2000-05-11T14:22:18.929</time>
      </trkpt>
      <trkpt lat="42.51876" lon="2.07124">
        <ele>1849.7122624449</ele>
        <time>2000-05-11T14:22:19.929</time>
      </trkpt>
      <trkpt lat="42.51875" lon="2.07125">
        <ele>1849.789916024</ele>
        <time>2000-05-11T14:22:20.929</time>
      </trkpt>
      <trkpt lat="42.51874" lon="2.07127">
        <ele>1849.5640726075</ele>
        <time>2000-05-11T14:22:21.929</time>
      </trkpt>
      <trkpt lat="42.51873" lon="2.07129">
        <ele>1849.2447186211</ele>
        <time>2000-05-11T14:22:22.929</time>
      </trkpt>
      <trkpt lat="42.51872" lon="2.0713">
        <ele>1848.3896844169</ele>
        <time>2000-05-11T14:22:23.929</time>
      </trkpt>
      <trkpt lat="42.51871" lon="2.0713">
        <ele>1848.1558209153</ele>
        <time>2000-05-11T14:22:24.929</time>
      </trkpt>
      <trkpt lat="42.51871" lon="2.07132">
        <ele>1848.3763724022</ele>
        <time>2000-05-11T14:22:25.929</time>
      </trkpt>
      <trkpt lat="42.51871" lon="2.07133">
        <ele>1848.5718873115</ele>
        <time>2000-05-11T14:22:26.929</time>
      </trkpt>
      <trkpt lat="42.51871" lon="2.07135">
        <ele>1849.0914742304</ele>
        <time>2000-05-11T14:22:27.929</time>
      </trkpt>
      <trkpt lat="42.5187" lon="2.07137">
        <ele>1849.610785331</ele>
        <time>2000-05-11T14:22:28.929</time>
      </trkpt>
      <trkpt lat="42.5187" lon="2.07138">
        <ele>1849.5108307311</ele>
        <time>2000-05-11T14:22:29.929</time>
      </trkpt>
      <trkpt lat="42.5187" lon="2.07139">
        <ele>1849.5594533218</ele>
        <time>2000-05-11T14:22:30.929</time>
      </trkpt>
      <trkpt lat="42.5187" lon="2.07139">
        <ele>1849.713631236</ele>
        <time>2000-05-11T14:22:31.929</time>
      </trkpt>
      <trkpt lat="42.5187" lon="2.07139">
        <ele>1849.6058607899</ele>
        <time>2000-05-11T14:22:32.929</time>
      </trkpt>
      <trkpt lat="42.51869" lon="2.07142">
        <ele>1850.8333355429</ele>
        <time>2000-05-11T14:22:33.929</time>
      </trkpt>
      <trkpt lat="42.51867" lon="2.07143">
        <ele>1851.7825770821</ele>
        <time>2000-05-11T14:22:34.929</time>
      </trkpt>
      <trkpt lat="42.51866" lon="2.07144">
        <ele>1852.1306325195</ele>
        <time>2000-05-11T14:22:35.929</time>
      </trkpt>
      <trkpt lat="42.51866" lon="2.07146">
        <ele>1852.3447264221</ele>
        <time>2000-05-11T14:22:36.929</time>
      </trkpt>
      <trkpt lat="42.51866" lon="2.07146">
        <ele>1852.6509337053</ele>
        <time>2000-05-11T14:22:37.929</time>
      </trkpt>
      <trkpt lat="42.51867" lon="2.07147">
        <ele>1851.8616081763</ele>
        <time>2000-05-11T14:22:38.929</time>
      </trkpt>
      <trkpt lat="42.51866" lon="2.07149">
        <ele>1851.6137672052</ele>
        <time>2000-05-11T14:22:39.929</time>
      </trkpt>
      <trkpt lat="42.51866" lon="2.07151">
        <ele>1851.4595241956</ele>
        <time>2000-05-11T14:22:40.929</time>
      </trkpt>
      <trkpt lat="42.51866" lon="2.07152">
        <ele>1851.3398692109</ele>
        <time>2000-05-11T14:22:41.929</time>
      </trkpt>
      <trkpt lat="42.51866" lon="2.07152">
        <ele>1851.1281008454</ele>
        <time>2000-05-11T14:22:42.929</time>
      </trkpt>
      <trkpt lat="42.51865" lon="2.07155">
        <ele>1850.7988607474</ele>
        <time>2000-05-11T14:22:43.929</time>
      </trkpt>
      <trkpt lat="42.51865" lon="2.07156">
        <ele>1850.4547857726</ele>
        <time>2000-05-11T14:22:44.929</time>
      </trkpt>
      <trkpt lat="42.51864" lon="2.07156">
        <ele>1849.6838454925</ele>
        <time>2000-05-11T14:22:45.929</time>
      </trkpt>
      <trkpt lat="42.51865" lon="2.07157">
        <ele>1849.0385298803</ele>
        <time>2000-05-11T14:22:46.929</time>
      </trkpt>
      <trkpt lat="42.51865" lon="2.07157">
        <ele>1848.3932142682</ele>
        <time>2000-05-11T14:22:47.929</time>
      </trkpt>
      <trkpt lat="42.51864" lon="2.07159">
        <ele>1847.8532350831</ele>
        <time>2000-05-11T14:22:48.929</time>
      </trkpt>
      <trkpt lat="42.51864" lon="2.07162">
        <ele>1847.5314652752</ele>
        <time>2000-05-11T14:22:49.929</time>
      </trkpt>
      <trkpt lat="42.51863" lon="2.07165">
        <ele>1847.9403314821</ele>
        <time>2000-05-11T14:22:50.929</time>
      </trkpt>
      <trkpt lat="42.51864" lon="2.07167">
        <ele>1848.1376964919</ele>
        <time>2000-05-11T14:22:51.929</time>
      </trkpt>
      <trkpt lat="42.51864" lon="2.07168">
        <ele>1847.6720678454</ele>
        <time>2000-05-11T14:22:52.929</time>
      </trkpt>
      <trkpt lat="42.51863" lon="2.07169">
        <ele>1846.8479227334</ele>
        <time>2000-05-11T14:22:53.929</time>
      </trkpt>
      <trkpt lat="42.51862" lon="2.07171">
        <ele>1845.3232364576</ele>
        <time>2000-05-11T14:22:54.929</time>
      </trkpt>
      <trkpt lat="42.51863" lon="2.07172">
        <ele>1843.7448006107</ele>
        <time>2000-05-11T14:22:55.929</time>
      </trkpt>
      <trkpt lat="42.51863" lon="2.07172">
        <ele>1842.3516148029</ele>
        <time>2000-05-11T14:22:56.929</time>
      </trkpt>
      <trkpt lat="42.51863" lon="2.07173">
        <ele>1841.3820156086</ele>
        <time>2000-05-11T14:22:57.928</time>
      </trkpt>
      <trkpt lat="42.51862" lon="2.07175">
        <ele>1840.3435547201</ele>
        <time>2000-05-11T14:22:58.928</time>
      </trkpt>
      <trkpt lat="42.51861" lon="2.07176">
        <ele>1839.5888019307</ele>
        <time>2000-05-11T14:22:59.928</time>
      </trkpt>
      <trkpt lat="42.51859" lon="2.07177">
        <ele>1838.0593436426</ele>
        <time>2000-05-11T14:23:00.928</time>
      </trkpt>
      <trkpt lat="42.51858" lon="2.07179">
        <ele>1836.0671049399</ele>
        <time>2000-05-11T14:23:01.928</time>
      </trkpt>
      <trkpt lat="42.51857" lon="2.07179">
        <ele>1834.4175628763</ele>
        <time>2000-05-11T14:23:02.928</time>
      </trkpt>
      <trkpt lat="42.51857" lon="2.0718">
        <ele>1833.2226196801</ele>
        <time>2000-05-11T14:23:03.928</time>
      </trkpt>
      <trkpt lat="42.51857" lon="2.07181">
        <ele>1832.3683961324</ele>
        <time>2000-05-11T14:23:04.928</time>
      </trkpt>
      <trkpt lat="42.51858" lon="2.07182">
        <ele>1832.3558574837</ele>
        <time>2000-05-11T14:23:05.928</time>
      </trkpt>
      <trkpt lat="42.51858" lon="2.07183">
        <ele>1832.9972226376</ele>
        <time>2000-05-11T14:23:06.928</time>
      </trkpt>
      <trkpt lat="42.51857" lon="2.07184">
        <ele>1833.6533111405</ele>
        <time>2000-05-11T14:23:07.928</time>
      </trkpt>
      <trkpt lat="42.51857" lon="2.07185">
        <ele>1834.4365576491</ele>
        <time>2000-05-11T14:23:08.928</time>
      </trkpt>
      <trkpt lat="42.51857" lon="2.07185">
        <ele>1835.1253663251</ele>
        <time>2000-05-11T14:23:09.928</time>
      </trkpt>
      <trkpt lat="42.51856" lon="2.07186">
        <ele>1835.75048311</ele>
        <time>2000-05-11T14:23:10.930</time>
      </trkpt>
      <trkpt lat="42.51856" lon="2.07188">
        <ele>1836.4879443847</ele>
        <time>2000-05-11T14:23:11.930</time>
      </trkpt>
      <trkpt lat="42.51856" lon="2.07189">
        <ele>1837.0509446412</ele>
        <time>2000-05-11T14:23:12.930</time>
      </trkpt>
      <trkpt lat="42.51857" lon="2.0719">
        <ele>1837.9897258444</ele>
        <time>2000-05-11T14:23:13.930</time>
      </trkpt>
      <trkpt lat="42.51857" lon="2.07192">
        <ele>1838.9821336364</ele>
        <time>2000-05-11T14:23:14.930</time>
      </trkpt>
      <trkpt lat="42.51857" lon="2.07195">
        <ele>1839.8006511852</ele>
        <time>2000-05-11T14:23:15.930</time>
      </trkpt>
      <trkpt lat="42.51857" lon="2.07197">
        <ele>1840.4347586716</ele>
        <time>2000-05-11T14:23:16.930</time>
      </trkpt>
      <trkpt lat="42.51858" lon="2.07199">
        <ele>1841.5515231237</ele>
        <time>2000-05-11T14:23:17.930</time>
      </trkpt>
      <trkpt lat="42.51857" lon="2.07201">
        <ele>1841.6653402546</ele>
        <time>2000-05-11T14:23:18.930</time>
      </trkpt>
      <trkpt lat="42.51857" lon="2.07202">
        <ele>1841.6582448766</ele>
        <time>2000-05-11T14:23:19.930</time>
      </trkpt>
      <trkpt lat="42.51856" lon="2.07203">
        <ele>1841.4180446496</ele>
        <time>2000-05-11T14:23:20.930</time>
      </trkpt>
      <trkpt lat="42.51854" lon="2.07204">
        <ele>1840.6794192933</ele>
        <time>2000-05-11T14:23:21.930</time>
      </trkpt>
      <trkpt lat="42.51854" lon="2.07204">
        <ele>1839.514585044</ele>
        <time>2000-05-11T14:23:22.930</time>
      </trkpt>
      <trkpt lat="42.51854" lon="2.07204">
        <ele>1838.8788098985</ele>
        <time>2000-05-11T14:23:23.930</time>
      </trkpt>
      <trkpt lat="42.51854" lon="2.07206">
        <ele>1839.6607852552</ele>
        <time>2000-05-11T14:23:24.932</time>
      </trkpt>
      <trkpt lat="42.51853" lon="2.07207">
        <ele>1841.0668604892</ele>
        <time>2000-05-11T14:23:25.932</time>
      </trkpt>
      <trkpt lat="42.51852" lon="2.07208">
        <ele>1843.101366269</ele>
        <time>2000-05-11T14:23:26.930</time>
      </trkpt>
      <trkpt lat="42.51852" lon="2.07208">
        <ele>1845.1358720489</ele>
        <time>2000-05-11T14:23:27.930</time>
      </trkpt>
      <trkpt lat="42.51851" lon="2.0721">
        <ele>1846.7632677807</ele>
        <time>2000-05-11T14:23:28.930</time>
      </trkpt>
      <trkpt lat="42.5185" lon="2.0721">
        <ele>1846.1554987727</ele>
        <time>2000-05-11T14:23:29.932</time>
      </trkpt>
      <trkpt lat="42.51849" lon="2.07211">
        <ele>1844.9677497596</ele>
        <time>2000-05-11T14:23:30.932</time>
      </trkpt>
      <trkpt lat="42.51848" lon="2.07211">
        <ele>1843.6558129679</ele>
        <time>2000-05-11T14:23:31.932</time>
      </trkpt>
      <trkpt lat="42.51847" lon="2.07212">
        <ele>1843.0791276822</ele>
        <time>2000-05-11T14:23:32.933</time>
      </trkpt>
      <trkpt lat="42.51847" lon="2.07212">
        <ele>1842.9095524445</ele>
        <time>2000-05-11T14:23:33.933</time>
      </trkpt>
      <trkpt lat="42.51847" lon="2.07213">
        <ele>1844.0042882986</ele>
        <time>2000-05-11T14:23:34.932</time>
      </trkpt>
      <trkpt lat="42.51847" lon="2.07213">
        <ele>1845.2440261921</ele>
        <time>2000-05-11T14:23:35.932</time>
      </trkpt>
      <trkpt lat="42.51846" lon="2.07214">
        <ele>1846.4689818418</ele>
        <time>2000-05-11T14:23:36.931</time>
      </trkpt>
      <trkpt lat="42.51845" lon="2.07216">
        <ele>1847.0247884464</ele>
        <time>2000-05-11T14:23:37.931</time>
      </trkpt>
      <trkpt lat="42.51844" lon="2.07215">
        <ele>1847.7191251332</ele>
        <time>2000-05-11T14:23:38.931</time>
      </trkpt>
      <trkpt lat="42.51842" lon="2.07215">
        <ele>1848.2399630997</ele>
        <time>2000-05-11T14:23:39.931</time>
      </trkpt>
      <trkpt lat="42.51842" lon="2.07215">
        <ele>1848.7608010663</ele>
        <time>2000-05-11T14:23:40.931</time>
      </trkpt>
      <trkpt lat="42.51842" lon="2.07215">
        <ele>1849.1715458231</ele>
        <time>2000-05-11T14:23:41.931</time>
      </trkpt>
      <trkpt lat="42.51843" lon="2.07214">
        <ele>1849.1056405017</ele>
        <time>2000-05-11T14:23:42.929</time>
      </trkpt>
      <trkpt lat="42.51843" lon="2.07214">
        <ele>1848.9012050981</ele>
        <time>2000-05-11T14:23:43.929</time>
      </trkpt>
      <trkpt lat="42.51843" lon="2.0721">
        <ele>1847.7422121068</ele>
        <time>2000-05-11T14:23:44.930</time>
      </trkpt>
      <trkpt lat="42.51844" lon="2.07209">
        <ele>1846.256922657</ele>
        <time>2000-05-11T14:23:45.930</time>
      </trkpt>
      <trkpt lat="42.51845" lon="2.07207">
        <ele>1844.0285469672</ele>
        <time>2000-05-11T14:23:46.930</time>
      </trkpt>
      <trkpt lat="42.51844" lon="2.07206">
        <ele>1841.9884905512</ele>
        <time>2000-05-11T14:23:47.930</time>
      </trkpt>
      <trkpt lat="42.51844" lon="2.07206">
        <ele>1839.9484341351</ele>
        <time>2000-05-11T14:23:48.930</time>
      </trkpt>
      <trkpt lat="42.51844" lon="2.07206">
        <ele>1838.6568230929</ele>
        <time>2000-05-11T14:23:49.930</time>
      </trkpt>
      <trkpt lat="42.51844" lon="2.07207">
        <ele>1837.6510988737</ele>
        <time>2000-05-11T14:23:50.930</time>
      </trkpt>
      <trkpt lat="42.51844" lon="2.07207">
        <ele>1837.3884608945</ele>
        <time>2000-05-11T14:23:51.930</time>
      </trkpt>
      <trkpt lat="42.51843" lon="2.07209">
        <ele>1837.5883945659</ele>
        <time>2000-05-11T14:23:52.927</time>
      </trkpt>
      <trkpt lat="42.51842" lon="2.0721">
        <ele>1837.6406694505</ele>
        <time>2000-05-11T14:23:53.927</time>
      </trkpt>
      <trkpt lat="42.51842" lon="2.07212">
        <ele>1837.8493193796</ele>
        <time>2000-05-11T14:23:54.927</time>
      </trkpt>
      <trkpt lat="42.51842" lon="2.07213">
        <ele>1837.9451821266</ele>
        <time>2000-05-11T14:23:55.927</time>
      </trkpt>
      <trkpt lat="42.51842" lon="2.07213">
        <ele>1838.0410448736</ele>
        <time>2000-05-11T14:23:56.927</time>
      </trkpt>
      <trkpt lat="42.51843" lon="2.07214">
        <ele>1838.1727704452</ele>
        <time>2000-05-11T14:23:57.928</time>
      </trkpt>
      <trkpt lat="42.51843" lon="2.07214">
        <ele>1838.4521548036</ele>
        <time>2000-05-11T14:23:58.928</time>
      </trkpt>
      <trkpt lat="42.51843" lon="2.07215">
        <ele>1838.4847382268</ele>
        <time>2000-05-11T14:23:59.924</time>
      </trkpt>
      <trkpt lat="42.51843" lon="2.07216">
        <ele>1838.5260364888</ele>
        <time>2000-05-11T14:24:00.924</time>
      </trkpt>
      <trkpt lat="42.51843" lon="2.07217">
        <ele>1838.826766105</ele>
        <time>2000-05-11T14:24:01.924</time>
      </trkpt>
      <trkpt lat="42.51844" lon="2.0722">
        <ele>1839.3449631376</ele>
        <time>2000-05-11T14:24:02.924</time>
      </trkpt>
      <trkpt lat="42.51844" lon="2.07221">
        <ele>1839.6360913934</ele>
        <time>2000-05-11T14:24:03.924</time>
      </trkpt>
      <trkpt lat="42.51843" lon="2.07222">
        <ele>1839.9832381826</ele>
        <time>2000-05-11T14:24:04.924</time>
      </trkpt>
      <trkpt lat="42.51843" lon="2.07224">
        <ele>1840.6559356159</ele>
        <time>2000-05-11T14:24:05.924</time>
      </trkpt>
      <trkpt lat="42.51842" lon="2.07226">
        <ele>1841.4218114588</ele>
        <time>2000-05-11T14:24:06.924</time>
      </trkpt>
      <trkpt lat="42.51841" lon="2.07226">
        <ele>1841.947826359</ele>
        <time>2000-05-11T14:24:07.924</time>
      </trkpt>
      <trkpt lat="42.5184" lon="2.07227">
        <ele>1842.8549392957</ele>
        <time>2000-05-11T14:24:08.924</time>
      </trkpt>
      <trkpt lat="42.5184" lon="2.07228">
        <ele>1843.4984222414</ele>
        <time>2000-05-11T14:24:09.924</time>
      </trkpt>
      <trkpt lat="42.51839" lon="2.07229">
        <ele>1844.2604792304</ele>
        <time>2000-05-11T14:24:10.924</time>
      </trkpt>
      <trkpt lat="42.51838" lon="2.0723">
        <ele>1845.0174974632</ele>
        <time>2000-05-11T14:24:11.924</time>
      </trkpt>
      <trkpt lat="42.51837" lon="2.07231">
        <ele>1845.607291254</ele>
        <time>2000-05-11T14:24:12.924</time>
      </trkpt>
      <trkpt lat="42.51836" lon="2.07232">
        <ele>1845.9155067692</ele>
        <time>2000-05-11T14:24:13.924</time>
      </trkpt>
      <trkpt lat="42.51836" lon="2.07233">
        <ele>1846.6366149513</ele>
        <time>2000-05-11T14:24:14.924</time>
      </trkpt>
      <trkpt lat="42.51836" lon="2.07233">
        <ele>1847.0580804247</ele>
        <time>2000-05-11T14:24:15.924</time>
      </trkpt>
      <trkpt lat="42.51835" lon="2.07234">
        <ele>1846.851539669</ele>
        <time>2000-05-11T14:24:16.924</time>
      </trkpt>
      <trkpt lat="42.51834" lon="2.07235">
        <ele>1846.0163871469</ele>
        <time>2000-05-11T14:24:17.924</time>
      </trkpt>
      <trkpt lat="42.51833" lon="2.07235">
        <ele>1844.9020890703</ele>
        <time>2000-05-11T14:24:18.924</time>
      </trkpt>
      <trkpt lat="42.51832" lon="2.07236">
        <ele>1843.1718151884</ele>
        <time>2000-05-11T14:24:19.924</time>
      </trkpt>
      <trkpt lat="42.51831" lon="2.07237">
        <ele>1840.5226913176</ele>
        <time>2000-05-11T14:24:20.924</time>
      </trkpt>
      <trkpt lat="42.5183" lon="2.07238">
        <ele>1838.5462133117</ele>
        <time>2000-05-11T14:24:21.924</time>
      </trkpt>
      <trkpt lat="42.51829" lon="2.07238">
        <ele>1837.1798440035</ele>
        <time>2000-05-11T14:24:22.924</time>
      </trkpt>
      <trkpt lat="42.51829" lon="2.07238">
        <ele>1836.2201692659</ele>
        <time>2000-05-11T14:24:23.924</time>
      </trkpt>
      <trkpt lat="42.51829" lon="2.07238">
        <ele>1835.7616150152</ele>
        <time>2000-05-11T14:24:24.924</time>
      </trkpt>
      <trkpt lat="42.51826" lon="2.07238">
        <ele>1835.9090849023</ele>
        <time>2000-05-11T14:24:25.924</time>
      </trkpt>
      <trkpt lat="42.51824" lon="2.07238">
        <ele>1835.8727767218</ele>
        <time>2000-05-11T14:24:26.924</time>
      </trkpt>
      <trkpt lat="42.51823" lon="2.07239">
        <ele>1835.6921783477</ele>
        <time>2000-05-11T14:24:27.924</time>
      </trkpt>
      <trkpt lat="42.5182" lon="2.07239">
        <ele>1835.0612320708</ele>
        <time>2000-05-11T14:24:28.924</time>
      </trkpt>
      <trkpt lat="42.51818" lon="2.0724">
        <ele>1834.2258780653</ele>
        <time>2000-05-11T14:24:29.924</time>
      </trkpt>
      <trkpt lat="42.51818" lon="2.07241">
        <ele>1833.5912255252</ele>
        <time>2000-05-11T14:24:30.924</time>
      </trkpt>
      <trkpt lat="42.51817" lon="2.07241">
        <ele>1832.2718251467</ele>
        <time>2000-05-11T14:24:31.924</time>
      </trkpt>
      <trkpt lat="42.51816" lon="2.07242">
        <ele>1831.1082735436</ele>
        <time>2000-05-11T14:24:32.924</time>
      </trkpt>
      <trkpt lat="42.51815" lon="2.07242">
        <ele>1830.969444266</ele>
        <time>2000-05-11T14:24:33.924</time>
      </trkpt>
      <trkpt lat="42.51815" lon="2.07243">
        <ele>1831.1514479706</ele>
        <time>2000-05-11T14:24:34.924</time>
      </trkpt>
      <trkpt lat="42.51815" lon="2.07243">
        <ele>1831.4455760607</ele>
        <time>2000-05-11T14:24:35.924</time>
      </trkpt>
      <trkpt lat="42.51814" lon="2.07244">
        <ele>1832.043440968</ele>
        <time>2000-05-11T14:24:36.924</time>
      </trkpt>
      <trkpt lat="42.51814" lon="2.07245">
        <ele>1832.3815267704</ele>
        <time>2000-05-11T14:24:37.924</time>
      </trkpt>
      <trkpt lat="42.51813" lon="2.07245">
        <ele>1831.7513275437</ele>
        <time>2000-05-11T14:24:38.923</time>
      </trkpt>
      <trkpt lat="42.51811" lon="2.07246">
        <ele>1830.9979768716</ele>
        <time>2000-05-11T14:24:39.923</time>
      </trkpt>
      <trkpt lat="42.5181" lon="2.07247">
        <ele>1830.261489304</ele>
        <time>2000-05-11T14:24:40.923</time>
      </trkpt>
      <trkpt lat="42.5181" lon="2.07248">
        <ele>1829.5346266611</ele>
        <time>2000-05-11T14:24:41.923</time>
      </trkpt>
      <trkpt lat="42.5181" lon="2.07247">
        <ele>1828.2978385653</ele>
        <time>2000-05-11T14:24:42.923</time>
      </trkpt>
      <trkpt lat="42.51809" lon="2.07248">
        <ele>1827.2621135082</ele>
        <time>2000-05-11T14:24:43.923</time>
      </trkpt>
      <trkpt lat="42.51808" lon="2.07249">
        <ele>1825.9923864711</ele>
        <time>2000-05-11T14:24:44.923</time>
      </trkpt>
      <trkpt lat="42.51808" lon="2.0725">
        <ele>1824.6504631711</ele>
        <time>2000-05-11T14:24:45.923</time>
      </trkpt>
      <trkpt lat="42.51808" lon="2.07251">
        <ele>1823.604002602</ele>
        <time>2000-05-11T14:24:46.923</time>
      </trkpt>
      <trkpt lat="42.51807" lon="2.07251">
        <ele>1822.9188609172</ele>
        <time>2000-05-11T14:24:47.923</time>
      </trkpt>
      <trkpt lat="42.51806" lon="2.07252">
        <ele>1822.2523393089</ele>
        <time>2000-05-11T14:24:48.923</time>
      </trkpt>
      <trkpt lat="42.51805" lon="2.07253">
        <ele>1821.972715497</ele>
        <time>2000-05-11T14:24:49.924</time>
      </trkpt>
      <trkpt lat="42.51804" lon="2.07255">
        <ele>1821.8506930649</ele>
        <time>2000-05-11T14:24:50.924</time>
      </trkpt>
      <trkpt lat="42.51804" lon="2.07256">
        <ele>1821.5188379014</ele>
        <time>2000-05-11T14:24:51.924</time>
      </trkpt>
      <trkpt lat="42.51804" lon="2.07258">
        <ele>1821.490269631</ele>
        <time>2000-05-11T14:24:52.924</time>
      </trkpt>
      <trkpt lat="42.51804" lon="2.07259">
        <ele>1821.5088510282</ele>
        <time>2000-05-11T14:24:53.924</time>
      </trkpt>
      <trkpt lat="42.51804" lon="2.07258">
        <ele>1821.1334171854</ele>
        <time>2000-05-11T14:24:54.924</time>
      </trkpt>
      <trkpt lat="42.51803" lon="2.07259">
        <ele>1821.0180780992</ele>
        <time>2000-05-11T14:24:55.924</time>
      </trkpt>
      <trkpt lat="42.51802" lon="2.0726">
        <ele>1821.2309438745</ele>
        <time>2000-05-11T14:24:56.924</time>
      </trkpt>
      <trkpt lat="42.51801" lon="2.07261">
        <ele>1821.667586185</ele>
        <time>2000-05-11T14:24:57.924</time>
      </trkpt>
      <trkpt lat="42.51801" lon="2.07265">
        <ele>1822.0985261815</ele>
        <time>2000-05-11T14:24:58.924</time>
      </trkpt>
      <trkpt lat="42.518" lon="2.07267">
        <ele>1822.1023083134</ele>
        <time>2000-05-11T14:24:59.924</time>
      </trkpt>
      <trkpt lat="42.518" lon="2.0727">
        <ele>1821.2257987199</ele>
        <time>2000-05-11T14:25:00.924</time>
      </trkpt>
      <trkpt lat="42.518" lon="2.07271">
        <ele>1819.7013193594</ele>
        <time>2000-05-11T14:25:01.924</time>
      </trkpt>
      <trkpt lat="42.51801" lon="2.07272">
        <ele>1818.2459240384</ele>
        <time>2000-05-11T14:25:02.924</time>
      </trkpt>
      <trkpt lat="42.51801" lon="2.07274">
        <ele>1817.1666266281</ele>
        <time>2000-05-11T14:25:03.924</time>
      </trkpt>
      <trkpt lat="42.51801" lon="2.07275">
        <ele>1816.7633181538</ele>
        <time>2000-05-11T14:25:04.924</time>
      </trkpt>
      <trkpt lat="42.518" lon="2.07276">
        <ele>1817.0234573388</ele>
        <time>2000-05-11T14:25:05.924</time>
      </trkpt>
      <trkpt lat="42.518" lon="2.07278">
        <ele>1817.9497635579</ele>
        <time>2000-05-11T14:25:06.924</time>
      </trkpt>
      <trkpt lat="42.518" lon="2.07278">
        <ele>1818.6086643055</ele>
        <time>2000-05-11T14:25:07.924</time>
      </trkpt>
      <trkpt lat="42.518" lon="2.07278">
        <ele>1819.0242472803</ele>
        <time>2000-05-11T14:25:08.924</time>
      </trkpt>
      <trkpt lat="42.51799" lon="2.07279">
        <ele>1819.3525526589</ele>
        <time>2000-05-11T14:25:09.924</time>
      </trkpt>
      <trkpt lat="42.51798" lon="2.07279">
        <ele>1819.455018024</ele>
        <time>2000-05-11T14:25:10.923</time>
      </trkpt>
      <trkpt lat="42.51798" lon="2.07279">
        <ele>1819.2884047823</ele>
        <time>2000-05-11T14:25:11.923</time>
      </trkpt>
      <trkpt lat="42.51796" lon="2.07281">
        <ele>1819.2289977934</ele>
        <time>2000-05-11T14:25:12.923</time>
      </trkpt>
      <trkpt lat="42.51794" lon="2.07283">
        <ele>1819.4573332062</ele>
        <time>2000-05-11T14:25:13.923</time>
      </trkpt>
      <trkpt lat="42.51793" lon="2.07285">
        <ele>1819.9468967933</ele>
        <time>2000-05-11T14:25:14.923</time>
      </trkpt>
      <trkpt lat="42.51792" lon="2.07286">
        <ele>1820.2912172791</ele>
        <time>2000-05-11T14:25:15.923</time>
      </trkpt>
      <trkpt lat="42.51791" lon="2.07286">
        <ele>1820.4879570466</ele>
        <time>2000-05-11T14:25:16.923</time>
      </trkpt>
      <trkpt lat="42.51791" lon="2.07286">
        <ele>1820.7035695156</ele>
        <time>2000-05-11T14:25:17.923</time>
      </trkpt>
      <trkpt lat="42.5179" lon="2.07286">
        <ele>1820.324326141</ele>
        <time>2000-05-11T14:25:18.923</time>
      </trkpt>
      <trkpt lat="42.51788" lon="2.07287">
        <ele>1819.4802797543</ele>
        <time>2000-05-11T14:25:19.923</time>
      </trkpt>
      <trkpt lat="42.51787" lon="2.07287">
        <ele>1818.1933420973</ele>
        <time>2000-05-11T14:25:20.923</time>
      </trkpt>
      <trkpt lat="42.51786" lon="2.07286">
        <ele>1816.2957288615</ele>
        <time>2000-05-11T14:25:21.923</time>
      </trkpt>
      <trkpt lat="42.51784" lon="2.07286">
        <ele>1814.2768603496</ele>
        <time>2000-05-11T14:25:22.923</time>
      </trkpt>
      <trkpt lat="42.51783" lon="2.07285">
        <ele>1812.4421673864</ele>
        <time>2000-05-11T14:25:23.923</time>
      </trkpt>
      <trkpt lat="42.51782" lon="2.07285">
        <ele>1811.0711666392</ele>
        <time>2000-05-11T14:25:24.923</time>
      </trkpt>
      <trkpt lat="42.51783" lon="2.07286">
        <ele>1811.1099337881</ele>
        <time>2000-05-11T14:25:25.923</time>
      </trkpt>
      <trkpt lat="42.51783" lon="2.07286">
        <ele>1811.9069572341</ele>
        <time>2000-05-11T14:25:26.923</time>
      </trkpt>
      <trkpt lat="42.51781" lon="2.07287">
        <ele>1812.6414139897</ele>
        <time>2000-05-11T14:25:27.926</time>
      </trkpt>
      <trkpt lat="42.51778" lon="2.07287">
        <ele>1813.478960377</ele>
        <time>2000-05-11T14:25:28.926</time>
      </trkpt>
      <trkpt lat="42.51777" lon="2.07288">
        <ele>1814.0502069509</ele>
        <time>2000-05-11T14:25:29.926</time>
      </trkpt>
      <trkpt lat="42.51775" lon="2.07289">
        <ele>1813.3742700618</ele>
        <time>2000-05-11T14:25:30.926</time>
      </trkpt>
      <trkpt lat="42.51773" lon="2.07289">
        <ele>1812.4213513087</ele>
        <time>2000-05-11T14:25:31.926</time>
      </trkpt>
      <trkpt lat="42.51772" lon="2.07289">
        <ele>1811.5714380585</ele>
        <time>2000-05-11T14:25:32.926</time>
      </trkpt>
      <trkpt lat="42.5177" lon="2.07288">
        <ele>1810.7129852984</ele>
        <time>2000-05-11T14:25:33.926</time>
      </trkpt>
      <trkpt lat="42.5177" lon="2.07288">
        <ele>1810.0950855048</ele>
        <time>2000-05-11T14:25:34.926</time>
      </trkpt>
      <trkpt lat="42.51769" lon="2.07289">
        <ele>1810.0982530456</ele>
        <time>2000-05-11T14:25:35.926</time>
      </trkpt>
      <trkpt lat="42.51768" lon="2.0729">
        <ele>1810.554981995</ele>
        <time>2000-05-11T14:25:36.926</time>
      </trkpt>
      <trkpt lat="42.51767" lon="2.07291">
        <ele>1810.8919348389</ele>
        <time>2000-05-11T14:25:37.926</time>
      </trkpt>
      <trkpt lat="42.51767" lon="2.07291">
        <ele>1811.2572754541</ele>
        <time>2000-05-11T14:25:38.926</time>
      </trkpt>
      <trkpt lat="42.51767" lon="2.0729">
        <ele>1811.2369915219</ele>
        <time>2000-05-11T14:25:39.926</time>
      </trkpt>
      <trkpt lat="42.51766" lon="2.07292">
        <ele>1810.7655281365</ele>
        <time>2000-05-11T14:25:40.926</time>
      </trkpt>
      <trkpt lat="42.51765" lon="2.07293">
        <ele>1810.379368072</ele>
        <time>2000-05-11T14:25:41.926</time>
      </trkpt>
      <trkpt lat="42.51764" lon="2.07294">
        <ele>1810.2131178113</ele>
        <time>2000-05-11T14:25:42.926</time>
      </trkpt>
      <trkpt lat="42.51762" lon="2.07297">
        <ele>1809.8860795433</ele>
        <time>2000-05-11T14:25:43.926</time>
      </trkpt>
      <trkpt lat="42.51762" lon="2.07297">
        <ele>1809.645062034</ele>
        <time>2000-05-11T14:25:44.926</time>
      </trkpt>
      <trkpt lat="42.51761" lon="2.07299">
        <ele>1809.6659951013</ele>
        <time>2000-05-11T14:25:45.926</time>
      </trkpt>
      <trkpt lat="42.5176" lon="2.07299">
        <ele>1809.7232305806</ele>
        <time>2000-05-11T14:25:46.926</time>
      </trkpt>
      <trkpt lat="42.5176" lon="2.07299">
        <ele>1809.6350698711</ele>
        <time>2000-05-11T14:25:47.926</time>
      </trkpt>
      <trkpt lat="42.5176" lon="2.07301">
        <ele>1809.6406203171</ele>
        <time>2000-05-11T14:25:48.925</time>
      </trkpt>
      <trkpt lat="42.51759" lon="2.07302">
        <ele>1809.2582868857</ele>
        <time>2000-05-11T14:25:49.925</time>
      </trkpt>
      <trkpt lat="42.51758" lon="2.07304">
        <ele>1808.7481476255</ele>
        <time>2000-05-11T14:25:50.925</time>
      </trkpt>
      <trkpt lat="42.51758" lon="2.07305">
        <ele>1807.9691407442</ele>
        <time>2000-05-11T14:25:51.925</time>
      </trkpt>
      <trkpt lat="42.51759" lon="2.07307">
        <ele>1807.9161863843</ele>
        <time>2000-05-11T14:25:52.925</time>
      </trkpt>
      <trkpt lat="42.5176" lon="2.07308">
        <ele>1808.0178678146</ele>
        <time>2000-05-11T14:25:53.925</time>
      </trkpt>
      <trkpt lat="42.51759" lon="2.07309">
        <ele>1808.6201547107</ele>
        <time>2000-05-11T14:25:54.925</time>
      </trkpt>
      <trkpt lat="42.51759" lon="2.0731">
        <ele>1809.4248574818</ele>
        <time>2000-05-11T14:25:55.925</time>
      </trkpt>
      <trkpt lat="42.51758" lon="2.07311">
        <ele>1810.1137521958</ele>
        <time>2000-05-11T14:25:56.925</time>
      </trkpt>
      <trkpt lat="42.51757" lon="2.07312">
        <ele>1810.1758852655</ele>
        <time>2000-05-11T14:25:57.925</time>
      </trkpt>
      <trkpt lat="42.51757" lon="2.07313">
        <ele>1810.41543248</ele>
        <time>2000-05-11T14:25:58.925</time>
      </trkpt>
      <trkpt lat="42.51758" lon="2.07314">
        <ele>1810.442556205</ele>
        <time>2000-05-11T14:25:59.925</time>
      </trkpt>
      <trkpt lat="42.51758" lon="2.07315">
        <ele>1810.1459206928</ele>
        <time>2000-05-11T14:26:00.925</time>
      </trkpt>
      <trkpt lat="42.51758" lon="2.07317">
        <ele>1809.8051209878</ele>
        <time>2000-05-11T14:26:01.925</time>
      </trkpt>
      <trkpt lat="42.51758" lon="2.07317">
        <ele>1809.3650304059</ele>
        <time>2000-05-11T14:26:02.925</time>
      </trkpt>
      <trkpt lat="42.51757" lon="2.07317">
        <ele>1808.719081584</ele>
        <time>2000-05-11T14:26:03.925</time>
      </trkpt>
      <trkpt lat="42.51756" lon="2.07318">
        <ele>1808.3252810141</ele>
        <time>2000-05-11T14:26:04.925</time>
      </trkpt>
      <trkpt lat="42.51755" lon="2.07319">
        <ele>1808.3155287836</ele>
        <time>2000-05-11T14:26:05.925</time>
      </trkpt>
      <trkpt lat="42.51755" lon="2.0732">
        <ele>1807.9577309953</ele>
        <time>2000-05-11T14:26:06.925</time>
      </trkpt>
      <trkpt lat="42.51754" lon="2.07322">
        <ele>1807.3893148622</ele>
        <time>2000-05-11T14:26:07.925</time>
      </trkpt>
      <trkpt lat="42.51753" lon="2.07324">
        <ele>1806.6126435682</ele>
        <time>2000-05-11T14:26:08.925</time>
      </trkpt>
      <trkpt lat="42.51752" lon="2.07325">
        <ele>1805.679381809</ele>
        <time>2000-05-11T14:26:09.925</time>
      </trkpt>
      <trkpt lat="42.51752" lon="2.07326">
        <ele>1804.7639836857</ele>
        <time>2000-05-11T14:26:10.925</time>
      </trkpt>
      <trkpt lat="42.51752" lon="2.07327">
        <ele>1804.3102626532</ele>
        <time>2000-05-11T14:26:11.925</time>
      </trkpt>
      <trkpt lat="42.51751" lon="2.07328">
        <ele>1804.0902681813</ele>
        <time>2000-05-11T14:26:12.925</time>
      </trkpt>
      <trkpt lat="42.51751" lon="2.07329">
        <ele>1803.9726805048</ele>
        <time>2000-05-11T14:26:13.925</time>
      </trkpt>
      <trkpt lat="42.51753" lon="2.07331">
        <ele>1804.0072274506</ele>
        <time>2000-05-11T14:26:14.925</time>
      </trkpt>
      <trkpt lat="42.51753" lon="2.07332">
        <ele>1804.2378427429</ele>
        <time>2000-05-11T14:26:15.925</time>
      </trkpt>
      <trkpt lat="42.51753" lon="2.07333">
        <ele>1804.6551477414</ele>
        <time>2000-05-11T14:26:16.925</time>
      </trkpt>
      <trkpt lat="42.51753" lon="2.07333">
        <ele>1805.0493445242</ele>
        <time>2000-05-11T14:26:17.925</time>
      </trkpt>
      <trkpt lat="42.51752" lon="2.07335">
        <ele>1805.802508699</ele>
        <time>2000-05-11T14:26:18.925</time>
      </trkpt>
      <trkpt lat="42.51752" lon="2.07336">
        <ele>1806.9125826184</ele>
        <time>2000-05-11T14:26:19.925</time>
      </trkpt>
      <trkpt lat="42.51752" lon="2.07338">
        <ele>1807.9887769517</ele>
        <time>2000-05-11T14:26:20.925</time>
      </trkpt>
      <trkpt lat="42.51751" lon="2.07339">
        <ele>1808.6234552141</ele>
        <time>2000-05-11T14:26:21.925</time>
      </trkpt>
      <trkpt lat="42.51751" lon="2.07339">
        <ele>1809.2581334766</ele>
        <time>2000-05-11T14:26:22.925</time>
      </trkpt>
      <trkpt lat="42.51751" lon="2.0734">
        <ele>1810.1403904261</ele>
        <time>2000-05-11T14:26:23.925</time>
      </trkpt>
      <trkpt lat="42.5175" lon="2.07341">
        <ele>1810.9177650655</ele>
        <time>2000-05-11T14:26:24.925</time>
      </trkpt>
      <trkpt lat="42.51749" lon="2.07343">
        <ele>1811.0280045141</ele>
        <time>2000-05-11T14:26:25.925</time>
      </trkpt>
      <trkpt lat="42.51748" lon="2.07344">
        <ele>1811.4425667156</ele>
        <time>2000-05-11T14:26:26.925</time>
      </trkpt>
      <trkpt lat="42.51747" lon="2.07345">
        <ele>1811.8706572836</ele>
        <time>2000-05-11T14:26:27.925</time>
      </trkpt>
      <trkpt lat="42.51746" lon="2.07346">
        <ele>1811.775843253</ele>
        <time>2000-05-11T14:26:28.925</time>
      </trkpt>
      <trkpt lat="42.51746" lon="2.07346">
        <ele>1811.4325366775</ele>
        <time>2000-05-11T14:26:29.925</time>
      </trkpt>
      <trkpt lat="42.51746" lon="2.07348">
        <ele>1811.5757181516</ele>
        <time>2000-05-11T14:26:30.925</time>
      </trkpt>
      <trkpt lat="42.51746" lon="2.07349">
        <ele>1811.6476182709</ele>
        <time>2000-05-11T14:26:31.925</time>
      </trkpt>
      <trkpt lat="42.51745" lon="2.07351">
        <ele>1811.3181710692</ele>
        <time>2000-05-11T14:26:32.926</time>
      </trkpt>
      <trkpt lat="42.51744" lon="2.07353">
        <ele>1810.9245684059</ele>
        <time>2000-05-11T14:26:33.926</time>
      </trkpt>
      <trkpt lat="42.51743" lon="2.07356">
        <ele>1809.9947619207</ele>
        <time>2000-05-11T14:26:34.926</time>
      </trkpt>
      <trkpt lat="42.51742" lon="2.07359">
        <ele>1808.5729948131</ele>
        <time>2000-05-11T14:26:35.926</time>
      </trkpt>
      <trkpt lat="42.51742" lon="2.07362">
        <ele>1807.078157006</ele>
        <time>2000-05-11T14:26:36.926</time>
      </trkpt>
      <trkpt lat="42.51742" lon="2.07365">
        <ele>1806.2452046381</ele>
        <time>2000-05-11T14:26:37.926</time>
      </trkpt>
      <trkpt lat="42.51743" lon="2.07365">
        <ele>1805.4062564442</ele>
        <time>2000-05-11T14:26:38.926</time>
      </trkpt>
      <trkpt lat="42.51742" lon="2.07366">
        <ele>1805.0324727485</ele>
        <time>2000-05-11T14:26:39.926</time>
      </trkpt>
      <trkpt lat="42.51742" lon="2.07367">
        <ele>1804.8702449486</ele>
        <time>2000-05-11T14:26:40.926</time>
      </trkpt>
      <trkpt lat="42.51741" lon="2.07367">
        <ele>1804.4481385449</ele>
        <time>2000-05-11T14:26:41.926</time>
      </trkpt>
      <trkpt lat="42.51739" lon="2.07369">
        <ele>1803.3830149515</ele>
        <time>2000-05-11T14:26:42.926</time>
      </trkpt>
      <trkpt lat="42.51738" lon="2.07371">
        <ele>1802.6122216986</ele>
        <time>2000-05-11T14:26:43.926</time>
      </trkpt>
      <trkpt lat="42.51738" lon="2.07371">
        <ele>1801.9124677695</ele>
        <time>2000-05-11T14:26:44.926</time>
      </trkpt>
      <trkpt lat="42.51738" lon="2.07372">
        <ele>1801.4314587455</ele>
        <time>2000-05-11T14:26:45.925</time>
      </trkpt>
      <trkpt lat="42.51738" lon="2.07372">
        <ele>1801.3222070513</ele>
        <time>2000-05-11T14:26:46.925</time>
      </trkpt>
      <trkpt lat="42.51736" lon="2.07375">
        <ele>1801.9565712845</ele>
        <time>2000-05-11T14:26:47.924</time>
      </trkpt>
      <trkpt lat="42.51735" lon="2.07376">
        <ele>1802.4917802872</ele>
        <time>2000-05-11T14:26:48.924</time>
      </trkpt>
      <trkpt lat="42.51733" lon="2.07379">
        <ele>1803.1300613668</ele>
        <time>2000-05-11T14:26:49.924</time>
      </trkpt>
      <trkpt lat="42.51732" lon="2.07382">
        <ele>1804.5649067655</ele>
        <time>2000-05-11T14:26:50.924</time>
      </trkpt>
      <trkpt lat="42.51731" lon="2.07383">
        <ele>1806.0574587863</ele>
        <time>2000-05-11T14:26:51.924</time>
      </trkpt>
      <trkpt lat="42.51731" lon="2.07385">
        <ele>1807.1138982899</ele>
        <time>2000-05-11T14:26:52.924</time>
      </trkpt>
      <trkpt lat="42.51731" lon="2.07386">
        <ele>1807.0434725627</ele>
        <time>2000-05-11T14:26:53.924</time>
      </trkpt>
      <trkpt lat="42.51731" lon="2.07388">
        <ele>1806.1264709564</ele>
        <time>2000-05-11T14:26:54.924</time>
      </trkpt>
      <trkpt lat="42.51731" lon="2.07389">
        <ele>1803.4004244415</ele>
        <time>2000-05-11T14:26:55.924</time>
      </trkpt>
      <trkpt lat="42.51731" lon="2.07391">
        <ele>1800.8283870663</ele>
        <time>2000-05-11T14:26:56.924</time>
      </trkpt>
      <trkpt lat="42.5173" lon="2.07392">
        <ele>1798.1431645753</ele>
        <time>2000-05-11T14:26:57.924</time>
      </trkpt>
      <trkpt lat="42.51729" lon="2.07393">
        <ele>1796.2296882637</ele>
        <time>2000-05-11T14:26:58.924</time>
      </trkpt>
      <trkpt lat="42.51729" lon="2.07394">
        <ele>1795.2388320643</ele>
        <time>2000-05-11T14:26:59.924</time>
      </trkpt>
      <trkpt lat="42.51728" lon="2.07395">
        <ele>1795.1215660026</ele>
        <time>2000-05-11T14:27:00.924</time>
      </trkpt>
      <trkpt lat="42.51728" lon="2.07395">
        <ele>1794.7925841792</ele>
        <time>2000-05-11T14:27:01.924</time>
      </trkpt>
      <trkpt lat="42.51728" lon="2.07396">
        <ele>1794.5777720947</ele>
        <time>2000-05-11T14:27:02.924</time>
      </trkpt>
      <trkpt lat="42.51727" lon="2.07398">
        <ele>1794.7625132143</ele>
        <time>2000-05-11T14:27:03.924</time>
      </trkpt>
      <trkpt lat="42.51725" lon="2.07399">
        <ele>1794.8903256631</ele>
        <time>2000-05-11T14:27:04.924</time>
      </trkpt>
      <trkpt lat="42.51724" lon="2.074">
        <ele>1795.1945262155</ele>
        <time>2000-05-11T14:27:05.924</time>
      </trkpt>
      <trkpt lat="42.51724" lon="2.07399">
        <ele>1795.299301184</ele>
        <time>2000-05-11T14:27:06.924</time>
      </trkpt>
      <trkpt lat="42.51723" lon="2.07399">
        <ele>1795.6553129736</ele>
        <time>2000-05-11T14:27:07.924</time>
      </trkpt>
      <trkpt lat="42.51722" lon="2.07401">
        <ele>1795.9062056769</ele>
        <time>2000-05-11T14:27:08.924</time>
      </trkpt>
      <trkpt lat="42.51721" lon="2.07402">
        <ele>1796.2209103622</ele>
        <time>2000-05-11T14:27:09.924</time>
      </trkpt>
      <trkpt lat="42.51721" lon="2.07403">
        <ele>1796.8186197428</ele>
        <time>2000-05-11T14:27:10.924</time>
      </trkpt>
      <trkpt lat="42.5172" lon="2.07404">
        <ele>1797.7136067502</ele>
        <time>2000-05-11T14:27:11.924</time>
      </trkpt>
      <trkpt lat="42.51719" lon="2.07405">
        <ele>1798.3415062316</ele>
        <time>2000-05-11T14:27:12.924</time>
      </trkpt>
      <trkpt lat="42.51718" lon="2.07406">
        <ele>1798.032093522</ele>
        <time>2000-05-11T14:27:13.924</time>
      </trkpt>
      <trkpt lat="42.51718" lon="2.07406">
        <ele>1797.5366811913</ele>
        <time>2000-05-11T14:27:14.924</time>
      </trkpt>
      <trkpt lat="42.51717" lon="2.07407">
        <ele>1796.8059118425</ele>
        <time>2000-05-11T14:27:15.924</time>
      </trkpt>
      <trkpt lat="42.51715" lon="2.07408">
        <ele>1796.0099595243</ele>
        <time>2000-05-11T14:27:16.924</time>
      </trkpt>
      <trkpt lat="42.51714" lon="2.0741">
        <ele>1795.1354572361</ele>
        <time>2000-05-11T14:27:17.924</time>
      </trkpt>
      <trkpt lat="42.51713" lon="2.0741">
        <ele>1795.0022178903</ele>
        <time>2000-05-11T14:27:18.924</time>
      </trkpt>
      <trkpt lat="42.51712" lon="2.07411">
        <ele>1794.8760746993</ele>
        <time>2000-05-11T14:27:19.924</time>
      </trkpt>
      <trkpt lat="42.51712" lon="2.07411">
        <ele>1794.7168986</ele>
        <time>2000-05-11T14:27:20.924</time>
      </trkpt>
      <trkpt lat="42.51711" lon="2.07412">
        <ele>1794.8209730586</ele>
        <time>2000-05-11T14:27:21.924</time>
      </trkpt>
      <trkpt lat="42.5171" lon="2.07413">
        <ele>1795.2296401655</ele>
        <time>2000-05-11T14:27:22.924</time>
      </trkpt>
      <trkpt lat="42.51709" lon="2.07414">
        <ele>1795.8265111085</ele>
        <time>2000-05-11T14:27:23.924</time>
      </trkpt>
      <trkpt lat="42.51708" lon="2.07415">
        <ele>1796.5306955425</ele>
        <time>2000-05-11T14:27:24.924</time>
      </trkpt>
      <trkpt lat="42.51708" lon="2.07416">
        <ele>1797.0876480976</ele>
        <time>2000-05-11T14:27:25.924</time>
      </trkpt>
      <trkpt lat="42.51708" lon="2.07417">
        <ele>1797.1223984296</ele>
        <time>2000-05-11T14:27:26.924</time>
      </trkpt>
      <trkpt lat="42.51707" lon="2.07418">
        <ele>1796.5799369283</ele>
        <time>2000-05-11T14:27:27.924</time>
      </trkpt>
      <trkpt lat="42.51706" lon="2.07419">
        <ele>1795.5858065598</ele>
        <time>2000-05-11T14:27:28.924</time>
      </trkpt>
      <trkpt lat="42.51705" lon="2.07419">
        <ele>1794.6650277529</ele>
        <time>2000-05-11T14:27:29.924</time>
      </trkpt>
      <trkpt lat="42.51703" lon="2.0742">
        <ele>1793.4326276755</ele>
        <time>2000-05-11T14:27:30.924</time>
      </trkpt>
      <trkpt lat="42.51702" lon="2.0742">
        <ele>1792.345013329</ele>
        <time>2000-05-11T14:27:31.924</time>
      </trkpt>
      <trkpt lat="42.517" lon="2.07422">
        <ele>1791.7044953719</ele>
        <time>2000-05-11T14:27:32.924</time>
      </trkpt>
      <trkpt lat="42.517" lon="2.07421">
        <ele>1791.3020930856</ele>
        <time>2000-05-11T14:27:33.924</time>
      </trkpt>
      <trkpt lat="42.51699" lon="2.07422">
        <ele>1790.8343527131</ele>
        <time>2000-05-11T14:27:34.924</time>
      </trkpt>
      <trkpt lat="42.51698" lon="2.07422">
        <ele>1790.9690662006</ele>
        <time>2000-05-11T14:27:35.924</time>
      </trkpt>
      <trkpt lat="42.51697" lon="2.07423">
        <ele>1791.3321437648</ele>
        <time>2000-05-11T14:27:36.924</time>
      </trkpt>
      <trkpt lat="42.51696" lon="2.07423">
        <ele>1792.1460731164</ele>
        <time>2000-05-11T14:27:37.924</time>
      </trkpt>
      <trkpt lat="42.51695" lon="2.07423">
        <ele>1793.7963482533</ele>
        <time>2000-05-11T14:27:38.924</time>
      </trkpt>
      <trkpt lat="42.51695" lon="2.07424">
        <ele>1794.6480471905</ele>
        <time>2000-05-11T14:27:39.924</time>
      </trkpt>
      <trkpt lat="42.51695" lon="2.07424">
        <ele>1795.6203995664</ele>
        <time>2000-05-11T14:27:40.924</time>
      </trkpt>
      <trkpt lat="42.51694" lon="2.07426">
        <ele>1796.2782457653</ele>
        <time>2000-05-11T14:27:41.924</time>
      </trkpt>
      <trkpt lat="42.51693" lon="2.07428">
        <ele>1796.7206372047</ele>
        <time>2000-05-11T14:27:42.924</time>
      </trkpt>
      <trkpt lat="42.51692" lon="2.0743">
        <ele>1796.412372403</ele>
        <time>2000-05-11T14:27:43.924</time>
      </trkpt>
      <trkpt lat="42.51691" lon="2.07431">
        <ele>1796.761681973</ele>
        <time>2000-05-11T14:27:44.924</time>
      </trkpt>
      <trkpt lat="42.51689" lon="2.07432">
        <ele>1796.9758447008</ele>
        <time>2000-05-11T14:27:45.924</time>
      </trkpt>
      <trkpt lat="42.51688" lon="2.07433">
        <ele>1796.9963106221</ele>
        <time>2000-05-11T14:27:46.924</time>
      </trkpt>
      <trkpt lat="42.51687" lon="2.07434">
        <ele>1796.6675548077</ele>
        <time>2000-05-11T14:27:47.924</time>
      </trkpt>
      <trkpt lat="42.51686" lon="2.07435">
        <ele>1796.487303083</ele>
        <time>2000-05-11T14:27:48.924</time>
      </trkpt>
      <trkpt lat="42.51686" lon="2.07435">
        <ele>1796.3256300652</ele>
        <time>2000-05-11T14:27:49.924</time>
      </trkpt>
      <trkpt lat="42.51686" lon="2.07436">
        <ele>1796.3389223445</ele>
        <time>2000-05-11T14:27:50.924</time>
      </trkpt>
      <trkpt lat="42.51683" lon="2.07436">
        <ele>1796.5837692</ele>
        <time>2000-05-11T14:27:51.924</time>
      </trkpt>
      <trkpt lat="42.51683" lon="2.07436">
        <ele>1796.7964964442</ele>
        <time>2000-05-11T14:27:52.924</time>
      </trkpt>
      <trkpt lat="42.51682" lon="2.07437">
        <ele>1796.736905141</ele>
        <time>2000-05-11T14:27:53.924</time>
      </trkpt>
      <trkpt lat="42.51682" lon="2.07438">
        <ele>1796.431581573</ele>
        <time>2000-05-11T14:27:54.924</time>
      </trkpt>
      <trkpt lat="42.5168" lon="2.07439">
        <ele>1795.7393954242</ele>
        <time>2000-05-11T14:27:55.924</time>
      </trkpt>
      <trkpt lat="42.51678" lon="2.07439">
        <ele>1795.4491856908</ele>
        <time>2000-05-11T14:27:56.924</time>
      </trkpt>
      <trkpt lat="42.51676" lon="2.07441">
        <ele>1794.9516812187</ele>
        <time>2000-05-11T14:27:57.924</time>
      </trkpt>
      <trkpt lat="42.51676" lon="2.07441">
        <ele>1794.3957503065</ele>
        <time>2000-05-11T14:27:58.924</time>
      </trkpt>
      <trkpt lat="42.51674" lon="2.07442">
        <ele>1794.0842337584</ele>
        <time>2000-05-11T14:27:59.924</time>
      </trkpt>
      <trkpt lat="42.51674" lon="2.07443">
        <ele>1793.9362469602</ele>
        <time>2000-05-11T14:28:00.924</time>
      </trkpt>
      <trkpt lat="42.51674" lon="2.07444">
        <ele>1793.9597089658</ele>
        <time>2000-05-11T14:28:01.924</time>
      </trkpt>
      <trkpt lat="42.51674" lon="2.07445">
        <ele>1794.086819456</ele>
        <time>2000-05-11T14:28:02.924</time>
      </trkpt>
      <trkpt lat="42.51674" lon="2.07443">
        <ele>1793.9509553622</ele>
        <time>2000-05-11T14:28:03.924</time>
      </trkpt>
      <trkpt lat="42.51672" lon="2.07445">
        <ele>1793.3939269498</ele>
        <time>2000-05-11T14:28:04.927</time>
      </trkpt>
      <trkpt lat="42.51672" lon="2.07445">
        <ele>1792.7054343436</ele>
        <time>2000-05-11T14:28:05.927</time>
      </trkpt>
      <trkpt lat="42.5167" lon="2.07447">
        <ele>1792.1588231239</ele>
        <time>2000-05-11T14:28:06.926</time>
      </trkpt>
      <trkpt lat="42.51669" lon="2.07448">
        <ele>1791.6414796371</ele>
        <time>2000-05-11T14:28:07.926</time>
      </trkpt>
      <trkpt lat="42.51668" lon="2.07448">
        <ele>1791.2130450372</ele>
        <time>2000-05-11T14:28:08.926</time>
      </trkpt>
      <trkpt lat="42.51668" lon="2.07448">
        <ele>1791.0537085067</ele>
        <time>2000-05-11T14:28:09.926</time>
      </trkpt>
      <trkpt lat="42.51668" lon="2.07449">
        <ele>1791.0223913416</ele>
        <time>2000-05-11T14:28:10.926</time>
      </trkpt>
      <trkpt lat="42.51667" lon="2.07451">
        <ele>1790.5439752916</ele>
        <time>2000-05-11T14:28:11.926</time>
      </trkpt>
      <trkpt lat="42.51666" lon="2.07452">
        <ele>1790.0968737623</ele>
        <time>2000-05-11T14:28:12.926</time>
      </trkpt>
      <trkpt lat="42.51666" lon="2.07453">
        <ele>1789.6891145965</ele>
        <time>2000-05-11T14:28:13.926</time>
      </trkpt>
      <trkpt lat="42.51665" lon="2.07455">
        <ele>1789.5756533993</ele>
        <time>2000-05-11T14:28:14.926</time>
      </trkpt>
      <trkpt lat="42.51664" lon="2.07456">
        <ele>1789.5153991513</ele>
        <time>2000-05-11T14:28:15.926</time>
      </trkpt>
      <trkpt lat="42.51663" lon="2.07456">
        <ele>1790.1392843196</ele>
        <time>2000-05-11T14:28:16.926</time>
      </trkpt>
      <trkpt lat="42.51663" lon="2.07456">
        <ele>1790.9325639496</ele>
        <time>2000-05-11T14:28:17.926</time>
      </trkpt>
      <trkpt lat="42.51662" lon="2.07457">
        <ele>1792.4577443965</ele>
        <time>2000-05-11T14:28:18.926</time>
      </trkpt>
      <trkpt lat="42.51662" lon="2.07457">
        <ele>1793.8420110248</ele>
        <time>2000-05-11T14:28:19.926</time>
      </trkpt>
      <trkpt lat="42.51659" lon="2.07459">
        <ele>1794.2071464622</ele>
        <time>2000-05-11T14:28:20.925</time>
      </trkpt>
      <trkpt lat="42.51658" lon="2.07461">
        <ele>1793.8721471617</ele>
        <time>2000-05-11T14:28:21.925</time>
      </trkpt>
      <trkpt lat="42.51656" lon="2.07462">
        <ele>1793.9707967388</ele>
        <time>2000-05-11T14:28:22.925</time>
      </trkpt>
      <trkpt lat="42.51655" lon="2.07464">
        <ele>1793.7254910173</ele>
        <time>2000-05-11T14:28:23.925</time>
      </trkpt>
      <trkpt lat="42.51654" lon="2.07465">
        <ele>1793.3812862992</ele>
        <time>2000-05-11T14:28:24.925</time>
      </trkpt>
      <trkpt lat="42.51651" lon="2.07466">
        <ele>1793.7984200224</ele>
        <time>2000-05-11T14:28:25.925</time>
      </trkpt>
      <trkpt lat="42.5165" lon="2.07467">
        <ele>1793.5754687317</ele>
        <time>2000-05-11T14:28:26.925</time>
      </trkpt>
      <trkpt lat="42.51649" lon="2.07468">
        <ele>1792.7503442146</ele>
        <time>2000-05-11T14:28:27.925</time>
      </trkpt>
      <trkpt lat="42.51647" lon="2.07469">
        <ele>1792.1992974119</ele>
        <time>2000-05-11T14:28:28.925</time>
      </trkpt>
      <trkpt lat="42.51647" lon="2.0747">
        <ele>1791.5866264768</ele>
        <time>2000-05-11T14:28:29.925</time>
      </trkpt>
      <trkpt lat="42.51646" lon="2.07471">
        <ele>1790.9318755986</ele>
        <time>2000-05-11T14:28:30.925</time>
      </trkpt>
      <trkpt lat="42.51646" lon="2.07472">
        <ele>1790.5995225349</ele>
        <time>2000-05-11T14:28:31.925</time>
      </trkpt>
      <trkpt lat="42.51645" lon="2.07473">
        <ele>1790.0078123866</ele>
        <time>2000-05-11T14:28:32.925</time>
      </trkpt>
      <trkpt lat="42.51645" lon="2.07474">
        <ele>1788.5352891846</ele>
        <time>2000-05-11T14:28:33.925</time>
      </trkpt>
      <trkpt lat="42.51643" lon="2.07474">
        <ele>1786.9923578104</ele>
        <time>2000-05-11T14:28:34.925</time>
      </trkpt>
      <trkpt lat="42.51643" lon="2.07474">
        <ele>1785.5680728145</ele>
        <time>2000-05-11T14:28:35.925</time>
      </trkpt>
      <trkpt lat="42.51642" lon="2.07477">
        <ele>1784.7787161101</ele>
        <time>2000-05-11T14:28:36.924</time>
      </trkpt>
      <trkpt lat="42.51641" lon="2.07477">
        <ele>1785.5985619366</ele>
        <time>2000-05-11T14:28:37.924</time>
      </trkpt>
      <trkpt lat="42.51639" lon="2.07479">
        <ele>1787.4833760032</ele>
        <time>2000-05-11T14:28:38.924</time>
      </trkpt>
      <trkpt lat="42.51639" lon="2.0748">
        <ele>1789.5147207154</ele>
        <time>2000-05-11T14:28:39.924</time>
      </trkpt>
      <trkpt lat="42.51638" lon="2.07481">
        <ele>1791.4052291187</ele>
        <time>2000-05-11T14:28:40.924</time>
      </trkpt>
      <trkpt lat="42.51636" lon="2.07482">
        <ele>1793.4762819977</ele>
        <time>2000-05-11T14:28:41.924</time>
      </trkpt>
      <trkpt lat="42.51635" lon="2.07482">
        <ele>1793.8455101794</ele>
        <time>2000-05-11T14:28:42.924</time>
      </trkpt>
      <trkpt lat="42.51635" lon="2.07483">
        <ele>1793.2594676953</ele>
        <time>2000-05-11T14:28:43.924</time>
      </trkpt>
      <trkpt lat="42.51633" lon="2.07484">
        <ele>1792.4130473111</ele>
        <time>2000-05-11T14:28:44.924</time>
      </trkpt>
      <trkpt lat="42.51632" lon="2.07484">
        <ele>1791.5382323856</ele>
        <time>2000-05-11T14:28:45.924</time>
      </trkpt>
      <trkpt lat="42.51631" lon="2.07485">
        <ele>1789.8975128241</ele>
        <time>2000-05-11T14:28:46.924</time>
      </trkpt>
      <trkpt lat="42.51631" lon="2.07485">
        <ele>1788.7522810156</ele>
        <time>2000-05-11T14:28:47.924</time>
      </trkpt>
      <trkpt lat="42.5163" lon="2.07485">
        <ele>1787.9401375504</ele>
        <time>2000-05-11T14:28:48.924</time>
      </trkpt>
      <trkpt lat="42.51628" lon="2.07486">
        <ele>1787.5112953104</ele>
        <time>2000-05-11T14:28:49.924</time>
      </trkpt>
      <trkpt lat="42.51628" lon="2.07488">
        <ele>1787.1524409341</ele>
        <time>2000-05-11T14:28:50.924</time>
      </trkpt>
      <trkpt lat="42.51626" lon="2.0749">
        <ele>1787.2235617368</ele>
        <time>2000-05-11T14:28:51.924</time>
      </trkpt>
      <trkpt lat="42.51625" lon="2.07492">
        <ele>1787.7459571891</ele>
        <time>2000-05-11T14:28:52.924</time>
      </trkpt>
      <trkpt lat="42.51624" lon="2.07494">
        <ele>1788.3742893297</ele>
        <time>2000-05-11T14:28:53.924</time>
      </trkpt>
      <trkpt lat="42.51624" lon="2.07494">
        <ele>1789.0658267839</ele>
        <time>2000-05-11T14:28:54.924</time>
      </trkpt>
      <trkpt lat="42.51623" lon="2.07495">
        <ele>1790.0408047089</ele>
        <time>2000-05-11T14:28:55.924</time>
      </trkpt>
      <trkpt lat="42.51622" lon="2.07495">
        <ele>1790.8058102442</ele>
        <time>2000-05-11T14:28:56.924</time>
      </trkpt>
      <trkpt lat="42.5162" lon="2.07496">
        <ele>1790.8616144786</ele>
        <time>2000-05-11T14:28:57.924</time>
      </trkpt>
      <trkpt lat="42.51619" lon="2.07496">
        <ele>1790.5324598482</ele>
        <time>2000-05-11T14:28:58.924</time>
      </trkpt>
      <trkpt lat="42.51618" lon="2.07497">
        <ele>1790.1489416363</ele>
        <time>2000-05-11T14:28:59.924</time>
      </trkpt>
      <trkpt lat="42.51618" lon="2.07497">
        <ele>1789.3745794058</ele>
        <time>2000-05-11T14:29:00.924</time>
      </trkpt>
      <trkpt lat="42.51618" lon="2.07498">
        <ele>1788.672378804</ele>
        <time>2000-05-11T14:29:01.924</time>
      </trkpt>
      <trkpt lat="42.51617" lon="2.07498">
        <ele>1788.2104787724</ele>
        <time>2000-05-11T14:29:02.924</time>
      </trkpt>
      <trkpt lat="42.51616" lon="2.07498">
        <ele>1788.1439764859</ele>
        <time>2000-05-11T14:29:03.922</time>
      </trkpt>
      <trkpt lat="42.51616" lon="2.07498">
        <ele>1788.0301097982</ele>
        <time>2000-05-11T14:29:04.922</time>
      </trkpt>
      <trkpt lat="42.51615" lon="2.075">
        <ele>1788.4654490683</ele>
        <time>2000-05-11T14:29:05.922</time>
      </trkpt>
      <trkpt lat="42.51615" lon="2.075">
        <ele>1788.754311781</ele>
        <time>2000-05-11T14:29:06.922</time>
      </trkpt>
      <trkpt lat="42.51614" lon="2.07502">
        <ele>1788.9467227342</ele>
        <time>2000-05-11T14:29:07.924</time>
      </trkpt>
      <trkpt lat="42.51613" lon="2.07504">
        <ele>1789.2725568386</ele>
        <time>2000-05-11T14:29:08.924</time>
      </trkpt>
      <trkpt lat="42.51612" lon="2.07505">
        <ele>1790.0114520777</ele>
        <time>2000-05-11T14:29:09.924</time>
      </trkpt>
      <trkpt lat="42.51611" lon="2.07505">
        <ele>1790.4778642589</ele>
        <time>2000-05-11T14:29:10.924</time>
      </trkpt>
      <trkpt lat="42.51609" lon="2.07506">
        <ele>1790.8108524662</ele>
        <time>2000-05-11T14:29:11.924</time>
      </trkpt>
      <trkpt lat="42.51608" lon="2.07506">
        <ele>1791.3215536231</ele>
        <time>2000-05-11T14:29:12.924</time>
      </trkpt>
      <trkpt lat="42.51607" lon="2.07507">
        <ele>1791.7570906878</ele>
        <time>2000-05-11T14:29:13.924</time>
      </trkpt>
      <trkpt lat="42.51606" lon="2.07508">
        <ele>1791.5498466775</ele>
        <time>2000-05-11T14:29:14.924</time>
      </trkpt>
      <trkpt lat="42.51604" lon="2.07507">
        <ele>1791.3100699037</ele>
        <time>2000-05-11T14:29:15.924</time>
      </trkpt>
      <trkpt lat="42.51604" lon="2.07507">
        <ele>1791.203717104</ele>
        <time>2000-05-11T14:29:16.924</time>
      </trkpt>
      <trkpt lat="42.51603" lon="2.07508">
        <ele>1790.8960268879</ele>
        <time>2000-05-11T14:29:17.925</time>
      </trkpt>
      <trkpt lat="42.51602" lon="2.07508">
        <ele>1791.1057433387</ele>
        <time>2000-05-11T14:29:18.925</time>
      </trkpt>
      <trkpt lat="42.51601" lon="2.07509">
        <ele>1791.9519833768</ele>
        <time>2000-05-11T14:29:19.925</time>
      </trkpt>
      <trkpt lat="42.51601" lon="2.07509">
        <ele>1792.7606798125</ele>
        <time>2000-05-11T14:29:20.925</time>
      </trkpt>
      <trkpt lat="42.516" lon="2.0751">
        <ele>1792.948040913</ele>
        <time>2000-05-11T14:29:21.925</time>
      </trkpt>
      <trkpt lat="42.51599" lon="2.07509">
        <ele>1793.3046372674</ele>
        <time>2000-05-11T14:29:22.925</time>
      </trkpt>
      <trkpt lat="42.51598" lon="2.07509">
        <ele>1793.0160778558</ele>
        <time>2000-05-11T14:29:23.925</time>
      </trkpt>
      <trkpt lat="42.51596" lon="2.0751">
        <ele>1791.8221783891</ele>
        <time>2000-05-11T14:29:24.925</time>
      </trkpt>
      <trkpt lat="42.51594" lon="2.07514">
        <ele>1789.934676926</ele>
        <time>2000-05-11T14:29:25.925</time>
      </trkpt>
      <trkpt lat="42.51593" lon="2.07515">
        <ele>1788.4543936437</ele>
        <time>2000-05-11T14:29:26.925</time>
      </trkpt>
      <trkpt lat="42.51592" lon="2.07514">
        <ele>1786.623947631</ele>
        <time>2000-05-11T14:29:27.925</time>
      </trkpt>
      <trkpt lat="42.51591" lon="2.07514">
        <ele>1784.3737586703</ele>
        <time>2000-05-11T14:29:28.925</time>
      </trkpt>
      <trkpt lat="42.51591" lon="2.07514">
        <ele>1782.6221061176</ele>
        <time>2000-05-11T14:29:29.925</time>
      </trkpt>
      <trkpt lat="42.51592" lon="2.07512">
        <ele>1781.3206556443</ele>
        <time>2000-05-11T14:29:30.925</time>
      </trkpt>
      <trkpt lat="42.51593" lon="2.0751">
        <ele>1779.9350065462</ele>
        <time>2000-05-11T14:29:31.925</time>
      </trkpt>
      <trkpt lat="42.51594" lon="2.07507">
        <ele>1778.3666048797</ele>
        <time>2000-05-11T14:29:32.925</time>
      </trkpt>
      <trkpt lat="42.51594" lon="2.07506">
        <ele>1777.3802851953</ele>
        <time>2000-05-11T14:29:33.925</time>
      </trkpt>
      <trkpt lat="42.51595" lon="2.07504">
        <ele>1776.0412588865</ele>
        <time>2000-05-11T14:29:34.925</time>
      </trkpt>
      <trkpt lat="42.51595" lon="2.07503">
        <ele>1775.3274936991</ele>
        <time>2000-05-11T14:29:35.925</time>
      </trkpt>
      <trkpt lat="42.51595" lon="2.07503">
        <ele>1774.912044291</ele>
        <time>2000-05-11T14:29:36.925</time>
      </trkpt>
      <trkpt lat="42.51595" lon="2.07504">
        <ele>1775.0058472009</ele>
        <time>2000-05-11T14:29:37.925</time>
      </trkpt>
      <trkpt lat="42.51595" lon="2.07504">
        <ele>1775.0178559</ele>
        <time>2000-05-11T14:29:38.925</time>
      </trkpt>
      <trkpt lat="42.51596" lon="2.07503">
        <ele>1775.58534189</ele>
        <time>2000-05-11T14:29:39.924</time>
      </trkpt>
      <trkpt lat="42.51596" lon="2.07503">
        <ele>1775.7709666755</ele>
        <time>2000-05-11T14:29:40.924</time>
      </trkpt>
      <trkpt lat="42.51598" lon="2.07502">
        <ele>1775.8954639291</ele>
        <time>2000-05-11T14:29:41.923</time>
      </trkpt>
      <trkpt lat="42.516" lon="2.075">
        <ele>1776.0978472117</ele>
        <time>2000-05-11T14:29:42.923</time>
      </trkpt>
      <trkpt lat="42.51601" lon="2.07498">
        <ele>1776.3171104625</ele>
        <time>2000-05-11T14:29:43.923</time>
      </trkpt>
      <trkpt lat="42.51602" lon="2.07496">
        <ele>1776.6746484326</ele>
        <time>2000-05-11T14:29:44.923</time>
      </trkpt>
      <trkpt lat="42.51602" lon="2.07496">
        <ele>1777.0321864028</ele>
        <time>2000-05-11T14:29:45.923</time>
      </trkpt>
      <trkpt lat="42.51602" lon="2.07496">
        <ele>1777.4508519048</ele>
        <time>2000-05-11T14:29:46.923</time>
      </trkpt>
      <trkpt lat="42.51602" lon="2.07495">
        <ele>1777.6317059292</ele>
        <time>2000-05-11T14:29:47.923</time>
      </trkpt>
      <trkpt lat="42.51603" lon="2.07494">
        <ele>1777.8804477148</ele>
        <time>2000-05-11T14:29:48.923</time>
      </trkpt>
      <trkpt lat="42.51604" lon="2.07494">
        <ele>1777.7811630739</ele>
        <time>2000-05-11T14:29:49.923</time>
      </trkpt>
      <trkpt lat="42.51604" lon="2.07493">
        <ele>1777.8145658609</ele>
        <time>2000-05-11T14:29:50.921</time>
      </trkpt>
      <trkpt lat="42.51604" lon="2.07492">
        <ele>1777.8912297592</ele>
        <time>2000-05-11T14:29:51.921</time>
      </trkpt>
      <trkpt lat="42.51605" lon="2.07494">
        <ele>1777.3280772272</ele>
        <time>2000-05-11T14:29:52.921</time>
      </trkpt>
      <trkpt lat="42.51607" lon="2.07495">
        <ele>1776.0091638755</ele>
        <time>2000-05-11T14:29:53.921</time>
      </trkpt>
      <trkpt lat="42.51609" lon="2.07496">
        <ele>1774.5160591895</ele>
        <time>2000-05-11T14:29:54.921</time>
      </trkpt>
      <trkpt lat="42.51609" lon="2.07496">
        <ele>1772.8902670756</ele>
        <time>2000-05-11T14:29:55.921</time>
      </trkpt>
      <trkpt lat="42.51609" lon="2.07496">
        <ele>1771.2212138504</ele>
        <time>2000-05-11T14:29:56.921</time>
      </trkpt>
      <trkpt lat="42.51612" lon="2.07495">
        <ele>1771.4233823922</ele>
        <time>2000-05-11T14:29:57.921</time>
      </trkpt>
      <trkpt lat="42.51612" lon="2.07495">
        <ele>1772.2965440243</ele>
        <time>2000-05-11T14:29:58.921</time>
      </trkpt>
      <trkpt lat="42.51611" lon="2.07497">
        <ele>1773.5313863162</ele>
        <time>2000-05-11T14:29:59.921</time>
      </trkpt>
      <trkpt lat="42.51611" lon="2.07497">
        <ele>1774.766228608</ele>
        <time>2000-05-11T14:30:00.921</time>
      </trkpt>
      <trkpt lat="42.51609" lon="2.07498">
        <ele>1775.8351584164</ele>
        <time>2000-05-11T14:30:01.919</time>
      </trkpt>
      <trkpt lat="42.51606" lon="2.07502">
        <ele>1776.1489440409</ele>
        <time>2000-05-11T14:30:02.919</time>
      </trkpt>
      <trkpt lat="42.51606" lon="2.07502">
        <ele>1776.4627296655</ele>
        <time>2000-05-11T14:30:03.919</time>
      </trkpt>
      <trkpt lat="42.51606" lon="2.07502">
        <ele>1776.9515740935</ele>
        <time>2000-05-11T14:30:04.919</time>
      </trkpt>
      <trkpt lat="42.51605" lon="2.07503">
        <ele>1777.7224906724</ele>
        <time>2000-05-11T14:30:05.919</time>
      </trkpt>
      <trkpt lat="42.51605" lon="2.07503">
        <ele>1778.6593197348</ele>
        <time>2000-05-11T14:30:06.919</time>
      </trkpt>
      <trkpt lat="42.51604" lon="2.07504">
        <ele>1779.6649843037</ele>
        <time>2000-05-11T14:30:07.919</time>
      </trkpt>
      <trkpt lat="42.51604" lon="2.07504">
        <ele>1780.6706488727</ele>
        <time>2000-05-11T14:30:08.919</time>
      </trkpt>
      <trkpt lat="42.51603" lon="2.07507">
        <ele>1780.8197966415</ele>
        <time>2000-05-11T14:30:09.919</time>
      </trkpt>
      <trkpt lat="42.51599" lon="2.07509">
        <ele>1780.9032334322</ele>
        <time>2000-05-11T14:30:10.919</time>
      </trkpt>
      <trkpt lat="42.51595" lon="2.0751">
        <ele>1781.093389581</ele>
        <time>2000-05-11T14:30:11.919</time>
      </trkpt>
      <trkpt lat="42.51594" lon="2.0751">
        <ele>1780.8789630335</ele>
        <time>2000-05-11T14:30:12.919</time>
      </trkpt>
      <trkpt lat="42.51592" lon="2.0751">
        <ele>1780.750183944</ele>
        <time>2000-05-11T14:30:13.919</time>
      </trkpt>
      <trkpt lat="42.5159" lon="2.0751">
        <ele>1781.1454619922</ele>
        <time>2000-05-11T14:30:14.919</time>
      </trkpt>
      <trkpt lat="42.51589" lon="2.0751">
        <ele>1781.7267000869</ele>
        <time>2000-05-11T14:30:15.919</time>
      </trkpt>
      <trkpt lat="42.51589" lon="2.0751">
        <ele>1782.2012188235</ele>
        <time>2000-05-11T14:30:16.919</time>
      </trkpt>
      <trkpt lat="42.51589" lon="2.0751">
        <ele>1782.7122949267</ele>
        <time>2000-05-11T14:30:17.919</time>
      </trkpt>
      <trkpt lat="42.51589" lon="2.07511">
        <ele>1783.3110495953</ele>
        <time>2000-05-11T14:30:18.919</time>
      </trkpt>
      <trkpt lat="42.51588" lon="2.07513">
        <ele>1784.0062243378</ele>
        <time>2000-05-11T14:30:19.920</time>
      </trkpt>
      <trkpt lat="42.51588" lon="2.07514">
        <ele>1784.0600888206</ele>
        <time>2000-05-11T14:30:20.920</time>
      </trkpt>
      <trkpt lat="42.51587" lon="2.07515">
        <ele>1784.0791986575</ele>
        <time>2000-05-11T14:30:21.920</time>
      </trkpt>
      <trkpt lat="42.51587" lon="2.07516">
        <ele>1784.0375133386</ele>
        <time>2000-05-11T14:30:22.920</time>
      </trkpt>
      <trkpt lat="42.51586" lon="2.07517">
        <ele>1783.7519091206</ele>
        <time>2000-05-11T14:30:23.920</time>
      </trkpt>
      <trkpt lat="42.51586" lon="2.07519">
        <ele>1782.9672429698</ele>
        <time>2000-05-11T14:30:24.920</time>
      </trkpt>
      <trkpt lat="42.51586" lon="2.0752">
        <ele>1782.1456133056</ele>
        <time>2000-05-11T14:30:25.920</time>
      </trkpt>
      <trkpt lat="42.51585" lon="2.07521">
        <ele>1781.5478583943</ele>
        <time>2000-05-11T14:30:26.920</time>
      </trkpt>
      <trkpt lat="42.51584" lon="2.07522">
        <ele>1780.7941686666</ele>
        <time>2000-05-11T14:30:27.920</time>
      </trkpt>
      <trkpt lat="42.51584" lon="2.07523">
        <ele>1780.2522093236</ele>
        <time>2000-05-11T14:30:28.920</time>
      </trkpt>
      <trkpt lat="42.51583" lon="2.07524">
        <ele>1780.0097404514</ele>
        <time>2000-05-11T14:30:29.920</time>
      </trkpt>
      <trkpt lat="42.51584" lon="2.07525">
        <ele>1779.9747486282</ele>
        <time>2000-05-11T14:30:30.920</time>
      </trkpt>
      <trkpt lat="42.51584" lon="2.07527">
        <ele>1779.599999088</ele>
        <time>2000-05-11T14:30:31.920</time>
      </trkpt>
      <trkpt lat="42.51584" lon="2.07527">
        <ele>1779.4419795202</ele>
        <time>2000-05-11T14:30:32.920</time>
      </trkpt>
      <trkpt lat="42.51583" lon="2.07529">
        <ele>1779.161386985</ele>
        <time>2000-05-11T14:30:33.920</time>
      </trkpt>
      <trkpt lat="42.51583" lon="2.0753">
        <ele>1778.8931784848</ele>
        <time>2000-05-11T14:30:34.920</time>
      </trkpt>
      <trkpt lat="42.51583" lon="2.0753">
        <ele>1778.6934454892</ele>
        <time>2000-05-11T14:30:35.920</time>
      </trkpt>
      <trkpt lat="42.51582" lon="2.07531">
        <ele>1778.1510044791</ele>
        <time>2000-05-11T14:30:36.920</time>
      </trkpt>
      <trkpt lat="42.51582" lon="2.07532">
        <ele>1777.6018260678</ele>
        <time>2000-05-11T14:30:37.920</time>
      </trkpt>
      <trkpt lat="42.51582" lon="2.07533">
        <ele>1777.0579579618</ele>
        <time>2000-05-11T14:30:38.920</time>
      </trkpt>
      <trkpt lat="42.51582" lon="2.07534">
        <ele>1776.5570438439</ele>
        <time>2000-05-11T14:30:39.920</time>
      </trkpt>
      <trkpt lat="42.51581" lon="2.07536">
        <ele>1776.0744437421</ele>
        <time>2000-05-11T14:30:40.920</time>
      </trkpt>
      <trkpt lat="42.5158" lon="2.07537">
        <ele>1776.077835655</ele>
        <time>2000-05-11T14:30:41.920</time>
      </trkpt>
      <trkpt lat="42.5158" lon="2.07538">
        <ele>1776.0012895949</ele>
        <time>2000-05-11T14:30:42.920</time>
      </trkpt>
      <trkpt lat="42.5158" lon="2.0754">
        <ele>1775.9083321761</ele>
        <time>2000-05-11T14:30:43.920</time>
      </trkpt>
      <trkpt lat="42.5158" lon="2.07541">
        <ele>1775.8581732186</ele>
        <time>2000-05-11T14:30:44.920</time>
      </trkpt>
      <trkpt lat="42.5158" lon="2.07543">
        <ele>1776.0468911581</ele>
        <time>2000-05-11T14:30:45.920</time>
      </trkpt>
      <trkpt lat="42.51579" lon="2.07544">
        <ele>1776.1246967182</ele>
        <time>2000-05-11T14:30:46.920</time>
      </trkpt>
      <trkpt lat="42.5158" lon="2.07546">
        <ele>1776.1310879573</ele>
        <time>2000-05-11T14:30:47.920</time>
      </trkpt>
      <trkpt lat="42.51579" lon="2.07548">
        <ele>1776.2749249937</ele>
        <time>2000-05-11T14:30:48.920</time>
      </trkpt>
      <trkpt lat="42.51578" lon="2.07549">
        <ele>1776.484118179</ele>
        <time>2000-05-11T14:30:49.920</time>
      </trkpt>
      <trkpt lat="42.51578" lon="2.07551">
        <ele>1776.3902389484</ele>
        <time>2000-05-11T14:30:50.920</time>
      </trkpt>
      <trkpt lat="42.51577" lon="2.07554">
        <ele>1776.738519335</ele>
        <time>2000-05-11T14:30:51.920</time>
      </trkpt>
      <trkpt lat="42.51577" lon="2.07556">
        <ele>1777.9679704376</ele>
        <time>2000-05-11T14:30:52.920</time>
      </trkpt>
      <trkpt lat="42.51576" lon="2.07558">
        <ele>1779.5476217711</ele>
        <time>2000-05-11T14:30:53.920</time>
      </trkpt>
      <trkpt lat="42.51574" lon="2.07559">
        <ele>1780.9251259649</ele>
        <time>2000-05-11T14:30:54.920</time>
      </trkpt>
      <trkpt lat="42.51573" lon="2.0756">
        <ele>1782.2640822772</ele>
        <time>2000-05-11T14:30:55.920</time>
      </trkpt>
      <trkpt lat="42.51572" lon="2.07561">
        <ele>1783.116954257</ele>
        <time>2000-05-11T14:30:56.920</time>
      </trkpt>
      <trkpt lat="42.51572" lon="2.07562">
        <ele>1782.9236760594</ele>
        <time>2000-05-11T14:30:57.920</time>
      </trkpt>
      <trkpt lat="42.51572" lon="2.07562">
        <ele>1782.2352883453</ele>
        <time>2000-05-11T14:30:58.920</time>
      </trkpt>
      <trkpt lat="42.51572" lon="2.07562">
        <ele>1781.6655990999</ele>
        <time>2000-05-11T14:30:59.920</time>
      </trkpt>
      <trkpt lat="42.51573" lon="2.07564">
        <ele>1780.3224370264</ele>
        <time>2000-05-11T14:31:00.918</time>
      </trkpt>
      <trkpt lat="42.51573" lon="2.07565">
        <ele>1779.0984954793</ele>
        <time>2000-05-11T14:31:01.918</time>
      </trkpt>
      <trkpt lat="42.51571" lon="2.07566">
        <ele>1778.1111629264</ele>
        <time>2000-05-11T14:31:02.918</time>
      </trkpt>
      <trkpt lat="42.51569" lon="2.07568">
        <ele>1777.1300863924</ele>
        <time>2000-05-11T14:31:03.918</time>
      </trkpt>
      <trkpt lat="42.51568" lon="2.07569">
        <ele>1776.0529078396</ele>
        <time>2000-05-11T14:31:04.918</time>
      </trkpt>
      <trkpt lat="42.51567" lon="2.0757">
        <ele>1775.7324013216</ele>
        <time>2000-05-11T14:31:05.918</time>
      </trkpt>
      <trkpt lat="42.51566" lon="2.07571">
        <ele>1775.4940581363</ele>
        <time>2000-05-11T14:31:06.918</time>
      </trkpt>
      <trkpt lat="42.51566" lon="2.07571">
        <ele>1775.228158726</ele>
        <time>2000-05-11T14:31:07.918</time>
      </trkpt>
      <trkpt lat="42.51565" lon="2.07573">
        <ele>1774.5288410058</ele>
        <time>2000-05-11T14:31:08.918</time>
      </trkpt>
      <trkpt lat="42.51565" lon="2.07574">
        <ele>1773.7460328965</ele>
        <time>2000-05-11T14:31:09.918</time>
      </trkpt>
      <trkpt lat="42.51564" lon="2.07575">
        <ele>1773.1613225255</ele>
        <time>2000-05-11T14:31:10.918</time>
      </trkpt>
      <trkpt lat="42.51565" lon="2.07575">
        <ele>1772.6487373656</ele>
        <time>2000-05-11T14:31:11.918</time>
      </trkpt>
      <trkpt lat="42.51565" lon="2.07576">
        <ele>1772.6165467057</ele>
        <time>2000-05-11T14:31:12.918</time>
      </trkpt>
      <trkpt lat="42.51565" lon="2.07577">
        <ele>1773.2896611288</ele>
        <time>2000-05-11T14:31:13.918</time>
      </trkpt>
      <trkpt lat="42.51564" lon="2.07578">
        <ele>1774.143673069</ele>
        <time>2000-05-11T14:31:14.918</time>
      </trkpt>
      <trkpt lat="42.51564" lon="2.0758">
        <ele>1774.900564838</ele>
        <time>2000-05-11T14:31:15.918</time>
      </trkpt>
      <trkpt lat="42.51563" lon="2.07582">
        <ele>1775.6295991808</ele>
        <time>2000-05-11T14:31:16.918</time>
      </trkpt>
      <trkpt lat="42.51563" lon="2.07584">
        <ele>1775.82050227</ele>
        <time>2000-05-11T14:31:17.918</time>
      </trkpt>
      <trkpt lat="42.51563" lon="2.07585">
        <ele>1775.8228393853</ele>
        <time>2000-05-11T14:31:18.918</time>
      </trkpt>
      <trkpt lat="42.51562" lon="2.07586">
        <ele>1776.0838034982</ele>
        <time>2000-05-11T14:31:19.918</time>
      </trkpt>
      <trkpt lat="42.51561" lon="2.07587">
        <ele>1776.3587627975</ele>
        <time>2000-05-11T14:31:20.918</time>
      </trkpt>
      <trkpt lat="42.51561" lon="2.07587">
        <ele>1776.5502611574</ele>
        <time>2000-05-11T14:31:21.918</time>
      </trkpt>
      <trkpt lat="42.51561" lon="2.07589">
        <ele>1777.021780551</ele>
        <time>2000-05-11T14:31:22.918</time>
      </trkpt>
      <trkpt lat="42.51561" lon="2.0759">
        <ele>1777.4721028872</ele>
        <time>2000-05-11T14:31:23.918</time>
      </trkpt>
      <trkpt lat="42.5156" lon="2.07591">
        <ele>1777.7338713543</ele>
        <time>2000-05-11T14:31:24.918</time>
      </trkpt>
      <trkpt lat="42.5156" lon="2.07593">
        <ele>1778.2882150862</ele>
        <time>2000-05-11T14:31:25.918</time>
      </trkpt>
      <trkpt lat="42.5156" lon="2.07593">
        <ele>1779.1468391661</ele>
        <time>2000-05-11T14:31:26.918</time>
      </trkpt>
      <trkpt lat="42.5156" lon="2.07594">
        <ele>1779.7702469749</ele>
        <time>2000-05-11T14:31:27.918</time>
      </trkpt>
      <trkpt lat="42.5156" lon="2.07595">
        <ele>1780.0632932737</ele>
        <time>2000-05-11T14:31:28.918</time>
      </trkpt>
      <trkpt lat="42.5156" lon="2.07598">
        <ele>1780.1280702362</ele>
        <time>2000-05-11T14:31:29.919</time>
      </trkpt>
      <trkpt lat="42.51559" lon="2.076">
        <ele>1780.0969985891</ele>
        <time>2000-05-11T14:31:30.919</time>
      </trkpt>
      <trkpt lat="42.51558" lon="2.07602">
        <ele>1779.5957385808</ele>
        <time>2000-05-11T14:31:31.919</time>
      </trkpt>
      <trkpt lat="42.51558" lon="2.07604">
        <ele>1779.3609350864</ele>
        <time>2000-05-11T14:31:32.919</time>
      </trkpt>
      <trkpt lat="42.51558" lon="2.07606">
        <ele>1779.2653071877</ele>
        <time>2000-05-11T14:31:33.919</time>
      </trkpt>
      <trkpt lat="42.51558" lon="2.07608">
        <ele>1779.5809296541</ele>
        <time>2000-05-11T14:31:34.919</time>
      </trkpt>
      <trkpt lat="42.51558" lon="2.0761">
        <ele>1780.0475367123</ele>
        <time>2000-05-11T14:31:35.919</time>
      </trkpt>
      <trkpt lat="42.51557" lon="2.07611">
        <ele>1780.9038674047</ele>
        <time>2000-05-11T14:31:36.919</time>
      </trkpt>
      <trkpt lat="42.51557" lon="2.07612">
        <ele>1781.5802689089</ele>
        <time>2000-05-11T14:31:37.919</time>
      </trkpt>
      <trkpt lat="42.51556" lon="2.07613">
        <ele>1782.295818493</ele>
        <time>2000-05-11T14:31:38.919</time>
      </trkpt>
      <trkpt lat="42.51556" lon="2.07613">
        <ele>1782.7570088103</ele>
        <time>2000-05-11T14:31:39.919</time>
      </trkpt>
      <trkpt lat="42.51555" lon="2.07614">
        <ele>1782.7131289903</ele>
        <time>2000-05-11T14:31:40.919</time>
      </trkpt>
      <trkpt lat="42.51552" lon="2.07616">
        <ele>1782.0441534152</ele>
        <time>2000-05-11T14:31:41.919</time>
      </trkpt>
      <trkpt lat="42.51549" lon="2.07617">
        <ele>1781.132188162</ele>
        <time>2000-05-11T14:31:42.919</time>
      </trkpt>
      <trkpt lat="42.51548" lon="2.07618">
        <ele>1779.9818524422</ele>
        <time>2000-05-11T14:31:43.919</time>
      </trkpt>
      <trkpt lat="42.51546" lon="2.0762">
        <ele>1778.7514243383</ele>
        <time>2000-05-11T14:31:44.919</time>
      </trkpt>
      <trkpt lat="42.51545" lon="2.07621">
        <ele>1777.6549887428</ele>
        <time>2000-05-11T14:31:45.919</time>
      </trkpt>
      <trkpt lat="42.51544" lon="2.07623">
        <ele>1776.9164119232</ele>
        <time>2000-05-11T14:31:46.919</time>
      </trkpt>
      <trkpt lat="42.51543" lon="2.07625">
        <ele>1776.4937775347</ele>
        <time>2000-05-11T14:31:47.919</time>
      </trkpt>
      <trkpt lat="42.51541" lon="2.07626">
        <ele>1776.4012641285</ele>
        <time>2000-05-11T14:31:48.919</time>
      </trkpt>
      <trkpt lat="42.51541" lon="2.07626">
        <ele>1776.5173722861</ele>
        <time>2000-05-11T14:31:49.919</time>
      </trkpt>
      <trkpt lat="42.5154" lon="2.07627">
        <ele>1776.9329163272</ele>
        <time>2000-05-11T14:31:50.919</time>
      </trkpt>
      <trkpt lat="42.5154" lon="2.07627">
        <ele>1777.4952777633</ele>
        <time>2000-05-11T14:31:51.919</time>
      </trkpt>
      <trkpt lat="42.51539" lon="2.07627">
        <ele>1777.8992430592</ele>
        <time>2000-05-11T14:31:52.919</time>
      </trkpt>
      <trkpt lat="42.51539" lon="2.07626">
        <ele>1778.230910898</ele>
        <time>2000-05-11T14:31:53.917</time>
      </trkpt>
      <trkpt lat="42.51539" lon="2.07626">
        <ele>1778.434049557</ele>
        <time>2000-05-11T14:31:54.917</time>
      </trkpt>
      <trkpt lat="42.51539" lon="2.07627">
        <ele>1778.3543954805</ele>
        <time>2000-05-11T14:31:55.917</time>
      </trkpt>
      <trkpt lat="42.51539" lon="2.07627">
        <ele>1778.1713453671</ele>
        <time>2000-05-11T14:31:56.917</time>
      </trkpt>
      <trkpt lat="42.51538" lon="2.0763">
        <ele>1777.7965887679</ele>
        <time>2000-05-11T14:31:57.923</time>
      </trkpt>
      <trkpt lat="42.51537" lon="2.07632">
        <ele>1777.3671509793</ele>
        <time>2000-05-11T14:31:58.923</time>
      </trkpt>
      <trkpt lat="42.51536" lon="2.07634">
        <ele>1776.8235238524</ele>
        <time>2000-05-11T14:31:59.923</time>
      </trkpt>
      <trkpt lat="42.51536" lon="2.07636">
        <ele>1776.3348006422</ele>
        <time>2000-05-11T14:32:00.923</time>
      </trkpt>
      <trkpt lat="42.51536" lon="2.07638">
        <ele>1775.973861946</ele>
        <time>2000-05-11T14:32:01.923</time>
      </trkpt>
      <trkpt lat="42.51536" lon="2.07639">
        <ele>1776.0416483032</ele>
        <time>2000-05-11T14:32:02.923</time>
      </trkpt>
      <trkpt lat="42.51537" lon="2.0764">
        <ele>1776.2771493858</ele>
        <time>2000-05-11T14:32:03.923</time>
      </trkpt>
      <trkpt lat="42.51537" lon="2.07641">
        <ele>1776.6430534782</ele>
        <time>2000-05-11T14:32:04.923</time>
      </trkpt>
      <trkpt lat="42.51537" lon="2.07642">
        <ele>1776.959136717</ele>
        <time>2000-05-11T14:32:05.923</time>
      </trkpt>
      <trkpt lat="42.51537" lon="2.07643">
        <ele>1777.0896401789</ele>
        <time>2000-05-11T14:32:06.923</time>
      </trkpt>
      <trkpt lat="42.51537" lon="2.07644">
        <ele>1777.142571613</ele>
        <time>2000-05-11T14:32:07.923</time>
      </trkpt>
      <trkpt lat="42.51537" lon="2.07645">
        <ele>1777.3748820858</ele>
        <time>2000-05-11T14:32:08.923</time>
      </trkpt>
      <trkpt lat="42.51537" lon="2.07647">
        <ele>1777.7901997196</ele>
        <time>2000-05-11T14:32:09.923</time>
      </trkpt>
      <trkpt lat="42.51537" lon="2.07648">
        <ele>1778.2795124741</ele>
        <time>2000-05-11T14:32:10.923</time>
      </trkpt>
      <trkpt lat="42.51537" lon="2.07651">
        <ele>1779.2822688544</ele>
        <time>2000-05-11T14:32:11.923</time>
      </trkpt>
      <trkpt lat="42.51537" lon="2.07652">
        <ele>1780.0726067957</ele>
        <time>2000-05-11T14:32:12.923</time>
      </trkpt>
      <trkpt lat="42.51536" lon="2.07653">
        <ele>1780.5758180613</ele>
        <time>2000-05-11T14:32:13.923</time>
      </trkpt>
      <trkpt lat="42.51535" lon="2.07655">
        <ele>1780.5315752754</ele>
        <time>2000-05-11T14:32:14.924</time>
      </trkpt>
      <trkpt lat="42.51533" lon="2.07657">
        <ele>1780.1442075033</ele>
        <time>2000-05-11T14:32:15.924</time>
      </trkpt>
      <trkpt lat="42.51531" lon="2.07659">
        <ele>1778.9699513732</ele>
        <time>2000-05-11T14:32:16.924</time>
      </trkpt>
      <trkpt lat="42.5153" lon="2.0766">
        <ele>1778.0165136898</ele>
        <time>2000-05-11T14:32:17.924</time>
      </trkpt>
      <trkpt lat="42.5153" lon="2.07661">
        <ele>1777.288469968</ele>
        <time>2000-05-11T14:32:18.924</time>
      </trkpt>
      <trkpt lat="42.51529" lon="2.07663">
        <ele>1776.9484468622</ele>
        <time>2000-05-11T14:32:19.924</time>
      </trkpt>
      <trkpt lat="42.51529" lon="2.07663">
        <ele>1776.8388879022</ele>
        <time>2000-05-11T14:32:20.924</time>
      </trkpt>
      <trkpt lat="42.51528" lon="2.07665">
        <ele>1777.1580906495</ele>
        <time>2000-05-11T14:32:21.924</time>
      </trkpt>
      <trkpt lat="42.51528" lon="2.07666">
        <ele>1777.3527758537</ele>
        <time>2000-05-11T14:32:22.924</time>
      </trkpt>
      <trkpt lat="42.51527" lon="2.07667">
        <ele>1777.234102121</ele>
        <time>2000-05-11T14:32:23.924</time>
      </trkpt>
      <trkpt lat="42.51526" lon="2.07669">
        <ele>1776.9713168966</ele>
        <time>2000-05-11T14:32:24.924</time>
      </trkpt>
      <trkpt lat="42.51525" lon="2.07671">
        <ele>1776.7944942802</ele>
        <time>2000-05-11T14:32:25.924</time>
      </trkpt>
      <trkpt lat="42.51522" lon="2.07672">
        <ele>1776.6784310419</ele>
        <time>2000-05-11T14:32:26.924</time>
      </trkpt>
      <trkpt lat="42.5152" lon="2.07674">
        <ele>1776.916390501</ele>
        <time>2000-05-11T14:32:27.924</time>
      </trkpt>
      <trkpt lat="42.51519" lon="2.07675">
        <ele>1777.5717535984</ele>
        <time>2000-05-11T14:32:28.924</time>
      </trkpt>
    </trkseg>
  </trk>
</gpx>